<?xml version="1.0" encoding="UTF-8" standalone="no" ?>
<gpx xmlns="http://www.topografix.com/GPX/1/1" xmlns:xsi="http://www.w3.org/2001/XMLSchema-instance" xsi:schemaLocation="http://www.topografix.com/GPX/1/1 http://www.topografix.com/GPX/1/1/gpx.xsd" version="1.1" creator="VisuGPX - https://www.visugpx.com">
  <metadata>
    <name>LANGOGNE-LE PUY Route</name>
    <desc><![CDATA[Road trip de Langogne (48)à Ganges (34)en 4 jours]]></desc>
  </metadata>
  <trk>
    <name><![CDATA[LANGOGNE-LE PUY Route_1]]></name>
    <trkseg>
      <trkpt lat="44.5201" lon="4.90601">
        <ele>253.9</ele>
      </trkpt>
    </trkseg>
  </trk>
  <trk>
    <name><![CDATA[LANGOGNE-LE PUY Route]]></name>
    <extensions>
      <line xmlns="http://www.topografix.com/GPX/gpx_style/0/2">
        <color>00FF00</color>
        <width>4</width>
      </line>
    </extensions>
    <trkseg>
      <trkpt lat="44.73255" lon="3.85715">
        <ele>914.15</ele>
        <time>2025-04-15T14:17:49.000Z</time>
      </trkpt>
      <trkpt lat="44.73227" lon="3.85698">
        <ele>914.84</ele>
        <time>2025-04-15T14:17:49.005Z</time>
      </trkpt>
      <trkpt lat="44.73199" lon="3.85682">
        <ele>915.67</ele>
        <time>2025-04-15T14:17:49.015Z</time>
      </trkpt>
      <trkpt lat="44.73196" lon="3.8568">
        <ele>916.26</ele>
        <time>2025-04-15T14:17:49.025Z</time>
      </trkpt>
      <trkpt lat="44.73193" lon="3.85678">
        <ele>916.73</ele>
        <time>2025-04-15T14:17:49.036Z</time>
      </trkpt>
      <trkpt lat="44.73167" lon="3.85665">
        <ele>917.28</ele>
        <time>2025-04-15T14:17:49.051Z</time>
      </trkpt>
      <trkpt lat="44.73141" lon="3.85652">
        <ele>917.76</ele>
        <time>2025-04-15T14:17:49.071Z</time>
      </trkpt>
      <trkpt lat="44.73125" lon="3.85645">
        <ele>918.08</ele>
        <time>2025-04-15T14:17:49.093Z</time>
      </trkpt>
      <trkpt lat="44.73109" lon="3.85637">
        <ele>918.36</ele>
        <time>2025-04-15T14:17:49.118Z</time>
      </trkpt>
      <trkpt lat="44.73105" lon="3.85635">
        <ele>918.64</ele>
        <time>2025-04-15T14:17:49.144Z</time>
      </trkpt>
      <trkpt lat="44.73088" lon="3.85629">
        <ele>918.93</ele>
        <time>2025-04-15T14:17:49.173Z</time>
      </trkpt>
      <trkpt lat="44.73067" lon="3.85626">
        <ele>919.23</ele>
        <time>2025-04-15T14:17:49.205Z</time>
      </trkpt>
      <trkpt lat="44.73047" lon="3.85622">
        <ele>919.52</ele>
        <time>2025-04-15T14:17:49.240Z</time>
      </trkpt>
      <trkpt lat="44.73027" lon="3.85613">
        <ele>919.94</ele>
        <time>2025-04-15T14:17:49.279Z</time>
      </trkpt>
      <trkpt lat="44.73006" lon="3.85603">
        <ele>920.52</ele>
        <time>2025-04-15T14:17:49.321Z</time>
      </trkpt>
      <trkpt lat="44.72998" lon="3.85594">
        <ele>921.27</ele>
        <time>2025-04-15T14:17:49.365Z</time>
      </trkpt>
      <trkpt lat="44.73" lon="3.85579">
        <ele>922.38</ele>
        <time>2025-04-15T14:17:49.410Z</time>
      </trkpt>
      <trkpt lat="44.73011" lon="3.85558">
        <ele>923.75</ele>
        <time>2025-04-15T14:17:49.458Z</time>
      </trkpt>
      <trkpt lat="44.73023" lon="3.85541">
        <ele>925.2</ele>
        <time>2025-04-15T14:17:49.509Z</time>
      </trkpt>
      <trkpt lat="44.73036" lon="3.85524">
        <ele>926.87</ele>
        <time>2025-04-15T14:17:49.563Z</time>
      </trkpt>
      <trkpt lat="44.73054" lon="3.85498">
        <ele>928.84</ele>
        <time>2025-04-15T14:17:49.621Z</time>
      </trkpt>
      <trkpt lat="44.73071" lon="3.85472">
        <ele>930.86</ele>
        <time>2025-04-15T14:17:49.683Z</time>
      </trkpt>
      <trkpt lat="44.73077" lon="3.85459">
        <ele>932.99</ele>
        <time>2025-04-15T14:17:49.747Z</time>
      </trkpt>
      <trkpt lat="44.73066" lon="3.85442">
        <ele>935.32</ele>
        <time>2025-04-15T14:17:49.814Z</time>
      </trkpt>
      <trkpt lat="44.73056" lon="3.85425">
        <ele>937.81</ele>
        <time>2025-04-15T14:17:49.883Z</time>
      </trkpt>
      <trkpt lat="44.73046" lon="3.85397">
        <ele>940.39</ele>
        <time>2025-04-15T14:17:49.956Z</time>
      </trkpt>
      <trkpt lat="44.73036" lon="3.85369">
        <ele>942.87</ele>
        <time>2025-04-15T14:17:50.032Z</time>
      </trkpt>
      <trkpt lat="44.73031" lon="3.85335">
        <ele>945.25</ele>
        <time>2025-04-15T14:17:50.112Z</time>
      </trkpt>
      <trkpt lat="44.73025" lon="3.853">
        <ele>947.63</ele>
        <time>2025-04-15T14:17:50.196Z</time>
      </trkpt>
      <trkpt lat="44.73019" lon="3.85266">
        <ele>950.19</ele>
        <time>2025-04-15T14:17:50.284Z</time>
      </trkpt>
      <trkpt lat="44.73021" lon="3.85233">
        <ele>952.94</ele>
        <time>2025-04-15T14:17:50.376Z</time>
      </trkpt>
      <trkpt lat="44.73023" lon="3.852">
        <ele>955.8</ele>
        <time>2025-04-15T14:17:50.472Z</time>
      </trkpt>
      <trkpt lat="44.73019" lon="3.85163">
        <ele>958.65</ele>
        <time>2025-04-15T14:17:50.572Z</time>
      </trkpt>
      <trkpt lat="44.73006" lon="3.85137">
        <ele>961.23</ele>
        <time>2025-04-15T14:17:50.676Z</time>
      </trkpt>
      <trkpt lat="44.72993" lon="3.8511">
        <ele>963.71</ele>
        <time>2025-04-15T14:17:50.783Z</time>
      </trkpt>
      <trkpt lat="44.72981" lon="3.85084">
        <ele>966.02</ele>
        <time>2025-04-15T14:17:50.894Z</time>
      </trkpt>
      <trkpt lat="44.72971" lon="3.85056">
        <ele>968.12</ele>
        <time>2025-04-15T14:17:51.009Z</time>
      </trkpt>
      <trkpt lat="44.7296" lon="3.85028">
        <ele>970.09</ele>
        <time>2025-04-15T14:17:51.127Z</time>
      </trkpt>
      <trkpt lat="44.72951" lon="3.85">
        <ele>971.94</ele>
        <time>2025-04-15T14:17:51.249Z</time>
      </trkpt>
      <trkpt lat="44.72955" lon="3.84973">
        <ele>973.71</ele>
        <time>2025-04-15T14:17:51.374Z</time>
      </trkpt>
      <trkpt lat="44.72959" lon="3.84946">
        <ele>975.39</ele>
        <time>2025-04-15T14:17:51.502Z</time>
      </trkpt>
      <trkpt lat="44.72966" lon="3.84912">
        <ele>977.11</ele>
        <time>2025-04-15T14:17:51.634Z</time>
      </trkpt>
      <trkpt lat="44.72972" lon="3.84878">
        <ele>978.83</ele>
        <time>2025-04-15T14:17:51.770Z</time>
      </trkpt>
      <trkpt lat="44.72978" lon="3.84843">
        <ele>980.56</ele>
        <time>2025-04-15T14:17:51.910Z</time>
      </trkpt>
      <trkpt lat="44.72985" lon="3.84816">
        <ele>982.24</ele>
        <time>2025-04-15T14:17:52.054Z</time>
      </trkpt>
      <trkpt lat="44.72985" lon="3.84816">
        <ele>983.68</ele>
        <time>2025-04-15T14:17:52.198Z</time>
      </trkpt>
      <trkpt lat="44.72992" lon="3.8478">
        <ele>985.29</ele>
        <time>2025-04-15T14:17:52.346Z</time>
      </trkpt>
      <trkpt lat="44.73" lon="3.84745">
        <ele>986.86</ele>
        <time>2025-04-15T14:17:52.498Z</time>
      </trkpt>
      <trkpt lat="44.73003" lon="3.84721">
        <ele>988.32</ele>
        <time>2025-04-15T14:17:52.653Z</time>
      </trkpt>
      <trkpt lat="44.73006" lon="3.84697">
        <ele>989.65</ele>
        <time>2025-04-15T14:17:52.810Z</time>
      </trkpt>
      <trkpt lat="44.73003" lon="3.8466">
        <ele>990.88</ele>
        <time>2025-04-15T14:17:52.972Z</time>
      </trkpt>
      <trkpt lat="44.73" lon="3.84622">
        <ele>992.01</ele>
        <time>2025-04-15T14:17:53.138Z</time>
      </trkpt>
      <trkpt lat="44.73006" lon="3.84592">
        <ele>993.02</ele>
        <time>2025-04-15T14:17:53.308Z</time>
      </trkpt>
      <trkpt lat="44.73011" lon="3.84561">
        <ele>993.93</ele>
        <time>2025-04-15T14:17:53.481Z</time>
      </trkpt>
      <trkpt lat="44.73017" lon="3.8453">
        <ele>994.73</ele>
        <time>2025-04-15T14:17:53.658Z</time>
      </trkpt>
      <trkpt lat="44.73025" lon="3.84505">
        <ele>995.47</ele>
        <time>2025-04-15T14:17:53.838Z</time>
      </trkpt>
      <trkpt lat="44.73032" lon="3.84481">
        <ele>996.08</ele>
        <time>2025-04-15T14:17:54.021Z</time>
      </trkpt>
      <trkpt lat="44.73036" lon="3.84468">
        <ele>996.62</ele>
        <time>2025-04-15T14:17:54.206Z</time>
      </trkpt>
      <trkpt lat="44.73049" lon="3.84432">
        <ele>997.06</ele>
        <time>2025-04-15T14:17:54.395Z</time>
      </trkpt>
      <trkpt lat="44.73062" lon="3.84396">
        <ele>997.51</ele>
        <time>2025-04-15T14:17:54.589Z</time>
      </trkpt>
      <trkpt lat="44.73075" lon="3.8436">
        <ele>997.92</ele>
        <time>2025-04-15T14:17:54.788Z</time>
      </trkpt>
      <trkpt lat="44.73088" lon="3.84323">
        <ele>998.27</ele>
        <time>2025-04-15T14:17:54.991Z</time>
      </trkpt>
      <trkpt lat="44.73101" lon="3.84288">
        <ele>998.43</ele>
        <time>2025-04-15T14:17:55.199Z</time>
      </trkpt>
      <trkpt lat="44.73111" lon="3.84263">
        <ele>998.54</ele>
        <time>2025-04-15T14:17:55.410Z</time>
      </trkpt>
      <trkpt lat="44.73122" lon="3.84238">
        <ele>998.64</ele>
        <time>2025-04-15T14:17:55.624Z</time>
      </trkpt>
      <trkpt lat="44.73126" lon="3.84232">
        <ele>998.72</ele>
        <time>2025-04-15T14:17:55.839Z</time>
      </trkpt>
      <trkpt lat="44.73133" lon="3.84213">
        <ele>998.72</ele>
        <time>2025-04-15T14:17:56.057Z</time>
      </trkpt>
      <trkpt lat="44.73133" lon="3.84213">
        <ele>998.68</ele>
        <time>2025-04-15T14:17:56.275Z</time>
      </trkpt>
      <trkpt lat="44.7315" lon="3.84176">
        <ele>998.68</ele>
        <time>2025-04-15T14:17:56.498Z</time>
      </trkpt>
      <trkpt lat="44.73167" lon="3.8414">
        <ele>998.49</ele>
        <time>2025-04-15T14:17:56.726Z</time>
      </trkpt>
      <trkpt lat="44.73187" lon="3.84105">
        <ele>998.27</ele>
        <time>2025-04-15T14:17:56.959Z</time>
      </trkpt>
      <trkpt lat="44.732" lon="3.84084">
        <ele>998.08</ele>
        <time>2025-04-15T14:17:57.195Z</time>
      </trkpt>
      <trkpt lat="44.73214" lon="3.84062">
        <ele>997.8</ele>
        <time>2025-04-15T14:17:57.434Z</time>
      </trkpt>
      <trkpt lat="44.73229" lon="3.84045">
        <ele>997.33</ele>
        <time>2025-04-15T14:17:57.676Z</time>
      </trkpt>
      <trkpt lat="44.73244" lon="3.84028">
        <ele>996.77</ele>
        <time>2025-04-15T14:17:57.922Z</time>
      </trkpt>
      <trkpt lat="44.73244" lon="3.84004">
        <ele>995.94</ele>
        <time>2025-04-15T14:17:58.170Z</time>
      </trkpt>
      <trkpt lat="44.7327" lon="3.83993">
        <ele>995.29</ele>
        <time>2025-04-15T14:17:58.422Z</time>
      </trkpt>
      <trkpt lat="44.73295" lon="3.83982">
        <ele>994.53</ele>
        <time>2025-04-15T14:17:58.679Z</time>
      </trkpt>
      <trkpt lat="44.73321" lon="3.83971">
        <ele>993.62</ele>
        <time>2025-04-15T14:17:58.940Z</time>
      </trkpt>
      <trkpt lat="44.73346" lon="3.8396">
        <ele>992.54</ele>
        <time>2025-04-15T14:17:59.205Z</time>
      </trkpt>
      <trkpt lat="44.73371" lon="3.83949">
        <ele>991.38</ele>
        <time>2025-04-15T14:17:59.474Z</time>
      </trkpt>
      <trkpt lat="44.73397" lon="3.83938">
        <ele>989.94</ele>
        <time>2025-04-15T14:17:59.748Z</time>
      </trkpt>
      <trkpt lat="44.73426" lon="3.83921">
        <ele>988.6</ele>
        <time>2025-04-15T14:18:00.027Z</time>
      </trkpt>
      <trkpt lat="44.73455" lon="3.83904">
        <ele>987.21</ele>
        <time>2025-04-15T14:18:00.311Z</time>
      </trkpt>
      <trkpt lat="44.73481" lon="3.83882">
        <ele>985.64</ele>
        <time>2025-04-15T14:18:00.600Z</time>
      </trkpt>
      <trkpt lat="44.73504" lon="3.83857">
        <ele>983.97</ele>
        <time>2025-04-15T14:18:00.893Z</time>
      </trkpt>
      <trkpt lat="44.73528" lon="3.83832">
        <ele>982.27</ele>
        <time>2025-04-15T14:18:01.191Z</time>
      </trkpt>
      <trkpt lat="44.73551" lon="3.83807">
        <ele>980.58</ele>
        <time>2025-04-15T14:18:01.494Z</time>
      </trkpt>
      <trkpt lat="44.73575" lon="3.83782">
        <ele>978.74</ele>
        <time>2025-04-15T14:18:01.802Z</time>
      </trkpt>
      <trkpt lat="44.73599" lon="3.83757">
        <ele>976.84</ele>
        <time>2025-04-15T14:18:02.114Z</time>
      </trkpt>
      <trkpt lat="44.73622" lon="3.83732">
        <ele>975.19</ele>
        <time>2025-04-15T14:18:02.431Z</time>
      </trkpt>
      <trkpt lat="44.73622" lon="3.83732">
        <ele>973.46</ele>
        <time>2025-04-15T14:18:02.748Z</time>
      </trkpt>
      <trkpt lat="44.73645" lon="3.83708">
        <ele>971.82</ele>
        <time>2025-04-15T14:18:03.070Z</time>
      </trkpt>
      <trkpt lat="44.73668" lon="3.83684">
        <ele>969.98</ele>
        <time>2025-04-15T14:18:03.396Z</time>
      </trkpt>
      <trkpt lat="44.7369" lon="3.8366">
        <ele>968.14</ele>
        <time>2025-04-15T14:18:03.727Z</time>
      </trkpt>
      <trkpt lat="44.73713" lon="3.83636">
        <ele>966.28</ele>
        <time>2025-04-15T14:18:04.062Z</time>
      </trkpt>
      <trkpt lat="44.73736" lon="3.83612">
        <ele>964.47</ele>
        <time>2025-04-15T14:18:04.402Z</time>
      </trkpt>
      <trkpt lat="44.73755" lon="3.83582">
        <ele>962.62</ele>
        <time>2025-04-15T14:18:04.746Z</time>
      </trkpt>
      <trkpt lat="44.73775" lon="3.83552">
        <ele>960.76</ele>
        <time>2025-04-15T14:18:05.095Z</time>
      </trkpt>
      <trkpt lat="44.73794" lon="3.83522">
        <ele>958.89</ele>
        <time>2025-04-15T14:18:05.449Z</time>
      </trkpt>
      <trkpt lat="44.73813" lon="3.83492">
        <ele>957.07</ele>
        <time>2025-04-15T14:18:05.807Z</time>
      </trkpt>
      <trkpt lat="44.73813" lon="3.83492">
        <ele>955.46</ele>
        <time>2025-04-15T14:18:06.165Z</time>
      </trkpt>
      <trkpt lat="44.73833" lon="3.8346">
        <ele>953.61</ele>
        <time>2025-04-15T14:18:06.528Z</time>
      </trkpt>
      <trkpt lat="44.73853" lon="3.83429">
        <ele>951.95</ele>
        <time>2025-04-15T14:18:06.896Z</time>
      </trkpt>
      <trkpt lat="44.73873" lon="3.83398">
        <ele>950.47</ele>
        <time>2025-04-15T14:18:07.269Z</time>
      </trkpt>
      <trkpt lat="44.73893" lon="3.83367">
        <ele>949.12</ele>
        <time>2025-04-15T14:18:07.646Z</time>
      </trkpt>
      <trkpt lat="44.73906" lon="3.83349">
        <ele>947.86</ele>
        <time>2025-04-15T14:18:08.026Z</time>
      </trkpt>
      <trkpt lat="44.7392" lon="3.83331">
        <ele>946.79</ele>
        <time>2025-04-15T14:18:08.409Z</time>
      </trkpt>
      <trkpt lat="44.73942" lon="3.83313">
        <ele>945.82</ele>
        <time>2025-04-15T14:18:08.796Z</time>
      </trkpt>
      <trkpt lat="44.7395" lon="3.83309">
        <ele>945.01</ele>
        <time>2025-04-15T14:18:09.185Z</time>
      </trkpt>
      <trkpt lat="44.73977" lon="3.83297">
        <ele>944.28</ele>
        <time>2025-04-15T14:18:09.578Z</time>
      </trkpt>
      <trkpt lat="44.74004" lon="3.83285">
        <ele>943.67</ele>
        <time>2025-04-15T14:18:09.976Z</time>
      </trkpt>
      <trkpt lat="44.74031" lon="3.83273">
        <ele>943.17</ele>
        <time>2025-04-15T14:18:10.378Z</time>
      </trkpt>
      <trkpt lat="44.74059" lon="3.8326">
        <ele>942.86</ele>
        <time>2025-04-15T14:18:10.785Z</time>
      </trkpt>
      <trkpt lat="44.74086" lon="3.83248">
        <ele>942.64</ele>
        <time>2025-04-15T14:18:11.197Z</time>
      </trkpt>
      <trkpt lat="44.74113" lon="3.83236">
        <ele>942.46</ele>
        <time>2025-04-15T14:18:11.613Z</time>
      </trkpt>
      <trkpt lat="44.7414" lon="3.83224">
        <ele>942.55</ele>
        <time>2025-04-15T14:18:12.034Z</time>
      </trkpt>
      <trkpt lat="44.74167" lon="3.83211">
        <ele>942.69</ele>
        <time>2025-04-15T14:18:12.459Z</time>
      </trkpt>
      <trkpt lat="44.74194" lon="3.83199">
        <ele>942.94</ele>
        <time>2025-04-15T14:18:12.889Z</time>
      </trkpt>
      <trkpt lat="44.74221" lon="3.83187">
        <ele>943.26</ele>
        <time>2025-04-15T14:18:13.323Z</time>
      </trkpt>
      <trkpt lat="44.7424" lon="3.83168">
        <ele>943.62</ele>
        <time>2025-04-15T14:18:13.761Z</time>
      </trkpt>
      <trkpt lat="44.74254" lon="3.83145">
        <ele>944.01</ele>
        <time>2025-04-15T14:18:14.202Z</time>
      </trkpt>
      <trkpt lat="44.74269" lon="3.83123">
        <ele>944.54</ele>
        <time>2025-04-15T14:18:14.647Z</time>
      </trkpt>
      <trkpt lat="44.74283" lon="3.83101">
        <ele>945.02</ele>
        <time>2025-04-15T14:18:15.095Z</time>
      </trkpt>
      <trkpt lat="44.74303" lon="3.83076">
        <ele>945.48</ele>
        <time>2025-04-15T14:18:15.548Z</time>
      </trkpt>
      <trkpt lat="44.74324" lon="3.83052">
        <ele>945.98</ele>
        <time>2025-04-15T14:18:16.005Z</time>
      </trkpt>
      <trkpt lat="44.74341" lon="3.83035">
        <ele>946.51</ele>
        <time>2025-04-15T14:18:16.465Z</time>
      </trkpt>
      <trkpt lat="44.74358" lon="3.83017">
        <ele>947.01</ele>
        <time>2025-04-15T14:18:16.929Z</time>
      </trkpt>
      <trkpt lat="44.74381" lon="3.82999">
        <ele>947.55</ele>
        <time>2025-04-15T14:18:17.397Z</time>
      </trkpt>
      <trkpt lat="44.74404" lon="3.82981">
        <ele>948.02</ele>
        <time>2025-04-15T14:18:17.869Z</time>
      </trkpt>
      <trkpt lat="44.74427" lon="3.82963">
        <ele>948.41</ele>
        <time>2025-04-15T14:18:18.345Z</time>
      </trkpt>
      <trkpt lat="44.7445" lon="3.82944">
        <ele>948.8</ele>
        <time>2025-04-15T14:18:18.826Z</time>
      </trkpt>
      <trkpt lat="44.74466" lon="3.82936">
        <ele>949.18</ele>
        <time>2025-04-15T14:18:19.309Z</time>
      </trkpt>
      <trkpt lat="44.74483" lon="3.82927">
        <ele>949.52</ele>
        <time>2025-04-15T14:18:19.795Z</time>
      </trkpt>
      <trkpt lat="44.745" lon="3.82923">
        <ele>949.87</ele>
        <time>2025-04-15T14:18:20.284Z</time>
      </trkpt>
      <trkpt lat="44.74517" lon="3.82919">
        <ele>950.19</ele>
        <time>2025-04-15T14:18:20.776Z</time>
      </trkpt>
      <trkpt lat="44.74544" lon="3.82922">
        <ele>950.54</ele>
        <time>2025-04-15T14:18:21.272Z</time>
      </trkpt>
      <trkpt lat="44.74571" lon="3.82926">
        <ele>950.8</ele>
        <time>2025-04-15T14:18:21.772Z</time>
      </trkpt>
      <trkpt lat="44.74598" lon="3.82929">
        <ele>951.04</ele>
        <time>2025-04-15T14:18:22.277Z</time>
      </trkpt>
      <trkpt lat="44.74624" lon="3.82921">
        <ele>951.22</ele>
        <time>2025-04-15T14:18:22.786Z</time>
      </trkpt>
      <trkpt lat="44.74637" lon="3.8291">
        <ele>951.25</ele>
        <time>2025-04-15T14:18:23.297Z</time>
      </trkpt>
      <trkpt lat="44.7465" lon="3.82891">
        <ele>951.26</ele>
        <time>2025-04-15T14:18:23.811Z</time>
      </trkpt>
      <trkpt lat="44.74656" lon="3.82859">
        <ele>951.1</ele>
        <time>2025-04-15T14:18:24.329Z</time>
      </trkpt>
      <trkpt lat="44.74661" lon="3.82819">
        <ele>950.82</ele>
        <time>2025-04-15T14:18:24.852Z</time>
      </trkpt>
      <trkpt lat="44.74666" lon="3.8278">
        <ele>950.51</ele>
        <time>2025-04-15T14:18:25.379Z</time>
      </trkpt>
      <trkpt lat="44.74671" lon="3.82741">
        <ele>950.22</ele>
        <time>2025-04-15T14:18:25.911Z</time>
      </trkpt>
      <trkpt lat="44.74677" lon="3.82718">
        <ele>949.89</ele>
        <time>2025-04-15T14:18:26.446Z</time>
      </trkpt>
      <trkpt lat="44.74682" lon="3.82695">
        <ele>949.45</ele>
        <time>2025-04-15T14:18:26.983Z</time>
      </trkpt>
      <trkpt lat="44.74691" lon="3.8268">
        <ele>949.05</ele>
        <time>2025-04-15T14:18:27.523Z</time>
      </trkpt>
      <trkpt lat="44.74706" lon="3.8267">
        <ele>948.68</ele>
        <time>2025-04-15T14:18:28.065Z</time>
      </trkpt>
      <trkpt lat="44.74721" lon="3.82663">
        <ele>948.28</ele>
        <time>2025-04-15T14:18:28.610Z</time>
      </trkpt>
      <trkpt lat="44.7474" lon="3.8267">
        <ele>948</ele>
        <time>2025-04-15T14:18:29.158Z</time>
      </trkpt>
      <trkpt lat="44.74753" lon="3.82674">
        <ele>947.68</ele>
        <time>2025-04-15T14:18:29.708Z</time>
      </trkpt>
      <trkpt lat="44.7476" lon="3.82673">
        <ele>947.38</ele>
        <time>2025-04-15T14:18:30.259Z</time>
      </trkpt>
      <trkpt lat="44.74764" lon="3.82672">
        <ele>947.13</ele>
        <time>2025-04-15T14:18:30.811Z</time>
      </trkpt>
      <trkpt lat="44.74772" lon="3.82657">
        <ele>946.82</ele>
        <time>2025-04-15T14:18:31.365Z</time>
      </trkpt>
      <trkpt lat="44.74777" lon="3.82618">
        <ele>946.49</ele>
        <time>2025-04-15T14:18:31.923Z</time>
      </trkpt>
      <trkpt lat="44.74783" lon="3.82579">
        <ele>946.36</ele>
        <time>2025-04-15T14:18:32.486Z</time>
      </trkpt>
      <trkpt lat="44.74788" lon="3.82541">
        <ele>946.51</ele>
        <time>2025-04-15T14:18:33.053Z</time>
      </trkpt>
      <trkpt lat="44.74793" lon="3.82502">
        <ele>946.54</ele>
        <time>2025-04-15T14:18:33.625Z</time>
      </trkpt>
      <trkpt lat="44.74798" lon="3.82463">
        <ele>946.55</ele>
        <time>2025-04-15T14:18:34.201Z</time>
      </trkpt>
      <trkpt lat="44.74804" lon="3.82425">
        <ele>946.93</ele>
        <time>2025-04-15T14:18:34.782Z</time>
      </trkpt>
      <trkpt lat="44.74809" lon="3.82386">
        <ele>947.43</ele>
        <time>2025-04-15T14:18:35.367Z</time>
      </trkpt>
      <trkpt lat="44.74804" lon="3.82356">
        <ele>947.82</ele>
        <time>2025-04-15T14:18:35.956Z</time>
      </trkpt>
      <trkpt lat="44.748" lon="3.82326">
        <ele>948.21</ele>
        <time>2025-04-15T14:18:36.548Z</time>
      </trkpt>
      <trkpt lat="44.748" lon="3.82326">
        <ele>948.51</ele>
        <time>2025-04-15T14:18:37.140Z</time>
      </trkpt>
      <trkpt lat="44.748" lon="3.823">
        <ele>948.9</ele>
        <time>2025-04-15T14:18:37.735Z</time>
      </trkpt>
      <trkpt lat="44.748" lon="3.82273">
        <ele>949.3</ele>
        <time>2025-04-15T14:18:38.333Z</time>
      </trkpt>
      <trkpt lat="44.74806" lon="3.82237">
        <ele>949.61</ele>
        <time>2025-04-15T14:18:38.936Z</time>
      </trkpt>
      <trkpt lat="44.74811" lon="3.82202">
        <ele>949.89</ele>
        <time>2025-04-15T14:18:39.543Z</time>
      </trkpt>
      <trkpt lat="44.74816" lon="3.82166">
        <ele>950.15</ele>
        <time>2025-04-15T14:18:40.154Z</time>
      </trkpt>
      <trkpt lat="44.74822" lon="3.82131">
        <ele>950.44</ele>
        <time>2025-04-15T14:18:40.769Z</time>
      </trkpt>
      <trkpt lat="44.74838" lon="3.82096">
        <ele>950.57</ele>
        <time>2025-04-15T14:18:41.389Z</time>
      </trkpt>
      <trkpt lat="44.74854" lon="3.82061">
        <ele>950.71</ele>
        <time>2025-04-15T14:18:42.014Z</time>
      </trkpt>
      <trkpt lat="44.74871" lon="3.82025">
        <ele>950.85</ele>
        <time>2025-04-15T14:18:42.643Z</time>
      </trkpt>
      <trkpt lat="44.74887" lon="3.8199">
        <ele>951.04</ele>
        <time>2025-04-15T14:18:43.277Z</time>
      </trkpt>
      <trkpt lat="44.74903" lon="3.81955">
        <ele>951.26</ele>
        <time>2025-04-15T14:18:43.916Z</time>
      </trkpt>
      <trkpt lat="44.74918" lon="3.81922">
        <ele>951.57</ele>
        <time>2025-04-15T14:18:44.559Z</time>
      </trkpt>
      <trkpt lat="44.74933" lon="3.81889">
        <ele>951.87</ele>
        <time>2025-04-15T14:18:45.207Z</time>
      </trkpt>
      <trkpt lat="44.74947" lon="3.81856">
        <ele>952.21</ele>
        <time>2025-04-15T14:18:45.859Z</time>
      </trkpt>
      <trkpt lat="44.74962" lon="3.81823">
        <ele>952.61</ele>
        <time>2025-04-15T14:18:46.516Z</time>
      </trkpt>
      <trkpt lat="44.74977" lon="3.8179">
        <ele>952.98</ele>
        <time>2025-04-15T14:18:47.177Z</time>
      </trkpt>
      <trkpt lat="44.74991" lon="3.81758">
        <ele>953.27</ele>
        <time>2025-04-15T14:18:47.842Z</time>
      </trkpt>
      <trkpt lat="44.75001" lon="3.81716">
        <ele>953.56</ele>
        <time>2025-04-15T14:18:48.512Z</time>
      </trkpt>
      <trkpt lat="44.75011" lon="3.81674">
        <ele>953.95</ele>
        <time>2025-04-15T14:18:49.187Z</time>
      </trkpt>
      <trkpt lat="44.75021" lon="3.81632">
        <ele>954.32</ele>
        <time>2025-04-15T14:18:49.868Z</time>
      </trkpt>
      <trkpt lat="44.7503" lon="3.81591">
        <ele>954.79</ele>
        <time>2025-04-15T14:18:50.554Z</time>
      </trkpt>
      <trkpt lat="44.7504" lon="3.81549">
        <ele>955.45</ele>
        <time>2025-04-15T14:18:51.245Z</time>
      </trkpt>
      <trkpt lat="44.7505" lon="3.81507">
        <ele>956.08</ele>
        <time>2025-04-15T14:18:51.941Z</time>
      </trkpt>
      <trkpt lat="44.7506" lon="3.81466">
        <ele>956.84</ele>
        <time>2025-04-15T14:18:52.642Z</time>
      </trkpt>
      <trkpt lat="44.7507" lon="3.81438">
        <ele>957.64</ele>
        <time>2025-04-15T14:18:53.346Z</time>
      </trkpt>
      <trkpt lat="44.7508" lon="3.8141">
        <ele>958.43</ele>
        <time>2025-04-15T14:18:54.054Z</time>
      </trkpt>
      <trkpt lat="44.7509" lon="3.81382">
        <ele>959.19</ele>
        <time>2025-04-15T14:18:54.765Z</time>
      </trkpt>
      <trkpt lat="44.75108" lon="3.81349">
        <ele>960.01</ele>
        <time>2025-04-15T14:18:55.481Z</time>
      </trkpt>
      <trkpt lat="44.75126" lon="3.81316">
        <ele>960.97</ele>
        <time>2025-04-15T14:18:56.202Z</time>
      </trkpt>
      <trkpt lat="44.75145" lon="3.81284">
        <ele>961.87</ele>
        <time>2025-04-15T14:18:56.927Z</time>
      </trkpt>
      <trkpt lat="44.75163" lon="3.81252">
        <ele>962.68</ele>
        <time>2025-04-15T14:18:57.657Z</time>
      </trkpt>
      <trkpt lat="44.75181" lon="3.81221">
        <ele>963.53</ele>
        <time>2025-04-15T14:18:58.392Z</time>
      </trkpt>
      <trkpt lat="44.752" lon="3.81189">
        <ele>964.4</ele>
        <time>2025-04-15T14:18:59.131Z</time>
      </trkpt>
      <trkpt lat="44.75218" lon="3.81157">
        <ele>965.23</ele>
        <time>2025-04-15T14:18:59.875Z</time>
      </trkpt>
      <trkpt lat="44.75237" lon="3.81125">
        <ele>966.03</ele>
        <time>2025-04-15T14:19:00.624Z</time>
      </trkpt>
      <trkpt lat="44.75255" lon="3.81094">
        <ele>966.69</ele>
        <time>2025-04-15T14:19:01.377Z</time>
      </trkpt>
      <trkpt lat="44.75273" lon="3.81062">
        <ele>967.37</ele>
        <time>2025-04-15T14:19:02.135Z</time>
      </trkpt>
      <trkpt lat="44.75292" lon="3.8103">
        <ele>968.07</ele>
        <time>2025-04-15T14:19:02.898Z</time>
      </trkpt>
      <trkpt lat="44.75309" lon="3.80998">
        <ele>968.65</ele>
        <time>2025-04-15T14:19:03.665Z</time>
      </trkpt>
      <trkpt lat="44.75327" lon="3.80965">
        <ele>969.27</ele>
        <time>2025-04-15T14:19:04.437Z</time>
      </trkpt>
      <trkpt lat="44.75345" lon="3.80933">
        <ele>969.74</ele>
        <time>2025-04-15T14:19:05.214Z</time>
      </trkpt>
      <trkpt lat="44.75363" lon="3.809">
        <ele>970.2</ele>
        <time>2025-04-15T14:19:05.995Z</time>
      </trkpt>
      <trkpt lat="44.7538" lon="3.80867">
        <ele>970.9</ele>
        <time>2025-04-15T14:19:06.781Z</time>
      </trkpt>
      <trkpt lat="44.75398" lon="3.80835">
        <ele>971.66</ele>
        <time>2025-04-15T14:19:07.572Z</time>
      </trkpt>
      <trkpt lat="44.75416" lon="3.80802">
        <ele>972.39</ele>
        <time>2025-04-15T14:19:08.367Z</time>
      </trkpt>
      <trkpt lat="44.75434" lon="3.80769">
        <ele>972.96</ele>
        <time>2025-04-15T14:19:09.167Z</time>
      </trkpt>
      <trkpt lat="44.75452" lon="3.80737">
        <ele>973.55</ele>
        <time>2025-04-15T14:19:09.972Z</time>
      </trkpt>
      <trkpt lat="44.75469" lon="3.80704">
        <ele>974.17</ele>
        <time>2025-04-15T14:19:10.782Z</time>
      </trkpt>
      <trkpt lat="44.75487" lon="3.80672">
        <ele>974.66</ele>
        <time>2025-04-15T14:19:11.596Z</time>
      </trkpt>
      <trkpt lat="44.75504" lon="3.80646">
        <ele>975.14</ele>
        <time>2025-04-15T14:19:12.414Z</time>
      </trkpt>
      <trkpt lat="44.75517" lon="3.80633">
        <ele>975.74</ele>
        <time>2025-04-15T14:19:13.235Z</time>
      </trkpt>
      <trkpt lat="44.75539" lon="3.80619">
        <ele>976.32</ele>
        <time>2025-04-15T14:19:14.060Z</time>
      </trkpt>
      <trkpt lat="44.75561" lon="3.80605">
        <ele>976.93</ele>
        <time>2025-04-15T14:19:14.888Z</time>
      </trkpt>
      <trkpt lat="44.75583" lon="3.8059">
        <ele>977.46</ele>
        <time>2025-04-15T14:19:15.720Z</time>
      </trkpt>
      <trkpt lat="44.75605" lon="3.8056">
        <ele>978.02</ele>
        <time>2025-04-15T14:19:16.557Z</time>
      </trkpt>
      <trkpt lat="44.75614" lon="3.80538">
        <ele>978.44</ele>
        <time>2025-04-15T14:19:17.397Z</time>
      </trkpt>
      <trkpt lat="44.75624" lon="3.80515">
        <ele>978.91</ele>
        <time>2025-04-15T14:19:18.240Z</time>
      </trkpt>
      <trkpt lat="44.75628" lon="3.80507">
        <ele>979.25</ele>
        <time>2025-04-15T14:19:19.084Z</time>
      </trkpt>
      <trkpt lat="44.75641" lon="3.80467">
        <ele>979.59</ele>
        <time>2025-04-15T14:19:19.933Z</time>
      </trkpt>
      <trkpt lat="44.75654" lon="3.80427">
        <ele>979.75</ele>
        <time>2025-04-15T14:19:20.787Z</time>
      </trkpt>
      <trkpt lat="44.75656" lon="3.80423">
        <ele>979.83</ele>
        <time>2025-04-15T14:19:21.642Z</time>
      </trkpt>
      <trkpt lat="44.7567" lon="3.80387">
        <ele>979.71</ele>
        <time>2025-04-15T14:19:22.502Z</time>
      </trkpt>
      <trkpt lat="44.75684" lon="3.8035">
        <ele>979.49</ele>
        <time>2025-04-15T14:19:23.366Z</time>
      </trkpt>
      <trkpt lat="44.75698" lon="3.80313">
        <ele>979.3</ele>
        <time>2025-04-15T14:19:24.235Z</time>
      </trkpt>
      <trkpt lat="44.75711" lon="3.80277">
        <ele>979.2</ele>
        <time>2025-04-15T14:19:25.109Z</time>
      </trkpt>
      <trkpt lat="44.75725" lon="3.80241">
        <ele>978.86</ele>
        <time>2025-04-15T14:19:25.988Z</time>
      </trkpt>
      <trkpt lat="44.75749" lon="3.80212">
        <ele>978.6</ele>
        <time>2025-04-15T14:19:26.872Z</time>
      </trkpt>
      <trkpt lat="44.75772" lon="3.80183">
        <ele>978.18</ele>
        <time>2025-04-15T14:19:27.761Z</time>
      </trkpt>
      <trkpt lat="44.75785" lon="3.80157">
        <ele>977.74</ele>
        <time>2025-04-15T14:19:28.653Z</time>
      </trkpt>
      <trkpt lat="44.75792" lon="3.80136">
        <ele>977.35</ele>
        <time>2025-04-15T14:19:29.548Z</time>
      </trkpt>
      <trkpt lat="44.75798" lon="3.80114">
        <ele>976.95</ele>
        <time>2025-04-15T14:19:30.445Z</time>
      </trkpt>
      <trkpt lat="44.75801" lon="3.80085">
        <ele>976.4</ele>
        <time>2025-04-15T14:19:31.346Z</time>
      </trkpt>
      <trkpt lat="44.75804" lon="3.80055">
        <ele>975.93</ele>
        <time>2025-04-15T14:19:32.250Z</time>
      </trkpt>
      <trkpt lat="44.75807" lon="3.80026">
        <ele>975.45</ele>
        <time>2025-04-15T14:19:33.158Z</time>
      </trkpt>
      <trkpt lat="44.75811" lon="3.80009">
        <ele>975</ele>
        <time>2025-04-15T14:19:34.068Z</time>
      </trkpt>
      <trkpt lat="44.75828" lon="3.79981">
        <ele>974.56</ele>
        <time>2025-04-15T14:19:34.982Z</time>
      </trkpt>
      <trkpt lat="44.75845" lon="3.79953">
        <ele>974.1</ele>
        <time>2025-04-15T14:19:35.900Z</time>
      </trkpt>
      <trkpt lat="44.75862" lon="3.79925">
        <ele>973.53</ele>
        <time>2025-04-15T14:19:36.822Z</time>
      </trkpt>
      <trkpt lat="44.75869" lon="3.79905">
        <ele>972.91</ele>
        <time>2025-04-15T14:19:37.747Z</time>
      </trkpt>
      <trkpt lat="44.75875" lon="3.79885">
        <ele>972.33</ele>
        <time>2025-04-15T14:19:38.674Z</time>
      </trkpt>
      <trkpt lat="44.75882" lon="3.79846">
        <ele>971.82</ele>
        <time>2025-04-15T14:19:39.606Z</time>
      </trkpt>
      <trkpt lat="44.75882" lon="3.79824">
        <ele>971.28</ele>
        <time>2025-04-15T14:19:40.540Z</time>
      </trkpt>
      <trkpt lat="44.75878" lon="3.79794">
        <ele>970.61</ele>
        <time>2025-04-15T14:19:41.478Z</time>
      </trkpt>
      <trkpt lat="44.75874" lon="3.79764">
        <ele>969.93</ele>
        <time>2025-04-15T14:19:42.419Z</time>
      </trkpt>
      <trkpt lat="44.75871" lon="3.79734">
        <ele>969.28</ele>
        <time>2025-04-15T14:19:43.364Z</time>
      </trkpt>
      <trkpt lat="44.75869" lon="3.79696">
        <ele>968.77</ele>
        <time>2025-04-15T14:19:44.313Z</time>
      </trkpt>
      <trkpt lat="44.75869" lon="3.79657">
        <ele>968.34</ele>
        <time>2025-04-15T14:19:45.267Z</time>
      </trkpt>
      <trkpt lat="44.75875" lon="3.79625">
        <ele>967.98</ele>
        <time>2025-04-15T14:19:46.224Z</time>
      </trkpt>
      <trkpt lat="44.75884" lon="3.79594">
        <ele>967.73</ele>
        <time>2025-04-15T14:19:47.185Z</time>
      </trkpt>
      <trkpt lat="44.75892" lon="3.79563">
        <ele>967.53</ele>
        <time>2025-04-15T14:19:48.150Z</time>
      </trkpt>
      <trkpt lat="44.75905" lon="3.79537">
        <ele>967.52</ele>
        <time>2025-04-15T14:19:49.119Z</time>
      </trkpt>
      <trkpt lat="44.75918" lon="3.79511">
        <ele>967.54</ele>
        <time>2025-04-15T14:19:50.091Z</time>
      </trkpt>
      <trkpt lat="44.75931" lon="3.79494">
        <ele>967.71</ele>
        <time>2025-04-15T14:19:51.066Z</time>
      </trkpt>
      <trkpt lat="44.75944" lon="3.79477">
        <ele>967.98</ele>
        <time>2025-04-15T14:19:52.044Z</time>
      </trkpt>
      <trkpt lat="44.75962" lon="3.79461">
        <ele>968.35</ele>
        <time>2025-04-15T14:19:53.025Z</time>
      </trkpt>
      <trkpt lat="44.75981" lon="3.79445">
        <ele>968.81</ele>
        <time>2025-04-15T14:19:54.010Z</time>
      </trkpt>
      <trkpt lat="44.76" lon="3.7943">
        <ele>969.45</ele>
        <time>2025-04-15T14:19:54.998Z</time>
      </trkpt>
      <trkpt lat="44.76015" lon="3.7941">
        <ele>970.15</ele>
        <time>2025-04-15T14:19:55.989Z</time>
      </trkpt>
      <trkpt lat="44.7603" lon="3.79391">
        <ele>970.98</ele>
        <time>2025-04-15T14:19:56.984Z</time>
      </trkpt>
      <trkpt lat="44.76038" lon="3.7937">
        <ele>971.78</ele>
        <time>2025-04-15T14:19:57.982Z</time>
      </trkpt>
      <trkpt lat="44.76047" lon="3.79348">
        <ele>972.77</ele>
        <time>2025-04-15T14:19:58.982Z</time>
      </trkpt>
      <trkpt lat="44.76056" lon="3.79307">
        <ele>973.75</ele>
        <time>2025-04-15T14:19:59.987Z</time>
      </trkpt>
      <trkpt lat="44.76065" lon="3.79266">
        <ele>974.96</ele>
        <time>2025-04-15T14:20:00.997Z</time>
      </trkpt>
      <trkpt lat="44.76075" lon="3.79226">
        <ele>976.19</ele>
        <time>2025-04-15T14:20:02.012Z</time>
      </trkpt>
      <trkpt lat="44.76081" lon="3.79228">
        <ele>977.6</ele>
        <time>2025-04-15T14:20:03.028Z</time>
      </trkpt>
      <trkpt lat="44.76088" lon="3.79219">
        <ele>979</ele>
        <time>2025-04-15T14:20:04.045Z</time>
      </trkpt>
      <trkpt lat="44.76098" lon="3.79202">
        <ele>980.48</ele>
        <time>2025-04-15T14:20:05.065Z</time>
      </trkpt>
      <trkpt lat="44.76111" lon="3.79163">
        <ele>981.9</ele>
        <time>2025-04-15T14:20:06.090Z</time>
      </trkpt>
      <trkpt lat="44.76124" lon="3.79125">
        <ele>983.34</ele>
        <time>2025-04-15T14:20:07.120Z</time>
      </trkpt>
      <trkpt lat="44.76137" lon="3.79109">
        <ele>984.94</ele>
        <time>2025-04-15T14:20:08.153Z</time>
      </trkpt>
      <trkpt lat="44.7615" lon="3.79093">
        <ele>986.64</ele>
        <time>2025-04-15T14:20:09.188Z</time>
      </trkpt>
      <trkpt lat="44.76175" lon="3.79072">
        <ele>988.51</ele>
        <time>2025-04-15T14:20:10.228Z</time>
      </trkpt>
      <trkpt lat="44.762" lon="3.79052">
        <ele>990.42</ele>
        <time>2025-04-15T14:20:11.273Z</time>
      </trkpt>
      <trkpt lat="44.76225" lon="3.79031">
        <ele>992.24</ele>
        <time>2025-04-15T14:20:12.322Z</time>
      </trkpt>
      <trkpt lat="44.76249" lon="3.7901">
        <ele>994.22</ele>
        <time>2025-04-15T14:20:13.376Z</time>
      </trkpt>
      <trkpt lat="44.76274" lon="3.7899">
        <ele>996.31</ele>
        <time>2025-04-15T14:20:14.434Z</time>
      </trkpt>
      <trkpt lat="44.76281" lon="3.78977">
        <ele>998.17</ele>
        <time>2025-04-15T14:20:15.494Z</time>
      </trkpt>
      <trkpt lat="44.76293" lon="3.7894">
        <ele>1000.19</ele>
        <time>2025-04-15T14:20:16.559Z</time>
      </trkpt>
      <trkpt lat="44.76306" lon="3.78904">
        <ele>1002.17</ele>
        <time>2025-04-15T14:20:17.628Z</time>
      </trkpt>
      <trkpt lat="44.76318" lon="3.78867">
        <ele>1004.09</ele>
        <time>2025-04-15T14:20:18.702Z</time>
      </trkpt>
      <trkpt lat="44.76331" lon="3.78831">
        <ele>1005.94</ele>
        <time>2025-04-15T14:20:19.781Z</time>
      </trkpt>
      <trkpt lat="44.76343" lon="3.78794">
        <ele>1007.92</ele>
        <time>2025-04-15T14:20:20.864Z</time>
      </trkpt>
      <trkpt lat="44.76359" lon="3.78764">
        <ele>1010</ele>
        <time>2025-04-15T14:20:21.952Z</time>
      </trkpt>
      <trkpt lat="44.76375" lon="3.78734">
        <ele>1012.03</ele>
        <time>2025-04-15T14:20:23.044Z</time>
      </trkpt>
      <trkpt lat="44.76397" lon="3.78708">
        <ele>1014.07</ele>
        <time>2025-04-15T14:20:24.141Z</time>
      </trkpt>
      <trkpt lat="44.76419" lon="3.78681">
        <ele>1016.13</ele>
        <time>2025-04-15T14:20:25.242Z</time>
      </trkpt>
      <trkpt lat="44.76441" lon="3.78655">
        <ele>1018.32</ele>
        <time>2025-04-15T14:20:26.348Z</time>
      </trkpt>
      <trkpt lat="44.76463" lon="3.78628">
        <ele>1020.36</ele>
        <time>2025-04-15T14:20:27.458Z</time>
      </trkpt>
      <trkpt lat="44.76485" lon="3.78601">
        <ele>1022.24</ele>
        <time>2025-04-15T14:20:28.573Z</time>
      </trkpt>
      <trkpt lat="44.76502" lon="3.78574">
        <ele>1024.13</ele>
        <time>2025-04-15T14:20:29.692Z</time>
      </trkpt>
      <trkpt lat="44.7652" lon="3.78547">
        <ele>1025.95</ele>
        <time>2025-04-15T14:20:30.815Z</time>
      </trkpt>
      <trkpt lat="44.76538" lon="3.7852">
        <ele>1027.74</ele>
        <time>2025-04-15T14:20:31.943Z</time>
      </trkpt>
      <trkpt lat="44.76561" lon="3.78496">
        <ele>1029.62</ele>
        <time>2025-04-15T14:20:33.075Z</time>
      </trkpt>
      <trkpt lat="44.76584" lon="3.78473">
        <ele>1031.33</ele>
        <time>2025-04-15T14:20:34.212Z</time>
      </trkpt>
      <trkpt lat="44.76607" lon="3.78449">
        <ele>1032.94</ele>
        <time>2025-04-15T14:20:35.353Z</time>
      </trkpt>
      <trkpt lat="44.76632" lon="3.7843">
        <ele>1034.56</ele>
        <time>2025-04-15T14:20:36.499Z</time>
      </trkpt>
      <trkpt lat="44.76656" lon="3.7841">
        <ele>1036.07</ele>
        <time>2025-04-15T14:20:37.649Z</time>
      </trkpt>
      <trkpt lat="44.76674" lon="3.78385">
        <ele>1037.38</ele>
        <time>2025-04-15T14:20:38.803Z</time>
      </trkpt>
      <trkpt lat="44.76692" lon="3.78359">
        <ele>1038.57</ele>
        <time>2025-04-15T14:20:39.962Z</time>
      </trkpt>
      <trkpt lat="44.7671" lon="3.78333">
        <ele>1039.68</ele>
        <time>2025-04-15T14:20:41.125Z</time>
      </trkpt>
      <trkpt lat="44.76721" lon="3.78302">
        <ele>1040.59</ele>
        <time>2025-04-15T14:20:42.292Z</time>
      </trkpt>
      <trkpt lat="44.76733" lon="3.78272">
        <ele>1041.34</ele>
        <time>2025-04-15T14:20:43.463Z</time>
      </trkpt>
      <trkpt lat="44.76744" lon="3.78241">
        <ele>1041.88</ele>
        <time>2025-04-15T14:20:44.638Z</time>
      </trkpt>
      <trkpt lat="44.76752" lon="3.78213">
        <ele>1042.33</ele>
        <time>2025-04-15T14:20:45.816Z</time>
      </trkpt>
      <trkpt lat="44.76759" lon="3.78185">
        <ele>1042.76</ele>
        <time>2025-04-15T14:20:46.997Z</time>
      </trkpt>
      <trkpt lat="44.76772" lon="3.78161">
        <ele>1043.1</ele>
        <time>2025-04-15T14:20:48.182Z</time>
      </trkpt>
      <trkpt lat="44.76787" lon="3.78142">
        <ele>1043.26</ele>
        <time>2025-04-15T14:20:49.370Z</time>
      </trkpt>
      <trkpt lat="44.76813" lon="3.78127">
        <ele>1043.22</ele>
        <time>2025-04-15T14:20:50.562Z</time>
      </trkpt>
      <trkpt lat="44.76837" lon="3.78121">
        <ele>1043.09</ele>
        <time>2025-04-15T14:20:51.758Z</time>
      </trkpt>
      <trkpt lat="44.76861" lon="3.78114">
        <ele>1042.89</ele>
        <time>2025-04-15T14:20:52.958Z</time>
      </trkpt>
      <trkpt lat="44.76886" lon="3.78108">
        <ele>1042.4</ele>
        <time>2025-04-15T14:20:54.162Z</time>
      </trkpt>
      <trkpt lat="44.76903" lon="3.78095">
        <ele>1041.8</ele>
        <time>2025-04-15T14:20:55.369Z</time>
      </trkpt>
      <trkpt lat="44.7692" lon="3.78082">
        <ele>1041.09</ele>
        <time>2025-04-15T14:20:56.580Z</time>
      </trkpt>
      <trkpt lat="44.76933" lon="3.78067">
        <ele>1040.29</ele>
        <time>2025-04-15T14:20:57.793Z</time>
      </trkpt>
      <trkpt lat="44.76946" lon="3.78052">
        <ele>1039.4</ele>
        <time>2025-04-15T14:20:59.009Z</time>
      </trkpt>
      <trkpt lat="44.76965" lon="3.78024">
        <ele>1038.4</ele>
        <time>2025-04-15T14:21:00.229Z</time>
      </trkpt>
      <trkpt lat="44.76985" lon="3.77996">
        <ele>1037.28</ele>
        <time>2025-04-15T14:21:01.454Z</time>
      </trkpt>
      <trkpt lat="44.77001" lon="3.77977">
        <ele>1036.19</ele>
        <time>2025-04-15T14:21:02.682Z</time>
      </trkpt>
      <trkpt lat="44.77017" lon="3.77958">
        <ele>1034.97</ele>
        <time>2025-04-15T14:21:03.914Z</time>
      </trkpt>
      <trkpt lat="44.77045" lon="3.77938">
        <ele>1033.6</ele>
        <time>2025-04-15T14:21:05.151Z</time>
      </trkpt>
      <trkpt lat="44.77073" lon="3.77927">
        <ele>1032.08</ele>
        <time>2025-04-15T14:21:06.392Z</time>
      </trkpt>
      <trkpt lat="44.771" lon="3.77915">
        <ele>1030.46</ele>
        <time>2025-04-15T14:21:07.638Z</time>
      </trkpt>
      <trkpt lat="44.77128" lon="3.77904">
        <ele>1028.72</ele>
        <time>2025-04-15T14:21:08.888Z</time>
      </trkpt>
      <trkpt lat="44.77158" lon="3.77896">
        <ele>1027</ele>
        <time>2025-04-15T14:21:10.143Z</time>
      </trkpt>
      <trkpt lat="44.77187" lon="3.77888">
        <ele>1025.3</ele>
        <time>2025-04-15T14:21:11.403Z</time>
      </trkpt>
      <trkpt lat="44.77217" lon="3.7788">
        <ele>1023.55</ele>
        <time>2025-04-15T14:21:12.668Z</time>
      </trkpt>
      <trkpt lat="44.77246" lon="3.77872">
        <ele>1021.84</ele>
        <time>2025-04-15T14:21:13.938Z</time>
      </trkpt>
      <trkpt lat="44.77273" lon="3.77856">
        <ele>1020.04</ele>
        <time>2025-04-15T14:21:15.212Z</time>
      </trkpt>
      <trkpt lat="44.77299" lon="3.7784">
        <ele>1018.24</ele>
        <time>2025-04-15T14:21:16.491Z</time>
      </trkpt>
      <trkpt lat="44.77326" lon="3.77825">
        <ele>1016.41</ele>
        <time>2025-04-15T14:21:17.775Z</time>
      </trkpt>
      <trkpt lat="44.77343" lon="3.77822">
        <ele>1014.64</ele>
        <time>2025-04-15T14:21:19.061Z</time>
      </trkpt>
      <trkpt lat="44.77343" lon="3.77822">
        <ele>1012.89</ele>
        <time>2025-04-15T14:21:20.347Z</time>
      </trkpt>
      <trkpt lat="44.77366" lon="3.77833">
        <ele>1011.1</ele>
        <time>2025-04-15T14:21:21.637Z</time>
      </trkpt>
      <trkpt lat="44.7739" lon="3.7785">
        <ele>1009.27</ele>
        <time>2025-04-15T14:21:22.931Z</time>
      </trkpt>
      <trkpt lat="44.77413" lon="3.77866">
        <ele>1007.43</ele>
        <time>2025-04-15T14:21:24.230Z</time>
      </trkpt>
      <trkpt lat="44.77436" lon="3.77883">
        <ele>1005.6</ele>
        <time>2025-04-15T14:21:25.533Z</time>
      </trkpt>
      <trkpt lat="44.77459" lon="3.779">
        <ele>1003.79</ele>
        <time>2025-04-15T14:21:26.840Z</time>
      </trkpt>
      <trkpt lat="44.7748" lon="3.7793">
        <ele>1001.97</ele>
        <time>2025-04-15T14:21:28.152Z</time>
      </trkpt>
      <trkpt lat="44.7749" lon="3.77957">
        <ele>1000.21</ele>
        <time>2025-04-15T14:21:29.467Z</time>
      </trkpt>
      <trkpt lat="44.775" lon="3.77983">
        <ele>998.51</ele>
        <time>2025-04-15T14:21:30.786Z</time>
      </trkpt>
      <trkpt lat="44.7751" lon="3.78003">
        <ele>996.93</ele>
        <time>2025-04-15T14:21:32.107Z</time>
      </trkpt>
      <trkpt lat="44.77521" lon="3.78022">
        <ele>995.43</ele>
        <time>2025-04-15T14:21:33.431Z</time>
      </trkpt>
      <trkpt lat="44.7754" lon="3.78051">
        <ele>993.94</ele>
        <time>2025-04-15T14:21:34.760Z</time>
      </trkpt>
      <trkpt lat="44.7756" lon="3.7808">
        <ele>992.46</ele>
        <time>2025-04-15T14:21:36.093Z</time>
      </trkpt>
      <trkpt lat="44.77575" lon="3.78099">
        <ele>991.07</ele>
        <time>2025-04-15T14:21:37.429Z</time>
      </trkpt>
      <trkpt lat="44.7759" lon="3.78119">
        <ele>989.77</ele>
        <time>2025-04-15T14:21:38.769Z</time>
      </trkpt>
      <trkpt lat="44.77609" lon="3.78129">
        <ele>988.52</ele>
        <time>2025-04-15T14:21:40.112Z</time>
      </trkpt>
      <trkpt lat="44.77624" lon="3.78129">
        <ele>987.39</ele>
        <time>2025-04-15T14:21:41.457Z</time>
      </trkpt>
      <trkpt lat="44.77643" lon="3.78121">
        <ele>986.31</ele>
        <time>2025-04-15T14:21:42.806Z</time>
      </trkpt>
      <trkpt lat="44.77667" lon="3.78096">
        <ele>985.27</ele>
        <time>2025-04-15T14:21:44.159Z</time>
      </trkpt>
      <trkpt lat="44.77691" lon="3.78071">
        <ele>984.33</ele>
        <time>2025-04-15T14:21:45.517Z</time>
      </trkpt>
      <trkpt lat="44.7771" lon="3.78039">
        <ele>983.49</ele>
        <time>2025-04-15T14:21:46.880Z</time>
      </trkpt>
      <trkpt lat="44.77718" lon="3.78031">
        <ele>982.74</ele>
        <time>2025-04-15T14:21:48.245Z</time>
      </trkpt>
      <trkpt lat="44.77733" lon="3.78028">
        <ele>982.01</ele>
        <time>2025-04-15T14:21:49.612Z</time>
      </trkpt>
      <trkpt lat="44.77748" lon="3.78039">
        <ele>981.31</ele>
        <time>2025-04-15T14:21:50.982Z</time>
      </trkpt>
      <trkpt lat="44.77771" lon="3.78061">
        <ele>980.59</ele>
        <time>2025-04-15T14:21:52.356Z</time>
      </trkpt>
      <trkpt lat="44.77794" lon="3.78084">
        <ele>980.01</ele>
        <time>2025-04-15T14:21:53.735Z</time>
      </trkpt>
      <trkpt lat="44.77817" lon="3.78106">
        <ele>979.57</ele>
        <time>2025-04-15T14:21:55.118Z</time>
      </trkpt>
      <trkpt lat="44.7783" lon="3.78124">
        <ele>979.17</ele>
        <time>2025-04-15T14:21:56.504Z</time>
      </trkpt>
      <trkpt lat="44.77843" lon="3.78142">
        <ele>978.82</ele>
        <time>2025-04-15T14:21:57.893Z</time>
      </trkpt>
      <trkpt lat="44.77856" lon="3.78155">
        <ele>978.51</ele>
        <time>2025-04-15T14:21:59.284Z</time>
      </trkpt>
      <trkpt lat="44.77875" lon="3.78164">
        <ele>978.25</ele>
        <time>2025-04-15T14:22:00.679Z</time>
      </trkpt>
      <trkpt lat="44.77892" lon="3.78164">
        <ele>978.02</ele>
        <time>2025-04-15T14:22:02.076Z</time>
      </trkpt>
      <trkpt lat="44.77922" lon="3.78157">
        <ele>977.81</ele>
        <time>2025-04-15T14:22:03.478Z</time>
      </trkpt>
      <trkpt lat="44.77937" lon="3.78153">
        <ele>977.6</ele>
        <time>2025-04-15T14:22:04.883Z</time>
      </trkpt>
      <trkpt lat="44.77948" lon="3.78151">
        <ele>977.38</ele>
        <time>2025-04-15T14:22:06.289Z</time>
      </trkpt>
      <trkpt lat="44.77969" lon="3.78159">
        <ele>977.16</ele>
        <time>2025-04-15T14:22:07.699Z</time>
      </trkpt>
      <trkpt lat="44.77993" lon="3.78164">
        <ele>976.93</ele>
        <time>2025-04-15T14:22:09.113Z</time>
      </trkpt>
      <trkpt lat="44.78011" lon="3.78159">
        <ele>976.68</ele>
        <time>2025-04-15T14:22:10.530Z</time>
      </trkpt>
      <trkpt lat="44.7803" lon="3.78155">
        <ele>976.38</ele>
        <time>2025-04-15T14:22:11.950Z</time>
      </trkpt>
      <trkpt lat="44.78047" lon="3.78157">
        <ele>975.98</ele>
        <time>2025-04-15T14:22:13.372Z</time>
      </trkpt>
      <trkpt lat="44.78069" lon="3.78181">
        <ele>975.4</ele>
        <time>2025-04-15T14:22:14.799Z</time>
      </trkpt>
      <trkpt lat="44.78092" lon="3.78204">
        <ele>974.93</ele>
        <time>2025-04-15T14:22:16.230Z</time>
      </trkpt>
      <trkpt lat="44.78112" lon="3.78215">
        <ele>974.48</ele>
        <time>2025-04-15T14:22:17.665Z</time>
      </trkpt>
      <trkpt lat="44.78133" lon="3.78226">
        <ele>973.97</ele>
        <time>2025-04-15T14:22:19.103Z</time>
      </trkpt>
      <trkpt lat="44.78148" lon="3.78243">
        <ele>973.35</ele>
        <time>2025-04-15T14:22:20.545Z</time>
      </trkpt>
      <trkpt lat="44.78163" lon="3.7826">
        <ele>972.66</ele>
        <time>2025-04-15T14:22:21.990Z</time>
      </trkpt>
      <trkpt lat="44.78179" lon="3.78275">
        <ele>971.93</ele>
        <time>2025-04-15T14:22:23.438Z</time>
      </trkpt>
      <trkpt lat="44.78195" lon="3.7829">
        <ele>971.15</ele>
        <time>2025-04-15T14:22:24.889Z</time>
      </trkpt>
      <trkpt lat="44.78223" lon="3.78306">
        <ele>970.34</ele>
        <time>2025-04-15T14:22:26.345Z</time>
      </trkpt>
      <trkpt lat="44.78251" lon="3.78322">
        <ele>969.57</ele>
        <time>2025-04-15T14:22:27.805Z</time>
      </trkpt>
      <trkpt lat="44.78278" lon="3.78338">
        <ele>968.7</ele>
        <time>2025-04-15T14:22:29.270Z</time>
      </trkpt>
      <trkpt lat="44.78306" lon="3.78355">
        <ele>967.86</ele>
        <time>2025-04-15T14:22:30.740Z</time>
      </trkpt>
      <trkpt lat="44.7833" lon="3.78361">
        <ele>967.09</ele>
        <time>2025-04-15T14:22:32.214Z</time>
      </trkpt>
      <trkpt lat="44.78354" lon="3.78367">
        <ele>966.34</ele>
        <time>2025-04-15T14:22:33.692Z</time>
      </trkpt>
      <trkpt lat="44.78375" lon="3.78378">
        <ele>965.52</ele>
        <time>2025-04-15T14:22:35.173Z</time>
      </trkpt>
      <trkpt lat="44.78392" lon="3.78392">
        <ele>964.59</ele>
        <time>2025-04-15T14:22:36.658Z</time>
      </trkpt>
      <trkpt lat="44.78409" lon="3.78406">
        <ele>963.55</ele>
        <time>2025-04-15T14:22:38.146Z</time>
      </trkpt>
      <trkpt lat="44.78432" lon="3.78418">
        <ele>962.41</ele>
        <time>2025-04-15T14:22:39.638Z</time>
      </trkpt>
      <trkpt lat="44.78454" lon="3.7843">
        <ele>961.28</ele>
        <time>2025-04-15T14:22:41.134Z</time>
      </trkpt>
      <trkpt lat="44.78478" lon="3.78433">
        <ele>960.26</ele>
        <time>2025-04-15T14:22:42.633Z</time>
      </trkpt>
      <trkpt lat="44.78502" lon="3.78436">
        <ele>959.17</ele>
        <time>2025-04-15T14:22:44.136Z</time>
      </trkpt>
      <trkpt lat="44.78514" lon="3.78451">
        <ele>958.07</ele>
        <time>2025-04-15T14:22:45.642Z</time>
      </trkpt>
      <trkpt lat="44.78527" lon="3.78466">
        <ele>956.88</ele>
        <time>2025-04-15T14:22:47.150Z</time>
      </trkpt>
      <trkpt lat="44.78547" lon="3.7847">
        <ele>955.66</ele>
        <time>2025-04-15T14:22:48.662Z</time>
      </trkpt>
      <trkpt lat="44.78566" lon="3.78468">
        <ele>954.45</ele>
        <time>2025-04-15T14:22:50.177Z</time>
      </trkpt>
      <trkpt lat="44.78583" lon="3.78458">
        <ele>953.2</ele>
        <time>2025-04-15T14:22:51.695Z</time>
      </trkpt>
      <trkpt lat="44.786" lon="3.78447">
        <ele>951.87</ele>
        <time>2025-04-15T14:22:53.216Z</time>
      </trkpt>
      <trkpt lat="44.78615" lon="3.78443">
        <ele>950.48</ele>
        <time>2025-04-15T14:22:54.739Z</time>
      </trkpt>
      <trkpt lat="44.78639" lon="3.78447">
        <ele>948.97</ele>
        <time>2025-04-15T14:22:56.266Z</time>
      </trkpt>
      <trkpt lat="44.7866" lon="3.7846">
        <ele>947.5</ele>
        <time>2025-04-15T14:22:57.797Z</time>
      </trkpt>
      <trkpt lat="44.78682" lon="3.78473">
        <ele>946.05</ele>
        <time>2025-04-15T14:22:59.331Z</time>
      </trkpt>
      <trkpt lat="44.78711" lon="3.7848">
        <ele>944.57</ele>
        <time>2025-04-15T14:23:00.870Z</time>
      </trkpt>
      <trkpt lat="44.7874" lon="3.78488">
        <ele>943.1</ele>
        <time>2025-04-15T14:23:02.414Z</time>
      </trkpt>
      <trkpt lat="44.78766" lon="3.78491">
        <ele>941.62</ele>
        <time>2025-04-15T14:23:03.962Z</time>
      </trkpt>
      <trkpt lat="44.78793" lon="3.78494">
        <ele>940.2</ele>
        <time>2025-04-15T14:23:05.514Z</time>
      </trkpt>
      <trkpt lat="44.7882" lon="3.78497">
        <ele>938.76</ele>
        <time>2025-04-15T14:23:07.071Z</time>
      </trkpt>
      <trkpt lat="44.78846" lon="3.785">
        <ele>937.43</ele>
        <time>2025-04-15T14:23:08.632Z</time>
      </trkpt>
      <trkpt lat="44.78873" lon="3.78503">
        <ele>936.2</ele>
        <time>2025-04-15T14:23:10.197Z</time>
      </trkpt>
      <trkpt lat="44.78899" lon="3.78496">
        <ele>935.12</ele>
        <time>2025-04-15T14:23:11.766Z</time>
      </trkpt>
      <trkpt lat="44.7892" lon="3.7847">
        <ele>934.03</ele>
        <time>2025-04-15T14:23:13.340Z</time>
      </trkpt>
      <trkpt lat="44.78941" lon="3.78445">
        <ele>933.05</ele>
        <time>2025-04-15T14:23:14.918Z</time>
      </trkpt>
      <trkpt lat="44.78965" lon="3.78432">
        <ele>932.25</ele>
        <time>2025-04-15T14:23:16.501Z</time>
      </trkpt>
      <trkpt lat="44.78981" lon="3.78432">
        <ele>931.38</ele>
        <time>2025-04-15T14:23:18.086Z</time>
      </trkpt>
      <trkpt lat="44.78997" lon="3.78432">
        <ele>930.51</ele>
        <time>2025-04-15T14:23:19.674Z</time>
      </trkpt>
      <trkpt lat="44.79019" lon="3.78438">
        <ele>929.6</ele>
        <time>2025-04-15T14:23:21.265Z</time>
      </trkpt>
      <trkpt lat="44.7904" lon="3.78445">
        <ele>928.65</ele>
        <time>2025-04-15T14:23:22.860Z</time>
      </trkpt>
      <trkpt lat="44.79057" lon="3.78446">
        <ele>927.68</ele>
        <time>2025-04-15T14:23:24.457Z</time>
      </trkpt>
      <trkpt lat="44.79075" lon="3.78447">
        <ele>926.56</ele>
        <time>2025-04-15T14:23:26.057Z</time>
      </trkpt>
      <trkpt lat="44.79093" lon="3.78443">
        <ele>925.39</ele>
        <time>2025-04-15T14:23:27.660Z</time>
      </trkpt>
      <trkpt lat="44.79111" lon="3.78438">
        <ele>924.14</ele>
        <time>2025-04-15T14:23:29.266Z</time>
      </trkpt>
      <trkpt lat="44.79132" lon="3.78428">
        <ele>922.8</ele>
        <time>2025-04-15T14:23:30.876Z</time>
      </trkpt>
      <trkpt lat="44.79151" lon="3.78415">
        <ele>921.43</ele>
        <time>2025-04-15T14:23:32.489Z</time>
      </trkpt>
      <trkpt lat="44.79169" lon="3.78402">
        <ele>919.91</ele>
        <time>2025-04-15T14:23:34.105Z</time>
      </trkpt>
      <trkpt lat="44.79191" lon="3.78395">
        <ele>918.29</ele>
        <time>2025-04-15T14:23:35.725Z</time>
      </trkpt>
      <trkpt lat="44.79214" lon="3.78389">
        <ele>916.7</ele>
        <time>2025-04-15T14:23:37.349Z</time>
      </trkpt>
      <trkpt lat="44.79233" lon="3.78378">
        <ele>915.11</ele>
        <time>2025-04-15T14:23:38.976Z</time>
      </trkpt>
      <trkpt lat="44.79246" lon="3.78353">
        <ele>913.52</ele>
        <time>2025-04-15T14:23:40.606Z</time>
      </trkpt>
      <trkpt lat="44.79259" lon="3.78329">
        <ele>911.83</ele>
        <time>2025-04-15T14:23:42.240Z</time>
      </trkpt>
      <trkpt lat="44.79281" lon="3.78312">
        <ele>909.94</ele>
        <time>2025-04-15T14:23:43.878Z</time>
      </trkpt>
      <trkpt lat="44.79296" lon="3.78303">
        <ele>907.97</ele>
        <time>2025-04-15T14:23:45.518Z</time>
      </trkpt>
      <trkpt lat="44.79311" lon="3.78295">
        <ele>905.97</ele>
        <time>2025-04-15T14:23:47.161Z</time>
      </trkpt>
      <trkpt lat="44.79334" lon="3.78279">
        <ele>903.86</ele>
        <time>2025-04-15T14:23:48.808Z</time>
      </trkpt>
      <trkpt lat="44.79352" lon="3.78261">
        <ele>901.99</ele>
        <time>2025-04-15T14:23:50.459Z</time>
      </trkpt>
      <trkpt lat="44.79371" lon="3.78243">
        <ele>900.1</ele>
        <time>2025-04-15T14:23:52.113Z</time>
      </trkpt>
      <trkpt lat="44.7938" lon="3.78223">
        <ele>898.21</ele>
        <time>2025-04-15T14:23:53.770Z</time>
      </trkpt>
      <trkpt lat="44.7939" lon="3.78202">
        <ele>896.28</ele>
        <time>2025-04-15T14:23:55.430Z</time>
      </trkpt>
      <trkpt lat="44.79396" lon="3.78164">
        <ele>894.3</ele>
        <time>2025-04-15T14:23:57.094Z</time>
      </trkpt>
      <trkpt lat="44.79392" lon="3.78134">
        <ele>892.46</ele>
        <time>2025-04-15T14:23:58.762Z</time>
      </trkpt>
      <trkpt lat="44.79368" lon="3.7811">
        <ele>890.86</ele>
        <time>2025-04-15T14:24:00.435Z</time>
      </trkpt>
      <trkpt lat="44.79341" lon="3.78095">
        <ele>889.19</ele>
        <time>2025-04-15T14:24:02.112Z</time>
      </trkpt>
      <trkpt lat="44.79332" lon="3.78078">
        <ele>887.53</ele>
        <time>2025-04-15T14:24:03.792Z</time>
      </trkpt>
      <trkpt lat="44.79336" lon="3.78067">
        <ele>885.93</ele>
        <time>2025-04-15T14:24:05.473Z</time>
      </trkpt>
      <trkpt lat="44.79345" lon="3.78067">
        <ele>884.34</ele>
        <time>2025-04-15T14:24:07.156Z</time>
      </trkpt>
      <trkpt lat="44.79366" lon="3.78093">
        <ele>882.71</ele>
        <time>2025-04-15T14:24:08.843Z</time>
      </trkpt>
      <trkpt lat="44.79392" lon="3.78097">
        <ele>880.95</ele>
        <time>2025-04-15T14:24:10.534Z</time>
      </trkpt>
      <trkpt lat="44.79417" lon="3.78091">
        <ele>879.23</ele>
        <time>2025-04-15T14:24:12.229Z</time>
      </trkpt>
      <trkpt lat="44.79441" lon="3.78084">
        <ele>877.42</ele>
        <time>2025-04-15T14:24:13.928Z</time>
      </trkpt>
      <trkpt lat="44.79454" lon="3.78086">
        <ele>875.75</ele>
        <time>2025-04-15T14:24:15.629Z</time>
      </trkpt>
      <trkpt lat="44.79461" lon="3.78093">
        <ele>874.14</ele>
        <time>2025-04-15T14:24:17.332Z</time>
      </trkpt>
      <trkpt lat="44.79461" lon="3.78115">
        <ele>872.79</ele>
        <time>2025-04-15T14:24:19.037Z</time>
      </trkpt>
      <trkpt lat="44.79461" lon="3.78138">
        <ele>871.5</ele>
        <time>2025-04-15T14:24:20.745Z</time>
      </trkpt>
      <trkpt lat="44.79467" lon="3.78167">
        <ele>870.05</ele>
        <time>2025-04-15T14:24:22.456Z</time>
      </trkpt>
      <trkpt lat="44.79474" lon="3.78196">
        <ele>868.59</ele>
        <time>2025-04-15T14:24:24.171Z</time>
      </trkpt>
      <trkpt lat="44.79477" lon="3.78225">
        <ele>867.19</ele>
        <time>2025-04-15T14:24:25.889Z</time>
      </trkpt>
      <trkpt lat="44.7948" lon="3.78254">
        <ele>865.63</ele>
        <time>2025-04-15T14:24:27.610Z</time>
      </trkpt>
      <trkpt lat="44.7948" lon="3.78279">
        <ele>864.04</ele>
        <time>2025-04-15T14:24:29.334Z</time>
      </trkpt>
      <trkpt lat="44.79466" lon="3.78314">
        <ele>862.62</ele>
        <time>2025-04-15T14:24:31.063Z</time>
      </trkpt>
      <trkpt lat="44.79452" lon="3.78348">
        <ele>860.94</ele>
        <time>2025-04-15T14:24:32.796Z</time>
      </trkpt>
      <trkpt lat="44.79438" lon="3.78382">
        <ele>859.01</ele>
        <time>2025-04-15T14:24:34.534Z</time>
      </trkpt>
      <trkpt lat="44.79424" lon="3.78416">
        <ele>857.16</ele>
        <time>2025-04-15T14:24:36.276Z</time>
      </trkpt>
      <trkpt lat="44.7941" lon="3.7845">
        <ele>855.1</ele>
        <time>2025-04-15T14:24:38.023Z</time>
      </trkpt>
      <trkpt lat="44.79396" lon="3.78483">
        <ele>853.15</ele>
        <time>2025-04-15T14:24:39.774Z</time>
      </trkpt>
      <trkpt lat="44.79384" lon="3.78509">
        <ele>851.18</ele>
        <time>2025-04-15T14:24:41.529Z</time>
      </trkpt>
      <trkpt lat="44.79372" lon="3.78535">
        <ele>849.2</ele>
        <time>2025-04-15T14:24:43.287Z</time>
      </trkpt>
      <trkpt lat="44.7936" lon="3.78561">
        <ele>847.21</ele>
        <time>2025-04-15T14:24:45.049Z</time>
      </trkpt>
      <trkpt lat="44.79356" lon="3.78582">
        <ele>845.09</ele>
        <time>2025-04-15T14:24:46.813Z</time>
      </trkpt>
      <trkpt lat="44.79351" lon="3.78604">
        <ele>843.14</ele>
        <time>2025-04-15T14:24:48.580Z</time>
      </trkpt>
      <trkpt lat="44.79346" lon="3.78635">
        <ele>841.48</ele>
        <time>2025-04-15T14:24:50.350Z</time>
      </trkpt>
      <trkpt lat="44.79341" lon="3.78666">
        <ele>839.67</ele>
        <time>2025-04-15T14:24:52.124Z</time>
      </trkpt>
      <trkpt lat="44.79332" lon="3.78683">
        <ele>837.88</ele>
        <time>2025-04-15T14:24:53.900Z</time>
      </trkpt>
      <trkpt lat="44.79319" lon="3.78699">
        <ele>836.19</ele>
        <time>2025-04-15T14:24:55.679Z</time>
      </trkpt>
      <trkpt lat="44.79306" lon="3.78715">
        <ele>834.81</ele>
        <time>2025-04-15T14:24:57.461Z</time>
      </trkpt>
      <trkpt lat="44.79302" lon="3.7873">
        <ele>833.46</ele>
        <time>2025-04-15T14:24:59.245Z</time>
      </trkpt>
      <trkpt lat="44.79299" lon="3.78755">
        <ele>832.28</ele>
        <time>2025-04-15T14:25:01.032Z</time>
      </trkpt>
      <trkpt lat="44.79296" lon="3.78779">
        <ele>831.53</ele>
        <time>2025-04-15T14:25:02.821Z</time>
      </trkpt>
      <trkpt lat="44.79298" lon="3.7879">
        <ele>830.97</ele>
        <time>2025-04-15T14:25:04.612Z</time>
      </trkpt>
      <trkpt lat="44.79311" lon="3.7881">
        <ele>830.77</ele>
        <time>2025-04-15T14:25:06.406Z</time>
      </trkpt>
      <trkpt lat="44.79321" lon="3.78829">
        <ele>830.78</ele>
        <time>2025-04-15T14:25:08.203Z</time>
      </trkpt>
      <trkpt lat="44.79328" lon="3.78842">
        <ele>830.88</ele>
        <time>2025-04-15T14:25:10.001Z</time>
      </trkpt>
      <trkpt lat="44.79336" lon="3.78844">
        <ele>831.07</ele>
        <time>2025-04-15T14:25:11.801Z</time>
      </trkpt>
      <trkpt lat="44.79353" lon="3.78831">
        <ele>831.28</ele>
        <time>2025-04-15T14:25:13.604Z</time>
      </trkpt>
      <trkpt lat="44.79371" lon="3.78818">
        <ele>831.6</ele>
        <time>2025-04-15T14:25:15.410Z</time>
      </trkpt>
      <trkpt lat="44.79391" lon="3.78797">
        <ele>832.17</ele>
        <time>2025-04-15T14:25:17.220Z</time>
      </trkpt>
      <trkpt lat="44.79411" lon="3.78775">
        <ele>832.91</ele>
        <time>2025-04-15T14:25:19.034Z</time>
      </trkpt>
      <trkpt lat="44.7942" lon="3.78762">
        <ele>833.61</ele>
        <time>2025-04-15T14:25:20.850Z</time>
      </trkpt>
      <trkpt lat="44.79433" lon="3.78724">
        <ele>834.18</ele>
        <time>2025-04-15T14:25:22.671Z</time>
      </trkpt>
      <trkpt lat="44.79446" lon="3.78685">
        <ele>835.07</ele>
        <time>2025-04-15T14:25:24.497Z</time>
      </trkpt>
      <trkpt lat="44.79452" lon="3.78683">
        <ele>836.12</ele>
        <time>2025-04-15T14:25:26.324Z</time>
      </trkpt>
      <trkpt lat="44.79456" lon="3.78685">
        <ele>837.26</ele>
        <time>2025-04-15T14:25:28.152Z</time>
      </trkpt>
      <trkpt lat="44.79459" lon="3.78696">
        <ele>838.46</ele>
        <time>2025-04-15T14:25:29.981Z</time>
      </trkpt>
      <trkpt lat="44.79456" lon="3.78707">
        <ele>839.49</ele>
        <time>2025-04-15T14:25:31.811Z</time>
      </trkpt>
      <trkpt lat="44.79441" lon="3.78726">
        <ele>840.2</ele>
        <time>2025-04-15T14:25:33.644Z</time>
      </trkpt>
      <trkpt lat="44.79431" lon="3.78764">
        <ele>841.48</ele>
        <time>2025-04-15T14:25:35.482Z</time>
      </trkpt>
      <trkpt lat="44.79417" lon="3.7879">
        <ele>842.49</ele>
        <time>2025-04-15T14:25:37.324Z</time>
      </trkpt>
      <trkpt lat="44.79404" lon="3.78815">
        <ele>843.6</ele>
        <time>2025-04-15T14:25:39.169Z</time>
      </trkpt>
      <trkpt lat="44.7939" lon="3.7884">
        <ele>844.77</ele>
        <time>2025-04-15T14:25:41.018Z</time>
      </trkpt>
      <trkpt lat="44.79366" lon="3.78857">
        <ele>845.66</ele>
        <time>2025-04-15T14:25:42.871Z</time>
      </trkpt>
      <trkpt lat="44.79351" lon="3.78882">
        <ele>846.92</ele>
        <time>2025-04-15T14:25:44.728Z</time>
      </trkpt>
      <trkpt lat="44.79338" lon="3.789">
        <ele>847.94</ele>
        <time>2025-04-15T14:25:46.588Z</time>
      </trkpt>
      <trkpt lat="44.79323" lon="3.78923">
        <ele>849</ele>
        <time>2025-04-15T14:25:48.451Z</time>
      </trkpt>
      <trkpt lat="44.79319" lon="3.78943">
        <ele>850.03</ele>
        <time>2025-04-15T14:25:50.317Z</time>
      </trkpt>
      <trkpt lat="44.7932" lon="3.78977">
        <ele>851.11</ele>
        <time>2025-04-15T14:25:52.187Z</time>
      </trkpt>
      <trkpt lat="44.79321" lon="3.79011">
        <ele>852.08</ele>
        <time>2025-04-15T14:25:54.061Z</time>
      </trkpt>
      <trkpt lat="44.79321" lon="3.79046">
        <ele>853.09</ele>
        <time>2025-04-15T14:25:55.938Z</time>
      </trkpt>
      <trkpt lat="44.79319" lon="3.79065">
        <ele>854.05</ele>
        <time>2025-04-15T14:25:57.818Z</time>
      </trkpt>
      <trkpt lat="44.79311" lon="3.79084">
        <ele>854.93</ele>
        <time>2025-04-15T14:25:59.700Z</time>
      </trkpt>
      <trkpt lat="44.79298" lon="3.79101">
        <ele>855.86</ele>
        <time>2025-04-15T14:26:01.585Z</time>
      </trkpt>
      <trkpt lat="44.79285" lon="3.7911">
        <ele>856.83</ele>
        <time>2025-04-15T14:26:03.472Z</time>
      </trkpt>
      <trkpt lat="44.7927" lon="3.79116">
        <ele>857.87</ele>
        <time>2025-04-15T14:26:05.362Z</time>
      </trkpt>
      <trkpt lat="44.79244" lon="3.79111">
        <ele>858.78</ele>
        <time>2025-04-15T14:26:07.256Z</time>
      </trkpt>
      <trkpt lat="44.79218" lon="3.79106">
        <ele>859.55</ele>
        <time>2025-04-15T14:26:09.154Z</time>
      </trkpt>
      <trkpt lat="44.79188" lon="3.79108">
        <ele>860.46</ele>
        <time>2025-04-15T14:26:11.057Z</time>
      </trkpt>
      <trkpt lat="44.79171" lon="3.79116">
        <ele>861.57</ele>
        <time>2025-04-15T14:26:12.963Z</time>
      </trkpt>
      <trkpt lat="44.79154" lon="3.79134">
        <ele>862.72</ele>
        <time>2025-04-15T14:26:14.872Z</time>
      </trkpt>
      <trkpt lat="44.79145" lon="3.79154">
        <ele>864.18</ele>
        <time>2025-04-15T14:26:16.784Z</time>
      </trkpt>
      <trkpt lat="44.79137" lon="3.79174">
        <ele>865.68</ele>
        <time>2025-04-15T14:26:18.699Z</time>
      </trkpt>
      <trkpt lat="44.79119" lon="3.79188">
        <ele>866.99</ele>
        <time>2025-04-15T14:26:20.617Z</time>
      </trkpt>
      <trkpt lat="44.791" lon="3.79202">
        <ele>868.32</ele>
        <time>2025-04-15T14:26:22.538Z</time>
      </trkpt>
      <trkpt lat="44.79087" lon="3.79226">
        <ele>869.91</ele>
        <time>2025-04-15T14:26:24.463Z</time>
      </trkpt>
      <trkpt lat="44.79076" lon="3.79264">
        <ele>871.63</ele>
        <time>2025-04-15T14:26:26.392Z</time>
      </trkpt>
      <trkpt lat="44.79064" lon="3.79302">
        <ele>873.39</ele>
        <time>2025-04-15T14:26:28.326Z</time>
      </trkpt>
      <trkpt lat="44.79053" lon="3.7934">
        <ele>875.05</ele>
        <time>2025-04-15T14:26:30.265Z</time>
      </trkpt>
      <trkpt lat="44.79036" lon="3.79374">
        <ele>876.83</ele>
        <time>2025-04-15T14:26:32.209Z</time>
      </trkpt>
      <trkpt lat="44.7902" lon="3.79408">
        <ele>878.58</ele>
        <time>2025-04-15T14:26:34.157Z</time>
      </trkpt>
      <trkpt lat="44.79003" lon="3.79443">
        <ele>880.28</ele>
        <time>2025-04-15T14:26:36.110Z</time>
      </trkpt>
      <trkpt lat="44.78987" lon="3.79477">
        <ele>881.95</ele>
        <time>2025-04-15T14:26:38.068Z</time>
      </trkpt>
      <trkpt lat="44.7898" lon="3.79498">
        <ele>883.64</ele>
        <time>2025-04-15T14:26:40.028Z</time>
      </trkpt>
      <trkpt lat="44.78978" lon="3.79533">
        <ele>885.32</ele>
        <time>2025-04-15T14:26:41.992Z</time>
      </trkpt>
      <trkpt lat="44.78978" lon="3.79567">
        <ele>886.91</ele>
        <time>2025-04-15T14:26:43.960Z</time>
      </trkpt>
      <trkpt lat="44.78984" lon="3.79591">
        <ele>888.52</ele>
        <time>2025-04-15T14:26:45.931Z</time>
      </trkpt>
      <trkpt lat="44.78995" lon="3.79606">
        <ele>890.17</ele>
        <time>2025-04-15T14:26:47.905Z</time>
      </trkpt>
      <trkpt lat="44.79008" lon="3.79614">
        <ele>891.84</ele>
        <time>2025-04-15T14:26:49.881Z</time>
      </trkpt>
      <trkpt lat="44.79031" lon="3.79621">
        <ele>893.51</ele>
        <time>2025-04-15T14:26:51.861Z</time>
      </trkpt>
      <trkpt lat="44.79054" lon="3.79628">
        <ele>895.12</ele>
        <time>2025-04-15T14:26:53.844Z</time>
      </trkpt>
      <trkpt lat="44.79077" lon="3.79636">
        <ele>896.66</ele>
        <time>2025-04-15T14:26:55.831Z</time>
      </trkpt>
      <trkpt lat="44.79087" lon="3.7964">
        <ele>898.09</ele>
        <time>2025-04-15T14:26:57.820Z</time>
      </trkpt>
      <trkpt lat="44.79102" lon="3.79651">
        <ele>899.51</ele>
        <time>2025-04-15T14:26:59.812Z</time>
      </trkpt>
      <trkpt lat="44.79113" lon="3.7967">
        <ele>900.88</ele>
        <time>2025-04-15T14:27:01.806Z</time>
      </trkpt>
      <trkpt lat="44.79124" lon="3.79703">
        <ele>902.19</ele>
        <time>2025-04-15T14:27:03.805Z</time>
      </trkpt>
      <trkpt lat="44.79135" lon="3.79737">
        <ele>903.52</ele>
        <time>2025-04-15T14:27:05.808Z</time>
      </trkpt>
      <trkpt lat="44.79145" lon="3.7977">
        <ele>904.8</ele>
        <time>2025-04-15T14:27:07.815Z</time>
      </trkpt>
      <trkpt lat="44.79156" lon="3.79803">
        <ele>906.09</ele>
        <time>2025-04-15T14:27:09.826Z</time>
      </trkpt>
      <trkpt lat="44.79163" lon="3.79827">
        <ele>907.37</ele>
        <time>2025-04-15T14:27:11.840Z</time>
      </trkpt>
      <trkpt lat="44.79173" lon="3.79861">
        <ele>908.74</ele>
        <time>2025-04-15T14:27:13.858Z</time>
      </trkpt>
      <trkpt lat="44.79175" lon="3.7988">
        <ele>910</ele>
        <time>2025-04-15T14:27:15.878Z</time>
      </trkpt>
      <trkpt lat="44.79173" lon="3.7991">
        <ele>911.21</ele>
        <time>2025-04-15T14:27:17.902Z</time>
      </trkpt>
      <trkpt lat="44.79169" lon="3.79942">
        <ele>912.44</ele>
        <time>2025-04-15T14:27:19.930Z</time>
      </trkpt>
      <trkpt lat="44.79162" lon="3.79983">
        <ele>913.64</ele>
        <time>2025-04-15T14:27:21.962Z</time>
      </trkpt>
      <trkpt lat="44.79156" lon="3.80024">
        <ele>914.81</ele>
        <time>2025-04-15T14:27:23.999Z</time>
      </trkpt>
      <trkpt lat="44.79173" lon="3.7999">
        <ele>916.01</ele>
        <time>2025-04-15T14:27:26.041Z</time>
      </trkpt>
      <trkpt lat="44.79193" lon="3.7999">
        <ele>917.32</ele>
        <time>2025-04-15T14:27:28.086Z</time>
      </trkpt>
      <trkpt lat="44.79212" lon="3.7999">
        <ele>918.58</ele>
        <time>2025-04-15T14:27:30.134Z</time>
      </trkpt>
      <trkpt lat="44.7924" lon="3.79979">
        <ele>919.77</ele>
        <time>2025-04-15T14:27:32.187Z</time>
      </trkpt>
      <trkpt lat="44.79257" lon="3.79998">
        <ele>920.89</ele>
        <time>2025-04-15T14:27:34.243Z</time>
      </trkpt>
      <trkpt lat="44.79271" lon="3.80009">
        <ele>922.01</ele>
        <time>2025-04-15T14:27:36.302Z</time>
      </trkpt>
      <trkpt lat="44.79285" lon="3.8002">
        <ele>923.14</ele>
        <time>2025-04-15T14:27:38.363Z</time>
      </trkpt>
      <trkpt lat="44.79294" lon="3.80054">
        <ele>924.36</ele>
        <time>2025-04-15T14:27:40.428Z</time>
      </trkpt>
      <trkpt lat="44.79304" lon="3.80087">
        <ele>925.56</ele>
        <time>2025-04-15T14:27:42.498Z</time>
      </trkpt>
      <trkpt lat="44.79314" lon="3.80121">
        <ele>926.65</ele>
        <time>2025-04-15T14:27:44.572Z</time>
      </trkpt>
      <trkpt lat="44.79323" lon="3.80155">
        <ele>927.81</ele>
        <time>2025-04-15T14:27:46.650Z</time>
      </trkpt>
      <trkpt lat="44.79336" lon="3.80194">
        <ele>929.08</ele>
        <time>2025-04-15T14:27:48.733Z</time>
      </trkpt>
      <trkpt lat="44.79349" lon="3.80234">
        <ele>930.35</ele>
        <time>2025-04-15T14:27:50.821Z</time>
      </trkpt>
      <trkpt lat="44.79362" lon="3.80273">
        <ele>931.6</ele>
        <time>2025-04-15T14:27:52.914Z</time>
      </trkpt>
      <trkpt lat="44.79373" lon="3.80302">
        <ele>932.78</ele>
        <time>2025-04-15T14:27:55.010Z</time>
      </trkpt>
      <trkpt lat="44.79384" lon="3.80331">
        <ele>933.98</ele>
        <time>2025-04-15T14:27:57.110Z</time>
      </trkpt>
      <trkpt lat="44.79394" lon="3.80356">
        <ele>935.18</ele>
        <time>2025-04-15T14:27:59.213Z</time>
      </trkpt>
      <trkpt lat="44.79405" lon="3.8038">
        <ele>936.38</ele>
        <time>2025-04-15T14:28:01.320Z</time>
      </trkpt>
      <trkpt lat="44.7942" lon="3.80395">
        <ele>937.54</ele>
        <time>2025-04-15T14:28:03.430Z</time>
      </trkpt>
      <trkpt lat="44.79446" lon="3.80415">
        <ele>938.75</ele>
        <time>2025-04-15T14:28:05.544Z</time>
      </trkpt>
      <trkpt lat="44.79471" lon="3.80434">
        <ele>939.95</ele>
        <time>2025-04-15T14:28:07.663Z</time>
      </trkpt>
      <trkpt lat="44.79497" lon="3.80453">
        <ele>941.1</ele>
        <time>2025-04-15T14:28:09.787Z</time>
      </trkpt>
      <trkpt lat="44.79517" lon="3.80471">
        <ele>942.16</ele>
        <time>2025-04-15T14:28:11.914Z</time>
      </trkpt>
      <trkpt lat="44.79536" lon="3.80489">
        <ele>943.17</ele>
        <time>2025-04-15T14:28:14.045Z</time>
      </trkpt>
      <trkpt lat="44.79555" lon="3.80507">
        <ele>944.21</ele>
        <time>2025-04-15T14:28:16.180Z</time>
      </trkpt>
      <trkpt lat="44.79581" lon="3.8052">
        <ele>945.23</ele>
        <time>2025-04-15T14:28:18.319Z</time>
      </trkpt>
      <trkpt lat="44.79607" lon="3.80533">
        <ele>946.27</ele>
        <time>2025-04-15T14:28:20.463Z</time>
      </trkpt>
      <trkpt lat="44.79631" lon="3.80539">
        <ele>947.29</ele>
        <time>2025-04-15T14:28:22.610Z</time>
      </trkpt>
      <trkpt lat="44.79655" lon="3.80545">
        <ele>948.29</ele>
        <time>2025-04-15T14:28:24.761Z</time>
      </trkpt>
      <trkpt lat="44.79679" lon="3.80552">
        <ele>949.3</ele>
        <time>2025-04-15T14:28:26.916Z</time>
      </trkpt>
      <trkpt lat="44.79703" lon="3.80558">
        <ele>950.36</ele>
        <time>2025-04-15T14:28:29.075Z</time>
      </trkpt>
      <trkpt lat="44.79726" lon="3.80565">
        <ele>951.45</ele>
        <time>2025-04-15T14:28:31.238Z</time>
      </trkpt>
      <trkpt lat="44.79749" lon="3.80573">
        <ele>952.43</ele>
        <time>2025-04-15T14:28:33.405Z</time>
      </trkpt>
      <trkpt lat="44.79772" lon="3.8058">
        <ele>953.44</ele>
        <time>2025-04-15T14:28:35.576Z</time>
      </trkpt>
      <trkpt lat="44.79789" lon="3.80588">
        <ele>954.5</ele>
        <time>2025-04-15T14:28:37.749Z</time>
      </trkpt>
      <trkpt lat="44.79804" lon="3.8061">
        <ele>955.66</ele>
        <time>2025-04-15T14:28:39.926Z</time>
      </trkpt>
      <trkpt lat="44.79819" lon="3.80636">
        <ele>956.82</ele>
        <time>2025-04-15T14:28:42.107Z</time>
      </trkpt>
      <trkpt lat="44.79829" lon="3.80666">
        <ele>957.88</ele>
        <time>2025-04-15T14:28:44.291Z</time>
      </trkpt>
      <trkpt lat="44.7984" lon="3.80696">
        <ele>958.91</ele>
        <time>2025-04-15T14:28:46.479Z</time>
      </trkpt>
      <trkpt lat="44.7985" lon="3.80726">
        <ele>960</ele>
        <time>2025-04-15T14:28:48.671Z</time>
      </trkpt>
      <trkpt lat="44.7986" lon="3.80756">
        <ele>961.15</ele>
        <time>2025-04-15T14:28:50.867Z</time>
      </trkpt>
      <trkpt lat="44.79868" lon="3.80791">
        <ele>962.29</ele>
        <time>2025-04-15T14:28:53.067Z</time>
      </trkpt>
      <trkpt lat="44.79877" lon="3.80826">
        <ele>963.44</ele>
        <time>2025-04-15T14:28:55.271Z</time>
      </trkpt>
      <trkpt lat="44.79886" lon="3.80861">
        <ele>964.67</ele>
        <time>2025-04-15T14:28:57.479Z</time>
      </trkpt>
      <trkpt lat="44.79894" lon="3.80895">
        <ele>965.95</ele>
        <time>2025-04-15T14:28:59.692Z</time>
      </trkpt>
      <trkpt lat="44.79905" lon="3.80917">
        <ele>967.14</ele>
        <time>2025-04-15T14:29:01.908Z</time>
      </trkpt>
      <trkpt lat="44.79927" lon="3.80947">
        <ele>968.3</ele>
        <time>2025-04-15T14:29:04.129Z</time>
      </trkpt>
      <trkpt lat="44.79949" lon="3.80978">
        <ele>969.47</ele>
        <time>2025-04-15T14:29:06.355Z</time>
      </trkpt>
      <trkpt lat="44.79971" lon="3.81009">
        <ele>970.64</ele>
        <time>2025-04-15T14:29:08.586Z</time>
      </trkpt>
      <trkpt lat="44.79988" lon="3.81036">
        <ele>971.77</ele>
        <time>2025-04-15T14:29:10.821Z</time>
      </trkpt>
      <trkpt lat="44.80004" lon="3.81063">
        <ele>972.98</ele>
        <time>2025-04-15T14:29:13.060Z</time>
      </trkpt>
      <trkpt lat="44.8002" lon="3.81088">
        <ele>974.22</ele>
        <time>2025-04-15T14:29:15.303Z</time>
      </trkpt>
      <trkpt lat="44.80037" lon="3.81113">
        <ele>975.46</ele>
        <time>2025-04-15T14:29:17.549Z</time>
      </trkpt>
      <trkpt lat="44.80054" lon="3.81138">
        <ele>976.72</ele>
        <time>2025-04-15T14:29:19.799Z</time>
      </trkpt>
      <trkpt lat="44.8007" lon="3.81163">
        <ele>977.91</ele>
        <time>2025-04-15T14:29:22.053Z</time>
      </trkpt>
      <trkpt lat="44.80082" lon="3.81198">
        <ele>979</ele>
        <time>2025-04-15T14:29:24.312Z</time>
      </trkpt>
      <trkpt lat="44.80094" lon="3.81232">
        <ele>980.03</ele>
        <time>2025-04-15T14:29:26.575Z</time>
      </trkpt>
      <trkpt lat="44.80094" lon="3.81232">
        <ele>981.04</ele>
        <time>2025-04-15T14:29:28.838Z</time>
      </trkpt>
      <trkpt lat="44.80114" lon="3.81206">
        <ele>982.02</ele>
        <time>2025-04-15T14:29:31.105Z</time>
      </trkpt>
      <trkpt lat="44.80133" lon="3.81179">
        <ele>983</ele>
        <time>2025-04-15T14:29:33.377Z</time>
      </trkpt>
      <trkpt lat="44.80153" lon="3.81153">
        <ele>983.98</ele>
        <time>2025-04-15T14:29:35.653Z</time>
      </trkpt>
      <trkpt lat="44.80173" lon="3.81127">
        <ele>984.94</ele>
        <time>2025-04-15T14:29:37.933Z</time>
      </trkpt>
      <trkpt lat="44.80192" lon="3.81105">
        <ele>985.84</ele>
        <time>2025-04-15T14:29:40.217Z</time>
      </trkpt>
      <trkpt lat="44.8021" lon="3.81083">
        <ele>986.69</ele>
        <time>2025-04-15T14:29:42.505Z</time>
      </trkpt>
      <trkpt lat="44.80229" lon="3.8106">
        <ele>987.55</ele>
        <time>2025-04-15T14:29:44.797Z</time>
      </trkpt>
      <trkpt lat="44.80248" lon="3.81043">
        <ele>988.24</ele>
        <time>2025-04-15T14:29:47.093Z</time>
      </trkpt>
      <trkpt lat="44.80268" lon="3.81026">
        <ele>988.91</ele>
        <time>2025-04-15T14:29:49.392Z</time>
      </trkpt>
      <trkpt lat="44.80292" lon="3.81014">
        <ele>989.63</ele>
        <time>2025-04-15T14:29:51.696Z</time>
      </trkpt>
      <trkpt lat="44.80317" lon="3.81002">
        <ele>990.31</ele>
        <time>2025-04-15T14:29:54.004Z</time>
      </trkpt>
      <trkpt lat="44.80342" lon="3.8099">
        <ele>990.97</ele>
        <time>2025-04-15T14:29:56.316Z</time>
      </trkpt>
      <trkpt lat="44.80367" lon="3.80978">
        <ele>991.57</ele>
        <time>2025-04-15T14:29:58.632Z</time>
      </trkpt>
      <trkpt lat="44.80392" lon="3.80966">
        <ele>992.07</ele>
        <time>2025-04-15T14:30:00.952Z</time>
      </trkpt>
      <trkpt lat="44.80409" lon="3.80948">
        <ele>992.51</ele>
        <time>2025-04-15T14:30:03.276Z</time>
      </trkpt>
      <trkpt lat="44.80426" lon="3.8093">
        <ele>992.87</ele>
        <time>2025-04-15T14:30:05.603Z</time>
      </trkpt>
      <trkpt lat="44.80448" lon="3.80907">
        <ele>993.15</ele>
        <time>2025-04-15T14:30:07.935Z</time>
      </trkpt>
      <trkpt lat="44.80469" lon="3.80884">
        <ele>993.29</ele>
        <time>2025-04-15T14:30:10.271Z</time>
      </trkpt>
      <trkpt lat="44.80491" lon="3.80861">
        <ele>993.4</ele>
        <time>2025-04-15T14:30:12.611Z</time>
      </trkpt>
      <trkpt lat="44.80504" lon="3.80854">
        <ele>993.48</ele>
        <time>2025-04-15T14:30:14.954Z</time>
      </trkpt>
      <trkpt lat="44.80528" lon="3.80852">
        <ele>993.58</ele>
        <time>2025-04-15T14:30:17.300Z</time>
      </trkpt>
      <trkpt lat="44.80552" lon="3.80849">
        <ele>993.55</ele>
        <time>2025-04-15T14:30:19.650Z</time>
      </trkpt>
      <trkpt lat="44.80576" lon="3.80846">
        <ele>993.36</ele>
        <time>2025-04-15T14:30:22.004Z</time>
      </trkpt>
      <trkpt lat="44.806" lon="3.80844">
        <ele>993.1</ele>
        <time>2025-04-15T14:30:24.362Z</time>
      </trkpt>
      <trkpt lat="44.80624" lon="3.80831">
        <ele>992.75</ele>
        <time>2025-04-15T14:30:26.724Z</time>
      </trkpt>
      <trkpt lat="44.80648" lon="3.80807">
        <ele>992.31</ele>
        <time>2025-04-15T14:30:29.091Z</time>
      </trkpt>
      <trkpt lat="44.80672" lon="3.80784">
        <ele>991.74</ele>
        <time>2025-04-15T14:30:31.462Z</time>
      </trkpt>
      <trkpt lat="44.80696" lon="3.8076">
        <ele>991</ele>
        <time>2025-04-15T14:30:33.838Z</time>
      </trkpt>
      <trkpt lat="44.8072" lon="3.80736">
        <ele>990.16</ele>
        <time>2025-04-15T14:30:36.219Z</time>
      </trkpt>
      <trkpt lat="44.80744" lon="3.80713">
        <ele>989.22</ele>
        <time>2025-04-15T14:30:38.604Z</time>
      </trkpt>
      <trkpt lat="44.80768" lon="3.80689">
        <ele>988.29</ele>
        <time>2025-04-15T14:30:40.994Z</time>
      </trkpt>
      <trkpt lat="44.80789" lon="3.80677">
        <ele>987.39</ele>
        <time>2025-04-15T14:30:43.388Z</time>
      </trkpt>
      <trkpt lat="44.8081" lon="3.80666">
        <ele>986.4</ele>
        <time>2025-04-15T14:30:45.786Z</time>
      </trkpt>
      <trkpt lat="44.8083" lon="3.80666">
        <ele>985.52</ele>
        <time>2025-04-15T14:30:48.187Z</time>
      </trkpt>
      <trkpt lat="44.80849" lon="3.80666">
        <ele>984.57</ele>
        <time>2025-04-15T14:30:50.591Z</time>
      </trkpt>
      <trkpt lat="44.80876" lon="3.80683">
        <ele>983.7</ele>
        <time>2025-04-15T14:30:52.999Z</time>
      </trkpt>
      <trkpt lat="44.80902" lon="3.80701">
        <ele>982.92</ele>
        <time>2025-04-15T14:30:55.412Z</time>
      </trkpt>
      <trkpt lat="44.80928" lon="3.80719">
        <ele>982.4</ele>
        <time>2025-04-15T14:30:57.830Z</time>
      </trkpt>
      <trkpt lat="44.80956" lon="3.80727">
        <ele>981.75</ele>
        <time>2025-04-15T14:31:00.252Z</time>
      </trkpt>
      <trkpt lat="44.80984" lon="3.80734">
        <ele>981.2</ele>
        <time>2025-04-15T14:31:02.679Z</time>
      </trkpt>
      <trkpt lat="44.81005" lon="3.80748">
        <ele>980.59</ele>
        <time>2025-04-15T14:31:05.110Z</time>
      </trkpt>
      <trkpt lat="44.81025" lon="3.80762">
        <ele>980.02</ele>
        <time>2025-04-15T14:31:07.544Z</time>
      </trkpt>
      <trkpt lat="44.81045" lon="3.80789">
        <ele>979.69</ele>
        <time>2025-04-15T14:31:09.983Z</time>
      </trkpt>
      <trkpt lat="44.81066" lon="3.80816">
        <ele>979.53</ele>
        <time>2025-04-15T14:31:12.426Z</time>
      </trkpt>
      <trkpt lat="44.81074" lon="3.8082">
        <ele>979.25</ele>
        <time>2025-04-15T14:31:14.871Z</time>
      </trkpt>
      <trkpt lat="44.81085" lon="3.8082">
        <ele>978.97</ele>
        <time>2025-04-15T14:31:17.317Z</time>
      </trkpt>
      <trkpt lat="44.81096" lon="3.80809">
        <ele>978.75</ele>
        <time>2025-04-15T14:31:19.765Z</time>
      </trkpt>
      <trkpt lat="44.81102" lon="3.80796">
        <ele>978.76</ele>
        <time>2025-04-15T14:31:22.215Z</time>
      </trkpt>
      <trkpt lat="44.81102" lon="3.80777">
        <ele>978.96</ele>
        <time>2025-04-15T14:31:24.667Z</time>
      </trkpt>
      <trkpt lat="44.81089" lon="3.80745">
        <ele>979.21</ele>
        <time>2025-04-15T14:31:27.124Z</time>
      </trkpt>
      <trkpt lat="44.81084" lon="3.80723">
        <ele>979.59</ele>
        <time>2025-04-15T14:31:29.583Z</time>
      </trkpt>
      <trkpt lat="44.81079" lon="3.80702">
        <ele>980.1</ele>
        <time>2025-04-15T14:31:32.045Z</time>
      </trkpt>
      <trkpt lat="44.81072" lon="3.80664">
        <ele>980.81</ele>
        <time>2025-04-15T14:31:34.511Z</time>
      </trkpt>
      <trkpt lat="44.81066" lon="3.80626">
        <ele>981.65</ele>
        <time>2025-04-15T14:31:36.982Z</time>
      </trkpt>
      <trkpt lat="44.81059" lon="3.80588">
        <ele>982.5</ele>
        <time>2025-04-15T14:31:39.457Z</time>
      </trkpt>
      <trkpt lat="44.81044" lon="3.80551">
        <ele>983.41</ele>
        <time>2025-04-15T14:31:41.937Z</time>
      </trkpt>
      <trkpt lat="44.81029" lon="3.80513">
        <ele>984.36</ele>
        <time>2025-04-15T14:31:44.422Z</time>
      </trkpt>
      <trkpt lat="44.8101" lon="3.80487">
        <ele>985.29</ele>
        <time>2025-04-15T14:31:46.911Z</time>
      </trkpt>
      <trkpt lat="44.80991" lon="3.80462">
        <ele>986.4</ele>
        <time>2025-04-15T14:31:49.404Z</time>
      </trkpt>
      <trkpt lat="44.8098" lon="3.80447">
        <ele>987.5</ele>
        <time>2025-04-15T14:31:51.900Z</time>
      </trkpt>
      <trkpt lat="44.80974" lon="3.80432">
        <ele>988.65</ele>
        <time>2025-04-15T14:31:54.398Z</time>
      </trkpt>
      <trkpt lat="44.80974" lon="3.80417">
        <ele>989.82</ele>
        <time>2025-04-15T14:31:56.898Z</time>
      </trkpt>
      <trkpt lat="44.8098" lon="3.80404">
        <ele>991.01</ele>
        <time>2025-04-15T14:31:59.399Z</time>
      </trkpt>
      <trkpt lat="44.80991" lon="3.80393">
        <ele>992.24</ele>
        <time>2025-04-15T14:32:01.902Z</time>
      </trkpt>
      <trkpt lat="44.8101" lon="3.80393">
        <ele>993.48</ele>
        <time>2025-04-15T14:32:04.409Z</time>
      </trkpt>
      <trkpt lat="44.81036" lon="3.80397">
        <ele>994.7</ele>
        <time>2025-04-15T14:32:06.920Z</time>
      </trkpt>
      <trkpt lat="44.81062" lon="3.80402">
        <ele>995.93</ele>
        <time>2025-04-15T14:32:09.435Z</time>
      </trkpt>
      <trkpt lat="44.81088" lon="3.80404">
        <ele>997.12</ele>
        <time>2025-04-15T14:32:11.954Z</time>
      </trkpt>
      <trkpt lat="44.81115" lon="3.80406">
        <ele>998.28</ele>
        <time>2025-04-15T14:32:14.477Z</time>
      </trkpt>
      <trkpt lat="44.8113" lon="3.80397">
        <ele>999.34</ele>
        <time>2025-04-15T14:32:17.003Z</time>
      </trkpt>
      <trkpt lat="44.81141" lon="3.8038">
        <ele>1000.33</ele>
        <time>2025-04-15T14:32:19.532Z</time>
      </trkpt>
      <trkpt lat="44.8116" lon="3.8035">
        <ele>1001.39</ele>
        <time>2025-04-15T14:32:22.065Z</time>
      </trkpt>
      <trkpt lat="44.8118" lon="3.8032">
        <ele>1002.43</ele>
        <time>2025-04-15T14:32:24.603Z</time>
      </trkpt>
      <trkpt lat="44.81197" lon="3.80305">
        <ele>1003.19</ele>
        <time>2025-04-15T14:32:27.144Z</time>
      </trkpt>
      <trkpt lat="44.81203" lon="3.80305">
        <ele>1003.77</ele>
        <time>2025-04-15T14:32:29.686Z</time>
      </trkpt>
      <trkpt lat="44.81229" lon="3.80311">
        <ele>1004.13</ele>
        <time>2025-04-15T14:32:32.232Z</time>
      </trkpt>
      <trkpt lat="44.81255" lon="3.80317">
        <ele>1004.53</ele>
        <time>2025-04-15T14:32:34.782Z</time>
      </trkpt>
      <trkpt lat="44.8128" lon="3.80322">
        <ele>1004.92</ele>
        <time>2025-04-15T14:32:37.337Z</time>
      </trkpt>
      <trkpt lat="44.81298" lon="3.8032">
        <ele>1005.15</ele>
        <time>2025-04-15T14:32:39.894Z</time>
      </trkpt>
      <trkpt lat="44.81321" lon="3.80305">
        <ele>1005.22</ele>
        <time>2025-04-15T14:32:42.456Z</time>
      </trkpt>
      <trkpt lat="44.81341" lon="3.80286">
        <ele>1005.05</ele>
        <time>2025-04-15T14:32:45.021Z</time>
      </trkpt>
      <trkpt lat="44.81361" lon="3.80266">
        <ele>1004.88</ele>
        <time>2025-04-15T14:32:47.590Z</time>
      </trkpt>
      <trkpt lat="44.81381" lon="3.80247">
        <ele>1004.69</ele>
        <time>2025-04-15T14:32:50.163Z</time>
      </trkpt>
      <trkpt lat="44.81401" lon="3.80228">
        <ele>1004.52</ele>
        <time>2025-04-15T14:32:52.740Z</time>
      </trkpt>
      <trkpt lat="44.81428" lon="3.80207">
        <ele>1004.32</ele>
        <time>2025-04-15T14:32:55.322Z</time>
      </trkpt>
      <trkpt lat="44.81455" lon="3.80186">
        <ele>1003.91</ele>
        <time>2025-04-15T14:32:57.909Z</time>
      </trkpt>
      <trkpt lat="44.81482" lon="3.80166">
        <ele>1003.49</ele>
        <time>2025-04-15T14:33:00.501Z</time>
      </trkpt>
      <trkpt lat="44.81497" lon="3.80146">
        <ele>1003.07</ele>
        <time>2025-04-15T14:33:03.096Z</time>
      </trkpt>
      <trkpt lat="44.81508" lon="3.80118">
        <ele>1002.54</ele>
        <time>2025-04-15T14:33:05.695Z</time>
      </trkpt>
      <trkpt lat="44.81514" lon="3.80083">
        <ele>1001.94</ele>
        <time>2025-04-15T14:33:08.298Z</time>
      </trkpt>
      <trkpt lat="44.81519" lon="3.80047">
        <ele>1001.42</ele>
        <time>2025-04-15T14:33:10.905Z</time>
      </trkpt>
      <trkpt lat="44.81525" lon="3.80011">
        <ele>1000.88</ele>
        <time>2025-04-15T14:33:13.516Z</time>
      </trkpt>
      <trkpt lat="44.81538" lon="3.79992">
        <ele>1000.4</ele>
        <time>2025-04-15T14:33:16.130Z</time>
      </trkpt>
      <trkpt lat="44.81564" lon="3.79974">
        <ele>999.89</ele>
        <time>2025-04-15T14:33:18.749Z</time>
      </trkpt>
      <trkpt lat="44.81591" lon="3.79956">
        <ele>999.32</ele>
        <time>2025-04-15T14:33:21.373Z</time>
      </trkpt>
      <trkpt lat="44.81618" lon="3.79938">
        <ele>998.83</ele>
        <time>2025-04-15T14:33:24.001Z</time>
      </trkpt>
      <trkpt lat="44.81644" lon="3.7992">
        <ele>998.43</ele>
        <time>2025-04-15T14:33:26.634Z</time>
      </trkpt>
      <trkpt lat="44.81671" lon="3.79902">
        <ele>998.11</ele>
        <time>2025-04-15T14:33:29.272Z</time>
      </trkpt>
      <trkpt lat="44.817" lon="3.79887">
        <ele>997.72</ele>
        <time>2025-04-15T14:33:31.915Z</time>
      </trkpt>
      <trkpt lat="44.81729" lon="3.79872">
        <ele>997.32</ele>
        <time>2025-04-15T14:33:34.563Z</time>
      </trkpt>
      <trkpt lat="44.81757" lon="3.79867">
        <ele>997.05</ele>
        <time>2025-04-15T14:33:37.215Z</time>
      </trkpt>
      <trkpt lat="44.81782" lon="3.79866">
        <ele>996.88</ele>
        <time>2025-04-15T14:33:39.871Z</time>
      </trkpt>
      <trkpt lat="44.81808" lon="3.79865">
        <ele>996.73</ele>
        <time>2025-04-15T14:33:42.531Z</time>
      </trkpt>
      <trkpt lat="44.81836" lon="3.79873">
        <ele>996.65</ele>
        <time>2025-04-15T14:33:45.196Z</time>
      </trkpt>
      <trkpt lat="44.81864" lon="3.7988">
        <ele>996.63</ele>
        <time>2025-04-15T14:33:47.866Z</time>
      </trkpt>
      <trkpt lat="44.81864" lon="3.7988">
        <ele>996.78</ele>
        <time>2025-04-15T14:33:50.536Z</time>
      </trkpt>
      <trkpt lat="44.81894" lon="3.79887">
        <ele>997.03</ele>
        <time>2025-04-15T14:33:53.210Z</time>
      </trkpt>
      <trkpt lat="44.81919" lon="3.7988">
        <ele>997.44</ele>
        <time>2025-04-15T14:33:55.888Z</time>
      </trkpt>
      <trkpt lat="44.81943" lon="3.79874">
        <ele>997.99</ele>
        <time>2025-04-15T14:33:58.570Z</time>
      </trkpt>
      <trkpt lat="44.81972" lon="3.79873">
        <ele>998.61</ele>
        <time>2025-04-15T14:34:01.257Z</time>
      </trkpt>
      <trkpt lat="44.82001" lon="3.79872">
        <ele>999.25</ele>
        <time>2025-04-15T14:34:03.949Z</time>
      </trkpt>
      <trkpt lat="44.82029" lon="3.79872">
        <ele>999.86</ele>
        <time>2025-04-15T14:34:06.645Z</time>
      </trkpt>
      <trkpt lat="44.82053" lon="3.79867">
        <ele>1000.45</ele>
        <time>2025-04-15T14:34:09.345Z</time>
      </trkpt>
      <trkpt lat="44.82076" lon="3.79863">
        <ele>1001.17</ele>
        <time>2025-04-15T14:34:12.049Z</time>
      </trkpt>
      <trkpt lat="44.821" lon="3.79851">
        <ele>1002.02</ele>
        <time>2025-04-15T14:34:14.757Z</time>
      </trkpt>
      <trkpt lat="44.82124" lon="3.79839">
        <ele>1003</ele>
        <time>2025-04-15T14:34:17.469Z</time>
      </trkpt>
      <trkpt lat="44.82152" lon="3.79831">
        <ele>1003.99</ele>
        <time>2025-04-15T14:34:20.185Z</time>
      </trkpt>
      <trkpt lat="44.82182" lon="3.79826">
        <ele>1004.88</ele>
        <time>2025-04-15T14:34:22.906Z</time>
      </trkpt>
      <trkpt lat="44.82212" lon="3.7982">
        <ele>1005.77</ele>
        <time>2025-04-15T14:34:25.632Z</time>
      </trkpt>
      <trkpt lat="44.82229" lon="3.79829">
        <ele>1006.6</ele>
        <time>2025-04-15T14:34:28.361Z</time>
      </trkpt>
      <trkpt lat="44.8225" lon="3.79854">
        <ele>1007.49</ele>
        <time>2025-04-15T14:34:31.094Z</time>
      </trkpt>
      <trkpt lat="44.82271" lon="3.7988">
        <ele>1008.39</ele>
        <time>2025-04-15T14:34:33.832Z</time>
      </trkpt>
      <trkpt lat="44.82292" lon="3.79906">
        <ele>1009.28</ele>
        <time>2025-04-15T14:34:36.574Z</time>
      </trkpt>
      <trkpt lat="44.82312" lon="3.79932">
        <ele>1010.09</ele>
        <time>2025-04-15T14:34:39.321Z</time>
      </trkpt>
      <trkpt lat="44.82335" lon="3.79962">
        <ele>1010.77</ele>
        <time>2025-04-15T14:34:42.073Z</time>
      </trkpt>
      <trkpt lat="44.82357" lon="3.79993">
        <ele>1011.4</ele>
        <time>2025-04-15T14:34:44.830Z</time>
      </trkpt>
      <trkpt lat="44.82379" lon="3.80024">
        <ele>1012</ele>
        <time>2025-04-15T14:34:47.592Z</time>
      </trkpt>
      <trkpt lat="44.82401" lon="3.80054">
        <ele>1012.64</ele>
        <time>2025-04-15T14:34:50.359Z</time>
      </trkpt>
      <trkpt lat="44.82423" lon="3.80085">
        <ele>1013.26</ele>
        <time>2025-04-15T14:34:53.131Z</time>
      </trkpt>
      <trkpt lat="44.82445" lon="3.80116">
        <ele>1013.86</ele>
        <time>2025-04-15T14:34:55.908Z</time>
      </trkpt>
      <trkpt lat="44.82467" lon="3.80146">
        <ele>1014.31</ele>
        <time>2025-04-15T14:34:58.690Z</time>
      </trkpt>
      <trkpt lat="44.8248" lon="3.80157">
        <ele>1014.59</ele>
        <time>2025-04-15T14:35:01.474Z</time>
      </trkpt>
      <trkpt lat="44.82503" lon="3.80168">
        <ele>1014.77</ele>
        <time>2025-04-15T14:35:04.262Z</time>
      </trkpt>
      <trkpt lat="44.82527" lon="3.80168">
        <ele>1014.77</ele>
        <time>2025-04-15T14:35:07.054Z</time>
      </trkpt>
      <trkpt lat="44.82546" lon="3.80157">
        <ele>1014.58</ele>
        <time>2025-04-15T14:35:09.849Z</time>
      </trkpt>
      <trkpt lat="44.82564" lon="3.80123">
        <ele>1014.15</ele>
        <time>2025-04-15T14:35:12.649Z</time>
      </trkpt>
      <trkpt lat="44.82568" lon="3.80099">
        <ele>1013.8</ele>
        <time>2025-04-15T14:35:15.452Z</time>
      </trkpt>
      <trkpt lat="44.82572" lon="3.80076">
        <ele>1013.37</ele>
        <time>2025-04-15T14:35:18.257Z</time>
      </trkpt>
      <trkpt lat="44.82575" lon="3.80043">
        <ele>1012.9</ele>
        <time>2025-04-15T14:35:21.066Z</time>
      </trkpt>
      <trkpt lat="44.82579" lon="3.80011">
        <ele>1012.36</ele>
        <time>2025-04-15T14:35:23.879Z</time>
      </trkpt>
      <trkpt lat="44.82585" lon="3.79992">
        <ele>1011.83</ele>
        <time>2025-04-15T14:35:26.694Z</time>
      </trkpt>
      <trkpt lat="44.82598" lon="3.79981">
        <ele>1011.3</ele>
        <time>2025-04-15T14:35:29.512Z</time>
      </trkpt>
      <trkpt lat="44.82629" lon="3.79986">
        <ele>1011.08</ele>
        <time>2025-04-15T14:35:32.335Z</time>
      </trkpt>
      <trkpt lat="44.8266" lon="3.79992">
        <ele>1010.76</ele>
        <time>2025-04-15T14:35:35.163Z</time>
      </trkpt>
      <trkpt lat="44.82676" lon="3.79992">
        <ele>1010.32</ele>
        <time>2025-04-15T14:35:37.993Z</time>
      </trkpt>
      <trkpt lat="44.82692" lon="3.79992">
        <ele>1009.9</ele>
        <time>2025-04-15T14:35:40.826Z</time>
      </trkpt>
      <trkpt lat="44.82711" lon="3.79999">
        <ele>1009.58</ele>
        <time>2025-04-15T14:35:43.662Z</time>
      </trkpt>
      <trkpt lat="44.82729" lon="3.80007">
        <ele>1009.21</ele>
        <time>2025-04-15T14:35:46.501Z</time>
      </trkpt>
      <trkpt lat="44.82742" lon="3.80003">
        <ele>1008.75</ele>
        <time>2025-04-15T14:35:49.342Z</time>
      </trkpt>
      <trkpt lat="44.82748" lon="3.7999">
        <ele>1008.33</ele>
        <time>2025-04-15T14:35:52.185Z</time>
      </trkpt>
      <trkpt lat="44.82752" lon="3.79968">
        <ele>1008.05</ele>
        <time>2025-04-15T14:35:55.030Z</time>
      </trkpt>
      <trkpt lat="44.82748" lon="3.7994">
        <ele>1007.85</ele>
        <time>2025-04-15T14:35:57.879Z</time>
      </trkpt>
      <trkpt lat="44.82739" lon="3.79919">
        <ele>1007.7</ele>
        <time>2025-04-15T14:36:00.730Z</time>
      </trkpt>
      <trkpt lat="44.82721" lon="3.79886">
        <ele>1007.65</ele>
        <time>2025-04-15T14:36:03.586Z</time>
      </trkpt>
      <trkpt lat="44.82703" lon="3.79852">
        <ele>1007.65</ele>
        <time>2025-04-15T14:36:06.447Z</time>
      </trkpt>
      <trkpt lat="44.82697" lon="3.79835">
        <ele>1007.73</ele>
        <time>2025-04-15T14:36:09.310Z</time>
      </trkpt>
      <trkpt lat="44.82697" lon="3.79822">
        <ele>1007.94</ele>
        <time>2025-04-15T14:36:12.175Z</time>
      </trkpt>
      <trkpt lat="44.82703" lon="3.79805">
        <ele>1008.29</ele>
        <time>2025-04-15T14:36:15.042Z</time>
      </trkpt>
      <trkpt lat="44.82712" lon="3.79803">
        <ele>1008.71</ele>
        <time>2025-04-15T14:36:17.910Z</time>
      </trkpt>
      <trkpt lat="44.82727" lon="3.79812">
        <ele>1009.28</ele>
        <time>2025-04-15T14:36:20.781Z</time>
      </trkpt>
      <trkpt lat="44.8272" lon="3.7982">
        <ele>1009.73</ele>
        <time>2025-04-15T14:36:23.653Z</time>
      </trkpt>
      <trkpt lat="44.82718" lon="3.79837">
        <ele>1010.29</ele>
        <time>2025-04-15T14:36:26.527Z</time>
      </trkpt>
      <trkpt lat="44.82724" lon="3.79859">
        <ele>1010.95</ele>
        <time>2025-04-15T14:36:29.404Z</time>
      </trkpt>
      <trkpt lat="44.82744" lon="3.79887">
        <ele>1011.77</ele>
        <time>2025-04-15T14:36:32.285Z</time>
      </trkpt>
      <trkpt lat="44.82763" lon="3.79916">
        <ele>1012.7</ele>
        <time>2025-04-15T14:36:35.171Z</time>
      </trkpt>
      <trkpt lat="44.82782" lon="3.79945">
        <ele>1013.75</ele>
        <time>2025-04-15T14:36:38.061Z</time>
      </trkpt>
      <trkpt lat="44.82797" lon="3.79955">
        <ele>1014.86</ele>
        <time>2025-04-15T14:36:40.954Z</time>
      </trkpt>
      <trkpt lat="44.82812" lon="3.79957">
        <ele>1016.07</ele>
        <time>2025-04-15T14:36:43.849Z</time>
      </trkpt>
      <trkpt lat="44.82832" lon="3.79955">
        <ele>1017.31</ele>
        <time>2025-04-15T14:36:46.748Z</time>
      </trkpt>
      <trkpt lat="44.82851" lon="3.79953">
        <ele>1018.61</ele>
        <time>2025-04-15T14:36:49.650Z</time>
      </trkpt>
      <trkpt lat="44.82851" lon="3.79953">
        <ele>1019.83</ele>
        <time>2025-04-15T14:36:52.552Z</time>
      </trkpt>
      <trkpt lat="44.82875" lon="3.79947">
        <ele>1021.23</ele>
        <time>2025-04-15T14:36:55.458Z</time>
      </trkpt>
      <trkpt lat="44.82891" lon="3.79949">
        <ele>1022.55</ele>
        <time>2025-04-15T14:36:58.366Z</time>
      </trkpt>
      <trkpt lat="44.82907" lon="3.79951">
        <ele>1023.93</ele>
        <time>2025-04-15T14:37:01.277Z</time>
      </trkpt>
      <trkpt lat="44.82928" lon="3.79974">
        <ele>1025.35</ele>
        <time>2025-04-15T14:37:04.192Z</time>
      </trkpt>
      <trkpt lat="44.82949" lon="3.79997">
        <ele>1026.71</ele>
        <time>2025-04-15T14:37:07.111Z</time>
      </trkpt>
      <trkpt lat="44.8297" lon="3.8002">
        <ele>1028.08</ele>
        <time>2025-04-15T14:37:10.034Z</time>
      </trkpt>
      <trkpt lat="44.82991" lon="3.80043">
        <ele>1029.52</ele>
        <time>2025-04-15T14:37:12.962Z</time>
      </trkpt>
      <trkpt lat="44.83012" lon="3.80071">
        <ele>1031.08</ele>
        <time>2025-04-15T14:37:15.894Z</time>
      </trkpt>
      <trkpt lat="44.83033" lon="3.80099">
        <ele>1032.63</ele>
        <time>2025-04-15T14:37:18.831Z</time>
      </trkpt>
      <trkpt lat="44.83045" lon="3.80122">
        <ele>1034.04</ele>
        <time>2025-04-15T14:37:21.771Z</time>
      </trkpt>
      <trkpt lat="44.83057" lon="3.80144">
        <ele>1035.41</ele>
        <time>2025-04-15T14:37:24.714Z</time>
      </trkpt>
      <trkpt lat="44.83082" lon="3.80157">
        <ele>1036.92</ele>
        <time>2025-04-15T14:37:27.662Z</time>
      </trkpt>
      <trkpt lat="44.83106" lon="3.8017">
        <ele>1038.45</ele>
        <time>2025-04-15T14:37:30.614Z</time>
      </trkpt>
      <trkpt lat="44.83128" lon="3.80187">
        <ele>1039.95</ele>
        <time>2025-04-15T14:37:33.570Z</time>
      </trkpt>
      <trkpt lat="44.83149" lon="3.80211">
        <ele>1041.38</ele>
        <time>2025-04-15T14:37:36.530Z</time>
      </trkpt>
      <trkpt lat="44.83171" lon="3.80236">
        <ele>1042.76</ele>
        <time>2025-04-15T14:37:39.495Z</time>
      </trkpt>
      <trkpt lat="44.83192" lon="3.8026">
        <ele>1044.19</ele>
        <time>2025-04-15T14:37:42.464Z</time>
      </trkpt>
      <trkpt lat="44.832" lon="3.80266">
        <ele>1045.56</ele>
        <time>2025-04-15T14:37:45.435Z</time>
      </trkpt>
      <trkpt lat="44.83218" lon="3.80279">
        <ele>1046.91</ele>
        <time>2025-04-15T14:37:48.409Z</time>
      </trkpt>
      <trkpt lat="44.83247" lon="3.80292">
        <ele>1048.33</ele>
        <time>2025-04-15T14:37:51.388Z</time>
      </trkpt>
      <trkpt lat="44.83276" lon="3.80305">
        <ele>1049.7</ele>
        <time>2025-04-15T14:37:54.371Z</time>
      </trkpt>
      <trkpt lat="44.83295" lon="3.80323">
        <ele>1050.91</ele>
        <time>2025-04-15T14:37:57.358Z</time>
      </trkpt>
      <trkpt lat="44.83315" lon="3.80342">
        <ele>1052.15</ele>
        <time>2025-04-15T14:38:00.349Z</time>
      </trkpt>
      <trkpt lat="44.83334" lon="3.80375">
        <ele>1053.26</ele>
        <time>2025-04-15T14:38:03.345Z</time>
      </trkpt>
      <trkpt lat="44.83353" lon="3.80408">
        <ele>1054.47</ele>
        <time>2025-04-15T14:38:06.346Z</time>
      </trkpt>
      <trkpt lat="44.83373" lon="3.80441">
        <ele>1055.73</ele>
        <time>2025-04-15T14:38:09.352Z</time>
      </trkpt>
      <trkpt lat="44.83392" lon="3.80474">
        <ele>1056.8</ele>
        <time>2025-04-15T14:38:12.362Z</time>
      </trkpt>
      <trkpt lat="44.83411" lon="3.80507">
        <ele>1057.91</ele>
        <time>2025-04-15T14:38:15.377Z</time>
      </trkpt>
      <trkpt lat="44.83431" lon="3.80541">
        <ele>1059.1</ele>
        <time>2025-04-15T14:38:18.397Z</time>
      </trkpt>
      <trkpt lat="44.8345" lon="3.80574">
        <ele>1060.33</ele>
        <time>2025-04-15T14:38:21.422Z</time>
      </trkpt>
      <trkpt lat="44.83469" lon="3.80607">
        <ele>1061.49</ele>
        <time>2025-04-15T14:38:24.452Z</time>
      </trkpt>
      <trkpt lat="44.83488" lon="3.8064">
        <ele>1062.61</ele>
        <time>2025-04-15T14:38:27.487Z</time>
      </trkpt>
      <trkpt lat="44.83503" lon="3.80669">
        <ele>1063.8</ele>
        <time>2025-04-15T14:38:30.526Z</time>
      </trkpt>
      <trkpt lat="44.83518" lon="3.80698">
        <ele>1065.01</ele>
        <time>2025-04-15T14:38:33.569Z</time>
      </trkpt>
      <trkpt lat="44.8353" lon="3.80717">
        <ele>1066.14</ele>
        <time>2025-04-15T14:38:36.615Z</time>
      </trkpt>
      <trkpt lat="44.83542" lon="3.80736">
        <ele>1067.19</ele>
        <time>2025-04-15T14:38:39.664Z</time>
      </trkpt>
      <trkpt lat="44.83561" lon="3.8076">
        <ele>1068.19</ele>
        <time>2025-04-15T14:38:42.717Z</time>
      </trkpt>
      <trkpt lat="44.83581" lon="3.80784">
        <ele>1069.13</ele>
        <time>2025-04-15T14:38:45.774Z</time>
      </trkpt>
      <trkpt lat="44.83589" lon="3.80808">
        <ele>1070.04</ele>
        <time>2025-04-15T14:38:48.834Z</time>
      </trkpt>
      <trkpt lat="44.83598" lon="3.80833">
        <ele>1071.03</ele>
        <time>2025-04-15T14:38:51.897Z</time>
      </trkpt>
      <trkpt lat="44.83602" lon="3.80867">
        <ele>1072.01</ele>
        <time>2025-04-15T14:38:54.964Z</time>
      </trkpt>
      <trkpt lat="44.83602" lon="3.80908">
        <ele>1073.03</ele>
        <time>2025-04-15T14:38:58.036Z</time>
      </trkpt>
      <trkpt lat="44.83601" lon="3.80949">
        <ele>1074.02</ele>
        <time>2025-04-15T14:39:01.112Z</time>
      </trkpt>
      <trkpt lat="44.836" lon="3.8099">
        <ele>1074.88</ele>
        <time>2025-04-15T14:39:04.193Z</time>
      </trkpt>
      <trkpt lat="44.836" lon="3.8103">
        <ele>1075.67</ele>
        <time>2025-04-15T14:39:07.279Z</time>
      </trkpt>
      <trkpt lat="44.83597" lon="3.81061">
        <ele>1076.4</ele>
        <time>2025-04-15T14:39:10.368Z</time>
      </trkpt>
      <trkpt lat="44.83594" lon="3.81092">
        <ele>1077.16</ele>
        <time>2025-04-15T14:39:13.461Z</time>
      </trkpt>
      <trkpt lat="44.83591" lon="3.81123">
        <ele>1077.83</ele>
        <time>2025-04-15T14:39:16.557Z</time>
      </trkpt>
      <trkpt lat="44.83596" lon="3.81151">
        <ele>1078.46</ele>
        <time>2025-04-15T14:39:19.657Z</time>
      </trkpt>
      <trkpt lat="44.83606" lon="3.81183">
        <ele>1079.13</ele>
        <time>2025-04-15T14:39:22.761Z</time>
      </trkpt>
      <trkpt lat="44.83618" lon="3.81209">
        <ele>1079.69</ele>
        <time>2025-04-15T14:39:25.868Z</time>
      </trkpt>
      <trkpt lat="44.8363" lon="3.81234">
        <ele>1080.1</ele>
        <time>2025-04-15T14:39:28.979Z</time>
      </trkpt>
      <trkpt lat="44.83639" lon="3.81264">
        <ele>1080.41</ele>
        <time>2025-04-15T14:39:32.093Z</time>
      </trkpt>
      <trkpt lat="44.83643" lon="3.81302">
        <ele>1080.64</ele>
        <time>2025-04-15T14:39:35.212Z</time>
      </trkpt>
      <trkpt lat="44.83647" lon="3.81339">
        <ele>1080.94</ele>
        <time>2025-04-15T14:39:38.335Z</time>
      </trkpt>
      <trkpt lat="44.83654" lon="3.81361">
        <ele>1081.28</ele>
        <time>2025-04-15T14:39:41.461Z</time>
      </trkpt>
      <trkpt lat="44.83654" lon="3.81361">
        <ele>1081.49</ele>
        <time>2025-04-15T14:39:44.587Z</time>
      </trkpt>
      <trkpt lat="44.83673" lon="3.81393">
        <ele>1081.76</ele>
        <time>2025-04-15T14:39:47.717Z</time>
      </trkpt>
      <trkpt lat="44.83692" lon="3.81425">
        <ele>1081.9</ele>
        <time>2025-04-15T14:39:50.852Z</time>
      </trkpt>
      <trkpt lat="44.83712" lon="3.81457">
        <ele>1082.12</ele>
        <time>2025-04-15T14:39:53.992Z</time>
      </trkpt>
      <trkpt lat="44.83731" lon="3.8149">
        <ele>1082.16</ele>
        <time>2025-04-15T14:39:57.137Z</time>
      </trkpt>
      <trkpt lat="44.8375" lon="3.81522">
        <ele>1082.19</ele>
        <time>2025-04-15T14:40:00.287Z</time>
      </trkpt>
      <trkpt lat="44.8377" lon="3.81554">
        <ele>1082.25</ele>
        <time>2025-04-15T14:40:03.441Z</time>
      </trkpt>
      <trkpt lat="44.83789" lon="3.81586">
        <ele>1082.27</ele>
        <time>2025-04-15T14:40:06.600Z</time>
      </trkpt>
      <trkpt lat="44.83808" lon="3.81619">
        <ele>1082.16</ele>
        <time>2025-04-15T14:40:09.764Z</time>
      </trkpt>
      <trkpt lat="44.83828" lon="3.81651">
        <ele>1082.11</ele>
        <time>2025-04-15T14:40:12.933Z</time>
      </trkpt>
      <trkpt lat="44.83847" lon="3.81683">
        <ele>1082.06</ele>
        <time>2025-04-15T14:40:16.107Z</time>
      </trkpt>
      <trkpt lat="44.83866" lon="3.81715">
        <ele>1082.07</ele>
        <time>2025-04-15T14:40:19.285Z</time>
      </trkpt>
      <trkpt lat="44.83886" lon="3.81747">
        <ele>1082.08</ele>
        <time>2025-04-15T14:40:22.468Z</time>
      </trkpt>
      <trkpt lat="44.83905" lon="3.81779">
        <ele>1082.04</ele>
        <time>2025-04-15T14:40:25.656Z</time>
      </trkpt>
      <trkpt lat="44.8392" lon="3.81806">
        <ele>1081.99</ele>
        <time>2025-04-15T14:40:28.848Z</time>
      </trkpt>
      <trkpt lat="44.83936" lon="3.81832">
        <ele>1081.96</ele>
        <time>2025-04-15T14:40:32.044Z</time>
      </trkpt>
      <trkpt lat="44.83951" lon="3.81858">
        <ele>1081.92</ele>
        <time>2025-04-15T14:40:35.244Z</time>
      </trkpt>
      <trkpt lat="44.83967" lon="3.81884">
        <ele>1081.92</ele>
        <time>2025-04-15T14:40:38.447Z</time>
      </trkpt>
      <trkpt lat="44.83986" lon="3.81916">
        <ele>1081.98</ele>
        <time>2025-04-15T14:40:41.655Z</time>
      </trkpt>
      <trkpt lat="44.84004" lon="3.81947">
        <ele>1082.09</ele>
        <time>2025-04-15T14:40:44.868Z</time>
      </trkpt>
      <trkpt lat="44.84023" lon="3.81979">
        <ele>1082.15</ele>
        <time>2025-04-15T14:40:48.086Z</time>
      </trkpt>
      <trkpt lat="44.84042" lon="3.8201">
        <ele>1082.25</ele>
        <time>2025-04-15T14:40:51.308Z</time>
      </trkpt>
      <trkpt lat="44.84061" lon="3.82042">
        <ele>1082.27</ele>
        <time>2025-04-15T14:40:54.535Z</time>
      </trkpt>
      <trkpt lat="44.8408" lon="3.82073">
        <ele>1082.36</ele>
        <time>2025-04-15T14:40:57.767Z</time>
      </trkpt>
      <trkpt lat="44.84098" lon="3.82105">
        <ele>1082.44</ele>
        <time>2025-04-15T14:41:01.003Z</time>
      </trkpt>
      <trkpt lat="44.84117" lon="3.82136">
        <ele>1082.56</ele>
        <time>2025-04-15T14:41:04.244Z</time>
      </trkpt>
      <trkpt lat="44.84136" lon="3.82168">
        <ele>1082.75</ele>
        <time>2025-04-15T14:41:07.490Z</time>
      </trkpt>
      <trkpt lat="44.84155" lon="3.82199">
        <ele>1082.92</ele>
        <time>2025-04-15T14:41:10.740Z</time>
      </trkpt>
      <trkpt lat="44.84174" lon="3.82231">
        <ele>1083.1</ele>
        <time>2025-04-15T14:41:13.995Z</time>
      </trkpt>
      <trkpt lat="44.84192" lon="3.82262">
        <ele>1083.33</ele>
        <time>2025-04-15T14:41:17.255Z</time>
      </trkpt>
      <trkpt lat="44.84201" lon="3.82282">
        <ele>1083.54</ele>
        <time>2025-04-15T14:41:20.517Z</time>
      </trkpt>
      <trkpt lat="44.84209" lon="3.82303">
        <ele>1083.78</ele>
        <time>2025-04-15T14:41:23.782Z</time>
      </trkpt>
      <trkpt lat="44.84215" lon="3.82331">
        <ele>1084.03</ele>
        <time>2025-04-15T14:41:27.050Z</time>
      </trkpt>
      <trkpt lat="44.8422" lon="3.82359">
        <ele>1084.29</ele>
        <time>2025-04-15T14:41:30.322Z</time>
      </trkpt>
      <trkpt lat="44.84222" lon="3.824">
        <ele>1084.58</ele>
        <time>2025-04-15T14:41:33.598Z</time>
      </trkpt>
      <trkpt lat="44.84224" lon="3.82441">
        <ele>1084.83</ele>
        <time>2025-04-15T14:41:36.879Z</time>
      </trkpt>
      <trkpt lat="44.84226" lon="3.82482">
        <ele>1085.15</ele>
        <time>2025-04-15T14:41:40.165Z</time>
      </trkpt>
      <trkpt lat="44.84228" lon="3.82523">
        <ele>1085.55</ele>
        <time>2025-04-15T14:41:43.455Z</time>
      </trkpt>
      <trkpt lat="44.84229" lon="3.82564">
        <ele>1086</ele>
        <time>2025-04-15T14:41:46.750Z</time>
      </trkpt>
      <trkpt lat="44.84231" lon="3.82605">
        <ele>1086.47</ele>
        <time>2025-04-15T14:41:50.050Z</time>
      </trkpt>
      <trkpt lat="44.84233" lon="3.82647">
        <ele>1086.98</ele>
        <time>2025-04-15T14:41:53.354Z</time>
      </trkpt>
      <trkpt lat="44.84235" lon="3.82687">
        <ele>1087.53</ele>
        <time>2025-04-15T14:41:56.663Z</time>
      </trkpt>
      <trkpt lat="44.84237" lon="3.82726">
        <ele>1088.16</ele>
        <time>2025-04-15T14:41:59.977Z</time>
      </trkpt>
      <trkpt lat="44.84238" lon="3.82766">
        <ele>1088.79</ele>
        <time>2025-04-15T14:42:03.295Z</time>
      </trkpt>
      <trkpt lat="44.84239" lon="3.82805">
        <ele>1089.52</ele>
        <time>2025-04-15T14:42:06.617Z</time>
      </trkpt>
      <trkpt lat="44.84246" lon="3.82848">
        <ele>1090.28</ele>
        <time>2025-04-15T14:42:09.944Z</time>
      </trkpt>
      <trkpt lat="44.84259" lon="3.82884">
        <ele>1090.96</ele>
        <time>2025-04-15T14:42:13.276Z</time>
      </trkpt>
      <trkpt lat="44.84259" lon="3.82884">
        <ele>1091.65</ele>
        <time>2025-04-15T14:42:16.608Z</time>
      </trkpt>
      <trkpt lat="44.84265" lon="3.82899">
        <ele>1092.35</ele>
        <time>2025-04-15T14:42:19.942Z</time>
      </trkpt>
      <trkpt lat="44.8428" lon="3.82932">
        <ele>1093.12</ele>
        <time>2025-04-15T14:42:23.280Z</time>
      </trkpt>
      <trkpt lat="44.8429" lon="3.82957">
        <ele>1093.94</ele>
        <time>2025-04-15T14:42:26.622Z</time>
      </trkpt>
      <trkpt lat="44.84299" lon="3.82983">
        <ele>1094.82</ele>
        <time>2025-04-15T14:42:29.967Z</time>
      </trkpt>
      <trkpt lat="44.84306" lon="3.82996">
        <ele>1095.59</ele>
        <time>2025-04-15T14:42:33.314Z</time>
      </trkpt>
      <trkpt lat="44.84314" lon="3.83019">
        <ele>1096.41</ele>
        <time>2025-04-15T14:42:36.664Z</time>
      </trkpt>
      <trkpt lat="44.84315" lon="3.83019">
        <ele>1097.17</ele>
        <time>2025-04-15T14:42:40.014Z</time>
      </trkpt>
      <trkpt lat="44.84319" lon="3.8303">
        <ele>1097.96</ele>
        <time>2025-04-15T14:42:43.365Z</time>
      </trkpt>
      <trkpt lat="44.84325" lon="3.83047">
        <ele>1098.74</ele>
        <time>2025-04-15T14:42:46.719Z</time>
      </trkpt>
      <trkpt lat="44.8433" lon="3.83069">
        <ele>1099.55</ele>
        <time>2025-04-15T14:42:50.075Z</time>
      </trkpt>
      <trkpt lat="44.8433" lon="3.83077">
        <ele>1100.33</ele>
        <time>2025-04-15T14:42:53.432Z</time>
      </trkpt>
      <trkpt lat="44.84335" lon="3.83119">
        <ele>1101.15</ele>
        <time>2025-04-15T14:42:56.794Z</time>
      </trkpt>
      <trkpt lat="44.8434" lon="3.83161">
        <ele>1102</ele>
        <time>2025-04-15T14:43:00.161Z</time>
      </trkpt>
      <trkpt lat="44.8434" lon="3.83165">
        <ele>1102.73</ele>
        <time>2025-04-15T14:43:03.528Z</time>
      </trkpt>
      <trkpt lat="44.84344" lon="3.83201">
        <ele>1103.51</ele>
        <time>2025-04-15T14:43:06.899Z</time>
      </trkpt>
      <trkpt lat="44.84348" lon="3.83237">
        <ele>1104.19</ele>
        <time>2025-04-15T14:43:10.274Z</time>
      </trkpt>
      <trkpt lat="44.84352" lon="3.83273">
        <ele>1104.94</ele>
        <time>2025-04-15T14:43:13.654Z</time>
      </trkpt>
      <trkpt lat="44.84356" lon="3.83308">
        <ele>1105.63</ele>
        <time>2025-04-15T14:43:17.038Z</time>
      </trkpt>
      <trkpt lat="44.8436" lon="3.83344">
        <ele>1106.28</ele>
        <time>2025-04-15T14:43:20.426Z</time>
      </trkpt>
      <trkpt lat="44.8436" lon="3.83344">
        <ele>1106.91</ele>
        <time>2025-04-15T14:43:23.814Z</time>
      </trkpt>
      <trkpt lat="44.84366" lon="3.8338">
        <ele>1107.56</ele>
        <time>2025-04-15T14:43:27.206Z</time>
      </trkpt>
      <trkpt lat="44.84375" lon="3.83401">
        <ele>1108.19</ele>
        <time>2025-04-15T14:43:30.601Z</time>
      </trkpt>
      <trkpt lat="44.84383" lon="3.83423">
        <ele>1108.91</ele>
        <time>2025-04-15T14:43:33.999Z</time>
      </trkpt>
      <trkpt lat="44.84398" lon="3.83437">
        <ele>1109.52</ele>
        <time>2025-04-15T14:43:37.400Z</time>
      </trkpt>
      <trkpt lat="44.84413" lon="3.83451">
        <ele>1110.2</ele>
        <time>2025-04-15T14:43:40.803Z</time>
      </trkpt>
      <trkpt lat="44.84436" lon="3.83467">
        <ele>1110.92</ele>
        <time>2025-04-15T14:43:44.210Z</time>
      </trkpt>
      <trkpt lat="44.84459" lon="3.83484">
        <ele>1111.66</ele>
        <time>2025-04-15T14:43:47.622Z</time>
      </trkpt>
      <trkpt lat="44.84482" lon="3.835">
        <ele>1112.42</ele>
        <time>2025-04-15T14:43:51.038Z</time>
      </trkpt>
      <trkpt lat="44.84486" lon="3.83502">
        <ele>1113.15</ele>
        <time>2025-04-15T14:43:54.454Z</time>
      </trkpt>
      <trkpt lat="44.84514" lon="3.83522">
        <ele>1114.01</ele>
        <time>2025-04-15T14:43:57.875Z</time>
      </trkpt>
      <trkpt lat="44.84542" lon="3.83541">
        <ele>1114.83</ele>
        <time>2025-04-15T14:44:01.301Z</time>
      </trkpt>
      <trkpt lat="44.84568" lon="3.83559">
        <ele>1115.65</ele>
        <time>2025-04-15T14:44:04.732Z</time>
      </trkpt>
      <trkpt lat="44.84594" lon="3.83577">
        <ele>1116.58</ele>
        <time>2025-04-15T14:44:08.168Z</time>
      </trkpt>
      <trkpt lat="44.84621" lon="3.83595">
        <ele>1117.45</ele>
        <time>2025-04-15T14:44:11.608Z</time>
      </trkpt>
      <trkpt lat="44.84647" lon="3.83613">
        <ele>1118.38</ele>
        <time>2025-04-15T14:44:15.053Z</time>
      </trkpt>
      <trkpt lat="44.84673" lon="3.83631">
        <ele>1119.38</ele>
        <time>2025-04-15T14:44:18.503Z</time>
      </trkpt>
      <trkpt lat="44.847" lon="3.83649">
        <ele>1120.22</ele>
        <time>2025-04-15T14:44:21.957Z</time>
      </trkpt>
      <trkpt lat="44.84726" lon="3.83667">
        <ele>1121.03</ele>
        <time>2025-04-15T14:44:25.416Z</time>
      </trkpt>
      <trkpt lat="44.84752" lon="3.83685">
        <ele>1122.01</ele>
        <time>2025-04-15T14:44:28.880Z</time>
      </trkpt>
      <trkpt lat="44.84778" lon="3.83703">
        <ele>1123.12</ele>
        <time>2025-04-15T14:44:32.349Z</time>
      </trkpt>
      <trkpt lat="44.84805" lon="3.83721">
        <ele>1124.19</ele>
        <time>2025-04-15T14:44:35.822Z</time>
      </trkpt>
      <trkpt lat="44.84831" lon="3.8374">
        <ele>1125.25</ele>
        <time>2025-04-15T14:44:39.300Z</time>
      </trkpt>
      <trkpt lat="44.84857" lon="3.83758">
        <ele>1126.41</ele>
        <time>2025-04-15T14:44:42.783Z</time>
      </trkpt>
      <trkpt lat="44.84883" lon="3.83776">
        <ele>1127.59</ele>
        <time>2025-04-15T14:44:46.270Z</time>
      </trkpt>
      <trkpt lat="44.84909" lon="3.83793">
        <ele>1128.75</ele>
        <time>2025-04-15T14:44:49.762Z</time>
      </trkpt>
      <trkpt lat="44.84935" lon="3.83811">
        <ele>1129.85</ele>
        <time>2025-04-15T14:44:53.258Z</time>
      </trkpt>
      <trkpt lat="44.8496" lon="3.83829">
        <ele>1130.93</ele>
        <time>2025-04-15T14:44:56.759Z</time>
      </trkpt>
      <trkpt lat="44.84986" lon="3.83847">
        <ele>1131.97</ele>
        <time>2025-04-15T14:45:00.265Z</time>
      </trkpt>
      <trkpt lat="44.85012" lon="3.83865">
        <ele>1133.05</ele>
        <time>2025-04-15T14:45:03.775Z</time>
      </trkpt>
      <trkpt lat="44.85014" lon="3.83869">
        <ele>1134.07</ele>
        <time>2025-04-15T14:45:07.286Z</time>
      </trkpt>
      <trkpt lat="44.85042" lon="3.83888">
        <ele>1135.19</ele>
        <time>2025-04-15T14:45:10.802Z</time>
      </trkpt>
      <trkpt lat="44.8507" lon="3.83908">
        <ele>1136.32</ele>
        <time>2025-04-15T14:45:14.323Z</time>
      </trkpt>
      <trkpt lat="44.85098" lon="3.83927">
        <ele>1137.33</ele>
        <time>2025-04-15T14:45:17.849Z</time>
      </trkpt>
      <trkpt lat="44.85126" lon="3.83946">
        <ele>1138.28</ele>
        <time>2025-04-15T14:45:21.380Z</time>
      </trkpt>
      <trkpt lat="44.85153" lon="3.83965">
        <ele>1139.13</ele>
        <time>2025-04-15T14:45:24.916Z</time>
      </trkpt>
      <trkpt lat="44.85181" lon="3.83985">
        <ele>1140</ele>
        <time>2025-04-15T14:45:28.457Z</time>
      </trkpt>
      <trkpt lat="44.85209" lon="3.84004">
        <ele>1140.86</ele>
        <time>2025-04-15T14:45:32.003Z</time>
      </trkpt>
      <trkpt lat="44.85237" lon="3.84023">
        <ele>1141.7</ele>
        <time>2025-04-15T14:45:35.554Z</time>
      </trkpt>
      <trkpt lat="44.85265" lon="3.84042">
        <ele>1142.55</ele>
        <time>2025-04-15T14:45:39.109Z</time>
      </trkpt>
      <trkpt lat="44.85293" lon="3.84061">
        <ele>1143.4</ele>
        <time>2025-04-15T14:45:42.669Z</time>
      </trkpt>
      <trkpt lat="44.85321" lon="3.84081">
        <ele>1144.22</ele>
        <time>2025-04-15T14:45:46.234Z</time>
      </trkpt>
      <trkpt lat="44.85349" lon="3.841">
        <ele>1145.05</ele>
        <time>2025-04-15T14:45:49.804Z</time>
      </trkpt>
      <trkpt lat="44.85377" lon="3.84119">
        <ele>1145.83</ele>
        <time>2025-04-15T14:45:53.379Z</time>
      </trkpt>
      <trkpt lat="44.85404" lon="3.84138">
        <ele>1146.58</ele>
        <time>2025-04-15T14:45:56.959Z</time>
      </trkpt>
      <trkpt lat="44.85432" lon="3.84158">
        <ele>1147.35</ele>
        <time>2025-04-15T14:46:00.544Z</time>
      </trkpt>
      <trkpt lat="44.8546" lon="3.84177">
        <ele>1148.08</ele>
        <time>2025-04-15T14:46:04.134Z</time>
      </trkpt>
      <trkpt lat="44.85488" lon="3.84196">
        <ele>1148.7</ele>
        <time>2025-04-15T14:46:07.729Z</time>
      </trkpt>
      <trkpt lat="44.85516" lon="3.84215">
        <ele>1149.21</ele>
        <time>2025-04-15T14:46:11.329Z</time>
      </trkpt>
      <trkpt lat="44.85544" lon="3.84234">
        <ele>1149.6</ele>
        <time>2025-04-15T14:46:14.934Z</time>
      </trkpt>
      <trkpt lat="44.85572" lon="3.84254">
        <ele>1149.89</ele>
        <time>2025-04-15T14:46:18.544Z</time>
      </trkpt>
      <trkpt lat="44.856" lon="3.84273">
        <ele>1150.08</ele>
        <time>2025-04-15T14:46:22.159Z</time>
      </trkpt>
      <trkpt lat="44.85628" lon="3.84292">
        <ele>1150.29</ele>
        <time>2025-04-15T14:46:25.779Z</time>
      </trkpt>
      <trkpt lat="44.85655" lon="3.84311">
        <ele>1150.54</ele>
        <time>2025-04-15T14:46:29.404Z</time>
      </trkpt>
      <trkpt lat="44.85683" lon="3.84331">
        <ele>1150.68</ele>
        <time>2025-04-15T14:46:33.034Z</time>
      </trkpt>
      <trkpt lat="44.85711" lon="3.8435">
        <ele>1150.71</ele>
        <time>2025-04-15T14:46:36.669Z</time>
      </trkpt>
      <trkpt lat="44.85739" lon="3.84369">
        <ele>1150.69</ele>
        <time>2025-04-15T14:46:40.309Z</time>
      </trkpt>
      <trkpt lat="44.85744" lon="3.84371">
        <ele>1150.6</ele>
        <time>2025-04-15T14:46:43.950Z</time>
      </trkpt>
      <trkpt lat="44.85752" lon="3.84378">
        <ele>1150.45</ele>
        <time>2025-04-15T14:46:47.592Z</time>
      </trkpt>
      <trkpt lat="44.85756" lon="3.8438">
        <ele>1150.24</ele>
        <time>2025-04-15T14:46:51.235Z</time>
      </trkpt>
      <trkpt lat="44.85784" lon="3.84399">
        <ele>1150.02</ele>
        <time>2025-04-15T14:46:54.883Z</time>
      </trkpt>
      <trkpt lat="44.85811" lon="3.84418">
        <ele>1149.76</ele>
        <time>2025-04-15T14:46:58.536Z</time>
      </trkpt>
      <trkpt lat="44.85839" lon="3.84437">
        <ele>1149.31</ele>
        <time>2025-04-15T14:47:02.194Z</time>
      </trkpt>
      <trkpt lat="44.85866" lon="3.84456">
        <ele>1148.84</ele>
        <time>2025-04-15T14:47:05.857Z</time>
      </trkpt>
      <trkpt lat="44.85894" lon="3.84474">
        <ele>1148.33</ele>
        <time>2025-04-15T14:47:09.525Z</time>
      </trkpt>
      <trkpt lat="44.85921" lon="3.84493">
        <ele>1147.74</ele>
        <time>2025-04-15T14:47:13.197Z</time>
      </trkpt>
      <trkpt lat="44.85949" lon="3.84512">
        <ele>1147.13</ele>
        <time>2025-04-15T14:47:16.874Z</time>
      </trkpt>
      <trkpt lat="44.85976" lon="3.84531">
        <ele>1146.51</ele>
        <time>2025-04-15T14:47:20.556Z</time>
      </trkpt>
      <trkpt lat="44.86004" lon="3.8455">
        <ele>1145.78</ele>
        <time>2025-04-15T14:47:24.243Z</time>
      </trkpt>
      <trkpt lat="44.86031" lon="3.84569">
        <ele>1144.92</ele>
        <time>2025-04-15T14:47:27.935Z</time>
      </trkpt>
      <trkpt lat="44.86059" lon="3.84588">
        <ele>1144.07</ele>
        <time>2025-04-15T14:47:31.632Z</time>
      </trkpt>
      <trkpt lat="44.86086" lon="3.84607">
        <ele>1143.24</ele>
        <time>2025-04-15T14:47:35.334Z</time>
      </trkpt>
      <trkpt lat="44.86114" lon="3.84626">
        <ele>1142.39</ele>
        <time>2025-04-15T14:47:39.041Z</time>
      </trkpt>
      <trkpt lat="44.86141" lon="3.84644">
        <ele>1141.48</ele>
        <time>2025-04-15T14:47:42.753Z</time>
      </trkpt>
      <trkpt lat="44.86169" lon="3.84663">
        <ele>1140.55</ele>
        <time>2025-04-15T14:47:46.469Z</time>
      </trkpt>
      <trkpt lat="44.86196" lon="3.84682">
        <ele>1139.6</ele>
        <time>2025-04-15T14:47:50.190Z</time>
      </trkpt>
      <trkpt lat="44.86224" lon="3.84701">
        <ele>1138.68</ele>
        <time>2025-04-15T14:47:53.916Z</time>
      </trkpt>
      <trkpt lat="44.86251" lon="3.8472">
        <ele>1137.78</ele>
        <time>2025-04-15T14:47:57.647Z</time>
      </trkpt>
      <trkpt lat="44.86279" lon="3.84739">
        <ele>1136.86</ele>
        <time>2025-04-15T14:48:01.383Z</time>
      </trkpt>
      <trkpt lat="44.86306" lon="3.84758">
        <ele>1135.89</ele>
        <time>2025-04-15T14:48:05.124Z</time>
      </trkpt>
      <trkpt lat="44.86334" lon="3.84777">
        <ele>1134.86</ele>
        <time>2025-04-15T14:48:08.870Z</time>
      </trkpt>
      <trkpt lat="44.86335" lon="3.84779">
        <ele>1134.05</ele>
        <time>2025-04-15T14:48:12.616Z</time>
      </trkpt>
      <trkpt lat="44.86364" lon="3.84794">
        <ele>1133.18</ele>
        <time>2025-04-15T14:48:16.367Z</time>
      </trkpt>
      <trkpt lat="44.86394" lon="3.84808">
        <ele>1132.43</ele>
        <time>2025-04-15T14:48:20.123Z</time>
      </trkpt>
      <trkpt lat="44.86424" lon="3.84823">
        <ele>1131.87</ele>
        <time>2025-04-15T14:48:23.884Z</time>
      </trkpt>
      <trkpt lat="44.86436" lon="3.84829">
        <ele>1131.27</ele>
        <time>2025-04-15T14:48:27.647Z</time>
      </trkpt>
      <trkpt lat="44.86436" lon="3.84867">
        <ele>1130.7</ele>
        <time>2025-04-15T14:48:31.415Z</time>
      </trkpt>
      <trkpt lat="44.86441" lon="3.84878">
        <ele>1130.22</ele>
        <time>2025-04-15T14:48:35.184Z</time>
      </trkpt>
      <trkpt lat="44.86454" lon="3.84911">
        <ele>1129.78</ele>
        <time>2025-04-15T14:48:38.957Z</time>
      </trkpt>
      <trkpt lat="44.86467" lon="3.84944">
        <ele>1129.51</ele>
        <time>2025-04-15T14:48:42.735Z</time>
      </trkpt>
      <trkpt lat="44.8648" lon="3.84977">
        <ele>1129.28</ele>
        <time>2025-04-15T14:48:46.517Z</time>
      </trkpt>
      <trkpt lat="44.86493" lon="3.8501">
        <ele>1129</ele>
        <time>2025-04-15T14:48:50.303Z</time>
      </trkpt>
      <trkpt lat="44.86505" lon="3.85043">
        <ele>1128.85</ele>
        <time>2025-04-15T14:48:54.094Z</time>
      </trkpt>
      <trkpt lat="44.86524" lon="3.85072">
        <ele>1128.88</ele>
        <time>2025-04-15T14:48:57.889Z</time>
      </trkpt>
      <trkpt lat="44.86543" lon="3.85101">
        <ele>1129.03</ele>
        <time>2025-04-15T14:49:01.688Z</time>
      </trkpt>
      <trkpt lat="44.86562" lon="3.85131">
        <ele>1129.2</ele>
        <time>2025-04-15T14:49:05.492Z</time>
      </trkpt>
      <trkpt lat="44.8658" lon="3.8516">
        <ele>1129.51</ele>
        <time>2025-04-15T14:49:09.300Z</time>
      </trkpt>
      <trkpt lat="44.86599" lon="3.85189">
        <ele>1129.97</ele>
        <time>2025-04-15T14:49:13.113Z</time>
      </trkpt>
      <trkpt lat="44.86618" lon="3.85219">
        <ele>1130.57</ele>
        <time>2025-04-15T14:49:16.930Z</time>
      </trkpt>
      <trkpt lat="44.86637" lon="3.85248">
        <ele>1131.22</ele>
        <time>2025-04-15T14:49:20.752Z</time>
      </trkpt>
      <trkpt lat="44.86656" lon="3.85277">
        <ele>1131.8</ele>
        <time>2025-04-15T14:49:24.578Z</time>
      </trkpt>
      <trkpt lat="44.86664" lon="3.85297">
        <ele>1132.47</ele>
        <time>2025-04-15T14:49:28.407Z</time>
      </trkpt>
      <trkpt lat="44.86673" lon="3.85318">
        <ele>1133.27</ele>
        <time>2025-04-15T14:49:32.239Z</time>
      </trkpt>
      <trkpt lat="44.86683" lon="3.85358">
        <ele>1134.13</ele>
        <time>2025-04-15T14:49:36.076Z</time>
      </trkpt>
      <trkpt lat="44.86692" lon="3.85399">
        <ele>1135</ele>
        <time>2025-04-15T14:49:39.918Z</time>
      </trkpt>
      <trkpt lat="44.86702" lon="3.8544">
        <ele>1135.92</ele>
        <time>2025-04-15T14:49:43.764Z</time>
      </trkpt>
      <trkpt lat="44.86712" lon="3.85481">
        <ele>1136.88</ele>
        <time>2025-04-15T14:49:47.615Z</time>
      </trkpt>
      <trkpt lat="44.86722" lon="3.85522">
        <ele>1137.84</ele>
        <time>2025-04-15T14:49:51.471Z</time>
      </trkpt>
      <trkpt lat="44.86732" lon="3.85563">
        <ele>1138.88</ele>
        <time>2025-04-15T14:49:55.332Z</time>
      </trkpt>
      <trkpt lat="44.86742" lon="3.85604">
        <ele>1139.95</ele>
        <time>2025-04-15T14:49:59.198Z</time>
      </trkpt>
      <trkpt lat="44.86752" lon="3.85644">
        <ele>1140.95</ele>
        <time>2025-04-15T14:50:03.069Z</time>
      </trkpt>
      <trkpt lat="44.86762" lon="3.85685">
        <ele>1141.96</ele>
        <time>2025-04-15T14:50:06.945Z</time>
      </trkpt>
      <trkpt lat="44.86771" lon="3.85725">
        <ele>1143.03</ele>
        <time>2025-04-15T14:50:10.826Z</time>
      </trkpt>
      <trkpt lat="44.86779" lon="3.85747">
        <ele>1144.03</ele>
        <time>2025-04-15T14:50:14.710Z</time>
      </trkpt>
      <trkpt lat="44.86786" lon="3.85768">
        <ele>1145.01</ele>
        <time>2025-04-15T14:50:18.596Z</time>
      </trkpt>
      <trkpt lat="44.86798" lon="3.85786">
        <ele>1145.94</ele>
        <time>2025-04-15T14:50:22.485Z</time>
      </trkpt>
      <trkpt lat="44.8681" lon="3.85805">
        <ele>1146.78</ele>
        <time>2025-04-15T14:50:26.377Z</time>
      </trkpt>
      <trkpt lat="44.86824" lon="3.85821">
        <ele>1147.5</ele>
        <time>2025-04-15T14:50:30.272Z</time>
      </trkpt>
      <trkpt lat="44.86838" lon="3.85837">
        <ele>1148.14</ele>
        <time>2025-04-15T14:50:34.170Z</time>
      </trkpt>
      <trkpt lat="44.86864" lon="3.85856">
        <ele>1148.66</ele>
        <time>2025-04-15T14:50:38.072Z</time>
      </trkpt>
      <trkpt lat="44.86884" lon="3.85865">
        <ele>1149.07</ele>
        <time>2025-04-15T14:50:41.978Z</time>
      </trkpt>
      <trkpt lat="44.86904" lon="3.85875">
        <ele>1149.37</ele>
        <time>2025-04-15T14:50:45.887Z</time>
      </trkpt>
      <trkpt lat="44.86924" lon="3.85884">
        <ele>1149.55</ele>
        <time>2025-04-15T14:50:49.799Z</time>
      </trkpt>
      <trkpt lat="44.86944" lon="3.85893">
        <ele>1149.49</ele>
        <time>2025-04-15T14:50:53.715Z</time>
      </trkpt>
      <trkpt lat="44.86965" lon="3.85901">
        <ele>1149.26</ele>
        <time>2025-04-15T14:50:57.634Z</time>
      </trkpt>
      <trkpt lat="44.86984" lon="3.85916">
        <ele>1148.91</ele>
        <time>2025-04-15T14:51:01.557Z</time>
      </trkpt>
      <trkpt lat="44.87001" lon="3.85944">
        <ele>1148.6</ele>
        <time>2025-04-15T14:51:05.484Z</time>
      </trkpt>
      <trkpt lat="44.87014" lon="3.85979">
        <ele>1148.21</ele>
        <time>2025-04-15T14:51:09.415Z</time>
      </trkpt>
      <trkpt lat="44.87027" lon="3.86013">
        <ele>1147.57</ele>
        <time>2025-04-15T14:51:13.351Z</time>
      </trkpt>
      <trkpt lat="44.8704" lon="3.86047">
        <ele>1146.69</ele>
        <time>2025-04-15T14:51:17.291Z</time>
      </trkpt>
      <trkpt lat="44.8705" lon="3.86086">
        <ele>1145.68</ele>
        <time>2025-04-15T14:51:21.236Z</time>
      </trkpt>
      <trkpt lat="44.87059" lon="3.86122">
        <ele>1144.5</ele>
        <time>2025-04-15T14:51:25.185Z</time>
      </trkpt>
      <trkpt lat="44.8708" lon="3.86148">
        <ele>1143.13</ele>
        <time>2025-04-15T14:51:29.139Z</time>
      </trkpt>
      <trkpt lat="44.87106" lon="3.86163">
        <ele>1141.76</ele>
        <time>2025-04-15T14:51:33.097Z</time>
      </trkpt>
      <trkpt lat="44.87125" lon="3.86163">
        <ele>1140.32</ele>
        <time>2025-04-15T14:51:37.058Z</time>
      </trkpt>
      <trkpt lat="44.87145" lon="3.86154">
        <ele>1138.78</ele>
        <time>2025-04-15T14:51:41.023Z</time>
      </trkpt>
      <trkpt lat="44.87161" lon="3.8615">
        <ele>1137.19</ele>
        <time>2025-04-15T14:51:44.990Z</time>
      </trkpt>
      <trkpt lat="44.87177" lon="3.86146">
        <ele>1135.56</ele>
        <time>2025-04-15T14:51:48.960Z</time>
      </trkpt>
      <trkpt lat="44.87194" lon="3.86139">
        <ele>1133.87</ele>
        <time>2025-04-15T14:51:52.933Z</time>
      </trkpt>
      <trkpt lat="44.87219" lon="3.8612">
        <ele>1132.06</ele>
        <time>2025-04-15T14:51:56.910Z</time>
      </trkpt>
      <trkpt lat="44.87243" lon="3.86101">
        <ele>1130.16</ele>
        <time>2025-04-15T14:52:00.892Z</time>
      </trkpt>
      <trkpt lat="44.87252" lon="3.86099">
        <ele>1128.35</ele>
        <time>2025-04-15T14:52:04.875Z</time>
      </trkpt>
      <trkpt lat="44.8728" lon="3.86114">
        <ele>1126.44</ele>
        <time>2025-04-15T14:52:08.863Z</time>
      </trkpt>
      <trkpt lat="44.87301" lon="3.86138">
        <ele>1124.55</ele>
        <time>2025-04-15T14:52:12.855Z</time>
      </trkpt>
      <trkpt lat="44.87323" lon="3.86163">
        <ele>1122.62</ele>
        <time>2025-04-15T14:52:16.852Z</time>
      </trkpt>
      <trkpt lat="44.87344" lon="3.86187">
        <ele>1120.72</ele>
        <time>2025-04-15T14:52:20.853Z</time>
      </trkpt>
      <trkpt lat="44.87366" lon="3.86212">
        <ele>1118.86</ele>
        <time>2025-04-15T14:52:24.859Z</time>
      </trkpt>
      <trkpt lat="44.87387" lon="3.86236">
        <ele>1117.07</ele>
        <time>2025-04-15T14:52:28.869Z</time>
      </trkpt>
      <trkpt lat="44.87402" lon="3.8626">
        <ele>1115.31</ele>
        <time>2025-04-15T14:52:32.883Z</time>
      </trkpt>
      <trkpt lat="44.87407" lon="3.86282">
        <ele>1113.58</ele>
        <time>2025-04-15T14:52:36.899Z</time>
      </trkpt>
      <trkpt lat="44.87411" lon="3.86305">
        <ele>1111.93</ele>
        <time>2025-04-15T14:52:40.918Z</time>
      </trkpt>
      <trkpt lat="44.87415" lon="3.86339">
        <ele>1110.32</ele>
        <time>2025-04-15T14:52:44.941Z</time>
      </trkpt>
      <trkpt lat="44.87418" lon="3.86372">
        <ele>1108.73</ele>
        <time>2025-04-15T14:52:48.968Z</time>
      </trkpt>
      <trkpt lat="44.87422" lon="3.86406">
        <ele>1107.14</ele>
        <time>2025-04-15T14:52:52.999Z</time>
      </trkpt>
      <trkpt lat="44.87426" lon="3.8644">
        <ele>1105.58</ele>
        <time>2025-04-15T14:52:57.033Z</time>
      </trkpt>
      <trkpt lat="44.87432" lon="3.8647">
        <ele>1104.06</ele>
        <time>2025-04-15T14:53:01.071Z</time>
      </trkpt>
      <trkpt lat="44.87441" lon="3.86487">
        <ele>1102.54</ele>
        <time>2025-04-15T14:53:05.111Z</time>
      </trkpt>
      <trkpt lat="44.87467" lon="3.86498">
        <ele>1101</ele>
        <time>2025-04-15T14:53:09.156Z</time>
      </trkpt>
      <trkpt lat="44.87482" lon="3.86509">
        <ele>1099.52</ele>
        <time>2025-04-15T14:53:13.203Z</time>
      </trkpt>
      <trkpt lat="44.87501" lon="3.86533">
        <ele>1098.03</ele>
        <time>2025-04-15T14:53:17.255Z</time>
      </trkpt>
      <trkpt lat="44.8752" lon="3.86557">
        <ele>1096.59</ele>
        <time>2025-04-15T14:53:21.311Z</time>
      </trkpt>
      <trkpt lat="44.8754" lon="3.86581">
        <ele>1095.2</ele>
        <time>2025-04-15T14:53:25.371Z</time>
      </trkpt>
      <trkpt lat="44.87559" lon="3.86609">
        <ele>1093.86</ele>
        <time>2025-04-15T14:53:29.435Z</time>
      </trkpt>
      <trkpt lat="44.87572" lon="3.86648">
        <ele>1092.54</ele>
        <time>2025-04-15T14:53:33.504Z</time>
      </trkpt>
      <trkpt lat="44.8758" lon="3.86672">
        <ele>1091.21</ele>
        <time>2025-04-15T14:53:37.576Z</time>
      </trkpt>
      <trkpt lat="44.87588" lon="3.86696">
        <ele>1089.89</ele>
        <time>2025-04-15T14:53:41.651Z</time>
      </trkpt>
      <trkpt lat="44.87595" lon="3.86721">
        <ele>1088.56</ele>
        <time>2025-04-15T14:53:45.729Z</time>
      </trkpt>
      <trkpt lat="44.87613" lon="3.86751">
        <ele>1087.2</ele>
        <time>2025-04-15T14:53:49.812Z</time>
      </trkpt>
      <trkpt lat="44.8763" lon="3.86769">
        <ele>1085.93</ele>
        <time>2025-04-15T14:53:53.898Z</time>
      </trkpt>
      <trkpt lat="44.87647" lon="3.86787">
        <ele>1084.7</ele>
        <time>2025-04-15T14:53:57.988Z</time>
      </trkpt>
      <trkpt lat="44.87673" lon="3.86805">
        <ele>1083.55</ele>
        <time>2025-04-15T14:54:02.082Z</time>
      </trkpt>
      <trkpt lat="44.877" lon="3.86823">
        <ele>1082.41</ele>
        <time>2025-04-15T14:54:06.181Z</time>
      </trkpt>
      <trkpt lat="44.87726" lon="3.8684">
        <ele>1081.22</ele>
        <time>2025-04-15T14:54:10.285Z</time>
      </trkpt>
      <trkpt lat="44.87753" lon="3.86858">
        <ele>1080.04</ele>
        <time>2025-04-15T14:54:14.393Z</time>
      </trkpt>
      <trkpt lat="44.87779" lon="3.86875">
        <ele>1078.82</ele>
        <time>2025-04-15T14:54:18.506Z</time>
      </trkpt>
      <trkpt lat="44.87806" lon="3.86893">
        <ele>1077.6</ele>
        <time>2025-04-15T14:54:22.624Z</time>
      </trkpt>
      <trkpt lat="44.87827" lon="3.86898">
        <ele>1076.44</ele>
        <time>2025-04-15T14:54:26.745Z</time>
      </trkpt>
      <trkpt lat="44.87849" lon="3.86903">
        <ele>1075.37</ele>
        <time>2025-04-15T14:54:30.870Z</time>
      </trkpt>
      <trkpt lat="44.87864" lon="3.86914">
        <ele>1074.37</ele>
        <time>2025-04-15T14:54:34.997Z</time>
      </trkpt>
      <trkpt lat="44.87883" lon="3.86944">
        <ele>1073.31</ele>
        <time>2025-04-15T14:54:39.129Z</time>
      </trkpt>
      <trkpt lat="44.87902" lon="3.86974">
        <ele>1072.15</ele>
        <time>2025-04-15T14:54:43.265Z</time>
      </trkpt>
      <trkpt lat="44.87921" lon="3.87004">
        <ele>1071</ele>
        <time>2025-04-15T14:54:47.406Z</time>
      </trkpt>
      <trkpt lat="44.8794" lon="3.87034">
        <ele>1069.87</ele>
        <time>2025-04-15T14:54:51.552Z</time>
      </trkpt>
      <trkpt lat="44.87959" lon="3.87064">
        <ele>1068.69</ele>
        <time>2025-04-15T14:54:55.702Z</time>
      </trkpt>
      <trkpt lat="44.87978" lon="3.87094">
        <ele>1067.51</ele>
        <time>2025-04-15T14:54:59.857Z</time>
      </trkpt>
      <trkpt lat="44.87997" lon="3.87124">
        <ele>1066.39</ele>
        <time>2025-04-15T14:55:04.016Z</time>
      </trkpt>
      <trkpt lat="44.88012" lon="3.87137">
        <ele>1065.3</ele>
        <time>2025-04-15T14:55:08.178Z</time>
      </trkpt>
      <trkpt lat="44.88036" lon="3.87146">
        <ele>1064.12</ele>
        <time>2025-04-15T14:55:12.344Z</time>
      </trkpt>
      <trkpt lat="44.88061" lon="3.87154">
        <ele>1062.91</ele>
        <time>2025-04-15T14:55:16.514Z</time>
      </trkpt>
      <trkpt lat="44.8808" lon="3.87169">
        <ele>1061.72</ele>
        <time>2025-04-15T14:55:20.688Z</time>
      </trkpt>
      <trkpt lat="44.88097" lon="3.87194">
        <ele>1060.54</ele>
        <time>2025-04-15T14:55:24.866Z</time>
      </trkpt>
      <trkpt lat="44.88115" lon="3.87218">
        <ele>1059.4</ele>
        <time>2025-04-15T14:55:29.048Z</time>
      </trkpt>
      <trkpt lat="44.88132" lon="3.87242">
        <ele>1058.22</ele>
        <time>2025-04-15T14:55:33.233Z</time>
      </trkpt>
      <trkpt lat="44.88149" lon="3.87266">
        <ele>1056.96</ele>
        <time>2025-04-15T14:55:37.422Z</time>
      </trkpt>
      <trkpt lat="44.88163" lon="3.87304">
        <ele>1055.61</ele>
        <time>2025-04-15T14:55:41.616Z</time>
      </trkpt>
      <trkpt lat="44.88177" lon="3.87341">
        <ele>1054.19</ele>
        <time>2025-04-15T14:55:45.815Z</time>
      </trkpt>
      <trkpt lat="44.88185" lon="3.87376">
        <ele>1052.76</ele>
        <time>2025-04-15T14:55:50.018Z</time>
      </trkpt>
      <trkpt lat="44.88193" lon="3.87411">
        <ele>1051.37</ele>
        <time>2025-04-15T14:55:54.225Z</time>
      </trkpt>
      <trkpt lat="44.882" lon="3.87446">
        <ele>1050.01</ele>
        <time>2025-04-15T14:55:58.437Z</time>
      </trkpt>
      <trkpt lat="44.88204" lon="3.87477">
        <ele>1048.66</ele>
        <time>2025-04-15T14:56:02.652Z</time>
      </trkpt>
      <trkpt lat="44.88208" lon="3.87508">
        <ele>1047.31</ele>
        <time>2025-04-15T14:56:06.871Z</time>
      </trkpt>
      <trkpt lat="44.88211" lon="3.87538">
        <ele>1045.97</ele>
        <time>2025-04-15T14:56:11.093Z</time>
      </trkpt>
      <trkpt lat="44.8822" lon="3.87558">
        <ele>1044.65</ele>
        <time>2025-04-15T14:56:15.318Z</time>
      </trkpt>
      <trkpt lat="44.88239" lon="3.87579">
        <ele>1043.34</ele>
        <time>2025-04-15T14:56:19.547Z</time>
      </trkpt>
      <trkpt lat="44.88258" lon="3.87601">
        <ele>1042.01</ele>
        <time>2025-04-15T14:56:23.780Z</time>
      </trkpt>
      <trkpt lat="44.88258" lon="3.87601">
        <ele>1040.8</ele>
        <time>2025-04-15T14:56:28.013Z</time>
      </trkpt>
      <trkpt lat="44.88276" lon="3.87616">
        <ele>1039.59</ele>
        <time>2025-04-15T14:56:32.249Z</time>
      </trkpt>
      <trkpt lat="44.88297" lon="3.87641">
        <ele>1038.34</ele>
        <time>2025-04-15T14:56:36.489Z</time>
      </trkpt>
      <trkpt lat="44.8832" lon="3.8767">
        <ele>1037.15</ele>
        <time>2025-04-15T14:56:40.734Z</time>
      </trkpt>
      <trkpt lat="44.88343" lon="3.87699">
        <ele>1035.98</ele>
        <time>2025-04-15T14:56:44.984Z</time>
      </trkpt>
      <trkpt lat="44.88366" lon="3.87727">
        <ele>1034.86</ele>
        <time>2025-04-15T14:56:49.239Z</time>
      </trkpt>
      <trkpt lat="44.88383" lon="3.87754">
        <ele>1033.86</ele>
        <time>2025-04-15T14:56:53.498Z</time>
      </trkpt>
      <trkpt lat="44.88401" lon="3.8778">
        <ele>1032.93</ele>
        <time>2025-04-15T14:56:57.761Z</time>
      </trkpt>
      <trkpt lat="44.88419" lon="3.87806">
        <ele>1032.04</ele>
        <time>2025-04-15T14:57:02.028Z</time>
      </trkpt>
      <trkpt lat="44.88437" lon="3.87832">
        <ele>1031.27</ele>
        <time>2025-04-15T14:57:06.300Z</time>
      </trkpt>
      <trkpt lat="44.88461" lon="3.8785">
        <ele>1030.66</ele>
        <time>2025-04-15T14:57:10.576Z</time>
      </trkpt>
      <trkpt lat="44.88486" lon="3.87867">
        <ele>1030.06</ele>
        <time>2025-04-15T14:57:14.856Z</time>
      </trkpt>
      <trkpt lat="44.88501" lon="3.87882">
        <ele>1029.47</ele>
        <time>2025-04-15T14:57:19.139Z</time>
      </trkpt>
      <trkpt lat="44.88519" lon="3.87917">
        <ele>1028.9</ele>
        <time>2025-04-15T14:57:23.427Z</time>
      </trkpt>
      <trkpt lat="44.88537" lon="3.87953">
        <ele>1028.47</ele>
        <time>2025-04-15T14:57:27.720Z</time>
      </trkpt>
      <trkpt lat="44.88556" lon="3.87979">
        <ele>1028.22</ele>
        <time>2025-04-15T14:57:32.017Z</time>
      </trkpt>
      <trkpt lat="44.88574" lon="3.88006">
        <ele>1028.07</ele>
        <time>2025-04-15T14:57:36.319Z</time>
      </trkpt>
      <trkpt lat="44.88593" lon="3.88014">
        <ele>1027.99</ele>
        <time>2025-04-15T14:57:40.624Z</time>
      </trkpt>
      <trkpt lat="44.88612" lon="3.88021">
        <ele>1027.91</ele>
        <time>2025-04-15T14:57:44.932Z</time>
      </trkpt>
      <trkpt lat="44.88627" lon="3.88035">
        <ele>1027.85</ele>
        <time>2025-04-15T14:57:49.243Z</time>
      </trkpt>
      <trkpt lat="44.88643" lon="3.88049">
        <ele>1027.81</ele>
        <time>2025-04-15T14:57:53.557Z</time>
      </trkpt>
      <trkpt lat="44.88664" lon="3.88053">
        <ele>1027.82</ele>
        <time>2025-04-15T14:57:57.874Z</time>
      </trkpt>
      <trkpt lat="44.88685" lon="3.88058">
        <ele>1027.9</ele>
        <time>2025-04-15T14:58:02.195Z</time>
      </trkpt>
      <trkpt lat="44.88705" lon="3.88068">
        <ele>1028.04</ele>
        <time>2025-04-15T14:58:06.519Z</time>
      </trkpt>
      <trkpt lat="44.88726" lon="3.88088">
        <ele>1028.08</ele>
        <time>2025-04-15T14:58:10.847Z</time>
      </trkpt>
      <trkpt lat="44.88743" lon="3.88114">
        <ele>1028.09</ele>
        <time>2025-04-15T14:58:15.179Z</time>
      </trkpt>
      <trkpt lat="44.88763" lon="3.88118">
        <ele>1028.14</ele>
        <time>2025-04-15T14:58:19.514Z</time>
      </trkpt>
      <trkpt lat="44.88784" lon="3.88099">
        <ele>1028.19</ele>
        <time>2025-04-15T14:58:23.853Z</time>
      </trkpt>
      <trkpt lat="44.88803" lon="3.88081">
        <ele>1028.17</ele>
        <time>2025-04-15T14:58:28.196Z</time>
      </trkpt>
      <trkpt lat="44.8881" lon="3.88077">
        <ele>1028.15</ele>
        <time>2025-04-15T14:58:32.540Z</time>
      </trkpt>
      <trkpt lat="44.88822" lon="3.88046">
        <ele>1028.12</ele>
        <time>2025-04-15T14:58:36.888Z</time>
      </trkpt>
      <trkpt lat="44.88833" lon="3.88015">
        <ele>1028.04</ele>
        <time>2025-04-15T14:58:41.240Z</time>
      </trkpt>
      <trkpt lat="44.88842" lon="3.87991">
        <ele>1027.95</ele>
        <time>2025-04-15T14:58:45.595Z</time>
      </trkpt>
      <trkpt lat="44.88851" lon="3.87962">
        <ele>1027.76</ele>
        <time>2025-04-15T14:58:49.954Z</time>
      </trkpt>
      <trkpt lat="44.88861" lon="3.87932">
        <ele>1027.48</ele>
        <time>2025-04-15T14:58:54.317Z</time>
      </trkpt>
      <trkpt lat="44.8887" lon="3.87903">
        <ele>1027.13</ele>
        <time>2025-04-15T14:58:58.683Z</time>
      </trkpt>
      <trkpt lat="44.88891" lon="3.87905">
        <ele>1026.67</ele>
        <time>2025-04-15T14:59:03.053Z</time>
      </trkpt>
      <trkpt lat="44.88919" lon="3.87899">
        <ele>1026.12</ele>
        <time>2025-04-15T14:59:07.427Z</time>
      </trkpt>
      <trkpt lat="44.88947" lon="3.87892">
        <ele>1025.54</ele>
        <time>2025-04-15T14:59:11.806Z</time>
      </trkpt>
      <trkpt lat="44.88974" lon="3.87885">
        <ele>1024.86</ele>
        <time>2025-04-15T14:59:16.189Z</time>
      </trkpt>
      <trkpt lat="44.89002" lon="3.87879">
        <ele>1024.16</ele>
        <time>2025-04-15T14:59:20.577Z</time>
      </trkpt>
      <trkpt lat="44.8903" lon="3.87872">
        <ele>1023.35</ele>
        <time>2025-04-15T14:59:24.969Z</time>
      </trkpt>
      <trkpt lat="44.89057" lon="3.87865">
        <ele>1022.45</ele>
        <time>2025-04-15T14:59:29.366Z</time>
      </trkpt>
      <trkpt lat="44.89085" lon="3.87859">
        <ele>1021.53</ele>
        <time>2025-04-15T14:59:33.767Z</time>
      </trkpt>
      <trkpt lat="44.89112" lon="3.87852">
        <ele>1020.65</ele>
        <time>2025-04-15T14:59:38.173Z</time>
      </trkpt>
      <trkpt lat="44.8914" lon="3.87845">
        <ele>1019.71</ele>
        <time>2025-04-15T14:59:42.583Z</time>
      </trkpt>
      <trkpt lat="44.89164" lon="3.87843">
        <ele>1018.66</ele>
        <time>2025-04-15T14:59:46.997Z</time>
      </trkpt>
      <trkpt lat="44.89188" lon="3.87841">
        <ele>1017.55</ele>
        <time>2025-04-15T14:59:51.415Z</time>
      </trkpt>
      <trkpt lat="44.89218" lon="3.87838">
        <ele>1016.36</ele>
        <time>2025-04-15T14:59:55.838Z</time>
      </trkpt>
      <trkpt lat="44.89248" lon="3.87836">
        <ele>1015.11</ele>
        <time>2025-04-15T15:00:00.265Z</time>
      </trkpt>
      <trkpt lat="44.89278" lon="3.87833">
        <ele>1013.8</ele>
        <time>2025-04-15T15:00:04.697Z</time>
      </trkpt>
      <trkpt lat="44.89309" lon="3.8783">
        <ele>1012.51</ele>
        <time>2025-04-15T15:00:09.134Z</time>
      </trkpt>
      <trkpt lat="44.89339" lon="3.87827">
        <ele>1011.15</ele>
        <time>2025-04-15T15:00:13.576Z</time>
      </trkpt>
      <trkpt lat="44.89369" lon="3.87824">
        <ele>1009.67</ele>
        <time>2025-04-15T15:00:18.023Z</time>
      </trkpt>
      <trkpt lat="44.894" lon="3.87822">
        <ele>1008.18</ele>
        <time>2025-04-15T15:00:22.475Z</time>
      </trkpt>
      <trkpt lat="44.89431" lon="3.87824">
        <ele>1006.72</ele>
        <time>2025-04-15T15:00:26.932Z</time>
      </trkpt>
      <trkpt lat="44.89462" lon="3.87827">
        <ele>1005.18</ele>
        <time>2025-04-15T15:00:31.394Z</time>
      </trkpt>
      <trkpt lat="44.89493" lon="3.87829">
        <ele>1003.66</ele>
        <time>2025-04-15T15:00:35.861Z</time>
      </trkpt>
      <trkpt lat="44.89524" lon="3.87832">
        <ele>1002.22</ele>
        <time>2025-04-15T15:00:40.333Z</time>
      </trkpt>
      <trkpt lat="44.89555" lon="3.87834">
        <ele>1000.72</ele>
        <time>2025-04-15T15:00:44.810Z</time>
      </trkpt>
      <trkpt lat="44.89587" lon="3.87837">
        <ele>999.13</ele>
        <time>2025-04-15T15:00:49.292Z</time>
      </trkpt>
      <trkpt lat="44.89615" lon="3.8784">
        <ele>997.6</ele>
        <time>2025-04-15T15:00:53.778Z</time>
      </trkpt>
      <trkpt lat="44.89642" lon="3.87844">
        <ele>996.14</ele>
        <time>2025-04-15T15:00:58.269Z</time>
      </trkpt>
      <trkpt lat="44.8967" lon="3.87848">
        <ele>994.73</ele>
        <time>2025-04-15T15:01:02.764Z</time>
      </trkpt>
      <trkpt lat="44.89698" lon="3.87852">
        <ele>993.26</ele>
        <time>2025-04-15T15:01:07.264Z</time>
      </trkpt>
      <trkpt lat="44.89722" lon="3.87856">
        <ele>991.77</ele>
        <time>2025-04-15T15:01:11.767Z</time>
      </trkpt>
      <trkpt lat="44.89744" lon="3.8787">
        <ele>990.28</ele>
        <time>2025-04-15T15:01:16.274Z</time>
      </trkpt>
      <trkpt lat="44.89766" lon="3.87883">
        <ele>988.76</ele>
        <time>2025-04-15T15:01:20.785Z</time>
      </trkpt>
      <trkpt lat="44.89788" lon="3.87897">
        <ele>987.21</ele>
        <time>2025-04-15T15:01:25.300Z</time>
      </trkpt>
      <trkpt lat="44.89816" lon="3.87903">
        <ele>985.6</ele>
        <time>2025-04-15T15:01:29.820Z</time>
      </trkpt>
      <trkpt lat="44.89844" lon="3.87897">
        <ele>984.1</ele>
        <time>2025-04-15T15:01:34.344Z</time>
      </trkpt>
      <trkpt lat="44.89874" lon="3.87884">
        <ele>982.63</ele>
        <time>2025-04-15T15:01:38.873Z</time>
      </trkpt>
      <trkpt lat="44.89881" lon="3.87878">
        <ele>981.28</ele>
        <time>2025-04-15T15:01:43.403Z</time>
      </trkpt>
      <trkpt lat="44.89889" lon="3.87865">
        <ele>979.98</ele>
        <time>2025-04-15T15:01:47.935Z</time>
      </trkpt>
      <trkpt lat="44.89902" lon="3.87835">
        <ele>978.69</ele>
        <time>2025-04-15T15:01:52.471Z</time>
      </trkpt>
      <trkpt lat="44.899" lon="3.87805">
        <ele>977.39</ele>
        <time>2025-04-15T15:01:57.011Z</time>
      </trkpt>
      <trkpt lat="44.89891" lon="3.87779">
        <ele>976.11</ele>
        <time>2025-04-15T15:02:01.554Z</time>
      </trkpt>
      <trkpt lat="44.89873" lon="3.87751">
        <ele>974.97</ele>
        <time>2025-04-15T15:02:06.101Z</time>
      </trkpt>
      <trkpt lat="44.89855" lon="3.87723">
        <ele>973.96</ele>
        <time>2025-04-15T15:02:10.653Z</time>
      </trkpt>
      <trkpt lat="44.89838" lon="3.87692">
        <ele>972.8</ele>
        <time>2025-04-15T15:02:15.209Z</time>
      </trkpt>
      <trkpt lat="44.8982" lon="3.8766">
        <ele>971.59</ele>
        <time>2025-04-15T15:02:19.770Z</time>
      </trkpt>
      <trkpt lat="44.89803" lon="3.87629">
        <ele>970.46</ele>
        <time>2025-04-15T15:02:24.335Z</time>
      </trkpt>
      <trkpt lat="44.89795" lon="3.87596">
        <ele>969.43</ele>
        <time>2025-04-15T15:02:28.904Z</time>
      </trkpt>
      <trkpt lat="44.89793" lon="3.87569">
        <ele>968.67</ele>
        <time>2025-04-15T15:02:33.476Z</time>
      </trkpt>
      <trkpt lat="44.89799" lon="3.87538">
        <ele>968.03</ele>
        <time>2025-04-15T15:02:38.052Z</time>
      </trkpt>
      <trkpt lat="44.89806" lon="3.87508">
        <ele>967.62</ele>
        <time>2025-04-15T15:02:42.631Z</time>
      </trkpt>
      <trkpt lat="44.89821" lon="3.87487">
        <ele>967.34</ele>
        <time>2025-04-15T15:02:47.214Z</time>
      </trkpt>
      <trkpt lat="44.89842" lon="3.87474">
        <ele>967.29</ele>
        <time>2025-04-15T15:02:51.801Z</time>
      </trkpt>
      <trkpt lat="44.89861" lon="3.87472">
        <ele>967.36</ele>
        <time>2025-04-15T15:02:56.391Z</time>
      </trkpt>
      <trkpt lat="44.89881" lon="3.87476">
        <ele>967.46</ele>
        <time>2025-04-15T15:03:00.984Z</time>
      </trkpt>
      <trkpt lat="44.89901" lon="3.87486">
        <ele>967.61</ele>
        <time>2025-04-15T15:03:05.580Z</time>
      </trkpt>
      <trkpt lat="44.89922" lon="3.87496">
        <ele>967.88</ele>
        <time>2025-04-15T15:03:10.180Z</time>
      </trkpt>
      <trkpt lat="44.89943" lon="3.87506">
        <ele>968.25</ele>
        <time>2025-04-15T15:03:14.783Z</time>
      </trkpt>
      <trkpt lat="44.89971" lon="3.87511">
        <ele>968.86</ele>
        <time>2025-04-15T15:03:19.391Z</time>
      </trkpt>
      <trkpt lat="44.89988" lon="3.87508">
        <ele>969.55</ele>
        <time>2025-04-15T15:03:24.002Z</time>
      </trkpt>
      <trkpt lat="44.90001" lon="3.87496">
        <ele>970.31</ele>
        <time>2025-04-15T15:03:28.615Z</time>
      </trkpt>
      <trkpt lat="44.90012" lon="3.87478">
        <ele>971.15</ele>
        <time>2025-04-15T15:03:33.231Z</time>
      </trkpt>
      <trkpt lat="44.90022" lon="3.87441">
        <ele>972.01</ele>
        <time>2025-04-15T15:03:37.851Z</time>
      </trkpt>
      <trkpt lat="44.90032" lon="3.87403">
        <ele>972.88</ele>
        <time>2025-04-15T15:03:42.476Z</time>
      </trkpt>
      <trkpt lat="44.90042" lon="3.87365">
        <ele>973.79</ele>
        <time>2025-04-15T15:03:47.106Z</time>
      </trkpt>
      <trkpt lat="44.90053" lon="3.87327">
        <ele>974.79</ele>
        <time>2025-04-15T15:03:51.740Z</time>
      </trkpt>
      <trkpt lat="44.90063" lon="3.8729">
        <ele>975.89</ele>
        <time>2025-04-15T15:03:56.379Z</time>
      </trkpt>
      <trkpt lat="44.90074" lon="3.87261">
        <ele>976.81</ele>
        <time>2025-04-15T15:04:01.021Z</time>
      </trkpt>
      <trkpt lat="44.90084" lon="3.87232">
        <ele>977.71</ele>
        <time>2025-04-15T15:04:05.667Z</time>
      </trkpt>
      <trkpt lat="44.901" lon="3.87199">
        <ele>978.68</ele>
        <time>2025-04-15T15:04:10.318Z</time>
      </trkpt>
      <trkpt lat="44.90115" lon="3.87166">
        <ele>979.6</ele>
        <time>2025-04-15T15:04:14.973Z</time>
      </trkpt>
      <trkpt lat="44.90131" lon="3.87134">
        <ele>980.51</ele>
        <time>2025-04-15T15:04:19.632Z</time>
      </trkpt>
      <trkpt lat="44.90146" lon="3.87101">
        <ele>981.38</ele>
        <time>2025-04-15T15:04:24.296Z</time>
      </trkpt>
      <trkpt lat="44.90161" lon="3.87069">
        <ele>982.13</ele>
        <time>2025-04-15T15:04:28.964Z</time>
      </trkpt>
      <trkpt lat="44.90177" lon="3.87036">
        <ele>982.89</ele>
        <time>2025-04-15T15:04:33.637Z</time>
      </trkpt>
      <trkpt lat="44.90183" lon="3.87011">
        <ele>983.64</ele>
        <time>2025-04-15T15:04:38.313Z</time>
      </trkpt>
      <trkpt lat="44.9019" lon="3.86985">
        <ele>984.36</ele>
        <time>2025-04-15T15:04:42.992Z</time>
      </trkpt>
      <trkpt lat="44.90192" lon="3.86946">
        <ele>985.02</ele>
        <time>2025-04-15T15:04:47.675Z</time>
      </trkpt>
      <trkpt lat="44.9019" lon="3.86919">
        <ele>985.64</ele>
        <time>2025-04-15T15:04:52.362Z</time>
      </trkpt>
      <trkpt lat="44.90187" lon="3.86893">
        <ele>986.16</ele>
        <time>2025-04-15T15:04:57.052Z</time>
      </trkpt>
      <trkpt lat="44.90192" lon="3.86865">
        <ele>986.61</ele>
        <time>2025-04-15T15:05:01.745Z</time>
      </trkpt>
      <trkpt lat="44.90198" lon="3.8685">
        <ele>986.96</ele>
        <time>2025-04-15T15:05:06.440Z</time>
      </trkpt>
      <trkpt lat="44.90218" lon="3.8683">
        <ele>987.28</ele>
        <time>2025-04-15T15:05:11.139Z</time>
      </trkpt>
      <trkpt lat="44.90246" lon="3.86818">
        <ele>987.43</ele>
        <time>2025-04-15T15:05:15.842Z</time>
      </trkpt>
      <trkpt lat="44.90275" lon="3.86805">
        <ele>987.63</ele>
        <time>2025-04-15T15:05:20.550Z</time>
      </trkpt>
      <trkpt lat="44.9029" lon="3.86805">
        <ele>987.78</ele>
        <time>2025-04-15T15:05:25.261Z</time>
      </trkpt>
      <trkpt lat="44.90315" lon="3.86814">
        <ele>987.82</ele>
        <time>2025-04-15T15:05:29.976Z</time>
      </trkpt>
      <trkpt lat="44.9034" lon="3.86824">
        <ele>987.81</ele>
        <time>2025-04-15T15:05:34.695Z</time>
      </trkpt>
      <trkpt lat="44.90351" lon="3.86835">
        <ele>987.72</ele>
        <time>2025-04-15T15:05:39.416Z</time>
      </trkpt>
      <trkpt lat="44.90368" lon="3.86854">
        <ele>987.58</ele>
        <time>2025-04-15T15:05:44.141Z</time>
      </trkpt>
      <trkpt lat="44.90387" lon="3.86884">
        <ele>987.35</ele>
        <time>2025-04-15T15:05:48.870Z</time>
      </trkpt>
      <trkpt lat="44.90406" lon="3.86914">
        <ele>987.03</ele>
        <time>2025-04-15T15:05:53.604Z</time>
      </trkpt>
      <trkpt lat="44.90426" lon="3.86944">
        <ele>986.7</ele>
        <time>2025-04-15T15:05:58.342Z</time>
      </trkpt>
      <trkpt lat="44.90442" lon="3.86967">
        <ele>986.34</ele>
        <time>2025-04-15T15:06:03.084Z</time>
      </trkpt>
      <trkpt lat="44.90458" lon="3.86989">
        <ele>985.93</ele>
        <time>2025-04-15T15:06:07.830Z</time>
      </trkpt>
      <trkpt lat="44.90472" lon="3.87008">
        <ele>985.5</ele>
        <time>2025-04-15T15:06:12.579Z</time>
      </trkpt>
      <trkpt lat="44.90486" lon="3.87028">
        <ele>985.06</ele>
        <time>2025-04-15T15:06:17.331Z</time>
      </trkpt>
      <trkpt lat="44.90508" lon="3.87051">
        <ele>984.56</ele>
        <time>2025-04-15T15:06:22.087Z</time>
      </trkpt>
      <trkpt lat="44.90531" lon="3.87075">
        <ele>984.07</ele>
        <time>2025-04-15T15:06:26.848Z</time>
      </trkpt>
      <trkpt lat="44.9055" lon="3.87092">
        <ele>983.61</ele>
        <time>2025-04-15T15:06:31.613Z</time>
      </trkpt>
      <trkpt lat="44.90569" lon="3.87109">
        <ele>983.19</ele>
        <time>2025-04-15T15:06:36.381Z</time>
      </trkpt>
      <trkpt lat="44.90589" lon="3.87126">
        <ele>982.78</ele>
        <time>2025-04-15T15:06:41.153Z</time>
      </trkpt>
      <trkpt lat="44.90606" lon="3.87139">
        <ele>982.41</ele>
        <time>2025-04-15T15:06:45.928Z</time>
      </trkpt>
      <trkpt lat="44.90628" lon="3.87151">
        <ele>982.05</ele>
        <time>2025-04-15T15:06:50.707Z</time>
      </trkpt>
      <trkpt lat="44.9065" lon="3.87162">
        <ele>981.63</ele>
        <time>2025-04-15T15:06:55.490Z</time>
      </trkpt>
      <trkpt lat="44.90672" lon="3.87174">
        <ele>981.24</ele>
        <time>2025-04-15T15:07:00.276Z</time>
      </trkpt>
      <trkpt lat="44.90701" lon="3.87185">
        <ele>980.95</ele>
        <time>2025-04-15T15:07:05.067Z</time>
      </trkpt>
      <trkpt lat="44.9073" lon="3.87196">
        <ele>980.71</ele>
        <time>2025-04-15T15:07:09.863Z</time>
      </trkpt>
      <trkpt lat="44.90759" lon="3.87207">
        <ele>980.44</ele>
        <time>2025-04-15T15:07:14.664Z</time>
      </trkpt>
      <trkpt lat="44.90788" lon="3.87219">
        <ele>980.15</ele>
        <time>2025-04-15T15:07:19.470Z</time>
      </trkpt>
      <trkpt lat="44.90815" lon="3.87222">
        <ele>979.93</ele>
        <time>2025-04-15T15:07:24.280Z</time>
      </trkpt>
      <trkpt lat="44.90843" lon="3.87226">
        <ele>979.81</ele>
        <time>2025-04-15T15:07:29.094Z</time>
      </trkpt>
      <trkpt lat="44.9087" lon="3.87229">
        <ele>979.77</ele>
        <time>2025-04-15T15:07:33.913Z</time>
      </trkpt>
      <trkpt lat="44.90894" lon="3.87241">
        <ele>979.61</ele>
        <time>2025-04-15T15:07:38.736Z</time>
      </trkpt>
      <trkpt lat="44.90918" lon="3.87253">
        <ele>979.42</ele>
        <time>2025-04-15T15:07:43.563Z</time>
      </trkpt>
      <trkpt lat="44.90942" lon="3.87265">
        <ele>979.3</ele>
        <time>2025-04-15T15:07:48.394Z</time>
      </trkpt>
      <trkpt lat="44.90966" lon="3.87277">
        <ele>979.29</ele>
        <time>2025-04-15T15:07:53.229Z</time>
      </trkpt>
      <trkpt lat="44.90997" lon="3.87286">
        <ele>979.33</ele>
        <time>2025-04-15T15:07:58.069Z</time>
      </trkpt>
      <trkpt lat="44.91027" lon="3.87295">
        <ele>979.3</ele>
        <time>2025-04-15T15:08:02.914Z</time>
      </trkpt>
      <trkpt lat="44.91058" lon="3.87305">
        <ele>979.27</ele>
        <time>2025-04-15T15:08:07.764Z</time>
      </trkpt>
      <trkpt lat="44.91089" lon="3.87314">
        <ele>979.14</ele>
        <time>2025-04-15T15:08:12.619Z</time>
      </trkpt>
      <trkpt lat="44.91119" lon="3.87324">
        <ele>979.05</ele>
        <time>2025-04-15T15:08:17.479Z</time>
      </trkpt>
      <trkpt lat="44.9115" lon="3.87333">
        <ele>978.92</ele>
        <time>2025-04-15T15:08:22.344Z</time>
      </trkpt>
      <trkpt lat="44.9118" lon="3.87342">
        <ele>978.81</ele>
        <time>2025-04-15T15:08:27.214Z</time>
      </trkpt>
      <trkpt lat="44.91211" lon="3.87352">
        <ele>978.7</ele>
        <time>2025-04-15T15:08:32.089Z</time>
      </trkpt>
      <trkpt lat="44.91241" lon="3.87358">
        <ele>978.6</ele>
        <time>2025-04-15T15:08:36.969Z</time>
      </trkpt>
      <trkpt lat="44.91271" lon="3.87365">
        <ele>978.52</ele>
        <time>2025-04-15T15:08:41.854Z</time>
      </trkpt>
      <trkpt lat="44.91301" lon="3.87371">
        <ele>978.4</ele>
        <time>2025-04-15T15:08:46.744Z</time>
      </trkpt>
      <trkpt lat="44.91331" lon="3.87378">
        <ele>978.29</ele>
        <time>2025-04-15T15:08:51.639Z</time>
      </trkpt>
      <trkpt lat="44.91362" lon="3.87385">
        <ele>978.16</ele>
        <time>2025-04-15T15:08:56.538Z</time>
      </trkpt>
      <trkpt lat="44.91392" lon="3.87393">
        <ele>978.02</ele>
        <time>2025-04-15T15:09:01.442Z</time>
      </trkpt>
      <trkpt lat="44.91423" lon="3.874">
        <ele>977.91</ele>
        <time>2025-04-15T15:09:06.351Z</time>
      </trkpt>
      <trkpt lat="44.91453" lon="3.87408">
        <ele>977.92</ele>
        <time>2025-04-15T15:09:11.265Z</time>
      </trkpt>
      <trkpt lat="44.91473" lon="3.87416">
        <ele>977.91</ele>
        <time>2025-04-15T15:09:16.183Z</time>
      </trkpt>
      <trkpt lat="44.91492" lon="3.87425">
        <ele>977.92</ele>
        <time>2025-04-15T15:09:21.104Z</time>
      </trkpt>
      <trkpt lat="44.91522" lon="3.87435">
        <ele>977.99</ele>
        <time>2025-04-15T15:09:26.030Z</time>
      </trkpt>
      <trkpt lat="44.91553" lon="3.87445">
        <ele>978.15</ele>
        <time>2025-04-15T15:09:30.961Z</time>
      </trkpt>
      <trkpt lat="44.91583" lon="3.87455">
        <ele>978.29</ele>
        <time>2025-04-15T15:09:35.897Z</time>
      </trkpt>
      <trkpt lat="44.91614" lon="3.87465">
        <ele>978.38</ele>
        <time>2025-04-15T15:09:40.838Z</time>
      </trkpt>
      <trkpt lat="44.91644" lon="3.87475">
        <ele>978.64</ele>
        <time>2025-04-15T15:09:45.784Z</time>
      </trkpt>
      <trkpt lat="44.91674" lon="3.87485">
        <ele>978.99</ele>
        <time>2025-04-15T15:09:50.735Z</time>
      </trkpt>
      <trkpt lat="44.91705" lon="3.87495">
        <ele>979.28</ele>
        <time>2025-04-15T15:09:55.691Z</time>
      </trkpt>
      <trkpt lat="44.91735" lon="3.87505">
        <ele>979.66</ele>
        <time>2025-04-15T15:10:00.652Z</time>
      </trkpt>
      <trkpt lat="44.91765" lon="3.87515">
        <ele>980.08</ele>
        <time>2025-04-15T15:10:05.618Z</time>
      </trkpt>
      <trkpt lat="44.91796" lon="3.87525">
        <ele>980.52</ele>
        <time>2025-04-15T15:10:10.589Z</time>
      </trkpt>
      <trkpt lat="44.91826" lon="3.87535">
        <ele>980.98</ele>
        <time>2025-04-15T15:10:15.565Z</time>
      </trkpt>
      <trkpt lat="44.91857" lon="3.87545">
        <ele>981.55</ele>
        <time>2025-04-15T15:10:20.546Z</time>
      </trkpt>
      <trkpt lat="44.91887" lon="3.87555">
        <ele>982.21</ele>
        <time>2025-04-15T15:10:25.532Z</time>
      </trkpt>
      <trkpt lat="44.91918" lon="3.87564">
        <ele>982.88</ele>
        <time>2025-04-15T15:10:30.523Z</time>
      </trkpt>
      <trkpt lat="44.91949" lon="3.87574">
        <ele>983.62</ele>
        <time>2025-04-15T15:10:35.519Z</time>
      </trkpt>
      <trkpt lat="44.91979" lon="3.87584">
        <ele>984.38</ele>
        <time>2025-04-15T15:10:40.520Z</time>
      </trkpt>
      <trkpt lat="44.92007" lon="3.87592">
        <ele>985.16</ele>
        <time>2025-04-15T15:10:45.525Z</time>
      </trkpt>
      <trkpt lat="44.92035" lon="3.87601">
        <ele>985.83</ele>
        <time>2025-04-15T15:10:50.535Z</time>
      </trkpt>
      <trkpt lat="44.92063" lon="3.8761">
        <ele>986.49</ele>
        <time>2025-04-15T15:10:55.550Z</time>
      </trkpt>
      <trkpt lat="44.92091" lon="3.87619">
        <ele>987.06</ele>
        <time>2025-04-15T15:11:00.569Z</time>
      </trkpt>
      <trkpt lat="44.92119" lon="3.87628">
        <ele>987.51</ele>
        <time>2025-04-15T15:11:05.593Z</time>
      </trkpt>
      <trkpt lat="44.92147" lon="3.87637">
        <ele>987.91</ele>
        <time>2025-04-15T15:11:10.621Z</time>
      </trkpt>
      <trkpt lat="44.92165" lon="3.87643">
        <ele>988.22</ele>
        <time>2025-04-15T15:11:15.652Z</time>
      </trkpt>
      <trkpt lat="44.92183" lon="3.87648">
        <ele>988.43</ele>
        <time>2025-04-15T15:11:20.686Z</time>
      </trkpt>
      <trkpt lat="44.92183" lon="3.87648">
        <ele>988.58</ele>
        <time>2025-04-15T15:11:25.720Z</time>
      </trkpt>
      <trkpt lat="44.92213" lon="3.87657">
        <ele>988.52</ele>
        <time>2025-04-15T15:11:30.759Z</time>
      </trkpt>
      <trkpt lat="44.9224" lon="3.8766">
        <ele>988.45</ele>
        <time>2025-04-15T15:11:35.803Z</time>
      </trkpt>
      <trkpt lat="44.92267" lon="3.87664">
        <ele>988.37</ele>
        <time>2025-04-15T15:11:40.851Z</time>
      </trkpt>
      <trkpt lat="44.92295" lon="3.87667">
        <ele>988.27</ele>
        <time>2025-04-15T15:11:45.903Z</time>
      </trkpt>
      <trkpt lat="44.92325" lon="3.87676">
        <ele>987.99</ele>
        <time>2025-04-15T15:11:50.960Z</time>
      </trkpt>
      <trkpt lat="44.92356" lon="3.87685">
        <ele>987.61</ele>
        <time>2025-04-15T15:11:56.022Z</time>
      </trkpt>
      <trkpt lat="44.92386" lon="3.87695">
        <ele>987.13</ele>
        <time>2025-04-15T15:12:01.089Z</time>
      </trkpt>
      <trkpt lat="44.92417" lon="3.87704">
        <ele>986.54</ele>
        <time>2025-04-15T15:12:06.161Z</time>
      </trkpt>
      <trkpt lat="44.92447" lon="3.87707">
        <ele>985.87</ele>
        <time>2025-04-15T15:12:11.238Z</time>
      </trkpt>
      <trkpt lat="44.92478" lon="3.8771">
        <ele>985.22</ele>
        <time>2025-04-15T15:12:16.320Z</time>
      </trkpt>
      <trkpt lat="44.92509" lon="3.87713">
        <ele>984.55</ele>
        <time>2025-04-15T15:12:21.407Z</time>
      </trkpt>
      <trkpt lat="44.92539" lon="3.87717">
        <ele>983.8</ele>
        <time>2025-04-15T15:12:26.499Z</time>
      </trkpt>
      <trkpt lat="44.9257" lon="3.87723">
        <ele>982.97</ele>
        <time>2025-04-15T15:12:31.596Z</time>
      </trkpt>
      <trkpt lat="44.926" lon="3.87729">
        <ele>982.1</ele>
        <time>2025-04-15T15:12:36.698Z</time>
      </trkpt>
      <trkpt lat="44.9263" lon="3.87735">
        <ele>981.26</ele>
        <time>2025-04-15T15:12:41.805Z</time>
      </trkpt>
      <trkpt lat="44.92661" lon="3.87741">
        <ele>980.39</ele>
        <time>2025-04-15T15:12:46.917Z</time>
      </trkpt>
      <trkpt lat="44.92691" lon="3.87747">
        <ele>979.52</ele>
        <time>2025-04-15T15:12:52.033Z</time>
      </trkpt>
      <trkpt lat="44.92721" lon="3.87753">
        <ele>978.64</ele>
        <time>2025-04-15T15:12:57.154Z</time>
      </trkpt>
      <trkpt lat="44.92752" lon="3.87759">
        <ele>977.68</ele>
        <time>2025-04-15T15:13:02.280Z</time>
      </trkpt>
      <trkpt lat="44.92777" lon="3.87762">
        <ele>976.73</ele>
        <time>2025-04-15T15:13:07.410Z</time>
      </trkpt>
      <trkpt lat="44.92803" lon="3.87765">
        <ele>975.79</ele>
        <time>2025-04-15T15:13:12.545Z</time>
      </trkpt>
      <trkpt lat="44.92829" lon="3.87768">
        <ele>974.85</ele>
        <time>2025-04-15T15:13:17.684Z</time>
      </trkpt>
      <trkpt lat="44.92855" lon="3.87771">
        <ele>973.84</ele>
        <time>2025-04-15T15:13:22.827Z</time>
      </trkpt>
      <trkpt lat="44.9288" lon="3.87775">
        <ele>972.8</ele>
        <time>2025-04-15T15:13:27.974Z</time>
      </trkpt>
      <trkpt lat="44.92911" lon="3.87781">
        <ele>971.77</ele>
        <time>2025-04-15T15:13:33.126Z</time>
      </trkpt>
      <trkpt lat="44.92941" lon="3.87788">
        <ele>970.73</ele>
        <time>2025-04-15T15:13:38.283Z</time>
      </trkpt>
      <trkpt lat="44.92972" lon="3.87795">
        <ele>969.71</ele>
        <time>2025-04-15T15:13:43.445Z</time>
      </trkpt>
      <trkpt lat="44.93002" lon="3.87802">
        <ele>968.76</ele>
        <time>2025-04-15T15:13:48.612Z</time>
      </trkpt>
      <trkpt lat="44.93032" lon="3.87808">
        <ele>967.94</ele>
        <time>2025-04-15T15:13:53.784Z</time>
      </trkpt>
      <trkpt lat="44.93063" lon="3.87815">
        <ele>967.12</ele>
        <time>2025-04-15T15:13:58.960Z</time>
      </trkpt>
      <trkpt lat="44.93093" lon="3.87822">
        <ele>966.16</ele>
        <time>2025-04-15T15:14:04.141Z</time>
      </trkpt>
      <trkpt lat="44.93116" lon="3.87824">
        <ele>965.21</ele>
        <time>2025-04-15T15:14:09.326Z</time>
      </trkpt>
      <trkpt lat="44.93139" lon="3.87826">
        <ele>964.31</ele>
        <time>2025-04-15T15:14:14.515Z</time>
      </trkpt>
      <trkpt lat="44.93161" lon="3.87828">
        <ele>963.45</ele>
        <time>2025-04-15T15:14:19.707Z</time>
      </trkpt>
      <trkpt lat="44.93187" lon="3.87823">
        <ele>962.62</ele>
        <time>2025-04-15T15:14:24.904Z</time>
      </trkpt>
      <trkpt lat="44.93213" lon="3.87818">
        <ele>961.9</ele>
        <time>2025-04-15T15:14:30.105Z</time>
      </trkpt>
      <trkpt lat="44.93239" lon="3.87813">
        <ele>961.17</ele>
        <time>2025-04-15T15:14:35.310Z</time>
      </trkpt>
      <trkpt lat="44.9326" lon="3.87808">
        <ele>960.34</ele>
        <time>2025-04-15T15:14:40.518Z</time>
      </trkpt>
      <trkpt lat="44.93282" lon="3.87802">
        <ele>959.53</ele>
        <time>2025-04-15T15:14:45.730Z</time>
      </trkpt>
      <trkpt lat="44.9329" lon="3.87805">
        <ele>958.8</ele>
        <time>2025-04-15T15:14:50.943Z</time>
      </trkpt>
      <trkpt lat="44.93314" lon="3.87809">
        <ele>957.94</ele>
        <time>2025-04-15T15:14:56.160Z</time>
      </trkpt>
      <trkpt lat="44.93341" lon="3.87821">
        <ele>957.16</ele>
        <time>2025-04-15T15:15:01.382Z</time>
      </trkpt>
      <trkpt lat="44.93367" lon="3.87834">
        <ele>956.48</ele>
        <time>2025-04-15T15:15:06.608Z</time>
      </trkpt>
      <trkpt lat="44.93394" lon="3.87846">
        <ele>955.88</ele>
        <time>2025-04-15T15:15:11.839Z</time>
      </trkpt>
      <trkpt lat="44.93421" lon="3.87858">
        <ele>955.27</ele>
        <time>2025-04-15T15:15:17.074Z</time>
      </trkpt>
      <trkpt lat="44.93428" lon="3.87862">
        <ele>954.67</ele>
        <time>2025-04-15T15:15:22.310Z</time>
      </trkpt>
      <trkpt lat="44.93447" lon="3.87873">
        <ele>954.08</ele>
        <time>2025-04-15T15:15:27.550Z</time>
      </trkpt>
      <trkpt lat="44.93466" lon="3.87884">
        <ele>953.48</ele>
        <time>2025-04-15T15:15:32.793Z</time>
      </trkpt>
      <trkpt lat="44.93479" lon="3.87914">
        <ele>952.85</ele>
        <time>2025-04-15T15:15:38.040Z</time>
      </trkpt>
      <trkpt lat="44.93483" lon="3.8794">
        <ele>952.21</ele>
        <time>2025-04-15T15:15:43.290Z</time>
      </trkpt>
      <trkpt lat="44.93483" lon="3.8794">
        <ele>951.62</ele>
        <time>2025-04-15T15:15:48.540Z</time>
      </trkpt>
      <trkpt lat="44.9349" lon="3.87969">
        <ele>950.96</ele>
        <time>2025-04-15T15:15:53.793Z</time>
      </trkpt>
      <trkpt lat="44.93496" lon="3.87998">
        <ele>950.27</ele>
        <time>2025-04-15T15:15:59.050Z</time>
      </trkpt>
      <trkpt lat="44.93495" lon="3.8802">
        <ele>949.57</ele>
        <time>2025-04-15T15:16:04.309Z</time>
      </trkpt>
      <trkpt lat="44.93494" lon="3.88043">
        <ele>948.83</ele>
        <time>2025-04-15T15:16:09.571Z</time>
      </trkpt>
      <trkpt lat="44.93512" lon="3.88057">
        <ele>948.04</ele>
        <time>2025-04-15T15:16:14.836Z</time>
      </trkpt>
      <trkpt lat="44.93531" lon="3.88071">
        <ele>947.19</ele>
        <time>2025-04-15T15:16:20.105Z</time>
      </trkpt>
      <trkpt lat="44.93552" lon="3.88081">
        <ele>946.33</ele>
        <time>2025-04-15T15:16:25.377Z</time>
      </trkpt>
      <trkpt lat="44.93558" lon="3.88081">
        <ele>945.46</ele>
        <time>2025-04-15T15:16:30.650Z</time>
      </trkpt>
      <trkpt lat="44.93584" lon="3.88086">
        <ele>944.52</ele>
        <time>2025-04-15T15:16:35.927Z</time>
      </trkpt>
      <trkpt lat="44.93589" lon="3.88081">
        <ele>943.53</ele>
        <time>2025-04-15T15:16:41.205Z</time>
      </trkpt>
      <trkpt lat="44.93599" lon="3.88075">
        <ele>942.46</ele>
        <time>2025-04-15T15:16:46.485Z</time>
      </trkpt>
      <trkpt lat="44.93608" lon="3.88073">
        <ele>941.3</ele>
        <time>2025-04-15T15:16:51.767Z</time>
      </trkpt>
      <trkpt lat="44.93622" lon="3.88086">
        <ele>940.02</ele>
        <time>2025-04-15T15:16:57.051Z</time>
      </trkpt>
      <trkpt lat="44.93636" lon="3.88099">
        <ele>938.64</ele>
        <time>2025-04-15T15:17:02.338Z</time>
      </trkpt>
      <trkpt lat="44.93656" lon="3.88126">
        <ele>937.1</ele>
        <time>2025-04-15T15:17:07.629Z</time>
      </trkpt>
      <trkpt lat="44.93676" lon="3.88153">
        <ele>935.54</ele>
        <time>2025-04-15T15:17:12.925Z</time>
      </trkpt>
      <trkpt lat="44.93696" lon="3.8818">
        <ele>933.86</ele>
        <time>2025-04-15T15:17:18.225Z</time>
      </trkpt>
      <trkpt lat="44.93711" lon="3.88199">
        <ele>932.18</ele>
        <time>2025-04-15T15:17:23.528Z</time>
      </trkpt>
      <trkpt lat="44.93726" lon="3.88219">
        <ele>930.41</ele>
        <time>2025-04-15T15:17:28.835Z</time>
      </trkpt>
      <trkpt lat="44.93748" lon="3.88249">
        <ele>928.54</ele>
        <time>2025-04-15T15:17:34.147Z</time>
      </trkpt>
      <trkpt lat="44.93771" lon="3.88279">
        <ele>926.57</ele>
        <time>2025-04-15T15:17:39.464Z</time>
      </trkpt>
      <trkpt lat="44.93793" lon="3.8831">
        <ele>924.54</ele>
        <time>2025-04-15T15:17:44.786Z</time>
      </trkpt>
      <trkpt lat="44.93815" lon="3.8834">
        <ele>922.59</ele>
        <time>2025-04-15T15:17:50.113Z</time>
      </trkpt>
      <trkpt lat="44.93838" lon="3.88371">
        <ele>920.6</ele>
        <time>2025-04-15T15:17:55.445Z</time>
      </trkpt>
      <trkpt lat="44.9386" lon="3.88401">
        <ele>918.7</ele>
        <time>2025-04-15T15:18:00.782Z</time>
      </trkpt>
      <trkpt lat="44.93882" lon="3.88431">
        <ele>916.78</ele>
        <time>2025-04-15T15:18:06.124Z</time>
      </trkpt>
      <trkpt lat="44.93899" lon="3.8846">
        <ele>914.88</ele>
        <time>2025-04-15T15:18:11.470Z</time>
      </trkpt>
      <trkpt lat="44.93916" lon="3.88488">
        <ele>912.93</ele>
        <time>2025-04-15T15:18:16.820Z</time>
      </trkpt>
      <trkpt lat="44.93933" lon="3.88517">
        <ele>911.02</ele>
        <time>2025-04-15T15:18:22.174Z</time>
      </trkpt>
      <trkpt lat="44.9395" lon="3.88546">
        <ele>909.09</ele>
        <time>2025-04-15T15:18:27.532Z</time>
      </trkpt>
      <trkpt lat="44.93967" lon="3.88574">
        <ele>907.25</ele>
        <time>2025-04-15T15:18:32.895Z</time>
      </trkpt>
      <trkpt lat="44.93983" lon="3.88603">
        <ele>905.44</ele>
        <time>2025-04-15T15:18:38.262Z</time>
      </trkpt>
      <trkpt lat="44.93998" lon="3.88627">
        <ele>903.68</ele>
        <time>2025-04-15T15:18:43.632Z</time>
      </trkpt>
      <trkpt lat="44.94012" lon="3.88651">
        <ele>901.98</ele>
        <time>2025-04-15T15:18:49.006Z</time>
      </trkpt>
      <trkpt lat="44.94026" lon="3.88676">
        <ele>900.36</ele>
        <time>2025-04-15T15:18:54.384Z</time>
      </trkpt>
      <trkpt lat="44.94041" lon="3.88686">
        <ele>898.82</ele>
        <time>2025-04-15T15:18:59.764Z</time>
      </trkpt>
      <trkpt lat="44.94052" lon="3.88684">
        <ele>897.37</ele>
        <time>2025-04-15T15:19:05.146Z</time>
      </trkpt>
      <trkpt lat="44.94061" lon="3.88678">
        <ele>895.96</ele>
        <time>2025-04-15T15:19:10.530Z</time>
      </trkpt>
      <trkpt lat="44.94071" lon="3.88663">
        <ele>894.52</ele>
        <time>2025-04-15T15:19:15.916Z</time>
      </trkpt>
      <trkpt lat="44.94073" lon="3.88648">
        <ele>893.19</ele>
        <time>2025-04-15T15:19:21.304Z</time>
      </trkpt>
      <trkpt lat="44.94066" lon="3.8862">
        <ele>892.07</ele>
        <time>2025-04-15T15:19:26.695Z</time>
      </trkpt>
      <trkpt lat="44.94058" lon="3.88592">
        <ele>890.95</ele>
        <time>2025-04-15T15:19:32.090Z</time>
      </trkpt>
      <trkpt lat="44.94058" lon="3.88556">
        <ele>889.83</ele>
        <time>2025-04-15T15:19:37.489Z</time>
      </trkpt>
      <trkpt lat="44.94065" lon="3.88515">
        <ele>888.76</ele>
        <time>2025-04-15T15:19:42.892Z</time>
      </trkpt>
      <trkpt lat="44.94072" lon="3.88494">
        <ele>887.45</ele>
        <time>2025-04-15T15:19:48.298Z</time>
      </trkpt>
      <trkpt lat="44.9408" lon="3.88474">
        <ele>886.1</ele>
        <time>2025-04-15T15:19:53.707Z</time>
      </trkpt>
      <trkpt lat="44.94095" lon="3.88444">
        <ele>884.75</ele>
        <time>2025-04-15T15:19:59.120Z</time>
      </trkpt>
      <trkpt lat="44.9411" lon="3.88414">
        <ele>883.41</ele>
        <time>2025-04-15T15:20:04.537Z</time>
      </trkpt>
      <trkpt lat="44.94136" lon="3.88399">
        <ele>881.6</ele>
        <time>2025-04-15T15:20:09.958Z</time>
      </trkpt>
      <trkpt lat="44.94161" lon="3.88384">
        <ele>879.92</ele>
        <time>2025-04-15T15:20:15.384Z</time>
      </trkpt>
      <trkpt lat="44.94172" lon="3.88369">
        <ele>878.53</ele>
        <time>2025-04-15T15:20:20.812Z</time>
      </trkpt>
      <trkpt lat="44.94178" lon="3.88336">
        <ele>877.46</ele>
        <time>2025-04-15T15:20:26.244Z</time>
      </trkpt>
      <trkpt lat="44.94184" lon="3.88303">
        <ele>876.13</ele>
        <time>2025-04-15T15:20:31.680Z</time>
      </trkpt>
      <trkpt lat="44.9419" lon="3.8827">
        <ele>874.44</ele>
        <time>2025-04-15T15:20:37.120Z</time>
      </trkpt>
      <trkpt lat="44.94196" lon="3.88238">
        <ele>872.6</ele>
        <time>2025-04-15T15:20:42.564Z</time>
      </trkpt>
      <trkpt lat="44.94202" lon="3.88219">
        <ele>871.16</ele>
        <time>2025-04-15T15:20:48.010Z</time>
      </trkpt>
      <trkpt lat="44.94211" lon="3.88208">
        <ele>869.74</ele>
        <time>2025-04-15T15:20:53.458Z</time>
      </trkpt>
      <trkpt lat="44.94215" lon="3.88206">
        <ele>868.56</ele>
        <time>2025-04-15T15:20:58.907Z</time>
      </trkpt>
      <trkpt lat="44.94237" lon="3.88206">
        <ele>867.37</ele>
        <time>2025-04-15T15:21:04.359Z</time>
      </trkpt>
      <trkpt lat="44.94247" lon="3.88212">
        <ele>866.52</ele>
        <time>2025-04-15T15:21:09.813Z</time>
      </trkpt>
      <trkpt lat="44.94254" lon="3.88225">
        <ele>865.74</ele>
        <time>2025-04-15T15:21:15.269Z</time>
      </trkpt>
      <trkpt lat="44.9425" lon="3.88266">
        <ele>865.09</ele>
        <time>2025-04-15T15:21:20.729Z</time>
      </trkpt>
      <trkpt lat="44.94247" lon="3.88307">
        <ele>864.43</ele>
        <time>2025-04-15T15:21:26.194Z</time>
      </trkpt>
      <trkpt lat="44.94257" lon="3.88343">
        <ele>863.93</ele>
        <time>2025-04-15T15:21:31.664Z</time>
      </trkpt>
      <trkpt lat="44.94267" lon="3.8838">
        <ele>863.58</ele>
        <time>2025-04-15T15:21:37.138Z</time>
      </trkpt>
      <trkpt lat="44.94271" lon="3.88403">
        <ele>863.41</ele>
        <time>2025-04-15T15:21:42.615Z</time>
      </trkpt>
      <trkpt lat="44.94269" lon="3.88433">
        <ele>863.28</ele>
        <time>2025-04-15T15:21:48.095Z</time>
      </trkpt>
      <trkpt lat="44.94264" lon="3.88459">
        <ele>863.19</ele>
        <time>2025-04-15T15:21:53.578Z</time>
      </trkpt>
      <trkpt lat="44.94248" lon="3.88486">
        <ele>863.1</ele>
        <time>2025-04-15T15:21:59.065Z</time>
      </trkpt>
      <trkpt lat="44.94232" lon="3.88513">
        <ele>863.24</ele>
        <time>2025-04-15T15:22:04.556Z</time>
      </trkpt>
      <trkpt lat="44.9423" lon="3.88523">
        <ele>863.67</ele>
        <time>2025-04-15T15:22:10.048Z</time>
      </trkpt>
      <trkpt lat="44.94232" lon="3.88538">
        <ele>864.27</ele>
        <time>2025-04-15T15:22:15.542Z</time>
      </trkpt>
      <trkpt lat="44.94254" lon="3.88568">
        <ele>865.28</ele>
        <time>2025-04-15T15:22:21.041Z</time>
      </trkpt>
      <trkpt lat="44.94261" lon="3.88589">
        <ele>866.2</ele>
        <time>2025-04-15T15:22:26.543Z</time>
      </trkpt>
      <trkpt lat="44.94269" lon="3.88609">
        <ele>867.27</ele>
        <time>2025-04-15T15:22:32.047Z</time>
      </trkpt>
      <trkpt lat="44.9427" lon="3.88641">
        <ele>868.23</ele>
        <time>2025-04-15T15:22:37.555Z</time>
      </trkpt>
      <trkpt lat="44.94272" lon="3.88674">
        <ele>869.33</ele>
        <time>2025-04-15T15:22:43.067Z</time>
      </trkpt>
      <trkpt lat="44.94273" lon="3.88706">
        <ele>870.49</ele>
        <time>2025-04-15T15:22:48.582Z</time>
      </trkpt>
      <trkpt lat="44.94288" lon="3.88736">
        <ele>872.08</ele>
        <time>2025-04-15T15:22:54.101Z</time>
      </trkpt>
      <trkpt lat="44.94303" lon="3.88766">
        <ele>873.58</ele>
        <time>2025-04-15T15:22:59.625Z</time>
      </trkpt>
      <trkpt lat="44.94318" lon="3.88796">
        <ele>875.17</ele>
        <time>2025-04-15T15:23:05.153Z</time>
      </trkpt>
      <trkpt lat="44.94327" lon="3.88831">
        <ele>876.66</ele>
        <time>2025-04-15T15:23:10.685Z</time>
      </trkpt>
      <trkpt lat="44.94335" lon="3.88867">
        <ele>878.12</ele>
        <time>2025-04-15T15:23:16.221Z</time>
      </trkpt>
      <trkpt lat="44.94344" lon="3.88902">
        <ele>879.74</ele>
        <time>2025-04-15T15:23:21.762Z</time>
      </trkpt>
      <trkpt lat="44.94352" lon="3.88938">
        <ele>881.41</ele>
        <time>2025-04-15T15:23:27.307Z</time>
      </trkpt>
      <trkpt lat="44.94359" lon="3.88953">
        <ele>882.96</ele>
        <time>2025-04-15T15:23:32.854Z</time>
      </trkpt>
      <trkpt lat="44.94365" lon="3.88965">
        <ele>884.44</ele>
        <time>2025-04-15T15:23:38.403Z</time>
      </trkpt>
      <trkpt lat="44.9439" lon="3.88982">
        <ele>886.1</ele>
        <time>2025-04-15T15:23:43.956Z</time>
      </trkpt>
      <trkpt lat="44.94415" lon="3.88998">
        <ele>887.8</ele>
        <time>2025-04-15T15:23:49.513Z</time>
      </trkpt>
      <trkpt lat="44.9444" lon="3.89015">
        <ele>889.38</ele>
        <time>2025-04-15T15:23:55.075Z</time>
      </trkpt>
      <trkpt lat="44.94449" lon="3.89019">
        <ele>890.74</ele>
        <time>2025-04-15T15:24:00.638Z</time>
      </trkpt>
      <trkpt lat="44.94449" lon="3.89019">
        <ele>891.98</ele>
        <time>2025-04-15T15:24:06.201Z</time>
      </trkpt>
      <trkpt lat="44.94466" lon="3.89023">
        <ele>893.2</ele>
        <time>2025-04-15T15:24:11.767Z</time>
      </trkpt>
      <trkpt lat="44.9447" lon="3.89024">
        <ele>894.27</ele>
        <time>2025-04-15T15:24:17.334Z</time>
      </trkpt>
      <trkpt lat="44.94492" lon="3.8903">
        <ele>895.23</ele>
        <time>2025-04-15T15:24:22.904Z</time>
      </trkpt>
      <trkpt lat="44.94522" lon="3.89032">
        <ele>896.17</ele>
        <time>2025-04-15T15:24:28.479Z</time>
      </trkpt>
      <trkpt lat="44.94522" lon="3.89032">
        <ele>896.91</ele>
        <time>2025-04-15T15:24:34.054Z</time>
      </trkpt>
      <trkpt lat="44.94553" lon="3.89034">
        <ele>897.68</ele>
        <time>2025-04-15T15:24:39.634Z</time>
      </trkpt>
      <trkpt lat="44.94584" lon="3.89035">
        <ele>898.24</ele>
        <time>2025-04-15T15:24:45.219Z</time>
      </trkpt>
      <trkpt lat="44.94615" lon="3.89037">
        <ele>898.56</ele>
        <time>2025-04-15T15:24:50.809Z</time>
      </trkpt>
      <trkpt lat="44.94646" lon="3.89038">
        <ele>898.89</ele>
        <time>2025-04-15T15:24:56.404Z</time>
      </trkpt>
      <trkpt lat="44.94677" lon="3.8904">
        <ele>899.13</ele>
        <time>2025-04-15T15:25:02.004Z</time>
      </trkpt>
      <trkpt lat="44.94708" lon="3.89042">
        <ele>899.36</ele>
        <time>2025-04-15T15:25:07.609Z</time>
      </trkpt>
      <trkpt lat="44.9474" lon="3.89043">
        <ele>899.39</ele>
        <time>2025-04-15T15:25:13.219Z</time>
      </trkpt>
      <trkpt lat="44.94771" lon="3.89045">
        <ele>899.26</ele>
        <time>2025-04-15T15:25:18.834Z</time>
      </trkpt>
      <trkpt lat="44.948" lon="3.89045">
        <ele>899.05</ele>
        <time>2025-04-15T15:25:24.454Z</time>
      </trkpt>
      <trkpt lat="44.9483" lon="3.89046">
        <ele>898.88</ele>
        <time>2025-04-15T15:25:30.078Z</time>
      </trkpt>
      <trkpt lat="44.9486" lon="3.89046">
        <ele>898.62</ele>
        <time>2025-04-15T15:25:35.707Z</time>
      </trkpt>
      <trkpt lat="44.94889" lon="3.89046">
        <ele>898.27</ele>
        <time>2025-04-15T15:25:41.341Z</time>
      </trkpt>
      <trkpt lat="44.94919" lon="3.89047">
        <ele>897.81</ele>
        <time>2025-04-15T15:25:46.980Z</time>
      </trkpt>
      <trkpt lat="44.94949" lon="3.89047">
        <ele>897.41</ele>
        <time>2025-04-15T15:25:52.623Z</time>
      </trkpt>
      <trkpt lat="44.9497" lon="3.89041">
        <ele>897.01</ele>
        <time>2025-04-15T15:25:58.270Z</time>
      </trkpt>
      <trkpt lat="44.94996" lon="3.89025">
        <ele>896.52</ele>
        <time>2025-04-15T15:26:03.921Z</time>
      </trkpt>
      <trkpt lat="44.95022" lon="3.8901">
        <ele>896.03</ele>
        <time>2025-04-15T15:26:09.577Z</time>
      </trkpt>
      <trkpt lat="44.95047" lon="3.8899">
        <ele>895.55</ele>
        <time>2025-04-15T15:26:15.237Z</time>
      </trkpt>
      <trkpt lat="44.95071" lon="3.8897">
        <ele>895.15</ele>
        <time>2025-04-15T15:26:20.902Z</time>
      </trkpt>
      <trkpt lat="44.95094" lon="3.88951">
        <ele>894.73</ele>
        <time>2025-04-15T15:26:26.571Z</time>
      </trkpt>
      <trkpt lat="44.95118" lon="3.88932">
        <ele>894.3</ele>
        <time>2025-04-15T15:26:32.245Z</time>
      </trkpt>
      <trkpt lat="44.95141" lon="3.88913">
        <ele>893.82</ele>
        <time>2025-04-15T15:26:37.923Z</time>
      </trkpt>
      <trkpt lat="44.95164" lon="3.88894">
        <ele>893.29</ele>
        <time>2025-04-15T15:26:43.605Z</time>
      </trkpt>
      <trkpt lat="44.95187" lon="3.88875">
        <ele>892.78</ele>
        <time>2025-04-15T15:26:49.291Z</time>
      </trkpt>
      <trkpt lat="44.95211" lon="3.88856">
        <ele>892.23</ele>
        <time>2025-04-15T15:26:54.982Z</time>
      </trkpt>
      <trkpt lat="44.95225" lon="3.88847">
        <ele>891.68</ele>
        <time>2025-04-15T15:27:00.675Z</time>
      </trkpt>
      <trkpt lat="44.95236" lon="3.88841">
        <ele>891.11</ele>
        <time>2025-04-15T15:27:06.370Z</time>
      </trkpt>
      <trkpt lat="44.95236" lon="3.88841">
        <ele>890.49</ele>
        <time>2025-04-15T15:27:12.065Z</time>
      </trkpt>
      <trkpt lat="44.95264" lon="3.88846">
        <ele>889.84</ele>
        <time>2025-04-15T15:27:17.765Z</time>
      </trkpt>
      <trkpt lat="44.95292" lon="3.8885">
        <ele>889.12</ele>
        <time>2025-04-15T15:27:23.469Z</time>
      </trkpt>
      <trkpt lat="44.9532" lon="3.88855">
        <ele>888.36</ele>
        <time>2025-04-15T15:27:29.178Z</time>
      </trkpt>
      <trkpt lat="44.95348" lon="3.88859">
        <ele>887.54</ele>
        <time>2025-04-15T15:27:34.891Z</time>
      </trkpt>
      <trkpt lat="44.95376" lon="3.88864">
        <ele>886.73</ele>
        <time>2025-04-15T15:27:40.609Z</time>
      </trkpt>
      <trkpt lat="44.95404" lon="3.88869">
        <ele>885.88</ele>
        <time>2025-04-15T15:27:46.331Z</time>
      </trkpt>
      <trkpt lat="44.95432" lon="3.88873">
        <ele>885.09</ele>
        <time>2025-04-15T15:27:52.058Z</time>
      </trkpt>
      <trkpt lat="44.95439" lon="3.88875">
        <ele>884.27</ele>
        <time>2025-04-15T15:27:57.786Z</time>
      </trkpt>
      <trkpt lat="44.95457" lon="3.88878">
        <ele>883.41</ele>
        <time>2025-04-15T15:28:03.517Z</time>
      </trkpt>
      <trkpt lat="44.95475" lon="3.88882">
        <ele>882.56</ele>
        <time>2025-04-15T15:28:09.251Z</time>
      </trkpt>
      <trkpt lat="44.95495" lon="3.88887">
        <ele>881.73</ele>
        <time>2025-04-15T15:28:14.988Z</time>
      </trkpt>
      <trkpt lat="44.95516" lon="3.88892">
        <ele>880.92</ele>
        <time>2025-04-15T15:28:20.728Z</time>
      </trkpt>
      <trkpt lat="44.95537" lon="3.88897">
        <ele>880.11</ele>
        <time>2025-04-15T15:28:26.472Z</time>
      </trkpt>
      <trkpt lat="44.95557" lon="3.88898">
        <ele>879.32</ele>
        <time>2025-04-15T15:28:32.219Z</time>
      </trkpt>
      <trkpt lat="44.95578" lon="3.88899">
        <ele>878.52</ele>
        <time>2025-04-15T15:28:37.969Z</time>
      </trkpt>
      <trkpt lat="44.95606" lon="3.88884">
        <ele>877.73</ele>
        <time>2025-04-15T15:28:43.724Z</time>
      </trkpt>
      <trkpt lat="44.95635" lon="3.88868">
        <ele>876.99</ele>
        <time>2025-04-15T15:28:49.484Z</time>
      </trkpt>
      <trkpt lat="44.95663" lon="3.88853">
        <ele>876.18</ele>
        <time>2025-04-15T15:28:55.249Z</time>
      </trkpt>
      <trkpt lat="44.95692" lon="3.88837">
        <ele>875.34</ele>
        <time>2025-04-15T15:29:01.019Z</time>
      </trkpt>
      <trkpt lat="44.95721" lon="3.88822">
        <ele>874.48</ele>
        <time>2025-04-15T15:29:06.794Z</time>
      </trkpt>
      <trkpt lat="44.95749" lon="3.88807">
        <ele>873.74</ele>
        <time>2025-04-15T15:29:12.574Z</time>
      </trkpt>
      <trkpt lat="44.95765" lon="3.888">
        <ele>873.08</ele>
        <time>2025-04-15T15:29:18.356Z</time>
      </trkpt>
      <trkpt lat="44.95781" lon="3.88794">
        <ele>872.52</ele>
        <time>2025-04-15T15:29:24.141Z</time>
      </trkpt>
      <trkpt lat="44.95796" lon="3.88798">
        <ele>872.01</ele>
        <time>2025-04-15T15:29:29.928Z</time>
      </trkpt>
      <trkpt lat="44.95822" lon="3.88806">
        <ele>871.56</ele>
        <time>2025-04-15T15:29:35.720Z</time>
      </trkpt>
      <trkpt lat="44.95848" lon="3.88813">
        <ele>871.14</ele>
        <time>2025-04-15T15:29:41.516Z</time>
      </trkpt>
      <trkpt lat="44.95875" lon="3.88821">
        <ele>870.78</ele>
        <time>2025-04-15T15:29:47.316Z</time>
      </trkpt>
      <trkpt lat="44.95901" lon="3.88829">
        <ele>870.41</ele>
        <time>2025-04-15T15:29:53.121Z</time>
      </trkpt>
      <trkpt lat="44.95927" lon="3.88837">
        <ele>870.16</ele>
        <time>2025-04-15T15:29:58.930Z</time>
      </trkpt>
      <trkpt lat="44.95948" lon="3.8883">
        <ele>869.97</ele>
        <time>2025-04-15T15:30:04.742Z</time>
      </trkpt>
      <trkpt lat="44.95969" lon="3.88824">
        <ele>869.82</ele>
        <time>2025-04-15T15:30:10.558Z</time>
      </trkpt>
      <trkpt lat="44.9599" lon="3.88817">
        <ele>869.61</ele>
        <time>2025-04-15T15:30:16.377Z</time>
      </trkpt>
      <trkpt lat="44.96018" lon="3.88811">
        <ele>869.5</ele>
        <time>2025-04-15T15:30:22.201Z</time>
      </trkpt>
      <trkpt lat="44.9604" lon="3.8881">
        <ele>869.41</ele>
        <time>2025-04-15T15:30:28.028Z</time>
      </trkpt>
      <trkpt lat="44.96062" lon="3.88809">
        <ele>869.34</ele>
        <time>2025-04-15T15:30:33.859Z</time>
      </trkpt>
      <trkpt lat="44.96084" lon="3.88809">
        <ele>869.3</ele>
        <time>2025-04-15T15:30:39.693Z</time>
      </trkpt>
      <trkpt lat="44.96095" lon="3.8881">
        <ele>869.24</ele>
        <time>2025-04-15T15:30:45.529Z</time>
      </trkpt>
      <trkpt lat="44.96121" lon="3.88814">
        <ele>869.18</ele>
        <time>2025-04-15T15:30:51.369Z</time>
      </trkpt>
      <trkpt lat="44.96148" lon="3.88818">
        <ele>869.01</ele>
        <time>2025-04-15T15:30:57.213Z</time>
      </trkpt>
      <trkpt lat="44.96174" lon="3.88822">
        <ele>868.95</ele>
        <time>2025-04-15T15:31:03.062Z</time>
      </trkpt>
      <trkpt lat="44.96193" lon="3.88812">
        <ele>868.96</ele>
        <time>2025-04-15T15:31:08.914Z</time>
      </trkpt>
      <trkpt lat="44.96213" lon="3.88802">
        <ele>868.92</ele>
        <time>2025-04-15T15:31:14.769Z</time>
      </trkpt>
      <trkpt lat="44.96237" lon="3.88784">
        <ele>868.76</ele>
        <time>2025-04-15T15:31:20.629Z</time>
      </trkpt>
      <trkpt lat="44.96262" lon="3.88766">
        <ele>868.47</ele>
        <time>2025-04-15T15:31:26.493Z</time>
      </trkpt>
      <trkpt lat="44.96293" lon="3.88764">
        <ele>868.22</ele>
        <time>2025-04-15T15:31:32.362Z</time>
      </trkpt>
      <trkpt lat="44.96324" lon="3.88763">
        <ele>867.99</ele>
        <time>2025-04-15T15:31:38.236Z</time>
      </trkpt>
      <trkpt lat="44.96354" lon="3.88762">
        <ele>867.63</ele>
        <time>2025-04-15T15:31:44.115Z</time>
      </trkpt>
      <trkpt lat="44.96385" lon="3.88759">
        <ele>867.18</ele>
        <time>2025-04-15T15:31:49.999Z</time>
      </trkpt>
      <trkpt lat="44.96416" lon="3.88756">
        <ele>866.67</ele>
        <time>2025-04-15T15:31:55.888Z</time>
      </trkpt>
      <trkpt lat="44.96447" lon="3.88753">
        <ele>866.11</ele>
        <time>2025-04-15T15:32:01.782Z</time>
      </trkpt>
      <trkpt lat="44.96472" lon="3.88751">
        <ele>865.55</ele>
        <time>2025-04-15T15:32:07.680Z</time>
      </trkpt>
      <trkpt lat="44.96498" lon="3.8875">
        <ele>864.93</ele>
        <time>2025-04-15T15:32:13.582Z</time>
      </trkpt>
      <trkpt lat="44.96524" lon="3.88748">
        <ele>864.26</ele>
        <time>2025-04-15T15:32:19.488Z</time>
      </trkpt>
      <trkpt lat="44.9655" lon="3.88747">
        <ele>863.47</ele>
        <time>2025-04-15T15:32:25.398Z</time>
      </trkpt>
      <trkpt lat="44.96576" lon="3.88744">
        <ele>862.65</ele>
        <time>2025-04-15T15:32:31.313Z</time>
      </trkpt>
      <trkpt lat="44.96603" lon="3.88742">
        <ele>861.81</ele>
        <time>2025-04-15T15:32:37.232Z</time>
      </trkpt>
      <trkpt lat="44.96629" lon="3.8874">
        <ele>860.92</ele>
        <time>2025-04-15T15:32:43.155Z</time>
      </trkpt>
      <trkpt lat="44.96656" lon="3.88738">
        <ele>860.02</ele>
        <time>2025-04-15T15:32:49.082Z</time>
      </trkpt>
      <trkpt lat="44.96683" lon="3.88736">
        <ele>859.11</ele>
        <time>2025-04-15T15:32:55.014Z</time>
      </trkpt>
      <trkpt lat="44.9671" lon="3.88751">
        <ele>858.2</ele>
        <time>2025-04-15T15:33:00.950Z</time>
      </trkpt>
      <trkpt lat="44.96736" lon="3.88766">
        <ele>857.29</ele>
        <time>2025-04-15T15:33:06.891Z</time>
      </trkpt>
      <trkpt lat="44.96756" lon="3.88772">
        <ele>856.44</ele>
        <time>2025-04-15T15:33:12.835Z</time>
      </trkpt>
      <trkpt lat="44.96764" lon="3.88772">
        <ele>855.64</ele>
        <time>2025-04-15T15:33:18.780Z</time>
      </trkpt>
      <trkpt lat="44.9678" lon="3.88764">
        <ele>854.86</ele>
        <time>2025-04-15T15:33:24.728Z</time>
      </trkpt>
      <trkpt lat="44.96796" lon="3.88755">
        <ele>854.08</ele>
        <time>2025-04-15T15:33:30.679Z</time>
      </trkpt>
      <trkpt lat="44.96816" lon="3.88749">
        <ele>853.32</ele>
        <time>2025-04-15T15:33:36.633Z</time>
      </trkpt>
      <trkpt lat="44.96835" lon="3.88742">
        <ele>852.56</ele>
        <time>2025-04-15T15:33:42.590Z</time>
      </trkpt>
      <trkpt lat="44.96829" lon="3.88779">
        <ele>851.77</ele>
        <time>2025-04-15T15:33:48.552Z</time>
      </trkpt>
      <trkpt lat="44.96822" lon="3.88792">
        <ele>851.02</ele>
        <time>2025-04-15T15:33:54.515Z</time>
      </trkpt>
      <trkpt lat="44.968" lon="3.88805">
        <ele>850.3</ele>
        <time>2025-04-15T15:34:00.482Z</time>
      </trkpt>
      <trkpt lat="44.96778" lon="3.88818">
        <ele>849.58</ele>
        <time>2025-04-15T15:34:06.453Z</time>
      </trkpt>
      <trkpt lat="44.96756" lon="3.88832">
        <ele>848.81</ele>
        <time>2025-04-15T15:34:12.428Z</time>
      </trkpt>
      <trkpt lat="44.96734" lon="3.88845">
        <ele>848.07</ele>
        <time>2025-04-15T15:34:18.407Z</time>
      </trkpt>
      <trkpt lat="44.96713" lon="3.88871">
        <ele>847.15</ele>
        <time>2025-04-15T15:34:24.390Z</time>
      </trkpt>
      <trkpt lat="44.96691" lon="3.88897">
        <ele>846.09</ele>
        <time>2025-04-15T15:34:30.378Z</time>
      </trkpt>
      <trkpt lat="44.96667" lon="3.8892">
        <ele>845.09</ele>
        <time>2025-04-15T15:34:36.370Z</time>
      </trkpt>
      <trkpt lat="44.96643" lon="3.88944">
        <ele>844.04</ele>
        <time>2025-04-15T15:34:42.367Z</time>
      </trkpt>
      <trkpt lat="44.96618" lon="3.88968">
        <ele>843</ele>
        <time>2025-04-15T15:34:48.369Z</time>
      </trkpt>
      <trkpt lat="44.96597" lon="3.88995">
        <ele>841.82</ele>
        <time>2025-04-15T15:34:54.376Z</time>
      </trkpt>
      <trkpt lat="44.96614" lon="3.88991">
        <ele>840.6</ele>
        <time>2025-04-15T15:35:00.385Z</time>
      </trkpt>
      <trkpt lat="44.96628" lon="3.88979">
        <ele>839.35</ele>
        <time>2025-04-15T15:35:06.397Z</time>
      </trkpt>
      <trkpt lat="44.96642" lon="3.88968">
        <ele>838.08</ele>
        <time>2025-04-15T15:35:12.412Z</time>
      </trkpt>
      <trkpt lat="44.96669" lon="3.8895">
        <ele>836.59</ele>
        <time>2025-04-15T15:35:18.431Z</time>
      </trkpt>
      <trkpt lat="44.96695" lon="3.88933">
        <ele>835.18</ele>
        <time>2025-04-15T15:35:24.455Z</time>
      </trkpt>
      <trkpt lat="44.96722" lon="3.88916">
        <ele>833.7</ele>
        <time>2025-04-15T15:35:30.484Z</time>
      </trkpt>
      <trkpt lat="44.96748" lon="3.88899">
        <ele>832.16</ele>
        <time>2025-04-15T15:35:36.517Z</time>
      </trkpt>
      <trkpt lat="44.96775" lon="3.88882">
        <ele>830.61</ele>
        <time>2025-04-15T15:35:42.555Z</time>
      </trkpt>
      <trkpt lat="44.96804" lon="3.88877">
        <ele>828.78</ele>
        <time>2025-04-15T15:35:48.598Z</time>
      </trkpt>
      <trkpt lat="44.96833" lon="3.88873">
        <ele>827.07</ele>
        <time>2025-04-15T15:35:54.645Z</time>
      </trkpt>
      <trkpt lat="44.96862" lon="3.88867">
        <ele>825.3</ele>
        <time>2025-04-15T15:36:00.697Z</time>
      </trkpt>
      <trkpt lat="44.96891" lon="3.8886">
        <ele>823.49</ele>
        <time>2025-04-15T15:36:06.754Z</time>
      </trkpt>
      <trkpt lat="44.9691" lon="3.8886">
        <ele>821.63</ele>
        <time>2025-04-15T15:36:12.814Z</time>
      </trkpt>
      <trkpt lat="44.96934" lon="3.88862">
        <ele>819.62</ele>
        <time>2025-04-15T15:36:18.878Z</time>
      </trkpt>
      <trkpt lat="44.96957" lon="3.88865">
        <ele>817.79</ele>
        <time>2025-04-15T15:36:24.945Z</time>
      </trkpt>
      <trkpt lat="44.96981" lon="3.88867">
        <ele>815.98</ele>
        <time>2025-04-15T15:36:31.016Z</time>
      </trkpt>
      <trkpt lat="44.97005" lon="3.88869">
        <ele>814.18</ele>
        <time>2025-04-15T15:36:37.091Z</time>
      </trkpt>
      <trkpt lat="44.97029" lon="3.88875">
        <ele>812.44</ele>
        <time>2025-04-15T15:36:43.170Z</time>
      </trkpt>
      <trkpt lat="44.97054" lon="3.88882">
        <ele>810.8</ele>
        <time>2025-04-15T15:36:49.253Z</time>
      </trkpt>
      <trkpt lat="44.97083" lon="3.88891">
        <ele>809.1</ele>
        <time>2025-04-15T15:36:55.341Z</time>
      </trkpt>
      <trkpt lat="44.97111" lon="3.889">
        <ele>807.3</ele>
        <time>2025-04-15T15:37:01.433Z</time>
      </trkpt>
      <trkpt lat="44.9714" lon="3.8891">
        <ele>805.5</ele>
        <time>2025-04-15T15:37:07.530Z</time>
      </trkpt>
      <trkpt lat="44.9714" lon="3.8891">
        <ele>804.02</ele>
        <time>2025-04-15T15:37:13.627Z</time>
      </trkpt>
      <trkpt lat="44.97163" lon="3.88912">
        <ele>802.43</ele>
        <time>2025-04-15T15:37:19.728Z</time>
      </trkpt>
      <trkpt lat="44.97183" lon="3.88903">
        <ele>801.04</ele>
        <time>2025-04-15T15:37:25.832Z</time>
      </trkpt>
      <trkpt lat="44.97198" lon="3.88884">
        <ele>799.62</ele>
        <time>2025-04-15T15:37:31.939Z</time>
      </trkpt>
      <trkpt lat="44.97202" lon="3.88869">
        <ele>798.33</ele>
        <time>2025-04-15T15:37:38.048Z</time>
      </trkpt>
      <trkpt lat="44.972" lon="3.88839">
        <ele>797.07</ele>
        <time>2025-04-15T15:37:44.161Z</time>
      </trkpt>
      <trkpt lat="44.97188" lon="3.88803">
        <ele>795.77</ele>
        <time>2025-04-15T15:37:50.278Z</time>
      </trkpt>
      <trkpt lat="44.97176" lon="3.88768">
        <ele>794.63</ele>
        <time>2025-04-15T15:37:56.399Z</time>
      </trkpt>
      <trkpt lat="44.97174" lon="3.88747">
        <ele>793.51</ele>
        <time>2025-04-15T15:38:02.523Z</time>
      </trkpt>
      <trkpt lat="44.97178" lon="3.88736">
        <ele>792.23</ele>
        <time>2025-04-15T15:38:08.648Z</time>
      </trkpt>
      <trkpt lat="44.97196" lon="3.88721">
        <ele>790.83</ele>
        <time>2025-04-15T15:38:14.777Z</time>
      </trkpt>
      <trkpt lat="44.97215" lon="3.88713">
        <ele>789.38</ele>
        <time>2025-04-15T15:38:20.909Z</time>
      </trkpt>
      <trkpt lat="44.97234" lon="3.88706">
        <ele>788.01</ele>
        <time>2025-04-15T15:38:27.044Z</time>
      </trkpt>
      <trkpt lat="44.97261" lon="3.88704">
        <ele>786.65</ele>
        <time>2025-04-15T15:38:33.183Z</time>
      </trkpt>
      <trkpt lat="44.97287" lon="3.88701">
        <ele>785.24</ele>
        <time>2025-04-15T15:38:39.326Z</time>
      </trkpt>
      <trkpt lat="44.97314" lon="3.88699">
        <ele>783.83</ele>
        <time>2025-04-15T15:38:45.474Z</time>
      </trkpt>
      <trkpt lat="44.9734" lon="3.88697">
        <ele>782.27</ele>
        <time>2025-04-15T15:38:51.626Z</time>
      </trkpt>
      <trkpt lat="44.97367" lon="3.88695">
        <ele>780.79</ele>
        <time>2025-04-15T15:38:57.782Z</time>
      </trkpt>
      <trkpt lat="44.97396" lon="3.88686">
        <ele>779.33</ele>
        <time>2025-04-15T15:39:03.943Z</time>
      </trkpt>
      <trkpt lat="44.97425" lon="3.88677">
        <ele>777.66</ele>
        <time>2025-04-15T15:39:10.109Z</time>
      </trkpt>
      <trkpt lat="44.97454" lon="3.88668">
        <ele>776.07</ele>
        <time>2025-04-15T15:39:16.280Z</time>
      </trkpt>
      <trkpt lat="44.97483" lon="3.88659">
        <ele>774.73</ele>
        <time>2025-04-15T15:39:22.455Z</time>
      </trkpt>
      <trkpt lat="44.97505" lon="3.88653">
        <ele>773.31</ele>
        <time>2025-04-15T15:39:28.634Z</time>
      </trkpt>
      <trkpt lat="44.97526" lon="3.88646">
        <ele>771.77</ele>
        <time>2025-04-15T15:39:34.816Z</time>
      </trkpt>
      <trkpt lat="44.97547" lon="3.88639">
        <ele>770.04</ele>
        <time>2025-04-15T15:39:41.002Z</time>
      </trkpt>
      <trkpt lat="44.97569" lon="3.88629">
        <ele>768.14</ele>
        <time>2025-04-15T15:39:47.191Z</time>
      </trkpt>
      <trkpt lat="44.97586" lon="3.88614">
        <ele>766.5</ele>
        <time>2025-04-15T15:39:53.384Z</time>
      </trkpt>
      <trkpt lat="44.97606" lon="3.88593">
        <ele>764.78</ele>
        <time>2025-04-15T15:39:59.581Z</time>
      </trkpt>
      <trkpt lat="44.97626" lon="3.88573">
        <ele>762.97</ele>
        <time>2025-04-15T15:40:05.782Z</time>
      </trkpt>
      <trkpt lat="44.97646" lon="3.88552">
        <ele>761.1</ele>
        <time>2025-04-15T15:40:11.986Z</time>
      </trkpt>
      <trkpt lat="44.97665" lon="3.88532">
        <ele>759.17</ele>
        <time>2025-04-15T15:40:18.194Z</time>
      </trkpt>
      <trkpt lat="44.97683" lon="3.88521">
        <ele>757.2</ele>
        <time>2025-04-15T15:40:24.405Z</time>
      </trkpt>
      <trkpt lat="44.977" lon="3.88517">
        <ele>755.18</ele>
        <time>2025-04-15T15:40:30.619Z</time>
      </trkpt>
      <trkpt lat="44.97731" lon="3.88518">
        <ele>753.07</ele>
        <time>2025-04-15T15:40:36.838Z</time>
      </trkpt>
      <trkpt lat="44.97761" lon="3.88518">
        <ele>751.09</ele>
        <time>2025-04-15T15:40:43.062Z</time>
      </trkpt>
      <trkpt lat="44.97792" lon="3.88519">
        <ele>749.16</ele>
        <time>2025-04-15T15:40:49.291Z</time>
      </trkpt>
      <trkpt lat="44.9782" lon="3.88524">
        <ele>747.15</ele>
        <time>2025-04-15T15:40:55.524Z</time>
      </trkpt>
      <trkpt lat="44.97847" lon="3.88528">
        <ele>745.17</ele>
        <time>2025-04-15T15:41:01.762Z</time>
      </trkpt>
      <trkpt lat="44.97875" lon="3.88533">
        <ele>743.34</ele>
        <time>2025-04-15T15:41:08.004Z</time>
      </trkpt>
      <trkpt lat="44.97902" lon="3.88537">
        <ele>741.45</ele>
        <time>2025-04-15T15:41:14.251Z</time>
      </trkpt>
      <trkpt lat="44.9793" lon="3.88542">
        <ele>739.5</ele>
        <time>2025-04-15T15:41:20.502Z</time>
      </trkpt>
      <trkpt lat="44.97957" lon="3.88547">
        <ele>737.6</ele>
        <time>2025-04-15T15:41:26.758Z</time>
      </trkpt>
      <trkpt lat="44.97985" lon="3.88551">
        <ele>735.58</ele>
        <time>2025-04-15T15:41:33.018Z</time>
      </trkpt>
      <trkpt lat="44.98011" lon="3.88545">
        <ele>733.73</ele>
        <time>2025-04-15T15:41:39.282Z</time>
      </trkpt>
      <trkpt lat="44.98026" lon="3.88536">
        <ele>732.01</ele>
        <time>2025-04-15T15:41:45.549Z</time>
      </trkpt>
      <trkpt lat="44.98039" lon="3.88515">
        <ele>730.34</ele>
        <time>2025-04-15T15:41:51.819Z</time>
      </trkpt>
      <trkpt lat="44.98045" lon="3.88493">
        <ele>728.75</ele>
        <time>2025-04-15T15:41:58.092Z</time>
      </trkpt>
      <trkpt lat="44.98045" lon="3.88471">
        <ele>727.18</ele>
        <time>2025-04-15T15:42:04.367Z</time>
      </trkpt>
      <trkpt lat="44.98045" lon="3.88448">
        <ele>725.59</ele>
        <time>2025-04-15T15:42:10.645Z</time>
      </trkpt>
      <trkpt lat="44.98041" lon="3.88415">
        <ele>724.16</ele>
        <time>2025-04-15T15:42:16.927Z</time>
      </trkpt>
      <trkpt lat="44.98037" lon="3.88382">
        <ele>722.65</ele>
        <time>2025-04-15T15:42:23.213Z</time>
      </trkpt>
      <trkpt lat="44.98044" lon="3.88346">
        <ele>720.92</ele>
        <time>2025-04-15T15:42:29.503Z</time>
      </trkpt>
      <trkpt lat="44.98052" lon="3.88311">
        <ele>719.35</ele>
        <time>2025-04-15T15:42:35.797Z</time>
      </trkpt>
      <trkpt lat="44.98055" lon="3.88287">
        <ele>717.87</ele>
        <time>2025-04-15T15:42:42.094Z</time>
      </trkpt>
      <trkpt lat="44.98058" lon="3.88264">
        <ele>716.36</ele>
        <time>2025-04-15T15:42:48.393Z</time>
      </trkpt>
      <trkpt lat="44.98063" lon="3.8823">
        <ele>714.87</ele>
        <time>2025-04-15T15:42:54.696Z</time>
      </trkpt>
      <trkpt lat="44.98068" lon="3.88196">
        <ele>713.43</ele>
        <time>2025-04-15T15:43:01.003Z</time>
      </trkpt>
      <trkpt lat="44.98073" lon="3.88162">
        <ele>712.06</ele>
        <time>2025-04-15T15:43:07.314Z</time>
      </trkpt>
      <trkpt lat="44.98077" lon="3.88129">
        <ele>710.6</ele>
        <time>2025-04-15T15:43:13.629Z</time>
      </trkpt>
      <trkpt lat="44.9809" lon="3.88092">
        <ele>708.91</ele>
        <time>2025-04-15T15:43:19.949Z</time>
      </trkpt>
      <trkpt lat="44.9811" lon="3.88073">
        <ele>707.53</ele>
        <time>2025-04-15T15:43:26.272Z</time>
      </trkpt>
      <trkpt lat="44.98135" lon="3.88066">
        <ele>706.33</ele>
        <time>2025-04-15T15:43:32.600Z</time>
      </trkpt>
      <trkpt lat="44.98155" lon="3.88064">
        <ele>705.18</ele>
        <time>2025-04-15T15:43:38.931Z</time>
      </trkpt>
      <trkpt lat="44.98174" lon="3.88068">
        <ele>704.09</ele>
        <time>2025-04-15T15:43:45.265Z</time>
      </trkpt>
      <trkpt lat="44.98193" lon="3.88079">
        <ele>703.13</ele>
        <time>2025-04-15T15:43:51.602Z</time>
      </trkpt>
      <trkpt lat="44.98193" lon="3.88079">
        <ele>702.23</ele>
        <time>2025-04-15T15:43:57.939Z</time>
      </trkpt>
      <trkpt lat="44.98208" lon="3.88101">
        <ele>701.38</ele>
        <time>2025-04-15T15:44:04.280Z</time>
      </trkpt>
      <trkpt lat="44.98215" lon="3.88131">
        <ele>700.54</ele>
        <time>2025-04-15T15:44:10.624Z</time>
      </trkpt>
      <trkpt lat="44.98218" lon="3.88167">
        <ele>699.76</ele>
        <time>2025-04-15T15:44:16.972Z</time>
      </trkpt>
      <trkpt lat="44.98222" lon="3.88204">
        <ele>699.09</ele>
        <time>2025-04-15T15:44:23.325Z</time>
      </trkpt>
      <trkpt lat="44.98226" lon="3.8824">
        <ele>698.48</ele>
        <time>2025-04-15T15:44:29.682Z</time>
      </trkpt>
      <trkpt lat="44.98234" lon="3.88274">
        <ele>697.93</ele>
        <time>2025-04-15T15:44:36.043Z</time>
      </trkpt>
      <trkpt lat="44.98243" lon="3.88308">
        <ele>697.39</ele>
        <time>2025-04-15T15:44:42.408Z</time>
      </trkpt>
      <trkpt lat="44.98251" lon="3.88341">
        <ele>696.89</ele>
        <time>2025-04-15T15:44:48.777Z</time>
      </trkpt>
      <trkpt lat="44.98273" lon="3.88365">
        <ele>696.62</ele>
        <time>2025-04-15T15:44:55.150Z</time>
      </trkpt>
      <trkpt lat="44.98298" lon="3.88376">
        <ele>696.56</ele>
        <time>2025-04-15T15:45:01.528Z</time>
      </trkpt>
      <trkpt lat="44.98324" lon="3.88387">
        <ele>696.54</ele>
        <time>2025-04-15T15:45:07.910Z</time>
      </trkpt>
      <trkpt lat="44.9835" lon="3.88399">
        <ele>696.43</ele>
        <time>2025-04-15T15:45:14.296Z</time>
      </trkpt>
      <trkpt lat="44.98376" lon="3.8841">
        <ele>696.26</ele>
        <time>2025-04-15T15:45:20.687Z</time>
      </trkpt>
      <trkpt lat="44.98401" lon="3.88422">
        <ele>696.07</ele>
        <time>2025-04-15T15:45:27.082Z</time>
      </trkpt>
      <trkpt lat="44.98427" lon="3.88433">
        <ele>696.08</ele>
        <time>2025-04-15T15:45:33.481Z</time>
      </trkpt>
      <trkpt lat="44.98444" lon="3.88435">
        <ele>696.19</ele>
        <time>2025-04-15T15:45:39.883Z</time>
      </trkpt>
      <trkpt lat="44.98451" lon="3.88444">
        <ele>696.18</ele>
        <time>2025-04-15T15:45:46.286Z</time>
      </trkpt>
      <trkpt lat="44.98479" lon="3.88446">
        <ele>696.37</ele>
        <time>2025-04-15T15:45:52.694Z</time>
      </trkpt>
      <trkpt lat="44.98494" lon="3.88442">
        <ele>696.52</ele>
        <time>2025-04-15T15:45:59.104Z</time>
      </trkpt>
      <trkpt lat="44.98522" lon="3.88435">
        <ele>696.67</ele>
        <time>2025-04-15T15:46:05.519Z</time>
      </trkpt>
      <trkpt lat="44.9855" lon="3.88429">
        <ele>696.72</ele>
        <time>2025-04-15T15:46:11.938Z</time>
      </trkpt>
      <trkpt lat="44.98576" lon="3.88417">
        <ele>696.71</ele>
        <time>2025-04-15T15:46:18.362Z</time>
      </trkpt>
      <trkpt lat="44.98602" lon="3.88405">
        <ele>696.61</ele>
        <time>2025-04-15T15:46:24.790Z</time>
      </trkpt>
      <trkpt lat="44.98629" lon="3.88392">
        <ele>696.36</ele>
        <time>2025-04-15T15:46:31.223Z</time>
      </trkpt>
      <trkpt lat="44.98653" lon="3.88385">
        <ele>695.97</ele>
        <time>2025-04-15T15:46:37.660Z</time>
      </trkpt>
      <trkpt lat="44.98678" lon="3.88377">
        <ele>695.65</ele>
        <time>2025-04-15T15:46:44.101Z</time>
      </trkpt>
      <trkpt lat="44.98702" lon="3.88369">
        <ele>695.37</ele>
        <time>2025-04-15T15:46:50.546Z</time>
      </trkpt>
      <trkpt lat="44.9872" lon="3.88358">
        <ele>695.15</ele>
        <time>2025-04-15T15:46:56.994Z</time>
      </trkpt>
      <trkpt lat="44.98738" lon="3.88347">
        <ele>694.96</ele>
        <time>2025-04-15T15:47:03.445Z</time>
      </trkpt>
      <trkpt lat="44.98754" lon="3.88333">
        <ele>694.85</ele>
        <time>2025-04-15T15:47:09.899Z</time>
      </trkpt>
      <trkpt lat="44.98771" lon="3.8832">
        <ele>694.93</ele>
        <time>2025-04-15T15:47:16.356Z</time>
      </trkpt>
      <trkpt lat="44.98787" lon="3.88292">
        <ele>695.01</ele>
        <time>2025-04-15T15:47:22.817Z</time>
      </trkpt>
      <trkpt lat="44.98794" lon="3.88281">
        <ele>694.94</ele>
        <time>2025-04-15T15:47:29.280Z</time>
      </trkpt>
      <trkpt lat="44.98813" lon="3.88266">
        <ele>694.76</ele>
        <time>2025-04-15T15:47:35.746Z</time>
      </trkpt>
      <trkpt lat="44.98826" lon="3.88262">
        <ele>694.66</ele>
        <time>2025-04-15T15:47:42.214Z</time>
      </trkpt>
      <trkpt lat="44.98851" lon="3.88268">
        <ele>694.54</ele>
        <time>2025-04-15T15:47:48.687Z</time>
      </trkpt>
      <trkpt lat="44.98876" lon="3.88274">
        <ele>694.57</ele>
        <time>2025-04-15T15:47:55.164Z</time>
      </trkpt>
      <trkpt lat="44.98901" lon="3.88281">
        <ele>694.65</ele>
        <time>2025-04-15T15:48:01.645Z</time>
      </trkpt>
      <trkpt lat="44.98925" lon="3.88285">
        <ele>694.83</ele>
        <time>2025-04-15T15:48:08.129Z</time>
      </trkpt>
      <trkpt lat="44.98944" lon="3.88285">
        <ele>695.14</ele>
        <time>2025-04-15T15:48:14.617Z</time>
      </trkpt>
      <trkpt lat="44.98964" lon="3.88285">
        <ele>695.55</ele>
        <time>2025-04-15T15:48:21.108Z</time>
      </trkpt>
      <trkpt lat="44.98987" lon="3.88278">
        <ele>696.15</ele>
        <time>2025-04-15T15:48:27.603Z</time>
      </trkpt>
      <trkpt lat="44.99011" lon="3.8827">
        <ele>696.87</ele>
        <time>2025-04-15T15:48:34.101Z</time>
      </trkpt>
      <trkpt lat="44.99034" lon="3.88265">
        <ele>697.73</ele>
        <time>2025-04-15T15:48:40.603Z</time>
      </trkpt>
      <trkpt lat="44.99058" lon="3.88259">
        <ele>698.65</ele>
        <time>2025-04-15T15:48:47.109Z</time>
      </trkpt>
      <trkpt lat="44.99074" lon="3.88262">
        <ele>699.56</ele>
        <time>2025-04-15T15:48:53.618Z</time>
      </trkpt>
      <trkpt lat="44.9909" lon="3.88264">
        <ele>700.63</ele>
        <time>2025-04-15T15:49:00.129Z</time>
      </trkpt>
      <trkpt lat="44.99103" lon="3.88272">
        <ele>701.67</ele>
        <time>2025-04-15T15:49:06.643Z</time>
      </trkpt>
      <trkpt lat="44.99116" lon="3.88283">
        <ele>702.76</ele>
        <time>2025-04-15T15:49:13.159Z</time>
      </trkpt>
      <trkpt lat="44.99136" lon="3.88307">
        <ele>703.92</ele>
        <time>2025-04-15T15:49:19.679Z</time>
      </trkpt>
      <trkpt lat="44.99156" lon="3.88332">
        <ele>705.21</ele>
        <time>2025-04-15T15:49:26.203Z</time>
      </trkpt>
      <trkpt lat="44.99176" lon="3.88356">
        <ele>706.6</ele>
        <time>2025-04-15T15:49:32.732Z</time>
      </trkpt>
      <trkpt lat="44.99193" lon="3.88367">
        <ele>708.16</ele>
        <time>2025-04-15T15:49:39.264Z</time>
      </trkpt>
      <trkpt lat="44.9921" lon="3.88377">
        <ele>709.74</ele>
        <time>2025-04-15T15:49:45.799Z</time>
      </trkpt>
      <trkpt lat="44.99238" lon="3.88396">
        <ele>711.23</ele>
        <time>2025-04-15T15:49:52.338Z</time>
      </trkpt>
      <trkpt lat="44.99265" lon="3.88415">
        <ele>712.8</ele>
        <time>2025-04-15T15:49:58.882Z</time>
      </trkpt>
      <trkpt lat="44.99292" lon="3.88434">
        <ele>714.42</ele>
        <time>2025-04-15T15:50:05.431Z</time>
      </trkpt>
      <trkpt lat="44.99319" lon="3.88453">
        <ele>715.96</ele>
        <time>2025-04-15T15:50:11.985Z</time>
      </trkpt>
      <trkpt lat="44.99346" lon="3.88472">
        <ele>717.58</ele>
        <time>2025-04-15T15:50:18.544Z</time>
      </trkpt>
      <trkpt lat="44.99373" lon="3.88491">
        <ele>719.24</ele>
        <time>2025-04-15T15:50:25.108Z</time>
      </trkpt>
      <trkpt lat="44.99386" lon="3.88507">
        <ele>720.91</ele>
        <time>2025-04-15T15:50:31.674Z</time>
      </trkpt>
      <trkpt lat="44.99399" lon="3.88523">
        <ele>722.66</ele>
        <time>2025-04-15T15:50:38.243Z</time>
      </trkpt>
      <trkpt lat="44.99415" lon="3.8855">
        <ele>724.38</ele>
        <time>2025-04-15T15:50:44.816Z</time>
      </trkpt>
      <trkpt lat="44.99431" lon="3.88576">
        <ele>726.12</ele>
        <time>2025-04-15T15:50:51.393Z</time>
      </trkpt>
      <trkpt lat="44.99446" lon="3.88603">
        <ele>727.92</ele>
        <time>2025-04-15T15:50:57.974Z</time>
      </trkpt>
      <trkpt lat="44.9947" lon="3.88629">
        <ele>729.84</ele>
        <time>2025-04-15T15:51:04.560Z</time>
      </trkpt>
      <trkpt lat="44.99481" lon="3.88635">
        <ele>731.74</ele>
        <time>2025-04-15T15:51:11.148Z</time>
      </trkpt>
      <trkpt lat="44.995" lon="3.88637">
        <ele>733.81</ele>
        <time>2025-04-15T15:51:17.739Z</time>
      </trkpt>
      <trkpt lat="44.99519" lon="3.88639">
        <ele>735.88</ele>
        <time>2025-04-15T15:51:24.333Z</time>
      </trkpt>
      <trkpt lat="44.99541" lon="3.88652">
        <ele>737.85</ele>
        <time>2025-04-15T15:51:30.931Z</time>
      </trkpt>
      <trkpt lat="44.99562" lon="3.88665">
        <ele>739.72</ele>
        <time>2025-04-15T15:51:37.532Z</time>
      </trkpt>
      <trkpt lat="44.99577" lon="3.88669">
        <ele>741.53</ele>
        <time>2025-04-15T15:51:44.136Z</time>
      </trkpt>
      <trkpt lat="44.9959" lon="3.88669">
        <ele>743.29</ele>
        <time>2025-04-15T15:51:50.742Z</time>
      </trkpt>
      <trkpt lat="44.99605" lon="3.88661">
        <ele>745.04</ele>
        <time>2025-04-15T15:51:57.350Z</time>
      </trkpt>
      <trkpt lat="44.9962" lon="3.88639">
        <ele>746.86</ele>
        <time>2025-04-15T15:52:03.962Z</time>
      </trkpt>
      <trkpt lat="44.99635" lon="3.88616">
        <ele>748.52</ele>
        <time>2025-04-15T15:52:10.577Z</time>
      </trkpt>
      <trkpt lat="44.9965" lon="3.88594">
        <ele>750.12</ele>
        <time>2025-04-15T15:52:17.196Z</time>
      </trkpt>
      <trkpt lat="44.99678" lon="3.88574">
        <ele>751.46</ele>
        <time>2025-04-15T15:52:23.820Z</time>
      </trkpt>
      <trkpt lat="44.99706" lon="3.88553">
        <ele>752.83</ele>
        <time>2025-04-15T15:52:30.449Z</time>
      </trkpt>
      <trkpt lat="44.99719" lon="3.88536">
        <ele>754.22</ele>
        <time>2025-04-15T15:52:37.081Z</time>
      </trkpt>
      <trkpt lat="44.99732" lon="3.88519">
        <ele>755.48</ele>
        <time>2025-04-15T15:52:43.716Z</time>
      </trkpt>
      <trkpt lat="44.99754" lon="3.88504">
        <ele>756.65</ele>
        <time>2025-04-15T15:52:50.355Z</time>
      </trkpt>
      <trkpt lat="44.99777" lon="3.88489">
        <ele>757.94</ele>
        <time>2025-04-15T15:52:56.998Z</time>
      </trkpt>
      <trkpt lat="44.99793" lon="3.88485">
        <ele>759.1</ele>
        <time>2025-04-15T15:53:03.643Z</time>
      </trkpt>
      <trkpt lat="44.99809" lon="3.8848">
        <ele>760.16</ele>
        <time>2025-04-15T15:53:10.291Z</time>
      </trkpt>
      <trkpt lat="44.99832" lon="3.8848">
        <ele>761.07</ele>
        <time>2025-04-15T15:53:16.942Z</time>
      </trkpt>
      <trkpt lat="44.99854" lon="3.8848">
        <ele>761.93</ele>
        <time>2025-04-15T15:53:23.597Z</time>
      </trkpt>
      <trkpt lat="44.99882" lon="3.88474">
        <ele>762.86</ele>
        <time>2025-04-15T15:53:30.257Z</time>
      </trkpt>
      <trkpt lat="44.99906" lon="3.88457">
        <ele>763.72</ele>
        <time>2025-04-15T15:53:36.921Z</time>
      </trkpt>
      <trkpt lat="44.9992" lon="3.88428">
        <ele>764.54</ele>
        <time>2025-04-15T15:53:43.589Z</time>
      </trkpt>
      <trkpt lat="44.99934" lon="3.884">
        <ele>765.25</ele>
        <time>2025-04-15T15:53:50.261Z</time>
      </trkpt>
      <trkpt lat="44.99949" lon="3.88371">
        <ele>765.89</ele>
        <time>2025-04-15T15:53:56.937Z</time>
      </trkpt>
      <trkpt lat="44.9997" lon="3.88339">
        <ele>766.2</ele>
        <time>2025-04-15T15:54:03.618Z</time>
      </trkpt>
      <trkpt lat="44.99983" lon="3.88326">
        <ele>766.37</ele>
        <time>2025-04-15T15:54:10.301Z</time>
      </trkpt>
      <trkpt lat="44.99996" lon="3.88313">
        <ele>766.52</ele>
        <time>2025-04-15T15:54:16.987Z</time>
      </trkpt>
      <trkpt lat="45.00012" lon="3.88306">
        <ele>766.5</ele>
        <time>2025-04-15T15:54:23.675Z</time>
      </trkpt>
      <trkpt lat="45.00028" lon="3.88298">
        <ele>766.36</ele>
        <time>2025-04-15T15:54:30.366Z</time>
      </trkpt>
      <trkpt lat="45.00056" lon="3.88294">
        <ele>766.54</ele>
        <time>2025-04-15T15:54:37.062Z</time>
      </trkpt>
      <trkpt lat="45.00079" lon="3.883">
        <ele>766.54</ele>
        <time>2025-04-15T15:54:43.762Z</time>
      </trkpt>
      <trkpt lat="45.00079" lon="3.883">
        <ele>766.51</ele>
        <time>2025-04-15T15:54:50.462Z</time>
      </trkpt>
      <trkpt lat="45.00099" lon="3.8832">
        <ele>766.34</ele>
        <time>2025-04-15T15:54:57.165Z</time>
      </trkpt>
      <trkpt lat="45.00118" lon="3.88339">
        <ele>766.21</ele>
        <time>2025-04-15T15:55:03.872Z</time>
      </trkpt>
      <trkpt lat="45.00135" lon="3.88347">
        <ele>766.21</ele>
        <time>2025-04-15T15:55:10.582Z</time>
      </trkpt>
      <trkpt lat="45.00162" lon="3.88353">
        <ele>766.34</ele>
        <time>2025-04-15T15:55:17.296Z</time>
      </trkpt>
      <trkpt lat="45.00189" lon="3.88358">
        <ele>766.46</ele>
        <time>2025-04-15T15:55:24.015Z</time>
      </trkpt>
      <trkpt lat="45.00209" lon="3.88367">
        <ele>766.48</ele>
        <time>2025-04-15T15:55:30.737Z</time>
      </trkpt>
      <trkpt lat="45.00229" lon="3.88377">
        <ele>766.61</ele>
        <time>2025-04-15T15:55:37.462Z</time>
      </trkpt>
      <trkpt lat="45.00249" lon="3.88386">
        <ele>766.78</ele>
        <time>2025-04-15T15:55:44.191Z</time>
      </trkpt>
      <trkpt lat="45.00258" lon="3.88392">
        <ele>766.88</ele>
        <time>2025-04-15T15:55:50.921Z</time>
      </trkpt>
      <trkpt lat="45.00266" lon="3.88405">
        <ele>766.97</ele>
        <time>2025-04-15T15:55:57.653Z</time>
      </trkpt>
      <trkpt lat="45.00279" lon="3.88442">
        <ele>766.94</ele>
        <time>2025-04-15T15:56:04.390Z</time>
      </trkpt>
      <trkpt lat="45.00292" lon="3.88478">
        <ele>766.99</ele>
        <time>2025-04-15T15:56:11.132Z</time>
      </trkpt>
      <trkpt lat="45.00309" lon="3.88493">
        <ele>767.52</ele>
        <time>2025-04-15T15:56:17.877Z</time>
      </trkpt>
      <trkpt lat="45.00333" lon="3.88502">
        <ele>768.22</ele>
        <time>2025-04-15T15:56:24.626Z</time>
      </trkpt>
      <trkpt lat="45.00358" lon="3.88511">
        <ele>768.92</ele>
        <time>2025-04-15T15:56:31.379Z</time>
      </trkpt>
      <trkpt lat="45.00382" lon="3.8852">
        <ele>769.66</ele>
        <time>2025-04-15T15:56:38.136Z</time>
      </trkpt>
      <trkpt lat="45.00407" lon="3.88529">
        <ele>770.49</ele>
        <time>2025-04-15T15:56:44.897Z</time>
      </trkpt>
      <trkpt lat="45.00431" lon="3.88538">
        <ele>771.43</ele>
        <time>2025-04-15T15:56:51.662Z</time>
      </trkpt>
      <trkpt lat="45.00431" lon="3.88538">
        <ele>772.64</ele>
        <time>2025-04-15T15:56:58.427Z</time>
      </trkpt>
      <trkpt lat="45.00461" lon="3.88546">
        <ele>774.15</ele>
        <time>2025-04-15T15:57:05.197Z</time>
      </trkpt>
      <trkpt lat="45.0049" lon="3.88554">
        <ele>775.83</ele>
        <time>2025-04-15T15:57:11.972Z</time>
      </trkpt>
      <trkpt lat="45.00519" lon="3.88562">
        <ele>777.51</ele>
        <time>2025-04-15T15:57:18.751Z</time>
      </trkpt>
      <trkpt lat="45.00549" lon="3.88573">
        <ele>779.25</ele>
        <time>2025-04-15T15:57:25.535Z</time>
      </trkpt>
      <trkpt lat="45.00568" lon="3.88586">
        <ele>780.81</ele>
        <time>2025-04-15T15:57:32.323Z</time>
      </trkpt>
      <trkpt lat="45.00586" lon="3.88598">
        <ele>782.42</ele>
        <time>2025-04-15T15:57:39.114Z</time>
      </trkpt>
      <trkpt lat="45.00608" lon="3.88601">
        <ele>784.31</ele>
        <time>2025-04-15T15:57:45.908Z</time>
      </trkpt>
      <trkpt lat="45.0063" lon="3.88603">
        <ele>786.2</ele>
        <time>2025-04-15T15:57:52.706Z</time>
      </trkpt>
      <trkpt lat="45.00652" lon="3.88605">
        <ele>787.97</ele>
        <time>2025-04-15T15:57:59.508Z</time>
      </trkpt>
      <trkpt lat="45.00667" lon="3.8862">
        <ele>789.52</ele>
        <time>2025-04-15T15:58:06.313Z</time>
      </trkpt>
      <trkpt lat="45.00682" lon="3.88635">
        <ele>790.95</ele>
        <time>2025-04-15T15:58:13.120Z</time>
      </trkpt>
      <trkpt lat="45.00702" lon="3.88669">
        <ele>791.97</ele>
        <time>2025-04-15T15:58:19.932Z</time>
      </trkpt>
      <trkpt lat="45.00719" lon="3.88705">
        <ele>792.62</ele>
        <time>2025-04-15T15:58:26.749Z</time>
      </trkpt>
      <trkpt lat="45.00736" lon="3.88741">
        <ele>793.56</ele>
        <time>2025-04-15T15:58:33.571Z</time>
      </trkpt>
      <trkpt lat="45.00753" lon="3.88777">
        <ele>794.71</ele>
        <time>2025-04-15T15:58:40.398Z</time>
      </trkpt>
      <trkpt lat="45.0077" lon="3.88813">
        <ele>795.63</ele>
        <time>2025-04-15T15:58:47.230Z</time>
      </trkpt>
      <trkpt lat="45.00781" lon="3.88852">
        <ele>796.45</ele>
        <time>2025-04-15T15:58:54.067Z</time>
      </trkpt>
      <trkpt lat="45.00783" lon="3.88875">
        <ele>796.9</ele>
        <time>2025-04-15T15:59:00.907Z</time>
      </trkpt>
      <trkpt lat="45.00779" lon="3.88895">
        <ele>797.05</ele>
        <time>2025-04-15T15:59:07.749Z</time>
      </trkpt>
      <trkpt lat="45.0077" lon="3.88918">
        <ele>797.01</ele>
        <time>2025-04-15T15:59:14.594Z</time>
      </trkpt>
      <trkpt lat="45.00762" lon="3.88942">
        <ele>797.17</ele>
        <time>2025-04-15T15:59:21.442Z</time>
      </trkpt>
      <trkpt lat="45.00764" lon="3.88965">
        <ele>797.59</ele>
        <time>2025-04-15T15:59:28.293Z</time>
      </trkpt>
      <trkpt lat="45.00775" lon="3.88991">
        <ele>798.06</ele>
        <time>2025-04-15T15:59:35.147Z</time>
      </trkpt>
      <trkpt lat="45.0079" lon="3.89016">
        <ele>798.53</ele>
        <time>2025-04-15T15:59:42.005Z</time>
      </trkpt>
      <trkpt lat="45.00806" lon="3.8904">
        <ele>799</ele>
        <time>2025-04-15T15:59:48.866Z</time>
      </trkpt>
      <trkpt lat="45.00822" lon="3.89064">
        <ele>799.37</ele>
        <time>2025-04-15T15:59:55.731Z</time>
      </trkpt>
      <trkpt lat="45.00836" lon="3.89093">
        <ele>799.83</ele>
        <time>2025-04-15T16:00:02.600Z</time>
      </trkpt>
      <trkpt lat="45.00851" lon="3.89122">
        <ele>800.03</ele>
        <time>2025-04-15T16:00:09.473Z</time>
      </trkpt>
      <trkpt lat="45.00861" lon="3.89141">
        <ele>800.03</ele>
        <time>2025-04-15T16:00:16.349Z</time>
      </trkpt>
      <trkpt lat="45.00876" lon="3.8918">
        <ele>800.15</ele>
        <time>2025-04-15T16:00:23.230Z</time>
      </trkpt>
      <trkpt lat="45.00881" lon="3.89217">
        <ele>800.14</ele>
        <time>2025-04-15T16:00:30.115Z</time>
      </trkpt>
      <trkpt lat="45.00886" lon="3.89253">
        <ele>800.16</ele>
        <time>2025-04-15T16:00:37.004Z</time>
      </trkpt>
      <trkpt lat="45.00893" lon="3.89281">
        <ele>800.38</ele>
        <time>2025-04-15T16:00:43.897Z</time>
      </trkpt>
      <trkpt lat="45.00907" lon="3.89304">
        <ele>800.89</ele>
        <time>2025-04-15T16:00:50.793Z</time>
      </trkpt>
      <trkpt lat="45.00921" lon="3.89327">
        <ele>801.34</ele>
        <time>2025-04-15T16:00:57.693Z</time>
      </trkpt>
      <trkpt lat="45.00936" lon="3.8935">
        <ele>801.85</ele>
        <time>2025-04-15T16:01:04.596Z</time>
      </trkpt>
      <trkpt lat="45.00936" lon="3.8935">
        <ele>802.24</ele>
        <time>2025-04-15T16:01:11.499Z</time>
      </trkpt>
      <trkpt lat="45.00946" lon="3.89367">
        <ele>802.83</ele>
        <time>2025-04-15T16:01:18.405Z</time>
      </trkpt>
      <trkpt lat="45.00957" lon="3.89384">
        <ele>803.29</ele>
        <time>2025-04-15T16:01:25.313Z</time>
      </trkpt>
      <trkpt lat="45.0097" lon="3.89418">
        <ele>803.58</ele>
        <time>2025-04-15T16:01:32.226Z</time>
      </trkpt>
      <trkpt lat="45.00985" lon="3.89455">
        <ele>803.8</ele>
        <time>2025-04-15T16:01:39.143Z</time>
      </trkpt>
      <trkpt lat="45.01" lon="3.89491">
        <ele>803.64</ele>
        <time>2025-04-15T16:01:46.065Z</time>
      </trkpt>
      <trkpt lat="45.01012" lon="3.89518">
        <ele>803.65</ele>
        <time>2025-04-15T16:01:52.991Z</time>
      </trkpt>
      <trkpt lat="45.01024" lon="3.89545">
        <ele>803.68</ele>
        <time>2025-04-15T16:01:59.920Z</time>
      </trkpt>
      <trkpt lat="45.01041" lon="3.89573">
        <ele>803.74</ele>
        <time>2025-04-15T16:02:06.854Z</time>
      </trkpt>
      <trkpt lat="45.01057" lon="3.89597">
        <ele>803.63</ele>
        <time>2025-04-15T16:02:13.791Z</time>
      </trkpt>
      <trkpt lat="45.01073" lon="3.89622">
        <ele>803.41</ele>
        <time>2025-04-15T16:02:20.732Z</time>
      </trkpt>
      <trkpt lat="45.01091" lon="3.89635">
        <ele>803.28</ele>
        <time>2025-04-15T16:02:27.676Z</time>
      </trkpt>
      <trkpt lat="45.01109" lon="3.89648">
        <ele>803.03</ele>
        <time>2025-04-15T16:02:34.624Z</time>
      </trkpt>
      <trkpt lat="45.0112" lon="3.89652">
        <ele>802.83</ele>
        <time>2025-04-15T16:02:41.574Z</time>
      </trkpt>
      <trkpt lat="45.01133" lon="3.89661">
        <ele>802.61</ele>
        <time>2025-04-15T16:02:48.526Z</time>
      </trkpt>
      <trkpt lat="45.01146" lon="3.89684">
        <ele>802.35</ele>
        <time>2025-04-15T16:02:55.481Z</time>
      </trkpt>
      <trkpt lat="45.01157" lon="3.89676">
        <ele>802.32</ele>
        <time>2025-04-15T16:03:02.438Z</time>
      </trkpt>
      <trkpt lat="45.01182" lon="3.89665">
        <ele>802.33</ele>
        <time>2025-04-15T16:03:09.399Z</time>
      </trkpt>
      <trkpt lat="45.012" lon="3.89663">
        <ele>802.06</ele>
        <time>2025-04-15T16:03:16.363Z</time>
      </trkpt>
      <trkpt lat="45.01217" lon="3.89661">
        <ele>801.84</ele>
        <time>2025-04-15T16:03:23.330Z</time>
      </trkpt>
      <trkpt lat="45.01239" lon="3.89657">
        <ele>801.78</ele>
        <time>2025-04-15T16:03:30.301Z</time>
      </trkpt>
      <trkpt lat="45.01261" lon="3.89653">
        <ele>801.98</ele>
        <time>2025-04-15T16:03:37.275Z</time>
      </trkpt>
      <trkpt lat="45.01283" lon="3.8965">
        <ele>802.36</ele>
        <time>2025-04-15T16:03:44.253Z</time>
      </trkpt>
      <trkpt lat="45.01269" lon="3.89613">
        <ele>803.29</ele>
        <time>2025-04-15T16:03:51.235Z</time>
      </trkpt>
      <trkpt lat="45.01255" lon="3.89577">
        <ele>804.1</ele>
        <time>2025-04-15T16:03:58.222Z</time>
      </trkpt>
      <trkpt lat="45.01251" lon="3.89577">
        <ele>804.35</ele>
        <time>2025-04-15T16:04:05.210Z</time>
      </trkpt>
      <trkpt lat="45.01224" lon="3.89598">
        <ele>804.52</ele>
        <time>2025-04-15T16:04:12.203Z</time>
      </trkpt>
    </trkseg>
  </trk>
  <trk>
    <name><![CDATA[LANGOGNE-LE PUY Route]]></name>
    <extensions>
      <line xmlns="http://www.topografix.com/GPX/gpx_style/0/2">
        <color>FF0000</color>
        <width>4</width>
      </line>
    </extensions>
    <trkseg>
      <trkpt lat="44.73255" lon="3.85715">
        <ele>914.15</ele>
        <time>2025-04-15T14:17:49.000Z</time>
      </trkpt>
      <trkpt lat="44.73227" lon="3.85698">
        <ele>914.84</ele>
        <time>2025-04-15T14:17:49.005Z</time>
      </trkpt>
      <trkpt lat="44.73199" lon="3.85682">
        <ele>915.67</ele>
        <time>2025-04-15T14:17:49.015Z</time>
      </trkpt>
      <trkpt lat="44.73196" lon="3.8568">
        <ele>916.26</ele>
        <time>2025-04-15T14:17:49.025Z</time>
      </trkpt>
      <trkpt lat="44.73193" lon="3.85678">
        <ele>916.73</ele>
        <time>2025-04-15T14:17:49.036Z</time>
      </trkpt>
      <trkpt lat="44.73167" lon="3.85665">
        <ele>917.28</ele>
        <time>2025-04-15T14:17:49.051Z</time>
      </trkpt>
      <trkpt lat="44.73141" lon="3.85652">
        <ele>917.76</ele>
        <time>2025-04-15T14:17:49.071Z</time>
      </trkpt>
      <trkpt lat="44.73125" lon="3.85645">
        <ele>918.08</ele>
        <time>2025-04-15T14:17:49.093Z</time>
      </trkpt>
      <trkpt lat="44.73109" lon="3.85637">
        <ele>918.36</ele>
        <time>2025-04-15T14:17:49.118Z</time>
      </trkpt>
      <trkpt lat="44.73105" lon="3.85635">
        <ele>918.64</ele>
        <time>2025-04-15T14:17:49.144Z</time>
      </trkpt>
      <trkpt lat="44.73088" lon="3.85629">
        <ele>918.93</ele>
        <time>2025-04-15T14:17:49.173Z</time>
      </trkpt>
      <trkpt lat="44.73067" lon="3.85626">
        <ele>919.23</ele>
        <time>2025-04-15T14:17:49.205Z</time>
      </trkpt>
      <trkpt lat="44.73047" lon="3.85622">
        <ele>919.52</ele>
        <time>2025-04-15T14:17:49.240Z</time>
      </trkpt>
      <trkpt lat="44.73027" lon="3.85613">
        <ele>919.94</ele>
        <time>2025-04-15T14:17:49.279Z</time>
      </trkpt>
      <trkpt lat="44.73006" lon="3.85603">
        <ele>920.52</ele>
        <time>2025-04-15T14:17:49.321Z</time>
      </trkpt>
      <trkpt lat="44.72998" lon="3.85594">
        <ele>921.27</ele>
        <time>2025-04-15T14:17:49.365Z</time>
      </trkpt>
      <trkpt lat="44.73" lon="3.85579">
        <ele>922.38</ele>
        <time>2025-04-15T14:17:49.410Z</time>
      </trkpt>
      <trkpt lat="44.73011" lon="3.85558">
        <ele>923.75</ele>
        <time>2025-04-15T14:17:49.458Z</time>
      </trkpt>
      <trkpt lat="44.73023" lon="3.85541">
        <ele>925.2</ele>
        <time>2025-04-15T14:17:49.509Z</time>
      </trkpt>
      <trkpt lat="44.73036" lon="3.85524">
        <ele>926.87</ele>
        <time>2025-04-15T14:17:49.563Z</time>
      </trkpt>
      <trkpt lat="44.73054" lon="3.85498">
        <ele>928.84</ele>
        <time>2025-04-15T14:17:49.621Z</time>
      </trkpt>
      <trkpt lat="44.73071" lon="3.85472">
        <ele>930.86</ele>
        <time>2025-04-15T14:17:49.683Z</time>
      </trkpt>
      <trkpt lat="44.73077" lon="3.85459">
        <ele>932.99</ele>
        <time>2025-04-15T14:17:49.747Z</time>
      </trkpt>
      <trkpt lat="44.73066" lon="3.85442">
        <ele>935.32</ele>
        <time>2025-04-15T14:17:49.814Z</time>
      </trkpt>
      <trkpt lat="44.73056" lon="3.85425">
        <ele>937.81</ele>
        <time>2025-04-15T14:17:49.883Z</time>
      </trkpt>
      <trkpt lat="44.73046" lon="3.85397">
        <ele>940.39</ele>
        <time>2025-04-15T14:17:49.956Z</time>
      </trkpt>
      <trkpt lat="44.73036" lon="3.85369">
        <ele>942.87</ele>
        <time>2025-04-15T14:17:50.032Z</time>
      </trkpt>
      <trkpt lat="44.73031" lon="3.85335">
        <ele>945.25</ele>
        <time>2025-04-15T14:17:50.112Z</time>
      </trkpt>
      <trkpt lat="44.73025" lon="3.853">
        <ele>947.63</ele>
        <time>2025-04-15T14:17:50.196Z</time>
      </trkpt>
      <trkpt lat="44.73019" lon="3.85266">
        <ele>950.19</ele>
        <time>2025-04-15T14:17:50.284Z</time>
      </trkpt>
      <trkpt lat="44.73021" lon="3.85233">
        <ele>952.94</ele>
        <time>2025-04-15T14:17:50.376Z</time>
      </trkpt>
      <trkpt lat="44.73023" lon="3.852">
        <ele>955.8</ele>
        <time>2025-04-15T14:17:50.472Z</time>
      </trkpt>
      <trkpt lat="44.73019" lon="3.85163">
        <ele>958.65</ele>
        <time>2025-04-15T14:17:50.572Z</time>
      </trkpt>
      <trkpt lat="44.73006" lon="3.85137">
        <ele>961.23</ele>
        <time>2025-04-15T14:17:50.676Z</time>
      </trkpt>
      <trkpt lat="44.72993" lon="3.8511">
        <ele>963.71</ele>
        <time>2025-04-15T14:17:50.783Z</time>
      </trkpt>
      <trkpt lat="44.72981" lon="3.85084">
        <ele>966.02</ele>
        <time>2025-04-15T14:17:50.894Z</time>
      </trkpt>
      <trkpt lat="44.72971" lon="3.85056">
        <ele>968.12</ele>
        <time>2025-04-15T14:17:51.009Z</time>
      </trkpt>
      <trkpt lat="44.7296" lon="3.85028">
        <ele>970.09</ele>
        <time>2025-04-15T14:17:51.127Z</time>
      </trkpt>
      <trkpt lat="44.72951" lon="3.85">
        <ele>971.94</ele>
        <time>2025-04-15T14:17:51.249Z</time>
      </trkpt>
      <trkpt lat="44.72955" lon="3.84973">
        <ele>973.71</ele>
        <time>2025-04-15T14:17:51.374Z</time>
      </trkpt>
      <trkpt lat="44.72959" lon="3.84946">
        <ele>975.39</ele>
        <time>2025-04-15T14:17:51.502Z</time>
      </trkpt>
      <trkpt lat="44.72966" lon="3.84912">
        <ele>977.11</ele>
        <time>2025-04-15T14:17:51.634Z</time>
      </trkpt>
      <trkpt lat="44.72972" lon="3.84878">
        <ele>978.83</ele>
        <time>2025-04-15T14:17:51.770Z</time>
      </trkpt>
      <trkpt lat="44.72978" lon="3.84843">
        <ele>980.56</ele>
        <time>2025-04-15T14:17:51.910Z</time>
      </trkpt>
      <trkpt lat="44.72985" lon="3.84816">
        <ele>982.24</ele>
        <time>2025-04-15T14:17:52.054Z</time>
      </trkpt>
      <trkpt lat="44.72985" lon="3.84816">
        <ele>983.68</ele>
        <time>2025-04-15T14:17:52.198Z</time>
      </trkpt>
      <trkpt lat="44.72992" lon="3.8478">
        <ele>985.29</ele>
        <time>2025-04-15T14:17:52.346Z</time>
      </trkpt>
      <trkpt lat="44.73" lon="3.84745">
        <ele>986.86</ele>
        <time>2025-04-15T14:17:52.498Z</time>
      </trkpt>
      <trkpt lat="44.73003" lon="3.84721">
        <ele>988.32</ele>
        <time>2025-04-15T14:17:52.653Z</time>
      </trkpt>
      <trkpt lat="44.73006" lon="3.84697">
        <ele>989.65</ele>
        <time>2025-04-15T14:17:52.810Z</time>
      </trkpt>
      <trkpt lat="44.73003" lon="3.8466">
        <ele>990.88</ele>
        <time>2025-04-15T14:17:52.972Z</time>
      </trkpt>
      <trkpt lat="44.73" lon="3.84622">
        <ele>992.01</ele>
        <time>2025-04-15T14:17:53.138Z</time>
      </trkpt>
      <trkpt lat="44.73006" lon="3.84592">
        <ele>993.02</ele>
        <time>2025-04-15T14:17:53.308Z</time>
      </trkpt>
      <trkpt lat="44.73011" lon="3.84561">
        <ele>993.93</ele>
        <time>2025-04-15T14:17:53.481Z</time>
      </trkpt>
      <trkpt lat="44.73017" lon="3.8453">
        <ele>994.73</ele>
        <time>2025-04-15T14:17:53.658Z</time>
      </trkpt>
      <trkpt lat="44.73025" lon="3.84505">
        <ele>995.47</ele>
        <time>2025-04-15T14:17:53.838Z</time>
      </trkpt>
      <trkpt lat="44.73032" lon="3.84481">
        <ele>996.08</ele>
        <time>2025-04-15T14:17:54.021Z</time>
      </trkpt>
      <trkpt lat="44.73036" lon="3.84468">
        <ele>996.62</ele>
        <time>2025-04-15T14:17:54.206Z</time>
      </trkpt>
      <trkpt lat="44.73049" lon="3.84432">
        <ele>997.06</ele>
        <time>2025-04-15T14:17:54.395Z</time>
      </trkpt>
      <trkpt lat="44.73062" lon="3.84396">
        <ele>997.51</ele>
        <time>2025-04-15T14:17:54.589Z</time>
      </trkpt>
      <trkpt lat="44.73075" lon="3.8436">
        <ele>997.92</ele>
        <time>2025-04-15T14:17:54.788Z</time>
      </trkpt>
      <trkpt lat="44.73088" lon="3.84323">
        <ele>998.27</ele>
        <time>2025-04-15T14:17:54.991Z</time>
      </trkpt>
      <trkpt lat="44.73101" lon="3.84288">
        <ele>998.43</ele>
        <time>2025-04-15T14:17:55.199Z</time>
      </trkpt>
      <trkpt lat="44.73111" lon="3.84263">
        <ele>998.54</ele>
        <time>2025-04-15T14:17:55.410Z</time>
      </trkpt>
      <trkpt lat="44.73122" lon="3.84238">
        <ele>998.64</ele>
        <time>2025-04-15T14:17:55.624Z</time>
      </trkpt>
      <trkpt lat="44.73126" lon="3.84232">
        <ele>998.72</ele>
        <time>2025-04-15T14:17:55.839Z</time>
      </trkpt>
      <trkpt lat="44.73133" lon="3.84213">
        <ele>998.72</ele>
        <time>2025-04-15T14:17:56.057Z</time>
      </trkpt>
      <trkpt lat="44.73133" lon="3.84213">
        <ele>998.68</ele>
        <time>2025-04-15T14:17:56.275Z</time>
      </trkpt>
      <trkpt lat="44.7315" lon="3.84176">
        <ele>998.68</ele>
        <time>2025-04-15T14:17:56.498Z</time>
      </trkpt>
      <trkpt lat="44.73167" lon="3.8414">
        <ele>998.49</ele>
        <time>2025-04-15T14:17:56.726Z</time>
      </trkpt>
      <trkpt lat="44.73187" lon="3.84105">
        <ele>998.27</ele>
        <time>2025-04-15T14:17:56.959Z</time>
      </trkpt>
      <trkpt lat="44.732" lon="3.84084">
        <ele>998.08</ele>
        <time>2025-04-15T14:17:57.195Z</time>
      </trkpt>
      <trkpt lat="44.73214" lon="3.84062">
        <ele>997.8</ele>
        <time>2025-04-15T14:17:57.434Z</time>
      </trkpt>
      <trkpt lat="44.73229" lon="3.84045">
        <ele>997.33</ele>
        <time>2025-04-15T14:17:57.676Z</time>
      </trkpt>
      <trkpt lat="44.73244" lon="3.84028">
        <ele>996.77</ele>
        <time>2025-04-15T14:17:57.922Z</time>
      </trkpt>
      <trkpt lat="44.73244" lon="3.84004">
        <ele>995.94</ele>
        <time>2025-04-15T14:17:58.170Z</time>
      </trkpt>
      <trkpt lat="44.7327" lon="3.83993">
        <ele>995.29</ele>
        <time>2025-04-15T14:17:58.422Z</time>
      </trkpt>
      <trkpt lat="44.73295" lon="3.83982">
        <ele>994.53</ele>
        <time>2025-04-15T14:17:58.679Z</time>
      </trkpt>
      <trkpt lat="44.73321" lon="3.83971">
        <ele>993.62</ele>
        <time>2025-04-15T14:17:58.940Z</time>
      </trkpt>
      <trkpt lat="44.73346" lon="3.8396">
        <ele>992.54</ele>
        <time>2025-04-15T14:17:59.205Z</time>
      </trkpt>
      <trkpt lat="44.73371" lon="3.83949">
        <ele>991.38</ele>
        <time>2025-04-15T14:17:59.474Z</time>
      </trkpt>
      <trkpt lat="44.73397" lon="3.83938">
        <ele>989.94</ele>
        <time>2025-04-15T14:17:59.748Z</time>
      </trkpt>
      <trkpt lat="44.73426" lon="3.83921">
        <ele>988.6</ele>
        <time>2025-04-15T14:18:00.027Z</time>
      </trkpt>
      <trkpt lat="44.73455" lon="3.83904">
        <ele>987.21</ele>
        <time>2025-04-15T14:18:00.311Z</time>
      </trkpt>
      <trkpt lat="44.73481" lon="3.83882">
        <ele>985.64</ele>
        <time>2025-04-15T14:18:00.600Z</time>
      </trkpt>
      <trkpt lat="44.73504" lon="3.83857">
        <ele>983.97</ele>
        <time>2025-04-15T14:18:00.893Z</time>
      </trkpt>
      <trkpt lat="44.73528" lon="3.83832">
        <ele>982.27</ele>
        <time>2025-04-15T14:18:01.191Z</time>
      </trkpt>
      <trkpt lat="44.73551" lon="3.83807">
        <ele>980.58</ele>
        <time>2025-04-15T14:18:01.494Z</time>
      </trkpt>
      <trkpt lat="44.73575" lon="3.83782">
        <ele>978.74</ele>
        <time>2025-04-15T14:18:01.802Z</time>
      </trkpt>
      <trkpt lat="44.73599" lon="3.83757">
        <ele>976.84</ele>
        <time>2025-04-15T14:18:02.114Z</time>
      </trkpt>
      <trkpt lat="44.73622" lon="3.83732">
        <ele>975.19</ele>
        <time>2025-04-15T14:18:02.431Z</time>
      </trkpt>
      <trkpt lat="44.73622" lon="3.83732">
        <ele>973.46</ele>
        <time>2025-04-15T14:18:02.748Z</time>
      </trkpt>
      <trkpt lat="44.73645" lon="3.83708">
        <ele>971.82</ele>
        <time>2025-04-15T14:18:03.070Z</time>
      </trkpt>
      <trkpt lat="44.73668" lon="3.83684">
        <ele>969.98</ele>
        <time>2025-04-15T14:18:03.396Z</time>
      </trkpt>
      <trkpt lat="44.7369" lon="3.8366">
        <ele>968.14</ele>
        <time>2025-04-15T14:18:03.727Z</time>
      </trkpt>
      <trkpt lat="44.73713" lon="3.83636">
        <ele>966.28</ele>
        <time>2025-04-15T14:18:04.062Z</time>
      </trkpt>
      <trkpt lat="44.73736" lon="3.83612">
        <ele>964.47</ele>
        <time>2025-04-15T14:18:04.402Z</time>
      </trkpt>
      <trkpt lat="44.73755" lon="3.83582">
        <ele>962.62</ele>
        <time>2025-04-15T14:18:04.746Z</time>
      </trkpt>
      <trkpt lat="44.73775" lon="3.83552">
        <ele>960.76</ele>
        <time>2025-04-15T14:18:05.095Z</time>
      </trkpt>
      <trkpt lat="44.73794" lon="3.83522">
        <ele>958.89</ele>
        <time>2025-04-15T14:18:05.449Z</time>
      </trkpt>
      <trkpt lat="44.73813" lon="3.83492">
        <ele>957.07</ele>
        <time>2025-04-15T14:18:05.807Z</time>
      </trkpt>
      <trkpt lat="44.73813" lon="3.83492">
        <ele>955.46</ele>
        <time>2025-04-15T14:18:06.165Z</time>
      </trkpt>
      <trkpt lat="44.73833" lon="3.8346">
        <ele>953.61</ele>
        <time>2025-04-15T14:18:06.528Z</time>
      </trkpt>
      <trkpt lat="44.73853" lon="3.83429">
        <ele>951.95</ele>
        <time>2025-04-15T14:18:06.896Z</time>
      </trkpt>
      <trkpt lat="44.73873" lon="3.83398">
        <ele>950.47</ele>
        <time>2025-04-15T14:18:07.269Z</time>
      </trkpt>
      <trkpt lat="44.73893" lon="3.83367">
        <ele>949.12</ele>
        <time>2025-04-15T14:18:07.646Z</time>
      </trkpt>
      <trkpt lat="44.73906" lon="3.83349">
        <ele>947.86</ele>
        <time>2025-04-15T14:18:08.026Z</time>
      </trkpt>
      <trkpt lat="44.7392" lon="3.83331">
        <ele>946.79</ele>
        <time>2025-04-15T14:18:08.409Z</time>
      </trkpt>
      <trkpt lat="44.73942" lon="3.83313">
        <ele>945.82</ele>
        <time>2025-04-15T14:18:08.796Z</time>
      </trkpt>
      <trkpt lat="44.7395" lon="3.83309">
        <ele>945.01</ele>
        <time>2025-04-15T14:18:09.185Z</time>
      </trkpt>
      <trkpt lat="44.73977" lon="3.83297">
        <ele>944.28</ele>
        <time>2025-04-15T14:18:09.578Z</time>
      </trkpt>
      <trkpt lat="44.74004" lon="3.83285">
        <ele>943.67</ele>
        <time>2025-04-15T14:18:09.976Z</time>
      </trkpt>
      <trkpt lat="44.74031" lon="3.83273">
        <ele>943.17</ele>
        <time>2025-04-15T14:18:10.378Z</time>
      </trkpt>
      <trkpt lat="44.74059" lon="3.8326">
        <ele>942.86</ele>
        <time>2025-04-15T14:18:10.785Z</time>
      </trkpt>
      <trkpt lat="44.74086" lon="3.83248">
        <ele>942.64</ele>
        <time>2025-04-15T14:18:11.197Z</time>
      </trkpt>
      <trkpt lat="44.74113" lon="3.83236">
        <ele>942.46</ele>
        <time>2025-04-15T14:18:11.613Z</time>
      </trkpt>
      <trkpt lat="44.7414" lon="3.83224">
        <ele>942.55</ele>
        <time>2025-04-15T14:18:12.034Z</time>
      </trkpt>
      <trkpt lat="44.74167" lon="3.83211">
        <ele>942.69</ele>
        <time>2025-04-15T14:18:12.459Z</time>
      </trkpt>
      <trkpt lat="44.74194" lon="3.83199">
        <ele>942.94</ele>
        <time>2025-04-15T14:18:12.889Z</time>
      </trkpt>
      <trkpt lat="44.74221" lon="3.83187">
        <ele>943.26</ele>
        <time>2025-04-15T14:18:13.323Z</time>
      </trkpt>
      <trkpt lat="44.7424" lon="3.83168">
        <ele>943.62</ele>
        <time>2025-04-15T14:18:13.761Z</time>
      </trkpt>
      <trkpt lat="44.74254" lon="3.83145">
        <ele>944.01</ele>
        <time>2025-04-15T14:18:14.202Z</time>
      </trkpt>
      <trkpt lat="44.74269" lon="3.83123">
        <ele>944.54</ele>
        <time>2025-04-15T14:18:14.647Z</time>
      </trkpt>
      <trkpt lat="44.74283" lon="3.83101">
        <ele>945.02</ele>
        <time>2025-04-15T14:18:15.095Z</time>
      </trkpt>
      <trkpt lat="44.74303" lon="3.83076">
        <ele>945.48</ele>
        <time>2025-04-15T14:18:15.548Z</time>
      </trkpt>
      <trkpt lat="44.74324" lon="3.83052">
        <ele>945.98</ele>
        <time>2025-04-15T14:18:16.005Z</time>
      </trkpt>
      <trkpt lat="44.74341" lon="3.83035">
        <ele>946.51</ele>
        <time>2025-04-15T14:18:16.465Z</time>
      </trkpt>
      <trkpt lat="44.74358" lon="3.83017">
        <ele>947.01</ele>
        <time>2025-04-15T14:18:16.929Z</time>
      </trkpt>
      <trkpt lat="44.74381" lon="3.82999">
        <ele>947.55</ele>
        <time>2025-04-15T14:18:17.397Z</time>
      </trkpt>
      <trkpt lat="44.74404" lon="3.82981">
        <ele>948.02</ele>
        <time>2025-04-15T14:18:17.869Z</time>
      </trkpt>
      <trkpt lat="44.74427" lon="3.82963">
        <ele>948.41</ele>
        <time>2025-04-15T14:18:18.345Z</time>
      </trkpt>
      <trkpt lat="44.7445" lon="3.82944">
        <ele>948.8</ele>
        <time>2025-04-15T14:18:18.826Z</time>
      </trkpt>
      <trkpt lat="44.74466" lon="3.82936">
        <ele>949.18</ele>
        <time>2025-04-15T14:18:19.309Z</time>
      </trkpt>
      <trkpt lat="44.74483" lon="3.82927">
        <ele>949.52</ele>
        <time>2025-04-15T14:18:19.795Z</time>
      </trkpt>
      <trkpt lat="44.745" lon="3.82923">
        <ele>949.87</ele>
        <time>2025-04-15T14:18:20.284Z</time>
      </trkpt>
      <trkpt lat="44.74517" lon="3.82919">
        <ele>950.19</ele>
        <time>2025-04-15T14:18:20.776Z</time>
      </trkpt>
      <trkpt lat="44.74544" lon="3.82922">
        <ele>950.54</ele>
        <time>2025-04-15T14:18:21.272Z</time>
      </trkpt>
      <trkpt lat="44.74571" lon="3.82926">
        <ele>950.8</ele>
        <time>2025-04-15T14:18:21.772Z</time>
      </trkpt>
      <trkpt lat="44.74598" lon="3.82929">
        <ele>951.04</ele>
        <time>2025-04-15T14:18:22.277Z</time>
      </trkpt>
      <trkpt lat="44.74624" lon="3.82921">
        <ele>951.22</ele>
        <time>2025-04-15T14:18:22.786Z</time>
      </trkpt>
      <trkpt lat="44.74637" lon="3.8291">
        <ele>951.25</ele>
        <time>2025-04-15T14:18:23.297Z</time>
      </trkpt>
      <trkpt lat="44.7465" lon="3.82891">
        <ele>951.26</ele>
        <time>2025-04-15T14:18:23.811Z</time>
      </trkpt>
      <trkpt lat="44.74656" lon="3.82859">
        <ele>951.1</ele>
        <time>2025-04-15T14:18:24.329Z</time>
      </trkpt>
      <trkpt lat="44.74661" lon="3.82819">
        <ele>950.82</ele>
        <time>2025-04-15T14:18:24.852Z</time>
      </trkpt>
      <trkpt lat="44.74666" lon="3.8278">
        <ele>950.51</ele>
        <time>2025-04-15T14:18:25.379Z</time>
      </trkpt>
      <trkpt lat="44.74671" lon="3.82741">
        <ele>950.22</ele>
        <time>2025-04-15T14:18:25.911Z</time>
      </trkpt>
      <trkpt lat="44.74677" lon="3.82718">
        <ele>949.89</ele>
        <time>2025-04-15T14:18:26.446Z</time>
      </trkpt>
      <trkpt lat="44.74682" lon="3.82695">
        <ele>949.45</ele>
        <time>2025-04-15T14:18:26.983Z</time>
      </trkpt>
      <trkpt lat="44.74691" lon="3.8268">
        <ele>949.05</ele>
        <time>2025-04-15T14:18:27.523Z</time>
      </trkpt>
      <trkpt lat="44.74706" lon="3.8267">
        <ele>948.68</ele>
        <time>2025-04-15T14:18:28.065Z</time>
      </trkpt>
      <trkpt lat="44.74721" lon="3.82663">
        <ele>948.28</ele>
        <time>2025-04-15T14:18:28.610Z</time>
      </trkpt>
      <trkpt lat="44.7474" lon="3.8267">
        <ele>948</ele>
        <time>2025-04-15T14:18:29.158Z</time>
      </trkpt>
      <trkpt lat="44.74753" lon="3.82674">
        <ele>947.68</ele>
        <time>2025-04-15T14:18:29.708Z</time>
      </trkpt>
      <trkpt lat="44.7476" lon="3.82673">
        <ele>947.38</ele>
        <time>2025-04-15T14:18:30.259Z</time>
      </trkpt>
      <trkpt lat="44.74764" lon="3.82672">
        <ele>947.13</ele>
        <time>2025-04-15T14:18:30.811Z</time>
      </trkpt>
      <trkpt lat="44.74772" lon="3.82657">
        <ele>946.82</ele>
        <time>2025-04-15T14:18:31.365Z</time>
      </trkpt>
      <trkpt lat="44.74777" lon="3.82618">
        <ele>946.49</ele>
        <time>2025-04-15T14:18:31.923Z</time>
      </trkpt>
      <trkpt lat="44.74783" lon="3.82579">
        <ele>946.36</ele>
        <time>2025-04-15T14:18:32.486Z</time>
      </trkpt>
      <trkpt lat="44.74788" lon="3.82541">
        <ele>946.51</ele>
        <time>2025-04-15T14:18:33.053Z</time>
      </trkpt>
      <trkpt lat="44.74793" lon="3.82502">
        <ele>946.54</ele>
        <time>2025-04-15T14:18:33.625Z</time>
      </trkpt>
      <trkpt lat="44.74798" lon="3.82463">
        <ele>946.55</ele>
        <time>2025-04-15T14:18:34.201Z</time>
      </trkpt>
      <trkpt lat="44.74804" lon="3.82425">
        <ele>946.93</ele>
        <time>2025-04-15T14:18:34.782Z</time>
      </trkpt>
      <trkpt lat="44.74809" lon="3.82386">
        <ele>947.43</ele>
        <time>2025-04-15T14:18:35.367Z</time>
      </trkpt>
      <trkpt lat="44.74804" lon="3.82356">
        <ele>947.82</ele>
        <time>2025-04-15T14:18:35.956Z</time>
      </trkpt>
      <trkpt lat="44.748" lon="3.82326">
        <ele>948.21</ele>
        <time>2025-04-15T14:18:36.548Z</time>
      </trkpt>
      <trkpt lat="44.748" lon="3.82326">
        <ele>948.51</ele>
        <time>2025-04-15T14:18:37.140Z</time>
      </trkpt>
      <trkpt lat="44.748" lon="3.823">
        <ele>948.9</ele>
        <time>2025-04-15T14:18:37.735Z</time>
      </trkpt>
      <trkpt lat="44.748" lon="3.82273">
        <ele>949.3</ele>
        <time>2025-04-15T14:18:38.333Z</time>
      </trkpt>
      <trkpt lat="44.74806" lon="3.82237">
        <ele>949.61</ele>
        <time>2025-04-15T14:18:38.936Z</time>
      </trkpt>
      <trkpt lat="44.74811" lon="3.82202">
        <ele>949.89</ele>
        <time>2025-04-15T14:18:39.543Z</time>
      </trkpt>
      <trkpt lat="44.74816" lon="3.82166">
        <ele>950.15</ele>
        <time>2025-04-15T14:18:40.154Z</time>
      </trkpt>
      <trkpt lat="44.74822" lon="3.82131">
        <ele>950.44</ele>
        <time>2025-04-15T14:18:40.769Z</time>
      </trkpt>
      <trkpt lat="44.74838" lon="3.82096">
        <ele>950.57</ele>
        <time>2025-04-15T14:18:41.389Z</time>
      </trkpt>
      <trkpt lat="44.74854" lon="3.82061">
        <ele>950.71</ele>
        <time>2025-04-15T14:18:42.014Z</time>
      </trkpt>
      <trkpt lat="44.74871" lon="3.82025">
        <ele>950.85</ele>
        <time>2025-04-15T14:18:42.643Z</time>
      </trkpt>
      <trkpt lat="44.74887" lon="3.8199">
        <ele>951.04</ele>
        <time>2025-04-15T14:18:43.277Z</time>
      </trkpt>
      <trkpt lat="44.74903" lon="3.81955">
        <ele>951.26</ele>
        <time>2025-04-15T14:18:43.916Z</time>
      </trkpt>
      <trkpt lat="44.74918" lon="3.81922">
        <ele>951.57</ele>
        <time>2025-04-15T14:18:44.559Z</time>
      </trkpt>
      <trkpt lat="44.74933" lon="3.81889">
        <ele>951.87</ele>
        <time>2025-04-15T14:18:45.207Z</time>
      </trkpt>
      <trkpt lat="44.74947" lon="3.81856">
        <ele>952.21</ele>
        <time>2025-04-15T14:18:45.859Z</time>
      </trkpt>
      <trkpt lat="44.74962" lon="3.81823">
        <ele>952.61</ele>
        <time>2025-04-15T14:18:46.516Z</time>
      </trkpt>
      <trkpt lat="44.74977" lon="3.8179">
        <ele>952.98</ele>
        <time>2025-04-15T14:18:47.177Z</time>
      </trkpt>
      <trkpt lat="44.74991" lon="3.81758">
        <ele>953.27</ele>
        <time>2025-04-15T14:18:47.842Z</time>
      </trkpt>
      <trkpt lat="44.75001" lon="3.81716">
        <ele>953.56</ele>
        <time>2025-04-15T14:18:48.512Z</time>
      </trkpt>
      <trkpt lat="44.75011" lon="3.81674">
        <ele>953.95</ele>
        <time>2025-04-15T14:18:49.187Z</time>
      </trkpt>
      <trkpt lat="44.75021" lon="3.81632">
        <ele>954.32</ele>
        <time>2025-04-15T14:18:49.868Z</time>
      </trkpt>
      <trkpt lat="44.7503" lon="3.81591">
        <ele>954.79</ele>
        <time>2025-04-15T14:18:50.554Z</time>
      </trkpt>
      <trkpt lat="44.7504" lon="3.81549">
        <ele>955.45</ele>
        <time>2025-04-15T14:18:51.245Z</time>
      </trkpt>
      <trkpt lat="44.7505" lon="3.81507">
        <ele>956.08</ele>
        <time>2025-04-15T14:18:51.941Z</time>
      </trkpt>
      <trkpt lat="44.7506" lon="3.81466">
        <ele>956.84</ele>
        <time>2025-04-15T14:18:52.642Z</time>
      </trkpt>
      <trkpt lat="44.7507" lon="3.81438">
        <ele>957.64</ele>
        <time>2025-04-15T14:18:53.346Z</time>
      </trkpt>
      <trkpt lat="44.7508" lon="3.8141">
        <ele>958.43</ele>
        <time>2025-04-15T14:18:54.054Z</time>
      </trkpt>
      <trkpt lat="44.7509" lon="3.81382">
        <ele>959.19</ele>
        <time>2025-04-15T14:18:54.765Z</time>
      </trkpt>
      <trkpt lat="44.75108" lon="3.81349">
        <ele>960.01</ele>
        <time>2025-04-15T14:18:55.481Z</time>
      </trkpt>
      <trkpt lat="44.75126" lon="3.81316">
        <ele>960.97</ele>
        <time>2025-04-15T14:18:56.202Z</time>
      </trkpt>
      <trkpt lat="44.75145" lon="3.81284">
        <ele>961.87</ele>
        <time>2025-04-15T14:18:56.927Z</time>
      </trkpt>
      <trkpt lat="44.75163" lon="3.81252">
        <ele>962.68</ele>
        <time>2025-04-15T14:18:57.657Z</time>
      </trkpt>
      <trkpt lat="44.75181" lon="3.81221">
        <ele>963.53</ele>
        <time>2025-04-15T14:18:58.392Z</time>
      </trkpt>
      <trkpt lat="44.752" lon="3.81189">
        <ele>964.4</ele>
        <time>2025-04-15T14:18:59.131Z</time>
      </trkpt>
      <trkpt lat="44.75218" lon="3.81157">
        <ele>965.23</ele>
        <time>2025-04-15T14:18:59.875Z</time>
      </trkpt>
      <trkpt lat="44.75237" lon="3.81125">
        <ele>966.03</ele>
        <time>2025-04-15T14:19:00.624Z</time>
      </trkpt>
      <trkpt lat="44.75255" lon="3.81094">
        <ele>966.69</ele>
        <time>2025-04-15T14:19:01.377Z</time>
      </trkpt>
      <trkpt lat="44.75273" lon="3.81062">
        <ele>967.37</ele>
        <time>2025-04-15T14:19:02.135Z</time>
      </trkpt>
      <trkpt lat="44.75292" lon="3.8103">
        <ele>968.07</ele>
        <time>2025-04-15T14:19:02.898Z</time>
      </trkpt>
      <trkpt lat="44.75309" lon="3.80998">
        <ele>968.65</ele>
        <time>2025-04-15T14:19:03.665Z</time>
      </trkpt>
      <trkpt lat="44.75327" lon="3.80965">
        <ele>969.27</ele>
        <time>2025-04-15T14:19:04.437Z</time>
      </trkpt>
      <trkpt lat="44.75345" lon="3.80933">
        <ele>969.74</ele>
        <time>2025-04-15T14:19:05.214Z</time>
      </trkpt>
      <trkpt lat="44.75363" lon="3.809">
        <ele>970.2</ele>
        <time>2025-04-15T14:19:05.995Z</time>
      </trkpt>
      <trkpt lat="44.7538" lon="3.80867">
        <ele>970.9</ele>
        <time>2025-04-15T14:19:06.781Z</time>
      </trkpt>
      <trkpt lat="44.75398" lon="3.80835">
        <ele>971.66</ele>
        <time>2025-04-15T14:19:07.572Z</time>
      </trkpt>
      <trkpt lat="44.75416" lon="3.80802">
        <ele>972.39</ele>
        <time>2025-04-15T14:19:08.367Z</time>
      </trkpt>
      <trkpt lat="44.75434" lon="3.80769">
        <ele>972.96</ele>
        <time>2025-04-15T14:19:09.167Z</time>
      </trkpt>
      <trkpt lat="44.75452" lon="3.80737">
        <ele>973.55</ele>
        <time>2025-04-15T14:19:09.972Z</time>
      </trkpt>
      <trkpt lat="44.75469" lon="3.80704">
        <ele>974.17</ele>
        <time>2025-04-15T14:19:10.782Z</time>
      </trkpt>
      <trkpt lat="44.75487" lon="3.80672">
        <ele>974.66</ele>
        <time>2025-04-15T14:19:11.596Z</time>
      </trkpt>
      <trkpt lat="44.75504" lon="3.80646">
        <ele>975.14</ele>
        <time>2025-04-15T14:19:12.414Z</time>
      </trkpt>
      <trkpt lat="44.75517" lon="3.80633">
        <ele>975.74</ele>
        <time>2025-04-15T14:19:13.235Z</time>
      </trkpt>
      <trkpt lat="44.75539" lon="3.80619">
        <ele>976.32</ele>
        <time>2025-04-15T14:19:14.060Z</time>
      </trkpt>
      <trkpt lat="44.75561" lon="3.80605">
        <ele>976.93</ele>
        <time>2025-04-15T14:19:14.888Z</time>
      </trkpt>
      <trkpt lat="44.75583" lon="3.8059">
        <ele>977.46</ele>
        <time>2025-04-15T14:19:15.720Z</time>
      </trkpt>
      <trkpt lat="44.75605" lon="3.8056">
        <ele>978.02</ele>
        <time>2025-04-15T14:19:16.557Z</time>
      </trkpt>
      <trkpt lat="44.75614" lon="3.80538">
        <ele>978.44</ele>
        <time>2025-04-15T14:19:17.397Z</time>
      </trkpt>
      <trkpt lat="44.75624" lon="3.80515">
        <ele>978.91</ele>
        <time>2025-04-15T14:19:18.240Z</time>
      </trkpt>
      <trkpt lat="44.75628" lon="3.80507">
        <ele>979.25</ele>
        <time>2025-04-15T14:19:19.084Z</time>
      </trkpt>
      <trkpt lat="44.75641" lon="3.80467">
        <ele>979.59</ele>
        <time>2025-04-15T14:19:19.933Z</time>
      </trkpt>
      <trkpt lat="44.75654" lon="3.80427">
        <ele>979.75</ele>
        <time>2025-04-15T14:19:20.787Z</time>
      </trkpt>
      <trkpt lat="44.75656" lon="3.80423">
        <ele>979.83</ele>
        <time>2025-04-15T14:19:21.642Z</time>
      </trkpt>
      <trkpt lat="44.7567" lon="3.80387">
        <ele>979.71</ele>
        <time>2025-04-15T14:19:22.502Z</time>
      </trkpt>
      <trkpt lat="44.75684" lon="3.8035">
        <ele>979.49</ele>
        <time>2025-04-15T14:19:23.366Z</time>
      </trkpt>
      <trkpt lat="44.75698" lon="3.80313">
        <ele>979.3</ele>
        <time>2025-04-15T14:19:24.235Z</time>
      </trkpt>
      <trkpt lat="44.75711" lon="3.80277">
        <ele>979.2</ele>
        <time>2025-04-15T14:19:25.109Z</time>
      </trkpt>
      <trkpt lat="44.75725" lon="3.80241">
        <ele>978.86</ele>
        <time>2025-04-15T14:19:25.988Z</time>
      </trkpt>
      <trkpt lat="44.75749" lon="3.80212">
        <ele>978.6</ele>
        <time>2025-04-15T14:19:26.872Z</time>
      </trkpt>
      <trkpt lat="44.75772" lon="3.80183">
        <ele>978.18</ele>
        <time>2025-04-15T14:19:27.761Z</time>
      </trkpt>
      <trkpt lat="44.75785" lon="3.80157">
        <ele>977.74</ele>
        <time>2025-04-15T14:19:28.653Z</time>
      </trkpt>
      <trkpt lat="44.75792" lon="3.80136">
        <ele>977.35</ele>
        <time>2025-04-15T14:19:29.548Z</time>
      </trkpt>
      <trkpt lat="44.75798" lon="3.80114">
        <ele>976.95</ele>
        <time>2025-04-15T14:19:30.445Z</time>
      </trkpt>
      <trkpt lat="44.75801" lon="3.80085">
        <ele>976.4</ele>
        <time>2025-04-15T14:19:31.346Z</time>
      </trkpt>
      <trkpt lat="44.75804" lon="3.80055">
        <ele>975.93</ele>
        <time>2025-04-15T14:19:32.250Z</time>
      </trkpt>
      <trkpt lat="44.75807" lon="3.80026">
        <ele>975.45</ele>
        <time>2025-04-15T14:19:33.158Z</time>
      </trkpt>
      <trkpt lat="44.75811" lon="3.80009">
        <ele>975</ele>
        <time>2025-04-15T14:19:34.068Z</time>
      </trkpt>
      <trkpt lat="44.75828" lon="3.79981">
        <ele>974.56</ele>
        <time>2025-04-15T14:19:34.982Z</time>
      </trkpt>
      <trkpt lat="44.75845" lon="3.79953">
        <ele>974.1</ele>
        <time>2025-04-15T14:19:35.900Z</time>
      </trkpt>
      <trkpt lat="44.75862" lon="3.79925">
        <ele>973.53</ele>
        <time>2025-04-15T14:19:36.822Z</time>
      </trkpt>
      <trkpt lat="44.75869" lon="3.79905">
        <ele>972.91</ele>
        <time>2025-04-15T14:19:37.747Z</time>
      </trkpt>
      <trkpt lat="44.75875" lon="3.79885">
        <ele>972.33</ele>
        <time>2025-04-15T14:19:38.674Z</time>
      </trkpt>
      <trkpt lat="44.75882" lon="3.79846">
        <ele>971.82</ele>
        <time>2025-04-15T14:19:39.606Z</time>
      </trkpt>
      <trkpt lat="44.75882" lon="3.79824">
        <ele>971.28</ele>
        <time>2025-04-15T14:19:40.540Z</time>
      </trkpt>
      <trkpt lat="44.75878" lon="3.79794">
        <ele>970.61</ele>
        <time>2025-04-15T14:19:41.478Z</time>
      </trkpt>
      <trkpt lat="44.75874" lon="3.79764">
        <ele>969.93</ele>
        <time>2025-04-15T14:19:42.419Z</time>
      </trkpt>
      <trkpt lat="44.75871" lon="3.79734">
        <ele>969.28</ele>
        <time>2025-04-15T14:19:43.364Z</time>
      </trkpt>
      <trkpt lat="44.75869" lon="3.79696">
        <ele>968.77</ele>
        <time>2025-04-15T14:19:44.313Z</time>
      </trkpt>
      <trkpt lat="44.75869" lon="3.79657">
        <ele>968.34</ele>
        <time>2025-04-15T14:19:45.267Z</time>
      </trkpt>
      <trkpt lat="44.75875" lon="3.79625">
        <ele>967.98</ele>
        <time>2025-04-15T14:19:46.224Z</time>
      </trkpt>
      <trkpt lat="44.75884" lon="3.79594">
        <ele>967.73</ele>
        <time>2025-04-15T14:19:47.185Z</time>
      </trkpt>
      <trkpt lat="44.75892" lon="3.79563">
        <ele>967.53</ele>
        <time>2025-04-15T14:19:48.150Z</time>
      </trkpt>
      <trkpt lat="44.75905" lon="3.79537">
        <ele>967.52</ele>
        <time>2025-04-15T14:19:49.119Z</time>
      </trkpt>
      <trkpt lat="44.75918" lon="3.79511">
        <ele>967.54</ele>
        <time>2025-04-15T14:19:50.091Z</time>
      </trkpt>
      <trkpt lat="44.75931" lon="3.79494">
        <ele>967.71</ele>
        <time>2025-04-15T14:19:51.066Z</time>
      </trkpt>
      <trkpt lat="44.75944" lon="3.79477">
        <ele>967.98</ele>
        <time>2025-04-15T14:19:52.044Z</time>
      </trkpt>
      <trkpt lat="44.75962" lon="3.79461">
        <ele>968.35</ele>
        <time>2025-04-15T14:19:53.025Z</time>
      </trkpt>
      <trkpt lat="44.75981" lon="3.79445">
        <ele>968.81</ele>
        <time>2025-04-15T14:19:54.010Z</time>
      </trkpt>
      <trkpt lat="44.76" lon="3.7943">
        <ele>969.45</ele>
        <time>2025-04-15T14:19:54.998Z</time>
      </trkpt>
      <trkpt lat="44.76015" lon="3.7941">
        <ele>970.15</ele>
        <time>2025-04-15T14:19:55.989Z</time>
      </trkpt>
      <trkpt lat="44.7603" lon="3.79391">
        <ele>970.98</ele>
        <time>2025-04-15T14:19:56.984Z</time>
      </trkpt>
      <trkpt lat="44.76038" lon="3.7937">
        <ele>971.78</ele>
        <time>2025-04-15T14:19:57.982Z</time>
      </trkpt>
      <trkpt lat="44.76047" lon="3.79348">
        <ele>972.77</ele>
        <time>2025-04-15T14:19:58.982Z</time>
      </trkpt>
      <trkpt lat="44.76056" lon="3.79307">
        <ele>973.75</ele>
        <time>2025-04-15T14:19:59.987Z</time>
      </trkpt>
      <trkpt lat="44.76065" lon="3.79266">
        <ele>974.96</ele>
        <time>2025-04-15T14:20:00.997Z</time>
      </trkpt>
      <trkpt lat="44.76075" lon="3.79226">
        <ele>976.19</ele>
        <time>2025-04-15T14:20:02.012Z</time>
      </trkpt>
      <trkpt lat="44.76081" lon="3.79228">
        <ele>977.6</ele>
        <time>2025-04-15T14:20:03.028Z</time>
      </trkpt>
      <trkpt lat="44.76088" lon="3.79219">
        <ele>979</ele>
        <time>2025-04-15T14:20:04.045Z</time>
      </trkpt>
      <trkpt lat="44.76098" lon="3.79202">
        <ele>980.48</ele>
        <time>2025-04-15T14:20:05.065Z</time>
      </trkpt>
      <trkpt lat="44.76111" lon="3.79163">
        <ele>981.9</ele>
        <time>2025-04-15T14:20:06.090Z</time>
      </trkpt>
      <trkpt lat="44.76124" lon="3.79125">
        <ele>983.34</ele>
        <time>2025-04-15T14:20:07.120Z</time>
      </trkpt>
      <trkpt lat="44.76137" lon="3.79109">
        <ele>984.94</ele>
        <time>2025-04-15T14:20:08.153Z</time>
      </trkpt>
      <trkpt lat="44.7615" lon="3.79093">
        <ele>986.64</ele>
        <time>2025-04-15T14:20:09.188Z</time>
      </trkpt>
      <trkpt lat="44.76175" lon="3.79072">
        <ele>988.51</ele>
        <time>2025-04-15T14:20:10.228Z</time>
      </trkpt>
      <trkpt lat="44.762" lon="3.79052">
        <ele>990.42</ele>
        <time>2025-04-15T14:20:11.273Z</time>
      </trkpt>
      <trkpt lat="44.76225" lon="3.79031">
        <ele>992.24</ele>
        <time>2025-04-15T14:20:12.322Z</time>
      </trkpt>
      <trkpt lat="44.76249" lon="3.7901">
        <ele>994.22</ele>
        <time>2025-04-15T14:20:13.376Z</time>
      </trkpt>
      <trkpt lat="44.76274" lon="3.7899">
        <ele>996.31</ele>
        <time>2025-04-15T14:20:14.434Z</time>
      </trkpt>
      <trkpt lat="44.76281" lon="3.78977">
        <ele>998.17</ele>
        <time>2025-04-15T14:20:15.494Z</time>
      </trkpt>
      <trkpt lat="44.76293" lon="3.7894">
        <ele>1000.19</ele>
        <time>2025-04-15T14:20:16.559Z</time>
      </trkpt>
      <trkpt lat="44.76306" lon="3.78904">
        <ele>1002.17</ele>
        <time>2025-04-15T14:20:17.628Z</time>
      </trkpt>
      <trkpt lat="44.76318" lon="3.78867">
        <ele>1004.09</ele>
        <time>2025-04-15T14:20:18.702Z</time>
      </trkpt>
      <trkpt lat="44.76331" lon="3.78831">
        <ele>1005.94</ele>
        <time>2025-04-15T14:20:19.781Z</time>
      </trkpt>
      <trkpt lat="44.76343" lon="3.78794">
        <ele>1007.92</ele>
        <time>2025-04-15T14:20:20.864Z</time>
      </trkpt>
      <trkpt lat="44.76359" lon="3.78764">
        <ele>1010</ele>
        <time>2025-04-15T14:20:21.952Z</time>
      </trkpt>
      <trkpt lat="44.76375" lon="3.78734">
        <ele>1012.03</ele>
        <time>2025-04-15T14:20:23.044Z</time>
      </trkpt>
      <trkpt lat="44.76397" lon="3.78708">
        <ele>1014.07</ele>
        <time>2025-04-15T14:20:24.141Z</time>
      </trkpt>
      <trkpt lat="44.76419" lon="3.78681">
        <ele>1016.13</ele>
        <time>2025-04-15T14:20:25.242Z</time>
      </trkpt>
      <trkpt lat="44.76441" lon="3.78655">
        <ele>1018.32</ele>
        <time>2025-04-15T14:20:26.348Z</time>
      </trkpt>
      <trkpt lat="44.76463" lon="3.78628">
        <ele>1020.36</ele>
        <time>2025-04-15T14:20:27.458Z</time>
      </trkpt>
      <trkpt lat="44.76485" lon="3.78601">
        <ele>1022.24</ele>
        <time>2025-04-15T14:20:28.573Z</time>
      </trkpt>
      <trkpt lat="44.76502" lon="3.78574">
        <ele>1024.13</ele>
        <time>2025-04-15T14:20:29.692Z</time>
      </trkpt>
      <trkpt lat="44.7652" lon="3.78547">
        <ele>1025.95</ele>
        <time>2025-04-15T14:20:30.815Z</time>
      </trkpt>
      <trkpt lat="44.76538" lon="3.7852">
        <ele>1027.74</ele>
        <time>2025-04-15T14:20:31.943Z</time>
      </trkpt>
      <trkpt lat="44.76561" lon="3.78496">
        <ele>1029.62</ele>
        <time>2025-04-15T14:20:33.075Z</time>
      </trkpt>
      <trkpt lat="44.76584" lon="3.78473">
        <ele>1031.33</ele>
        <time>2025-04-15T14:20:34.212Z</time>
      </trkpt>
      <trkpt lat="44.76607" lon="3.78449">
        <ele>1032.94</ele>
        <time>2025-04-15T14:20:35.353Z</time>
      </trkpt>
      <trkpt lat="44.76632" lon="3.7843">
        <ele>1034.56</ele>
        <time>2025-04-15T14:20:36.499Z</time>
      </trkpt>
      <trkpt lat="44.76656" lon="3.7841">
        <ele>1036.07</ele>
        <time>2025-04-15T14:20:37.649Z</time>
      </trkpt>
      <trkpt lat="44.76674" lon="3.78385">
        <ele>1037.38</ele>
        <time>2025-04-15T14:20:38.803Z</time>
      </trkpt>
      <trkpt lat="44.76692" lon="3.78359">
        <ele>1038.57</ele>
        <time>2025-04-15T14:20:39.962Z</time>
      </trkpt>
      <trkpt lat="44.7671" lon="3.78333">
        <ele>1039.68</ele>
        <time>2025-04-15T14:20:41.125Z</time>
      </trkpt>
      <trkpt lat="44.76721" lon="3.78302">
        <ele>1040.59</ele>
        <time>2025-04-15T14:20:42.292Z</time>
      </trkpt>
      <trkpt lat="44.76733" lon="3.78272">
        <ele>1041.34</ele>
        <time>2025-04-15T14:20:43.463Z</time>
      </trkpt>
      <trkpt lat="44.76744" lon="3.78241">
        <ele>1041.88</ele>
        <time>2025-04-15T14:20:44.638Z</time>
      </trkpt>
      <trkpt lat="44.76752" lon="3.78213">
        <ele>1042.33</ele>
        <time>2025-04-15T14:20:45.816Z</time>
      </trkpt>
      <trkpt lat="44.76759" lon="3.78185">
        <ele>1042.76</ele>
        <time>2025-04-15T14:20:46.997Z</time>
      </trkpt>
      <trkpt lat="44.76772" lon="3.78161">
        <ele>1043.1</ele>
        <time>2025-04-15T14:20:48.182Z</time>
      </trkpt>
      <trkpt lat="44.76787" lon="3.78142">
        <ele>1043.26</ele>
        <time>2025-04-15T14:20:49.370Z</time>
      </trkpt>
      <trkpt lat="44.76813" lon="3.78127">
        <ele>1043.22</ele>
        <time>2025-04-15T14:20:50.562Z</time>
      </trkpt>
      <trkpt lat="44.76837" lon="3.78121">
        <ele>1043.09</ele>
        <time>2025-04-15T14:20:51.758Z</time>
      </trkpt>
      <trkpt lat="44.76861" lon="3.78114">
        <ele>1042.89</ele>
        <time>2025-04-15T14:20:52.958Z</time>
      </trkpt>
      <trkpt lat="44.76886" lon="3.78108">
        <ele>1042.4</ele>
        <time>2025-04-15T14:20:54.162Z</time>
      </trkpt>
      <trkpt lat="44.76903" lon="3.78095">
        <ele>1041.8</ele>
        <time>2025-04-15T14:20:55.369Z</time>
      </trkpt>
      <trkpt lat="44.7692" lon="3.78082">
        <ele>1041.09</ele>
        <time>2025-04-15T14:20:56.580Z</time>
      </trkpt>
      <trkpt lat="44.76933" lon="3.78067">
        <ele>1040.29</ele>
        <time>2025-04-15T14:20:57.793Z</time>
      </trkpt>
      <trkpt lat="44.76946" lon="3.78052">
        <ele>1039.4</ele>
        <time>2025-04-15T14:20:59.009Z</time>
      </trkpt>
      <trkpt lat="44.76965" lon="3.78024">
        <ele>1038.4</ele>
        <time>2025-04-15T14:21:00.229Z</time>
      </trkpt>
      <trkpt lat="44.76985" lon="3.77996">
        <ele>1037.28</ele>
        <time>2025-04-15T14:21:01.454Z</time>
      </trkpt>
      <trkpt lat="44.77001" lon="3.77977">
        <ele>1036.19</ele>
        <time>2025-04-15T14:21:02.682Z</time>
      </trkpt>
      <trkpt lat="44.77017" lon="3.77958">
        <ele>1034.97</ele>
        <time>2025-04-15T14:21:03.914Z</time>
      </trkpt>
      <trkpt lat="44.77045" lon="3.77938">
        <ele>1033.6</ele>
        <time>2025-04-15T14:21:05.151Z</time>
      </trkpt>
      <trkpt lat="44.77073" lon="3.77927">
        <ele>1032.08</ele>
        <time>2025-04-15T14:21:06.392Z</time>
      </trkpt>
      <trkpt lat="44.771" lon="3.77915">
        <ele>1030.46</ele>
        <time>2025-04-15T14:21:07.638Z</time>
      </trkpt>
      <trkpt lat="44.77128" lon="3.77904">
        <ele>1028.72</ele>
        <time>2025-04-15T14:21:08.888Z</time>
      </trkpt>
      <trkpt lat="44.77158" lon="3.77896">
        <ele>1027</ele>
        <time>2025-04-15T14:21:10.143Z</time>
      </trkpt>
      <trkpt lat="44.77187" lon="3.77888">
        <ele>1025.3</ele>
        <time>2025-04-15T14:21:11.403Z</time>
      </trkpt>
      <trkpt lat="44.77217" lon="3.7788">
        <ele>1023.55</ele>
        <time>2025-04-15T14:21:12.668Z</time>
      </trkpt>
      <trkpt lat="44.77246" lon="3.77872">
        <ele>1021.84</ele>
        <time>2025-04-15T14:21:13.938Z</time>
      </trkpt>
      <trkpt lat="44.77273" lon="3.77856">
        <ele>1020.04</ele>
        <time>2025-04-15T14:21:15.212Z</time>
      </trkpt>
      <trkpt lat="44.77299" lon="3.7784">
        <ele>1018.24</ele>
        <time>2025-04-15T14:21:16.491Z</time>
      </trkpt>
      <trkpt lat="44.77326" lon="3.77825">
        <ele>1016.41</ele>
        <time>2025-04-15T14:21:17.775Z</time>
      </trkpt>
      <trkpt lat="44.77343" lon="3.77822">
        <ele>1014.64</ele>
        <time>2025-04-15T14:21:19.061Z</time>
      </trkpt>
      <trkpt lat="44.77343" lon="3.77822">
        <ele>1012.89</ele>
        <time>2025-04-15T14:21:20.347Z</time>
      </trkpt>
      <trkpt lat="44.77366" lon="3.77833">
        <ele>1011.1</ele>
        <time>2025-04-15T14:21:21.637Z</time>
      </trkpt>
      <trkpt lat="44.7739" lon="3.7785">
        <ele>1009.27</ele>
        <time>2025-04-15T14:21:22.931Z</time>
      </trkpt>
      <trkpt lat="44.77413" lon="3.77866">
        <ele>1007.43</ele>
        <time>2025-04-15T14:21:24.230Z</time>
      </trkpt>
      <trkpt lat="44.77436" lon="3.77883">
        <ele>1005.6</ele>
        <time>2025-04-15T14:21:25.533Z</time>
      </trkpt>
      <trkpt lat="44.77459" lon="3.779">
        <ele>1003.79</ele>
        <time>2025-04-15T14:21:26.840Z</time>
      </trkpt>
      <trkpt lat="44.7748" lon="3.7793">
        <ele>1001.97</ele>
        <time>2025-04-15T14:21:28.152Z</time>
      </trkpt>
      <trkpt lat="44.7749" lon="3.77957">
        <ele>1000.21</ele>
        <time>2025-04-15T14:21:29.467Z</time>
      </trkpt>
      <trkpt lat="44.775" lon="3.77983">
        <ele>998.51</ele>
        <time>2025-04-15T14:21:30.786Z</time>
      </trkpt>
      <trkpt lat="44.7751" lon="3.78003">
        <ele>996.93</ele>
        <time>2025-04-15T14:21:32.107Z</time>
      </trkpt>
      <trkpt lat="44.77521" lon="3.78022">
        <ele>995.43</ele>
        <time>2025-04-15T14:21:33.431Z</time>
      </trkpt>
      <trkpt lat="44.7754" lon="3.78051">
        <ele>993.94</ele>
        <time>2025-04-15T14:21:34.760Z</time>
      </trkpt>
      <trkpt lat="44.7756" lon="3.7808">
        <ele>992.46</ele>
        <time>2025-04-15T14:21:36.093Z</time>
      </trkpt>
      <trkpt lat="44.77575" lon="3.78099">
        <ele>991.07</ele>
        <time>2025-04-15T14:21:37.429Z</time>
      </trkpt>
      <trkpt lat="44.7759" lon="3.78119">
        <ele>989.77</ele>
        <time>2025-04-15T14:21:38.769Z</time>
      </trkpt>
      <trkpt lat="44.77609" lon="3.78129">
        <ele>988.52</ele>
        <time>2025-04-15T14:21:40.112Z</time>
      </trkpt>
      <trkpt lat="44.77624" lon="3.78129">
        <ele>987.39</ele>
        <time>2025-04-15T14:21:41.457Z</time>
      </trkpt>
      <trkpt lat="44.77643" lon="3.78121">
        <ele>986.31</ele>
        <time>2025-04-15T14:21:42.806Z</time>
      </trkpt>
      <trkpt lat="44.77667" lon="3.78096">
        <ele>985.27</ele>
        <time>2025-04-15T14:21:44.159Z</time>
      </trkpt>
      <trkpt lat="44.77691" lon="3.78071">
        <ele>984.33</ele>
        <time>2025-04-15T14:21:45.517Z</time>
      </trkpt>
      <trkpt lat="44.7771" lon="3.78039">
        <ele>983.49</ele>
        <time>2025-04-15T14:21:46.880Z</time>
      </trkpt>
      <trkpt lat="44.77718" lon="3.78031">
        <ele>982.74</ele>
        <time>2025-04-15T14:21:48.245Z</time>
      </trkpt>
      <trkpt lat="44.77733" lon="3.78028">
        <ele>982.01</ele>
        <time>2025-04-15T14:21:49.612Z</time>
      </trkpt>
      <trkpt lat="44.77748" lon="3.78039">
        <ele>981.31</ele>
        <time>2025-04-15T14:21:50.982Z</time>
      </trkpt>
      <trkpt lat="44.77771" lon="3.78061">
        <ele>980.59</ele>
        <time>2025-04-15T14:21:52.356Z</time>
      </trkpt>
      <trkpt lat="44.77794" lon="3.78084">
        <ele>980.01</ele>
        <time>2025-04-15T14:21:53.735Z</time>
      </trkpt>
      <trkpt lat="44.77817" lon="3.78106">
        <ele>979.57</ele>
        <time>2025-04-15T14:21:55.118Z</time>
      </trkpt>
      <trkpt lat="44.7783" lon="3.78124">
        <ele>979.17</ele>
        <time>2025-04-15T14:21:56.504Z</time>
      </trkpt>
      <trkpt lat="44.77843" lon="3.78142">
        <ele>978.82</ele>
        <time>2025-04-15T14:21:57.893Z</time>
      </trkpt>
      <trkpt lat="44.77856" lon="3.78155">
        <ele>978.51</ele>
        <time>2025-04-15T14:21:59.284Z</time>
      </trkpt>
      <trkpt lat="44.77875" lon="3.78164">
        <ele>978.25</ele>
        <time>2025-04-15T14:22:00.679Z</time>
      </trkpt>
      <trkpt lat="44.77892" lon="3.78164">
        <ele>978.02</ele>
        <time>2025-04-15T14:22:02.076Z</time>
      </trkpt>
      <trkpt lat="44.77922" lon="3.78157">
        <ele>977.81</ele>
        <time>2025-04-15T14:22:03.478Z</time>
      </trkpt>
      <trkpt lat="44.77937" lon="3.78153">
        <ele>977.6</ele>
        <time>2025-04-15T14:22:04.883Z</time>
      </trkpt>
      <trkpt lat="44.77948" lon="3.78151">
        <ele>977.38</ele>
        <time>2025-04-15T14:22:06.289Z</time>
      </trkpt>
      <trkpt lat="44.77969" lon="3.78159">
        <ele>977.16</ele>
        <time>2025-04-15T14:22:07.699Z</time>
      </trkpt>
      <trkpt lat="44.77993" lon="3.78164">
        <ele>976.93</ele>
        <time>2025-04-15T14:22:09.113Z</time>
      </trkpt>
      <trkpt lat="44.78011" lon="3.78159">
        <ele>976.68</ele>
        <time>2025-04-15T14:22:10.530Z</time>
      </trkpt>
      <trkpt lat="44.7803" lon="3.78155">
        <ele>976.38</ele>
        <time>2025-04-15T14:22:11.950Z</time>
      </trkpt>
      <trkpt lat="44.78047" lon="3.78157">
        <ele>975.98</ele>
        <time>2025-04-15T14:22:13.372Z</time>
      </trkpt>
      <trkpt lat="44.78069" lon="3.78181">
        <ele>975.4</ele>
        <time>2025-04-15T14:22:14.799Z</time>
      </trkpt>
      <trkpt lat="44.78092" lon="3.78204">
        <ele>974.93</ele>
        <time>2025-04-15T14:22:16.230Z</time>
      </trkpt>
      <trkpt lat="44.78112" lon="3.78215">
        <ele>974.48</ele>
        <time>2025-04-15T14:22:17.665Z</time>
      </trkpt>
      <trkpt lat="44.78133" lon="3.78226">
        <ele>973.97</ele>
        <time>2025-04-15T14:22:19.103Z</time>
      </trkpt>
      <trkpt lat="44.78148" lon="3.78243">
        <ele>973.35</ele>
        <time>2025-04-15T14:22:20.545Z</time>
      </trkpt>
      <trkpt lat="44.78163" lon="3.7826">
        <ele>972.66</ele>
        <time>2025-04-15T14:22:21.990Z</time>
      </trkpt>
      <trkpt lat="44.78179" lon="3.78275">
        <ele>971.93</ele>
        <time>2025-04-15T14:22:23.438Z</time>
      </trkpt>
      <trkpt lat="44.78195" lon="3.7829">
        <ele>971.15</ele>
        <time>2025-04-15T14:22:24.889Z</time>
      </trkpt>
      <trkpt lat="44.78223" lon="3.78306">
        <ele>970.34</ele>
        <time>2025-04-15T14:22:26.345Z</time>
      </trkpt>
      <trkpt lat="44.78251" lon="3.78322">
        <ele>969.57</ele>
        <time>2025-04-15T14:22:27.805Z</time>
      </trkpt>
      <trkpt lat="44.78278" lon="3.78338">
        <ele>968.7</ele>
        <time>2025-04-15T14:22:29.270Z</time>
      </trkpt>
      <trkpt lat="44.78306" lon="3.78355">
        <ele>967.86</ele>
        <time>2025-04-15T14:22:30.740Z</time>
      </trkpt>
      <trkpt lat="44.7833" lon="3.78361">
        <ele>967.09</ele>
        <time>2025-04-15T14:22:32.214Z</time>
      </trkpt>
      <trkpt lat="44.78354" lon="3.78367">
        <ele>966.34</ele>
        <time>2025-04-15T14:22:33.692Z</time>
      </trkpt>
      <trkpt lat="44.78375" lon="3.78378">
        <ele>965.52</ele>
        <time>2025-04-15T14:22:35.173Z</time>
      </trkpt>
      <trkpt lat="44.78392" lon="3.78392">
        <ele>964.59</ele>
        <time>2025-04-15T14:22:36.658Z</time>
      </trkpt>
      <trkpt lat="44.78409" lon="3.78406">
        <ele>963.55</ele>
        <time>2025-04-15T14:22:38.146Z</time>
      </trkpt>
      <trkpt lat="44.78432" lon="3.78418">
        <ele>962.41</ele>
        <time>2025-04-15T14:22:39.638Z</time>
      </trkpt>
      <trkpt lat="44.78454" lon="3.7843">
        <ele>961.28</ele>
        <time>2025-04-15T14:22:41.134Z</time>
      </trkpt>
      <trkpt lat="44.78478" lon="3.78433">
        <ele>960.26</ele>
        <time>2025-04-15T14:22:42.633Z</time>
      </trkpt>
      <trkpt lat="44.78502" lon="3.78436">
        <ele>959.17</ele>
        <time>2025-04-15T14:22:44.136Z</time>
      </trkpt>
      <trkpt lat="44.78514" lon="3.78451">
        <ele>958.07</ele>
        <time>2025-04-15T14:22:45.642Z</time>
      </trkpt>
      <trkpt lat="44.78527" lon="3.78466">
        <ele>956.88</ele>
        <time>2025-04-15T14:22:47.150Z</time>
      </trkpt>
      <trkpt lat="44.78547" lon="3.7847">
        <ele>955.66</ele>
        <time>2025-04-15T14:22:48.662Z</time>
      </trkpt>
      <trkpt lat="44.78566" lon="3.78468">
        <ele>954.45</ele>
        <time>2025-04-15T14:22:50.177Z</time>
      </trkpt>
      <trkpt lat="44.78583" lon="3.78458">
        <ele>953.2</ele>
        <time>2025-04-15T14:22:51.695Z</time>
      </trkpt>
      <trkpt lat="44.786" lon="3.78447">
        <ele>951.87</ele>
        <time>2025-04-15T14:22:53.216Z</time>
      </trkpt>
      <trkpt lat="44.78615" lon="3.78443">
        <ele>950.48</ele>
        <time>2025-04-15T14:22:54.739Z</time>
      </trkpt>
      <trkpt lat="44.78639" lon="3.78447">
        <ele>948.97</ele>
        <time>2025-04-15T14:22:56.266Z</time>
      </trkpt>
      <trkpt lat="44.7866" lon="3.7846">
        <ele>947.5</ele>
        <time>2025-04-15T14:22:57.797Z</time>
      </trkpt>
      <trkpt lat="44.78682" lon="3.78473">
        <ele>946.05</ele>
        <time>2025-04-15T14:22:59.331Z</time>
      </trkpt>
      <trkpt lat="44.78711" lon="3.7848">
        <ele>944.57</ele>
        <time>2025-04-15T14:23:00.870Z</time>
      </trkpt>
      <trkpt lat="44.7874" lon="3.78488">
        <ele>943.1</ele>
        <time>2025-04-15T14:23:02.414Z</time>
      </trkpt>
      <trkpt lat="44.78766" lon="3.78491">
        <ele>941.62</ele>
        <time>2025-04-15T14:23:03.962Z</time>
      </trkpt>
      <trkpt lat="44.78793" lon="3.78494">
        <ele>940.2</ele>
        <time>2025-04-15T14:23:05.514Z</time>
      </trkpt>
      <trkpt lat="44.7882" lon="3.78497">
        <ele>938.76</ele>
        <time>2025-04-15T14:23:07.071Z</time>
      </trkpt>
      <trkpt lat="44.78846" lon="3.785">
        <ele>937.43</ele>
        <time>2025-04-15T14:23:08.632Z</time>
      </trkpt>
      <trkpt lat="44.78873" lon="3.78503">
        <ele>936.2</ele>
        <time>2025-04-15T14:23:10.197Z</time>
      </trkpt>
      <trkpt lat="44.78899" lon="3.78496">
        <ele>935.12</ele>
        <time>2025-04-15T14:23:11.766Z</time>
      </trkpt>
      <trkpt lat="44.7892" lon="3.7847">
        <ele>934.03</ele>
        <time>2025-04-15T14:23:13.340Z</time>
      </trkpt>
      <trkpt lat="44.78941" lon="3.78445">
        <ele>933.05</ele>
        <time>2025-04-15T14:23:14.918Z</time>
      </trkpt>
      <trkpt lat="44.78965" lon="3.78432">
        <ele>932.25</ele>
        <time>2025-04-15T14:23:16.501Z</time>
      </trkpt>
      <trkpt lat="44.78981" lon="3.78432">
        <ele>931.38</ele>
        <time>2025-04-15T14:23:18.086Z</time>
      </trkpt>
      <trkpt lat="44.78997" lon="3.78432">
        <ele>930.51</ele>
        <time>2025-04-15T14:23:19.674Z</time>
      </trkpt>
      <trkpt lat="44.79019" lon="3.78438">
        <ele>929.6</ele>
        <time>2025-04-15T14:23:21.265Z</time>
      </trkpt>
      <trkpt lat="44.7904" lon="3.78445">
        <ele>928.65</ele>
        <time>2025-04-15T14:23:22.860Z</time>
      </trkpt>
      <trkpt lat="44.79057" lon="3.78446">
        <ele>927.68</ele>
        <time>2025-04-15T14:23:24.457Z</time>
      </trkpt>
      <trkpt lat="44.79075" lon="3.78447">
        <ele>926.56</ele>
        <time>2025-04-15T14:23:26.057Z</time>
      </trkpt>
      <trkpt lat="44.79093" lon="3.78443">
        <ele>925.39</ele>
        <time>2025-04-15T14:23:27.660Z</time>
      </trkpt>
      <trkpt lat="44.79111" lon="3.78438">
        <ele>924.14</ele>
        <time>2025-04-15T14:23:29.266Z</time>
      </trkpt>
      <trkpt lat="44.79132" lon="3.78428">
        <ele>922.8</ele>
        <time>2025-04-15T14:23:30.876Z</time>
      </trkpt>
      <trkpt lat="44.79151" lon="3.78415">
        <ele>921.43</ele>
        <time>2025-04-15T14:23:32.489Z</time>
      </trkpt>
      <trkpt lat="44.79169" lon="3.78402">
        <ele>919.91</ele>
        <time>2025-04-15T14:23:34.105Z</time>
      </trkpt>
      <trkpt lat="44.79191" lon="3.78395">
        <ele>918.29</ele>
        <time>2025-04-15T14:23:35.725Z</time>
      </trkpt>
      <trkpt lat="44.79214" lon="3.78389">
        <ele>916.7</ele>
        <time>2025-04-15T14:23:37.349Z</time>
      </trkpt>
      <trkpt lat="44.79233" lon="3.78378">
        <ele>915.11</ele>
        <time>2025-04-15T14:23:38.976Z</time>
      </trkpt>
      <trkpt lat="44.79246" lon="3.78353">
        <ele>913.52</ele>
        <time>2025-04-15T14:23:40.606Z</time>
      </trkpt>
      <trkpt lat="44.79259" lon="3.78329">
        <ele>911.83</ele>
        <time>2025-04-15T14:23:42.240Z</time>
      </trkpt>
      <trkpt lat="44.79281" lon="3.78312">
        <ele>909.94</ele>
        <time>2025-04-15T14:23:43.878Z</time>
      </trkpt>
      <trkpt lat="44.79296" lon="3.78303">
        <ele>907.97</ele>
        <time>2025-04-15T14:23:45.518Z</time>
      </trkpt>
      <trkpt lat="44.79311" lon="3.78295">
        <ele>905.97</ele>
        <time>2025-04-15T14:23:47.161Z</time>
      </trkpt>
      <trkpt lat="44.79334" lon="3.78279">
        <ele>903.86</ele>
        <time>2025-04-15T14:23:48.808Z</time>
      </trkpt>
      <trkpt lat="44.79352" lon="3.78261">
        <ele>901.99</ele>
        <time>2025-04-15T14:23:50.459Z</time>
      </trkpt>
      <trkpt lat="44.79371" lon="3.78243">
        <ele>900.1</ele>
        <time>2025-04-15T14:23:52.113Z</time>
      </trkpt>
      <trkpt lat="44.7938" lon="3.78223">
        <ele>898.21</ele>
        <time>2025-04-15T14:23:53.770Z</time>
      </trkpt>
      <trkpt lat="44.7939" lon="3.78202">
        <ele>896.28</ele>
        <time>2025-04-15T14:23:55.430Z</time>
      </trkpt>
      <trkpt lat="44.79396" lon="3.78164">
        <ele>894.3</ele>
        <time>2025-04-15T14:23:57.094Z</time>
      </trkpt>
      <trkpt lat="44.79392" lon="3.78134">
        <ele>892.46</ele>
        <time>2025-04-15T14:23:58.762Z</time>
      </trkpt>
      <trkpt lat="44.79368" lon="3.7811">
        <ele>890.86</ele>
        <time>2025-04-15T14:24:00.435Z</time>
      </trkpt>
      <trkpt lat="44.79341" lon="3.78095">
        <ele>889.19</ele>
        <time>2025-04-15T14:24:02.112Z</time>
      </trkpt>
      <trkpt lat="44.79332" lon="3.78078">
        <ele>887.53</ele>
        <time>2025-04-15T14:24:03.792Z</time>
      </trkpt>
      <trkpt lat="44.79336" lon="3.78067">
        <ele>885.93</ele>
        <time>2025-04-15T14:24:05.473Z</time>
      </trkpt>
      <trkpt lat="44.79345" lon="3.78067">
        <ele>884.34</ele>
        <time>2025-04-15T14:24:07.156Z</time>
      </trkpt>
      <trkpt lat="44.79366" lon="3.78093">
        <ele>882.71</ele>
        <time>2025-04-15T14:24:08.843Z</time>
      </trkpt>
      <trkpt lat="44.79392" lon="3.78097">
        <ele>880.95</ele>
        <time>2025-04-15T14:24:10.534Z</time>
      </trkpt>
      <trkpt lat="44.79417" lon="3.78091">
        <ele>879.23</ele>
        <time>2025-04-15T14:24:12.229Z</time>
      </trkpt>
      <trkpt lat="44.79441" lon="3.78084">
        <ele>877.42</ele>
        <time>2025-04-15T14:24:13.928Z</time>
      </trkpt>
      <trkpt lat="44.79454" lon="3.78086">
        <ele>875.75</ele>
        <time>2025-04-15T14:24:15.629Z</time>
      </trkpt>
      <trkpt lat="44.79461" lon="3.78093">
        <ele>874.14</ele>
        <time>2025-04-15T14:24:17.332Z</time>
      </trkpt>
      <trkpt lat="44.79461" lon="3.78115">
        <ele>872.79</ele>
        <time>2025-04-15T14:24:19.037Z</time>
      </trkpt>
      <trkpt lat="44.79461" lon="3.78138">
        <ele>871.5</ele>
        <time>2025-04-15T14:24:20.745Z</time>
      </trkpt>
      <trkpt lat="44.79467" lon="3.78167">
        <ele>870.05</ele>
        <time>2025-04-15T14:24:22.456Z</time>
      </trkpt>
      <trkpt lat="44.79474" lon="3.78196">
        <ele>868.59</ele>
        <time>2025-04-15T14:24:24.171Z</time>
      </trkpt>
      <trkpt lat="44.79477" lon="3.78225">
        <ele>867.19</ele>
        <time>2025-04-15T14:24:25.889Z</time>
      </trkpt>
      <trkpt lat="44.7948" lon="3.78254">
        <ele>865.63</ele>
        <time>2025-04-15T14:24:27.610Z</time>
      </trkpt>
      <trkpt lat="44.7948" lon="3.78279">
        <ele>864.04</ele>
        <time>2025-04-15T14:24:29.334Z</time>
      </trkpt>
      <trkpt lat="44.79466" lon="3.78314">
        <ele>862.62</ele>
        <time>2025-04-15T14:24:31.063Z</time>
      </trkpt>
      <trkpt lat="44.79452" lon="3.78348">
        <ele>860.94</ele>
        <time>2025-04-15T14:24:32.796Z</time>
      </trkpt>
      <trkpt lat="44.79438" lon="3.78382">
        <ele>859.01</ele>
        <time>2025-04-15T14:24:34.534Z</time>
      </trkpt>
      <trkpt lat="44.79424" lon="3.78416">
        <ele>857.16</ele>
        <time>2025-04-15T14:24:36.276Z</time>
      </trkpt>
      <trkpt lat="44.7941" lon="3.7845">
        <ele>855.1</ele>
        <time>2025-04-15T14:24:38.023Z</time>
      </trkpt>
      <trkpt lat="44.79396" lon="3.78483">
        <ele>853.15</ele>
        <time>2025-04-15T14:24:39.774Z</time>
      </trkpt>
      <trkpt lat="44.79384" lon="3.78509">
        <ele>851.18</ele>
        <time>2025-04-15T14:24:41.529Z</time>
      </trkpt>
      <trkpt lat="44.79372" lon="3.78535">
        <ele>849.2</ele>
        <time>2025-04-15T14:24:43.287Z</time>
      </trkpt>
      <trkpt lat="44.7936" lon="3.78561">
        <ele>847.21</ele>
        <time>2025-04-15T14:24:45.049Z</time>
      </trkpt>
      <trkpt lat="44.79356" lon="3.78582">
        <ele>845.09</ele>
        <time>2025-04-15T14:24:46.813Z</time>
      </trkpt>
      <trkpt lat="44.79351" lon="3.78604">
        <ele>843.14</ele>
        <time>2025-04-15T14:24:48.580Z</time>
      </trkpt>
      <trkpt lat="44.79346" lon="3.78635">
        <ele>841.48</ele>
        <time>2025-04-15T14:24:50.350Z</time>
      </trkpt>
      <trkpt lat="44.79341" lon="3.78666">
        <ele>839.67</ele>
        <time>2025-04-15T14:24:52.124Z</time>
      </trkpt>
      <trkpt lat="44.79332" lon="3.78683">
        <ele>837.88</ele>
        <time>2025-04-15T14:24:53.900Z</time>
      </trkpt>
      <trkpt lat="44.79319" lon="3.78699">
        <ele>836.19</ele>
        <time>2025-04-15T14:24:55.679Z</time>
      </trkpt>
      <trkpt lat="44.79306" lon="3.78715">
        <ele>834.81</ele>
        <time>2025-04-15T14:24:57.461Z</time>
      </trkpt>
      <trkpt lat="44.79302" lon="3.7873">
        <ele>833.46</ele>
        <time>2025-04-15T14:24:59.245Z</time>
      </trkpt>
      <trkpt lat="44.79299" lon="3.78755">
        <ele>832.28</ele>
        <time>2025-04-15T14:25:01.032Z</time>
      </trkpt>
      <trkpt lat="44.79296" lon="3.78779">
        <ele>831.53</ele>
        <time>2025-04-15T14:25:02.821Z</time>
      </trkpt>
      <trkpt lat="44.79298" lon="3.7879">
        <ele>830.97</ele>
        <time>2025-04-15T14:25:04.612Z</time>
      </trkpt>
      <trkpt lat="44.79311" lon="3.7881">
        <ele>830.77</ele>
        <time>2025-04-15T14:25:06.406Z</time>
      </trkpt>
      <trkpt lat="44.79321" lon="3.78829">
        <ele>830.78</ele>
        <time>2025-04-15T14:25:08.203Z</time>
      </trkpt>
      <trkpt lat="44.79328" lon="3.78842">
        <ele>830.88</ele>
        <time>2025-04-15T14:25:10.001Z</time>
      </trkpt>
      <trkpt lat="44.79336" lon="3.78844">
        <ele>831.07</ele>
        <time>2025-04-15T14:25:11.801Z</time>
      </trkpt>
      <trkpt lat="44.79353" lon="3.78831">
        <ele>831.28</ele>
        <time>2025-04-15T14:25:13.604Z</time>
      </trkpt>
      <trkpt lat="44.79371" lon="3.78818">
        <ele>831.6</ele>
        <time>2025-04-15T14:25:15.410Z</time>
      </trkpt>
      <trkpt lat="44.79391" lon="3.78797">
        <ele>832.17</ele>
        <time>2025-04-15T14:25:17.220Z</time>
      </trkpt>
      <trkpt lat="44.79411" lon="3.78775">
        <ele>832.91</ele>
        <time>2025-04-15T14:25:19.034Z</time>
      </trkpt>
      <trkpt lat="44.7942" lon="3.78762">
        <ele>833.61</ele>
        <time>2025-04-15T14:25:20.850Z</time>
      </trkpt>
      <trkpt lat="44.79433" lon="3.78724">
        <ele>834.18</ele>
        <time>2025-04-15T14:25:22.671Z</time>
      </trkpt>
      <trkpt lat="44.79446" lon="3.78685">
        <ele>835.07</ele>
        <time>2025-04-15T14:25:24.497Z</time>
      </trkpt>
      <trkpt lat="44.79452" lon="3.78683">
        <ele>836.12</ele>
        <time>2025-04-15T14:25:26.324Z</time>
      </trkpt>
      <trkpt lat="44.79456" lon="3.78685">
        <ele>837.26</ele>
        <time>2025-04-15T14:25:28.152Z</time>
      </trkpt>
      <trkpt lat="44.79459" lon="3.78696">
        <ele>838.46</ele>
        <time>2025-04-15T14:25:29.981Z</time>
      </trkpt>
      <trkpt lat="44.79456" lon="3.78707">
        <ele>839.49</ele>
        <time>2025-04-15T14:25:31.811Z</time>
      </trkpt>
      <trkpt lat="44.79441" lon="3.78726">
        <ele>840.2</ele>
        <time>2025-04-15T14:25:33.644Z</time>
      </trkpt>
      <trkpt lat="44.79431" lon="3.78764">
        <ele>841.48</ele>
        <time>2025-04-15T14:25:35.482Z</time>
      </trkpt>
      <trkpt lat="44.79417" lon="3.7879">
        <ele>842.49</ele>
        <time>2025-04-15T14:25:37.324Z</time>
      </trkpt>
      <trkpt lat="44.79404" lon="3.78815">
        <ele>843.6</ele>
        <time>2025-04-15T14:25:39.169Z</time>
      </trkpt>
      <trkpt lat="44.7939" lon="3.7884">
        <ele>844.77</ele>
        <time>2025-04-15T14:25:41.018Z</time>
      </trkpt>
      <trkpt lat="44.79366" lon="3.78857">
        <ele>845.66</ele>
        <time>2025-04-15T14:25:42.871Z</time>
      </trkpt>
      <trkpt lat="44.79351" lon="3.78882">
        <ele>846.92</ele>
        <time>2025-04-15T14:25:44.728Z</time>
      </trkpt>
      <trkpt lat="44.79338" lon="3.789">
        <ele>847.94</ele>
        <time>2025-04-15T14:25:46.588Z</time>
      </trkpt>
      <trkpt lat="44.79323" lon="3.78923">
        <ele>849</ele>
        <time>2025-04-15T14:25:48.451Z</time>
      </trkpt>
      <trkpt lat="44.79319" lon="3.78943">
        <ele>850.03</ele>
        <time>2025-04-15T14:25:50.317Z</time>
      </trkpt>
      <trkpt lat="44.7932" lon="3.78977">
        <ele>851.11</ele>
        <time>2025-04-15T14:25:52.187Z</time>
      </trkpt>
      <trkpt lat="44.79321" lon="3.79011">
        <ele>852.08</ele>
        <time>2025-04-15T14:25:54.061Z</time>
      </trkpt>
      <trkpt lat="44.79321" lon="3.79046">
        <ele>853.09</ele>
        <time>2025-04-15T14:25:55.938Z</time>
      </trkpt>
      <trkpt lat="44.79319" lon="3.79065">
        <ele>854.05</ele>
        <time>2025-04-15T14:25:57.818Z</time>
      </trkpt>
      <trkpt lat="44.79311" lon="3.79084">
        <ele>854.93</ele>
        <time>2025-04-15T14:25:59.700Z</time>
      </trkpt>
      <trkpt lat="44.79298" lon="3.79101">
        <ele>855.86</ele>
        <time>2025-04-15T14:26:01.585Z</time>
      </trkpt>
      <trkpt lat="44.79285" lon="3.7911">
        <ele>856.83</ele>
        <time>2025-04-15T14:26:03.472Z</time>
      </trkpt>
      <trkpt lat="44.7927" lon="3.79116">
        <ele>857.87</ele>
        <time>2025-04-15T14:26:05.362Z</time>
      </trkpt>
      <trkpt lat="44.79244" lon="3.79111">
        <ele>858.78</ele>
        <time>2025-04-15T14:26:07.256Z</time>
      </trkpt>
      <trkpt lat="44.79218" lon="3.79106">
        <ele>859.55</ele>
        <time>2025-04-15T14:26:09.154Z</time>
      </trkpt>
      <trkpt lat="44.79188" lon="3.79108">
        <ele>860.46</ele>
        <time>2025-04-15T14:26:11.057Z</time>
      </trkpt>
      <trkpt lat="44.79171" lon="3.79116">
        <ele>861.57</ele>
        <time>2025-04-15T14:26:12.963Z</time>
      </trkpt>
      <trkpt lat="44.79154" lon="3.79134">
        <ele>862.72</ele>
        <time>2025-04-15T14:26:14.872Z</time>
      </trkpt>
      <trkpt lat="44.79145" lon="3.79154">
        <ele>864.18</ele>
        <time>2025-04-15T14:26:16.784Z</time>
      </trkpt>
      <trkpt lat="44.79137" lon="3.79174">
        <ele>865.68</ele>
        <time>2025-04-15T14:26:18.699Z</time>
      </trkpt>
      <trkpt lat="44.79119" lon="3.79188">
        <ele>866.99</ele>
        <time>2025-04-15T14:26:20.617Z</time>
      </trkpt>
      <trkpt lat="44.791" lon="3.79202">
        <ele>868.32</ele>
        <time>2025-04-15T14:26:22.538Z</time>
      </trkpt>
      <trkpt lat="44.79087" lon="3.79226">
        <ele>869.91</ele>
        <time>2025-04-15T14:26:24.463Z</time>
      </trkpt>
      <trkpt lat="44.79076" lon="3.79264">
        <ele>871.63</ele>
        <time>2025-04-15T14:26:26.392Z</time>
      </trkpt>
      <trkpt lat="44.79064" lon="3.79302">
        <ele>873.39</ele>
        <time>2025-04-15T14:26:28.326Z</time>
      </trkpt>
      <trkpt lat="44.79053" lon="3.7934">
        <ele>875.05</ele>
        <time>2025-04-15T14:26:30.265Z</time>
      </trkpt>
      <trkpt lat="44.79036" lon="3.79374">
        <ele>876.83</ele>
        <time>2025-04-15T14:26:32.209Z</time>
      </trkpt>
      <trkpt lat="44.7902" lon="3.79408">
        <ele>878.58</ele>
        <time>2025-04-15T14:26:34.157Z</time>
      </trkpt>
      <trkpt lat="44.79003" lon="3.79443">
        <ele>880.28</ele>
        <time>2025-04-15T14:26:36.110Z</time>
      </trkpt>
      <trkpt lat="44.78987" lon="3.79477">
        <ele>881.95</ele>
        <time>2025-04-15T14:26:38.068Z</time>
      </trkpt>
      <trkpt lat="44.7898" lon="3.79498">
        <ele>883.64</ele>
        <time>2025-04-15T14:26:40.028Z</time>
      </trkpt>
      <trkpt lat="44.78978" lon="3.79533">
        <ele>885.32</ele>
        <time>2025-04-15T14:26:41.992Z</time>
      </trkpt>
      <trkpt lat="44.78978" lon="3.79567">
        <ele>886.91</ele>
        <time>2025-04-15T14:26:43.960Z</time>
      </trkpt>
      <trkpt lat="44.78984" lon="3.79591">
        <ele>888.52</ele>
        <time>2025-04-15T14:26:45.931Z</time>
      </trkpt>
      <trkpt lat="44.78995" lon="3.79606">
        <ele>890.17</ele>
        <time>2025-04-15T14:26:47.905Z</time>
      </trkpt>
      <trkpt lat="44.79008" lon="3.79614">
        <ele>891.84</ele>
        <time>2025-04-15T14:26:49.881Z</time>
      </trkpt>
      <trkpt lat="44.79031" lon="3.79621">
        <ele>893.51</ele>
        <time>2025-04-15T14:26:51.861Z</time>
      </trkpt>
      <trkpt lat="44.79054" lon="3.79628">
        <ele>895.12</ele>
        <time>2025-04-15T14:26:53.844Z</time>
      </trkpt>
      <trkpt lat="44.79077" lon="3.79636">
        <ele>896.66</ele>
        <time>2025-04-15T14:26:55.831Z</time>
      </trkpt>
      <trkpt lat="44.79087" lon="3.7964">
        <ele>898.09</ele>
        <time>2025-04-15T14:26:57.820Z</time>
      </trkpt>
      <trkpt lat="44.79102" lon="3.79651">
        <ele>899.51</ele>
        <time>2025-04-15T14:26:59.812Z</time>
      </trkpt>
      <trkpt lat="44.79113" lon="3.7967">
        <ele>900.88</ele>
        <time>2025-04-15T14:27:01.806Z</time>
      </trkpt>
      <trkpt lat="44.79124" lon="3.79703">
        <ele>902.19</ele>
        <time>2025-04-15T14:27:03.805Z</time>
      </trkpt>
      <trkpt lat="44.79135" lon="3.79737">
        <ele>903.52</ele>
        <time>2025-04-15T14:27:05.808Z</time>
      </trkpt>
      <trkpt lat="44.79145" lon="3.7977">
        <ele>904.8</ele>
        <time>2025-04-15T14:27:07.815Z</time>
      </trkpt>
      <trkpt lat="44.79156" lon="3.79803">
        <ele>906.09</ele>
        <time>2025-04-15T14:27:09.826Z</time>
      </trkpt>
      <trkpt lat="44.79163" lon="3.79827">
        <ele>907.37</ele>
        <time>2025-04-15T14:27:11.840Z</time>
      </trkpt>
      <trkpt lat="44.79173" lon="3.79861">
        <ele>908.74</ele>
        <time>2025-04-15T14:27:13.858Z</time>
      </trkpt>
      <trkpt lat="44.79175" lon="3.7988">
        <ele>910</ele>
        <time>2025-04-15T14:27:15.878Z</time>
      </trkpt>
      <trkpt lat="44.79173" lon="3.7991">
        <ele>911.21</ele>
        <time>2025-04-15T14:27:17.902Z</time>
      </trkpt>
      <trkpt lat="44.79169" lon="3.79942">
        <ele>912.44</ele>
        <time>2025-04-15T14:27:19.930Z</time>
      </trkpt>
      <trkpt lat="44.79162" lon="3.79983">
        <ele>913.64</ele>
        <time>2025-04-15T14:27:21.962Z</time>
      </trkpt>
      <trkpt lat="44.79156" lon="3.80024">
        <ele>914.81</ele>
        <time>2025-04-15T14:27:23.999Z</time>
      </trkpt>
      <trkpt lat="44.79173" lon="3.7999">
        <ele>916.01</ele>
        <time>2025-04-15T14:27:26.041Z</time>
      </trkpt>
      <trkpt lat="44.79193" lon="3.7999">
        <ele>917.32</ele>
        <time>2025-04-15T14:27:28.086Z</time>
      </trkpt>
      <trkpt lat="44.79212" lon="3.7999">
        <ele>918.58</ele>
        <time>2025-04-15T14:27:30.134Z</time>
      </trkpt>
      <trkpt lat="44.7924" lon="3.79979">
        <ele>919.77</ele>
        <time>2025-04-15T14:27:32.187Z</time>
      </trkpt>
      <trkpt lat="44.79257" lon="3.79998">
        <ele>920.89</ele>
        <time>2025-04-15T14:27:34.243Z</time>
      </trkpt>
      <trkpt lat="44.79271" lon="3.80009">
        <ele>922.01</ele>
        <time>2025-04-15T14:27:36.302Z</time>
      </trkpt>
      <trkpt lat="44.79285" lon="3.8002">
        <ele>923.14</ele>
        <time>2025-04-15T14:27:38.363Z</time>
      </trkpt>
      <trkpt lat="44.79294" lon="3.80054">
        <ele>924.36</ele>
        <time>2025-04-15T14:27:40.428Z</time>
      </trkpt>
      <trkpt lat="44.79304" lon="3.80087">
        <ele>925.56</ele>
        <time>2025-04-15T14:27:42.498Z</time>
      </trkpt>
      <trkpt lat="44.79314" lon="3.80121">
        <ele>926.65</ele>
        <time>2025-04-15T14:27:44.572Z</time>
      </trkpt>
      <trkpt lat="44.79323" lon="3.80155">
        <ele>927.81</ele>
        <time>2025-04-15T14:27:46.650Z</time>
      </trkpt>
      <trkpt lat="44.79336" lon="3.80194">
        <ele>929.08</ele>
        <time>2025-04-15T14:27:48.733Z</time>
      </trkpt>
      <trkpt lat="44.79349" lon="3.80234">
        <ele>930.35</ele>
        <time>2025-04-15T14:27:50.821Z</time>
      </trkpt>
      <trkpt lat="44.79362" lon="3.80273">
        <ele>931.6</ele>
        <time>2025-04-15T14:27:52.914Z</time>
      </trkpt>
      <trkpt lat="44.79373" lon="3.80302">
        <ele>932.78</ele>
        <time>2025-04-15T14:27:55.010Z</time>
      </trkpt>
      <trkpt lat="44.79384" lon="3.80331">
        <ele>933.98</ele>
        <time>2025-04-15T14:27:57.110Z</time>
      </trkpt>
      <trkpt lat="44.79394" lon="3.80356">
        <ele>935.18</ele>
        <time>2025-04-15T14:27:59.213Z</time>
      </trkpt>
      <trkpt lat="44.79405" lon="3.8038">
        <ele>936.38</ele>
        <time>2025-04-15T14:28:01.320Z</time>
      </trkpt>
      <trkpt lat="44.7942" lon="3.80395">
        <ele>937.54</ele>
        <time>2025-04-15T14:28:03.430Z</time>
      </trkpt>
      <trkpt lat="44.79446" lon="3.80415">
        <ele>938.75</ele>
        <time>2025-04-15T14:28:05.544Z</time>
      </trkpt>
      <trkpt lat="44.79471" lon="3.80434">
        <ele>939.95</ele>
        <time>2025-04-15T14:28:07.663Z</time>
      </trkpt>
      <trkpt lat="44.79497" lon="3.80453">
        <ele>941.1</ele>
        <time>2025-04-15T14:28:09.787Z</time>
      </trkpt>
      <trkpt lat="44.79517" lon="3.80471">
        <ele>942.16</ele>
        <time>2025-04-15T14:28:11.914Z</time>
      </trkpt>
      <trkpt lat="44.79536" lon="3.80489">
        <ele>943.17</ele>
        <time>2025-04-15T14:28:14.045Z</time>
      </trkpt>
      <trkpt lat="44.79555" lon="3.80507">
        <ele>944.21</ele>
        <time>2025-04-15T14:28:16.180Z</time>
      </trkpt>
      <trkpt lat="44.79581" lon="3.8052">
        <ele>945.23</ele>
        <time>2025-04-15T14:28:18.319Z</time>
      </trkpt>
      <trkpt lat="44.79607" lon="3.80533">
        <ele>946.27</ele>
        <time>2025-04-15T14:28:20.463Z</time>
      </trkpt>
      <trkpt lat="44.79631" lon="3.80539">
        <ele>947.29</ele>
        <time>2025-04-15T14:28:22.610Z</time>
      </trkpt>
      <trkpt lat="44.79655" lon="3.80545">
        <ele>948.29</ele>
        <time>2025-04-15T14:28:24.761Z</time>
      </trkpt>
      <trkpt lat="44.79679" lon="3.80552">
        <ele>949.3</ele>
        <time>2025-04-15T14:28:26.916Z</time>
      </trkpt>
      <trkpt lat="44.79703" lon="3.80558">
        <ele>950.36</ele>
        <time>2025-04-15T14:28:29.075Z</time>
      </trkpt>
      <trkpt lat="44.79726" lon="3.80565">
        <ele>951.45</ele>
        <time>2025-04-15T14:28:31.238Z</time>
      </trkpt>
      <trkpt lat="44.79749" lon="3.80573">
        <ele>952.43</ele>
        <time>2025-04-15T14:28:33.405Z</time>
      </trkpt>
      <trkpt lat="44.79772" lon="3.8058">
        <ele>953.44</ele>
        <time>2025-04-15T14:28:35.576Z</time>
      </trkpt>
      <trkpt lat="44.79789" lon="3.80588">
        <ele>954.5</ele>
        <time>2025-04-15T14:28:37.749Z</time>
      </trkpt>
      <trkpt lat="44.79804" lon="3.8061">
        <ele>955.66</ele>
        <time>2025-04-15T14:28:39.926Z</time>
      </trkpt>
      <trkpt lat="44.79819" lon="3.80636">
        <ele>956.82</ele>
        <time>2025-04-15T14:28:42.107Z</time>
      </trkpt>
      <trkpt lat="44.79829" lon="3.80666">
        <ele>957.88</ele>
        <time>2025-04-15T14:28:44.291Z</time>
      </trkpt>
      <trkpt lat="44.7984" lon="3.80696">
        <ele>958.91</ele>
        <time>2025-04-15T14:28:46.479Z</time>
      </trkpt>
      <trkpt lat="44.7985" lon="3.80726">
        <ele>960</ele>
        <time>2025-04-15T14:28:48.671Z</time>
      </trkpt>
      <trkpt lat="44.7986" lon="3.80756">
        <ele>961.15</ele>
        <time>2025-04-15T14:28:50.867Z</time>
      </trkpt>
      <trkpt lat="44.79868" lon="3.80791">
        <ele>962.29</ele>
        <time>2025-04-15T14:28:53.067Z</time>
      </trkpt>
      <trkpt lat="44.79877" lon="3.80826">
        <ele>963.44</ele>
        <time>2025-04-15T14:28:55.271Z</time>
      </trkpt>
      <trkpt lat="44.79886" lon="3.80861">
        <ele>964.67</ele>
        <time>2025-04-15T14:28:57.479Z</time>
      </trkpt>
      <trkpt lat="44.79894" lon="3.80895">
        <ele>965.95</ele>
        <time>2025-04-15T14:28:59.692Z</time>
      </trkpt>
      <trkpt lat="44.79905" lon="3.80917">
        <ele>967.14</ele>
        <time>2025-04-15T14:29:01.908Z</time>
      </trkpt>
      <trkpt lat="44.79927" lon="3.80947">
        <ele>968.3</ele>
        <time>2025-04-15T14:29:04.129Z</time>
      </trkpt>
      <trkpt lat="44.79949" lon="3.80978">
        <ele>969.47</ele>
        <time>2025-04-15T14:29:06.355Z</time>
      </trkpt>
      <trkpt lat="44.79971" lon="3.81009">
        <ele>970.64</ele>
        <time>2025-04-15T14:29:08.586Z</time>
      </trkpt>
      <trkpt lat="44.79988" lon="3.81036">
        <ele>971.77</ele>
        <time>2025-04-15T14:29:10.821Z</time>
      </trkpt>
      <trkpt lat="44.80004" lon="3.81063">
        <ele>972.98</ele>
        <time>2025-04-15T14:29:13.060Z</time>
      </trkpt>
      <trkpt lat="44.8002" lon="3.81088">
        <ele>974.22</ele>
        <time>2025-04-15T14:29:15.303Z</time>
      </trkpt>
      <trkpt lat="44.80037" lon="3.81113">
        <ele>975.46</ele>
        <time>2025-04-15T14:29:17.549Z</time>
      </trkpt>
      <trkpt lat="44.80054" lon="3.81138">
        <ele>976.72</ele>
        <time>2025-04-15T14:29:19.799Z</time>
      </trkpt>
      <trkpt lat="44.8007" lon="3.81163">
        <ele>977.91</ele>
        <time>2025-04-15T14:29:22.053Z</time>
      </trkpt>
      <trkpt lat="44.80082" lon="3.81198">
        <ele>979</ele>
        <time>2025-04-15T14:29:24.312Z</time>
      </trkpt>
      <trkpt lat="44.80094" lon="3.81232">
        <ele>980.03</ele>
        <time>2025-04-15T14:29:26.575Z</time>
      </trkpt>
      <trkpt lat="44.80094" lon="3.81232">
        <ele>981.04</ele>
        <time>2025-04-15T14:29:28.838Z</time>
      </trkpt>
      <trkpt lat="44.80114" lon="3.81206">
        <ele>982.02</ele>
        <time>2025-04-15T14:29:31.105Z</time>
      </trkpt>
      <trkpt lat="44.80133" lon="3.81179">
        <ele>983</ele>
        <time>2025-04-15T14:29:33.377Z</time>
      </trkpt>
      <trkpt lat="44.80153" lon="3.81153">
        <ele>983.98</ele>
        <time>2025-04-15T14:29:35.653Z</time>
      </trkpt>
      <trkpt lat="44.80173" lon="3.81127">
        <ele>984.94</ele>
        <time>2025-04-15T14:29:37.933Z</time>
      </trkpt>
      <trkpt lat="44.80192" lon="3.81105">
        <ele>985.84</ele>
        <time>2025-04-15T14:29:40.217Z</time>
      </trkpt>
      <trkpt lat="44.8021" lon="3.81083">
        <ele>986.69</ele>
        <time>2025-04-15T14:29:42.505Z</time>
      </trkpt>
      <trkpt lat="44.80229" lon="3.8106">
        <ele>987.55</ele>
        <time>2025-04-15T14:29:44.797Z</time>
      </trkpt>
      <trkpt lat="44.80248" lon="3.81043">
        <ele>988.24</ele>
        <time>2025-04-15T14:29:47.093Z</time>
      </trkpt>
      <trkpt lat="44.80268" lon="3.81026">
        <ele>988.91</ele>
        <time>2025-04-15T14:29:49.392Z</time>
      </trkpt>
      <trkpt lat="44.80292" lon="3.81014">
        <ele>989.63</ele>
        <time>2025-04-15T14:29:51.696Z</time>
      </trkpt>
      <trkpt lat="44.80317" lon="3.81002">
        <ele>990.31</ele>
        <time>2025-04-15T14:29:54.004Z</time>
      </trkpt>
      <trkpt lat="44.80342" lon="3.8099">
        <ele>990.97</ele>
        <time>2025-04-15T14:29:56.316Z</time>
      </trkpt>
      <trkpt lat="44.80367" lon="3.80978">
        <ele>991.57</ele>
        <time>2025-04-15T14:29:58.632Z</time>
      </trkpt>
      <trkpt lat="44.80392" lon="3.80966">
        <ele>992.07</ele>
        <time>2025-04-15T14:30:00.952Z</time>
      </trkpt>
      <trkpt lat="44.80409" lon="3.80948">
        <ele>992.51</ele>
        <time>2025-04-15T14:30:03.276Z</time>
      </trkpt>
      <trkpt lat="44.80426" lon="3.8093">
        <ele>992.87</ele>
        <time>2025-04-15T14:30:05.603Z</time>
      </trkpt>
      <trkpt lat="44.80448" lon="3.80907">
        <ele>993.15</ele>
        <time>2025-04-15T14:30:07.935Z</time>
      </trkpt>
      <trkpt lat="44.80469" lon="3.80884">
        <ele>993.29</ele>
        <time>2025-04-15T14:30:10.271Z</time>
      </trkpt>
      <trkpt lat="44.80491" lon="3.80861">
        <ele>993.4</ele>
        <time>2025-04-15T14:30:12.611Z</time>
      </trkpt>
      <trkpt lat="44.80504" lon="3.80854">
        <ele>993.48</ele>
        <time>2025-04-15T14:30:14.954Z</time>
      </trkpt>
      <trkpt lat="44.80528" lon="3.80852">
        <ele>993.58</ele>
        <time>2025-04-15T14:30:17.300Z</time>
      </trkpt>
      <trkpt lat="44.80552" lon="3.80849">
        <ele>993.55</ele>
        <time>2025-04-15T14:30:19.650Z</time>
      </trkpt>
      <trkpt lat="44.80576" lon="3.80846">
        <ele>993.36</ele>
        <time>2025-04-15T14:30:22.004Z</time>
      </trkpt>
      <trkpt lat="44.806" lon="3.80844">
        <ele>993.1</ele>
        <time>2025-04-15T14:30:24.362Z</time>
      </trkpt>
      <trkpt lat="44.80624" lon="3.80831">
        <ele>992.75</ele>
        <time>2025-04-15T14:30:26.724Z</time>
      </trkpt>
      <trkpt lat="44.80648" lon="3.80807">
        <ele>992.31</ele>
        <time>2025-04-15T14:30:29.091Z</time>
      </trkpt>
      <trkpt lat="44.80672" lon="3.80784">
        <ele>991.74</ele>
        <time>2025-04-15T14:30:31.462Z</time>
      </trkpt>
      <trkpt lat="44.80696" lon="3.8076">
        <ele>991</ele>
        <time>2025-04-15T14:30:33.838Z</time>
      </trkpt>
      <trkpt lat="44.8072" lon="3.80736">
        <ele>990.16</ele>
        <time>2025-04-15T14:30:36.219Z</time>
      </trkpt>
      <trkpt lat="44.80744" lon="3.80713">
        <ele>989.22</ele>
        <time>2025-04-15T14:30:38.604Z</time>
      </trkpt>
      <trkpt lat="44.80768" lon="3.80689">
        <ele>988.29</ele>
        <time>2025-04-15T14:30:40.994Z</time>
      </trkpt>
      <trkpt lat="44.80789" lon="3.80677">
        <ele>987.39</ele>
        <time>2025-04-15T14:30:43.388Z</time>
      </trkpt>
      <trkpt lat="44.8081" lon="3.80666">
        <ele>986.4</ele>
        <time>2025-04-15T14:30:45.786Z</time>
      </trkpt>
      <trkpt lat="44.8083" lon="3.80666">
        <ele>985.52</ele>
        <time>2025-04-15T14:30:48.187Z</time>
      </trkpt>
      <trkpt lat="44.80849" lon="3.80666">
        <ele>984.57</ele>
        <time>2025-04-15T14:30:50.591Z</time>
      </trkpt>
      <trkpt lat="44.80876" lon="3.80683">
        <ele>983.7</ele>
        <time>2025-04-15T14:30:52.999Z</time>
      </trkpt>
      <trkpt lat="44.80902" lon="3.80701">
        <ele>982.92</ele>
        <time>2025-04-15T14:30:55.412Z</time>
      </trkpt>
      <trkpt lat="44.80928" lon="3.80719">
        <ele>982.4</ele>
        <time>2025-04-15T14:30:57.830Z</time>
      </trkpt>
      <trkpt lat="44.80956" lon="3.80727">
        <ele>981.75</ele>
        <time>2025-04-15T14:31:00.252Z</time>
      </trkpt>
      <trkpt lat="44.80984" lon="3.80734">
        <ele>981.2</ele>
        <time>2025-04-15T14:31:02.679Z</time>
      </trkpt>
      <trkpt lat="44.81005" lon="3.80748">
        <ele>980.59</ele>
        <time>2025-04-15T14:31:05.110Z</time>
      </trkpt>
      <trkpt lat="44.81025" lon="3.80762">
        <ele>980.02</ele>
        <time>2025-04-15T14:31:07.544Z</time>
      </trkpt>
      <trkpt lat="44.81045" lon="3.80789">
        <ele>979.69</ele>
        <time>2025-04-15T14:31:09.983Z</time>
      </trkpt>
      <trkpt lat="44.81066" lon="3.80816">
        <ele>979.53</ele>
        <time>2025-04-15T14:31:12.426Z</time>
      </trkpt>
      <trkpt lat="44.81074" lon="3.8082">
        <ele>979.25</ele>
        <time>2025-04-15T14:31:14.871Z</time>
      </trkpt>
      <trkpt lat="44.81085" lon="3.8082">
        <ele>978.97</ele>
        <time>2025-04-15T14:31:17.317Z</time>
      </trkpt>
      <trkpt lat="44.81096" lon="3.80809">
        <ele>978.75</ele>
        <time>2025-04-15T14:31:19.765Z</time>
      </trkpt>
      <trkpt lat="44.81102" lon="3.80796">
        <ele>978.76</ele>
        <time>2025-04-15T14:31:22.215Z</time>
      </trkpt>
      <trkpt lat="44.81102" lon="3.80777">
        <ele>978.96</ele>
        <time>2025-04-15T14:31:24.667Z</time>
      </trkpt>
      <trkpt lat="44.81089" lon="3.80745">
        <ele>979.21</ele>
        <time>2025-04-15T14:31:27.124Z</time>
      </trkpt>
      <trkpt lat="44.81084" lon="3.80723">
        <ele>979.59</ele>
        <time>2025-04-15T14:31:29.583Z</time>
      </trkpt>
      <trkpt lat="44.81079" lon="3.80702">
        <ele>980.1</ele>
        <time>2025-04-15T14:31:32.045Z</time>
      </trkpt>
      <trkpt lat="44.81072" lon="3.80664">
        <ele>980.81</ele>
        <time>2025-04-15T14:31:34.511Z</time>
      </trkpt>
      <trkpt lat="44.81066" lon="3.80626">
        <ele>981.65</ele>
        <time>2025-04-15T14:31:36.982Z</time>
      </trkpt>
      <trkpt lat="44.81059" lon="3.80588">
        <ele>982.5</ele>
        <time>2025-04-15T14:31:39.457Z</time>
      </trkpt>
      <trkpt lat="44.81044" lon="3.80551">
        <ele>983.41</ele>
        <time>2025-04-15T14:31:41.937Z</time>
      </trkpt>
      <trkpt lat="44.81029" lon="3.80513">
        <ele>984.36</ele>
        <time>2025-04-15T14:31:44.422Z</time>
      </trkpt>
      <trkpt lat="44.8101" lon="3.80487">
        <ele>985.29</ele>
        <time>2025-04-15T14:31:46.911Z</time>
      </trkpt>
      <trkpt lat="44.80991" lon="3.80462">
        <ele>986.4</ele>
        <time>2025-04-15T14:31:49.404Z</time>
      </trkpt>
      <trkpt lat="44.8098" lon="3.80447">
        <ele>987.5</ele>
        <time>2025-04-15T14:31:51.900Z</time>
      </trkpt>
      <trkpt lat="44.80974" lon="3.80432">
        <ele>988.65</ele>
        <time>2025-04-15T14:31:54.398Z</time>
      </trkpt>
      <trkpt lat="44.80974" lon="3.80417">
        <ele>989.82</ele>
        <time>2025-04-15T14:31:56.898Z</time>
      </trkpt>
      <trkpt lat="44.8098" lon="3.80404">
        <ele>991.01</ele>
        <time>2025-04-15T14:31:59.399Z</time>
      </trkpt>
      <trkpt lat="44.80991" lon="3.80393">
        <ele>992.24</ele>
        <time>2025-04-15T14:32:01.902Z</time>
      </trkpt>
      <trkpt lat="44.8101" lon="3.80393">
        <ele>993.48</ele>
        <time>2025-04-15T14:32:04.409Z</time>
      </trkpt>
      <trkpt lat="44.81036" lon="3.80397">
        <ele>994.7</ele>
        <time>2025-04-15T14:32:06.920Z</time>
      </trkpt>
      <trkpt lat="44.81062" lon="3.80402">
        <ele>995.93</ele>
        <time>2025-04-15T14:32:09.435Z</time>
      </trkpt>
      <trkpt lat="44.81088" lon="3.80404">
        <ele>997.12</ele>
        <time>2025-04-15T14:32:11.954Z</time>
      </trkpt>
      <trkpt lat="44.81115" lon="3.80406">
        <ele>998.28</ele>
        <time>2025-04-15T14:32:14.477Z</time>
      </trkpt>
      <trkpt lat="44.8113" lon="3.80397">
        <ele>999.34</ele>
        <time>2025-04-15T14:32:17.003Z</time>
      </trkpt>
      <trkpt lat="44.81141" lon="3.8038">
        <ele>1000.33</ele>
        <time>2025-04-15T14:32:19.532Z</time>
      </trkpt>
      <trkpt lat="44.8116" lon="3.8035">
        <ele>1001.39</ele>
        <time>2025-04-15T14:32:22.065Z</time>
      </trkpt>
      <trkpt lat="44.8118" lon="3.8032">
        <ele>1002.43</ele>
        <time>2025-04-15T14:32:24.603Z</time>
      </trkpt>
      <trkpt lat="44.81197" lon="3.80305">
        <ele>1003.19</ele>
        <time>2025-04-15T14:32:27.144Z</time>
      </trkpt>
      <trkpt lat="44.81203" lon="3.80305">
        <ele>1003.77</ele>
        <time>2025-04-15T14:32:29.686Z</time>
      </trkpt>
      <trkpt lat="44.81229" lon="3.80311">
        <ele>1004.13</ele>
        <time>2025-04-15T14:32:32.232Z</time>
      </trkpt>
      <trkpt lat="44.81255" lon="3.80317">
        <ele>1004.53</ele>
        <time>2025-04-15T14:32:34.782Z</time>
      </trkpt>
      <trkpt lat="44.8128" lon="3.80322">
        <ele>1004.92</ele>
        <time>2025-04-15T14:32:37.337Z</time>
      </trkpt>
      <trkpt lat="44.81298" lon="3.8032">
        <ele>1005.15</ele>
        <time>2025-04-15T14:32:39.894Z</time>
      </trkpt>
      <trkpt lat="44.81321" lon="3.80305">
        <ele>1005.22</ele>
        <time>2025-04-15T14:32:42.456Z</time>
      </trkpt>
      <trkpt lat="44.81341" lon="3.80286">
        <ele>1005.05</ele>
        <time>2025-04-15T14:32:45.021Z</time>
      </trkpt>
      <trkpt lat="44.81361" lon="3.80266">
        <ele>1004.88</ele>
        <time>2025-04-15T14:32:47.590Z</time>
      </trkpt>
      <trkpt lat="44.81381" lon="3.80247">
        <ele>1004.69</ele>
        <time>2025-04-15T14:32:50.163Z</time>
      </trkpt>
      <trkpt lat="44.81401" lon="3.80228">
        <ele>1004.52</ele>
        <time>2025-04-15T14:32:52.740Z</time>
      </trkpt>
      <trkpt lat="44.81428" lon="3.80207">
        <ele>1004.32</ele>
        <time>2025-04-15T14:32:55.322Z</time>
      </trkpt>
      <trkpt lat="44.81455" lon="3.80186">
        <ele>1003.91</ele>
        <time>2025-04-15T14:32:57.909Z</time>
      </trkpt>
      <trkpt lat="44.81482" lon="3.80166">
        <ele>1003.49</ele>
        <time>2025-04-15T14:33:00.501Z</time>
      </trkpt>
      <trkpt lat="44.81497" lon="3.80146">
        <ele>1003.07</ele>
        <time>2025-04-15T14:33:03.096Z</time>
      </trkpt>
      <trkpt lat="44.81508" lon="3.80118">
        <ele>1002.54</ele>
        <time>2025-04-15T14:33:05.695Z</time>
      </trkpt>
      <trkpt lat="44.81514" lon="3.80083">
        <ele>1001.94</ele>
        <time>2025-04-15T14:33:08.298Z</time>
      </trkpt>
      <trkpt lat="44.81519" lon="3.80047">
        <ele>1001.42</ele>
        <time>2025-04-15T14:33:10.905Z</time>
      </trkpt>
      <trkpt lat="44.81525" lon="3.80011">
        <ele>1000.88</ele>
        <time>2025-04-15T14:33:13.516Z</time>
      </trkpt>
      <trkpt lat="44.81538" lon="3.79992">
        <ele>1000.4</ele>
        <time>2025-04-15T14:33:16.130Z</time>
      </trkpt>
      <trkpt lat="44.81564" lon="3.79974">
        <ele>999.89</ele>
        <time>2025-04-15T14:33:18.749Z</time>
      </trkpt>
      <trkpt lat="44.81591" lon="3.79956">
        <ele>999.32</ele>
        <time>2025-04-15T14:33:21.373Z</time>
      </trkpt>
      <trkpt lat="44.81618" lon="3.79938">
        <ele>998.83</ele>
        <time>2025-04-15T14:33:24.001Z</time>
      </trkpt>
      <trkpt lat="44.81644" lon="3.7992">
        <ele>998.43</ele>
        <time>2025-04-15T14:33:26.634Z</time>
      </trkpt>
      <trkpt lat="44.81671" lon="3.79902">
        <ele>998.11</ele>
        <time>2025-04-15T14:33:29.272Z</time>
      </trkpt>
      <trkpt lat="44.817" lon="3.79887">
        <ele>997.72</ele>
        <time>2025-04-15T14:33:31.915Z</time>
      </trkpt>
      <trkpt lat="44.81729" lon="3.79872">
        <ele>997.32</ele>
        <time>2025-04-15T14:33:34.563Z</time>
      </trkpt>
      <trkpt lat="44.81757" lon="3.79867">
        <ele>997.05</ele>
        <time>2025-04-15T14:33:37.215Z</time>
      </trkpt>
      <trkpt lat="44.81782" lon="3.79866">
        <ele>996.88</ele>
        <time>2025-04-15T14:33:39.871Z</time>
      </trkpt>
      <trkpt lat="44.81808" lon="3.79865">
        <ele>996.73</ele>
        <time>2025-04-15T14:33:42.531Z</time>
      </trkpt>
      <trkpt lat="44.81836" lon="3.79873">
        <ele>996.65</ele>
        <time>2025-04-15T14:33:45.196Z</time>
      </trkpt>
      <trkpt lat="44.81864" lon="3.7988">
        <ele>996.63</ele>
        <time>2025-04-15T14:33:47.866Z</time>
      </trkpt>
      <trkpt lat="44.81864" lon="3.7988">
        <ele>996.78</ele>
        <time>2025-04-15T14:33:50.536Z</time>
      </trkpt>
      <trkpt lat="44.81894" lon="3.79887">
        <ele>997.03</ele>
        <time>2025-04-15T14:33:53.210Z</time>
      </trkpt>
      <trkpt lat="44.81919" lon="3.7988">
        <ele>997.44</ele>
        <time>2025-04-15T14:33:55.888Z</time>
      </trkpt>
      <trkpt lat="44.81943" lon="3.79874">
        <ele>997.99</ele>
        <time>2025-04-15T14:33:58.570Z</time>
      </trkpt>
      <trkpt lat="44.81972" lon="3.79873">
        <ele>998.61</ele>
        <time>2025-04-15T14:34:01.257Z</time>
      </trkpt>
      <trkpt lat="44.82001" lon="3.79872">
        <ele>999.25</ele>
        <time>2025-04-15T14:34:03.949Z</time>
      </trkpt>
      <trkpt lat="44.82029" lon="3.79872">
        <ele>999.86</ele>
        <time>2025-04-15T14:34:06.645Z</time>
      </trkpt>
      <trkpt lat="44.82053" lon="3.79867">
        <ele>1000.45</ele>
        <time>2025-04-15T14:34:09.345Z</time>
      </trkpt>
      <trkpt lat="44.82076" lon="3.79863">
        <ele>1001.17</ele>
        <time>2025-04-15T14:34:12.049Z</time>
      </trkpt>
      <trkpt lat="44.821" lon="3.79851">
        <ele>1002.02</ele>
        <time>2025-04-15T14:34:14.757Z</time>
      </trkpt>
      <trkpt lat="44.82124" lon="3.79839">
        <ele>1003</ele>
        <time>2025-04-15T14:34:17.469Z</time>
      </trkpt>
      <trkpt lat="44.82152" lon="3.79831">
        <ele>1003.99</ele>
        <time>2025-04-15T14:34:20.185Z</time>
      </trkpt>
      <trkpt lat="44.82182" lon="3.79826">
        <ele>1004.88</ele>
        <time>2025-04-15T14:34:22.906Z</time>
      </trkpt>
      <trkpt lat="44.82212" lon="3.7982">
        <ele>1005.77</ele>
        <time>2025-04-15T14:34:25.632Z</time>
      </trkpt>
      <trkpt lat="44.82229" lon="3.79829">
        <ele>1006.6</ele>
        <time>2025-04-15T14:34:28.361Z</time>
      </trkpt>
      <trkpt lat="44.8225" lon="3.79854">
        <ele>1007.49</ele>
        <time>2025-04-15T14:34:31.094Z</time>
      </trkpt>
      <trkpt lat="44.82271" lon="3.7988">
        <ele>1008.39</ele>
        <time>2025-04-15T14:34:33.832Z</time>
      </trkpt>
      <trkpt lat="44.82292" lon="3.79906">
        <ele>1009.28</ele>
        <time>2025-04-15T14:34:36.574Z</time>
      </trkpt>
      <trkpt lat="44.82312" lon="3.79932">
        <ele>1010.09</ele>
        <time>2025-04-15T14:34:39.321Z</time>
      </trkpt>
      <trkpt lat="44.82335" lon="3.79962">
        <ele>1010.77</ele>
        <time>2025-04-15T14:34:42.073Z</time>
      </trkpt>
      <trkpt lat="44.82357" lon="3.79993">
        <ele>1011.4</ele>
        <time>2025-04-15T14:34:44.830Z</time>
      </trkpt>
      <trkpt lat="44.82379" lon="3.80024">
        <ele>1012</ele>
        <time>2025-04-15T14:34:47.592Z</time>
      </trkpt>
      <trkpt lat="44.82401" lon="3.80054">
        <ele>1012.64</ele>
        <time>2025-04-15T14:34:50.359Z</time>
      </trkpt>
      <trkpt lat="44.82423" lon="3.80085">
        <ele>1013.26</ele>
        <time>2025-04-15T14:34:53.131Z</time>
      </trkpt>
      <trkpt lat="44.82445" lon="3.80116">
        <ele>1013.86</ele>
        <time>2025-04-15T14:34:55.908Z</time>
      </trkpt>
      <trkpt lat="44.82467" lon="3.80146">
        <ele>1014.31</ele>
        <time>2025-04-15T14:34:58.690Z</time>
      </trkpt>
      <trkpt lat="44.8248" lon="3.80157">
        <ele>1014.59</ele>
        <time>2025-04-15T14:35:01.474Z</time>
      </trkpt>
      <trkpt lat="44.82503" lon="3.80168">
        <ele>1014.77</ele>
        <time>2025-04-15T14:35:04.262Z</time>
      </trkpt>
      <trkpt lat="44.82527" lon="3.80168">
        <ele>1014.77</ele>
        <time>2025-04-15T14:35:07.054Z</time>
      </trkpt>
      <trkpt lat="44.82546" lon="3.80157">
        <ele>1014.58</ele>
        <time>2025-04-15T14:35:09.849Z</time>
      </trkpt>
      <trkpt lat="44.82564" lon="3.80123">
        <ele>1014.15</ele>
        <time>2025-04-15T14:35:12.649Z</time>
      </trkpt>
      <trkpt lat="44.82568" lon="3.80099">
        <ele>1013.8</ele>
        <time>2025-04-15T14:35:15.452Z</time>
      </trkpt>
      <trkpt lat="44.82572" lon="3.80076">
        <ele>1013.37</ele>
        <time>2025-04-15T14:35:18.257Z</time>
      </trkpt>
      <trkpt lat="44.82575" lon="3.80043">
        <ele>1012.9</ele>
        <time>2025-04-15T14:35:21.066Z</time>
      </trkpt>
      <trkpt lat="44.82579" lon="3.80011">
        <ele>1012.36</ele>
        <time>2025-04-15T14:35:23.879Z</time>
      </trkpt>
      <trkpt lat="44.82585" lon="3.79992">
        <ele>1011.83</ele>
        <time>2025-04-15T14:35:26.694Z</time>
      </trkpt>
      <trkpt lat="44.82598" lon="3.79981">
        <ele>1011.3</ele>
        <time>2025-04-15T14:35:29.512Z</time>
      </trkpt>
      <trkpt lat="44.82629" lon="3.79986">
        <ele>1011.08</ele>
        <time>2025-04-15T14:35:32.335Z</time>
      </trkpt>
      <trkpt lat="44.8266" lon="3.79992">
        <ele>1010.76</ele>
        <time>2025-04-15T14:35:35.163Z</time>
      </trkpt>
      <trkpt lat="44.82676" lon="3.79992">
        <ele>1010.32</ele>
        <time>2025-04-15T14:35:37.993Z</time>
      </trkpt>
      <trkpt lat="44.82692" lon="3.79992">
        <ele>1009.9</ele>
        <time>2025-04-15T14:35:40.826Z</time>
      </trkpt>
      <trkpt lat="44.82711" lon="3.79999">
        <ele>1009.58</ele>
        <time>2025-04-15T14:35:43.662Z</time>
      </trkpt>
      <trkpt lat="44.82729" lon="3.80007">
        <ele>1009.21</ele>
        <time>2025-04-15T14:35:46.501Z</time>
      </trkpt>
      <trkpt lat="44.82742" lon="3.80003">
        <ele>1008.75</ele>
        <time>2025-04-15T14:35:49.342Z</time>
      </trkpt>
      <trkpt lat="44.82748" lon="3.7999">
        <ele>1008.33</ele>
        <time>2025-04-15T14:35:52.185Z</time>
      </trkpt>
      <trkpt lat="44.82752" lon="3.79968">
        <ele>1008.05</ele>
        <time>2025-04-15T14:35:55.030Z</time>
      </trkpt>
      <trkpt lat="44.82748" lon="3.7994">
        <ele>1007.85</ele>
        <time>2025-04-15T14:35:57.879Z</time>
      </trkpt>
      <trkpt lat="44.82739" lon="3.79919">
        <ele>1007.7</ele>
        <time>2025-04-15T14:36:00.730Z</time>
      </trkpt>
      <trkpt lat="44.82721" lon="3.79886">
        <ele>1007.65</ele>
        <time>2025-04-15T14:36:03.586Z</time>
      </trkpt>
      <trkpt lat="44.82703" lon="3.79852">
        <ele>1007.65</ele>
        <time>2025-04-15T14:36:06.447Z</time>
      </trkpt>
      <trkpt lat="44.82697" lon="3.79835">
        <ele>1007.73</ele>
        <time>2025-04-15T14:36:09.310Z</time>
      </trkpt>
      <trkpt lat="44.82697" lon="3.79822">
        <ele>1007.94</ele>
        <time>2025-04-15T14:36:12.175Z</time>
      </trkpt>
      <trkpt lat="44.82703" lon="3.79805">
        <ele>1008.29</ele>
        <time>2025-04-15T14:36:15.042Z</time>
      </trkpt>
      <trkpt lat="44.82712" lon="3.79803">
        <ele>1008.71</ele>
        <time>2025-04-15T14:36:17.910Z</time>
      </trkpt>
      <trkpt lat="44.82727" lon="3.79812">
        <ele>1009.28</ele>
        <time>2025-04-15T14:36:20.781Z</time>
      </trkpt>
      <trkpt lat="44.8272" lon="3.7982">
        <ele>1009.73</ele>
        <time>2025-04-15T14:36:23.653Z</time>
      </trkpt>
      <trkpt lat="44.82718" lon="3.79837">
        <ele>1010.29</ele>
        <time>2025-04-15T14:36:26.527Z</time>
      </trkpt>
      <trkpt lat="44.82724" lon="3.79859">
        <ele>1010.95</ele>
        <time>2025-04-15T14:36:29.404Z</time>
      </trkpt>
      <trkpt lat="44.82744" lon="3.79887">
        <ele>1011.77</ele>
        <time>2025-04-15T14:36:32.285Z</time>
      </trkpt>
      <trkpt lat="44.82763" lon="3.79916">
        <ele>1012.7</ele>
        <time>2025-04-15T14:36:35.171Z</time>
      </trkpt>
      <trkpt lat="44.82782" lon="3.79945">
        <ele>1013.75</ele>
        <time>2025-04-15T14:36:38.061Z</time>
      </trkpt>
      <trkpt lat="44.82797" lon="3.79955">
        <ele>1014.86</ele>
        <time>2025-04-15T14:36:40.954Z</time>
      </trkpt>
      <trkpt lat="44.82812" lon="3.79957">
        <ele>1016.07</ele>
        <time>2025-04-15T14:36:43.849Z</time>
      </trkpt>
      <trkpt lat="44.82832" lon="3.79955">
        <ele>1017.31</ele>
        <time>2025-04-15T14:36:46.748Z</time>
      </trkpt>
      <trkpt lat="44.82851" lon="3.79953">
        <ele>1018.61</ele>
        <time>2025-04-15T14:36:49.650Z</time>
      </trkpt>
      <trkpt lat="44.82851" lon="3.79953">
        <ele>1019.83</ele>
        <time>2025-04-15T14:36:52.552Z</time>
      </trkpt>
      <trkpt lat="44.82875" lon="3.79947">
        <ele>1021.23</ele>
        <time>2025-04-15T14:36:55.458Z</time>
      </trkpt>
      <trkpt lat="44.82891" lon="3.79949">
        <ele>1022.55</ele>
        <time>2025-04-15T14:36:58.366Z</time>
      </trkpt>
      <trkpt lat="44.82907" lon="3.79951">
        <ele>1023.93</ele>
        <time>2025-04-15T14:37:01.277Z</time>
      </trkpt>
      <trkpt lat="44.82928" lon="3.79974">
        <ele>1025.35</ele>
        <time>2025-04-15T14:37:04.192Z</time>
      </trkpt>
      <trkpt lat="44.82949" lon="3.79997">
        <ele>1026.71</ele>
        <time>2025-04-15T14:37:07.111Z</time>
      </trkpt>
      <trkpt lat="44.8297" lon="3.8002">
        <ele>1028.08</ele>
        <time>2025-04-15T14:37:10.034Z</time>
      </trkpt>
      <trkpt lat="44.82991" lon="3.80043">
        <ele>1029.52</ele>
        <time>2025-04-15T14:37:12.962Z</time>
      </trkpt>
      <trkpt lat="44.83012" lon="3.80071">
        <ele>1031.08</ele>
        <time>2025-04-15T14:37:15.894Z</time>
      </trkpt>
      <trkpt lat="44.83033" lon="3.80099">
        <ele>1032.63</ele>
        <time>2025-04-15T14:37:18.831Z</time>
      </trkpt>
      <trkpt lat="44.83045" lon="3.80122">
        <ele>1034.04</ele>
        <time>2025-04-15T14:37:21.771Z</time>
      </trkpt>
      <trkpt lat="44.83057" lon="3.80144">
        <ele>1035.41</ele>
        <time>2025-04-15T14:37:24.714Z</time>
      </trkpt>
      <trkpt lat="44.83082" lon="3.80157">
        <ele>1036.92</ele>
        <time>2025-04-15T14:37:27.662Z</time>
      </trkpt>
      <trkpt lat="44.83106" lon="3.8017">
        <ele>1038.45</ele>
        <time>2025-04-15T14:37:30.614Z</time>
      </trkpt>
      <trkpt lat="44.83128" lon="3.80187">
        <ele>1039.95</ele>
        <time>2025-04-15T14:37:33.570Z</time>
      </trkpt>
      <trkpt lat="44.83149" lon="3.80211">
        <ele>1041.38</ele>
        <time>2025-04-15T14:37:36.530Z</time>
      </trkpt>
      <trkpt lat="44.83171" lon="3.80236">
        <ele>1042.76</ele>
        <time>2025-04-15T14:37:39.495Z</time>
      </trkpt>
      <trkpt lat="44.83192" lon="3.8026">
        <ele>1044.19</ele>
        <time>2025-04-15T14:37:42.464Z</time>
      </trkpt>
      <trkpt lat="44.832" lon="3.80266">
        <ele>1045.56</ele>
        <time>2025-04-15T14:37:45.435Z</time>
      </trkpt>
      <trkpt lat="44.83218" lon="3.80279">
        <ele>1046.91</ele>
        <time>2025-04-15T14:37:48.409Z</time>
      </trkpt>
      <trkpt lat="44.83247" lon="3.80292">
        <ele>1048.33</ele>
        <time>2025-04-15T14:37:51.388Z</time>
      </trkpt>
      <trkpt lat="44.83276" lon="3.80305">
        <ele>1049.7</ele>
        <time>2025-04-15T14:37:54.371Z</time>
      </trkpt>
      <trkpt lat="44.83295" lon="3.80323">
        <ele>1050.91</ele>
        <time>2025-04-15T14:37:57.358Z</time>
      </trkpt>
      <trkpt lat="44.83315" lon="3.80342">
        <ele>1052.15</ele>
        <time>2025-04-15T14:38:00.349Z</time>
      </trkpt>
      <trkpt lat="44.83334" lon="3.80375">
        <ele>1053.26</ele>
        <time>2025-04-15T14:38:03.345Z</time>
      </trkpt>
      <trkpt lat="44.83353" lon="3.80408">
        <ele>1054.47</ele>
        <time>2025-04-15T14:38:06.346Z</time>
      </trkpt>
      <trkpt lat="44.83373" lon="3.80441">
        <ele>1055.73</ele>
        <time>2025-04-15T14:38:09.352Z</time>
      </trkpt>
      <trkpt lat="44.83392" lon="3.80474">
        <ele>1056.8</ele>
        <time>2025-04-15T14:38:12.362Z</time>
      </trkpt>
      <trkpt lat="44.83411" lon="3.80507">
        <ele>1057.91</ele>
        <time>2025-04-15T14:38:15.377Z</time>
      </trkpt>
      <trkpt lat="44.83431" lon="3.80541">
        <ele>1059.1</ele>
        <time>2025-04-15T14:38:18.397Z</time>
      </trkpt>
      <trkpt lat="44.8345" lon="3.80574">
        <ele>1060.33</ele>
        <time>2025-04-15T14:38:21.422Z</time>
      </trkpt>
      <trkpt lat="44.83469" lon="3.80607">
        <ele>1061.49</ele>
        <time>2025-04-15T14:38:24.452Z</time>
      </trkpt>
      <trkpt lat="44.83488" lon="3.8064">
        <ele>1062.61</ele>
        <time>2025-04-15T14:38:27.487Z</time>
      </trkpt>
      <trkpt lat="44.83503" lon="3.80669">
        <ele>1063.8</ele>
        <time>2025-04-15T14:38:30.526Z</time>
      </trkpt>
      <trkpt lat="44.83518" lon="3.80698">
        <ele>1065.01</ele>
        <time>2025-04-15T14:38:33.569Z</time>
      </trkpt>
      <trkpt lat="44.8353" lon="3.80717">
        <ele>1066.14</ele>
        <time>2025-04-15T14:38:36.615Z</time>
      </trkpt>
      <trkpt lat="44.83542" lon="3.80736">
        <ele>1067.19</ele>
        <time>2025-04-15T14:38:39.664Z</time>
      </trkpt>
      <trkpt lat="44.83561" lon="3.8076">
        <ele>1068.19</ele>
        <time>2025-04-15T14:38:42.717Z</time>
      </trkpt>
      <trkpt lat="44.83581" lon="3.80784">
        <ele>1069.13</ele>
        <time>2025-04-15T14:38:45.774Z</time>
      </trkpt>
      <trkpt lat="44.83589" lon="3.80808">
        <ele>1070.04</ele>
        <time>2025-04-15T14:38:48.834Z</time>
      </trkpt>
      <trkpt lat="44.83598" lon="3.80833">
        <ele>1071.03</ele>
        <time>2025-04-15T14:38:51.897Z</time>
      </trkpt>
      <trkpt lat="44.83602" lon="3.80867">
        <ele>1072.01</ele>
        <time>2025-04-15T14:38:54.964Z</time>
      </trkpt>
      <trkpt lat="44.83602" lon="3.80908">
        <ele>1073.03</ele>
        <time>2025-04-15T14:38:58.036Z</time>
      </trkpt>
      <trkpt lat="44.83601" lon="3.80949">
        <ele>1074.02</ele>
        <time>2025-04-15T14:39:01.112Z</time>
      </trkpt>
      <trkpt lat="44.836" lon="3.8099">
        <ele>1074.88</ele>
        <time>2025-04-15T14:39:04.193Z</time>
      </trkpt>
      <trkpt lat="44.836" lon="3.8103">
        <ele>1075.67</ele>
        <time>2025-04-15T14:39:07.279Z</time>
      </trkpt>
      <trkpt lat="44.83597" lon="3.81061">
        <ele>1076.4</ele>
        <time>2025-04-15T14:39:10.368Z</time>
      </trkpt>
      <trkpt lat="44.83594" lon="3.81092">
        <ele>1077.16</ele>
        <time>2025-04-15T14:39:13.461Z</time>
      </trkpt>
      <trkpt lat="44.83591" lon="3.81123">
        <ele>1077.83</ele>
        <time>2025-04-15T14:39:16.557Z</time>
      </trkpt>
      <trkpt lat="44.83596" lon="3.81151">
        <ele>1078.46</ele>
        <time>2025-04-15T14:39:19.657Z</time>
      </trkpt>
      <trkpt lat="44.83606" lon="3.81183">
        <ele>1079.13</ele>
        <time>2025-04-15T14:39:22.761Z</time>
      </trkpt>
      <trkpt lat="44.83618" lon="3.81209">
        <ele>1079.69</ele>
        <time>2025-04-15T14:39:25.868Z</time>
      </trkpt>
      <trkpt lat="44.8363" lon="3.81234">
        <ele>1080.1</ele>
        <time>2025-04-15T14:39:28.979Z</time>
      </trkpt>
      <trkpt lat="44.83639" lon="3.81264">
        <ele>1080.41</ele>
        <time>2025-04-15T14:39:32.093Z</time>
      </trkpt>
      <trkpt lat="44.83643" lon="3.81302">
        <ele>1080.64</ele>
        <time>2025-04-15T14:39:35.212Z</time>
      </trkpt>
      <trkpt lat="44.83647" lon="3.81339">
        <ele>1080.94</ele>
        <time>2025-04-15T14:39:38.335Z</time>
      </trkpt>
      <trkpt lat="44.83654" lon="3.81361">
        <ele>1081.28</ele>
        <time>2025-04-15T14:39:41.461Z</time>
      </trkpt>
      <trkpt lat="44.83654" lon="3.81361">
        <ele>1081.49</ele>
        <time>2025-04-15T14:39:44.587Z</time>
      </trkpt>
      <trkpt lat="44.83673" lon="3.81393">
        <ele>1081.76</ele>
        <time>2025-04-15T14:39:47.717Z</time>
      </trkpt>
      <trkpt lat="44.83692" lon="3.81425">
        <ele>1081.9</ele>
        <time>2025-04-15T14:39:50.852Z</time>
      </trkpt>
      <trkpt lat="44.83712" lon="3.81457">
        <ele>1082.12</ele>
        <time>2025-04-15T14:39:53.992Z</time>
      </trkpt>
      <trkpt lat="44.83731" lon="3.8149">
        <ele>1082.16</ele>
        <time>2025-04-15T14:39:57.137Z</time>
      </trkpt>
      <trkpt lat="44.8375" lon="3.81522">
        <ele>1082.19</ele>
        <time>2025-04-15T14:40:00.287Z</time>
      </trkpt>
      <trkpt lat="44.8377" lon="3.81554">
        <ele>1082.25</ele>
        <time>2025-04-15T14:40:03.441Z</time>
      </trkpt>
      <trkpt lat="44.83789" lon="3.81586">
        <ele>1082.27</ele>
        <time>2025-04-15T14:40:06.600Z</time>
      </trkpt>
      <trkpt lat="44.83808" lon="3.81619">
        <ele>1082.16</ele>
        <time>2025-04-15T14:40:09.764Z</time>
      </trkpt>
      <trkpt lat="44.83828" lon="3.81651">
        <ele>1082.11</ele>
        <time>2025-04-15T14:40:12.933Z</time>
      </trkpt>
      <trkpt lat="44.83847" lon="3.81683">
        <ele>1082.06</ele>
        <time>2025-04-15T14:40:16.107Z</time>
      </trkpt>
      <trkpt lat="44.83866" lon="3.81715">
        <ele>1082.07</ele>
        <time>2025-04-15T14:40:19.285Z</time>
      </trkpt>
      <trkpt lat="44.83886" lon="3.81747">
        <ele>1082.08</ele>
        <time>2025-04-15T14:40:22.468Z</time>
      </trkpt>
      <trkpt lat="44.83905" lon="3.81779">
        <ele>1082.04</ele>
        <time>2025-04-15T14:40:25.656Z</time>
      </trkpt>
      <trkpt lat="44.8392" lon="3.81806">
        <ele>1081.99</ele>
        <time>2025-04-15T14:40:28.848Z</time>
      </trkpt>
      <trkpt lat="44.83936" lon="3.81832">
        <ele>1081.96</ele>
        <time>2025-04-15T14:40:32.044Z</time>
      </trkpt>
      <trkpt lat="44.83951" lon="3.81858">
        <ele>1081.92</ele>
        <time>2025-04-15T14:40:35.244Z</time>
      </trkpt>
      <trkpt lat="44.83967" lon="3.81884">
        <ele>1081.92</ele>
        <time>2025-04-15T14:40:38.447Z</time>
      </trkpt>
      <trkpt lat="44.83986" lon="3.81916">
        <ele>1081.98</ele>
        <time>2025-04-15T14:40:41.655Z</time>
      </trkpt>
      <trkpt lat="44.84004" lon="3.81947">
        <ele>1082.09</ele>
        <time>2025-04-15T14:40:44.868Z</time>
      </trkpt>
      <trkpt lat="44.84023" lon="3.81979">
        <ele>1082.15</ele>
        <time>2025-04-15T14:40:48.086Z</time>
      </trkpt>
      <trkpt lat="44.84042" lon="3.8201">
        <ele>1082.25</ele>
        <time>2025-04-15T14:40:51.308Z</time>
      </trkpt>
      <trkpt lat="44.84061" lon="3.82042">
        <ele>1082.27</ele>
        <time>2025-04-15T14:40:54.535Z</time>
      </trkpt>
      <trkpt lat="44.8408" lon="3.82073">
        <ele>1082.36</ele>
        <time>2025-04-15T14:40:57.767Z</time>
      </trkpt>
      <trkpt lat="44.84098" lon="3.82105">
        <ele>1082.44</ele>
        <time>2025-04-15T14:41:01.003Z</time>
      </trkpt>
      <trkpt lat="44.84117" lon="3.82136">
        <ele>1082.56</ele>
        <time>2025-04-15T14:41:04.244Z</time>
      </trkpt>
      <trkpt lat="44.84136" lon="3.82168">
        <ele>1082.75</ele>
        <time>2025-04-15T14:41:07.490Z</time>
      </trkpt>
      <trkpt lat="44.84155" lon="3.82199">
        <ele>1082.92</ele>
        <time>2025-04-15T14:41:10.740Z</time>
      </trkpt>
      <trkpt lat="44.84174" lon="3.82231">
        <ele>1083.1</ele>
        <time>2025-04-15T14:41:13.995Z</time>
      </trkpt>
      <trkpt lat="44.84192" lon="3.82262">
        <ele>1083.33</ele>
        <time>2025-04-15T14:41:17.255Z</time>
      </trkpt>
      <trkpt lat="44.84201" lon="3.82282">
        <ele>1083.54</ele>
        <time>2025-04-15T14:41:20.517Z</time>
      </trkpt>
      <trkpt lat="44.84209" lon="3.82303">
        <ele>1083.78</ele>
        <time>2025-04-15T14:41:23.782Z</time>
      </trkpt>
      <trkpt lat="44.84215" lon="3.82331">
        <ele>1084.03</ele>
        <time>2025-04-15T14:41:27.050Z</time>
      </trkpt>
      <trkpt lat="44.8422" lon="3.82359">
        <ele>1084.29</ele>
        <time>2025-04-15T14:41:30.322Z</time>
      </trkpt>
      <trkpt lat="44.84222" lon="3.824">
        <ele>1084.58</ele>
        <time>2025-04-15T14:41:33.598Z</time>
      </trkpt>
      <trkpt lat="44.84224" lon="3.82441">
        <ele>1084.83</ele>
        <time>2025-04-15T14:41:36.879Z</time>
      </trkpt>
      <trkpt lat="44.84226" lon="3.82482">
        <ele>1085.15</ele>
        <time>2025-04-15T14:41:40.165Z</time>
      </trkpt>
      <trkpt lat="44.84228" lon="3.82523">
        <ele>1085.55</ele>
        <time>2025-04-15T14:41:43.455Z</time>
      </trkpt>
      <trkpt lat="44.84229" lon="3.82564">
        <ele>1086</ele>
        <time>2025-04-15T14:41:46.750Z</time>
      </trkpt>
      <trkpt lat="44.84231" lon="3.82605">
        <ele>1086.47</ele>
        <time>2025-04-15T14:41:50.050Z</time>
      </trkpt>
      <trkpt lat="44.84233" lon="3.82647">
        <ele>1086.98</ele>
        <time>2025-04-15T14:41:53.354Z</time>
      </trkpt>
      <trkpt lat="44.84235" lon="3.82687">
        <ele>1087.53</ele>
        <time>2025-04-15T14:41:56.663Z</time>
      </trkpt>
      <trkpt lat="44.84237" lon="3.82726">
        <ele>1088.16</ele>
        <time>2025-04-15T14:41:59.977Z</time>
      </trkpt>
      <trkpt lat="44.84238" lon="3.82766">
        <ele>1088.79</ele>
        <time>2025-04-15T14:42:03.295Z</time>
      </trkpt>
      <trkpt lat="44.84239" lon="3.82805">
        <ele>1089.52</ele>
        <time>2025-04-15T14:42:06.617Z</time>
      </trkpt>
      <trkpt lat="44.84246" lon="3.82848">
        <ele>1090.28</ele>
        <time>2025-04-15T14:42:09.944Z</time>
      </trkpt>
      <trkpt lat="44.84259" lon="3.82884">
        <ele>1090.96</ele>
        <time>2025-04-15T14:42:13.276Z</time>
      </trkpt>
      <trkpt lat="44.84259" lon="3.82884">
        <ele>1091.65</ele>
        <time>2025-04-15T14:42:16.608Z</time>
      </trkpt>
      <trkpt lat="44.84265" lon="3.82899">
        <ele>1092.35</ele>
        <time>2025-04-15T14:42:19.942Z</time>
      </trkpt>
      <trkpt lat="44.8428" lon="3.82932">
        <ele>1093.12</ele>
        <time>2025-04-15T14:42:23.280Z</time>
      </trkpt>
      <trkpt lat="44.8429" lon="3.82957">
        <ele>1093.94</ele>
        <time>2025-04-15T14:42:26.622Z</time>
      </trkpt>
      <trkpt lat="44.84299" lon="3.82983">
        <ele>1094.82</ele>
        <time>2025-04-15T14:42:29.967Z</time>
      </trkpt>
      <trkpt lat="44.84306" lon="3.82996">
        <ele>1095.59</ele>
        <time>2025-04-15T14:42:33.314Z</time>
      </trkpt>
      <trkpt lat="44.84314" lon="3.83019">
        <ele>1096.41</ele>
        <time>2025-04-15T14:42:36.664Z</time>
      </trkpt>
      <trkpt lat="44.84315" lon="3.83019">
        <ele>1097.17</ele>
        <time>2025-04-15T14:42:40.014Z</time>
      </trkpt>
      <trkpt lat="44.84319" lon="3.8303">
        <ele>1097.96</ele>
        <time>2025-04-15T14:42:43.365Z</time>
      </trkpt>
      <trkpt lat="44.84325" lon="3.83047">
        <ele>1098.74</ele>
        <time>2025-04-15T14:42:46.719Z</time>
      </trkpt>
      <trkpt lat="44.8433" lon="3.83069">
        <ele>1099.55</ele>
        <time>2025-04-15T14:42:50.075Z</time>
      </trkpt>
      <trkpt lat="44.8433" lon="3.83077">
        <ele>1100.33</ele>
        <time>2025-04-15T14:42:53.432Z</time>
      </trkpt>
      <trkpt lat="44.84335" lon="3.83119">
        <ele>1101.15</ele>
        <time>2025-04-15T14:42:56.794Z</time>
      </trkpt>
      <trkpt lat="44.8434" lon="3.83161">
        <ele>1102</ele>
        <time>2025-04-15T14:43:00.161Z</time>
      </trkpt>
      <trkpt lat="44.8434" lon="3.83165">
        <ele>1102.73</ele>
        <time>2025-04-15T14:43:03.528Z</time>
      </trkpt>
      <trkpt lat="44.84344" lon="3.83201">
        <ele>1103.51</ele>
        <time>2025-04-15T14:43:06.899Z</time>
      </trkpt>
      <trkpt lat="44.84348" lon="3.83237">
        <ele>1104.19</ele>
        <time>2025-04-15T14:43:10.274Z</time>
      </trkpt>
      <trkpt lat="44.84352" lon="3.83273">
        <ele>1104.94</ele>
        <time>2025-04-15T14:43:13.654Z</time>
      </trkpt>
      <trkpt lat="44.84356" lon="3.83308">
        <ele>1105.63</ele>
        <time>2025-04-15T14:43:17.038Z</time>
      </trkpt>
      <trkpt lat="44.8436" lon="3.83344">
        <ele>1106.28</ele>
        <time>2025-04-15T14:43:20.426Z</time>
      </trkpt>
      <trkpt lat="44.8436" lon="3.83344">
        <ele>1106.91</ele>
        <time>2025-04-15T14:43:23.814Z</time>
      </trkpt>
      <trkpt lat="44.84366" lon="3.8338">
        <ele>1107.56</ele>
        <time>2025-04-15T14:43:27.206Z</time>
      </trkpt>
      <trkpt lat="44.84375" lon="3.83401">
        <ele>1108.19</ele>
        <time>2025-04-15T14:43:30.601Z</time>
      </trkpt>
      <trkpt lat="44.84383" lon="3.83423">
        <ele>1108.91</ele>
        <time>2025-04-15T14:43:33.999Z</time>
      </trkpt>
      <trkpt lat="44.84398" lon="3.83437">
        <ele>1109.52</ele>
        <time>2025-04-15T14:43:37.400Z</time>
      </trkpt>
      <trkpt lat="44.84413" lon="3.83451">
        <ele>1110.2</ele>
        <time>2025-04-15T14:43:40.803Z</time>
      </trkpt>
      <trkpt lat="44.84436" lon="3.83467">
        <ele>1110.92</ele>
        <time>2025-04-15T14:43:44.210Z</time>
      </trkpt>
      <trkpt lat="44.84459" lon="3.83484">
        <ele>1111.66</ele>
        <time>2025-04-15T14:43:47.622Z</time>
      </trkpt>
      <trkpt lat="44.84482" lon="3.835">
        <ele>1112.42</ele>
        <time>2025-04-15T14:43:51.038Z</time>
      </trkpt>
      <trkpt lat="44.84486" lon="3.83502">
        <ele>1113.15</ele>
        <time>2025-04-15T14:43:54.454Z</time>
      </trkpt>
      <trkpt lat="44.84514" lon="3.83522">
        <ele>1114.01</ele>
        <time>2025-04-15T14:43:57.875Z</time>
      </trkpt>
      <trkpt lat="44.84542" lon="3.83541">
        <ele>1114.83</ele>
        <time>2025-04-15T14:44:01.301Z</time>
      </trkpt>
      <trkpt lat="44.84568" lon="3.83559">
        <ele>1115.65</ele>
        <time>2025-04-15T14:44:04.732Z</time>
      </trkpt>
      <trkpt lat="44.84594" lon="3.83577">
        <ele>1116.58</ele>
        <time>2025-04-15T14:44:08.168Z</time>
      </trkpt>
      <trkpt lat="44.84621" lon="3.83595">
        <ele>1117.45</ele>
        <time>2025-04-15T14:44:11.608Z</time>
      </trkpt>
      <trkpt lat="44.84647" lon="3.83613">
        <ele>1118.38</ele>
        <time>2025-04-15T14:44:15.053Z</time>
      </trkpt>
      <trkpt lat="44.84673" lon="3.83631">
        <ele>1119.38</ele>
        <time>2025-04-15T14:44:18.503Z</time>
      </trkpt>
      <trkpt lat="44.847" lon="3.83649">
        <ele>1120.22</ele>
        <time>2025-04-15T14:44:21.957Z</time>
      </trkpt>
      <trkpt lat="44.84726" lon="3.83667">
        <ele>1121.03</ele>
        <time>2025-04-15T14:44:25.416Z</time>
      </trkpt>
      <trkpt lat="44.84752" lon="3.83685">
        <ele>1122.01</ele>
        <time>2025-04-15T14:44:28.880Z</time>
      </trkpt>
      <trkpt lat="44.84778" lon="3.83703">
        <ele>1123.12</ele>
        <time>2025-04-15T14:44:32.349Z</time>
      </trkpt>
      <trkpt lat="44.84805" lon="3.83721">
        <ele>1124.19</ele>
        <time>2025-04-15T14:44:35.822Z</time>
      </trkpt>
      <trkpt lat="44.84831" lon="3.8374">
        <ele>1125.25</ele>
        <time>2025-04-15T14:44:39.300Z</time>
      </trkpt>
      <trkpt lat="44.84857" lon="3.83758">
        <ele>1126.41</ele>
        <time>2025-04-15T14:44:42.783Z</time>
      </trkpt>
      <trkpt lat="44.84883" lon="3.83776">
        <ele>1127.59</ele>
        <time>2025-04-15T14:44:46.270Z</time>
      </trkpt>
      <trkpt lat="44.84909" lon="3.83793">
        <ele>1128.75</ele>
        <time>2025-04-15T14:44:49.762Z</time>
      </trkpt>
      <trkpt lat="44.84935" lon="3.83811">
        <ele>1129.85</ele>
        <time>2025-04-15T14:44:53.258Z</time>
      </trkpt>
      <trkpt lat="44.8496" lon="3.83829">
        <ele>1130.93</ele>
        <time>2025-04-15T14:44:56.759Z</time>
      </trkpt>
      <trkpt lat="44.84986" lon="3.83847">
        <ele>1131.97</ele>
        <time>2025-04-15T14:45:00.265Z</time>
      </trkpt>
      <trkpt lat="44.85012" lon="3.83865">
        <ele>1133.05</ele>
        <time>2025-04-15T14:45:03.775Z</time>
      </trkpt>
      <trkpt lat="44.85014" lon="3.83869">
        <ele>1134.07</ele>
        <time>2025-04-15T14:45:07.286Z</time>
      </trkpt>
      <trkpt lat="44.85042" lon="3.83888">
        <ele>1135.19</ele>
        <time>2025-04-15T14:45:10.802Z</time>
      </trkpt>
      <trkpt lat="44.8507" lon="3.83908">
        <ele>1136.32</ele>
        <time>2025-04-15T14:45:14.323Z</time>
      </trkpt>
      <trkpt lat="44.85098" lon="3.83927">
        <ele>1137.33</ele>
        <time>2025-04-15T14:45:17.849Z</time>
      </trkpt>
      <trkpt lat="44.85126" lon="3.83946">
        <ele>1138.28</ele>
        <time>2025-04-15T14:45:21.380Z</time>
      </trkpt>
      <trkpt lat="44.85153" lon="3.83965">
        <ele>1139.13</ele>
        <time>2025-04-15T14:45:24.916Z</time>
      </trkpt>
      <trkpt lat="44.85181" lon="3.83985">
        <ele>1140</ele>
        <time>2025-04-15T14:45:28.457Z</time>
      </trkpt>
      <trkpt lat="44.85209" lon="3.84004">
        <ele>1140.86</ele>
        <time>2025-04-15T14:45:32.003Z</time>
      </trkpt>
      <trkpt lat="44.85237" lon="3.84023">
        <ele>1141.7</ele>
        <time>2025-04-15T14:45:35.554Z</time>
      </trkpt>
      <trkpt lat="44.85265" lon="3.84042">
        <ele>1142.55</ele>
        <time>2025-04-15T14:45:39.109Z</time>
      </trkpt>
      <trkpt lat="44.85293" lon="3.84061">
        <ele>1143.4</ele>
        <time>2025-04-15T14:45:42.669Z</time>
      </trkpt>
      <trkpt lat="44.85321" lon="3.84081">
        <ele>1144.22</ele>
        <time>2025-04-15T14:45:46.234Z</time>
      </trkpt>
      <trkpt lat="44.85349" lon="3.841">
        <ele>1145.05</ele>
        <time>2025-04-15T14:45:49.804Z</time>
      </trkpt>
      <trkpt lat="44.85377" lon="3.84119">
        <ele>1145.83</ele>
        <time>2025-04-15T14:45:53.379Z</time>
      </trkpt>
      <trkpt lat="44.85404" lon="3.84138">
        <ele>1146.58</ele>
        <time>2025-04-15T14:45:56.959Z</time>
      </trkpt>
      <trkpt lat="44.85432" lon="3.84158">
        <ele>1147.35</ele>
        <time>2025-04-15T14:46:00.544Z</time>
      </trkpt>
      <trkpt lat="44.8546" lon="3.84177">
        <ele>1148.08</ele>
        <time>2025-04-15T14:46:04.134Z</time>
      </trkpt>
      <trkpt lat="44.85488" lon="3.84196">
        <ele>1148.7</ele>
        <time>2025-04-15T14:46:07.729Z</time>
      </trkpt>
      <trkpt lat="44.85516" lon="3.84215">
        <ele>1149.21</ele>
        <time>2025-04-15T14:46:11.329Z</time>
      </trkpt>
      <trkpt lat="44.85544" lon="3.84234">
        <ele>1149.6</ele>
        <time>2025-04-15T14:46:14.934Z</time>
      </trkpt>
      <trkpt lat="44.85572" lon="3.84254">
        <ele>1149.89</ele>
        <time>2025-04-15T14:46:18.544Z</time>
      </trkpt>
      <trkpt lat="44.856" lon="3.84273">
        <ele>1150.08</ele>
        <time>2025-04-15T14:46:22.159Z</time>
      </trkpt>
      <trkpt lat="44.85628" lon="3.84292">
        <ele>1150.29</ele>
        <time>2025-04-15T14:46:25.779Z</time>
      </trkpt>
      <trkpt lat="44.85655" lon="3.84311">
        <ele>1150.54</ele>
        <time>2025-04-15T14:46:29.404Z</time>
      </trkpt>
      <trkpt lat="44.85683" lon="3.84331">
        <ele>1150.68</ele>
        <time>2025-04-15T14:46:33.034Z</time>
      </trkpt>
      <trkpt lat="44.85711" lon="3.8435">
        <ele>1150.71</ele>
        <time>2025-04-15T14:46:36.669Z</time>
      </trkpt>
      <trkpt lat="44.85739" lon="3.84369">
        <ele>1150.69</ele>
        <time>2025-04-15T14:46:40.309Z</time>
      </trkpt>
      <trkpt lat="44.85744" lon="3.84371">
        <ele>1150.6</ele>
        <time>2025-04-15T14:46:43.950Z</time>
      </trkpt>
      <trkpt lat="44.85752" lon="3.84378">
        <ele>1150.45</ele>
        <time>2025-04-15T14:46:47.592Z</time>
      </trkpt>
      <trkpt lat="44.85756" lon="3.8438">
        <ele>1150.24</ele>
        <time>2025-04-15T14:46:51.235Z</time>
      </trkpt>
      <trkpt lat="44.85784" lon="3.84399">
        <ele>1150.02</ele>
        <time>2025-04-15T14:46:54.883Z</time>
      </trkpt>
      <trkpt lat="44.85811" lon="3.84418">
        <ele>1149.76</ele>
        <time>2025-04-15T14:46:58.536Z</time>
      </trkpt>
      <trkpt lat="44.85839" lon="3.84437">
        <ele>1149.31</ele>
        <time>2025-04-15T14:47:02.194Z</time>
      </trkpt>
      <trkpt lat="44.85866" lon="3.84456">
        <ele>1148.84</ele>
        <time>2025-04-15T14:47:05.857Z</time>
      </trkpt>
      <trkpt lat="44.85894" lon="3.84474">
        <ele>1148.33</ele>
        <time>2025-04-15T14:47:09.525Z</time>
      </trkpt>
      <trkpt lat="44.85921" lon="3.84493">
        <ele>1147.74</ele>
        <time>2025-04-15T14:47:13.197Z</time>
      </trkpt>
      <trkpt lat="44.85949" lon="3.84512">
        <ele>1147.13</ele>
        <time>2025-04-15T14:47:16.874Z</time>
      </trkpt>
      <trkpt lat="44.85976" lon="3.84531">
        <ele>1146.51</ele>
        <time>2025-04-15T14:47:20.556Z</time>
      </trkpt>
      <trkpt lat="44.86004" lon="3.8455">
        <ele>1145.78</ele>
        <time>2025-04-15T14:47:24.243Z</time>
      </trkpt>
      <trkpt lat="44.86031" lon="3.84569">
        <ele>1144.92</ele>
        <time>2025-04-15T14:47:27.935Z</time>
      </trkpt>
      <trkpt lat="44.86059" lon="3.84588">
        <ele>1144.07</ele>
        <time>2025-04-15T14:47:31.632Z</time>
      </trkpt>
      <trkpt lat="44.86086" lon="3.84607">
        <ele>1143.24</ele>
        <time>2025-04-15T14:47:35.334Z</time>
      </trkpt>
      <trkpt lat="44.86114" lon="3.84626">
        <ele>1142.39</ele>
        <time>2025-04-15T14:47:39.041Z</time>
      </trkpt>
      <trkpt lat="44.86141" lon="3.84644">
        <ele>1141.48</ele>
        <time>2025-04-15T14:47:42.753Z</time>
      </trkpt>
      <trkpt lat="44.86169" lon="3.84663">
        <ele>1140.55</ele>
        <time>2025-04-15T14:47:46.469Z</time>
      </trkpt>
      <trkpt lat="44.86196" lon="3.84682">
        <ele>1139.6</ele>
        <time>2025-04-15T14:47:50.190Z</time>
      </trkpt>
      <trkpt lat="44.86224" lon="3.84701">
        <ele>1138.68</ele>
        <time>2025-04-15T14:47:53.916Z</time>
      </trkpt>
      <trkpt lat="44.86251" lon="3.8472">
        <ele>1137.78</ele>
        <time>2025-04-15T14:47:57.647Z</time>
      </trkpt>
      <trkpt lat="44.86279" lon="3.84739">
        <ele>1136.86</ele>
        <time>2025-04-15T14:48:01.383Z</time>
      </trkpt>
      <trkpt lat="44.86306" lon="3.84758">
        <ele>1135.89</ele>
        <time>2025-04-15T14:48:05.124Z</time>
      </trkpt>
      <trkpt lat="44.86334" lon="3.84777">
        <ele>1134.86</ele>
        <time>2025-04-15T14:48:08.870Z</time>
      </trkpt>
      <trkpt lat="44.86335" lon="3.84779">
        <ele>1134.05</ele>
        <time>2025-04-15T14:48:12.616Z</time>
      </trkpt>
      <trkpt lat="44.86364" lon="3.84794">
        <ele>1133.18</ele>
        <time>2025-04-15T14:48:16.367Z</time>
      </trkpt>
      <trkpt lat="44.86394" lon="3.84808">
        <ele>1132.43</ele>
        <time>2025-04-15T14:48:20.123Z</time>
      </trkpt>
      <trkpt lat="44.86424" lon="3.84823">
        <ele>1131.87</ele>
        <time>2025-04-15T14:48:23.884Z</time>
      </trkpt>
      <trkpt lat="44.86436" lon="3.84829">
        <ele>1131.27</ele>
        <time>2025-04-15T14:48:27.647Z</time>
      </trkpt>
      <trkpt lat="44.86436" lon="3.84867">
        <ele>1130.7</ele>
        <time>2025-04-15T14:48:31.415Z</time>
      </trkpt>
      <trkpt lat="44.86441" lon="3.84878">
        <ele>1130.22</ele>
        <time>2025-04-15T14:48:35.184Z</time>
      </trkpt>
      <trkpt lat="44.86454" lon="3.84911">
        <ele>1129.78</ele>
        <time>2025-04-15T14:48:38.957Z</time>
      </trkpt>
      <trkpt lat="44.86467" lon="3.84944">
        <ele>1129.51</ele>
        <time>2025-04-15T14:48:42.735Z</time>
      </trkpt>
      <trkpt lat="44.8648" lon="3.84977">
        <ele>1129.28</ele>
        <time>2025-04-15T14:48:46.517Z</time>
      </trkpt>
      <trkpt lat="44.86493" lon="3.8501">
        <ele>1129</ele>
        <time>2025-04-15T14:48:50.303Z</time>
      </trkpt>
      <trkpt lat="44.86505" lon="3.85043">
        <ele>1128.85</ele>
        <time>2025-04-15T14:48:54.094Z</time>
      </trkpt>
      <trkpt lat="44.86524" lon="3.85072">
        <ele>1128.88</ele>
        <time>2025-04-15T14:48:57.889Z</time>
      </trkpt>
      <trkpt lat="44.86543" lon="3.85101">
        <ele>1129.03</ele>
        <time>2025-04-15T14:49:01.688Z</time>
      </trkpt>
      <trkpt lat="44.86562" lon="3.85131">
        <ele>1129.2</ele>
        <time>2025-04-15T14:49:05.492Z</time>
      </trkpt>
      <trkpt lat="44.8658" lon="3.8516">
        <ele>1129.51</ele>
        <time>2025-04-15T14:49:09.300Z</time>
      </trkpt>
      <trkpt lat="44.86599" lon="3.85189">
        <ele>1129.97</ele>
        <time>2025-04-15T14:49:13.113Z</time>
      </trkpt>
      <trkpt lat="44.86618" lon="3.85219">
        <ele>1130.57</ele>
        <time>2025-04-15T14:49:16.930Z</time>
      </trkpt>
      <trkpt lat="44.86637" lon="3.85248">
        <ele>1131.22</ele>
        <time>2025-04-15T14:49:20.752Z</time>
      </trkpt>
      <trkpt lat="44.86656" lon="3.85277">
        <ele>1131.8</ele>
        <time>2025-04-15T14:49:24.578Z</time>
      </trkpt>
      <trkpt lat="44.86664" lon="3.85297">
        <ele>1132.47</ele>
        <time>2025-04-15T14:49:28.407Z</time>
      </trkpt>
      <trkpt lat="44.86673" lon="3.85318">
        <ele>1133.27</ele>
        <time>2025-04-15T14:49:32.239Z</time>
      </trkpt>
      <trkpt lat="44.86683" lon="3.85358">
        <ele>1134.13</ele>
        <time>2025-04-15T14:49:36.076Z</time>
      </trkpt>
      <trkpt lat="44.86692" lon="3.85399">
        <ele>1135</ele>
        <time>2025-04-15T14:49:39.918Z</time>
      </trkpt>
      <trkpt lat="44.86702" lon="3.8544">
        <ele>1135.92</ele>
        <time>2025-04-15T14:49:43.764Z</time>
      </trkpt>
      <trkpt lat="44.86712" lon="3.85481">
        <ele>1136.88</ele>
        <time>2025-04-15T14:49:47.615Z</time>
      </trkpt>
      <trkpt lat="44.86722" lon="3.85522">
        <ele>1137.84</ele>
        <time>2025-04-15T14:49:51.471Z</time>
      </trkpt>
      <trkpt lat="44.86732" lon="3.85563">
        <ele>1138.88</ele>
        <time>2025-04-15T14:49:55.332Z</time>
      </trkpt>
      <trkpt lat="44.86742" lon="3.85604">
        <ele>1139.95</ele>
        <time>2025-04-15T14:49:59.198Z</time>
      </trkpt>
      <trkpt lat="44.86752" lon="3.85644">
        <ele>1140.95</ele>
        <time>2025-04-15T14:50:03.069Z</time>
      </trkpt>
      <trkpt lat="44.86762" lon="3.85685">
        <ele>1141.96</ele>
        <time>2025-04-15T14:50:06.945Z</time>
      </trkpt>
      <trkpt lat="44.86771" lon="3.85725">
        <ele>1143.03</ele>
        <time>2025-04-15T14:50:10.826Z</time>
      </trkpt>
      <trkpt lat="44.86779" lon="3.85747">
        <ele>1144.03</ele>
        <time>2025-04-15T14:50:14.710Z</time>
      </trkpt>
      <trkpt lat="44.86786" lon="3.85768">
        <ele>1145.01</ele>
        <time>2025-04-15T14:50:18.596Z</time>
      </trkpt>
      <trkpt lat="44.86798" lon="3.85786">
        <ele>1145.94</ele>
        <time>2025-04-15T14:50:22.485Z</time>
      </trkpt>
      <trkpt lat="44.8681" lon="3.85805">
        <ele>1146.78</ele>
        <time>2025-04-15T14:50:26.377Z</time>
      </trkpt>
      <trkpt lat="44.86824" lon="3.85821">
        <ele>1147.5</ele>
        <time>2025-04-15T14:50:30.272Z</time>
      </trkpt>
      <trkpt lat="44.86838" lon="3.85837">
        <ele>1148.14</ele>
        <time>2025-04-15T14:50:34.170Z</time>
      </trkpt>
      <trkpt lat="44.86864" lon="3.85856">
        <ele>1148.66</ele>
        <time>2025-04-15T14:50:38.072Z</time>
      </trkpt>
      <trkpt lat="44.86884" lon="3.85865">
        <ele>1149.07</ele>
        <time>2025-04-15T14:50:41.978Z</time>
      </trkpt>
      <trkpt lat="44.86904" lon="3.85875">
        <ele>1149.37</ele>
        <time>2025-04-15T14:50:45.887Z</time>
      </trkpt>
      <trkpt lat="44.86924" lon="3.85884">
        <ele>1149.55</ele>
        <time>2025-04-15T14:50:49.799Z</time>
      </trkpt>
      <trkpt lat="44.86944" lon="3.85893">
        <ele>1149.49</ele>
        <time>2025-04-15T14:50:53.715Z</time>
      </trkpt>
      <trkpt lat="44.86965" lon="3.85901">
        <ele>1149.26</ele>
        <time>2025-04-15T14:50:57.634Z</time>
      </trkpt>
      <trkpt lat="44.86984" lon="3.85916">
        <ele>1148.91</ele>
        <time>2025-04-15T14:51:01.557Z</time>
      </trkpt>
      <trkpt lat="44.87001" lon="3.85944">
        <ele>1148.6</ele>
        <time>2025-04-15T14:51:05.484Z</time>
      </trkpt>
      <trkpt lat="44.87014" lon="3.85979">
        <ele>1148.21</ele>
        <time>2025-04-15T14:51:09.415Z</time>
      </trkpt>
      <trkpt lat="44.87027" lon="3.86013">
        <ele>1147.57</ele>
        <time>2025-04-15T14:51:13.351Z</time>
      </trkpt>
      <trkpt lat="44.8704" lon="3.86047">
        <ele>1146.69</ele>
        <time>2025-04-15T14:51:17.291Z</time>
      </trkpt>
      <trkpt lat="44.8705" lon="3.86086">
        <ele>1145.68</ele>
        <time>2025-04-15T14:51:21.236Z</time>
      </trkpt>
      <trkpt lat="44.87059" lon="3.86122">
        <ele>1144.5</ele>
        <time>2025-04-15T14:51:25.185Z</time>
      </trkpt>
      <trkpt lat="44.8708" lon="3.86148">
        <ele>1143.13</ele>
        <time>2025-04-15T14:51:29.139Z</time>
      </trkpt>
      <trkpt lat="44.87106" lon="3.86163">
        <ele>1141.76</ele>
        <time>2025-04-15T14:51:33.097Z</time>
      </trkpt>
      <trkpt lat="44.87125" lon="3.86163">
        <ele>1140.32</ele>
        <time>2025-04-15T14:51:37.058Z</time>
      </trkpt>
      <trkpt lat="44.87145" lon="3.86154">
        <ele>1138.78</ele>
        <time>2025-04-15T14:51:41.023Z</time>
      </trkpt>
      <trkpt lat="44.87161" lon="3.8615">
        <ele>1137.19</ele>
        <time>2025-04-15T14:51:44.990Z</time>
      </trkpt>
      <trkpt lat="44.87177" lon="3.86146">
        <ele>1135.56</ele>
        <time>2025-04-15T14:51:48.960Z</time>
      </trkpt>
      <trkpt lat="44.87194" lon="3.86139">
        <ele>1133.87</ele>
        <time>2025-04-15T14:51:52.933Z</time>
      </trkpt>
      <trkpt lat="44.87219" lon="3.8612">
        <ele>1132.06</ele>
        <time>2025-04-15T14:51:56.910Z</time>
      </trkpt>
      <trkpt lat="44.87243" lon="3.86101">
        <ele>1130.16</ele>
        <time>2025-04-15T14:52:00.892Z</time>
      </trkpt>
      <trkpt lat="44.87252" lon="3.86099">
        <ele>1128.35</ele>
        <time>2025-04-15T14:52:04.875Z</time>
      </trkpt>
      <trkpt lat="44.8728" lon="3.86114">
        <ele>1126.44</ele>
        <time>2025-04-15T14:52:08.863Z</time>
      </trkpt>
      <trkpt lat="44.87301" lon="3.86138">
        <ele>1124.55</ele>
        <time>2025-04-15T14:52:12.855Z</time>
      </trkpt>
      <trkpt lat="44.87323" lon="3.86163">
        <ele>1122.62</ele>
        <time>2025-04-15T14:52:16.852Z</time>
      </trkpt>
      <trkpt lat="44.87344" lon="3.86187">
        <ele>1120.72</ele>
        <time>2025-04-15T14:52:20.853Z</time>
      </trkpt>
      <trkpt lat="44.87366" lon="3.86212">
        <ele>1118.86</ele>
        <time>2025-04-15T14:52:24.859Z</time>
      </trkpt>
      <trkpt lat="44.87387" lon="3.86236">
        <ele>1117.07</ele>
        <time>2025-04-15T14:52:28.869Z</time>
      </trkpt>
      <trkpt lat="44.87402" lon="3.8626">
        <ele>1115.31</ele>
        <time>2025-04-15T14:52:32.883Z</time>
      </trkpt>
      <trkpt lat="44.87407" lon="3.86282">
        <ele>1113.58</ele>
        <time>2025-04-15T14:52:36.899Z</time>
      </trkpt>
      <trkpt lat="44.87411" lon="3.86305">
        <ele>1111.93</ele>
        <time>2025-04-15T14:52:40.918Z</time>
      </trkpt>
      <trkpt lat="44.87415" lon="3.86339">
        <ele>1110.32</ele>
        <time>2025-04-15T14:52:44.941Z</time>
      </trkpt>
      <trkpt lat="44.87418" lon="3.86372">
        <ele>1108.73</ele>
        <time>2025-04-15T14:52:48.968Z</time>
      </trkpt>
      <trkpt lat="44.87422" lon="3.86406">
        <ele>1107.14</ele>
        <time>2025-04-15T14:52:52.999Z</time>
      </trkpt>
      <trkpt lat="44.87426" lon="3.8644">
        <ele>1105.58</ele>
        <time>2025-04-15T14:52:57.033Z</time>
      </trkpt>
      <trkpt lat="44.87432" lon="3.8647">
        <ele>1104.06</ele>
        <time>2025-04-15T14:53:01.071Z</time>
      </trkpt>
      <trkpt lat="44.87441" lon="3.86487">
        <ele>1102.54</ele>
        <time>2025-04-15T14:53:05.111Z</time>
      </trkpt>
      <trkpt lat="44.87467" lon="3.86498">
        <ele>1101</ele>
        <time>2025-04-15T14:53:09.156Z</time>
      </trkpt>
      <trkpt lat="44.87482" lon="3.86509">
        <ele>1099.52</ele>
        <time>2025-04-15T14:53:13.203Z</time>
      </trkpt>
      <trkpt lat="44.87501" lon="3.86533">
        <ele>1098.03</ele>
        <time>2025-04-15T14:53:17.255Z</time>
      </trkpt>
      <trkpt lat="44.8752" lon="3.86557">
        <ele>1096.59</ele>
        <time>2025-04-15T14:53:21.311Z</time>
      </trkpt>
      <trkpt lat="44.8754" lon="3.86581">
        <ele>1095.2</ele>
        <time>2025-04-15T14:53:25.371Z</time>
      </trkpt>
      <trkpt lat="44.87559" lon="3.86609">
        <ele>1093.86</ele>
        <time>2025-04-15T14:53:29.435Z</time>
      </trkpt>
      <trkpt lat="44.87572" lon="3.86648">
        <ele>1092.54</ele>
        <time>2025-04-15T14:53:33.504Z</time>
      </trkpt>
      <trkpt lat="44.8758" lon="3.86672">
        <ele>1091.21</ele>
        <time>2025-04-15T14:53:37.576Z</time>
      </trkpt>
      <trkpt lat="44.87588" lon="3.86696">
        <ele>1089.89</ele>
        <time>2025-04-15T14:53:41.651Z</time>
      </trkpt>
      <trkpt lat="44.87595" lon="3.86721">
        <ele>1088.56</ele>
        <time>2025-04-15T14:53:45.729Z</time>
      </trkpt>
      <trkpt lat="44.87613" lon="3.86751">
        <ele>1087.2</ele>
        <time>2025-04-15T14:53:49.812Z</time>
      </trkpt>
      <trkpt lat="44.8763" lon="3.86769">
        <ele>1085.93</ele>
        <time>2025-04-15T14:53:53.898Z</time>
      </trkpt>
      <trkpt lat="44.87647" lon="3.86787">
        <ele>1084.7</ele>
        <time>2025-04-15T14:53:57.988Z</time>
      </trkpt>
      <trkpt lat="44.87673" lon="3.86805">
        <ele>1083.55</ele>
        <time>2025-04-15T14:54:02.082Z</time>
      </trkpt>
      <trkpt lat="44.877" lon="3.86823">
        <ele>1082.41</ele>
        <time>2025-04-15T14:54:06.181Z</time>
      </trkpt>
      <trkpt lat="44.87726" lon="3.8684">
        <ele>1081.22</ele>
        <time>2025-04-15T14:54:10.285Z</time>
      </trkpt>
      <trkpt lat="44.87753" lon="3.86858">
        <ele>1080.04</ele>
        <time>2025-04-15T14:54:14.393Z</time>
      </trkpt>
      <trkpt lat="44.87779" lon="3.86875">
        <ele>1078.82</ele>
        <time>2025-04-15T14:54:18.506Z</time>
      </trkpt>
      <trkpt lat="44.87806" lon="3.86893">
        <ele>1077.6</ele>
        <time>2025-04-15T14:54:22.624Z</time>
      </trkpt>
      <trkpt lat="44.87827" lon="3.86898">
        <ele>1076.44</ele>
        <time>2025-04-15T14:54:26.745Z</time>
      </trkpt>
      <trkpt lat="44.87849" lon="3.86903">
        <ele>1075.37</ele>
        <time>2025-04-15T14:54:30.870Z</time>
      </trkpt>
      <trkpt lat="44.87864" lon="3.86914">
        <ele>1074.37</ele>
        <time>2025-04-15T14:54:34.997Z</time>
      </trkpt>
      <trkpt lat="44.87883" lon="3.86944">
        <ele>1073.31</ele>
        <time>2025-04-15T14:54:39.129Z</time>
      </trkpt>
      <trkpt lat="44.87902" lon="3.86974">
        <ele>1072.15</ele>
        <time>2025-04-15T14:54:43.265Z</time>
      </trkpt>
      <trkpt lat="44.87921" lon="3.87004">
        <ele>1071</ele>
        <time>2025-04-15T14:54:47.406Z</time>
      </trkpt>
      <trkpt lat="44.8794" lon="3.87034">
        <ele>1069.87</ele>
        <time>2025-04-15T14:54:51.552Z</time>
      </trkpt>
      <trkpt lat="44.87959" lon="3.87064">
        <ele>1068.69</ele>
        <time>2025-04-15T14:54:55.702Z</time>
      </trkpt>
      <trkpt lat="44.87978" lon="3.87094">
        <ele>1067.51</ele>
        <time>2025-04-15T14:54:59.857Z</time>
      </trkpt>
      <trkpt lat="44.87997" lon="3.87124">
        <ele>1066.39</ele>
        <time>2025-04-15T14:55:04.016Z</time>
      </trkpt>
      <trkpt lat="44.88012" lon="3.87137">
        <ele>1065.3</ele>
        <time>2025-04-15T14:55:08.178Z</time>
      </trkpt>
      <trkpt lat="44.88036" lon="3.87146">
        <ele>1064.12</ele>
        <time>2025-04-15T14:55:12.344Z</time>
      </trkpt>
      <trkpt lat="44.88061" lon="3.87154">
        <ele>1062.91</ele>
        <time>2025-04-15T14:55:16.514Z</time>
      </trkpt>
      <trkpt lat="44.8808" lon="3.87169">
        <ele>1061.72</ele>
        <time>2025-04-15T14:55:20.688Z</time>
      </trkpt>
      <trkpt lat="44.88097" lon="3.87194">
        <ele>1060.54</ele>
        <time>2025-04-15T14:55:24.866Z</time>
      </trkpt>
      <trkpt lat="44.88115" lon="3.87218">
        <ele>1059.4</ele>
        <time>2025-04-15T14:55:29.048Z</time>
      </trkpt>
      <trkpt lat="44.88132" lon="3.87242">
        <ele>1058.22</ele>
        <time>2025-04-15T14:55:33.233Z</time>
      </trkpt>
      <trkpt lat="44.88149" lon="3.87266">
        <ele>1056.96</ele>
        <time>2025-04-15T14:55:37.422Z</time>
      </trkpt>
      <trkpt lat="44.88163" lon="3.87304">
        <ele>1055.61</ele>
        <time>2025-04-15T14:55:41.616Z</time>
      </trkpt>
      <trkpt lat="44.88177" lon="3.87341">
        <ele>1054.19</ele>
        <time>2025-04-15T14:55:45.815Z</time>
      </trkpt>
      <trkpt lat="44.88185" lon="3.87376">
        <ele>1052.76</ele>
        <time>2025-04-15T14:55:50.018Z</time>
      </trkpt>
      <trkpt lat="44.88193" lon="3.87411">
        <ele>1051.37</ele>
        <time>2025-04-15T14:55:54.225Z</time>
      </trkpt>
      <trkpt lat="44.882" lon="3.87446">
        <ele>1050.01</ele>
        <time>2025-04-15T14:55:58.437Z</time>
      </trkpt>
      <trkpt lat="44.88204" lon="3.87477">
        <ele>1048.66</ele>
        <time>2025-04-15T14:56:02.652Z</time>
      </trkpt>
      <trkpt lat="44.88208" lon="3.87508">
        <ele>1047.31</ele>
        <time>2025-04-15T14:56:06.871Z</time>
      </trkpt>
      <trkpt lat="44.88211" lon="3.87538">
        <ele>1045.97</ele>
        <time>2025-04-15T14:56:11.093Z</time>
      </trkpt>
      <trkpt lat="44.8822" lon="3.87558">
        <ele>1044.65</ele>
        <time>2025-04-15T14:56:15.318Z</time>
      </trkpt>
      <trkpt lat="44.88239" lon="3.87579">
        <ele>1043.34</ele>
        <time>2025-04-15T14:56:19.547Z</time>
      </trkpt>
      <trkpt lat="44.88258" lon="3.87601">
        <ele>1042.01</ele>
        <time>2025-04-15T14:56:23.780Z</time>
      </trkpt>
      <trkpt lat="44.88258" lon="3.87601">
        <ele>1040.8</ele>
        <time>2025-04-15T14:56:28.013Z</time>
      </trkpt>
      <trkpt lat="44.88276" lon="3.87616">
        <ele>1039.59</ele>
        <time>2025-04-15T14:56:32.249Z</time>
      </trkpt>
      <trkpt lat="44.88297" lon="3.87641">
        <ele>1038.34</ele>
        <time>2025-04-15T14:56:36.489Z</time>
      </trkpt>
      <trkpt lat="44.8832" lon="3.8767">
        <ele>1037.15</ele>
        <time>2025-04-15T14:56:40.734Z</time>
      </trkpt>
      <trkpt lat="44.88343" lon="3.87699">
        <ele>1035.98</ele>
        <time>2025-04-15T14:56:44.984Z</time>
      </trkpt>
      <trkpt lat="44.88366" lon="3.87727">
        <ele>1034.86</ele>
        <time>2025-04-15T14:56:49.239Z</time>
      </trkpt>
      <trkpt lat="44.88383" lon="3.87754">
        <ele>1033.86</ele>
        <time>2025-04-15T14:56:53.498Z</time>
      </trkpt>
      <trkpt lat="44.88401" lon="3.8778">
        <ele>1032.93</ele>
        <time>2025-04-15T14:56:57.761Z</time>
      </trkpt>
      <trkpt lat="44.88419" lon="3.87806">
        <ele>1032.04</ele>
        <time>2025-04-15T14:57:02.028Z</time>
      </trkpt>
      <trkpt lat="44.88437" lon="3.87832">
        <ele>1031.27</ele>
        <time>2025-04-15T14:57:06.300Z</time>
      </trkpt>
      <trkpt lat="44.88461" lon="3.8785">
        <ele>1030.66</ele>
        <time>2025-04-15T14:57:10.576Z</time>
      </trkpt>
      <trkpt lat="44.88486" lon="3.87867">
        <ele>1030.06</ele>
        <time>2025-04-15T14:57:14.856Z</time>
      </trkpt>
      <trkpt lat="44.88501" lon="3.87882">
        <ele>1029.47</ele>
        <time>2025-04-15T14:57:19.139Z</time>
      </trkpt>
      <trkpt lat="44.88519" lon="3.87917">
        <ele>1028.9</ele>
        <time>2025-04-15T14:57:23.427Z</time>
      </trkpt>
      <trkpt lat="44.88537" lon="3.87953">
        <ele>1028.47</ele>
        <time>2025-04-15T14:57:27.720Z</time>
      </trkpt>
      <trkpt lat="44.88556" lon="3.87979">
        <ele>1028.22</ele>
        <time>2025-04-15T14:57:32.017Z</time>
      </trkpt>
      <trkpt lat="44.88574" lon="3.88006">
        <ele>1028.07</ele>
        <time>2025-04-15T14:57:36.319Z</time>
      </trkpt>
      <trkpt lat="44.88593" lon="3.88014">
        <ele>1027.99</ele>
        <time>2025-04-15T14:57:40.624Z</time>
      </trkpt>
      <trkpt lat="44.88612" lon="3.88021">
        <ele>1027.91</ele>
        <time>2025-04-15T14:57:44.932Z</time>
      </trkpt>
      <trkpt lat="44.88627" lon="3.88035">
        <ele>1027.85</ele>
        <time>2025-04-15T14:57:49.243Z</time>
      </trkpt>
      <trkpt lat="44.88643" lon="3.88049">
        <ele>1027.81</ele>
        <time>2025-04-15T14:57:53.557Z</time>
      </trkpt>
      <trkpt lat="44.88664" lon="3.88053">
        <ele>1027.82</ele>
        <time>2025-04-15T14:57:57.874Z</time>
      </trkpt>
      <trkpt lat="44.88685" lon="3.88058">
        <ele>1027.9</ele>
        <time>2025-04-15T14:58:02.195Z</time>
      </trkpt>
      <trkpt lat="44.88705" lon="3.88068">
        <ele>1028.04</ele>
        <time>2025-04-15T14:58:06.519Z</time>
      </trkpt>
      <trkpt lat="44.88726" lon="3.88088">
        <ele>1028.08</ele>
        <time>2025-04-15T14:58:10.847Z</time>
      </trkpt>
      <trkpt lat="44.88743" lon="3.88114">
        <ele>1028.09</ele>
        <time>2025-04-15T14:58:15.179Z</time>
      </trkpt>
      <trkpt lat="44.88763" lon="3.88118">
        <ele>1028.14</ele>
        <time>2025-04-15T14:58:19.514Z</time>
      </trkpt>
      <trkpt lat="44.88784" lon="3.88099">
        <ele>1028.19</ele>
        <time>2025-04-15T14:58:23.853Z</time>
      </trkpt>
      <trkpt lat="44.88803" lon="3.88081">
        <ele>1028.17</ele>
        <time>2025-04-15T14:58:28.196Z</time>
      </trkpt>
      <trkpt lat="44.8881" lon="3.88077">
        <ele>1028.15</ele>
        <time>2025-04-15T14:58:32.540Z</time>
      </trkpt>
      <trkpt lat="44.88822" lon="3.88046">
        <ele>1028.12</ele>
        <time>2025-04-15T14:58:36.888Z</time>
      </trkpt>
      <trkpt lat="44.88833" lon="3.88015">
        <ele>1028.04</ele>
        <time>2025-04-15T14:58:41.240Z</time>
      </trkpt>
      <trkpt lat="44.88842" lon="3.87991">
        <ele>1027.95</ele>
        <time>2025-04-15T14:58:45.595Z</time>
      </trkpt>
      <trkpt lat="44.88851" lon="3.87962">
        <ele>1027.76</ele>
        <time>2025-04-15T14:58:49.954Z</time>
      </trkpt>
      <trkpt lat="44.88861" lon="3.87932">
        <ele>1027.48</ele>
        <time>2025-04-15T14:58:54.317Z</time>
      </trkpt>
      <trkpt lat="44.8887" lon="3.87903">
        <ele>1027.13</ele>
        <time>2025-04-15T14:58:58.683Z</time>
      </trkpt>
      <trkpt lat="44.88891" lon="3.87905">
        <ele>1026.67</ele>
        <time>2025-04-15T14:59:03.053Z</time>
      </trkpt>
      <trkpt lat="44.88919" lon="3.87899">
        <ele>1026.12</ele>
        <time>2025-04-15T14:59:07.427Z</time>
      </trkpt>
      <trkpt lat="44.88947" lon="3.87892">
        <ele>1025.54</ele>
        <time>2025-04-15T14:59:11.806Z</time>
      </trkpt>
      <trkpt lat="44.88974" lon="3.87885">
        <ele>1024.86</ele>
        <time>2025-04-15T14:59:16.189Z</time>
      </trkpt>
      <trkpt lat="44.89002" lon="3.87879">
        <ele>1024.16</ele>
        <time>2025-04-15T14:59:20.577Z</time>
      </trkpt>
      <trkpt lat="44.8903" lon="3.87872">
        <ele>1023.35</ele>
        <time>2025-04-15T14:59:24.969Z</time>
      </trkpt>
      <trkpt lat="44.89057" lon="3.87865">
        <ele>1022.45</ele>
        <time>2025-04-15T14:59:29.366Z</time>
      </trkpt>
      <trkpt lat="44.89085" lon="3.87859">
        <ele>1021.53</ele>
        <time>2025-04-15T14:59:33.767Z</time>
      </trkpt>
      <trkpt lat="44.89112" lon="3.87852">
        <ele>1020.65</ele>
        <time>2025-04-15T14:59:38.173Z</time>
      </trkpt>
      <trkpt lat="44.8914" lon="3.87845">
        <ele>1019.71</ele>
        <time>2025-04-15T14:59:42.583Z</time>
      </trkpt>
      <trkpt lat="44.89164" lon="3.87843">
        <ele>1018.66</ele>
        <time>2025-04-15T14:59:46.997Z</time>
      </trkpt>
      <trkpt lat="44.89188" lon="3.87841">
        <ele>1017.55</ele>
        <time>2025-04-15T14:59:51.415Z</time>
      </trkpt>
      <trkpt lat="44.89218" lon="3.87838">
        <ele>1016.36</ele>
        <time>2025-04-15T14:59:55.838Z</time>
      </trkpt>
      <trkpt lat="44.89248" lon="3.87836">
        <ele>1015.11</ele>
        <time>2025-04-15T15:00:00.265Z</time>
      </trkpt>
      <trkpt lat="44.89278" lon="3.87833">
        <ele>1013.8</ele>
        <time>2025-04-15T15:00:04.697Z</time>
      </trkpt>
      <trkpt lat="44.89309" lon="3.8783">
        <ele>1012.51</ele>
        <time>2025-04-15T15:00:09.134Z</time>
      </trkpt>
      <trkpt lat="44.89339" lon="3.87827">
        <ele>1011.15</ele>
        <time>2025-04-15T15:00:13.576Z</time>
      </trkpt>
      <trkpt lat="44.89369" lon="3.87824">
        <ele>1009.67</ele>
        <time>2025-04-15T15:00:18.023Z</time>
      </trkpt>
      <trkpt lat="44.894" lon="3.87822">
        <ele>1008.18</ele>
        <time>2025-04-15T15:00:22.475Z</time>
      </trkpt>
      <trkpt lat="44.89431" lon="3.87824">
        <ele>1006.72</ele>
        <time>2025-04-15T15:00:26.932Z</time>
      </trkpt>
      <trkpt lat="44.89462" lon="3.87827">
        <ele>1005.18</ele>
        <time>2025-04-15T15:00:31.394Z</time>
      </trkpt>
      <trkpt lat="44.89493" lon="3.87829">
        <ele>1003.66</ele>
        <time>2025-04-15T15:00:35.861Z</time>
      </trkpt>
      <trkpt lat="44.89524" lon="3.87832">
        <ele>1002.22</ele>
        <time>2025-04-15T15:00:40.333Z</time>
      </trkpt>
      <trkpt lat="44.89555" lon="3.87834">
        <ele>1000.72</ele>
        <time>2025-04-15T15:00:44.810Z</time>
      </trkpt>
      <trkpt lat="44.89587" lon="3.87837">
        <ele>999.13</ele>
        <time>2025-04-15T15:00:49.292Z</time>
      </trkpt>
      <trkpt lat="44.89615" lon="3.8784">
        <ele>997.6</ele>
        <time>2025-04-15T15:00:53.778Z</time>
      </trkpt>
      <trkpt lat="44.89642" lon="3.87844">
        <ele>996.14</ele>
        <time>2025-04-15T15:00:58.269Z</time>
      </trkpt>
      <trkpt lat="44.8967" lon="3.87848">
        <ele>994.73</ele>
        <time>2025-04-15T15:01:02.764Z</time>
      </trkpt>
      <trkpt lat="44.89698" lon="3.87852">
        <ele>993.26</ele>
        <time>2025-04-15T15:01:07.264Z</time>
      </trkpt>
      <trkpt lat="44.89722" lon="3.87856">
        <ele>991.77</ele>
        <time>2025-04-15T15:01:11.767Z</time>
      </trkpt>
      <trkpt lat="44.89744" lon="3.8787">
        <ele>990.28</ele>
        <time>2025-04-15T15:01:16.274Z</time>
      </trkpt>
      <trkpt lat="44.89766" lon="3.87883">
        <ele>988.76</ele>
        <time>2025-04-15T15:01:20.785Z</time>
      </trkpt>
      <trkpt lat="44.89788" lon="3.87897">
        <ele>987.21</ele>
        <time>2025-04-15T15:01:25.300Z</time>
      </trkpt>
      <trkpt lat="44.89816" lon="3.87903">
        <ele>985.6</ele>
        <time>2025-04-15T15:01:29.820Z</time>
      </trkpt>
      <trkpt lat="44.89844" lon="3.87897">
        <ele>984.1</ele>
        <time>2025-04-15T15:01:34.344Z</time>
      </trkpt>
      <trkpt lat="44.89874" lon="3.87884">
        <ele>982.63</ele>
        <time>2025-04-15T15:01:38.873Z</time>
      </trkpt>
      <trkpt lat="44.89881" lon="3.87878">
        <ele>981.28</ele>
        <time>2025-04-15T15:01:43.403Z</time>
      </trkpt>
      <trkpt lat="44.89889" lon="3.87865">
        <ele>979.98</ele>
        <time>2025-04-15T15:01:47.935Z</time>
      </trkpt>
      <trkpt lat="44.89902" lon="3.87835">
        <ele>978.69</ele>
        <time>2025-04-15T15:01:52.471Z</time>
      </trkpt>
      <trkpt lat="44.899" lon="3.87805">
        <ele>977.39</ele>
        <time>2025-04-15T15:01:57.011Z</time>
      </trkpt>
      <trkpt lat="44.89891" lon="3.87779">
        <ele>976.11</ele>
        <time>2025-04-15T15:02:01.554Z</time>
      </trkpt>
      <trkpt lat="44.89873" lon="3.87751">
        <ele>974.97</ele>
        <time>2025-04-15T15:02:06.101Z</time>
      </trkpt>
      <trkpt lat="44.89855" lon="3.87723">
        <ele>973.96</ele>
        <time>2025-04-15T15:02:10.653Z</time>
      </trkpt>
      <trkpt lat="44.89838" lon="3.87692">
        <ele>972.8</ele>
        <time>2025-04-15T15:02:15.209Z</time>
      </trkpt>
      <trkpt lat="44.8982" lon="3.8766">
        <ele>971.59</ele>
        <time>2025-04-15T15:02:19.770Z</time>
      </trkpt>
      <trkpt lat="44.89803" lon="3.87629">
        <ele>970.46</ele>
        <time>2025-04-15T15:02:24.335Z</time>
      </trkpt>
      <trkpt lat="44.89795" lon="3.87596">
        <ele>969.43</ele>
        <time>2025-04-15T15:02:28.904Z</time>
      </trkpt>
      <trkpt lat="44.89793" lon="3.87569">
        <ele>968.67</ele>
        <time>2025-04-15T15:02:33.476Z</time>
      </trkpt>
      <trkpt lat="44.89799" lon="3.87538">
        <ele>968.03</ele>
        <time>2025-04-15T15:02:38.052Z</time>
      </trkpt>
      <trkpt lat="44.89806" lon="3.87508">
        <ele>967.62</ele>
        <time>2025-04-15T15:02:42.631Z</time>
      </trkpt>
      <trkpt lat="44.89821" lon="3.87487">
        <ele>967.34</ele>
        <time>2025-04-15T15:02:47.214Z</time>
      </trkpt>
      <trkpt lat="44.89842" lon="3.87474">
        <ele>967.29</ele>
        <time>2025-04-15T15:02:51.801Z</time>
      </trkpt>
      <trkpt lat="44.89861" lon="3.87472">
        <ele>967.36</ele>
        <time>2025-04-15T15:02:56.391Z</time>
      </trkpt>
      <trkpt lat="44.89881" lon="3.87476">
        <ele>967.46</ele>
        <time>2025-04-15T15:03:00.984Z</time>
      </trkpt>
      <trkpt lat="44.89901" lon="3.87486">
        <ele>967.61</ele>
        <time>2025-04-15T15:03:05.580Z</time>
      </trkpt>
      <trkpt lat="44.89922" lon="3.87496">
        <ele>967.88</ele>
        <time>2025-04-15T15:03:10.180Z</time>
      </trkpt>
      <trkpt lat="44.89943" lon="3.87506">
        <ele>968.25</ele>
        <time>2025-04-15T15:03:14.783Z</time>
      </trkpt>
      <trkpt lat="44.89971" lon="3.87511">
        <ele>968.86</ele>
        <time>2025-04-15T15:03:19.391Z</time>
      </trkpt>
      <trkpt lat="44.89988" lon="3.87508">
        <ele>969.55</ele>
        <time>2025-04-15T15:03:24.002Z</time>
      </trkpt>
      <trkpt lat="44.90001" lon="3.87496">
        <ele>970.31</ele>
        <time>2025-04-15T15:03:28.615Z</time>
      </trkpt>
      <trkpt lat="44.90012" lon="3.87478">
        <ele>971.15</ele>
        <time>2025-04-15T15:03:33.231Z</time>
      </trkpt>
      <trkpt lat="44.90022" lon="3.87441">
        <ele>972.01</ele>
        <time>2025-04-15T15:03:37.851Z</time>
      </trkpt>
      <trkpt lat="44.90032" lon="3.87403">
        <ele>972.88</ele>
        <time>2025-04-15T15:03:42.476Z</time>
      </trkpt>
      <trkpt lat="44.90042" lon="3.87365">
        <ele>973.79</ele>
        <time>2025-04-15T15:03:47.106Z</time>
      </trkpt>
      <trkpt lat="44.90053" lon="3.87327">
        <ele>974.79</ele>
        <time>2025-04-15T15:03:51.740Z</time>
      </trkpt>
      <trkpt lat="44.90063" lon="3.8729">
        <ele>975.89</ele>
        <time>2025-04-15T15:03:56.379Z</time>
      </trkpt>
      <trkpt lat="44.90074" lon="3.87261">
        <ele>976.81</ele>
        <time>2025-04-15T15:04:01.021Z</time>
      </trkpt>
      <trkpt lat="44.90084" lon="3.87232">
        <ele>977.71</ele>
        <time>2025-04-15T15:04:05.667Z</time>
      </trkpt>
      <trkpt lat="44.901" lon="3.87199">
        <ele>978.68</ele>
        <time>2025-04-15T15:04:10.318Z</time>
      </trkpt>
      <trkpt lat="44.90115" lon="3.87166">
        <ele>979.6</ele>
        <time>2025-04-15T15:04:14.973Z</time>
      </trkpt>
      <trkpt lat="44.90131" lon="3.87134">
        <ele>980.51</ele>
        <time>2025-04-15T15:04:19.632Z</time>
      </trkpt>
      <trkpt lat="44.90146" lon="3.87101">
        <ele>981.38</ele>
        <time>2025-04-15T15:04:24.296Z</time>
      </trkpt>
      <trkpt lat="44.90161" lon="3.87069">
        <ele>982.13</ele>
        <time>2025-04-15T15:04:28.964Z</time>
      </trkpt>
      <trkpt lat="44.90177" lon="3.87036">
        <ele>982.89</ele>
        <time>2025-04-15T15:04:33.637Z</time>
      </trkpt>
      <trkpt lat="44.90183" lon="3.87011">
        <ele>983.64</ele>
        <time>2025-04-15T15:04:38.313Z</time>
      </trkpt>
      <trkpt lat="44.9019" lon="3.86985">
        <ele>984.36</ele>
        <time>2025-04-15T15:04:42.992Z</time>
      </trkpt>
      <trkpt lat="44.90192" lon="3.86946">
        <ele>985.02</ele>
        <time>2025-04-15T15:04:47.675Z</time>
      </trkpt>
      <trkpt lat="44.9019" lon="3.86919">
        <ele>985.64</ele>
        <time>2025-04-15T15:04:52.362Z</time>
      </trkpt>
      <trkpt lat="44.90187" lon="3.86893">
        <ele>986.16</ele>
        <time>2025-04-15T15:04:57.052Z</time>
      </trkpt>
      <trkpt lat="44.90192" lon="3.86865">
        <ele>986.61</ele>
        <time>2025-04-15T15:05:01.745Z</time>
      </trkpt>
      <trkpt lat="44.90198" lon="3.8685">
        <ele>986.96</ele>
        <time>2025-04-15T15:05:06.440Z</time>
      </trkpt>
      <trkpt lat="44.90218" lon="3.8683">
        <ele>987.28</ele>
        <time>2025-04-15T15:05:11.139Z</time>
      </trkpt>
      <trkpt lat="44.90246" lon="3.86818">
        <ele>987.43</ele>
        <time>2025-04-15T15:05:15.842Z</time>
      </trkpt>
      <trkpt lat="44.90275" lon="3.86805">
        <ele>987.63</ele>
        <time>2025-04-15T15:05:20.550Z</time>
      </trkpt>
      <trkpt lat="44.9029" lon="3.86805">
        <ele>987.78</ele>
        <time>2025-04-15T15:05:25.261Z</time>
      </trkpt>
      <trkpt lat="44.90315" lon="3.86814">
        <ele>987.82</ele>
        <time>2025-04-15T15:05:29.976Z</time>
      </trkpt>
      <trkpt lat="44.9034" lon="3.86824">
        <ele>987.81</ele>
        <time>2025-04-15T15:05:34.695Z</time>
      </trkpt>
      <trkpt lat="44.90351" lon="3.86835">
        <ele>987.72</ele>
        <time>2025-04-15T15:05:39.416Z</time>
      </trkpt>
      <trkpt lat="44.90368" lon="3.86854">
        <ele>987.58</ele>
        <time>2025-04-15T15:05:44.141Z</time>
      </trkpt>
      <trkpt lat="44.90387" lon="3.86884">
        <ele>987.35</ele>
        <time>2025-04-15T15:05:48.870Z</time>
      </trkpt>
      <trkpt lat="44.90406" lon="3.86914">
        <ele>987.03</ele>
        <time>2025-04-15T15:05:53.604Z</time>
      </trkpt>
      <trkpt lat="44.90426" lon="3.86944">
        <ele>986.7</ele>
        <time>2025-04-15T15:05:58.342Z</time>
      </trkpt>
      <trkpt lat="44.90442" lon="3.86967">
        <ele>986.34</ele>
        <time>2025-04-15T15:06:03.084Z</time>
      </trkpt>
      <trkpt lat="44.90458" lon="3.86989">
        <ele>985.93</ele>
        <time>2025-04-15T15:06:07.830Z</time>
      </trkpt>
      <trkpt lat="44.90472" lon="3.87008">
        <ele>985.5</ele>
        <time>2025-04-15T15:06:12.579Z</time>
      </trkpt>
      <trkpt lat="44.90486" lon="3.87028">
        <ele>985.06</ele>
        <time>2025-04-15T15:06:17.331Z</time>
      </trkpt>
      <trkpt lat="44.90508" lon="3.87051">
        <ele>984.56</ele>
        <time>2025-04-15T15:06:22.087Z</time>
      </trkpt>
      <trkpt lat="44.90531" lon="3.87075">
        <ele>984.07</ele>
        <time>2025-04-15T15:06:26.848Z</time>
      </trkpt>
      <trkpt lat="44.9055" lon="3.87092">
        <ele>983.61</ele>
        <time>2025-04-15T15:06:31.613Z</time>
      </trkpt>
      <trkpt lat="44.90569" lon="3.87109">
        <ele>983.19</ele>
        <time>2025-04-15T15:06:36.381Z</time>
      </trkpt>
      <trkpt lat="44.90589" lon="3.87126">
        <ele>982.78</ele>
        <time>2025-04-15T15:06:41.153Z</time>
      </trkpt>
      <trkpt lat="44.90606" lon="3.87139">
        <ele>982.41</ele>
        <time>2025-04-15T15:06:45.928Z</time>
      </trkpt>
      <trkpt lat="44.90628" lon="3.87151">
        <ele>982.05</ele>
        <time>2025-04-15T15:06:50.707Z</time>
      </trkpt>
      <trkpt lat="44.9065" lon="3.87162">
        <ele>981.63</ele>
        <time>2025-04-15T15:06:55.490Z</time>
      </trkpt>
      <trkpt lat="44.90672" lon="3.87174">
        <ele>981.24</ele>
        <time>2025-04-15T15:07:00.276Z</time>
      </trkpt>
      <trkpt lat="44.90701" lon="3.87185">
        <ele>980.95</ele>
        <time>2025-04-15T15:07:05.067Z</time>
      </trkpt>
      <trkpt lat="44.9073" lon="3.87196">
        <ele>980.71</ele>
        <time>2025-04-15T15:07:09.863Z</time>
      </trkpt>
      <trkpt lat="44.90759" lon="3.87207">
        <ele>980.44</ele>
        <time>2025-04-15T15:07:14.664Z</time>
      </trkpt>
      <trkpt lat="44.90788" lon="3.87219">
        <ele>980.15</ele>
        <time>2025-04-15T15:07:19.470Z</time>
      </trkpt>
      <trkpt lat="44.90815" lon="3.87222">
        <ele>979.93</ele>
        <time>2025-04-15T15:07:24.280Z</time>
      </trkpt>
      <trkpt lat="44.90843" lon="3.87226">
        <ele>979.81</ele>
        <time>2025-04-15T15:07:29.094Z</time>
      </trkpt>
      <trkpt lat="44.9087" lon="3.87229">
        <ele>979.77</ele>
        <time>2025-04-15T15:07:33.913Z</time>
      </trkpt>
      <trkpt lat="44.90894" lon="3.87241">
        <ele>979.61</ele>
        <time>2025-04-15T15:07:38.736Z</time>
      </trkpt>
      <trkpt lat="44.90918" lon="3.87253">
        <ele>979.42</ele>
        <time>2025-04-15T15:07:43.563Z</time>
      </trkpt>
      <trkpt lat="44.90942" lon="3.87265">
        <ele>979.3</ele>
        <time>2025-04-15T15:07:48.394Z</time>
      </trkpt>
      <trkpt lat="44.90966" lon="3.87277">
        <ele>979.29</ele>
        <time>2025-04-15T15:07:53.229Z</time>
      </trkpt>
      <trkpt lat="44.90997" lon="3.87286">
        <ele>979.33</ele>
        <time>2025-04-15T15:07:58.069Z</time>
      </trkpt>
      <trkpt lat="44.91027" lon="3.87295">
        <ele>979.3</ele>
        <time>2025-04-15T15:08:02.914Z</time>
      </trkpt>
      <trkpt lat="44.91058" lon="3.87305">
        <ele>979.27</ele>
        <time>2025-04-15T15:08:07.764Z</time>
      </trkpt>
      <trkpt lat="44.91089" lon="3.87314">
        <ele>979.14</ele>
        <time>2025-04-15T15:08:12.619Z</time>
      </trkpt>
      <trkpt lat="44.91119" lon="3.87324">
        <ele>979.05</ele>
        <time>2025-04-15T15:08:17.479Z</time>
      </trkpt>
      <trkpt lat="44.9115" lon="3.87333">
        <ele>978.92</ele>
        <time>2025-04-15T15:08:22.344Z</time>
      </trkpt>
      <trkpt lat="44.9118" lon="3.87342">
        <ele>978.81</ele>
        <time>2025-04-15T15:08:27.214Z</time>
      </trkpt>
      <trkpt lat="44.91211" lon="3.87352">
        <ele>978.7</ele>
        <time>2025-04-15T15:08:32.089Z</time>
      </trkpt>
      <trkpt lat="44.91241" lon="3.87358">
        <ele>978.6</ele>
        <time>2025-04-15T15:08:36.969Z</time>
      </trkpt>
      <trkpt lat="44.91271" lon="3.87365">
        <ele>978.52</ele>
        <time>2025-04-15T15:08:41.854Z</time>
      </trkpt>
      <trkpt lat="44.91301" lon="3.87371">
        <ele>978.4</ele>
        <time>2025-04-15T15:08:46.744Z</time>
      </trkpt>
      <trkpt lat="44.91331" lon="3.87378">
        <ele>978.29</ele>
        <time>2025-04-15T15:08:51.639Z</time>
      </trkpt>
      <trkpt lat="44.91362" lon="3.87385">
        <ele>978.16</ele>
        <time>2025-04-15T15:08:56.538Z</time>
      </trkpt>
      <trkpt lat="44.91392" lon="3.87393">
        <ele>978.02</ele>
        <time>2025-04-15T15:09:01.442Z</time>
      </trkpt>
      <trkpt lat="44.91423" lon="3.874">
        <ele>977.91</ele>
        <time>2025-04-15T15:09:06.351Z</time>
      </trkpt>
      <trkpt lat="44.91453" lon="3.87408">
        <ele>977.92</ele>
        <time>2025-04-15T15:09:11.265Z</time>
      </trkpt>
      <trkpt lat="44.91473" lon="3.87416">
        <ele>977.91</ele>
        <time>2025-04-15T15:09:16.183Z</time>
      </trkpt>
      <trkpt lat="44.91492" lon="3.87425">
        <ele>977.92</ele>
        <time>2025-04-15T15:09:21.104Z</time>
      </trkpt>
      <trkpt lat="44.91522" lon="3.87435">
        <ele>977.99</ele>
        <time>2025-04-15T15:09:26.030Z</time>
      </trkpt>
      <trkpt lat="44.91553" lon="3.87445">
        <ele>978.15</ele>
        <time>2025-04-15T15:09:30.961Z</time>
      </trkpt>
      <trkpt lat="44.91583" lon="3.87455">
        <ele>978.29</ele>
        <time>2025-04-15T15:09:35.897Z</time>
      </trkpt>
      <trkpt lat="44.91614" lon="3.87465">
        <ele>978.38</ele>
        <time>2025-04-15T15:09:40.838Z</time>
      </trkpt>
      <trkpt lat="44.91644" lon="3.87475">
        <ele>978.64</ele>
        <time>2025-04-15T15:09:45.784Z</time>
      </trkpt>
      <trkpt lat="44.91674" lon="3.87485">
        <ele>978.99</ele>
        <time>2025-04-15T15:09:50.735Z</time>
      </trkpt>
      <trkpt lat="44.91705" lon="3.87495">
        <ele>979.28</ele>
        <time>2025-04-15T15:09:55.691Z</time>
      </trkpt>
      <trkpt lat="44.91735" lon="3.87505">
        <ele>979.66</ele>
        <time>2025-04-15T15:10:00.652Z</time>
      </trkpt>
      <trkpt lat="44.91765" lon="3.87515">
        <ele>980.08</ele>
        <time>2025-04-15T15:10:05.618Z</time>
      </trkpt>
      <trkpt lat="44.91796" lon="3.87525">
        <ele>980.52</ele>
        <time>2025-04-15T15:10:10.589Z</time>
      </trkpt>
      <trkpt lat="44.91826" lon="3.87535">
        <ele>980.98</ele>
        <time>2025-04-15T15:10:15.565Z</time>
      </trkpt>
      <trkpt lat="44.91857" lon="3.87545">
        <ele>981.55</ele>
        <time>2025-04-15T15:10:20.546Z</time>
      </trkpt>
      <trkpt lat="44.91887" lon="3.87555">
        <ele>982.21</ele>
        <time>2025-04-15T15:10:25.532Z</time>
      </trkpt>
      <trkpt lat="44.91918" lon="3.87564">
        <ele>982.88</ele>
        <time>2025-04-15T15:10:30.523Z</time>
      </trkpt>
      <trkpt lat="44.91949" lon="3.87574">
        <ele>983.62</ele>
        <time>2025-04-15T15:10:35.519Z</time>
      </trkpt>
      <trkpt lat="44.91979" lon="3.87584">
        <ele>984.38</ele>
        <time>2025-04-15T15:10:40.520Z</time>
      </trkpt>
      <trkpt lat="44.92007" lon="3.87592">
        <ele>985.16</ele>
        <time>2025-04-15T15:10:45.525Z</time>
      </trkpt>
      <trkpt lat="44.92035" lon="3.87601">
        <ele>985.83</ele>
        <time>2025-04-15T15:10:50.535Z</time>
      </trkpt>
      <trkpt lat="44.92063" lon="3.8761">
        <ele>986.49</ele>
        <time>2025-04-15T15:10:55.550Z</time>
      </trkpt>
      <trkpt lat="44.92091" lon="3.87619">
        <ele>987.06</ele>
        <time>2025-04-15T15:11:00.569Z</time>
      </trkpt>
      <trkpt lat="44.92119" lon="3.87628">
        <ele>987.51</ele>
        <time>2025-04-15T15:11:05.593Z</time>
      </trkpt>
      <trkpt lat="44.92147" lon="3.87637">
        <ele>987.91</ele>
        <time>2025-04-15T15:11:10.621Z</time>
      </trkpt>
      <trkpt lat="44.92165" lon="3.87643">
        <ele>988.22</ele>
        <time>2025-04-15T15:11:15.652Z</time>
      </trkpt>
      <trkpt lat="44.92183" lon="3.87648">
        <ele>988.43</ele>
        <time>2025-04-15T15:11:20.686Z</time>
      </trkpt>
      <trkpt lat="44.92183" lon="3.87648">
        <ele>988.58</ele>
        <time>2025-04-15T15:11:25.720Z</time>
      </trkpt>
      <trkpt lat="44.92213" lon="3.87657">
        <ele>988.52</ele>
        <time>2025-04-15T15:11:30.759Z</time>
      </trkpt>
      <trkpt lat="44.9224" lon="3.8766">
        <ele>988.45</ele>
        <time>2025-04-15T15:11:35.803Z</time>
      </trkpt>
      <trkpt lat="44.92267" lon="3.87664">
        <ele>988.37</ele>
        <time>2025-04-15T15:11:40.851Z</time>
      </trkpt>
      <trkpt lat="44.92295" lon="3.87667">
        <ele>988.27</ele>
        <time>2025-04-15T15:11:45.903Z</time>
      </trkpt>
      <trkpt lat="44.92325" lon="3.87676">
        <ele>987.99</ele>
        <time>2025-04-15T15:11:50.960Z</time>
      </trkpt>
      <trkpt lat="44.92356" lon="3.87685">
        <ele>987.61</ele>
        <time>2025-04-15T15:11:56.022Z</time>
      </trkpt>
      <trkpt lat="44.92386" lon="3.87695">
        <ele>987.13</ele>
        <time>2025-04-15T15:12:01.089Z</time>
      </trkpt>
      <trkpt lat="44.92417" lon="3.87704">
        <ele>986.54</ele>
        <time>2025-04-15T15:12:06.161Z</time>
      </trkpt>
      <trkpt lat="44.92447" lon="3.87707">
        <ele>985.87</ele>
        <time>2025-04-15T15:12:11.238Z</time>
      </trkpt>
      <trkpt lat="44.92478" lon="3.8771">
        <ele>985.22</ele>
        <time>2025-04-15T15:12:16.320Z</time>
      </trkpt>
      <trkpt lat="44.92509" lon="3.87713">
        <ele>984.55</ele>
        <time>2025-04-15T15:12:21.407Z</time>
      </trkpt>
      <trkpt lat="44.92539" lon="3.87717">
        <ele>983.8</ele>
        <time>2025-04-15T15:12:26.499Z</time>
      </trkpt>
      <trkpt lat="44.9257" lon="3.87723">
        <ele>982.97</ele>
        <time>2025-04-15T15:12:31.596Z</time>
      </trkpt>
      <trkpt lat="44.926" lon="3.87729">
        <ele>982.1</ele>
        <time>2025-04-15T15:12:36.698Z</time>
      </trkpt>
      <trkpt lat="44.9263" lon="3.87735">
        <ele>981.26</ele>
        <time>2025-04-15T15:12:41.805Z</time>
      </trkpt>
      <trkpt lat="44.92661" lon="3.87741">
        <ele>980.39</ele>
        <time>2025-04-15T15:12:46.917Z</time>
      </trkpt>
      <trkpt lat="44.92691" lon="3.87747">
        <ele>979.52</ele>
        <time>2025-04-15T15:12:52.033Z</time>
      </trkpt>
      <trkpt lat="44.92721" lon="3.87753">
        <ele>978.64</ele>
        <time>2025-04-15T15:12:57.154Z</time>
      </trkpt>
      <trkpt lat="44.92752" lon="3.87759">
        <ele>977.68</ele>
        <time>2025-04-15T15:13:02.280Z</time>
      </trkpt>
      <trkpt lat="44.92777" lon="3.87762">
        <ele>976.73</ele>
        <time>2025-04-15T15:13:07.410Z</time>
      </trkpt>
      <trkpt lat="44.92803" lon="3.87765">
        <ele>975.79</ele>
        <time>2025-04-15T15:13:12.545Z</time>
      </trkpt>
      <trkpt lat="44.92829" lon="3.87768">
        <ele>974.85</ele>
        <time>2025-04-15T15:13:17.684Z</time>
      </trkpt>
      <trkpt lat="44.92855" lon="3.87771">
        <ele>973.84</ele>
        <time>2025-04-15T15:13:22.827Z</time>
      </trkpt>
      <trkpt lat="44.9288" lon="3.87775">
        <ele>972.8</ele>
        <time>2025-04-15T15:13:27.974Z</time>
      </trkpt>
      <trkpt lat="44.92911" lon="3.87781">
        <ele>971.77</ele>
        <time>2025-04-15T15:13:33.126Z</time>
      </trkpt>
      <trkpt lat="44.92941" lon="3.87788">
        <ele>970.73</ele>
        <time>2025-04-15T15:13:38.283Z</time>
      </trkpt>
      <trkpt lat="44.92972" lon="3.87795">
        <ele>969.71</ele>
        <time>2025-04-15T15:13:43.445Z</time>
      </trkpt>
      <trkpt lat="44.93002" lon="3.87802">
        <ele>968.76</ele>
        <time>2025-04-15T15:13:48.612Z</time>
      </trkpt>
      <trkpt lat="44.93032" lon="3.87808">
        <ele>967.94</ele>
        <time>2025-04-15T15:13:53.784Z</time>
      </trkpt>
      <trkpt lat="44.93063" lon="3.87815">
        <ele>967.12</ele>
        <time>2025-04-15T15:13:58.960Z</time>
      </trkpt>
      <trkpt lat="44.93093" lon="3.87822">
        <ele>966.16</ele>
        <time>2025-04-15T15:14:04.141Z</time>
      </trkpt>
      <trkpt lat="44.93116" lon="3.87824">
        <ele>965.21</ele>
        <time>2025-04-15T15:14:09.326Z</time>
      </trkpt>
      <trkpt lat="44.93139" lon="3.87826">
        <ele>964.31</ele>
        <time>2025-04-15T15:14:14.515Z</time>
      </trkpt>
      <trkpt lat="44.93161" lon="3.87828">
        <ele>963.45</ele>
        <time>2025-04-15T15:14:19.707Z</time>
      </trkpt>
      <trkpt lat="44.93187" lon="3.87823">
        <ele>962.62</ele>
        <time>2025-04-15T15:14:24.904Z</time>
      </trkpt>
      <trkpt lat="44.93213" lon="3.87818">
        <ele>961.9</ele>
        <time>2025-04-15T15:14:30.105Z</time>
      </trkpt>
      <trkpt lat="44.93239" lon="3.87813">
        <ele>961.17</ele>
        <time>2025-04-15T15:14:35.310Z</time>
      </trkpt>
      <trkpt lat="44.9326" lon="3.87808">
        <ele>960.34</ele>
        <time>2025-04-15T15:14:40.518Z</time>
      </trkpt>
      <trkpt lat="44.93282" lon="3.87802">
        <ele>959.53</ele>
        <time>2025-04-15T15:14:45.730Z</time>
      </trkpt>
      <trkpt lat="44.9329" lon="3.87805">
        <ele>958.8</ele>
        <time>2025-04-15T15:14:50.943Z</time>
      </trkpt>
      <trkpt lat="44.93314" lon="3.87809">
        <ele>957.94</ele>
        <time>2025-04-15T15:14:56.160Z</time>
      </trkpt>
      <trkpt lat="44.93341" lon="3.87821">
        <ele>957.16</ele>
        <time>2025-04-15T15:15:01.382Z</time>
      </trkpt>
      <trkpt lat="44.93367" lon="3.87834">
        <ele>956.48</ele>
        <time>2025-04-15T15:15:06.608Z</time>
      </trkpt>
      <trkpt lat="44.93394" lon="3.87846">
        <ele>955.88</ele>
        <time>2025-04-15T15:15:11.839Z</time>
      </trkpt>
      <trkpt lat="44.93421" lon="3.87858">
        <ele>955.27</ele>
        <time>2025-04-15T15:15:17.074Z</time>
      </trkpt>
      <trkpt lat="44.93428" lon="3.87862">
        <ele>954.67</ele>
        <time>2025-04-15T15:15:22.310Z</time>
      </trkpt>
      <trkpt lat="44.93447" lon="3.87873">
        <ele>954.08</ele>
        <time>2025-04-15T15:15:27.550Z</time>
      </trkpt>
      <trkpt lat="44.93466" lon="3.87884">
        <ele>953.48</ele>
        <time>2025-04-15T15:15:32.793Z</time>
      </trkpt>
      <trkpt lat="44.93479" lon="3.87914">
        <ele>952.85</ele>
        <time>2025-04-15T15:15:38.040Z</time>
      </trkpt>
      <trkpt lat="44.93483" lon="3.8794">
        <ele>952.21</ele>
        <time>2025-04-15T15:15:43.290Z</time>
      </trkpt>
      <trkpt lat="44.93483" lon="3.8794">
        <ele>951.62</ele>
        <time>2025-04-15T15:15:48.540Z</time>
      </trkpt>
      <trkpt lat="44.9349" lon="3.87969">
        <ele>950.96</ele>
        <time>2025-04-15T15:15:53.793Z</time>
      </trkpt>
      <trkpt lat="44.93496" lon="3.87998">
        <ele>950.27</ele>
        <time>2025-04-15T15:15:59.050Z</time>
      </trkpt>
      <trkpt lat="44.93495" lon="3.8802">
        <ele>949.57</ele>
        <time>2025-04-15T15:16:04.309Z</time>
      </trkpt>
      <trkpt lat="44.93494" lon="3.88043">
        <ele>948.83</ele>
        <time>2025-04-15T15:16:09.571Z</time>
      </trkpt>
      <trkpt lat="44.93512" lon="3.88057">
        <ele>948.04</ele>
        <time>2025-04-15T15:16:14.836Z</time>
      </trkpt>
      <trkpt lat="44.93531" lon="3.88071">
        <ele>947.19</ele>
        <time>2025-04-15T15:16:20.105Z</time>
      </trkpt>
      <trkpt lat="44.93552" lon="3.88081">
        <ele>946.33</ele>
        <time>2025-04-15T15:16:25.377Z</time>
      </trkpt>
      <trkpt lat="44.93558" lon="3.88081">
        <ele>945.46</ele>
        <time>2025-04-15T15:16:30.650Z</time>
      </trkpt>
      <trkpt lat="44.93584" lon="3.88086">
        <ele>944.52</ele>
        <time>2025-04-15T15:16:35.927Z</time>
      </trkpt>
      <trkpt lat="44.93589" lon="3.88081">
        <ele>943.53</ele>
        <time>2025-04-15T15:16:41.205Z</time>
      </trkpt>
      <trkpt lat="44.93599" lon="3.88075">
        <ele>942.46</ele>
        <time>2025-04-15T15:16:46.485Z</time>
      </trkpt>
      <trkpt lat="44.93608" lon="3.88073">
        <ele>941.3</ele>
        <time>2025-04-15T15:16:51.767Z</time>
      </trkpt>
      <trkpt lat="44.93622" lon="3.88086">
        <ele>940.02</ele>
        <time>2025-04-15T15:16:57.051Z</time>
      </trkpt>
      <trkpt lat="44.93636" lon="3.88099">
        <ele>938.64</ele>
        <time>2025-04-15T15:17:02.338Z</time>
      </trkpt>
      <trkpt lat="44.93656" lon="3.88126">
        <ele>937.1</ele>
        <time>2025-04-15T15:17:07.629Z</time>
      </trkpt>
      <trkpt lat="44.93676" lon="3.88153">
        <ele>935.54</ele>
        <time>2025-04-15T15:17:12.925Z</time>
      </trkpt>
      <trkpt lat="44.93696" lon="3.8818">
        <ele>933.86</ele>
        <time>2025-04-15T15:17:18.225Z</time>
      </trkpt>
      <trkpt lat="44.93711" lon="3.88199">
        <ele>932.18</ele>
        <time>2025-04-15T15:17:23.528Z</time>
      </trkpt>
      <trkpt lat="44.93726" lon="3.88219">
        <ele>930.41</ele>
        <time>2025-04-15T15:17:28.835Z</time>
      </trkpt>
      <trkpt lat="44.93748" lon="3.88249">
        <ele>928.54</ele>
        <time>2025-04-15T15:17:34.147Z</time>
      </trkpt>
      <trkpt lat="44.93771" lon="3.88279">
        <ele>926.57</ele>
        <time>2025-04-15T15:17:39.464Z</time>
      </trkpt>
      <trkpt lat="44.93793" lon="3.8831">
        <ele>924.54</ele>
        <time>2025-04-15T15:17:44.786Z</time>
      </trkpt>
      <trkpt lat="44.93815" lon="3.8834">
        <ele>922.59</ele>
        <time>2025-04-15T15:17:50.113Z</time>
      </trkpt>
      <trkpt lat="44.93838" lon="3.88371">
        <ele>920.6</ele>
        <time>2025-04-15T15:17:55.445Z</time>
      </trkpt>
      <trkpt lat="44.9386" lon="3.88401">
        <ele>918.7</ele>
        <time>2025-04-15T15:18:00.782Z</time>
      </trkpt>
      <trkpt lat="44.93882" lon="3.88431">
        <ele>916.78</ele>
        <time>2025-04-15T15:18:06.124Z</time>
      </trkpt>
      <trkpt lat="44.93899" lon="3.8846">
        <ele>914.88</ele>
        <time>2025-04-15T15:18:11.470Z</time>
      </trkpt>
      <trkpt lat="44.93916" lon="3.88488">
        <ele>912.93</ele>
        <time>2025-04-15T15:18:16.820Z</time>
      </trkpt>
      <trkpt lat="44.93933" lon="3.88517">
        <ele>911.02</ele>
        <time>2025-04-15T15:18:22.174Z</time>
      </trkpt>
      <trkpt lat="44.9395" lon="3.88546">
        <ele>909.09</ele>
        <time>2025-04-15T15:18:27.532Z</time>
      </trkpt>
      <trkpt lat="44.93967" lon="3.88574">
        <ele>907.25</ele>
        <time>2025-04-15T15:18:32.895Z</time>
      </trkpt>
      <trkpt lat="44.93983" lon="3.88603">
        <ele>905.44</ele>
        <time>2025-04-15T15:18:38.262Z</time>
      </trkpt>
      <trkpt lat="44.93998" lon="3.88627">
        <ele>903.68</ele>
        <time>2025-04-15T15:18:43.632Z</time>
      </trkpt>
      <trkpt lat="44.94012" lon="3.88651">
        <ele>901.98</ele>
        <time>2025-04-15T15:18:49.006Z</time>
      </trkpt>
      <trkpt lat="44.94026" lon="3.88676">
        <ele>900.36</ele>
        <time>2025-04-15T15:18:54.384Z</time>
      </trkpt>
      <trkpt lat="44.94041" lon="3.88686">
        <ele>898.82</ele>
        <time>2025-04-15T15:18:59.764Z</time>
      </trkpt>
      <trkpt lat="44.94052" lon="3.88684">
        <ele>897.37</ele>
        <time>2025-04-15T15:19:05.146Z</time>
      </trkpt>
      <trkpt lat="44.94061" lon="3.88678">
        <ele>895.96</ele>
        <time>2025-04-15T15:19:10.530Z</time>
      </trkpt>
      <trkpt lat="44.94071" lon="3.88663">
        <ele>894.52</ele>
        <time>2025-04-15T15:19:15.916Z</time>
      </trkpt>
      <trkpt lat="44.94073" lon="3.88648">
        <ele>893.19</ele>
        <time>2025-04-15T15:19:21.304Z</time>
      </trkpt>
      <trkpt lat="44.94066" lon="3.8862">
        <ele>892.07</ele>
        <time>2025-04-15T15:19:26.695Z</time>
      </trkpt>
      <trkpt lat="44.94058" lon="3.88592">
        <ele>890.95</ele>
        <time>2025-04-15T15:19:32.090Z</time>
      </trkpt>
      <trkpt lat="44.94058" lon="3.88556">
        <ele>889.83</ele>
        <time>2025-04-15T15:19:37.489Z</time>
      </trkpt>
      <trkpt lat="44.94065" lon="3.88515">
        <ele>888.76</ele>
        <time>2025-04-15T15:19:42.892Z</time>
      </trkpt>
      <trkpt lat="44.94072" lon="3.88494">
        <ele>887.45</ele>
        <time>2025-04-15T15:19:48.298Z</time>
      </trkpt>
      <trkpt lat="44.9408" lon="3.88474">
        <ele>886.1</ele>
        <time>2025-04-15T15:19:53.707Z</time>
      </trkpt>
      <trkpt lat="44.94095" lon="3.88444">
        <ele>884.75</ele>
        <time>2025-04-15T15:19:59.120Z</time>
      </trkpt>
      <trkpt lat="44.9411" lon="3.88414">
        <ele>883.41</ele>
        <time>2025-04-15T15:20:04.537Z</time>
      </trkpt>
      <trkpt lat="44.94136" lon="3.88399">
        <ele>881.6</ele>
        <time>2025-04-15T15:20:09.958Z</time>
      </trkpt>
      <trkpt lat="44.94161" lon="3.88384">
        <ele>879.92</ele>
        <time>2025-04-15T15:20:15.384Z</time>
      </trkpt>
      <trkpt lat="44.94172" lon="3.88369">
        <ele>878.53</ele>
        <time>2025-04-15T15:20:20.812Z</time>
      </trkpt>
      <trkpt lat="44.94178" lon="3.88336">
        <ele>877.46</ele>
        <time>2025-04-15T15:20:26.244Z</time>
      </trkpt>
      <trkpt lat="44.94184" lon="3.88303">
        <ele>876.13</ele>
        <time>2025-04-15T15:20:31.680Z</time>
      </trkpt>
      <trkpt lat="44.9419" lon="3.8827">
        <ele>874.44</ele>
        <time>2025-04-15T15:20:37.120Z</time>
      </trkpt>
      <trkpt lat="44.94196" lon="3.88238">
        <ele>872.6</ele>
        <time>2025-04-15T15:20:42.564Z</time>
      </trkpt>
      <trkpt lat="44.94202" lon="3.88219">
        <ele>871.16</ele>
        <time>2025-04-15T15:20:48.010Z</time>
      </trkpt>
      <trkpt lat="44.94211" lon="3.88208">
        <ele>869.74</ele>
        <time>2025-04-15T15:20:53.458Z</time>
      </trkpt>
      <trkpt lat="44.94215" lon="3.88206">
        <ele>868.56</ele>
        <time>2025-04-15T15:20:58.907Z</time>
      </trkpt>
      <trkpt lat="44.94237" lon="3.88206">
        <ele>867.37</ele>
        <time>2025-04-15T15:21:04.359Z</time>
      </trkpt>
      <trkpt lat="44.94247" lon="3.88212">
        <ele>866.52</ele>
        <time>2025-04-15T15:21:09.813Z</time>
      </trkpt>
      <trkpt lat="44.94254" lon="3.88225">
        <ele>865.74</ele>
        <time>2025-04-15T15:21:15.269Z</time>
      </trkpt>
      <trkpt lat="44.9425" lon="3.88266">
        <ele>865.09</ele>
        <time>2025-04-15T15:21:20.729Z</time>
      </trkpt>
      <trkpt lat="44.94247" lon="3.88307">
        <ele>864.43</ele>
        <time>2025-04-15T15:21:26.194Z</time>
      </trkpt>
      <trkpt lat="44.94257" lon="3.88343">
        <ele>863.93</ele>
        <time>2025-04-15T15:21:31.664Z</time>
      </trkpt>
      <trkpt lat="44.94267" lon="3.8838">
        <ele>863.58</ele>
        <time>2025-04-15T15:21:37.138Z</time>
      </trkpt>
      <trkpt lat="44.94271" lon="3.88403">
        <ele>863.41</ele>
        <time>2025-04-15T15:21:42.615Z</time>
      </trkpt>
      <trkpt lat="44.94269" lon="3.88433">
        <ele>863.28</ele>
        <time>2025-04-15T15:21:48.095Z</time>
      </trkpt>
      <trkpt lat="44.94264" lon="3.88459">
        <ele>863.19</ele>
        <time>2025-04-15T15:21:53.578Z</time>
      </trkpt>
      <trkpt lat="44.94248" lon="3.88486">
        <ele>863.1</ele>
        <time>2025-04-15T15:21:59.065Z</time>
      </trkpt>
      <trkpt lat="44.94232" lon="3.88513">
        <ele>863.24</ele>
        <time>2025-04-15T15:22:04.556Z</time>
      </trkpt>
      <trkpt lat="44.9423" lon="3.88523">
        <ele>863.67</ele>
        <time>2025-04-15T15:22:10.048Z</time>
      </trkpt>
      <trkpt lat="44.94232" lon="3.88538">
        <ele>864.27</ele>
        <time>2025-04-15T15:22:15.542Z</time>
      </trkpt>
      <trkpt lat="44.94254" lon="3.88568">
        <ele>865.28</ele>
        <time>2025-04-15T15:22:21.041Z</time>
      </trkpt>
      <trkpt lat="44.94261" lon="3.88589">
        <ele>866.2</ele>
        <time>2025-04-15T15:22:26.543Z</time>
      </trkpt>
      <trkpt lat="44.94269" lon="3.88609">
        <ele>867.27</ele>
        <time>2025-04-15T15:22:32.047Z</time>
      </trkpt>
      <trkpt lat="44.9427" lon="3.88641">
        <ele>868.23</ele>
        <time>2025-04-15T15:22:37.555Z</time>
      </trkpt>
      <trkpt lat="44.94272" lon="3.88674">
        <ele>869.33</ele>
        <time>2025-04-15T15:22:43.067Z</time>
      </trkpt>
      <trkpt lat="44.94273" lon="3.88706">
        <ele>870.49</ele>
        <time>2025-04-15T15:22:48.582Z</time>
      </trkpt>
      <trkpt lat="44.94288" lon="3.88736">
        <ele>872.08</ele>
        <time>2025-04-15T15:22:54.101Z</time>
      </trkpt>
      <trkpt lat="44.94303" lon="3.88766">
        <ele>873.58</ele>
        <time>2025-04-15T15:22:59.625Z</time>
      </trkpt>
      <trkpt lat="44.94318" lon="3.88796">
        <ele>875.17</ele>
        <time>2025-04-15T15:23:05.153Z</time>
      </trkpt>
      <trkpt lat="44.94327" lon="3.88831">
        <ele>876.66</ele>
        <time>2025-04-15T15:23:10.685Z</time>
      </trkpt>
      <trkpt lat="44.94335" lon="3.88867">
        <ele>878.12</ele>
        <time>2025-04-15T15:23:16.221Z</time>
      </trkpt>
      <trkpt lat="44.94344" lon="3.88902">
        <ele>879.74</ele>
        <time>2025-04-15T15:23:21.762Z</time>
      </trkpt>
      <trkpt lat="44.94352" lon="3.88938">
        <ele>881.41</ele>
        <time>2025-04-15T15:23:27.307Z</time>
      </trkpt>
      <trkpt lat="44.94359" lon="3.88953">
        <ele>882.96</ele>
        <time>2025-04-15T15:23:32.854Z</time>
      </trkpt>
      <trkpt lat="44.94365" lon="3.88965">
        <ele>884.44</ele>
        <time>2025-04-15T15:23:38.403Z</time>
      </trkpt>
      <trkpt lat="44.9439" lon="3.88982">
        <ele>886.1</ele>
        <time>2025-04-15T15:23:43.956Z</time>
      </trkpt>
      <trkpt lat="44.94415" lon="3.88998">
        <ele>887.8</ele>
        <time>2025-04-15T15:23:49.513Z</time>
      </trkpt>
      <trkpt lat="44.9444" lon="3.89015">
        <ele>889.38</ele>
        <time>2025-04-15T15:23:55.075Z</time>
      </trkpt>
      <trkpt lat="44.94449" lon="3.89019">
        <ele>890.74</ele>
        <time>2025-04-15T15:24:00.638Z</time>
      </trkpt>
      <trkpt lat="44.94449" lon="3.89019">
        <ele>891.98</ele>
        <time>2025-04-15T15:24:06.201Z</time>
      </trkpt>
      <trkpt lat="44.94466" lon="3.89023">
        <ele>893.2</ele>
        <time>2025-04-15T15:24:11.767Z</time>
      </trkpt>
      <trkpt lat="44.9447" lon="3.89024">
        <ele>894.27</ele>
        <time>2025-04-15T15:24:17.334Z</time>
      </trkpt>
      <trkpt lat="44.94492" lon="3.8903">
        <ele>895.23</ele>
        <time>2025-04-15T15:24:22.904Z</time>
      </trkpt>
      <trkpt lat="44.94522" lon="3.89032">
        <ele>896.17</ele>
        <time>2025-04-15T15:24:28.479Z</time>
      </trkpt>
      <trkpt lat="44.94522" lon="3.89032">
        <ele>896.91</ele>
        <time>2025-04-15T15:24:34.054Z</time>
      </trkpt>
      <trkpt lat="44.94553" lon="3.89034">
        <ele>897.68</ele>
        <time>2025-04-15T15:24:39.634Z</time>
      </trkpt>
      <trkpt lat="44.94584" lon="3.89035">
        <ele>898.24</ele>
        <time>2025-04-15T15:24:45.219Z</time>
      </trkpt>
      <trkpt lat="44.94615" lon="3.89037">
        <ele>898.56</ele>
        <time>2025-04-15T15:24:50.809Z</time>
      </trkpt>
      <trkpt lat="44.94646" lon="3.89038">
        <ele>898.89</ele>
        <time>2025-04-15T15:24:56.404Z</time>
      </trkpt>
      <trkpt lat="44.94677" lon="3.8904">
        <ele>899.13</ele>
        <time>2025-04-15T15:25:02.004Z</time>
      </trkpt>
      <trkpt lat="44.94708" lon="3.89042">
        <ele>899.36</ele>
        <time>2025-04-15T15:25:07.609Z</time>
      </trkpt>
      <trkpt lat="44.9474" lon="3.89043">
        <ele>899.39</ele>
        <time>2025-04-15T15:25:13.219Z</time>
      </trkpt>
      <trkpt lat="44.94771" lon="3.89045">
        <ele>899.26</ele>
        <time>2025-04-15T15:25:18.834Z</time>
      </trkpt>
      <trkpt lat="44.948" lon="3.89045">
        <ele>899.05</ele>
        <time>2025-04-15T15:25:24.454Z</time>
      </trkpt>
      <trkpt lat="44.9483" lon="3.89046">
        <ele>898.88</ele>
        <time>2025-04-15T15:25:30.078Z</time>
      </trkpt>
      <trkpt lat="44.9486" lon="3.89046">
        <ele>898.62</ele>
        <time>2025-04-15T15:25:35.707Z</time>
      </trkpt>
      <trkpt lat="44.94889" lon="3.89046">
        <ele>898.27</ele>
        <time>2025-04-15T15:25:41.341Z</time>
      </trkpt>
      <trkpt lat="44.94919" lon="3.89047">
        <ele>897.81</ele>
        <time>2025-04-15T15:25:46.980Z</time>
      </trkpt>
      <trkpt lat="44.94949" lon="3.89047">
        <ele>897.41</ele>
        <time>2025-04-15T15:25:52.623Z</time>
      </trkpt>
      <trkpt lat="44.9497" lon="3.89041">
        <ele>897.01</ele>
        <time>2025-04-15T15:25:58.270Z</time>
      </trkpt>
      <trkpt lat="44.94996" lon="3.89025">
        <ele>896.52</ele>
        <time>2025-04-15T15:26:03.921Z</time>
      </trkpt>
      <trkpt lat="44.95022" lon="3.8901">
        <ele>896.03</ele>
        <time>2025-04-15T15:26:09.577Z</time>
      </trkpt>
      <trkpt lat="44.95047" lon="3.8899">
        <ele>895.55</ele>
        <time>2025-04-15T15:26:15.237Z</time>
      </trkpt>
      <trkpt lat="44.95071" lon="3.8897">
        <ele>895.15</ele>
        <time>2025-04-15T15:26:20.902Z</time>
      </trkpt>
      <trkpt lat="44.95094" lon="3.88951">
        <ele>894.73</ele>
        <time>2025-04-15T15:26:26.571Z</time>
      </trkpt>
      <trkpt lat="44.95118" lon="3.88932">
        <ele>894.3</ele>
        <time>2025-04-15T15:26:32.245Z</time>
      </trkpt>
      <trkpt lat="44.95141" lon="3.88913">
        <ele>893.82</ele>
        <time>2025-04-15T15:26:37.923Z</time>
      </trkpt>
      <trkpt lat="44.95164" lon="3.88894">
        <ele>893.29</ele>
        <time>2025-04-15T15:26:43.605Z</time>
      </trkpt>
      <trkpt lat="44.95187" lon="3.88875">
        <ele>892.78</ele>
        <time>2025-04-15T15:26:49.291Z</time>
      </trkpt>
      <trkpt lat="44.95211" lon="3.88856">
        <ele>892.23</ele>
        <time>2025-04-15T15:26:54.982Z</time>
      </trkpt>
      <trkpt lat="44.95225" lon="3.88847">
        <ele>891.68</ele>
        <time>2025-04-15T15:27:00.675Z</time>
      </trkpt>
      <trkpt lat="44.95236" lon="3.88841">
        <ele>891.11</ele>
        <time>2025-04-15T15:27:06.370Z</time>
      </trkpt>
      <trkpt lat="44.95236" lon="3.88841">
        <ele>890.49</ele>
        <time>2025-04-15T15:27:12.065Z</time>
      </trkpt>
      <trkpt lat="44.95264" lon="3.88846">
        <ele>889.84</ele>
        <time>2025-04-15T15:27:17.765Z</time>
      </trkpt>
      <trkpt lat="44.95292" lon="3.8885">
        <ele>889.12</ele>
        <time>2025-04-15T15:27:23.469Z</time>
      </trkpt>
      <trkpt lat="44.9532" lon="3.88855">
        <ele>888.36</ele>
        <time>2025-04-15T15:27:29.178Z</time>
      </trkpt>
      <trkpt lat="44.95348" lon="3.88859">
        <ele>887.54</ele>
        <time>2025-04-15T15:27:34.891Z</time>
      </trkpt>
      <trkpt lat="44.95376" lon="3.88864">
        <ele>886.73</ele>
        <time>2025-04-15T15:27:40.609Z</time>
      </trkpt>
      <trkpt lat="44.95404" lon="3.88869">
        <ele>885.88</ele>
        <time>2025-04-15T15:27:46.331Z</time>
      </trkpt>
      <trkpt lat="44.95432" lon="3.88873">
        <ele>885.09</ele>
        <time>2025-04-15T15:27:52.058Z</time>
      </trkpt>
      <trkpt lat="44.95439" lon="3.88875">
        <ele>884.27</ele>
        <time>2025-04-15T15:27:57.786Z</time>
      </trkpt>
      <trkpt lat="44.95457" lon="3.88878">
        <ele>883.41</ele>
        <time>2025-04-15T15:28:03.517Z</time>
      </trkpt>
      <trkpt lat="44.95475" lon="3.88882">
        <ele>882.56</ele>
        <time>2025-04-15T15:28:09.251Z</time>
      </trkpt>
      <trkpt lat="44.95495" lon="3.88887">
        <ele>881.73</ele>
        <time>2025-04-15T15:28:14.988Z</time>
      </trkpt>
      <trkpt lat="44.95516" lon="3.88892">
        <ele>880.92</ele>
        <time>2025-04-15T15:28:20.728Z</time>
      </trkpt>
      <trkpt lat="44.95537" lon="3.88897">
        <ele>880.11</ele>
        <time>2025-04-15T15:28:26.472Z</time>
      </trkpt>
      <trkpt lat="44.95557" lon="3.88898">
        <ele>879.32</ele>
        <time>2025-04-15T15:28:32.219Z</time>
      </trkpt>
      <trkpt lat="44.95578" lon="3.88899">
        <ele>878.52</ele>
        <time>2025-04-15T15:28:37.969Z</time>
      </trkpt>
      <trkpt lat="44.95606" lon="3.88884">
        <ele>877.73</ele>
        <time>2025-04-15T15:28:43.724Z</time>
      </trkpt>
      <trkpt lat="44.95635" lon="3.88868">
        <ele>876.99</ele>
        <time>2025-04-15T15:28:49.484Z</time>
      </trkpt>
      <trkpt lat="44.95663" lon="3.88853">
        <ele>876.18</ele>
        <time>2025-04-15T15:28:55.249Z</time>
      </trkpt>
      <trkpt lat="44.95692" lon="3.88837">
        <ele>875.34</ele>
        <time>2025-04-15T15:29:01.019Z</time>
      </trkpt>
      <trkpt lat="44.95721" lon="3.88822">
        <ele>874.48</ele>
        <time>2025-04-15T15:29:06.794Z</time>
      </trkpt>
      <trkpt lat="44.95749" lon="3.88807">
        <ele>873.74</ele>
        <time>2025-04-15T15:29:12.574Z</time>
      </trkpt>
      <trkpt lat="44.95765" lon="3.888">
        <ele>873.08</ele>
        <time>2025-04-15T15:29:18.356Z</time>
      </trkpt>
      <trkpt lat="44.95781" lon="3.88794">
        <ele>872.52</ele>
        <time>2025-04-15T15:29:24.141Z</time>
      </trkpt>
      <trkpt lat="44.95796" lon="3.88798">
        <ele>872.01</ele>
        <time>2025-04-15T15:29:29.928Z</time>
      </trkpt>
      <trkpt lat="44.95822" lon="3.88806">
        <ele>871.56</ele>
        <time>2025-04-15T15:29:35.720Z</time>
      </trkpt>
      <trkpt lat="44.95848" lon="3.88813">
        <ele>871.14</ele>
        <time>2025-04-15T15:29:41.516Z</time>
      </trkpt>
      <trkpt lat="44.95875" lon="3.88821">
        <ele>870.78</ele>
        <time>2025-04-15T15:29:47.316Z</time>
      </trkpt>
      <trkpt lat="44.95901" lon="3.88829">
        <ele>870.41</ele>
        <time>2025-04-15T15:29:53.121Z</time>
      </trkpt>
      <trkpt lat="44.95927" lon="3.88837">
        <ele>870.16</ele>
        <time>2025-04-15T15:29:58.930Z</time>
      </trkpt>
      <trkpt lat="44.95948" lon="3.8883">
        <ele>869.97</ele>
        <time>2025-04-15T15:30:04.742Z</time>
      </trkpt>
      <trkpt lat="44.95969" lon="3.88824">
        <ele>869.82</ele>
        <time>2025-04-15T15:30:10.558Z</time>
      </trkpt>
      <trkpt lat="44.9599" lon="3.88817">
        <ele>869.61</ele>
        <time>2025-04-15T15:30:16.377Z</time>
      </trkpt>
      <trkpt lat="44.96018" lon="3.88811">
        <ele>869.5</ele>
        <time>2025-04-15T15:30:22.201Z</time>
      </trkpt>
      <trkpt lat="44.9604" lon="3.8881">
        <ele>869.41</ele>
        <time>2025-04-15T15:30:28.028Z</time>
      </trkpt>
      <trkpt lat="44.96062" lon="3.88809">
        <ele>869.34</ele>
        <time>2025-04-15T15:30:33.859Z</time>
      </trkpt>
      <trkpt lat="44.96084" lon="3.88809">
        <ele>869.3</ele>
        <time>2025-04-15T15:30:39.693Z</time>
      </trkpt>
      <trkpt lat="44.96095" lon="3.8881">
        <ele>869.24</ele>
        <time>2025-04-15T15:30:45.529Z</time>
      </trkpt>
      <trkpt lat="44.96121" lon="3.88814">
        <ele>869.18</ele>
        <time>2025-04-15T15:30:51.369Z</time>
      </trkpt>
      <trkpt lat="44.96148" lon="3.88818">
        <ele>869.01</ele>
        <time>2025-04-15T15:30:57.213Z</time>
      </trkpt>
      <trkpt lat="44.96174" lon="3.88822">
        <ele>868.95</ele>
        <time>2025-04-15T15:31:03.062Z</time>
      </trkpt>
      <trkpt lat="44.96193" lon="3.88812">
        <ele>868.96</ele>
        <time>2025-04-15T15:31:08.914Z</time>
      </trkpt>
      <trkpt lat="44.96213" lon="3.88802">
        <ele>868.92</ele>
        <time>2025-04-15T15:31:14.769Z</time>
      </trkpt>
      <trkpt lat="44.96237" lon="3.88784">
        <ele>868.76</ele>
        <time>2025-04-15T15:31:20.629Z</time>
      </trkpt>
      <trkpt lat="44.96262" lon="3.88766">
        <ele>868.47</ele>
        <time>2025-04-15T15:31:26.493Z</time>
      </trkpt>
      <trkpt lat="44.96293" lon="3.88764">
        <ele>868.22</ele>
        <time>2025-04-15T15:31:32.362Z</time>
      </trkpt>
      <trkpt lat="44.96324" lon="3.88763">
        <ele>867.99</ele>
        <time>2025-04-15T15:31:38.236Z</time>
      </trkpt>
      <trkpt lat="44.96354" lon="3.88762">
        <ele>867.63</ele>
        <time>2025-04-15T15:31:44.115Z</time>
      </trkpt>
      <trkpt lat="44.96385" lon="3.88759">
        <ele>867.18</ele>
        <time>2025-04-15T15:31:49.999Z</time>
      </trkpt>
      <trkpt lat="44.96416" lon="3.88756">
        <ele>866.67</ele>
        <time>2025-04-15T15:31:55.888Z</time>
      </trkpt>
      <trkpt lat="44.96447" lon="3.88753">
        <ele>866.11</ele>
        <time>2025-04-15T15:32:01.782Z</time>
      </trkpt>
      <trkpt lat="44.96472" lon="3.88751">
        <ele>865.55</ele>
        <time>2025-04-15T15:32:07.680Z</time>
      </trkpt>
      <trkpt lat="44.96498" lon="3.8875">
        <ele>864.93</ele>
        <time>2025-04-15T15:32:13.582Z</time>
      </trkpt>
      <trkpt lat="44.96524" lon="3.88748">
        <ele>864.26</ele>
        <time>2025-04-15T15:32:19.488Z</time>
      </trkpt>
      <trkpt lat="44.9655" lon="3.88747">
        <ele>863.47</ele>
        <time>2025-04-15T15:32:25.398Z</time>
      </trkpt>
      <trkpt lat="44.96576" lon="3.88744">
        <ele>862.65</ele>
        <time>2025-04-15T15:32:31.313Z</time>
      </trkpt>
      <trkpt lat="44.96603" lon="3.88742">
        <ele>861.81</ele>
        <time>2025-04-15T15:32:37.232Z</time>
      </trkpt>
      <trkpt lat="44.96629" lon="3.8874">
        <ele>860.92</ele>
        <time>2025-04-15T15:32:43.155Z</time>
      </trkpt>
      <trkpt lat="44.96656" lon="3.88738">
        <ele>860.02</ele>
        <time>2025-04-15T15:32:49.082Z</time>
      </trkpt>
      <trkpt lat="44.96683" lon="3.88736">
        <ele>859.11</ele>
        <time>2025-04-15T15:32:55.014Z</time>
      </trkpt>
      <trkpt lat="44.9671" lon="3.88751">
        <ele>858.2</ele>
        <time>2025-04-15T15:33:00.950Z</time>
      </trkpt>
      <trkpt lat="44.96736" lon="3.88766">
        <ele>857.29</ele>
        <time>2025-04-15T15:33:06.891Z</time>
      </trkpt>
      <trkpt lat="44.96756" lon="3.88772">
        <ele>856.44</ele>
        <time>2025-04-15T15:33:12.835Z</time>
      </trkpt>
      <trkpt lat="44.96764" lon="3.88772">
        <ele>855.64</ele>
        <time>2025-04-15T15:33:18.780Z</time>
      </trkpt>
      <trkpt lat="44.9678" lon="3.88764">
        <ele>854.86</ele>
        <time>2025-04-15T15:33:24.728Z</time>
      </trkpt>
      <trkpt lat="44.96796" lon="3.88755">
        <ele>854.08</ele>
        <time>2025-04-15T15:33:30.679Z</time>
      </trkpt>
      <trkpt lat="44.96816" lon="3.88749">
        <ele>853.32</ele>
        <time>2025-04-15T15:33:36.633Z</time>
      </trkpt>
      <trkpt lat="44.96835" lon="3.88742">
        <ele>852.56</ele>
        <time>2025-04-15T15:33:42.590Z</time>
      </trkpt>
      <trkpt lat="44.96829" lon="3.88779">
        <ele>851.77</ele>
        <time>2025-04-15T15:33:48.552Z</time>
      </trkpt>
      <trkpt lat="44.96822" lon="3.88792">
        <ele>851.02</ele>
        <time>2025-04-15T15:33:54.515Z</time>
      </trkpt>
      <trkpt lat="44.968" lon="3.88805">
        <ele>850.3</ele>
        <time>2025-04-15T15:34:00.482Z</time>
      </trkpt>
      <trkpt lat="44.96778" lon="3.88818">
        <ele>849.58</ele>
        <time>2025-04-15T15:34:06.453Z</time>
      </trkpt>
      <trkpt lat="44.96756" lon="3.88832">
        <ele>848.81</ele>
        <time>2025-04-15T15:34:12.428Z</time>
      </trkpt>
      <trkpt lat="44.96734" lon="3.88845">
        <ele>848.07</ele>
        <time>2025-04-15T15:34:18.407Z</time>
      </trkpt>
      <trkpt lat="44.96713" lon="3.88871">
        <ele>847.15</ele>
        <time>2025-04-15T15:34:24.390Z</time>
      </trkpt>
      <trkpt lat="44.96691" lon="3.88897">
        <ele>846.09</ele>
        <time>2025-04-15T15:34:30.378Z</time>
      </trkpt>
      <trkpt lat="44.96667" lon="3.8892">
        <ele>845.09</ele>
        <time>2025-04-15T15:34:36.370Z</time>
      </trkpt>
      <trkpt lat="44.96643" lon="3.88944">
        <ele>844.04</ele>
        <time>2025-04-15T15:34:42.367Z</time>
      </trkpt>
      <trkpt lat="44.96618" lon="3.88968">
        <ele>843</ele>
        <time>2025-04-15T15:34:48.369Z</time>
      </trkpt>
      <trkpt lat="44.96597" lon="3.88995">
        <ele>841.82</ele>
        <time>2025-04-15T15:34:54.376Z</time>
      </trkpt>
      <trkpt lat="44.96614" lon="3.88991">
        <ele>840.6</ele>
        <time>2025-04-15T15:35:00.385Z</time>
      </trkpt>
      <trkpt lat="44.96628" lon="3.88979">
        <ele>839.35</ele>
        <time>2025-04-15T15:35:06.397Z</time>
      </trkpt>
      <trkpt lat="44.96642" lon="3.88968">
        <ele>838.08</ele>
        <time>2025-04-15T15:35:12.412Z</time>
      </trkpt>
      <trkpt lat="44.96669" lon="3.8895">
        <ele>836.59</ele>
        <time>2025-04-15T15:35:18.431Z</time>
      </trkpt>
      <trkpt lat="44.96695" lon="3.88933">
        <ele>835.18</ele>
        <time>2025-04-15T15:35:24.455Z</time>
      </trkpt>
      <trkpt lat="44.96722" lon="3.88916">
        <ele>833.7</ele>
        <time>2025-04-15T15:35:30.484Z</time>
      </trkpt>
      <trkpt lat="44.96748" lon="3.88899">
        <ele>832.16</ele>
        <time>2025-04-15T15:35:36.517Z</time>
      </trkpt>
      <trkpt lat="44.96775" lon="3.88882">
        <ele>830.61</ele>
        <time>2025-04-15T15:35:42.555Z</time>
      </trkpt>
      <trkpt lat="44.96804" lon="3.88877">
        <ele>828.78</ele>
        <time>2025-04-15T15:35:48.598Z</time>
      </trkpt>
      <trkpt lat="44.96833" lon="3.88873">
        <ele>827.07</ele>
        <time>2025-04-15T15:35:54.645Z</time>
      </trkpt>
      <trkpt lat="44.96862" lon="3.88867">
        <ele>825.3</ele>
        <time>2025-04-15T15:36:00.697Z</time>
      </trkpt>
      <trkpt lat="44.96891" lon="3.8886">
        <ele>823.49</ele>
        <time>2025-04-15T15:36:06.754Z</time>
      </trkpt>
      <trkpt lat="44.9691" lon="3.8886">
        <ele>821.63</ele>
        <time>2025-04-15T15:36:12.814Z</time>
      </trkpt>
      <trkpt lat="44.96934" lon="3.88862">
        <ele>819.62</ele>
        <time>2025-04-15T15:36:18.878Z</time>
      </trkpt>
      <trkpt lat="44.96957" lon="3.88865">
        <ele>817.79</ele>
        <time>2025-04-15T15:36:24.945Z</time>
      </trkpt>
      <trkpt lat="44.96981" lon="3.88867">
        <ele>815.98</ele>
        <time>2025-04-15T15:36:31.016Z</time>
      </trkpt>
      <trkpt lat="44.97005" lon="3.88869">
        <ele>814.18</ele>
        <time>2025-04-15T15:36:37.091Z</time>
      </trkpt>
      <trkpt lat="44.97029" lon="3.88875">
        <ele>812.44</ele>
        <time>2025-04-15T15:36:43.170Z</time>
      </trkpt>
      <trkpt lat="44.97054" lon="3.88882">
        <ele>810.8</ele>
        <time>2025-04-15T15:36:49.253Z</time>
      </trkpt>
      <trkpt lat="44.97083" lon="3.88891">
        <ele>809.1</ele>
        <time>2025-04-15T15:36:55.341Z</time>
      </trkpt>
      <trkpt lat="44.97111" lon="3.889">
        <ele>807.3</ele>
        <time>2025-04-15T15:37:01.433Z</time>
      </trkpt>
      <trkpt lat="44.9714" lon="3.8891">
        <ele>805.5</ele>
        <time>2025-04-15T15:37:07.530Z</time>
      </trkpt>
      <trkpt lat="44.9714" lon="3.8891">
        <ele>804.02</ele>
        <time>2025-04-15T15:37:13.627Z</time>
      </trkpt>
      <trkpt lat="44.97163" lon="3.88912">
        <ele>802.43</ele>
        <time>2025-04-15T15:37:19.728Z</time>
      </trkpt>
      <trkpt lat="44.97183" lon="3.88903">
        <ele>801.04</ele>
        <time>2025-04-15T15:37:25.832Z</time>
      </trkpt>
      <trkpt lat="44.97198" lon="3.88884">
        <ele>799.62</ele>
        <time>2025-04-15T15:37:31.939Z</time>
      </trkpt>
      <trkpt lat="44.97202" lon="3.88869">
        <ele>798.33</ele>
        <time>2025-04-15T15:37:38.048Z</time>
      </trkpt>
      <trkpt lat="44.972" lon="3.88839">
        <ele>797.07</ele>
        <time>2025-04-15T15:37:44.161Z</time>
      </trkpt>
      <trkpt lat="44.97188" lon="3.88803">
        <ele>795.77</ele>
        <time>2025-04-15T15:37:50.278Z</time>
      </trkpt>
      <trkpt lat="44.97176" lon="3.88768">
        <ele>794.63</ele>
        <time>2025-04-15T15:37:56.399Z</time>
      </trkpt>
      <trkpt lat="44.97174" lon="3.88747">
        <ele>793.51</ele>
        <time>2025-04-15T15:38:02.523Z</time>
      </trkpt>
      <trkpt lat="44.97178" lon="3.88736">
        <ele>792.23</ele>
        <time>2025-04-15T15:38:08.648Z</time>
      </trkpt>
      <trkpt lat="44.97196" lon="3.88721">
        <ele>790.83</ele>
        <time>2025-04-15T15:38:14.777Z</time>
      </trkpt>
      <trkpt lat="44.97215" lon="3.88713">
        <ele>789.38</ele>
        <time>2025-04-15T15:38:20.909Z</time>
      </trkpt>
      <trkpt lat="44.97234" lon="3.88706">
        <ele>788.01</ele>
        <time>2025-04-15T15:38:27.044Z</time>
      </trkpt>
      <trkpt lat="44.97261" lon="3.88704">
        <ele>786.65</ele>
        <time>2025-04-15T15:38:33.183Z</time>
      </trkpt>
      <trkpt lat="44.97287" lon="3.88701">
        <ele>785.24</ele>
        <time>2025-04-15T15:38:39.326Z</time>
      </trkpt>
      <trkpt lat="44.97314" lon="3.88699">
        <ele>783.83</ele>
        <time>2025-04-15T15:38:45.474Z</time>
      </trkpt>
      <trkpt lat="44.9734" lon="3.88697">
        <ele>782.27</ele>
        <time>2025-04-15T15:38:51.626Z</time>
      </trkpt>
      <trkpt lat="44.97367" lon="3.88695">
        <ele>780.79</ele>
        <time>2025-04-15T15:38:57.782Z</time>
      </trkpt>
      <trkpt lat="44.97396" lon="3.88686">
        <ele>779.33</ele>
        <time>2025-04-15T15:39:03.943Z</time>
      </trkpt>
      <trkpt lat="44.97425" lon="3.88677">
        <ele>777.66</ele>
        <time>2025-04-15T15:39:10.109Z</time>
      </trkpt>
      <trkpt lat="44.97454" lon="3.88668">
        <ele>776.07</ele>
        <time>2025-04-15T15:39:16.280Z</time>
      </trkpt>
      <trkpt lat="44.97483" lon="3.88659">
        <ele>774.73</ele>
        <time>2025-04-15T15:39:22.455Z</time>
      </trkpt>
      <trkpt lat="44.97505" lon="3.88653">
        <ele>773.31</ele>
        <time>2025-04-15T15:39:28.634Z</time>
      </trkpt>
      <trkpt lat="44.97526" lon="3.88646">
        <ele>771.77</ele>
        <time>2025-04-15T15:39:34.816Z</time>
      </trkpt>
      <trkpt lat="44.97547" lon="3.88639">
        <ele>770.04</ele>
        <time>2025-04-15T15:39:41.002Z</time>
      </trkpt>
      <trkpt lat="44.97569" lon="3.88629">
        <ele>768.14</ele>
        <time>2025-04-15T15:39:47.191Z</time>
      </trkpt>
      <trkpt lat="44.97586" lon="3.88614">
        <ele>766.5</ele>
        <time>2025-04-15T15:39:53.384Z</time>
      </trkpt>
      <trkpt lat="44.97606" lon="3.88593">
        <ele>764.78</ele>
        <time>2025-04-15T15:39:59.581Z</time>
      </trkpt>
      <trkpt lat="44.97626" lon="3.88573">
        <ele>762.97</ele>
        <time>2025-04-15T15:40:05.782Z</time>
      </trkpt>
      <trkpt lat="44.97646" lon="3.88552">
        <ele>761.1</ele>
        <time>2025-04-15T15:40:11.986Z</time>
      </trkpt>
      <trkpt lat="44.97665" lon="3.88532">
        <ele>759.17</ele>
        <time>2025-04-15T15:40:18.194Z</time>
      </trkpt>
      <trkpt lat="44.97683" lon="3.88521">
        <ele>757.2</ele>
        <time>2025-04-15T15:40:24.405Z</time>
      </trkpt>
      <trkpt lat="44.977" lon="3.88517">
        <ele>755.18</ele>
        <time>2025-04-15T15:40:30.619Z</time>
      </trkpt>
      <trkpt lat="44.97731" lon="3.88518">
        <ele>753.07</ele>
        <time>2025-04-15T15:40:36.838Z</time>
      </trkpt>
      <trkpt lat="44.97761" lon="3.88518">
        <ele>751.09</ele>
        <time>2025-04-15T15:40:43.062Z</time>
      </trkpt>
      <trkpt lat="44.97792" lon="3.88519">
        <ele>749.16</ele>
        <time>2025-04-15T15:40:49.291Z</time>
      </trkpt>
      <trkpt lat="44.9782" lon="3.88524">
        <ele>747.15</ele>
        <time>2025-04-15T15:40:55.524Z</time>
      </trkpt>
      <trkpt lat="44.97847" lon="3.88528">
        <ele>745.17</ele>
        <time>2025-04-15T15:41:01.762Z</time>
      </trkpt>
      <trkpt lat="44.97875" lon="3.88533">
        <ele>743.34</ele>
        <time>2025-04-15T15:41:08.004Z</time>
      </trkpt>
      <trkpt lat="44.97902" lon="3.88537">
        <ele>741.45</ele>
        <time>2025-04-15T15:41:14.251Z</time>
      </trkpt>
      <trkpt lat="44.9793" lon="3.88542">
        <ele>739.5</ele>
        <time>2025-04-15T15:41:20.502Z</time>
      </trkpt>
      <trkpt lat="44.97957" lon="3.88547">
        <ele>737.6</ele>
        <time>2025-04-15T15:41:26.758Z</time>
      </trkpt>
      <trkpt lat="44.97985" lon="3.88551">
        <ele>735.58</ele>
        <time>2025-04-15T15:41:33.018Z</time>
      </trkpt>
      <trkpt lat="44.98011" lon="3.88545">
        <ele>733.73</ele>
        <time>2025-04-15T15:41:39.282Z</time>
      </trkpt>
      <trkpt lat="44.98026" lon="3.88536">
        <ele>732.01</ele>
        <time>2025-04-15T15:41:45.549Z</time>
      </trkpt>
      <trkpt lat="44.98039" lon="3.88515">
        <ele>730.34</ele>
        <time>2025-04-15T15:41:51.819Z</time>
      </trkpt>
      <trkpt lat="44.98045" lon="3.88493">
        <ele>728.75</ele>
        <time>2025-04-15T15:41:58.092Z</time>
      </trkpt>
      <trkpt lat="44.98045" lon="3.88471">
        <ele>727.18</ele>
        <time>2025-04-15T15:42:04.367Z</time>
      </trkpt>
      <trkpt lat="44.98045" lon="3.88448">
        <ele>725.59</ele>
        <time>2025-04-15T15:42:10.645Z</time>
      </trkpt>
      <trkpt lat="44.98041" lon="3.88415">
        <ele>724.16</ele>
        <time>2025-04-15T15:42:16.927Z</time>
      </trkpt>
      <trkpt lat="44.98037" lon="3.88382">
        <ele>722.65</ele>
        <time>2025-04-15T15:42:23.213Z</time>
      </trkpt>
      <trkpt lat="44.98044" lon="3.88346">
        <ele>720.92</ele>
        <time>2025-04-15T15:42:29.503Z</time>
      </trkpt>
      <trkpt lat="44.98052" lon="3.88311">
        <ele>719.35</ele>
        <time>2025-04-15T15:42:35.797Z</time>
      </trkpt>
      <trkpt lat="44.98055" lon="3.88287">
        <ele>717.87</ele>
        <time>2025-04-15T15:42:42.094Z</time>
      </trkpt>
      <trkpt lat="44.98058" lon="3.88264">
        <ele>716.36</ele>
        <time>2025-04-15T15:42:48.393Z</time>
      </trkpt>
      <trkpt lat="44.98063" lon="3.8823">
        <ele>714.87</ele>
        <time>2025-04-15T15:42:54.696Z</time>
      </trkpt>
      <trkpt lat="44.98068" lon="3.88196">
        <ele>713.43</ele>
        <time>2025-04-15T15:43:01.003Z</time>
      </trkpt>
      <trkpt lat="44.98073" lon="3.88162">
        <ele>712.06</ele>
        <time>2025-04-15T15:43:07.314Z</time>
      </trkpt>
      <trkpt lat="44.98077" lon="3.88129">
        <ele>710.6</ele>
        <time>2025-04-15T15:43:13.629Z</time>
      </trkpt>
      <trkpt lat="44.9809" lon="3.88092">
        <ele>708.91</ele>
        <time>2025-04-15T15:43:19.949Z</time>
      </trkpt>
      <trkpt lat="44.9811" lon="3.88073">
        <ele>707.53</ele>
        <time>2025-04-15T15:43:26.272Z</time>
      </trkpt>
      <trkpt lat="44.98135" lon="3.88066">
        <ele>706.33</ele>
        <time>2025-04-15T15:43:32.600Z</time>
      </trkpt>
      <trkpt lat="44.98155" lon="3.88064">
        <ele>705.18</ele>
        <time>2025-04-15T15:43:38.931Z</time>
      </trkpt>
      <trkpt lat="44.98174" lon="3.88068">
        <ele>704.09</ele>
        <time>2025-04-15T15:43:45.265Z</time>
      </trkpt>
      <trkpt lat="44.98193" lon="3.88079">
        <ele>703.13</ele>
        <time>2025-04-15T15:43:51.602Z</time>
      </trkpt>
      <trkpt lat="44.98193" lon="3.88079">
        <ele>702.23</ele>
        <time>2025-04-15T15:43:57.939Z</time>
      </trkpt>
      <trkpt lat="44.98208" lon="3.88101">
        <ele>701.38</ele>
        <time>2025-04-15T15:44:04.280Z</time>
      </trkpt>
      <trkpt lat="44.98215" lon="3.88131">
        <ele>700.54</ele>
        <time>2025-04-15T15:44:10.624Z</time>
      </trkpt>
      <trkpt lat="44.98218" lon="3.88167">
        <ele>699.76</ele>
        <time>2025-04-15T15:44:16.972Z</time>
      </trkpt>
      <trkpt lat="44.98222" lon="3.88204">
        <ele>699.09</ele>
        <time>2025-04-15T15:44:23.325Z</time>
      </trkpt>
      <trkpt lat="44.98226" lon="3.8824">
        <ele>698.48</ele>
        <time>2025-04-15T15:44:29.682Z</time>
      </trkpt>
      <trkpt lat="44.98234" lon="3.88274">
        <ele>697.93</ele>
        <time>2025-04-15T15:44:36.043Z</time>
      </trkpt>
      <trkpt lat="44.98243" lon="3.88308">
        <ele>697.39</ele>
        <time>2025-04-15T15:44:42.408Z</time>
      </trkpt>
      <trkpt lat="44.98251" lon="3.88341">
        <ele>696.89</ele>
        <time>2025-04-15T15:44:48.777Z</time>
      </trkpt>
      <trkpt lat="44.98273" lon="3.88365">
        <ele>696.62</ele>
        <time>2025-04-15T15:44:55.150Z</time>
      </trkpt>
      <trkpt lat="44.98298" lon="3.88376">
        <ele>696.56</ele>
        <time>2025-04-15T15:45:01.528Z</time>
      </trkpt>
      <trkpt lat="44.98324" lon="3.88387">
        <ele>696.54</ele>
        <time>2025-04-15T15:45:07.910Z</time>
      </trkpt>
      <trkpt lat="44.9835" lon="3.88399">
        <ele>696.43</ele>
        <time>2025-04-15T15:45:14.296Z</time>
      </trkpt>
      <trkpt lat="44.98376" lon="3.8841">
        <ele>696.26</ele>
        <time>2025-04-15T15:45:20.687Z</time>
      </trkpt>
      <trkpt lat="44.98401" lon="3.88422">
        <ele>696.07</ele>
        <time>2025-04-15T15:45:27.082Z</time>
      </trkpt>
      <trkpt lat="44.98427" lon="3.88433">
        <ele>696.08</ele>
        <time>2025-04-15T15:45:33.481Z</time>
      </trkpt>
      <trkpt lat="44.98444" lon="3.88435">
        <ele>696.19</ele>
        <time>2025-04-15T15:45:39.883Z</time>
      </trkpt>
      <trkpt lat="44.98451" lon="3.88444">
        <ele>696.18</ele>
        <time>2025-04-15T15:45:46.286Z</time>
      </trkpt>
      <trkpt lat="44.98479" lon="3.88446">
        <ele>696.37</ele>
        <time>2025-04-15T15:45:52.694Z</time>
      </trkpt>
      <trkpt lat="44.98494" lon="3.88442">
        <ele>696.52</ele>
        <time>2025-04-15T15:45:59.104Z</time>
      </trkpt>
      <trkpt lat="44.98522" lon="3.88435">
        <ele>696.67</ele>
        <time>2025-04-15T15:46:05.519Z</time>
      </trkpt>
      <trkpt lat="44.9855" lon="3.88429">
        <ele>696.72</ele>
        <time>2025-04-15T15:46:11.938Z</time>
      </trkpt>
      <trkpt lat="44.98576" lon="3.88417">
        <ele>696.71</ele>
        <time>2025-04-15T15:46:18.362Z</time>
      </trkpt>
      <trkpt lat="44.98602" lon="3.88405">
        <ele>696.61</ele>
        <time>2025-04-15T15:46:24.790Z</time>
      </trkpt>
      <trkpt lat="44.98629" lon="3.88392">
        <ele>696.36</ele>
        <time>2025-04-15T15:46:31.223Z</time>
      </trkpt>
      <trkpt lat="44.98653" lon="3.88385">
        <ele>695.97</ele>
        <time>2025-04-15T15:46:37.660Z</time>
      </trkpt>
      <trkpt lat="44.98678" lon="3.88377">
        <ele>695.65</ele>
        <time>2025-04-15T15:46:44.101Z</time>
      </trkpt>
      <trkpt lat="44.98702" lon="3.88369">
        <ele>695.37</ele>
        <time>2025-04-15T15:46:50.546Z</time>
      </trkpt>
      <trkpt lat="44.9872" lon="3.88358">
        <ele>695.15</ele>
        <time>2025-04-15T15:46:56.994Z</time>
      </trkpt>
      <trkpt lat="44.98738" lon="3.88347">
        <ele>694.96</ele>
        <time>2025-04-15T15:47:03.445Z</time>
      </trkpt>
      <trkpt lat="44.98754" lon="3.88333">
        <ele>694.85</ele>
        <time>2025-04-15T15:47:09.899Z</time>
      </trkpt>
      <trkpt lat="44.98771" lon="3.8832">
        <ele>694.93</ele>
        <time>2025-04-15T15:47:16.356Z</time>
      </trkpt>
      <trkpt lat="44.98787" lon="3.88292">
        <ele>695.01</ele>
        <time>2025-04-15T15:47:22.817Z</time>
      </trkpt>
      <trkpt lat="44.98794" lon="3.88281">
        <ele>694.94</ele>
        <time>2025-04-15T15:47:29.280Z</time>
      </trkpt>
      <trkpt lat="44.98813" lon="3.88266">
        <ele>694.76</ele>
        <time>2025-04-15T15:47:35.746Z</time>
      </trkpt>
      <trkpt lat="44.98826" lon="3.88262">
        <ele>694.66</ele>
        <time>2025-04-15T15:47:42.214Z</time>
      </trkpt>
      <trkpt lat="44.98851" lon="3.88268">
        <ele>694.54</ele>
        <time>2025-04-15T15:47:48.687Z</time>
      </trkpt>
      <trkpt lat="44.98876" lon="3.88274">
        <ele>694.57</ele>
        <time>2025-04-15T15:47:55.164Z</time>
      </trkpt>
      <trkpt lat="44.98901" lon="3.88281">
        <ele>694.65</ele>
        <time>2025-04-15T15:48:01.645Z</time>
      </trkpt>
      <trkpt lat="44.98925" lon="3.88285">
        <ele>694.83</ele>
        <time>2025-04-15T15:48:08.129Z</time>
      </trkpt>
      <trkpt lat="44.98944" lon="3.88285">
        <ele>695.14</ele>
        <time>2025-04-15T15:48:14.617Z</time>
      </trkpt>
      <trkpt lat="44.98964" lon="3.88285">
        <ele>695.55</ele>
        <time>2025-04-15T15:48:21.108Z</time>
      </trkpt>
      <trkpt lat="44.98987" lon="3.88278">
        <ele>696.15</ele>
        <time>2025-04-15T15:48:27.603Z</time>
      </trkpt>
      <trkpt lat="44.99011" lon="3.8827">
        <ele>696.87</ele>
        <time>2025-04-15T15:48:34.101Z</time>
      </trkpt>
      <trkpt lat="44.99034" lon="3.88265">
        <ele>697.73</ele>
        <time>2025-04-15T15:48:40.603Z</time>
      </trkpt>
      <trkpt lat="44.99058" lon="3.88259">
        <ele>698.65</ele>
        <time>2025-04-15T15:48:47.109Z</time>
      </trkpt>
      <trkpt lat="44.99074" lon="3.88262">
        <ele>699.56</ele>
        <time>2025-04-15T15:48:53.618Z</time>
      </trkpt>
      <trkpt lat="44.9909" lon="3.88264">
        <ele>700.63</ele>
        <time>2025-04-15T15:49:00.129Z</time>
      </trkpt>
      <trkpt lat="44.99103" lon="3.88272">
        <ele>701.67</ele>
        <time>2025-04-15T15:49:06.643Z</time>
      </trkpt>
      <trkpt lat="44.99116" lon="3.88283">
        <ele>702.76</ele>
        <time>2025-04-15T15:49:13.159Z</time>
      </trkpt>
      <trkpt lat="44.99136" lon="3.88307">
        <ele>703.92</ele>
        <time>2025-04-15T15:49:19.679Z</time>
      </trkpt>
      <trkpt lat="44.99156" lon="3.88332">
        <ele>705.21</ele>
        <time>2025-04-15T15:49:26.203Z</time>
      </trkpt>
      <trkpt lat="44.99176" lon="3.88356">
        <ele>706.6</ele>
        <time>2025-04-15T15:49:32.732Z</time>
      </trkpt>
      <trkpt lat="44.99193" lon="3.88367">
        <ele>708.16</ele>
        <time>2025-04-15T15:49:39.264Z</time>
      </trkpt>
      <trkpt lat="44.9921" lon="3.88377">
        <ele>709.74</ele>
        <time>2025-04-15T15:49:45.799Z</time>
      </trkpt>
      <trkpt lat="44.99238" lon="3.88396">
        <ele>711.23</ele>
        <time>2025-04-15T15:49:52.338Z</time>
      </trkpt>
      <trkpt lat="44.99265" lon="3.88415">
        <ele>712.8</ele>
        <time>2025-04-15T15:49:58.882Z</time>
      </trkpt>
      <trkpt lat="44.99292" lon="3.88434">
        <ele>714.42</ele>
        <time>2025-04-15T15:50:05.431Z</time>
      </trkpt>
      <trkpt lat="44.99319" lon="3.88453">
        <ele>715.96</ele>
        <time>2025-04-15T15:50:11.985Z</time>
      </trkpt>
      <trkpt lat="44.99346" lon="3.88472">
        <ele>717.58</ele>
        <time>2025-04-15T15:50:18.544Z</time>
      </trkpt>
      <trkpt lat="44.99373" lon="3.88491">
        <ele>719.24</ele>
        <time>2025-04-15T15:50:25.108Z</time>
      </trkpt>
      <trkpt lat="44.99386" lon="3.88507">
        <ele>720.91</ele>
        <time>2025-04-15T15:50:31.674Z</time>
      </trkpt>
      <trkpt lat="44.99399" lon="3.88523">
        <ele>722.66</ele>
        <time>2025-04-15T15:50:38.243Z</time>
      </trkpt>
      <trkpt lat="44.99415" lon="3.8855">
        <ele>724.38</ele>
        <time>2025-04-15T15:50:44.816Z</time>
      </trkpt>
      <trkpt lat="44.99431" lon="3.88576">
        <ele>726.12</ele>
        <time>2025-04-15T15:50:51.393Z</time>
      </trkpt>
      <trkpt lat="44.99446" lon="3.88603">
        <ele>727.92</ele>
        <time>2025-04-15T15:50:57.974Z</time>
      </trkpt>
      <trkpt lat="44.9947" lon="3.88629">
        <ele>729.84</ele>
        <time>2025-04-15T15:51:04.560Z</time>
      </trkpt>
      <trkpt lat="44.99481" lon="3.88635">
        <ele>731.74</ele>
        <time>2025-04-15T15:51:11.148Z</time>
      </trkpt>
      <trkpt lat="44.995" lon="3.88637">
        <ele>733.81</ele>
        <time>2025-04-15T15:51:17.739Z</time>
      </trkpt>
      <trkpt lat="44.99519" lon="3.88639">
        <ele>735.88</ele>
        <time>2025-04-15T15:51:24.333Z</time>
      </trkpt>
      <trkpt lat="44.99541" lon="3.88652">
        <ele>737.85</ele>
        <time>2025-04-15T15:51:30.931Z</time>
      </trkpt>
      <trkpt lat="44.99562" lon="3.88665">
        <ele>739.72</ele>
        <time>2025-04-15T15:51:37.532Z</time>
      </trkpt>
      <trkpt lat="44.99577" lon="3.88669">
        <ele>741.53</ele>
        <time>2025-04-15T15:51:44.136Z</time>
      </trkpt>
      <trkpt lat="44.9959" lon="3.88669">
        <ele>743.29</ele>
        <time>2025-04-15T15:51:50.742Z</time>
      </trkpt>
      <trkpt lat="44.99605" lon="3.88661">
        <ele>745.04</ele>
        <time>2025-04-15T15:51:57.350Z</time>
      </trkpt>
      <trkpt lat="44.9962" lon="3.88639">
        <ele>746.86</ele>
        <time>2025-04-15T15:52:03.962Z</time>
      </trkpt>
      <trkpt lat="44.99635" lon="3.88616">
        <ele>748.52</ele>
        <time>2025-04-15T15:52:10.577Z</time>
      </trkpt>
      <trkpt lat="44.9965" lon="3.88594">
        <ele>750.12</ele>
        <time>2025-04-15T15:52:17.196Z</time>
      </trkpt>
      <trkpt lat="44.99678" lon="3.88574">
        <ele>751.46</ele>
        <time>2025-04-15T15:52:23.820Z</time>
      </trkpt>
      <trkpt lat="44.99706" lon="3.88553">
        <ele>752.83</ele>
        <time>2025-04-15T15:52:30.449Z</time>
      </trkpt>
      <trkpt lat="44.99719" lon="3.88536">
        <ele>754.22</ele>
        <time>2025-04-15T15:52:37.081Z</time>
      </trkpt>
      <trkpt lat="44.99732" lon="3.88519">
        <ele>755.48</ele>
        <time>2025-04-15T15:52:43.716Z</time>
      </trkpt>
      <trkpt lat="44.99754" lon="3.88504">
        <ele>756.65</ele>
        <time>2025-04-15T15:52:50.355Z</time>
      </trkpt>
      <trkpt lat="44.99777" lon="3.88489">
        <ele>757.94</ele>
        <time>2025-04-15T15:52:56.998Z</time>
      </trkpt>
      <trkpt lat="44.99793" lon="3.88485">
        <ele>759.1</ele>
        <time>2025-04-15T15:53:03.643Z</time>
      </trkpt>
      <trkpt lat="44.99809" lon="3.8848">
        <ele>760.16</ele>
        <time>2025-04-15T15:53:10.291Z</time>
      </trkpt>
      <trkpt lat="44.99832" lon="3.8848">
        <ele>761.07</ele>
        <time>2025-04-15T15:53:16.942Z</time>
      </trkpt>
      <trkpt lat="44.99854" lon="3.8848">
        <ele>761.93</ele>
        <time>2025-04-15T15:53:23.597Z</time>
      </trkpt>
      <trkpt lat="44.99882" lon="3.88474">
        <ele>762.86</ele>
        <time>2025-04-15T15:53:30.257Z</time>
      </trkpt>
      <trkpt lat="44.99906" lon="3.88457">
        <ele>763.72</ele>
        <time>2025-04-15T15:53:36.921Z</time>
      </trkpt>
      <trkpt lat="44.9992" lon="3.88428">
        <ele>764.54</ele>
        <time>2025-04-15T15:53:43.589Z</time>
      </trkpt>
      <trkpt lat="44.99934" lon="3.884">
        <ele>765.25</ele>
        <time>2025-04-15T15:53:50.261Z</time>
      </trkpt>
      <trkpt lat="44.99949" lon="3.88371">
        <ele>765.89</ele>
        <time>2025-04-15T15:53:56.937Z</time>
      </trkpt>
      <trkpt lat="44.9997" lon="3.88339">
        <ele>766.2</ele>
        <time>2025-04-15T15:54:03.618Z</time>
      </trkpt>
      <trkpt lat="44.99983" lon="3.88326">
        <ele>766.37</ele>
        <time>2025-04-15T15:54:10.301Z</time>
      </trkpt>
      <trkpt lat="44.99996" lon="3.88313">
        <ele>766.52</ele>
        <time>2025-04-15T15:54:16.987Z</time>
      </trkpt>
      <trkpt lat="45.00012" lon="3.88306">
        <ele>766.5</ele>
        <time>2025-04-15T15:54:23.675Z</time>
      </trkpt>
      <trkpt lat="45.00028" lon="3.88298">
        <ele>766.36</ele>
        <time>2025-04-15T15:54:30.366Z</time>
      </trkpt>
      <trkpt lat="45.00056" lon="3.88294">
        <ele>766.54</ele>
        <time>2025-04-15T15:54:37.062Z</time>
      </trkpt>
      <trkpt lat="45.00079" lon="3.883">
        <ele>766.54</ele>
        <time>2025-04-15T15:54:43.762Z</time>
      </trkpt>
      <trkpt lat="45.00079" lon="3.883">
        <ele>766.51</ele>
        <time>2025-04-15T15:54:50.462Z</time>
      </trkpt>
      <trkpt lat="45.00099" lon="3.8832">
        <ele>766.34</ele>
        <time>2025-04-15T15:54:57.165Z</time>
      </trkpt>
      <trkpt lat="45.00118" lon="3.88339">
        <ele>766.21</ele>
        <time>2025-04-15T15:55:03.872Z</time>
      </trkpt>
      <trkpt lat="45.00135" lon="3.88347">
        <ele>766.21</ele>
        <time>2025-04-15T15:55:10.582Z</time>
      </trkpt>
      <trkpt lat="45.00162" lon="3.88353">
        <ele>766.34</ele>
        <time>2025-04-15T15:55:17.296Z</time>
      </trkpt>
      <trkpt lat="45.00189" lon="3.88358">
        <ele>766.46</ele>
        <time>2025-04-15T15:55:24.015Z</time>
      </trkpt>
      <trkpt lat="45.00209" lon="3.88367">
        <ele>766.48</ele>
        <time>2025-04-15T15:55:30.737Z</time>
      </trkpt>
      <trkpt lat="45.00229" lon="3.88377">
        <ele>766.61</ele>
        <time>2025-04-15T15:55:37.462Z</time>
      </trkpt>
      <trkpt lat="45.00249" lon="3.88386">
        <ele>766.78</ele>
        <time>2025-04-15T15:55:44.191Z</time>
      </trkpt>
      <trkpt lat="45.00258" lon="3.88392">
        <ele>766.88</ele>
        <time>2025-04-15T15:55:50.921Z</time>
      </trkpt>
      <trkpt lat="45.00266" lon="3.88405">
        <ele>766.97</ele>
        <time>2025-04-15T15:55:57.653Z</time>
      </trkpt>
      <trkpt lat="45.00279" lon="3.88442">
        <ele>766.94</ele>
        <time>2025-04-15T15:56:04.390Z</time>
      </trkpt>
      <trkpt lat="45.00292" lon="3.88478">
        <ele>766.99</ele>
        <time>2025-04-15T15:56:11.132Z</time>
      </trkpt>
      <trkpt lat="45.00309" lon="3.88493">
        <ele>767.52</ele>
        <time>2025-04-15T15:56:17.877Z</time>
      </trkpt>
      <trkpt lat="45.00333" lon="3.88502">
        <ele>768.22</ele>
        <time>2025-04-15T15:56:24.626Z</time>
      </trkpt>
      <trkpt lat="45.00358" lon="3.88511">
        <ele>768.92</ele>
        <time>2025-04-15T15:56:31.379Z</time>
      </trkpt>
      <trkpt lat="45.00382" lon="3.8852">
        <ele>769.66</ele>
        <time>2025-04-15T15:56:38.136Z</time>
      </trkpt>
      <trkpt lat="45.00407" lon="3.88529">
        <ele>770.49</ele>
        <time>2025-04-15T15:56:44.897Z</time>
      </trkpt>
      <trkpt lat="45.00431" lon="3.88538">
        <ele>771.43</ele>
        <time>2025-04-15T15:56:51.662Z</time>
      </trkpt>
      <trkpt lat="45.00431" lon="3.88538">
        <ele>772.64</ele>
        <time>2025-04-15T15:56:58.427Z</time>
      </trkpt>
      <trkpt lat="45.00461" lon="3.88546">
        <ele>774.15</ele>
        <time>2025-04-15T15:57:05.197Z</time>
      </trkpt>
      <trkpt lat="45.0049" lon="3.88554">
        <ele>775.83</ele>
        <time>2025-04-15T15:57:11.972Z</time>
      </trkpt>
      <trkpt lat="45.00519" lon="3.88562">
        <ele>777.51</ele>
        <time>2025-04-15T15:57:18.751Z</time>
      </trkpt>
      <trkpt lat="45.00549" lon="3.88573">
        <ele>779.25</ele>
        <time>2025-04-15T15:57:25.535Z</time>
      </trkpt>
      <trkpt lat="45.00568" lon="3.88586">
        <ele>780.81</ele>
        <time>2025-04-15T15:57:32.323Z</time>
      </trkpt>
      <trkpt lat="45.00586" lon="3.88598">
        <ele>782.42</ele>
        <time>2025-04-15T15:57:39.114Z</time>
      </trkpt>
      <trkpt lat="45.00608" lon="3.88601">
        <ele>784.31</ele>
        <time>2025-04-15T15:57:45.908Z</time>
      </trkpt>
      <trkpt lat="45.0063" lon="3.88603">
        <ele>786.2</ele>
        <time>2025-04-15T15:57:52.706Z</time>
      </trkpt>
      <trkpt lat="45.00652" lon="3.88605">
        <ele>787.97</ele>
        <time>2025-04-15T15:57:59.508Z</time>
      </trkpt>
      <trkpt lat="45.00667" lon="3.8862">
        <ele>789.52</ele>
        <time>2025-04-15T15:58:06.313Z</time>
      </trkpt>
      <trkpt lat="45.00682" lon="3.88635">
        <ele>790.95</ele>
        <time>2025-04-15T15:58:13.120Z</time>
      </trkpt>
      <trkpt lat="45.00702" lon="3.88669">
        <ele>791.97</ele>
        <time>2025-04-15T15:58:19.932Z</time>
      </trkpt>
      <trkpt lat="45.00719" lon="3.88705">
        <ele>792.62</ele>
        <time>2025-04-15T15:58:26.749Z</time>
      </trkpt>
      <trkpt lat="45.00736" lon="3.88741">
        <ele>793.56</ele>
        <time>2025-04-15T15:58:33.571Z</time>
      </trkpt>
      <trkpt lat="45.00753" lon="3.88777">
        <ele>794.71</ele>
        <time>2025-04-15T15:58:40.398Z</time>
      </trkpt>
      <trkpt lat="45.0077" lon="3.88813">
        <ele>795.63</ele>
        <time>2025-04-15T15:58:47.230Z</time>
      </trkpt>
      <trkpt lat="45.00781" lon="3.88852">
        <ele>796.45</ele>
        <time>2025-04-15T15:58:54.067Z</time>
      </trkpt>
      <trkpt lat="45.00783" lon="3.88875">
        <ele>796.9</ele>
        <time>2025-04-15T15:59:00.907Z</time>
      </trkpt>
      <trkpt lat="45.00779" lon="3.88895">
        <ele>797.05</ele>
        <time>2025-04-15T15:59:07.749Z</time>
      </trkpt>
      <trkpt lat="45.0077" lon="3.88918">
        <ele>797.01</ele>
        <time>2025-04-15T15:59:14.594Z</time>
      </trkpt>
      <trkpt lat="45.00762" lon="3.88942">
        <ele>797.17</ele>
        <time>2025-04-15T15:59:21.442Z</time>
      </trkpt>
      <trkpt lat="45.00764" lon="3.88965">
        <ele>797.59</ele>
        <time>2025-04-15T15:59:28.293Z</time>
      </trkpt>
      <trkpt lat="45.00775" lon="3.88991">
        <ele>798.06</ele>
        <time>2025-04-15T15:59:35.147Z</time>
      </trkpt>
      <trkpt lat="45.0079" lon="3.89016">
        <ele>798.53</ele>
        <time>2025-04-15T15:59:42.005Z</time>
      </trkpt>
      <trkpt lat="45.00806" lon="3.8904">
        <ele>799</ele>
        <time>2025-04-15T15:59:48.866Z</time>
      </trkpt>
      <trkpt lat="45.00822" lon="3.89064">
        <ele>799.37</ele>
        <time>2025-04-15T15:59:55.731Z</time>
      </trkpt>
      <trkpt lat="45.00836" lon="3.89093">
        <ele>799.83</ele>
        <time>2025-04-15T16:00:02.600Z</time>
      </trkpt>
      <trkpt lat="45.00851" lon="3.89122">
        <ele>800.03</ele>
        <time>2025-04-15T16:00:09.473Z</time>
      </trkpt>
      <trkpt lat="45.00861" lon="3.89141">
        <ele>800.03</ele>
        <time>2025-04-15T16:00:16.349Z</time>
      </trkpt>
      <trkpt lat="45.00876" lon="3.8918">
        <ele>800.15</ele>
        <time>2025-04-15T16:00:23.230Z</time>
      </trkpt>
      <trkpt lat="45.00881" lon="3.89217">
        <ele>800.14</ele>
        <time>2025-04-15T16:00:30.115Z</time>
      </trkpt>
      <trkpt lat="45.00886" lon="3.89253">
        <ele>800.16</ele>
        <time>2025-04-15T16:00:37.004Z</time>
      </trkpt>
      <trkpt lat="45.00893" lon="3.89281">
        <ele>800.38</ele>
        <time>2025-04-15T16:00:43.897Z</time>
      </trkpt>
      <trkpt lat="45.00907" lon="3.89304">
        <ele>800.89</ele>
        <time>2025-04-15T16:00:50.793Z</time>
      </trkpt>
      <trkpt lat="45.00921" lon="3.89327">
        <ele>801.34</ele>
        <time>2025-04-15T16:00:57.693Z</time>
      </trkpt>
      <trkpt lat="45.00936" lon="3.8935">
        <ele>801.85</ele>
        <time>2025-04-15T16:01:04.596Z</time>
      </trkpt>
      <trkpt lat="45.00936" lon="3.8935">
        <ele>802.24</ele>
        <time>2025-04-15T16:01:11.499Z</time>
      </trkpt>
      <trkpt lat="45.00946" lon="3.89367">
        <ele>802.83</ele>
        <time>2025-04-15T16:01:18.405Z</time>
      </trkpt>
      <trkpt lat="45.00957" lon="3.89384">
        <ele>803.29</ele>
        <time>2025-04-15T16:01:25.313Z</time>
      </trkpt>
      <trkpt lat="45.0097" lon="3.89418">
        <ele>803.58</ele>
        <time>2025-04-15T16:01:32.226Z</time>
      </trkpt>
      <trkpt lat="45.00985" lon="3.89455">
        <ele>803.8</ele>
        <time>2025-04-15T16:01:39.143Z</time>
      </trkpt>
      <trkpt lat="45.01" lon="3.89491">
        <ele>803.64</ele>
        <time>2025-04-15T16:01:46.065Z</time>
      </trkpt>
      <trkpt lat="45.01012" lon="3.89518">
        <ele>803.65</ele>
        <time>2025-04-15T16:01:52.991Z</time>
      </trkpt>
      <trkpt lat="45.01024" lon="3.89545">
        <ele>803.68</ele>
        <time>2025-04-15T16:01:59.920Z</time>
      </trkpt>
      <trkpt lat="45.01041" lon="3.89573">
        <ele>803.74</ele>
        <time>2025-04-15T16:02:06.854Z</time>
      </trkpt>
      <trkpt lat="45.01057" lon="3.89597">
        <ele>803.63</ele>
        <time>2025-04-15T16:02:13.791Z</time>
      </trkpt>
      <trkpt lat="45.01073" lon="3.89622">
        <ele>803.41</ele>
        <time>2025-04-15T16:02:20.732Z</time>
      </trkpt>
      <trkpt lat="45.01091" lon="3.89635">
        <ele>803.28</ele>
        <time>2025-04-15T16:02:27.676Z</time>
      </trkpt>
      <trkpt lat="45.01109" lon="3.89648">
        <ele>803.03</ele>
        <time>2025-04-15T16:02:34.624Z</time>
      </trkpt>
      <trkpt lat="45.0112" lon="3.89652">
        <ele>802.83</ele>
        <time>2025-04-15T16:02:41.574Z</time>
      </trkpt>
      <trkpt lat="45.01133" lon="3.89661">
        <ele>802.61</ele>
        <time>2025-04-15T16:02:48.526Z</time>
      </trkpt>
      <trkpt lat="45.01146" lon="3.89684">
        <ele>802.35</ele>
        <time>2025-04-15T16:02:55.481Z</time>
      </trkpt>
      <trkpt lat="45.01157" lon="3.89676">
        <ele>802.32</ele>
        <time>2025-04-15T16:03:02.438Z</time>
      </trkpt>
      <trkpt lat="45.01182" lon="3.89665">
        <ele>802.33</ele>
        <time>2025-04-15T16:03:09.399Z</time>
      </trkpt>
      <trkpt lat="45.012" lon="3.89663">
        <ele>802.06</ele>
        <time>2025-04-15T16:03:16.363Z</time>
      </trkpt>
      <trkpt lat="45.01217" lon="3.89661">
        <ele>801.84</ele>
        <time>2025-04-15T16:03:23.330Z</time>
      </trkpt>
      <trkpt lat="45.01239" lon="3.89657">
        <ele>801.78</ele>
        <time>2025-04-15T16:03:30.301Z</time>
      </trkpt>
      <trkpt lat="45.01261" lon="3.89653">
        <ele>801.98</ele>
        <time>2025-04-15T16:03:37.275Z</time>
      </trkpt>
      <trkpt lat="45.01283" lon="3.8965">
        <ele>802.36</ele>
        <time>2025-04-15T16:03:44.253Z</time>
      </trkpt>
      <trkpt lat="45.01269" lon="3.89613">
        <ele>803.29</ele>
        <time>2025-04-15T16:03:51.235Z</time>
      </trkpt>
      <trkpt lat="45.01255" lon="3.89577">
        <ele>804.1</ele>
        <time>2025-04-15T16:03:58.222Z</time>
      </trkpt>
      <trkpt lat="45.01251" lon="3.89577">
        <ele>804.35</ele>
        <time>2025-04-15T16:04:05.210Z</time>
      </trkpt>
      <trkpt lat="45.01224" lon="3.89598">
        <ele>804.52</ele>
        <time>2025-04-15T16:04:12.203Z</time>
      </trkpt>
    </trkseg>
  </trk>
  <trk>
    <name><![CDATA[LANGOGNE-LE PUY Route]]></name>
    <extensions>
      <line xmlns="http://www.topografix.com/GPX/gpx_style/0/2">
        <color>00FFFF</color>
        <width>4</width>
      </line>
    </extensions>
    <trkseg>
      <trkpt lat="44.73255" lon="3.85715">
        <ele>914.15</ele>
        <time>2025-04-15T14:17:49.000Z</time>
      </trkpt>
      <trkpt lat="44.73227" lon="3.85698">
        <ele>914.84</ele>
        <time>2025-04-15T14:17:49.005Z</time>
      </trkpt>
      <trkpt lat="44.73199" lon="3.85682">
        <ele>915.67</ele>
        <time>2025-04-15T14:17:49.015Z</time>
      </trkpt>
      <trkpt lat="44.73196" lon="3.8568">
        <ele>916.26</ele>
        <time>2025-04-15T14:17:49.025Z</time>
      </trkpt>
      <trkpt lat="44.73193" lon="3.85678">
        <ele>916.73</ele>
        <time>2025-04-15T14:17:49.036Z</time>
      </trkpt>
      <trkpt lat="44.73167" lon="3.85665">
        <ele>917.28</ele>
        <time>2025-04-15T14:17:49.051Z</time>
      </trkpt>
      <trkpt lat="44.73141" lon="3.85652">
        <ele>917.76</ele>
        <time>2025-04-15T14:17:49.071Z</time>
      </trkpt>
      <trkpt lat="44.73125" lon="3.85645">
        <ele>918.08</ele>
        <time>2025-04-15T14:17:49.093Z</time>
      </trkpt>
      <trkpt lat="44.73109" lon="3.85637">
        <ele>918.36</ele>
        <time>2025-04-15T14:17:49.118Z</time>
      </trkpt>
      <trkpt lat="44.73105" lon="3.85635">
        <ele>918.64</ele>
        <time>2025-04-15T14:17:49.144Z</time>
      </trkpt>
      <trkpt lat="44.73088" lon="3.85629">
        <ele>918.93</ele>
        <time>2025-04-15T14:17:49.173Z</time>
      </trkpt>
      <trkpt lat="44.73067" lon="3.85626">
        <ele>919.23</ele>
        <time>2025-04-15T14:17:49.205Z</time>
      </trkpt>
      <trkpt lat="44.73047" lon="3.85622">
        <ele>919.52</ele>
        <time>2025-04-15T14:17:49.240Z</time>
      </trkpt>
      <trkpt lat="44.73027" lon="3.85613">
        <ele>919.94</ele>
        <time>2025-04-15T14:17:49.279Z</time>
      </trkpt>
      <trkpt lat="44.73006" lon="3.85603">
        <ele>920.52</ele>
        <time>2025-04-15T14:17:49.321Z</time>
      </trkpt>
      <trkpt lat="44.72998" lon="3.85594">
        <ele>921.27</ele>
        <time>2025-04-15T14:17:49.365Z</time>
      </trkpt>
      <trkpt lat="44.73" lon="3.85579">
        <ele>922.38</ele>
        <time>2025-04-15T14:17:49.410Z</time>
      </trkpt>
      <trkpt lat="44.73011" lon="3.85558">
        <ele>923.75</ele>
        <time>2025-04-15T14:17:49.458Z</time>
      </trkpt>
      <trkpt lat="44.73023" lon="3.85541">
        <ele>925.2</ele>
        <time>2025-04-15T14:17:49.509Z</time>
      </trkpt>
      <trkpt lat="44.73036" lon="3.85524">
        <ele>926.87</ele>
        <time>2025-04-15T14:17:49.563Z</time>
      </trkpt>
      <trkpt lat="44.73054" lon="3.85498">
        <ele>928.84</ele>
        <time>2025-04-15T14:17:49.621Z</time>
      </trkpt>
      <trkpt lat="44.73071" lon="3.85472">
        <ele>930.86</ele>
        <time>2025-04-15T14:17:49.683Z</time>
      </trkpt>
      <trkpt lat="44.73077" lon="3.85459">
        <ele>932.99</ele>
        <time>2025-04-15T14:17:49.747Z</time>
      </trkpt>
      <trkpt lat="44.73066" lon="3.85442">
        <ele>935.32</ele>
        <time>2025-04-15T14:17:49.814Z</time>
      </trkpt>
      <trkpt lat="44.73056" lon="3.85425">
        <ele>937.81</ele>
        <time>2025-04-15T14:17:49.883Z</time>
      </trkpt>
      <trkpt lat="44.73046" lon="3.85397">
        <ele>940.39</ele>
        <time>2025-04-15T14:17:49.956Z</time>
      </trkpt>
      <trkpt lat="44.73036" lon="3.85369">
        <ele>942.87</ele>
        <time>2025-04-15T14:17:50.032Z</time>
      </trkpt>
      <trkpt lat="44.73031" lon="3.85335">
        <ele>945.25</ele>
        <time>2025-04-15T14:17:50.112Z</time>
      </trkpt>
      <trkpt lat="44.73025" lon="3.853">
        <ele>947.63</ele>
        <time>2025-04-15T14:17:50.196Z</time>
      </trkpt>
      <trkpt lat="44.73019" lon="3.85266">
        <ele>950.19</ele>
        <time>2025-04-15T14:17:50.284Z</time>
      </trkpt>
      <trkpt lat="44.73021" lon="3.85233">
        <ele>952.94</ele>
        <time>2025-04-15T14:17:50.376Z</time>
      </trkpt>
      <trkpt lat="44.73023" lon="3.852">
        <ele>955.8</ele>
        <time>2025-04-15T14:17:50.472Z</time>
      </trkpt>
      <trkpt lat="44.73019" lon="3.85163">
        <ele>958.65</ele>
        <time>2025-04-15T14:17:50.572Z</time>
      </trkpt>
      <trkpt lat="44.73006" lon="3.85137">
        <ele>961.23</ele>
        <time>2025-04-15T14:17:50.676Z</time>
      </trkpt>
      <trkpt lat="44.72993" lon="3.8511">
        <ele>963.71</ele>
        <time>2025-04-15T14:17:50.783Z</time>
      </trkpt>
      <trkpt lat="44.72981" lon="3.85084">
        <ele>966.02</ele>
        <time>2025-04-15T14:17:50.894Z</time>
      </trkpt>
      <trkpt lat="44.72971" lon="3.85056">
        <ele>968.12</ele>
        <time>2025-04-15T14:17:51.009Z</time>
      </trkpt>
      <trkpt lat="44.7296" lon="3.85028">
        <ele>970.09</ele>
        <time>2025-04-15T14:17:51.127Z</time>
      </trkpt>
      <trkpt lat="44.72951" lon="3.85">
        <ele>971.94</ele>
        <time>2025-04-15T14:17:51.249Z</time>
      </trkpt>
      <trkpt lat="44.72955" lon="3.84973">
        <ele>973.71</ele>
        <time>2025-04-15T14:17:51.374Z</time>
      </trkpt>
      <trkpt lat="44.72959" lon="3.84946">
        <ele>975.39</ele>
        <time>2025-04-15T14:17:51.502Z</time>
      </trkpt>
      <trkpt lat="44.72966" lon="3.84912">
        <ele>977.11</ele>
        <time>2025-04-15T14:17:51.634Z</time>
      </trkpt>
      <trkpt lat="44.72972" lon="3.84878">
        <ele>978.83</ele>
        <time>2025-04-15T14:17:51.770Z</time>
      </trkpt>
      <trkpt lat="44.72978" lon="3.84843">
        <ele>980.56</ele>
        <time>2025-04-15T14:17:51.910Z</time>
      </trkpt>
      <trkpt lat="44.72985" lon="3.84816">
        <ele>982.24</ele>
        <time>2025-04-15T14:17:52.054Z</time>
      </trkpt>
      <trkpt lat="44.72985" lon="3.84816">
        <ele>983.68</ele>
        <time>2025-04-15T14:17:52.198Z</time>
      </trkpt>
      <trkpt lat="44.72992" lon="3.8478">
        <ele>985.29</ele>
        <time>2025-04-15T14:17:52.346Z</time>
      </trkpt>
      <trkpt lat="44.73" lon="3.84745">
        <ele>986.86</ele>
        <time>2025-04-15T14:17:52.498Z</time>
      </trkpt>
      <trkpt lat="44.73003" lon="3.84721">
        <ele>988.32</ele>
        <time>2025-04-15T14:17:52.653Z</time>
      </trkpt>
      <trkpt lat="44.73006" lon="3.84697">
        <ele>989.65</ele>
        <time>2025-04-15T14:17:52.810Z</time>
      </trkpt>
      <trkpt lat="44.73003" lon="3.8466">
        <ele>990.88</ele>
        <time>2025-04-15T14:17:52.972Z</time>
      </trkpt>
      <trkpt lat="44.73" lon="3.84622">
        <ele>992.01</ele>
        <time>2025-04-15T14:17:53.138Z</time>
      </trkpt>
      <trkpt lat="44.73006" lon="3.84592">
        <ele>993.02</ele>
        <time>2025-04-15T14:17:53.308Z</time>
      </trkpt>
      <trkpt lat="44.73011" lon="3.84561">
        <ele>993.93</ele>
        <time>2025-04-15T14:17:53.481Z</time>
      </trkpt>
      <trkpt lat="44.73017" lon="3.8453">
        <ele>994.73</ele>
        <time>2025-04-15T14:17:53.658Z</time>
      </trkpt>
      <trkpt lat="44.73025" lon="3.84505">
        <ele>995.47</ele>
        <time>2025-04-15T14:17:53.838Z</time>
      </trkpt>
      <trkpt lat="44.73032" lon="3.84481">
        <ele>996.08</ele>
        <time>2025-04-15T14:17:54.021Z</time>
      </trkpt>
      <trkpt lat="44.73036" lon="3.84468">
        <ele>996.62</ele>
        <time>2025-04-15T14:17:54.206Z</time>
      </trkpt>
      <trkpt lat="44.73049" lon="3.84432">
        <ele>997.06</ele>
        <time>2025-04-15T14:17:54.395Z</time>
      </trkpt>
      <trkpt lat="44.73062" lon="3.84396">
        <ele>997.51</ele>
        <time>2025-04-15T14:17:54.589Z</time>
      </trkpt>
      <trkpt lat="44.73075" lon="3.8436">
        <ele>997.92</ele>
        <time>2025-04-15T14:17:54.788Z</time>
      </trkpt>
      <trkpt lat="44.73088" lon="3.84323">
        <ele>998.27</ele>
        <time>2025-04-15T14:17:54.991Z</time>
      </trkpt>
      <trkpt lat="44.73101" lon="3.84288">
        <ele>998.43</ele>
        <time>2025-04-15T14:17:55.199Z</time>
      </trkpt>
      <trkpt lat="44.73111" lon="3.84263">
        <ele>998.54</ele>
        <time>2025-04-15T14:17:55.410Z</time>
      </trkpt>
      <trkpt lat="44.73122" lon="3.84238">
        <ele>998.64</ele>
        <time>2025-04-15T14:17:55.624Z</time>
      </trkpt>
      <trkpt lat="44.73126" lon="3.84232">
        <ele>998.72</ele>
        <time>2025-04-15T14:17:55.839Z</time>
      </trkpt>
      <trkpt lat="44.73133" lon="3.84213">
        <ele>998.72</ele>
        <time>2025-04-15T14:17:56.057Z</time>
      </trkpt>
      <trkpt lat="44.73133" lon="3.84213">
        <ele>998.68</ele>
        <time>2025-04-15T14:17:56.275Z</time>
      </trkpt>
      <trkpt lat="44.7315" lon="3.84176">
        <ele>998.68</ele>
        <time>2025-04-15T14:17:56.498Z</time>
      </trkpt>
      <trkpt lat="44.73167" lon="3.8414">
        <ele>998.49</ele>
        <time>2025-04-15T14:17:56.726Z</time>
      </trkpt>
      <trkpt lat="44.73187" lon="3.84105">
        <ele>998.27</ele>
        <time>2025-04-15T14:17:56.959Z</time>
      </trkpt>
      <trkpt lat="44.732" lon="3.84084">
        <ele>998.08</ele>
        <time>2025-04-15T14:17:57.195Z</time>
      </trkpt>
      <trkpt lat="44.73214" lon="3.84062">
        <ele>997.8</ele>
        <time>2025-04-15T14:17:57.434Z</time>
      </trkpt>
      <trkpt lat="44.73229" lon="3.84045">
        <ele>997.33</ele>
        <time>2025-04-15T14:17:57.676Z</time>
      </trkpt>
      <trkpt lat="44.73244" lon="3.84028">
        <ele>996.77</ele>
        <time>2025-04-15T14:17:57.922Z</time>
      </trkpt>
      <trkpt lat="44.73244" lon="3.84004">
        <ele>995.94</ele>
        <time>2025-04-15T14:17:58.170Z</time>
      </trkpt>
      <trkpt lat="44.7327" lon="3.83993">
        <ele>995.29</ele>
        <time>2025-04-15T14:17:58.422Z</time>
      </trkpt>
      <trkpt lat="44.73295" lon="3.83982">
        <ele>994.53</ele>
        <time>2025-04-15T14:17:58.679Z</time>
      </trkpt>
      <trkpt lat="44.73321" lon="3.83971">
        <ele>993.62</ele>
        <time>2025-04-15T14:17:58.940Z</time>
      </trkpt>
      <trkpt lat="44.73346" lon="3.8396">
        <ele>992.54</ele>
        <time>2025-04-15T14:17:59.205Z</time>
      </trkpt>
      <trkpt lat="44.73371" lon="3.83949">
        <ele>991.38</ele>
        <time>2025-04-15T14:17:59.474Z</time>
      </trkpt>
      <trkpt lat="44.73397" lon="3.83938">
        <ele>989.94</ele>
        <time>2025-04-15T14:17:59.748Z</time>
      </trkpt>
      <trkpt lat="44.73426" lon="3.83921">
        <ele>988.6</ele>
        <time>2025-04-15T14:18:00.027Z</time>
      </trkpt>
      <trkpt lat="44.73455" lon="3.83904">
        <ele>987.21</ele>
        <time>2025-04-15T14:18:00.311Z</time>
      </trkpt>
      <trkpt lat="44.73481" lon="3.83882">
        <ele>985.64</ele>
        <time>2025-04-15T14:18:00.600Z</time>
      </trkpt>
      <trkpt lat="44.73504" lon="3.83857">
        <ele>983.97</ele>
        <time>2025-04-15T14:18:00.893Z</time>
      </trkpt>
      <trkpt lat="44.73528" lon="3.83832">
        <ele>982.27</ele>
        <time>2025-04-15T14:18:01.191Z</time>
      </trkpt>
      <trkpt lat="44.73551" lon="3.83807">
        <ele>980.58</ele>
        <time>2025-04-15T14:18:01.494Z</time>
      </trkpt>
      <trkpt lat="44.73575" lon="3.83782">
        <ele>978.74</ele>
        <time>2025-04-15T14:18:01.802Z</time>
      </trkpt>
      <trkpt lat="44.73599" lon="3.83757">
        <ele>976.84</ele>
        <time>2025-04-15T14:18:02.114Z</time>
      </trkpt>
      <trkpt lat="44.73622" lon="3.83732">
        <ele>975.19</ele>
        <time>2025-04-15T14:18:02.431Z</time>
      </trkpt>
      <trkpt lat="44.73622" lon="3.83732">
        <ele>973.46</ele>
        <time>2025-04-15T14:18:02.748Z</time>
      </trkpt>
      <trkpt lat="44.73645" lon="3.83708">
        <ele>971.82</ele>
        <time>2025-04-15T14:18:03.070Z</time>
      </trkpt>
      <trkpt lat="44.73668" lon="3.83684">
        <ele>969.98</ele>
        <time>2025-04-15T14:18:03.396Z</time>
      </trkpt>
      <trkpt lat="44.7369" lon="3.8366">
        <ele>968.14</ele>
        <time>2025-04-15T14:18:03.727Z</time>
      </trkpt>
      <trkpt lat="44.73713" lon="3.83636">
        <ele>966.28</ele>
        <time>2025-04-15T14:18:04.062Z</time>
      </trkpt>
      <trkpt lat="44.73736" lon="3.83612">
        <ele>964.47</ele>
        <time>2025-04-15T14:18:04.402Z</time>
      </trkpt>
      <trkpt lat="44.73755" lon="3.83582">
        <ele>962.62</ele>
        <time>2025-04-15T14:18:04.746Z</time>
      </trkpt>
      <trkpt lat="44.73775" lon="3.83552">
        <ele>960.76</ele>
        <time>2025-04-15T14:18:05.095Z</time>
      </trkpt>
      <trkpt lat="44.73794" lon="3.83522">
        <ele>958.89</ele>
        <time>2025-04-15T14:18:05.449Z</time>
      </trkpt>
      <trkpt lat="44.73813" lon="3.83492">
        <ele>957.07</ele>
        <time>2025-04-15T14:18:05.807Z</time>
      </trkpt>
      <trkpt lat="44.73813" lon="3.83492">
        <ele>955.46</ele>
        <time>2025-04-15T14:18:06.165Z</time>
      </trkpt>
      <trkpt lat="44.73833" lon="3.8346">
        <ele>953.61</ele>
        <time>2025-04-15T14:18:06.528Z</time>
      </trkpt>
      <trkpt lat="44.73853" lon="3.83429">
        <ele>951.95</ele>
        <time>2025-04-15T14:18:06.896Z</time>
      </trkpt>
      <trkpt lat="44.73873" lon="3.83398">
        <ele>950.47</ele>
        <time>2025-04-15T14:18:07.269Z</time>
      </trkpt>
      <trkpt lat="44.73893" lon="3.83367">
        <ele>949.12</ele>
        <time>2025-04-15T14:18:07.646Z</time>
      </trkpt>
      <trkpt lat="44.73906" lon="3.83349">
        <ele>947.86</ele>
        <time>2025-04-15T14:18:08.026Z</time>
      </trkpt>
      <trkpt lat="44.7392" lon="3.83331">
        <ele>946.79</ele>
        <time>2025-04-15T14:18:08.409Z</time>
      </trkpt>
      <trkpt lat="44.73942" lon="3.83313">
        <ele>945.82</ele>
        <time>2025-04-15T14:18:08.796Z</time>
      </trkpt>
      <trkpt lat="44.7395" lon="3.83309">
        <ele>945.01</ele>
        <time>2025-04-15T14:18:09.185Z</time>
      </trkpt>
      <trkpt lat="44.73977" lon="3.83297">
        <ele>944.28</ele>
        <time>2025-04-15T14:18:09.578Z</time>
      </trkpt>
      <trkpt lat="44.74004" lon="3.83285">
        <ele>943.67</ele>
        <time>2025-04-15T14:18:09.976Z</time>
      </trkpt>
      <trkpt lat="44.74031" lon="3.83273">
        <ele>943.17</ele>
        <time>2025-04-15T14:18:10.378Z</time>
      </trkpt>
      <trkpt lat="44.74059" lon="3.8326">
        <ele>942.86</ele>
        <time>2025-04-15T14:18:10.785Z</time>
      </trkpt>
      <trkpt lat="44.74086" lon="3.83248">
        <ele>942.64</ele>
        <time>2025-04-15T14:18:11.197Z</time>
      </trkpt>
      <trkpt lat="44.74113" lon="3.83236">
        <ele>942.46</ele>
        <time>2025-04-15T14:18:11.613Z</time>
      </trkpt>
      <trkpt lat="44.7414" lon="3.83224">
        <ele>942.55</ele>
        <time>2025-04-15T14:18:12.034Z</time>
      </trkpt>
      <trkpt lat="44.74167" lon="3.83211">
        <ele>942.69</ele>
        <time>2025-04-15T14:18:12.459Z</time>
      </trkpt>
      <trkpt lat="44.74194" lon="3.83199">
        <ele>942.94</ele>
        <time>2025-04-15T14:18:12.889Z</time>
      </trkpt>
      <trkpt lat="44.74221" lon="3.83187">
        <ele>943.26</ele>
        <time>2025-04-15T14:18:13.323Z</time>
      </trkpt>
      <trkpt lat="44.7424" lon="3.83168">
        <ele>943.62</ele>
        <time>2025-04-15T14:18:13.761Z</time>
      </trkpt>
      <trkpt lat="44.74254" lon="3.83145">
        <ele>944.01</ele>
        <time>2025-04-15T14:18:14.202Z</time>
      </trkpt>
      <trkpt lat="44.74269" lon="3.83123">
        <ele>944.54</ele>
        <time>2025-04-15T14:18:14.647Z</time>
      </trkpt>
      <trkpt lat="44.74283" lon="3.83101">
        <ele>945.02</ele>
        <time>2025-04-15T14:18:15.095Z</time>
      </trkpt>
      <trkpt lat="44.74303" lon="3.83076">
        <ele>945.48</ele>
        <time>2025-04-15T14:18:15.548Z</time>
      </trkpt>
      <trkpt lat="44.74324" lon="3.83052">
        <ele>945.98</ele>
        <time>2025-04-15T14:18:16.005Z</time>
      </trkpt>
      <trkpt lat="44.74341" lon="3.83035">
        <ele>946.51</ele>
        <time>2025-04-15T14:18:16.465Z</time>
      </trkpt>
      <trkpt lat="44.74358" lon="3.83017">
        <ele>947.01</ele>
        <time>2025-04-15T14:18:16.929Z</time>
      </trkpt>
      <trkpt lat="44.74381" lon="3.82999">
        <ele>947.55</ele>
        <time>2025-04-15T14:18:17.397Z</time>
      </trkpt>
      <trkpt lat="44.74404" lon="3.82981">
        <ele>948.02</ele>
        <time>2025-04-15T14:18:17.869Z</time>
      </trkpt>
      <trkpt lat="44.74427" lon="3.82963">
        <ele>948.41</ele>
        <time>2025-04-15T14:18:18.345Z</time>
      </trkpt>
      <trkpt lat="44.7445" lon="3.82944">
        <ele>948.8</ele>
        <time>2025-04-15T14:18:18.826Z</time>
      </trkpt>
      <trkpt lat="44.74466" lon="3.82936">
        <ele>949.18</ele>
        <time>2025-04-15T14:18:19.309Z</time>
      </trkpt>
      <trkpt lat="44.74483" lon="3.82927">
        <ele>949.52</ele>
        <time>2025-04-15T14:18:19.795Z</time>
      </trkpt>
      <trkpt lat="44.745" lon="3.82923">
        <ele>949.87</ele>
        <time>2025-04-15T14:18:20.284Z</time>
      </trkpt>
      <trkpt lat="44.74517" lon="3.82919">
        <ele>950.19</ele>
        <time>2025-04-15T14:18:20.776Z</time>
      </trkpt>
      <trkpt lat="44.74544" lon="3.82922">
        <ele>950.54</ele>
        <time>2025-04-15T14:18:21.272Z</time>
      </trkpt>
      <trkpt lat="44.74571" lon="3.82926">
        <ele>950.8</ele>
        <time>2025-04-15T14:18:21.772Z</time>
      </trkpt>
      <trkpt lat="44.74598" lon="3.82929">
        <ele>951.04</ele>
        <time>2025-04-15T14:18:22.277Z</time>
      </trkpt>
      <trkpt lat="44.74624" lon="3.82921">
        <ele>951.22</ele>
        <time>2025-04-15T14:18:22.786Z</time>
      </trkpt>
      <trkpt lat="44.74637" lon="3.8291">
        <ele>951.25</ele>
        <time>2025-04-15T14:18:23.297Z</time>
      </trkpt>
      <trkpt lat="44.7465" lon="3.82891">
        <ele>951.26</ele>
        <time>2025-04-15T14:18:23.811Z</time>
      </trkpt>
      <trkpt lat="44.74656" lon="3.82859">
        <ele>951.1</ele>
        <time>2025-04-15T14:18:24.329Z</time>
      </trkpt>
      <trkpt lat="44.74661" lon="3.82819">
        <ele>950.82</ele>
        <time>2025-04-15T14:18:24.852Z</time>
      </trkpt>
      <trkpt lat="44.74666" lon="3.8278">
        <ele>950.51</ele>
        <time>2025-04-15T14:18:25.379Z</time>
      </trkpt>
      <trkpt lat="44.74671" lon="3.82741">
        <ele>950.22</ele>
        <time>2025-04-15T14:18:25.911Z</time>
      </trkpt>
      <trkpt lat="44.74677" lon="3.82718">
        <ele>949.89</ele>
        <time>2025-04-15T14:18:26.446Z</time>
      </trkpt>
      <trkpt lat="44.74682" lon="3.82695">
        <ele>949.45</ele>
        <time>2025-04-15T14:18:26.983Z</time>
      </trkpt>
      <trkpt lat="44.74691" lon="3.8268">
        <ele>949.05</ele>
        <time>2025-04-15T14:18:27.523Z</time>
      </trkpt>
      <trkpt lat="44.74706" lon="3.8267">
        <ele>948.68</ele>
        <time>2025-04-15T14:18:28.065Z</time>
      </trkpt>
      <trkpt lat="44.74721" lon="3.82663">
        <ele>948.28</ele>
        <time>2025-04-15T14:18:28.610Z</time>
      </trkpt>
      <trkpt lat="44.7474" lon="3.8267">
        <ele>948</ele>
        <time>2025-04-15T14:18:29.158Z</time>
      </trkpt>
      <trkpt lat="44.74753" lon="3.82674">
        <ele>947.68</ele>
        <time>2025-04-15T14:18:29.708Z</time>
      </trkpt>
      <trkpt lat="44.7476" lon="3.82673">
        <ele>947.38</ele>
        <time>2025-04-15T14:18:30.259Z</time>
      </trkpt>
      <trkpt lat="44.74764" lon="3.82672">
        <ele>947.13</ele>
        <time>2025-04-15T14:18:30.811Z</time>
      </trkpt>
      <trkpt lat="44.74772" lon="3.82657">
        <ele>946.82</ele>
        <time>2025-04-15T14:18:31.365Z</time>
      </trkpt>
      <trkpt lat="44.74777" lon="3.82618">
        <ele>946.49</ele>
        <time>2025-04-15T14:18:31.923Z</time>
      </trkpt>
      <trkpt lat="44.74783" lon="3.82579">
        <ele>946.36</ele>
        <time>2025-04-15T14:18:32.486Z</time>
      </trkpt>
      <trkpt lat="44.74788" lon="3.82541">
        <ele>946.51</ele>
        <time>2025-04-15T14:18:33.053Z</time>
      </trkpt>
      <trkpt lat="44.74793" lon="3.82502">
        <ele>946.54</ele>
        <time>2025-04-15T14:18:33.625Z</time>
      </trkpt>
      <trkpt lat="44.74798" lon="3.82463">
        <ele>946.55</ele>
        <time>2025-04-15T14:18:34.201Z</time>
      </trkpt>
      <trkpt lat="44.74804" lon="3.82425">
        <ele>946.93</ele>
        <time>2025-04-15T14:18:34.782Z</time>
      </trkpt>
      <trkpt lat="44.74809" lon="3.82386">
        <ele>947.43</ele>
        <time>2025-04-15T14:18:35.367Z</time>
      </trkpt>
      <trkpt lat="44.74804" lon="3.82356">
        <ele>947.82</ele>
        <time>2025-04-15T14:18:35.956Z</time>
      </trkpt>
      <trkpt lat="44.748" lon="3.82326">
        <ele>948.21</ele>
        <time>2025-04-15T14:18:36.548Z</time>
      </trkpt>
      <trkpt lat="44.748" lon="3.82326">
        <ele>948.51</ele>
        <time>2025-04-15T14:18:37.140Z</time>
      </trkpt>
      <trkpt lat="44.748" lon="3.823">
        <ele>948.9</ele>
        <time>2025-04-15T14:18:37.735Z</time>
      </trkpt>
      <trkpt lat="44.748" lon="3.82273">
        <ele>949.3</ele>
        <time>2025-04-15T14:18:38.333Z</time>
      </trkpt>
      <trkpt lat="44.74806" lon="3.82237">
        <ele>949.61</ele>
        <time>2025-04-15T14:18:38.936Z</time>
      </trkpt>
      <trkpt lat="44.74811" lon="3.82202">
        <ele>949.89</ele>
        <time>2025-04-15T14:18:39.543Z</time>
      </trkpt>
      <trkpt lat="44.74816" lon="3.82166">
        <ele>950.15</ele>
        <time>2025-04-15T14:18:40.154Z</time>
      </trkpt>
      <trkpt lat="44.74822" lon="3.82131">
        <ele>950.44</ele>
        <time>2025-04-15T14:18:40.769Z</time>
      </trkpt>
      <trkpt lat="44.74838" lon="3.82096">
        <ele>950.57</ele>
        <time>2025-04-15T14:18:41.389Z</time>
      </trkpt>
      <trkpt lat="44.74854" lon="3.82061">
        <ele>950.71</ele>
        <time>2025-04-15T14:18:42.014Z</time>
      </trkpt>
      <trkpt lat="44.74871" lon="3.82025">
        <ele>950.85</ele>
        <time>2025-04-15T14:18:42.643Z</time>
      </trkpt>
      <trkpt lat="44.74887" lon="3.8199">
        <ele>951.04</ele>
        <time>2025-04-15T14:18:43.277Z</time>
      </trkpt>
      <trkpt lat="44.74903" lon="3.81955">
        <ele>951.26</ele>
        <time>2025-04-15T14:18:43.916Z</time>
      </trkpt>
      <trkpt lat="44.74918" lon="3.81922">
        <ele>951.57</ele>
        <time>2025-04-15T14:18:44.559Z</time>
      </trkpt>
      <trkpt lat="44.74933" lon="3.81889">
        <ele>951.87</ele>
        <time>2025-04-15T14:18:45.207Z</time>
      </trkpt>
      <trkpt lat="44.74947" lon="3.81856">
        <ele>952.21</ele>
        <time>2025-04-15T14:18:45.859Z</time>
      </trkpt>
      <trkpt lat="44.74962" lon="3.81823">
        <ele>952.61</ele>
        <time>2025-04-15T14:18:46.516Z</time>
      </trkpt>
      <trkpt lat="44.74977" lon="3.8179">
        <ele>952.98</ele>
        <time>2025-04-15T14:18:47.177Z</time>
      </trkpt>
      <trkpt lat="44.74991" lon="3.81758">
        <ele>953.27</ele>
        <time>2025-04-15T14:18:47.842Z</time>
      </trkpt>
      <trkpt lat="44.75001" lon="3.81716">
        <ele>953.56</ele>
        <time>2025-04-15T14:18:48.512Z</time>
      </trkpt>
      <trkpt lat="44.75011" lon="3.81674">
        <ele>953.95</ele>
        <time>2025-04-15T14:18:49.187Z</time>
      </trkpt>
      <trkpt lat="44.75021" lon="3.81632">
        <ele>954.32</ele>
        <time>2025-04-15T14:18:49.868Z</time>
      </trkpt>
      <trkpt lat="44.7503" lon="3.81591">
        <ele>954.79</ele>
        <time>2025-04-15T14:18:50.554Z</time>
      </trkpt>
      <trkpt lat="44.7504" lon="3.81549">
        <ele>955.45</ele>
        <time>2025-04-15T14:18:51.245Z</time>
      </trkpt>
      <trkpt lat="44.7505" lon="3.81507">
        <ele>956.08</ele>
        <time>2025-04-15T14:18:51.941Z</time>
      </trkpt>
      <trkpt lat="44.7506" lon="3.81466">
        <ele>956.84</ele>
        <time>2025-04-15T14:18:52.642Z</time>
      </trkpt>
      <trkpt lat="44.7507" lon="3.81438">
        <ele>957.64</ele>
        <time>2025-04-15T14:18:53.346Z</time>
      </trkpt>
      <trkpt lat="44.7508" lon="3.8141">
        <ele>958.43</ele>
        <time>2025-04-15T14:18:54.054Z</time>
      </trkpt>
      <trkpt lat="44.7509" lon="3.81382">
        <ele>959.19</ele>
        <time>2025-04-15T14:18:54.765Z</time>
      </trkpt>
      <trkpt lat="44.75108" lon="3.81349">
        <ele>960.01</ele>
        <time>2025-04-15T14:18:55.481Z</time>
      </trkpt>
      <trkpt lat="44.75126" lon="3.81316">
        <ele>960.97</ele>
        <time>2025-04-15T14:18:56.202Z</time>
      </trkpt>
      <trkpt lat="44.75145" lon="3.81284">
        <ele>961.87</ele>
        <time>2025-04-15T14:18:56.927Z</time>
      </trkpt>
      <trkpt lat="44.75163" lon="3.81252">
        <ele>962.68</ele>
        <time>2025-04-15T14:18:57.657Z</time>
      </trkpt>
      <trkpt lat="44.75181" lon="3.81221">
        <ele>963.53</ele>
        <time>2025-04-15T14:18:58.392Z</time>
      </trkpt>
      <trkpt lat="44.752" lon="3.81189">
        <ele>964.4</ele>
        <time>2025-04-15T14:18:59.131Z</time>
      </trkpt>
      <trkpt lat="44.75218" lon="3.81157">
        <ele>965.23</ele>
        <time>2025-04-15T14:18:59.875Z</time>
      </trkpt>
      <trkpt lat="44.75237" lon="3.81125">
        <ele>966.03</ele>
        <time>2025-04-15T14:19:00.624Z</time>
      </trkpt>
      <trkpt lat="44.75255" lon="3.81094">
        <ele>966.69</ele>
        <time>2025-04-15T14:19:01.377Z</time>
      </trkpt>
      <trkpt lat="44.75273" lon="3.81062">
        <ele>967.37</ele>
        <time>2025-04-15T14:19:02.135Z</time>
      </trkpt>
      <trkpt lat="44.75292" lon="3.8103">
        <ele>968.07</ele>
        <time>2025-04-15T14:19:02.898Z</time>
      </trkpt>
      <trkpt lat="44.75309" lon="3.80998">
        <ele>968.65</ele>
        <time>2025-04-15T14:19:03.665Z</time>
      </trkpt>
      <trkpt lat="44.75327" lon="3.80965">
        <ele>969.27</ele>
        <time>2025-04-15T14:19:04.437Z</time>
      </trkpt>
      <trkpt lat="44.75345" lon="3.80933">
        <ele>969.74</ele>
        <time>2025-04-15T14:19:05.214Z</time>
      </trkpt>
      <trkpt lat="44.75363" lon="3.809">
        <ele>970.2</ele>
        <time>2025-04-15T14:19:05.995Z</time>
      </trkpt>
      <trkpt lat="44.7538" lon="3.80867">
        <ele>970.9</ele>
        <time>2025-04-15T14:19:06.781Z</time>
      </trkpt>
      <trkpt lat="44.75398" lon="3.80835">
        <ele>971.66</ele>
        <time>2025-04-15T14:19:07.572Z</time>
      </trkpt>
      <trkpt lat="44.75416" lon="3.80802">
        <ele>972.39</ele>
        <time>2025-04-15T14:19:08.367Z</time>
      </trkpt>
      <trkpt lat="44.75434" lon="3.80769">
        <ele>972.96</ele>
        <time>2025-04-15T14:19:09.167Z</time>
      </trkpt>
      <trkpt lat="44.75452" lon="3.80737">
        <ele>973.55</ele>
        <time>2025-04-15T14:19:09.972Z</time>
      </trkpt>
      <trkpt lat="44.75469" lon="3.80704">
        <ele>974.17</ele>
        <time>2025-04-15T14:19:10.782Z</time>
      </trkpt>
      <trkpt lat="44.75487" lon="3.80672">
        <ele>974.66</ele>
        <time>2025-04-15T14:19:11.596Z</time>
      </trkpt>
      <trkpt lat="44.75504" lon="3.80646">
        <ele>975.14</ele>
        <time>2025-04-15T14:19:12.414Z</time>
      </trkpt>
      <trkpt lat="44.75517" lon="3.80633">
        <ele>975.74</ele>
        <time>2025-04-15T14:19:13.235Z</time>
      </trkpt>
      <trkpt lat="44.75539" lon="3.80619">
        <ele>976.32</ele>
        <time>2025-04-15T14:19:14.060Z</time>
      </trkpt>
      <trkpt lat="44.75561" lon="3.80605">
        <ele>976.93</ele>
        <time>2025-04-15T14:19:14.888Z</time>
      </trkpt>
      <trkpt lat="44.75583" lon="3.8059">
        <ele>977.46</ele>
        <time>2025-04-15T14:19:15.720Z</time>
      </trkpt>
      <trkpt lat="44.75605" lon="3.8056">
        <ele>978.02</ele>
        <time>2025-04-15T14:19:16.557Z</time>
      </trkpt>
      <trkpt lat="44.75614" lon="3.80538">
        <ele>978.44</ele>
        <time>2025-04-15T14:19:17.397Z</time>
      </trkpt>
      <trkpt lat="44.75624" lon="3.80515">
        <ele>978.91</ele>
        <time>2025-04-15T14:19:18.240Z</time>
      </trkpt>
      <trkpt lat="44.75628" lon="3.80507">
        <ele>979.25</ele>
        <time>2025-04-15T14:19:19.084Z</time>
      </trkpt>
      <trkpt lat="44.75641" lon="3.80467">
        <ele>979.59</ele>
        <time>2025-04-15T14:19:19.933Z</time>
      </trkpt>
      <trkpt lat="44.75654" lon="3.80427">
        <ele>979.75</ele>
        <time>2025-04-15T14:19:20.787Z</time>
      </trkpt>
      <trkpt lat="44.75656" lon="3.80423">
        <ele>979.83</ele>
        <time>2025-04-15T14:19:21.642Z</time>
      </trkpt>
      <trkpt lat="44.7567" lon="3.80387">
        <ele>979.71</ele>
        <time>2025-04-15T14:19:22.502Z</time>
      </trkpt>
      <trkpt lat="44.75684" lon="3.8035">
        <ele>979.49</ele>
        <time>2025-04-15T14:19:23.366Z</time>
      </trkpt>
      <trkpt lat="44.75698" lon="3.80313">
        <ele>979.3</ele>
        <time>2025-04-15T14:19:24.235Z</time>
      </trkpt>
      <trkpt lat="44.75711" lon="3.80277">
        <ele>979.2</ele>
        <time>2025-04-15T14:19:25.109Z</time>
      </trkpt>
      <trkpt lat="44.75725" lon="3.80241">
        <ele>978.86</ele>
        <time>2025-04-15T14:19:25.988Z</time>
      </trkpt>
      <trkpt lat="44.75749" lon="3.80212">
        <ele>978.6</ele>
        <time>2025-04-15T14:19:26.872Z</time>
      </trkpt>
      <trkpt lat="44.75772" lon="3.80183">
        <ele>978.18</ele>
        <time>2025-04-15T14:19:27.761Z</time>
      </trkpt>
      <trkpt lat="44.75785" lon="3.80157">
        <ele>977.74</ele>
        <time>2025-04-15T14:19:28.653Z</time>
      </trkpt>
      <trkpt lat="44.75792" lon="3.80136">
        <ele>977.35</ele>
        <time>2025-04-15T14:19:29.548Z</time>
      </trkpt>
      <trkpt lat="44.75798" lon="3.80114">
        <ele>976.95</ele>
        <time>2025-04-15T14:19:30.445Z</time>
      </trkpt>
      <trkpt lat="44.75801" lon="3.80085">
        <ele>976.4</ele>
        <time>2025-04-15T14:19:31.346Z</time>
      </trkpt>
      <trkpt lat="44.75804" lon="3.80055">
        <ele>975.93</ele>
        <time>2025-04-15T14:19:32.250Z</time>
      </trkpt>
      <trkpt lat="44.75807" lon="3.80026">
        <ele>975.45</ele>
        <time>2025-04-15T14:19:33.158Z</time>
      </trkpt>
      <trkpt lat="44.75811" lon="3.80009">
        <ele>975</ele>
        <time>2025-04-15T14:19:34.068Z</time>
      </trkpt>
      <trkpt lat="44.75828" lon="3.79981">
        <ele>974.56</ele>
        <time>2025-04-15T14:19:34.982Z</time>
      </trkpt>
      <trkpt lat="44.75845" lon="3.79953">
        <ele>974.1</ele>
        <time>2025-04-15T14:19:35.900Z</time>
      </trkpt>
      <trkpt lat="44.75862" lon="3.79925">
        <ele>973.53</ele>
        <time>2025-04-15T14:19:36.822Z</time>
      </trkpt>
      <trkpt lat="44.75869" lon="3.79905">
        <ele>972.91</ele>
        <time>2025-04-15T14:19:37.747Z</time>
      </trkpt>
      <trkpt lat="44.75875" lon="3.79885">
        <ele>972.33</ele>
        <time>2025-04-15T14:19:38.674Z</time>
      </trkpt>
      <trkpt lat="44.75882" lon="3.79846">
        <ele>971.82</ele>
        <time>2025-04-15T14:19:39.606Z</time>
      </trkpt>
      <trkpt lat="44.75882" lon="3.79824">
        <ele>971.28</ele>
        <time>2025-04-15T14:19:40.540Z</time>
      </trkpt>
      <trkpt lat="44.75878" lon="3.79794">
        <ele>970.61</ele>
        <time>2025-04-15T14:19:41.478Z</time>
      </trkpt>
      <trkpt lat="44.75874" lon="3.79764">
        <ele>969.93</ele>
        <time>2025-04-15T14:19:42.419Z</time>
      </trkpt>
      <trkpt lat="44.75871" lon="3.79734">
        <ele>969.28</ele>
        <time>2025-04-15T14:19:43.364Z</time>
      </trkpt>
      <trkpt lat="44.75869" lon="3.79696">
        <ele>968.77</ele>
        <time>2025-04-15T14:19:44.313Z</time>
      </trkpt>
      <trkpt lat="44.75869" lon="3.79657">
        <ele>968.34</ele>
        <time>2025-04-15T14:19:45.267Z</time>
      </trkpt>
      <trkpt lat="44.75875" lon="3.79625">
        <ele>967.98</ele>
        <time>2025-04-15T14:19:46.224Z</time>
      </trkpt>
      <trkpt lat="44.75884" lon="3.79594">
        <ele>967.73</ele>
        <time>2025-04-15T14:19:47.185Z</time>
      </trkpt>
      <trkpt lat="44.75892" lon="3.79563">
        <ele>967.53</ele>
        <time>2025-04-15T14:19:48.150Z</time>
      </trkpt>
      <trkpt lat="44.75905" lon="3.79537">
        <ele>967.52</ele>
        <time>2025-04-15T14:19:49.119Z</time>
      </trkpt>
      <trkpt lat="44.75918" lon="3.79511">
        <ele>967.54</ele>
        <time>2025-04-15T14:19:50.091Z</time>
      </trkpt>
      <trkpt lat="44.75931" lon="3.79494">
        <ele>967.71</ele>
        <time>2025-04-15T14:19:51.066Z</time>
      </trkpt>
      <trkpt lat="44.75944" lon="3.79477">
        <ele>967.98</ele>
        <time>2025-04-15T14:19:52.044Z</time>
      </trkpt>
      <trkpt lat="44.75962" lon="3.79461">
        <ele>968.35</ele>
        <time>2025-04-15T14:19:53.025Z</time>
      </trkpt>
      <trkpt lat="44.75981" lon="3.79445">
        <ele>968.81</ele>
        <time>2025-04-15T14:19:54.010Z</time>
      </trkpt>
      <trkpt lat="44.76" lon="3.7943">
        <ele>969.45</ele>
        <time>2025-04-15T14:19:54.998Z</time>
      </trkpt>
      <trkpt lat="44.76015" lon="3.7941">
        <ele>970.15</ele>
        <time>2025-04-15T14:19:55.989Z</time>
      </trkpt>
      <trkpt lat="44.7603" lon="3.79391">
        <ele>970.98</ele>
        <time>2025-04-15T14:19:56.984Z</time>
      </trkpt>
      <trkpt lat="44.76038" lon="3.7937">
        <ele>971.78</ele>
        <time>2025-04-15T14:19:57.982Z</time>
      </trkpt>
      <trkpt lat="44.76047" lon="3.79348">
        <ele>972.77</ele>
        <time>2025-04-15T14:19:58.982Z</time>
      </trkpt>
      <trkpt lat="44.76056" lon="3.79307">
        <ele>973.75</ele>
        <time>2025-04-15T14:19:59.987Z</time>
      </trkpt>
      <trkpt lat="44.76065" lon="3.79266">
        <ele>974.96</ele>
        <time>2025-04-15T14:20:00.997Z</time>
      </trkpt>
      <trkpt lat="44.76075" lon="3.79226">
        <ele>976.19</ele>
        <time>2025-04-15T14:20:02.012Z</time>
      </trkpt>
      <trkpt lat="44.76081" lon="3.79228">
        <ele>977.6</ele>
        <time>2025-04-15T14:20:03.028Z</time>
      </trkpt>
      <trkpt lat="44.76088" lon="3.79219">
        <ele>979</ele>
        <time>2025-04-15T14:20:04.045Z</time>
      </trkpt>
      <trkpt lat="44.76098" lon="3.79202">
        <ele>980.48</ele>
        <time>2025-04-15T14:20:05.065Z</time>
      </trkpt>
      <trkpt lat="44.76111" lon="3.79163">
        <ele>981.9</ele>
        <time>2025-04-15T14:20:06.090Z</time>
      </trkpt>
      <trkpt lat="44.76124" lon="3.79125">
        <ele>983.34</ele>
        <time>2025-04-15T14:20:07.120Z</time>
      </trkpt>
      <trkpt lat="44.76137" lon="3.79109">
        <ele>984.94</ele>
        <time>2025-04-15T14:20:08.153Z</time>
      </trkpt>
      <trkpt lat="44.7615" lon="3.79093">
        <ele>986.64</ele>
        <time>2025-04-15T14:20:09.188Z</time>
      </trkpt>
      <trkpt lat="44.76175" lon="3.79072">
        <ele>988.51</ele>
        <time>2025-04-15T14:20:10.228Z</time>
      </trkpt>
      <trkpt lat="44.762" lon="3.79052">
        <ele>990.42</ele>
        <time>2025-04-15T14:20:11.273Z</time>
      </trkpt>
      <trkpt lat="44.76225" lon="3.79031">
        <ele>992.24</ele>
        <time>2025-04-15T14:20:12.322Z</time>
      </trkpt>
      <trkpt lat="44.76249" lon="3.7901">
        <ele>994.22</ele>
        <time>2025-04-15T14:20:13.376Z</time>
      </trkpt>
      <trkpt lat="44.76274" lon="3.7899">
        <ele>996.31</ele>
        <time>2025-04-15T14:20:14.434Z</time>
      </trkpt>
      <trkpt lat="44.76281" lon="3.78977">
        <ele>998.17</ele>
        <time>2025-04-15T14:20:15.494Z</time>
      </trkpt>
      <trkpt lat="44.76293" lon="3.7894">
        <ele>1000.19</ele>
        <time>2025-04-15T14:20:16.559Z</time>
      </trkpt>
      <trkpt lat="44.76306" lon="3.78904">
        <ele>1002.17</ele>
        <time>2025-04-15T14:20:17.628Z</time>
      </trkpt>
      <trkpt lat="44.76318" lon="3.78867">
        <ele>1004.09</ele>
        <time>2025-04-15T14:20:18.702Z</time>
      </trkpt>
      <trkpt lat="44.76331" lon="3.78831">
        <ele>1005.94</ele>
        <time>2025-04-15T14:20:19.781Z</time>
      </trkpt>
      <trkpt lat="44.76343" lon="3.78794">
        <ele>1007.92</ele>
        <time>2025-04-15T14:20:20.864Z</time>
      </trkpt>
      <trkpt lat="44.76359" lon="3.78764">
        <ele>1010</ele>
        <time>2025-04-15T14:20:21.952Z</time>
      </trkpt>
      <trkpt lat="44.76375" lon="3.78734">
        <ele>1012.03</ele>
        <time>2025-04-15T14:20:23.044Z</time>
      </trkpt>
      <trkpt lat="44.76397" lon="3.78708">
        <ele>1014.07</ele>
        <time>2025-04-15T14:20:24.141Z</time>
      </trkpt>
      <trkpt lat="44.76419" lon="3.78681">
        <ele>1016.13</ele>
        <time>2025-04-15T14:20:25.242Z</time>
      </trkpt>
      <trkpt lat="44.76441" lon="3.78655">
        <ele>1018.32</ele>
        <time>2025-04-15T14:20:26.348Z</time>
      </trkpt>
      <trkpt lat="44.76463" lon="3.78628">
        <ele>1020.36</ele>
        <time>2025-04-15T14:20:27.458Z</time>
      </trkpt>
      <trkpt lat="44.76485" lon="3.78601">
        <ele>1022.24</ele>
        <time>2025-04-15T14:20:28.573Z</time>
      </trkpt>
      <trkpt lat="44.76502" lon="3.78574">
        <ele>1024.13</ele>
        <time>2025-04-15T14:20:29.692Z</time>
      </trkpt>
      <trkpt lat="44.7652" lon="3.78547">
        <ele>1025.95</ele>
        <time>2025-04-15T14:20:30.815Z</time>
      </trkpt>
      <trkpt lat="44.76538" lon="3.7852">
        <ele>1027.74</ele>
        <time>2025-04-15T14:20:31.943Z</time>
      </trkpt>
      <trkpt lat="44.76561" lon="3.78496">
        <ele>1029.62</ele>
        <time>2025-04-15T14:20:33.075Z</time>
      </trkpt>
      <trkpt lat="44.76584" lon="3.78473">
        <ele>1031.33</ele>
        <time>2025-04-15T14:20:34.212Z</time>
      </trkpt>
      <trkpt lat="44.76607" lon="3.78449">
        <ele>1032.94</ele>
        <time>2025-04-15T14:20:35.353Z</time>
      </trkpt>
      <trkpt lat="44.76632" lon="3.7843">
        <ele>1034.56</ele>
        <time>2025-04-15T14:20:36.499Z</time>
      </trkpt>
      <trkpt lat="44.76656" lon="3.7841">
        <ele>1036.07</ele>
        <time>2025-04-15T14:20:37.649Z</time>
      </trkpt>
      <trkpt lat="44.76674" lon="3.78385">
        <ele>1037.38</ele>
        <time>2025-04-15T14:20:38.803Z</time>
      </trkpt>
      <trkpt lat="44.76692" lon="3.78359">
        <ele>1038.57</ele>
        <time>2025-04-15T14:20:39.962Z</time>
      </trkpt>
      <trkpt lat="44.7671" lon="3.78333">
        <ele>1039.68</ele>
        <time>2025-04-15T14:20:41.125Z</time>
      </trkpt>
      <trkpt lat="44.76721" lon="3.78302">
        <ele>1040.59</ele>
        <time>2025-04-15T14:20:42.292Z</time>
      </trkpt>
      <trkpt lat="44.76733" lon="3.78272">
        <ele>1041.34</ele>
        <time>2025-04-15T14:20:43.463Z</time>
      </trkpt>
      <trkpt lat="44.76744" lon="3.78241">
        <ele>1041.88</ele>
        <time>2025-04-15T14:20:44.638Z</time>
      </trkpt>
      <trkpt lat="44.76752" lon="3.78213">
        <ele>1042.33</ele>
        <time>2025-04-15T14:20:45.816Z</time>
      </trkpt>
      <trkpt lat="44.76759" lon="3.78185">
        <ele>1042.76</ele>
        <time>2025-04-15T14:20:46.997Z</time>
      </trkpt>
      <trkpt lat="44.76772" lon="3.78161">
        <ele>1043.1</ele>
        <time>2025-04-15T14:20:48.182Z</time>
      </trkpt>
      <trkpt lat="44.76787" lon="3.78142">
        <ele>1043.26</ele>
        <time>2025-04-15T14:20:49.370Z</time>
      </trkpt>
      <trkpt lat="44.76813" lon="3.78127">
        <ele>1043.22</ele>
        <time>2025-04-15T14:20:50.562Z</time>
      </trkpt>
      <trkpt lat="44.76837" lon="3.78121">
        <ele>1043.09</ele>
        <time>2025-04-15T14:20:51.758Z</time>
      </trkpt>
      <trkpt lat="44.76861" lon="3.78114">
        <ele>1042.89</ele>
        <time>2025-04-15T14:20:52.958Z</time>
      </trkpt>
      <trkpt lat="44.76886" lon="3.78108">
        <ele>1042.4</ele>
        <time>2025-04-15T14:20:54.162Z</time>
      </trkpt>
      <trkpt lat="44.76903" lon="3.78095">
        <ele>1041.8</ele>
        <time>2025-04-15T14:20:55.369Z</time>
      </trkpt>
      <trkpt lat="44.7692" lon="3.78082">
        <ele>1041.09</ele>
        <time>2025-04-15T14:20:56.580Z</time>
      </trkpt>
      <trkpt lat="44.76933" lon="3.78067">
        <ele>1040.29</ele>
        <time>2025-04-15T14:20:57.793Z</time>
      </trkpt>
      <trkpt lat="44.76946" lon="3.78052">
        <ele>1039.4</ele>
        <time>2025-04-15T14:20:59.009Z</time>
      </trkpt>
      <trkpt lat="44.76965" lon="3.78024">
        <ele>1038.4</ele>
        <time>2025-04-15T14:21:00.229Z</time>
      </trkpt>
      <trkpt lat="44.76985" lon="3.77996">
        <ele>1037.28</ele>
        <time>2025-04-15T14:21:01.454Z</time>
      </trkpt>
      <trkpt lat="44.77001" lon="3.77977">
        <ele>1036.19</ele>
        <time>2025-04-15T14:21:02.682Z</time>
      </trkpt>
      <trkpt lat="44.77017" lon="3.77958">
        <ele>1034.97</ele>
        <time>2025-04-15T14:21:03.914Z</time>
      </trkpt>
      <trkpt lat="44.77045" lon="3.77938">
        <ele>1033.6</ele>
        <time>2025-04-15T14:21:05.151Z</time>
      </trkpt>
      <trkpt lat="44.77073" lon="3.77927">
        <ele>1032.08</ele>
        <time>2025-04-15T14:21:06.392Z</time>
      </trkpt>
      <trkpt lat="44.771" lon="3.77915">
        <ele>1030.46</ele>
        <time>2025-04-15T14:21:07.638Z</time>
      </trkpt>
      <trkpt lat="44.77128" lon="3.77904">
        <ele>1028.72</ele>
        <time>2025-04-15T14:21:08.888Z</time>
      </trkpt>
      <trkpt lat="44.77158" lon="3.77896">
        <ele>1027</ele>
        <time>2025-04-15T14:21:10.143Z</time>
      </trkpt>
      <trkpt lat="44.77187" lon="3.77888">
        <ele>1025.3</ele>
        <time>2025-04-15T14:21:11.403Z</time>
      </trkpt>
      <trkpt lat="44.77217" lon="3.7788">
        <ele>1023.55</ele>
        <time>2025-04-15T14:21:12.668Z</time>
      </trkpt>
      <trkpt lat="44.77246" lon="3.77872">
        <ele>1021.84</ele>
        <time>2025-04-15T14:21:13.938Z</time>
      </trkpt>
      <trkpt lat="44.77273" lon="3.77856">
        <ele>1020.04</ele>
        <time>2025-04-15T14:21:15.212Z</time>
      </trkpt>
      <trkpt lat="44.77299" lon="3.7784">
        <ele>1018.24</ele>
        <time>2025-04-15T14:21:16.491Z</time>
      </trkpt>
      <trkpt lat="44.77326" lon="3.77825">
        <ele>1016.41</ele>
        <time>2025-04-15T14:21:17.775Z</time>
      </trkpt>
      <trkpt lat="44.77343" lon="3.77822">
        <ele>1014.64</ele>
        <time>2025-04-15T14:21:19.061Z</time>
      </trkpt>
      <trkpt lat="44.77343" lon="3.77822">
        <ele>1012.89</ele>
        <time>2025-04-15T14:21:20.347Z</time>
      </trkpt>
      <trkpt lat="44.77366" lon="3.77833">
        <ele>1011.1</ele>
        <time>2025-04-15T14:21:21.637Z</time>
      </trkpt>
      <trkpt lat="44.7739" lon="3.7785">
        <ele>1009.27</ele>
        <time>2025-04-15T14:21:22.931Z</time>
      </trkpt>
      <trkpt lat="44.77413" lon="3.77866">
        <ele>1007.43</ele>
        <time>2025-04-15T14:21:24.230Z</time>
      </trkpt>
      <trkpt lat="44.77436" lon="3.77883">
        <ele>1005.6</ele>
        <time>2025-04-15T14:21:25.533Z</time>
      </trkpt>
      <trkpt lat="44.77459" lon="3.779">
        <ele>1003.79</ele>
        <time>2025-04-15T14:21:26.840Z</time>
      </trkpt>
      <trkpt lat="44.7748" lon="3.7793">
        <ele>1001.97</ele>
        <time>2025-04-15T14:21:28.152Z</time>
      </trkpt>
      <trkpt lat="44.7749" lon="3.77957">
        <ele>1000.21</ele>
        <time>2025-04-15T14:21:29.467Z</time>
      </trkpt>
      <trkpt lat="44.775" lon="3.77983">
        <ele>998.51</ele>
        <time>2025-04-15T14:21:30.786Z</time>
      </trkpt>
      <trkpt lat="44.7751" lon="3.78003">
        <ele>996.93</ele>
        <time>2025-04-15T14:21:32.107Z</time>
      </trkpt>
      <trkpt lat="44.77521" lon="3.78022">
        <ele>995.43</ele>
        <time>2025-04-15T14:21:33.431Z</time>
      </trkpt>
      <trkpt lat="44.7754" lon="3.78051">
        <ele>993.94</ele>
        <time>2025-04-15T14:21:34.760Z</time>
      </trkpt>
      <trkpt lat="44.7756" lon="3.7808">
        <ele>992.46</ele>
        <time>2025-04-15T14:21:36.093Z</time>
      </trkpt>
      <trkpt lat="44.77575" lon="3.78099">
        <ele>991.07</ele>
        <time>2025-04-15T14:21:37.429Z</time>
      </trkpt>
      <trkpt lat="44.7759" lon="3.78119">
        <ele>989.77</ele>
        <time>2025-04-15T14:21:38.769Z</time>
      </trkpt>
      <trkpt lat="44.77609" lon="3.78129">
        <ele>988.52</ele>
        <time>2025-04-15T14:21:40.112Z</time>
      </trkpt>
      <trkpt lat="44.77624" lon="3.78129">
        <ele>987.39</ele>
        <time>2025-04-15T14:21:41.457Z</time>
      </trkpt>
      <trkpt lat="44.77643" lon="3.78121">
        <ele>986.31</ele>
        <time>2025-04-15T14:21:42.806Z</time>
      </trkpt>
      <trkpt lat="44.77667" lon="3.78096">
        <ele>985.27</ele>
        <time>2025-04-15T14:21:44.159Z</time>
      </trkpt>
      <trkpt lat="44.77691" lon="3.78071">
        <ele>984.33</ele>
        <time>2025-04-15T14:21:45.517Z</time>
      </trkpt>
      <trkpt lat="44.7771" lon="3.78039">
        <ele>983.49</ele>
        <time>2025-04-15T14:21:46.880Z</time>
      </trkpt>
      <trkpt lat="44.77718" lon="3.78031">
        <ele>982.74</ele>
        <time>2025-04-15T14:21:48.245Z</time>
      </trkpt>
      <trkpt lat="44.77733" lon="3.78028">
        <ele>982.01</ele>
        <time>2025-04-15T14:21:49.612Z</time>
      </trkpt>
      <trkpt lat="44.77748" lon="3.78039">
        <ele>981.31</ele>
        <time>2025-04-15T14:21:50.982Z</time>
      </trkpt>
      <trkpt lat="44.77771" lon="3.78061">
        <ele>980.59</ele>
        <time>2025-04-15T14:21:52.356Z</time>
      </trkpt>
      <trkpt lat="44.77794" lon="3.78084">
        <ele>980.01</ele>
        <time>2025-04-15T14:21:53.735Z</time>
      </trkpt>
      <trkpt lat="44.77817" lon="3.78106">
        <ele>979.57</ele>
        <time>2025-04-15T14:21:55.118Z</time>
      </trkpt>
      <trkpt lat="44.7783" lon="3.78124">
        <ele>979.17</ele>
        <time>2025-04-15T14:21:56.504Z</time>
      </trkpt>
      <trkpt lat="44.77843" lon="3.78142">
        <ele>978.82</ele>
        <time>2025-04-15T14:21:57.893Z</time>
      </trkpt>
      <trkpt lat="44.77856" lon="3.78155">
        <ele>978.51</ele>
        <time>2025-04-15T14:21:59.284Z</time>
      </trkpt>
      <trkpt lat="44.77875" lon="3.78164">
        <ele>978.25</ele>
        <time>2025-04-15T14:22:00.679Z</time>
      </trkpt>
      <trkpt lat="44.77892" lon="3.78164">
        <ele>978.02</ele>
        <time>2025-04-15T14:22:02.076Z</time>
      </trkpt>
      <trkpt lat="44.77922" lon="3.78157">
        <ele>977.81</ele>
        <time>2025-04-15T14:22:03.478Z</time>
      </trkpt>
      <trkpt lat="44.77937" lon="3.78153">
        <ele>977.6</ele>
        <time>2025-04-15T14:22:04.883Z</time>
      </trkpt>
      <trkpt lat="44.77948" lon="3.78151">
        <ele>977.38</ele>
        <time>2025-04-15T14:22:06.289Z</time>
      </trkpt>
      <trkpt lat="44.77969" lon="3.78159">
        <ele>977.16</ele>
        <time>2025-04-15T14:22:07.699Z</time>
      </trkpt>
      <trkpt lat="44.77993" lon="3.78164">
        <ele>976.93</ele>
        <time>2025-04-15T14:22:09.113Z</time>
      </trkpt>
      <trkpt lat="44.78011" lon="3.78159">
        <ele>976.68</ele>
        <time>2025-04-15T14:22:10.530Z</time>
      </trkpt>
      <trkpt lat="44.7803" lon="3.78155">
        <ele>976.38</ele>
        <time>2025-04-15T14:22:11.950Z</time>
      </trkpt>
      <trkpt lat="44.78047" lon="3.78157">
        <ele>975.98</ele>
        <time>2025-04-15T14:22:13.372Z</time>
      </trkpt>
      <trkpt lat="44.78069" lon="3.78181">
        <ele>975.4</ele>
        <time>2025-04-15T14:22:14.799Z</time>
      </trkpt>
      <trkpt lat="44.78092" lon="3.78204">
        <ele>974.93</ele>
        <time>2025-04-15T14:22:16.230Z</time>
      </trkpt>
      <trkpt lat="44.78112" lon="3.78215">
        <ele>974.48</ele>
        <time>2025-04-15T14:22:17.665Z</time>
      </trkpt>
      <trkpt lat="44.78133" lon="3.78226">
        <ele>973.97</ele>
        <time>2025-04-15T14:22:19.103Z</time>
      </trkpt>
      <trkpt lat="44.78148" lon="3.78243">
        <ele>973.35</ele>
        <time>2025-04-15T14:22:20.545Z</time>
      </trkpt>
      <trkpt lat="44.78163" lon="3.7826">
        <ele>972.66</ele>
        <time>2025-04-15T14:22:21.990Z</time>
      </trkpt>
      <trkpt lat="44.78179" lon="3.78275">
        <ele>971.93</ele>
        <time>2025-04-15T14:22:23.438Z</time>
      </trkpt>
      <trkpt lat="44.78195" lon="3.7829">
        <ele>971.15</ele>
        <time>2025-04-15T14:22:24.889Z</time>
      </trkpt>
      <trkpt lat="44.78223" lon="3.78306">
        <ele>970.34</ele>
        <time>2025-04-15T14:22:26.345Z</time>
      </trkpt>
      <trkpt lat="44.78251" lon="3.78322">
        <ele>969.57</ele>
        <time>2025-04-15T14:22:27.805Z</time>
      </trkpt>
      <trkpt lat="44.78278" lon="3.78338">
        <ele>968.7</ele>
        <time>2025-04-15T14:22:29.270Z</time>
      </trkpt>
      <trkpt lat="44.78306" lon="3.78355">
        <ele>967.86</ele>
        <time>2025-04-15T14:22:30.740Z</time>
      </trkpt>
      <trkpt lat="44.7833" lon="3.78361">
        <ele>967.09</ele>
        <time>2025-04-15T14:22:32.214Z</time>
      </trkpt>
      <trkpt lat="44.78354" lon="3.78367">
        <ele>966.34</ele>
        <time>2025-04-15T14:22:33.692Z</time>
      </trkpt>
      <trkpt lat="44.78375" lon="3.78378">
        <ele>965.52</ele>
        <time>2025-04-15T14:22:35.173Z</time>
      </trkpt>
      <trkpt lat="44.78392" lon="3.78392">
        <ele>964.59</ele>
        <time>2025-04-15T14:22:36.658Z</time>
      </trkpt>
      <trkpt lat="44.78409" lon="3.78406">
        <ele>963.55</ele>
        <time>2025-04-15T14:22:38.146Z</time>
      </trkpt>
      <trkpt lat="44.78432" lon="3.78418">
        <ele>962.41</ele>
        <time>2025-04-15T14:22:39.638Z</time>
      </trkpt>
      <trkpt lat="44.78454" lon="3.7843">
        <ele>961.28</ele>
        <time>2025-04-15T14:22:41.134Z</time>
      </trkpt>
      <trkpt lat="44.78478" lon="3.78433">
        <ele>960.26</ele>
        <time>2025-04-15T14:22:42.633Z</time>
      </trkpt>
      <trkpt lat="44.78502" lon="3.78436">
        <ele>959.17</ele>
        <time>2025-04-15T14:22:44.136Z</time>
      </trkpt>
      <trkpt lat="44.78514" lon="3.78451">
        <ele>958.07</ele>
        <time>2025-04-15T14:22:45.642Z</time>
      </trkpt>
      <trkpt lat="44.78527" lon="3.78466">
        <ele>956.88</ele>
        <time>2025-04-15T14:22:47.150Z</time>
      </trkpt>
      <trkpt lat="44.78547" lon="3.7847">
        <ele>955.66</ele>
        <time>2025-04-15T14:22:48.662Z</time>
      </trkpt>
      <trkpt lat="44.78566" lon="3.78468">
        <ele>954.45</ele>
        <time>2025-04-15T14:22:50.177Z</time>
      </trkpt>
      <trkpt lat="44.78583" lon="3.78458">
        <ele>953.2</ele>
        <time>2025-04-15T14:22:51.695Z</time>
      </trkpt>
      <trkpt lat="44.786" lon="3.78447">
        <ele>951.87</ele>
        <time>2025-04-15T14:22:53.216Z</time>
      </trkpt>
      <trkpt lat="44.78615" lon="3.78443">
        <ele>950.48</ele>
        <time>2025-04-15T14:22:54.739Z</time>
      </trkpt>
      <trkpt lat="44.78639" lon="3.78447">
        <ele>948.97</ele>
        <time>2025-04-15T14:22:56.266Z</time>
      </trkpt>
      <trkpt lat="44.7866" lon="3.7846">
        <ele>947.5</ele>
        <time>2025-04-15T14:22:57.797Z</time>
      </trkpt>
      <trkpt lat="44.78682" lon="3.78473">
        <ele>946.05</ele>
        <time>2025-04-15T14:22:59.331Z</time>
      </trkpt>
      <trkpt lat="44.78711" lon="3.7848">
        <ele>944.57</ele>
        <time>2025-04-15T14:23:00.870Z</time>
      </trkpt>
      <trkpt lat="44.7874" lon="3.78488">
        <ele>943.1</ele>
        <time>2025-04-15T14:23:02.414Z</time>
      </trkpt>
      <trkpt lat="44.78766" lon="3.78491">
        <ele>941.62</ele>
        <time>2025-04-15T14:23:03.962Z</time>
      </trkpt>
      <trkpt lat="44.78793" lon="3.78494">
        <ele>940.2</ele>
        <time>2025-04-15T14:23:05.514Z</time>
      </trkpt>
      <trkpt lat="44.7882" lon="3.78497">
        <ele>938.76</ele>
        <time>2025-04-15T14:23:07.071Z</time>
      </trkpt>
      <trkpt lat="44.78846" lon="3.785">
        <ele>937.43</ele>
        <time>2025-04-15T14:23:08.632Z</time>
      </trkpt>
      <trkpt lat="44.78873" lon="3.78503">
        <ele>936.2</ele>
        <time>2025-04-15T14:23:10.197Z</time>
      </trkpt>
      <trkpt lat="44.78899" lon="3.78496">
        <ele>935.12</ele>
        <time>2025-04-15T14:23:11.766Z</time>
      </trkpt>
      <trkpt lat="44.7892" lon="3.7847">
        <ele>934.03</ele>
        <time>2025-04-15T14:23:13.340Z</time>
      </trkpt>
      <trkpt lat="44.78941" lon="3.78445">
        <ele>933.05</ele>
        <time>2025-04-15T14:23:14.918Z</time>
      </trkpt>
      <trkpt lat="44.78965" lon="3.78432">
        <ele>932.25</ele>
        <time>2025-04-15T14:23:16.501Z</time>
      </trkpt>
      <trkpt lat="44.78981" lon="3.78432">
        <ele>931.38</ele>
        <time>2025-04-15T14:23:18.086Z</time>
      </trkpt>
      <trkpt lat="44.78997" lon="3.78432">
        <ele>930.51</ele>
        <time>2025-04-15T14:23:19.674Z</time>
      </trkpt>
      <trkpt lat="44.79019" lon="3.78438">
        <ele>929.6</ele>
        <time>2025-04-15T14:23:21.265Z</time>
      </trkpt>
      <trkpt lat="44.7904" lon="3.78445">
        <ele>928.65</ele>
        <time>2025-04-15T14:23:22.860Z</time>
      </trkpt>
      <trkpt lat="44.79057" lon="3.78446">
        <ele>927.68</ele>
        <time>2025-04-15T14:23:24.457Z</time>
      </trkpt>
      <trkpt lat="44.79075" lon="3.78447">
        <ele>926.56</ele>
        <time>2025-04-15T14:23:26.057Z</time>
      </trkpt>
      <trkpt lat="44.79093" lon="3.78443">
        <ele>925.39</ele>
        <time>2025-04-15T14:23:27.660Z</time>
      </trkpt>
      <trkpt lat="44.79111" lon="3.78438">
        <ele>924.14</ele>
        <time>2025-04-15T14:23:29.266Z</time>
      </trkpt>
      <trkpt lat="44.79132" lon="3.78428">
        <ele>922.8</ele>
        <time>2025-04-15T14:23:30.876Z</time>
      </trkpt>
      <trkpt lat="44.79151" lon="3.78415">
        <ele>921.43</ele>
        <time>2025-04-15T14:23:32.489Z</time>
      </trkpt>
      <trkpt lat="44.79169" lon="3.78402">
        <ele>919.91</ele>
        <time>2025-04-15T14:23:34.105Z</time>
      </trkpt>
      <trkpt lat="44.79191" lon="3.78395">
        <ele>918.29</ele>
        <time>2025-04-15T14:23:35.725Z</time>
      </trkpt>
      <trkpt lat="44.79214" lon="3.78389">
        <ele>916.7</ele>
        <time>2025-04-15T14:23:37.349Z</time>
      </trkpt>
      <trkpt lat="44.79233" lon="3.78378">
        <ele>915.11</ele>
        <time>2025-04-15T14:23:38.976Z</time>
      </trkpt>
      <trkpt lat="44.79246" lon="3.78353">
        <ele>913.52</ele>
        <time>2025-04-15T14:23:40.606Z</time>
      </trkpt>
      <trkpt lat="44.79259" lon="3.78329">
        <ele>911.83</ele>
        <time>2025-04-15T14:23:42.240Z</time>
      </trkpt>
      <trkpt lat="44.79281" lon="3.78312">
        <ele>909.94</ele>
        <time>2025-04-15T14:23:43.878Z</time>
      </trkpt>
      <trkpt lat="44.79296" lon="3.78303">
        <ele>907.97</ele>
        <time>2025-04-15T14:23:45.518Z</time>
      </trkpt>
      <trkpt lat="44.79311" lon="3.78295">
        <ele>905.97</ele>
        <time>2025-04-15T14:23:47.161Z</time>
      </trkpt>
      <trkpt lat="44.79334" lon="3.78279">
        <ele>903.86</ele>
        <time>2025-04-15T14:23:48.808Z</time>
      </trkpt>
      <trkpt lat="44.79352" lon="3.78261">
        <ele>901.99</ele>
        <time>2025-04-15T14:23:50.459Z</time>
      </trkpt>
      <trkpt lat="44.79371" lon="3.78243">
        <ele>900.1</ele>
        <time>2025-04-15T14:23:52.113Z</time>
      </trkpt>
      <trkpt lat="44.7938" lon="3.78223">
        <ele>898.21</ele>
        <time>2025-04-15T14:23:53.770Z</time>
      </trkpt>
      <trkpt lat="44.7939" lon="3.78202">
        <ele>896.28</ele>
        <time>2025-04-15T14:23:55.430Z</time>
      </trkpt>
      <trkpt lat="44.79396" lon="3.78164">
        <ele>894.3</ele>
        <time>2025-04-15T14:23:57.094Z</time>
      </trkpt>
      <trkpt lat="44.79392" lon="3.78134">
        <ele>892.46</ele>
        <time>2025-04-15T14:23:58.762Z</time>
      </trkpt>
      <trkpt lat="44.79368" lon="3.7811">
        <ele>890.86</ele>
        <time>2025-04-15T14:24:00.435Z</time>
      </trkpt>
      <trkpt lat="44.79341" lon="3.78095">
        <ele>889.19</ele>
        <time>2025-04-15T14:24:02.112Z</time>
      </trkpt>
      <trkpt lat="44.79332" lon="3.78078">
        <ele>887.53</ele>
        <time>2025-04-15T14:24:03.792Z</time>
      </trkpt>
      <trkpt lat="44.79336" lon="3.78067">
        <ele>885.93</ele>
        <time>2025-04-15T14:24:05.473Z</time>
      </trkpt>
      <trkpt lat="44.79345" lon="3.78067">
        <ele>884.34</ele>
        <time>2025-04-15T14:24:07.156Z</time>
      </trkpt>
      <trkpt lat="44.79366" lon="3.78093">
        <ele>882.71</ele>
        <time>2025-04-15T14:24:08.843Z</time>
      </trkpt>
      <trkpt lat="44.79392" lon="3.78097">
        <ele>880.95</ele>
        <time>2025-04-15T14:24:10.534Z</time>
      </trkpt>
      <trkpt lat="44.79417" lon="3.78091">
        <ele>879.23</ele>
        <time>2025-04-15T14:24:12.229Z</time>
      </trkpt>
      <trkpt lat="44.79441" lon="3.78084">
        <ele>877.42</ele>
        <time>2025-04-15T14:24:13.928Z</time>
      </trkpt>
      <trkpt lat="44.79454" lon="3.78086">
        <ele>875.75</ele>
        <time>2025-04-15T14:24:15.629Z</time>
      </trkpt>
      <trkpt lat="44.79461" lon="3.78093">
        <ele>874.14</ele>
        <time>2025-04-15T14:24:17.332Z</time>
      </trkpt>
      <trkpt lat="44.79461" lon="3.78115">
        <ele>872.79</ele>
        <time>2025-04-15T14:24:19.037Z</time>
      </trkpt>
      <trkpt lat="44.79461" lon="3.78138">
        <ele>871.5</ele>
        <time>2025-04-15T14:24:20.745Z</time>
      </trkpt>
      <trkpt lat="44.79467" lon="3.78167">
        <ele>870.05</ele>
        <time>2025-04-15T14:24:22.456Z</time>
      </trkpt>
      <trkpt lat="44.79474" lon="3.78196">
        <ele>868.59</ele>
        <time>2025-04-15T14:24:24.171Z</time>
      </trkpt>
      <trkpt lat="44.79477" lon="3.78225">
        <ele>867.19</ele>
        <time>2025-04-15T14:24:25.889Z</time>
      </trkpt>
      <trkpt lat="44.7948" lon="3.78254">
        <ele>865.63</ele>
        <time>2025-04-15T14:24:27.610Z</time>
      </trkpt>
      <trkpt lat="44.7948" lon="3.78279">
        <ele>864.04</ele>
        <time>2025-04-15T14:24:29.334Z</time>
      </trkpt>
      <trkpt lat="44.79466" lon="3.78314">
        <ele>862.62</ele>
        <time>2025-04-15T14:24:31.063Z</time>
      </trkpt>
      <trkpt lat="44.79452" lon="3.78348">
        <ele>860.94</ele>
        <time>2025-04-15T14:24:32.796Z</time>
      </trkpt>
      <trkpt lat="44.79438" lon="3.78382">
        <ele>859.01</ele>
        <time>2025-04-15T14:24:34.534Z</time>
      </trkpt>
      <trkpt lat="44.79424" lon="3.78416">
        <ele>857.16</ele>
        <time>2025-04-15T14:24:36.276Z</time>
      </trkpt>
      <trkpt lat="44.7941" lon="3.7845">
        <ele>855.1</ele>
        <time>2025-04-15T14:24:38.023Z</time>
      </trkpt>
      <trkpt lat="44.79396" lon="3.78483">
        <ele>853.15</ele>
        <time>2025-04-15T14:24:39.774Z</time>
      </trkpt>
      <trkpt lat="44.79384" lon="3.78509">
        <ele>851.18</ele>
        <time>2025-04-15T14:24:41.529Z</time>
      </trkpt>
      <trkpt lat="44.79372" lon="3.78535">
        <ele>849.2</ele>
        <time>2025-04-15T14:24:43.287Z</time>
      </trkpt>
      <trkpt lat="44.7936" lon="3.78561">
        <ele>847.21</ele>
        <time>2025-04-15T14:24:45.049Z</time>
      </trkpt>
      <trkpt lat="44.79356" lon="3.78582">
        <ele>845.09</ele>
        <time>2025-04-15T14:24:46.813Z</time>
      </trkpt>
      <trkpt lat="44.79351" lon="3.78604">
        <ele>843.14</ele>
        <time>2025-04-15T14:24:48.580Z</time>
      </trkpt>
      <trkpt lat="44.79346" lon="3.78635">
        <ele>841.48</ele>
        <time>2025-04-15T14:24:50.350Z</time>
      </trkpt>
      <trkpt lat="44.79341" lon="3.78666">
        <ele>839.67</ele>
        <time>2025-04-15T14:24:52.124Z</time>
      </trkpt>
      <trkpt lat="44.79332" lon="3.78683">
        <ele>837.88</ele>
        <time>2025-04-15T14:24:53.900Z</time>
      </trkpt>
      <trkpt lat="44.79319" lon="3.78699">
        <ele>836.19</ele>
        <time>2025-04-15T14:24:55.679Z</time>
      </trkpt>
      <trkpt lat="44.79306" lon="3.78715">
        <ele>834.81</ele>
        <time>2025-04-15T14:24:57.461Z</time>
      </trkpt>
      <trkpt lat="44.79302" lon="3.7873">
        <ele>833.46</ele>
        <time>2025-04-15T14:24:59.245Z</time>
      </trkpt>
      <trkpt lat="44.79299" lon="3.78755">
        <ele>832.28</ele>
        <time>2025-04-15T14:25:01.032Z</time>
      </trkpt>
      <trkpt lat="44.79296" lon="3.78779">
        <ele>831.53</ele>
        <time>2025-04-15T14:25:02.821Z</time>
      </trkpt>
      <trkpt lat="44.79298" lon="3.7879">
        <ele>830.97</ele>
        <time>2025-04-15T14:25:04.612Z</time>
      </trkpt>
      <trkpt lat="44.79311" lon="3.7881">
        <ele>830.77</ele>
        <time>2025-04-15T14:25:06.406Z</time>
      </trkpt>
      <trkpt lat="44.79321" lon="3.78829">
        <ele>830.78</ele>
        <time>2025-04-15T14:25:08.203Z</time>
      </trkpt>
      <trkpt lat="44.79328" lon="3.78842">
        <ele>830.88</ele>
        <time>2025-04-15T14:25:10.001Z</time>
      </trkpt>
      <trkpt lat="44.79336" lon="3.78844">
        <ele>831.07</ele>
        <time>2025-04-15T14:25:11.801Z</time>
      </trkpt>
      <trkpt lat="44.79353" lon="3.78831">
        <ele>831.28</ele>
        <time>2025-04-15T14:25:13.604Z</time>
      </trkpt>
      <trkpt lat="44.79371" lon="3.78818">
        <ele>831.6</ele>
        <time>2025-04-15T14:25:15.410Z</time>
      </trkpt>
      <trkpt lat="44.79391" lon="3.78797">
        <ele>832.17</ele>
        <time>2025-04-15T14:25:17.220Z</time>
      </trkpt>
      <trkpt lat="44.79411" lon="3.78775">
        <ele>832.91</ele>
        <time>2025-04-15T14:25:19.034Z</time>
      </trkpt>
      <trkpt lat="44.7942" lon="3.78762">
        <ele>833.61</ele>
        <time>2025-04-15T14:25:20.850Z</time>
      </trkpt>
      <trkpt lat="44.79433" lon="3.78724">
        <ele>834.18</ele>
        <time>2025-04-15T14:25:22.671Z</time>
      </trkpt>
      <trkpt lat="44.79446" lon="3.78685">
        <ele>835.07</ele>
        <time>2025-04-15T14:25:24.497Z</time>
      </trkpt>
      <trkpt lat="44.79452" lon="3.78683">
        <ele>836.12</ele>
        <time>2025-04-15T14:25:26.324Z</time>
      </trkpt>
      <trkpt lat="44.79456" lon="3.78685">
        <ele>837.26</ele>
        <time>2025-04-15T14:25:28.152Z</time>
      </trkpt>
      <trkpt lat="44.79459" lon="3.78696">
        <ele>838.46</ele>
        <time>2025-04-15T14:25:29.981Z</time>
      </trkpt>
      <trkpt lat="44.79456" lon="3.78707">
        <ele>839.49</ele>
        <time>2025-04-15T14:25:31.811Z</time>
      </trkpt>
      <trkpt lat="44.79441" lon="3.78726">
        <ele>840.2</ele>
        <time>2025-04-15T14:25:33.644Z</time>
      </trkpt>
      <trkpt lat="44.79431" lon="3.78764">
        <ele>841.48</ele>
        <time>2025-04-15T14:25:35.482Z</time>
      </trkpt>
      <trkpt lat="44.79417" lon="3.7879">
        <ele>842.49</ele>
        <time>2025-04-15T14:25:37.324Z</time>
      </trkpt>
      <trkpt lat="44.79404" lon="3.78815">
        <ele>843.6</ele>
        <time>2025-04-15T14:25:39.169Z</time>
      </trkpt>
      <trkpt lat="44.7939" lon="3.7884">
        <ele>844.77</ele>
        <time>2025-04-15T14:25:41.018Z</time>
      </trkpt>
      <trkpt lat="44.79366" lon="3.78857">
        <ele>845.66</ele>
        <time>2025-04-15T14:25:42.871Z</time>
      </trkpt>
      <trkpt lat="44.79351" lon="3.78882">
        <ele>846.92</ele>
        <time>2025-04-15T14:25:44.728Z</time>
      </trkpt>
      <trkpt lat="44.79338" lon="3.789">
        <ele>847.94</ele>
        <time>2025-04-15T14:25:46.588Z</time>
      </trkpt>
      <trkpt lat="44.79323" lon="3.78923">
        <ele>849</ele>
        <time>2025-04-15T14:25:48.451Z</time>
      </trkpt>
      <trkpt lat="44.79319" lon="3.78943">
        <ele>850.03</ele>
        <time>2025-04-15T14:25:50.317Z</time>
      </trkpt>
      <trkpt lat="44.7932" lon="3.78977">
        <ele>851.11</ele>
        <time>2025-04-15T14:25:52.187Z</time>
      </trkpt>
      <trkpt lat="44.79321" lon="3.79011">
        <ele>852.08</ele>
        <time>2025-04-15T14:25:54.061Z</time>
      </trkpt>
      <trkpt lat="44.79321" lon="3.79046">
        <ele>853.09</ele>
        <time>2025-04-15T14:25:55.938Z</time>
      </trkpt>
      <trkpt lat="44.79319" lon="3.79065">
        <ele>854.05</ele>
        <time>2025-04-15T14:25:57.818Z</time>
      </trkpt>
      <trkpt lat="44.79311" lon="3.79084">
        <ele>854.93</ele>
        <time>2025-04-15T14:25:59.700Z</time>
      </trkpt>
      <trkpt lat="44.79298" lon="3.79101">
        <ele>855.86</ele>
        <time>2025-04-15T14:26:01.585Z</time>
      </trkpt>
      <trkpt lat="44.79285" lon="3.7911">
        <ele>856.83</ele>
        <time>2025-04-15T14:26:03.472Z</time>
      </trkpt>
      <trkpt lat="44.7927" lon="3.79116">
        <ele>857.87</ele>
        <time>2025-04-15T14:26:05.362Z</time>
      </trkpt>
      <trkpt lat="44.79244" lon="3.79111">
        <ele>858.78</ele>
        <time>2025-04-15T14:26:07.256Z</time>
      </trkpt>
      <trkpt lat="44.79218" lon="3.79106">
        <ele>859.55</ele>
        <time>2025-04-15T14:26:09.154Z</time>
      </trkpt>
      <trkpt lat="44.79188" lon="3.79108">
        <ele>860.46</ele>
        <time>2025-04-15T14:26:11.057Z</time>
      </trkpt>
      <trkpt lat="44.79171" lon="3.79116">
        <ele>861.57</ele>
        <time>2025-04-15T14:26:12.963Z</time>
      </trkpt>
      <trkpt lat="44.79154" lon="3.79134">
        <ele>862.72</ele>
        <time>2025-04-15T14:26:14.872Z</time>
      </trkpt>
      <trkpt lat="44.79145" lon="3.79154">
        <ele>864.18</ele>
        <time>2025-04-15T14:26:16.784Z</time>
      </trkpt>
      <trkpt lat="44.79137" lon="3.79174">
        <ele>865.68</ele>
        <time>2025-04-15T14:26:18.699Z</time>
      </trkpt>
      <trkpt lat="44.79119" lon="3.79188">
        <ele>866.99</ele>
        <time>2025-04-15T14:26:20.617Z</time>
      </trkpt>
      <trkpt lat="44.791" lon="3.79202">
        <ele>868.32</ele>
        <time>2025-04-15T14:26:22.538Z</time>
      </trkpt>
      <trkpt lat="44.79087" lon="3.79226">
        <ele>869.91</ele>
        <time>2025-04-15T14:26:24.463Z</time>
      </trkpt>
      <trkpt lat="44.79076" lon="3.79264">
        <ele>871.63</ele>
        <time>2025-04-15T14:26:26.392Z</time>
      </trkpt>
      <trkpt lat="44.79064" lon="3.79302">
        <ele>873.39</ele>
        <time>2025-04-15T14:26:28.326Z</time>
      </trkpt>
      <trkpt lat="44.79053" lon="3.7934">
        <ele>875.05</ele>
        <time>2025-04-15T14:26:30.265Z</time>
      </trkpt>
      <trkpt lat="44.79036" lon="3.79374">
        <ele>876.83</ele>
        <time>2025-04-15T14:26:32.209Z</time>
      </trkpt>
      <trkpt lat="44.7902" lon="3.79408">
        <ele>878.58</ele>
        <time>2025-04-15T14:26:34.157Z</time>
      </trkpt>
      <trkpt lat="44.79003" lon="3.79443">
        <ele>880.28</ele>
        <time>2025-04-15T14:26:36.110Z</time>
      </trkpt>
      <trkpt lat="44.78987" lon="3.79477">
        <ele>881.95</ele>
        <time>2025-04-15T14:26:38.068Z</time>
      </trkpt>
      <trkpt lat="44.7898" lon="3.79498">
        <ele>883.64</ele>
        <time>2025-04-15T14:26:40.028Z</time>
      </trkpt>
      <trkpt lat="44.78978" lon="3.79533">
        <ele>885.32</ele>
        <time>2025-04-15T14:26:41.992Z</time>
      </trkpt>
      <trkpt lat="44.78978" lon="3.79567">
        <ele>886.91</ele>
        <time>2025-04-15T14:26:43.960Z</time>
      </trkpt>
      <trkpt lat="44.78984" lon="3.79591">
        <ele>888.52</ele>
        <time>2025-04-15T14:26:45.931Z</time>
      </trkpt>
      <trkpt lat="44.78995" lon="3.79606">
        <ele>890.17</ele>
        <time>2025-04-15T14:26:47.905Z</time>
      </trkpt>
      <trkpt lat="44.79008" lon="3.79614">
        <ele>891.84</ele>
        <time>2025-04-15T14:26:49.881Z</time>
      </trkpt>
      <trkpt lat="44.79031" lon="3.79621">
        <ele>893.51</ele>
        <time>2025-04-15T14:26:51.861Z</time>
      </trkpt>
      <trkpt lat="44.79054" lon="3.79628">
        <ele>895.12</ele>
        <time>2025-04-15T14:26:53.844Z</time>
      </trkpt>
      <trkpt lat="44.79077" lon="3.79636">
        <ele>896.66</ele>
        <time>2025-04-15T14:26:55.831Z</time>
      </trkpt>
      <trkpt lat="44.79087" lon="3.7964">
        <ele>898.09</ele>
        <time>2025-04-15T14:26:57.820Z</time>
      </trkpt>
      <trkpt lat="44.79102" lon="3.79651">
        <ele>899.51</ele>
        <time>2025-04-15T14:26:59.812Z</time>
      </trkpt>
      <trkpt lat="44.79113" lon="3.7967">
        <ele>900.88</ele>
        <time>2025-04-15T14:27:01.806Z</time>
      </trkpt>
      <trkpt lat="44.79124" lon="3.79703">
        <ele>902.19</ele>
        <time>2025-04-15T14:27:03.805Z</time>
      </trkpt>
      <trkpt lat="44.79135" lon="3.79737">
        <ele>903.52</ele>
        <time>2025-04-15T14:27:05.808Z</time>
      </trkpt>
      <trkpt lat="44.79145" lon="3.7977">
        <ele>904.8</ele>
        <time>2025-04-15T14:27:07.815Z</time>
      </trkpt>
      <trkpt lat="44.79156" lon="3.79803">
        <ele>906.09</ele>
        <time>2025-04-15T14:27:09.826Z</time>
      </trkpt>
      <trkpt lat="44.79163" lon="3.79827">
        <ele>907.37</ele>
        <time>2025-04-15T14:27:11.840Z</time>
      </trkpt>
      <trkpt lat="44.79173" lon="3.79861">
        <ele>908.74</ele>
        <time>2025-04-15T14:27:13.858Z</time>
      </trkpt>
      <trkpt lat="44.79175" lon="3.7988">
        <ele>910</ele>
        <time>2025-04-15T14:27:15.878Z</time>
      </trkpt>
      <trkpt lat="44.79173" lon="3.7991">
        <ele>911.21</ele>
        <time>2025-04-15T14:27:17.902Z</time>
      </trkpt>
      <trkpt lat="44.79169" lon="3.79942">
        <ele>912.44</ele>
        <time>2025-04-15T14:27:19.930Z</time>
      </trkpt>
      <trkpt lat="44.79162" lon="3.79983">
        <ele>913.64</ele>
        <time>2025-04-15T14:27:21.962Z</time>
      </trkpt>
      <trkpt lat="44.79156" lon="3.80024">
        <ele>914.81</ele>
        <time>2025-04-15T14:27:23.999Z</time>
      </trkpt>
      <trkpt lat="44.79173" lon="3.7999">
        <ele>916.01</ele>
        <time>2025-04-15T14:27:26.041Z</time>
      </trkpt>
      <trkpt lat="44.79193" lon="3.7999">
        <ele>917.32</ele>
        <time>2025-04-15T14:27:28.086Z</time>
      </trkpt>
      <trkpt lat="44.79212" lon="3.7999">
        <ele>918.58</ele>
        <time>2025-04-15T14:27:30.134Z</time>
      </trkpt>
      <trkpt lat="44.7924" lon="3.79979">
        <ele>919.77</ele>
        <time>2025-04-15T14:27:32.187Z</time>
      </trkpt>
      <trkpt lat="44.79257" lon="3.79998">
        <ele>920.89</ele>
        <time>2025-04-15T14:27:34.243Z</time>
      </trkpt>
      <trkpt lat="44.79271" lon="3.80009">
        <ele>922.01</ele>
        <time>2025-04-15T14:27:36.302Z</time>
      </trkpt>
      <trkpt lat="44.79285" lon="3.8002">
        <ele>923.14</ele>
        <time>2025-04-15T14:27:38.363Z</time>
      </trkpt>
      <trkpt lat="44.79294" lon="3.80054">
        <ele>924.36</ele>
        <time>2025-04-15T14:27:40.428Z</time>
      </trkpt>
      <trkpt lat="44.79304" lon="3.80087">
        <ele>925.56</ele>
        <time>2025-04-15T14:27:42.498Z</time>
      </trkpt>
      <trkpt lat="44.79314" lon="3.80121">
        <ele>926.65</ele>
        <time>2025-04-15T14:27:44.572Z</time>
      </trkpt>
      <trkpt lat="44.79323" lon="3.80155">
        <ele>927.81</ele>
        <time>2025-04-15T14:27:46.650Z</time>
      </trkpt>
      <trkpt lat="44.79336" lon="3.80194">
        <ele>929.08</ele>
        <time>2025-04-15T14:27:48.733Z</time>
      </trkpt>
      <trkpt lat="44.79349" lon="3.80234">
        <ele>930.35</ele>
        <time>2025-04-15T14:27:50.821Z</time>
      </trkpt>
      <trkpt lat="44.79362" lon="3.80273">
        <ele>931.6</ele>
        <time>2025-04-15T14:27:52.914Z</time>
      </trkpt>
      <trkpt lat="44.79373" lon="3.80302">
        <ele>932.78</ele>
        <time>2025-04-15T14:27:55.010Z</time>
      </trkpt>
      <trkpt lat="44.79384" lon="3.80331">
        <ele>933.98</ele>
        <time>2025-04-15T14:27:57.110Z</time>
      </trkpt>
      <trkpt lat="44.79394" lon="3.80356">
        <ele>935.18</ele>
        <time>2025-04-15T14:27:59.213Z</time>
      </trkpt>
      <trkpt lat="44.79405" lon="3.8038">
        <ele>936.38</ele>
        <time>2025-04-15T14:28:01.320Z</time>
      </trkpt>
      <trkpt lat="44.7942" lon="3.80395">
        <ele>937.54</ele>
        <time>2025-04-15T14:28:03.430Z</time>
      </trkpt>
      <trkpt lat="44.79446" lon="3.80415">
        <ele>938.75</ele>
        <time>2025-04-15T14:28:05.544Z</time>
      </trkpt>
      <trkpt lat="44.79471" lon="3.80434">
        <ele>939.95</ele>
        <time>2025-04-15T14:28:07.663Z</time>
      </trkpt>
      <trkpt lat="44.79497" lon="3.80453">
        <ele>941.1</ele>
        <time>2025-04-15T14:28:09.787Z</time>
      </trkpt>
      <trkpt lat="44.79517" lon="3.80471">
        <ele>942.16</ele>
        <time>2025-04-15T14:28:11.914Z</time>
      </trkpt>
      <trkpt lat="44.79536" lon="3.80489">
        <ele>943.17</ele>
        <time>2025-04-15T14:28:14.045Z</time>
      </trkpt>
      <trkpt lat="44.79555" lon="3.80507">
        <ele>944.21</ele>
        <time>2025-04-15T14:28:16.180Z</time>
      </trkpt>
      <trkpt lat="44.79581" lon="3.8052">
        <ele>945.23</ele>
        <time>2025-04-15T14:28:18.319Z</time>
      </trkpt>
      <trkpt lat="44.79607" lon="3.80533">
        <ele>946.27</ele>
        <time>2025-04-15T14:28:20.463Z</time>
      </trkpt>
      <trkpt lat="44.79631" lon="3.80539">
        <ele>947.29</ele>
        <time>2025-04-15T14:28:22.610Z</time>
      </trkpt>
      <trkpt lat="44.79655" lon="3.80545">
        <ele>948.29</ele>
        <time>2025-04-15T14:28:24.761Z</time>
      </trkpt>
      <trkpt lat="44.79679" lon="3.80552">
        <ele>949.3</ele>
        <time>2025-04-15T14:28:26.916Z</time>
      </trkpt>
      <trkpt lat="44.79703" lon="3.80558">
        <ele>950.36</ele>
        <time>2025-04-15T14:28:29.075Z</time>
      </trkpt>
      <trkpt lat="44.79726" lon="3.80565">
        <ele>951.45</ele>
        <time>2025-04-15T14:28:31.238Z</time>
      </trkpt>
      <trkpt lat="44.79749" lon="3.80573">
        <ele>952.43</ele>
        <time>2025-04-15T14:28:33.405Z</time>
      </trkpt>
      <trkpt lat="44.79772" lon="3.8058">
        <ele>953.44</ele>
        <time>2025-04-15T14:28:35.576Z</time>
      </trkpt>
      <trkpt lat="44.79789" lon="3.80588">
        <ele>954.5</ele>
        <time>2025-04-15T14:28:37.749Z</time>
      </trkpt>
      <trkpt lat="44.79804" lon="3.8061">
        <ele>955.66</ele>
        <time>2025-04-15T14:28:39.926Z</time>
      </trkpt>
      <trkpt lat="44.79819" lon="3.80636">
        <ele>956.82</ele>
        <time>2025-04-15T14:28:42.107Z</time>
      </trkpt>
      <trkpt lat="44.79829" lon="3.80666">
        <ele>957.88</ele>
        <time>2025-04-15T14:28:44.291Z</time>
      </trkpt>
      <trkpt lat="44.7984" lon="3.80696">
        <ele>958.91</ele>
        <time>2025-04-15T14:28:46.479Z</time>
      </trkpt>
      <trkpt lat="44.7985" lon="3.80726">
        <ele>960</ele>
        <time>2025-04-15T14:28:48.671Z</time>
      </trkpt>
      <trkpt lat="44.7986" lon="3.80756">
        <ele>961.15</ele>
        <time>2025-04-15T14:28:50.867Z</time>
      </trkpt>
      <trkpt lat="44.79868" lon="3.80791">
        <ele>962.29</ele>
        <time>2025-04-15T14:28:53.067Z</time>
      </trkpt>
      <trkpt lat="44.79877" lon="3.80826">
        <ele>963.44</ele>
        <time>2025-04-15T14:28:55.271Z</time>
      </trkpt>
      <trkpt lat="44.79886" lon="3.80861">
        <ele>964.67</ele>
        <time>2025-04-15T14:28:57.479Z</time>
      </trkpt>
      <trkpt lat="44.79894" lon="3.80895">
        <ele>965.95</ele>
        <time>2025-04-15T14:28:59.692Z</time>
      </trkpt>
      <trkpt lat="44.79905" lon="3.80917">
        <ele>967.14</ele>
        <time>2025-04-15T14:29:01.908Z</time>
      </trkpt>
      <trkpt lat="44.79927" lon="3.80947">
        <ele>968.3</ele>
        <time>2025-04-15T14:29:04.129Z</time>
      </trkpt>
      <trkpt lat="44.79949" lon="3.80978">
        <ele>969.47</ele>
        <time>2025-04-15T14:29:06.355Z</time>
      </trkpt>
      <trkpt lat="44.79971" lon="3.81009">
        <ele>970.64</ele>
        <time>2025-04-15T14:29:08.586Z</time>
      </trkpt>
      <trkpt lat="44.79988" lon="3.81036">
        <ele>971.77</ele>
        <time>2025-04-15T14:29:10.821Z</time>
      </trkpt>
      <trkpt lat="44.80004" lon="3.81063">
        <ele>972.98</ele>
        <time>2025-04-15T14:29:13.060Z</time>
      </trkpt>
      <trkpt lat="44.8002" lon="3.81088">
        <ele>974.22</ele>
        <time>2025-04-15T14:29:15.303Z</time>
      </trkpt>
      <trkpt lat="44.80037" lon="3.81113">
        <ele>975.46</ele>
        <time>2025-04-15T14:29:17.549Z</time>
      </trkpt>
      <trkpt lat="44.80054" lon="3.81138">
        <ele>976.72</ele>
        <time>2025-04-15T14:29:19.799Z</time>
      </trkpt>
      <trkpt lat="44.8007" lon="3.81163">
        <ele>977.91</ele>
        <time>2025-04-15T14:29:22.053Z</time>
      </trkpt>
      <trkpt lat="44.80082" lon="3.81198">
        <ele>979</ele>
        <time>2025-04-15T14:29:24.312Z</time>
      </trkpt>
      <trkpt lat="44.80094" lon="3.81232">
        <ele>980.03</ele>
        <time>2025-04-15T14:29:26.575Z</time>
      </trkpt>
      <trkpt lat="44.80094" lon="3.81232">
        <ele>981.04</ele>
        <time>2025-04-15T14:29:28.838Z</time>
      </trkpt>
      <trkpt lat="44.80114" lon="3.81206">
        <ele>982.02</ele>
        <time>2025-04-15T14:29:31.105Z</time>
      </trkpt>
      <trkpt lat="44.80133" lon="3.81179">
        <ele>983</ele>
        <time>2025-04-15T14:29:33.377Z</time>
      </trkpt>
      <trkpt lat="44.80153" lon="3.81153">
        <ele>983.98</ele>
        <time>2025-04-15T14:29:35.653Z</time>
      </trkpt>
      <trkpt lat="44.80173" lon="3.81127">
        <ele>984.94</ele>
        <time>2025-04-15T14:29:37.933Z</time>
      </trkpt>
      <trkpt lat="44.80192" lon="3.81105">
        <ele>985.84</ele>
        <time>2025-04-15T14:29:40.217Z</time>
      </trkpt>
      <trkpt lat="44.8021" lon="3.81083">
        <ele>986.69</ele>
        <time>2025-04-15T14:29:42.505Z</time>
      </trkpt>
      <trkpt lat="44.80229" lon="3.8106">
        <ele>987.55</ele>
        <time>2025-04-15T14:29:44.797Z</time>
      </trkpt>
      <trkpt lat="44.80248" lon="3.81043">
        <ele>988.24</ele>
        <time>2025-04-15T14:29:47.093Z</time>
      </trkpt>
      <trkpt lat="44.80268" lon="3.81026">
        <ele>988.91</ele>
        <time>2025-04-15T14:29:49.392Z</time>
      </trkpt>
      <trkpt lat="44.80292" lon="3.81014">
        <ele>989.63</ele>
        <time>2025-04-15T14:29:51.696Z</time>
      </trkpt>
      <trkpt lat="44.80317" lon="3.81002">
        <ele>990.31</ele>
        <time>2025-04-15T14:29:54.004Z</time>
      </trkpt>
      <trkpt lat="44.80342" lon="3.8099">
        <ele>990.97</ele>
        <time>2025-04-15T14:29:56.316Z</time>
      </trkpt>
      <trkpt lat="44.80367" lon="3.80978">
        <ele>991.57</ele>
        <time>2025-04-15T14:29:58.632Z</time>
      </trkpt>
      <trkpt lat="44.80392" lon="3.80966">
        <ele>992.07</ele>
        <time>2025-04-15T14:30:00.952Z</time>
      </trkpt>
      <trkpt lat="44.80409" lon="3.80948">
        <ele>992.51</ele>
        <time>2025-04-15T14:30:03.276Z</time>
      </trkpt>
      <trkpt lat="44.80426" lon="3.8093">
        <ele>992.87</ele>
        <time>2025-04-15T14:30:05.603Z</time>
      </trkpt>
      <trkpt lat="44.80448" lon="3.80907">
        <ele>993.15</ele>
        <time>2025-04-15T14:30:07.935Z</time>
      </trkpt>
      <trkpt lat="44.80469" lon="3.80884">
        <ele>993.29</ele>
        <time>2025-04-15T14:30:10.271Z</time>
      </trkpt>
      <trkpt lat="44.80491" lon="3.80861">
        <ele>993.4</ele>
        <time>2025-04-15T14:30:12.611Z</time>
      </trkpt>
      <trkpt lat="44.80504" lon="3.80854">
        <ele>993.48</ele>
        <time>2025-04-15T14:30:14.954Z</time>
      </trkpt>
      <trkpt lat="44.80528" lon="3.80852">
        <ele>993.58</ele>
        <time>2025-04-15T14:30:17.300Z</time>
      </trkpt>
      <trkpt lat="44.80552" lon="3.80849">
        <ele>993.55</ele>
        <time>2025-04-15T14:30:19.650Z</time>
      </trkpt>
      <trkpt lat="44.80576" lon="3.80846">
        <ele>993.36</ele>
        <time>2025-04-15T14:30:22.004Z</time>
      </trkpt>
      <trkpt lat="44.806" lon="3.80844">
        <ele>993.1</ele>
        <time>2025-04-15T14:30:24.362Z</time>
      </trkpt>
      <trkpt lat="44.80624" lon="3.80831">
        <ele>992.75</ele>
        <time>2025-04-15T14:30:26.724Z</time>
      </trkpt>
      <trkpt lat="44.80648" lon="3.80807">
        <ele>992.31</ele>
        <time>2025-04-15T14:30:29.091Z</time>
      </trkpt>
      <trkpt lat="44.80672" lon="3.80784">
        <ele>991.74</ele>
        <time>2025-04-15T14:30:31.462Z</time>
      </trkpt>
      <trkpt lat="44.80696" lon="3.8076">
        <ele>991</ele>
        <time>2025-04-15T14:30:33.838Z</time>
      </trkpt>
      <trkpt lat="44.8072" lon="3.80736">
        <ele>990.16</ele>
        <time>2025-04-15T14:30:36.219Z</time>
      </trkpt>
      <trkpt lat="44.80744" lon="3.80713">
        <ele>989.22</ele>
        <time>2025-04-15T14:30:38.604Z</time>
      </trkpt>
      <trkpt lat="44.80768" lon="3.80689">
        <ele>988.29</ele>
        <time>2025-04-15T14:30:40.994Z</time>
      </trkpt>
      <trkpt lat="44.80789" lon="3.80677">
        <ele>987.39</ele>
        <time>2025-04-15T14:30:43.388Z</time>
      </trkpt>
      <trkpt lat="44.8081" lon="3.80666">
        <ele>986.4</ele>
        <time>2025-04-15T14:30:45.786Z</time>
      </trkpt>
      <trkpt lat="44.8083" lon="3.80666">
        <ele>985.52</ele>
        <time>2025-04-15T14:30:48.187Z</time>
      </trkpt>
      <trkpt lat="44.80849" lon="3.80666">
        <ele>984.57</ele>
        <time>2025-04-15T14:30:50.591Z</time>
      </trkpt>
      <trkpt lat="44.80876" lon="3.80683">
        <ele>983.7</ele>
        <time>2025-04-15T14:30:52.999Z</time>
      </trkpt>
      <trkpt lat="44.80902" lon="3.80701">
        <ele>982.92</ele>
        <time>2025-04-15T14:30:55.412Z</time>
      </trkpt>
      <trkpt lat="44.80928" lon="3.80719">
        <ele>982.4</ele>
        <time>2025-04-15T14:30:57.830Z</time>
      </trkpt>
      <trkpt lat="44.80956" lon="3.80727">
        <ele>981.75</ele>
        <time>2025-04-15T14:31:00.252Z</time>
      </trkpt>
      <trkpt lat="44.80984" lon="3.80734">
        <ele>981.2</ele>
        <time>2025-04-15T14:31:02.679Z</time>
      </trkpt>
      <trkpt lat="44.81005" lon="3.80748">
        <ele>980.59</ele>
        <time>2025-04-15T14:31:05.110Z</time>
      </trkpt>
      <trkpt lat="44.81025" lon="3.80762">
        <ele>980.02</ele>
        <time>2025-04-15T14:31:07.544Z</time>
      </trkpt>
      <trkpt lat="44.81045" lon="3.80789">
        <ele>979.69</ele>
        <time>2025-04-15T14:31:09.983Z</time>
      </trkpt>
      <trkpt lat="44.81066" lon="3.80816">
        <ele>979.53</ele>
        <time>2025-04-15T14:31:12.426Z</time>
      </trkpt>
      <trkpt lat="44.81074" lon="3.8082">
        <ele>979.25</ele>
        <time>2025-04-15T14:31:14.871Z</time>
      </trkpt>
      <trkpt lat="44.81085" lon="3.8082">
        <ele>978.97</ele>
        <time>2025-04-15T14:31:17.317Z</time>
      </trkpt>
      <trkpt lat="44.81096" lon="3.80809">
        <ele>978.75</ele>
        <time>2025-04-15T14:31:19.765Z</time>
      </trkpt>
      <trkpt lat="44.81102" lon="3.80796">
        <ele>978.76</ele>
        <time>2025-04-15T14:31:22.215Z</time>
      </trkpt>
      <trkpt lat="44.81102" lon="3.80777">
        <ele>978.96</ele>
        <time>2025-04-15T14:31:24.667Z</time>
      </trkpt>
      <trkpt lat="44.81089" lon="3.80745">
        <ele>979.21</ele>
        <time>2025-04-15T14:31:27.124Z</time>
      </trkpt>
      <trkpt lat="44.81084" lon="3.80723">
        <ele>979.59</ele>
        <time>2025-04-15T14:31:29.583Z</time>
      </trkpt>
      <trkpt lat="44.81079" lon="3.80702">
        <ele>980.1</ele>
        <time>2025-04-15T14:31:32.045Z</time>
      </trkpt>
      <trkpt lat="44.81072" lon="3.80664">
        <ele>980.81</ele>
        <time>2025-04-15T14:31:34.511Z</time>
      </trkpt>
      <trkpt lat="44.81066" lon="3.80626">
        <ele>981.65</ele>
        <time>2025-04-15T14:31:36.982Z</time>
      </trkpt>
      <trkpt lat="44.81059" lon="3.80588">
        <ele>982.5</ele>
        <time>2025-04-15T14:31:39.457Z</time>
      </trkpt>
      <trkpt lat="44.81044" lon="3.80551">
        <ele>983.41</ele>
        <time>2025-04-15T14:31:41.937Z</time>
      </trkpt>
      <trkpt lat="44.81029" lon="3.80513">
        <ele>984.36</ele>
        <time>2025-04-15T14:31:44.422Z</time>
      </trkpt>
      <trkpt lat="44.8101" lon="3.80487">
        <ele>985.29</ele>
        <time>2025-04-15T14:31:46.911Z</time>
      </trkpt>
      <trkpt lat="44.80991" lon="3.80462">
        <ele>986.4</ele>
        <time>2025-04-15T14:31:49.404Z</time>
      </trkpt>
      <trkpt lat="44.8098" lon="3.80447">
        <ele>987.5</ele>
        <time>2025-04-15T14:31:51.900Z</time>
      </trkpt>
      <trkpt lat="44.80974" lon="3.80432">
        <ele>988.65</ele>
        <time>2025-04-15T14:31:54.398Z</time>
      </trkpt>
      <trkpt lat="44.80974" lon="3.80417">
        <ele>989.82</ele>
        <time>2025-04-15T14:31:56.898Z</time>
      </trkpt>
      <trkpt lat="44.8098" lon="3.80404">
        <ele>991.01</ele>
        <time>2025-04-15T14:31:59.399Z</time>
      </trkpt>
      <trkpt lat="44.80991" lon="3.80393">
        <ele>992.24</ele>
        <time>2025-04-15T14:32:01.902Z</time>
      </trkpt>
      <trkpt lat="44.8101" lon="3.80393">
        <ele>993.48</ele>
        <time>2025-04-15T14:32:04.409Z</time>
      </trkpt>
      <trkpt lat="44.81036" lon="3.80397">
        <ele>994.7</ele>
        <time>2025-04-15T14:32:06.920Z</time>
      </trkpt>
      <trkpt lat="44.81062" lon="3.80402">
        <ele>995.93</ele>
        <time>2025-04-15T14:32:09.435Z</time>
      </trkpt>
      <trkpt lat="44.81088" lon="3.80404">
        <ele>997.12</ele>
        <time>2025-04-15T14:32:11.954Z</time>
      </trkpt>
      <trkpt lat="44.81115" lon="3.80406">
        <ele>998.28</ele>
        <time>2025-04-15T14:32:14.477Z</time>
      </trkpt>
      <trkpt lat="44.8113" lon="3.80397">
        <ele>999.34</ele>
        <time>2025-04-15T14:32:17.003Z</time>
      </trkpt>
      <trkpt lat="44.81141" lon="3.8038">
        <ele>1000.33</ele>
        <time>2025-04-15T14:32:19.532Z</time>
      </trkpt>
      <trkpt lat="44.8116" lon="3.8035">
        <ele>1001.39</ele>
        <time>2025-04-15T14:32:22.065Z</time>
      </trkpt>
      <trkpt lat="44.8118" lon="3.8032">
        <ele>1002.43</ele>
        <time>2025-04-15T14:32:24.603Z</time>
      </trkpt>
      <trkpt lat="44.81197" lon="3.80305">
        <ele>1003.19</ele>
        <time>2025-04-15T14:32:27.144Z</time>
      </trkpt>
      <trkpt lat="44.81203" lon="3.80305">
        <ele>1003.77</ele>
        <time>2025-04-15T14:32:29.686Z</time>
      </trkpt>
      <trkpt lat="44.81229" lon="3.80311">
        <ele>1004.13</ele>
        <time>2025-04-15T14:32:32.232Z</time>
      </trkpt>
      <trkpt lat="44.81255" lon="3.80317">
        <ele>1004.53</ele>
        <time>2025-04-15T14:32:34.782Z</time>
      </trkpt>
      <trkpt lat="44.8128" lon="3.80322">
        <ele>1004.92</ele>
        <time>2025-04-15T14:32:37.337Z</time>
      </trkpt>
      <trkpt lat="44.81298" lon="3.8032">
        <ele>1005.15</ele>
        <time>2025-04-15T14:32:39.894Z</time>
      </trkpt>
      <trkpt lat="44.81321" lon="3.80305">
        <ele>1005.22</ele>
        <time>2025-04-15T14:32:42.456Z</time>
      </trkpt>
      <trkpt lat="44.81341" lon="3.80286">
        <ele>1005.05</ele>
        <time>2025-04-15T14:32:45.021Z</time>
      </trkpt>
      <trkpt lat="44.81361" lon="3.80266">
        <ele>1004.88</ele>
        <time>2025-04-15T14:32:47.590Z</time>
      </trkpt>
      <trkpt lat="44.81381" lon="3.80247">
        <ele>1004.69</ele>
        <time>2025-04-15T14:32:50.163Z</time>
      </trkpt>
      <trkpt lat="44.81401" lon="3.80228">
        <ele>1004.52</ele>
        <time>2025-04-15T14:32:52.740Z</time>
      </trkpt>
      <trkpt lat="44.81428" lon="3.80207">
        <ele>1004.32</ele>
        <time>2025-04-15T14:32:55.322Z</time>
      </trkpt>
      <trkpt lat="44.81455" lon="3.80186">
        <ele>1003.91</ele>
        <time>2025-04-15T14:32:57.909Z</time>
      </trkpt>
      <trkpt lat="44.81482" lon="3.80166">
        <ele>1003.49</ele>
        <time>2025-04-15T14:33:00.501Z</time>
      </trkpt>
      <trkpt lat="44.81497" lon="3.80146">
        <ele>1003.07</ele>
        <time>2025-04-15T14:33:03.096Z</time>
      </trkpt>
      <trkpt lat="44.81508" lon="3.80118">
        <ele>1002.54</ele>
        <time>2025-04-15T14:33:05.695Z</time>
      </trkpt>
      <trkpt lat="44.81514" lon="3.80083">
        <ele>1001.94</ele>
        <time>2025-04-15T14:33:08.298Z</time>
      </trkpt>
      <trkpt lat="44.81519" lon="3.80047">
        <ele>1001.42</ele>
        <time>2025-04-15T14:33:10.905Z</time>
      </trkpt>
      <trkpt lat="44.81525" lon="3.80011">
        <ele>1000.88</ele>
        <time>2025-04-15T14:33:13.516Z</time>
      </trkpt>
      <trkpt lat="44.81538" lon="3.79992">
        <ele>1000.4</ele>
        <time>2025-04-15T14:33:16.130Z</time>
      </trkpt>
      <trkpt lat="44.81564" lon="3.79974">
        <ele>999.89</ele>
        <time>2025-04-15T14:33:18.749Z</time>
      </trkpt>
      <trkpt lat="44.81591" lon="3.79956">
        <ele>999.32</ele>
        <time>2025-04-15T14:33:21.373Z</time>
      </trkpt>
      <trkpt lat="44.81618" lon="3.79938">
        <ele>998.83</ele>
        <time>2025-04-15T14:33:24.001Z</time>
      </trkpt>
      <trkpt lat="44.81644" lon="3.7992">
        <ele>998.43</ele>
        <time>2025-04-15T14:33:26.634Z</time>
      </trkpt>
      <trkpt lat="44.81671" lon="3.79902">
        <ele>998.11</ele>
        <time>2025-04-15T14:33:29.272Z</time>
      </trkpt>
      <trkpt lat="44.817" lon="3.79887">
        <ele>997.72</ele>
        <time>2025-04-15T14:33:31.915Z</time>
      </trkpt>
      <trkpt lat="44.81729" lon="3.79872">
        <ele>997.32</ele>
        <time>2025-04-15T14:33:34.563Z</time>
      </trkpt>
      <trkpt lat="44.81757" lon="3.79867">
        <ele>997.05</ele>
        <time>2025-04-15T14:33:37.215Z</time>
      </trkpt>
      <trkpt lat="44.81782" lon="3.79866">
        <ele>996.88</ele>
        <time>2025-04-15T14:33:39.871Z</time>
      </trkpt>
      <trkpt lat="44.81808" lon="3.79865">
        <ele>996.73</ele>
        <time>2025-04-15T14:33:42.531Z</time>
      </trkpt>
      <trkpt lat="44.81836" lon="3.79873">
        <ele>996.65</ele>
        <time>2025-04-15T14:33:45.196Z</time>
      </trkpt>
      <trkpt lat="44.81864" lon="3.7988">
        <ele>996.63</ele>
        <time>2025-04-15T14:33:47.866Z</time>
      </trkpt>
      <trkpt lat="44.81864" lon="3.7988">
        <ele>996.78</ele>
        <time>2025-04-15T14:33:50.536Z</time>
      </trkpt>
      <trkpt lat="44.81894" lon="3.79887">
        <ele>997.03</ele>
        <time>2025-04-15T14:33:53.210Z</time>
      </trkpt>
      <trkpt lat="44.81919" lon="3.7988">
        <ele>997.44</ele>
        <time>2025-04-15T14:33:55.888Z</time>
      </trkpt>
      <trkpt lat="44.81943" lon="3.79874">
        <ele>997.99</ele>
        <time>2025-04-15T14:33:58.570Z</time>
      </trkpt>
      <trkpt lat="44.81972" lon="3.79873">
        <ele>998.61</ele>
        <time>2025-04-15T14:34:01.257Z</time>
      </trkpt>
      <trkpt lat="44.82001" lon="3.79872">
        <ele>999.25</ele>
        <time>2025-04-15T14:34:03.949Z</time>
      </trkpt>
      <trkpt lat="44.82029" lon="3.79872">
        <ele>999.86</ele>
        <time>2025-04-15T14:34:06.645Z</time>
      </trkpt>
      <trkpt lat="44.82053" lon="3.79867">
        <ele>1000.45</ele>
        <time>2025-04-15T14:34:09.345Z</time>
      </trkpt>
      <trkpt lat="44.82076" lon="3.79863">
        <ele>1001.17</ele>
        <time>2025-04-15T14:34:12.049Z</time>
      </trkpt>
      <trkpt lat="44.821" lon="3.79851">
        <ele>1002.02</ele>
        <time>2025-04-15T14:34:14.757Z</time>
      </trkpt>
      <trkpt lat="44.82124" lon="3.79839">
        <ele>1003</ele>
        <time>2025-04-15T14:34:17.469Z</time>
      </trkpt>
      <trkpt lat="44.82152" lon="3.79831">
        <ele>1003.99</ele>
        <time>2025-04-15T14:34:20.185Z</time>
      </trkpt>
      <trkpt lat="44.82182" lon="3.79826">
        <ele>1004.88</ele>
        <time>2025-04-15T14:34:22.906Z</time>
      </trkpt>
      <trkpt lat="44.82212" lon="3.7982">
        <ele>1005.77</ele>
        <time>2025-04-15T14:34:25.632Z</time>
      </trkpt>
      <trkpt lat="44.82229" lon="3.79829">
        <ele>1006.6</ele>
        <time>2025-04-15T14:34:28.361Z</time>
      </trkpt>
      <trkpt lat="44.8225" lon="3.79854">
        <ele>1007.49</ele>
        <time>2025-04-15T14:34:31.094Z</time>
      </trkpt>
      <trkpt lat="44.82271" lon="3.7988">
        <ele>1008.39</ele>
        <time>2025-04-15T14:34:33.832Z</time>
      </trkpt>
      <trkpt lat="44.82292" lon="3.79906">
        <ele>1009.28</ele>
        <time>2025-04-15T14:34:36.574Z</time>
      </trkpt>
      <trkpt lat="44.82312" lon="3.79932">
        <ele>1010.09</ele>
        <time>2025-04-15T14:34:39.321Z</time>
      </trkpt>
      <trkpt lat="44.82335" lon="3.79962">
        <ele>1010.77</ele>
        <time>2025-04-15T14:34:42.073Z</time>
      </trkpt>
      <trkpt lat="44.82357" lon="3.79993">
        <ele>1011.4</ele>
        <time>2025-04-15T14:34:44.830Z</time>
      </trkpt>
      <trkpt lat="44.82379" lon="3.80024">
        <ele>1012</ele>
        <time>2025-04-15T14:34:47.592Z</time>
      </trkpt>
      <trkpt lat="44.82401" lon="3.80054">
        <ele>1012.64</ele>
        <time>2025-04-15T14:34:50.359Z</time>
      </trkpt>
      <trkpt lat="44.82423" lon="3.80085">
        <ele>1013.26</ele>
        <time>2025-04-15T14:34:53.131Z</time>
      </trkpt>
      <trkpt lat="44.82445" lon="3.80116">
        <ele>1013.86</ele>
        <time>2025-04-15T14:34:55.908Z</time>
      </trkpt>
      <trkpt lat="44.82467" lon="3.80146">
        <ele>1014.31</ele>
        <time>2025-04-15T14:34:58.690Z</time>
      </trkpt>
      <trkpt lat="44.8248" lon="3.80157">
        <ele>1014.59</ele>
        <time>2025-04-15T14:35:01.474Z</time>
      </trkpt>
      <trkpt lat="44.82503" lon="3.80168">
        <ele>1014.77</ele>
        <time>2025-04-15T14:35:04.262Z</time>
      </trkpt>
      <trkpt lat="44.82527" lon="3.80168">
        <ele>1014.77</ele>
        <time>2025-04-15T14:35:07.054Z</time>
      </trkpt>
      <trkpt lat="44.82546" lon="3.80157">
        <ele>1014.58</ele>
        <time>2025-04-15T14:35:09.849Z</time>
      </trkpt>
      <trkpt lat="44.82564" lon="3.80123">
        <ele>1014.15</ele>
        <time>2025-04-15T14:35:12.649Z</time>
      </trkpt>
      <trkpt lat="44.82568" lon="3.80099">
        <ele>1013.8</ele>
        <time>2025-04-15T14:35:15.452Z</time>
      </trkpt>
      <trkpt lat="44.82572" lon="3.80076">
        <ele>1013.37</ele>
        <time>2025-04-15T14:35:18.257Z</time>
      </trkpt>
      <trkpt lat="44.82575" lon="3.80043">
        <ele>1012.9</ele>
        <time>2025-04-15T14:35:21.066Z</time>
      </trkpt>
      <trkpt lat="44.82579" lon="3.80011">
        <ele>1012.36</ele>
        <time>2025-04-15T14:35:23.879Z</time>
      </trkpt>
      <trkpt lat="44.82585" lon="3.79992">
        <ele>1011.83</ele>
        <time>2025-04-15T14:35:26.694Z</time>
      </trkpt>
      <trkpt lat="44.82598" lon="3.79981">
        <ele>1011.3</ele>
        <time>2025-04-15T14:35:29.512Z</time>
      </trkpt>
      <trkpt lat="44.82629" lon="3.79986">
        <ele>1011.08</ele>
        <time>2025-04-15T14:35:32.335Z</time>
      </trkpt>
      <trkpt lat="44.8266" lon="3.79992">
        <ele>1010.76</ele>
        <time>2025-04-15T14:35:35.163Z</time>
      </trkpt>
      <trkpt lat="44.82676" lon="3.79992">
        <ele>1010.32</ele>
        <time>2025-04-15T14:35:37.993Z</time>
      </trkpt>
      <trkpt lat="44.82692" lon="3.79992">
        <ele>1009.9</ele>
        <time>2025-04-15T14:35:40.826Z</time>
      </trkpt>
      <trkpt lat="44.82711" lon="3.79999">
        <ele>1009.58</ele>
        <time>2025-04-15T14:35:43.662Z</time>
      </trkpt>
      <trkpt lat="44.82729" lon="3.80007">
        <ele>1009.21</ele>
        <time>2025-04-15T14:35:46.501Z</time>
      </trkpt>
      <trkpt lat="44.82742" lon="3.80003">
        <ele>1008.75</ele>
        <time>2025-04-15T14:35:49.342Z</time>
      </trkpt>
      <trkpt lat="44.82748" lon="3.7999">
        <ele>1008.33</ele>
        <time>2025-04-15T14:35:52.185Z</time>
      </trkpt>
      <trkpt lat="44.82752" lon="3.79968">
        <ele>1008.05</ele>
        <time>2025-04-15T14:35:55.030Z</time>
      </trkpt>
      <trkpt lat="44.82748" lon="3.7994">
        <ele>1007.85</ele>
        <time>2025-04-15T14:35:57.879Z</time>
      </trkpt>
      <trkpt lat="44.82739" lon="3.79919">
        <ele>1007.7</ele>
        <time>2025-04-15T14:36:00.730Z</time>
      </trkpt>
      <trkpt lat="44.82721" lon="3.79886">
        <ele>1007.65</ele>
        <time>2025-04-15T14:36:03.586Z</time>
      </trkpt>
      <trkpt lat="44.82703" lon="3.79852">
        <ele>1007.65</ele>
        <time>2025-04-15T14:36:06.447Z</time>
      </trkpt>
      <trkpt lat="44.82697" lon="3.79835">
        <ele>1007.73</ele>
        <time>2025-04-15T14:36:09.310Z</time>
      </trkpt>
      <trkpt lat="44.82697" lon="3.79822">
        <ele>1007.94</ele>
        <time>2025-04-15T14:36:12.175Z</time>
      </trkpt>
      <trkpt lat="44.82703" lon="3.79805">
        <ele>1008.29</ele>
        <time>2025-04-15T14:36:15.042Z</time>
      </trkpt>
      <trkpt lat="44.82712" lon="3.79803">
        <ele>1008.71</ele>
        <time>2025-04-15T14:36:17.910Z</time>
      </trkpt>
      <trkpt lat="44.82727" lon="3.79812">
        <ele>1009.28</ele>
        <time>2025-04-15T14:36:20.781Z</time>
      </trkpt>
      <trkpt lat="44.8272" lon="3.7982">
        <ele>1009.73</ele>
        <time>2025-04-15T14:36:23.653Z</time>
      </trkpt>
      <trkpt lat="44.82718" lon="3.79837">
        <ele>1010.29</ele>
        <time>2025-04-15T14:36:26.527Z</time>
      </trkpt>
      <trkpt lat="44.82724" lon="3.79859">
        <ele>1010.95</ele>
        <time>2025-04-15T14:36:29.404Z</time>
      </trkpt>
      <trkpt lat="44.82744" lon="3.79887">
        <ele>1011.77</ele>
        <time>2025-04-15T14:36:32.285Z</time>
      </trkpt>
      <trkpt lat="44.82763" lon="3.79916">
        <ele>1012.7</ele>
        <time>2025-04-15T14:36:35.171Z</time>
      </trkpt>
      <trkpt lat="44.82782" lon="3.79945">
        <ele>1013.75</ele>
        <time>2025-04-15T14:36:38.061Z</time>
      </trkpt>
      <trkpt lat="44.82797" lon="3.79955">
        <ele>1014.86</ele>
        <time>2025-04-15T14:36:40.954Z</time>
      </trkpt>
      <trkpt lat="44.82812" lon="3.79957">
        <ele>1016.07</ele>
        <time>2025-04-15T14:36:43.849Z</time>
      </trkpt>
      <trkpt lat="44.82832" lon="3.79955">
        <ele>1017.31</ele>
        <time>2025-04-15T14:36:46.748Z</time>
      </trkpt>
      <trkpt lat="44.82851" lon="3.79953">
        <ele>1018.61</ele>
        <time>2025-04-15T14:36:49.650Z</time>
      </trkpt>
      <trkpt lat="44.82851" lon="3.79953">
        <ele>1019.83</ele>
        <time>2025-04-15T14:36:52.552Z</time>
      </trkpt>
      <trkpt lat="44.82875" lon="3.79947">
        <ele>1021.23</ele>
        <time>2025-04-15T14:36:55.458Z</time>
      </trkpt>
      <trkpt lat="44.82891" lon="3.79949">
        <ele>1022.55</ele>
        <time>2025-04-15T14:36:58.366Z</time>
      </trkpt>
      <trkpt lat="44.82907" lon="3.79951">
        <ele>1023.93</ele>
        <time>2025-04-15T14:37:01.277Z</time>
      </trkpt>
      <trkpt lat="44.82928" lon="3.79974">
        <ele>1025.35</ele>
        <time>2025-04-15T14:37:04.192Z</time>
      </trkpt>
      <trkpt lat="44.82949" lon="3.79997">
        <ele>1026.71</ele>
        <time>2025-04-15T14:37:07.111Z</time>
      </trkpt>
      <trkpt lat="44.8297" lon="3.8002">
        <ele>1028.08</ele>
        <time>2025-04-15T14:37:10.034Z</time>
      </trkpt>
      <trkpt lat="44.82991" lon="3.80043">
        <ele>1029.52</ele>
        <time>2025-04-15T14:37:12.962Z</time>
      </trkpt>
      <trkpt lat="44.83012" lon="3.80071">
        <ele>1031.08</ele>
        <time>2025-04-15T14:37:15.894Z</time>
      </trkpt>
      <trkpt lat="44.83033" lon="3.80099">
        <ele>1032.63</ele>
        <time>2025-04-15T14:37:18.831Z</time>
      </trkpt>
      <trkpt lat="44.83045" lon="3.80122">
        <ele>1034.04</ele>
        <time>2025-04-15T14:37:21.771Z</time>
      </trkpt>
      <trkpt lat="44.83057" lon="3.80144">
        <ele>1035.41</ele>
        <time>2025-04-15T14:37:24.714Z</time>
      </trkpt>
      <trkpt lat="44.83082" lon="3.80157">
        <ele>1036.92</ele>
        <time>2025-04-15T14:37:27.662Z</time>
      </trkpt>
      <trkpt lat="44.83106" lon="3.8017">
        <ele>1038.45</ele>
        <time>2025-04-15T14:37:30.614Z</time>
      </trkpt>
      <trkpt lat="44.83128" lon="3.80187">
        <ele>1039.95</ele>
        <time>2025-04-15T14:37:33.570Z</time>
      </trkpt>
      <trkpt lat="44.83149" lon="3.80211">
        <ele>1041.38</ele>
        <time>2025-04-15T14:37:36.530Z</time>
      </trkpt>
      <trkpt lat="44.83171" lon="3.80236">
        <ele>1042.76</ele>
        <time>2025-04-15T14:37:39.495Z</time>
      </trkpt>
      <trkpt lat="44.83192" lon="3.8026">
        <ele>1044.19</ele>
        <time>2025-04-15T14:37:42.464Z</time>
      </trkpt>
      <trkpt lat="44.832" lon="3.80266">
        <ele>1045.56</ele>
        <time>2025-04-15T14:37:45.435Z</time>
      </trkpt>
      <trkpt lat="44.83218" lon="3.80279">
        <ele>1046.91</ele>
        <time>2025-04-15T14:37:48.409Z</time>
      </trkpt>
      <trkpt lat="44.83247" lon="3.80292">
        <ele>1048.33</ele>
        <time>2025-04-15T14:37:51.388Z</time>
      </trkpt>
      <trkpt lat="44.83276" lon="3.80305">
        <ele>1049.7</ele>
        <time>2025-04-15T14:37:54.371Z</time>
      </trkpt>
      <trkpt lat="44.83295" lon="3.80323">
        <ele>1050.91</ele>
        <time>2025-04-15T14:37:57.358Z</time>
      </trkpt>
      <trkpt lat="44.83315" lon="3.80342">
        <ele>1052.15</ele>
        <time>2025-04-15T14:38:00.349Z</time>
      </trkpt>
      <trkpt lat="44.83334" lon="3.80375">
        <ele>1053.26</ele>
        <time>2025-04-15T14:38:03.345Z</time>
      </trkpt>
      <trkpt lat="44.83353" lon="3.80408">
        <ele>1054.47</ele>
        <time>2025-04-15T14:38:06.346Z</time>
      </trkpt>
      <trkpt lat="44.83373" lon="3.80441">
        <ele>1055.73</ele>
        <time>2025-04-15T14:38:09.352Z</time>
      </trkpt>
      <trkpt lat="44.83392" lon="3.80474">
        <ele>1056.8</ele>
        <time>2025-04-15T14:38:12.362Z</time>
      </trkpt>
      <trkpt lat="44.83411" lon="3.80507">
        <ele>1057.91</ele>
        <time>2025-04-15T14:38:15.377Z</time>
      </trkpt>
      <trkpt lat="44.83431" lon="3.80541">
        <ele>1059.1</ele>
        <time>2025-04-15T14:38:18.397Z</time>
      </trkpt>
      <trkpt lat="44.8345" lon="3.80574">
        <ele>1060.33</ele>
        <time>2025-04-15T14:38:21.422Z</time>
      </trkpt>
      <trkpt lat="44.83469" lon="3.80607">
        <ele>1061.49</ele>
        <time>2025-04-15T14:38:24.452Z</time>
      </trkpt>
      <trkpt lat="44.83488" lon="3.8064">
        <ele>1062.61</ele>
        <time>2025-04-15T14:38:27.487Z</time>
      </trkpt>
      <trkpt lat="44.83503" lon="3.80669">
        <ele>1063.8</ele>
        <time>2025-04-15T14:38:30.526Z</time>
      </trkpt>
      <trkpt lat="44.83518" lon="3.80698">
        <ele>1065.01</ele>
        <time>2025-04-15T14:38:33.569Z</time>
      </trkpt>
      <trkpt lat="44.8353" lon="3.80717">
        <ele>1066.14</ele>
        <time>2025-04-15T14:38:36.615Z</time>
      </trkpt>
      <trkpt lat="44.83542" lon="3.80736">
        <ele>1067.19</ele>
        <time>2025-04-15T14:38:39.664Z</time>
      </trkpt>
      <trkpt lat="44.83561" lon="3.8076">
        <ele>1068.19</ele>
        <time>2025-04-15T14:38:42.717Z</time>
      </trkpt>
      <trkpt lat="44.83581" lon="3.80784">
        <ele>1069.13</ele>
        <time>2025-04-15T14:38:45.774Z</time>
      </trkpt>
      <trkpt lat="44.83589" lon="3.80808">
        <ele>1070.04</ele>
        <time>2025-04-15T14:38:48.834Z</time>
      </trkpt>
      <trkpt lat="44.83598" lon="3.80833">
        <ele>1071.03</ele>
        <time>2025-04-15T14:38:51.897Z</time>
      </trkpt>
      <trkpt lat="44.83602" lon="3.80867">
        <ele>1072.01</ele>
        <time>2025-04-15T14:38:54.964Z</time>
      </trkpt>
      <trkpt lat="44.83602" lon="3.80908">
        <ele>1073.03</ele>
        <time>2025-04-15T14:38:58.036Z</time>
      </trkpt>
      <trkpt lat="44.83601" lon="3.80949">
        <ele>1074.02</ele>
        <time>2025-04-15T14:39:01.112Z</time>
      </trkpt>
      <trkpt lat="44.836" lon="3.8099">
        <ele>1074.88</ele>
        <time>2025-04-15T14:39:04.193Z</time>
      </trkpt>
      <trkpt lat="44.836" lon="3.8103">
        <ele>1075.67</ele>
        <time>2025-04-15T14:39:07.279Z</time>
      </trkpt>
      <trkpt lat="44.83597" lon="3.81061">
        <ele>1076.4</ele>
        <time>2025-04-15T14:39:10.368Z</time>
      </trkpt>
      <trkpt lat="44.83594" lon="3.81092">
        <ele>1077.16</ele>
        <time>2025-04-15T14:39:13.461Z</time>
      </trkpt>
      <trkpt lat="44.83591" lon="3.81123">
        <ele>1077.83</ele>
        <time>2025-04-15T14:39:16.557Z</time>
      </trkpt>
      <trkpt lat="44.83596" lon="3.81151">
        <ele>1078.46</ele>
        <time>2025-04-15T14:39:19.657Z</time>
      </trkpt>
      <trkpt lat="44.83606" lon="3.81183">
        <ele>1079.13</ele>
        <time>2025-04-15T14:39:22.761Z</time>
      </trkpt>
      <trkpt lat="44.83618" lon="3.81209">
        <ele>1079.69</ele>
        <time>2025-04-15T14:39:25.868Z</time>
      </trkpt>
      <trkpt lat="44.8363" lon="3.81234">
        <ele>1080.1</ele>
        <time>2025-04-15T14:39:28.979Z</time>
      </trkpt>
      <trkpt lat="44.83639" lon="3.81264">
        <ele>1080.41</ele>
        <time>2025-04-15T14:39:32.093Z</time>
      </trkpt>
      <trkpt lat="44.83643" lon="3.81302">
        <ele>1080.64</ele>
        <time>2025-04-15T14:39:35.212Z</time>
      </trkpt>
      <trkpt lat="44.83647" lon="3.81339">
        <ele>1080.94</ele>
        <time>2025-04-15T14:39:38.335Z</time>
      </trkpt>
      <trkpt lat="44.83654" lon="3.81361">
        <ele>1081.28</ele>
        <time>2025-04-15T14:39:41.461Z</time>
      </trkpt>
      <trkpt lat="44.83654" lon="3.81361">
        <ele>1081.49</ele>
        <time>2025-04-15T14:39:44.587Z</time>
      </trkpt>
      <trkpt lat="44.83673" lon="3.81393">
        <ele>1081.76</ele>
        <time>2025-04-15T14:39:47.717Z</time>
      </trkpt>
      <trkpt lat="44.83692" lon="3.81425">
        <ele>1081.9</ele>
        <time>2025-04-15T14:39:50.852Z</time>
      </trkpt>
      <trkpt lat="44.83712" lon="3.81457">
        <ele>1082.12</ele>
        <time>2025-04-15T14:39:53.992Z</time>
      </trkpt>
      <trkpt lat="44.83731" lon="3.8149">
        <ele>1082.16</ele>
        <time>2025-04-15T14:39:57.137Z</time>
      </trkpt>
      <trkpt lat="44.8375" lon="3.81522">
        <ele>1082.19</ele>
        <time>2025-04-15T14:40:00.287Z</time>
      </trkpt>
      <trkpt lat="44.8377" lon="3.81554">
        <ele>1082.25</ele>
        <time>2025-04-15T14:40:03.441Z</time>
      </trkpt>
      <trkpt lat="44.83789" lon="3.81586">
        <ele>1082.27</ele>
        <time>2025-04-15T14:40:06.600Z</time>
      </trkpt>
      <trkpt lat="44.83808" lon="3.81619">
        <ele>1082.16</ele>
        <time>2025-04-15T14:40:09.764Z</time>
      </trkpt>
      <trkpt lat="44.83828" lon="3.81651">
        <ele>1082.11</ele>
        <time>2025-04-15T14:40:12.933Z</time>
      </trkpt>
      <trkpt lat="44.83847" lon="3.81683">
        <ele>1082.06</ele>
        <time>2025-04-15T14:40:16.107Z</time>
      </trkpt>
      <trkpt lat="44.83866" lon="3.81715">
        <ele>1082.07</ele>
        <time>2025-04-15T14:40:19.285Z</time>
      </trkpt>
      <trkpt lat="44.83886" lon="3.81747">
        <ele>1082.08</ele>
        <time>2025-04-15T14:40:22.468Z</time>
      </trkpt>
      <trkpt lat="44.83905" lon="3.81779">
        <ele>1082.04</ele>
        <time>2025-04-15T14:40:25.656Z</time>
      </trkpt>
      <trkpt lat="44.8392" lon="3.81806">
        <ele>1081.99</ele>
        <time>2025-04-15T14:40:28.848Z</time>
      </trkpt>
      <trkpt lat="44.83936" lon="3.81832">
        <ele>1081.96</ele>
        <time>2025-04-15T14:40:32.044Z</time>
      </trkpt>
      <trkpt lat="44.83951" lon="3.81858">
        <ele>1081.92</ele>
        <time>2025-04-15T14:40:35.244Z</time>
      </trkpt>
      <trkpt lat="44.83967" lon="3.81884">
        <ele>1081.92</ele>
        <time>2025-04-15T14:40:38.447Z</time>
      </trkpt>
      <trkpt lat="44.83986" lon="3.81916">
        <ele>1081.98</ele>
        <time>2025-04-15T14:40:41.655Z</time>
      </trkpt>
      <trkpt lat="44.84004" lon="3.81947">
        <ele>1082.09</ele>
        <time>2025-04-15T14:40:44.868Z</time>
      </trkpt>
      <trkpt lat="44.84023" lon="3.81979">
        <ele>1082.15</ele>
        <time>2025-04-15T14:40:48.086Z</time>
      </trkpt>
      <trkpt lat="44.84042" lon="3.8201">
        <ele>1082.25</ele>
        <time>2025-04-15T14:40:51.308Z</time>
      </trkpt>
      <trkpt lat="44.84061" lon="3.82042">
        <ele>1082.27</ele>
        <time>2025-04-15T14:40:54.535Z</time>
      </trkpt>
      <trkpt lat="44.8408" lon="3.82073">
        <ele>1082.36</ele>
        <time>2025-04-15T14:40:57.767Z</time>
      </trkpt>
      <trkpt lat="44.84098" lon="3.82105">
        <ele>1082.44</ele>
        <time>2025-04-15T14:41:01.003Z</time>
      </trkpt>
      <trkpt lat="44.84117" lon="3.82136">
        <ele>1082.56</ele>
        <time>2025-04-15T14:41:04.244Z</time>
      </trkpt>
      <trkpt lat="44.84136" lon="3.82168">
        <ele>1082.75</ele>
        <time>2025-04-15T14:41:07.490Z</time>
      </trkpt>
      <trkpt lat="44.84155" lon="3.82199">
        <ele>1082.92</ele>
        <time>2025-04-15T14:41:10.740Z</time>
      </trkpt>
      <trkpt lat="44.84174" lon="3.82231">
        <ele>1083.1</ele>
        <time>2025-04-15T14:41:13.995Z</time>
      </trkpt>
      <trkpt lat="44.84192" lon="3.82262">
        <ele>1083.33</ele>
        <time>2025-04-15T14:41:17.255Z</time>
      </trkpt>
      <trkpt lat="44.84201" lon="3.82282">
        <ele>1083.54</ele>
        <time>2025-04-15T14:41:20.517Z</time>
      </trkpt>
      <trkpt lat="44.84209" lon="3.82303">
        <ele>1083.78</ele>
        <time>2025-04-15T14:41:23.782Z</time>
      </trkpt>
      <trkpt lat="44.84215" lon="3.82331">
        <ele>1084.03</ele>
        <time>2025-04-15T14:41:27.050Z</time>
      </trkpt>
      <trkpt lat="44.8422" lon="3.82359">
        <ele>1084.29</ele>
        <time>2025-04-15T14:41:30.322Z</time>
      </trkpt>
      <trkpt lat="44.84222" lon="3.824">
        <ele>1084.58</ele>
        <time>2025-04-15T14:41:33.598Z</time>
      </trkpt>
      <trkpt lat="44.84224" lon="3.82441">
        <ele>1084.83</ele>
        <time>2025-04-15T14:41:36.879Z</time>
      </trkpt>
      <trkpt lat="44.84226" lon="3.82482">
        <ele>1085.15</ele>
        <time>2025-04-15T14:41:40.165Z</time>
      </trkpt>
      <trkpt lat="44.84228" lon="3.82523">
        <ele>1085.55</ele>
        <time>2025-04-15T14:41:43.455Z</time>
      </trkpt>
      <trkpt lat="44.84229" lon="3.82564">
        <ele>1086</ele>
        <time>2025-04-15T14:41:46.750Z</time>
      </trkpt>
      <trkpt lat="44.84231" lon="3.82605">
        <ele>1086.47</ele>
        <time>2025-04-15T14:41:50.050Z</time>
      </trkpt>
      <trkpt lat="44.84233" lon="3.82647">
        <ele>1086.98</ele>
        <time>2025-04-15T14:41:53.354Z</time>
      </trkpt>
      <trkpt lat="44.84235" lon="3.82687">
        <ele>1087.53</ele>
        <time>2025-04-15T14:41:56.663Z</time>
      </trkpt>
      <trkpt lat="44.84237" lon="3.82726">
        <ele>1088.16</ele>
        <time>2025-04-15T14:41:59.977Z</time>
      </trkpt>
      <trkpt lat="44.84238" lon="3.82766">
        <ele>1088.79</ele>
        <time>2025-04-15T14:42:03.295Z</time>
      </trkpt>
      <trkpt lat="44.84239" lon="3.82805">
        <ele>1089.52</ele>
        <time>2025-04-15T14:42:06.617Z</time>
      </trkpt>
      <trkpt lat="44.84246" lon="3.82848">
        <ele>1090.28</ele>
        <time>2025-04-15T14:42:09.944Z</time>
      </trkpt>
      <trkpt lat="44.84259" lon="3.82884">
        <ele>1090.96</ele>
        <time>2025-04-15T14:42:13.276Z</time>
      </trkpt>
      <trkpt lat="44.84259" lon="3.82884">
        <ele>1091.65</ele>
        <time>2025-04-15T14:42:16.608Z</time>
      </trkpt>
      <trkpt lat="44.84265" lon="3.82899">
        <ele>1092.35</ele>
        <time>2025-04-15T14:42:19.942Z</time>
      </trkpt>
      <trkpt lat="44.8428" lon="3.82932">
        <ele>1093.12</ele>
        <time>2025-04-15T14:42:23.280Z</time>
      </trkpt>
      <trkpt lat="44.8429" lon="3.82957">
        <ele>1093.94</ele>
        <time>2025-04-15T14:42:26.622Z</time>
      </trkpt>
      <trkpt lat="44.84299" lon="3.82983">
        <ele>1094.82</ele>
        <time>2025-04-15T14:42:29.967Z</time>
      </trkpt>
      <trkpt lat="44.84306" lon="3.82996">
        <ele>1095.59</ele>
        <time>2025-04-15T14:42:33.314Z</time>
      </trkpt>
      <trkpt lat="44.84314" lon="3.83019">
        <ele>1096.41</ele>
        <time>2025-04-15T14:42:36.664Z</time>
      </trkpt>
      <trkpt lat="44.84315" lon="3.83019">
        <ele>1097.17</ele>
        <time>2025-04-15T14:42:40.014Z</time>
      </trkpt>
      <trkpt lat="44.84319" lon="3.8303">
        <ele>1097.96</ele>
        <time>2025-04-15T14:42:43.365Z</time>
      </trkpt>
      <trkpt lat="44.84325" lon="3.83047">
        <ele>1098.74</ele>
        <time>2025-04-15T14:42:46.719Z</time>
      </trkpt>
      <trkpt lat="44.8433" lon="3.83069">
        <ele>1099.55</ele>
        <time>2025-04-15T14:42:50.075Z</time>
      </trkpt>
      <trkpt lat="44.8433" lon="3.83077">
        <ele>1100.33</ele>
        <time>2025-04-15T14:42:53.432Z</time>
      </trkpt>
      <trkpt lat="44.84335" lon="3.83119">
        <ele>1101.15</ele>
        <time>2025-04-15T14:42:56.794Z</time>
      </trkpt>
      <trkpt lat="44.8434" lon="3.83161">
        <ele>1102</ele>
        <time>2025-04-15T14:43:00.161Z</time>
      </trkpt>
      <trkpt lat="44.8434" lon="3.83165">
        <ele>1102.73</ele>
        <time>2025-04-15T14:43:03.528Z</time>
      </trkpt>
      <trkpt lat="44.84344" lon="3.83201">
        <ele>1103.51</ele>
        <time>2025-04-15T14:43:06.899Z</time>
      </trkpt>
      <trkpt lat="44.84348" lon="3.83237">
        <ele>1104.19</ele>
        <time>2025-04-15T14:43:10.274Z</time>
      </trkpt>
      <trkpt lat="44.84352" lon="3.83273">
        <ele>1104.94</ele>
        <time>2025-04-15T14:43:13.654Z</time>
      </trkpt>
      <trkpt lat="44.84356" lon="3.83308">
        <ele>1105.63</ele>
        <time>2025-04-15T14:43:17.038Z</time>
      </trkpt>
      <trkpt lat="44.8436" lon="3.83344">
        <ele>1106.28</ele>
        <time>2025-04-15T14:43:20.426Z</time>
      </trkpt>
      <trkpt lat="44.8436" lon="3.83344">
        <ele>1106.91</ele>
        <time>2025-04-15T14:43:23.814Z</time>
      </trkpt>
      <trkpt lat="44.84366" lon="3.8338">
        <ele>1107.56</ele>
        <time>2025-04-15T14:43:27.206Z</time>
      </trkpt>
      <trkpt lat="44.84375" lon="3.83401">
        <ele>1108.19</ele>
        <time>2025-04-15T14:43:30.601Z</time>
      </trkpt>
      <trkpt lat="44.84383" lon="3.83423">
        <ele>1108.91</ele>
        <time>2025-04-15T14:43:33.999Z</time>
      </trkpt>
      <trkpt lat="44.84398" lon="3.83437">
        <ele>1109.52</ele>
        <time>2025-04-15T14:43:37.400Z</time>
      </trkpt>
      <trkpt lat="44.84413" lon="3.83451">
        <ele>1110.2</ele>
        <time>2025-04-15T14:43:40.803Z</time>
      </trkpt>
      <trkpt lat="44.84436" lon="3.83467">
        <ele>1110.92</ele>
        <time>2025-04-15T14:43:44.210Z</time>
      </trkpt>
      <trkpt lat="44.84459" lon="3.83484">
        <ele>1111.66</ele>
        <time>2025-04-15T14:43:47.622Z</time>
      </trkpt>
      <trkpt lat="44.84482" lon="3.835">
        <ele>1112.42</ele>
        <time>2025-04-15T14:43:51.038Z</time>
      </trkpt>
      <trkpt lat="44.84486" lon="3.83502">
        <ele>1113.15</ele>
        <time>2025-04-15T14:43:54.454Z</time>
      </trkpt>
      <trkpt lat="44.84514" lon="3.83522">
        <ele>1114.01</ele>
        <time>2025-04-15T14:43:57.875Z</time>
      </trkpt>
      <trkpt lat="44.84542" lon="3.83541">
        <ele>1114.83</ele>
        <time>2025-04-15T14:44:01.301Z</time>
      </trkpt>
      <trkpt lat="44.84568" lon="3.83559">
        <ele>1115.65</ele>
        <time>2025-04-15T14:44:04.732Z</time>
      </trkpt>
      <trkpt lat="44.84594" lon="3.83577">
        <ele>1116.58</ele>
        <time>2025-04-15T14:44:08.168Z</time>
      </trkpt>
      <trkpt lat="44.84621" lon="3.83595">
        <ele>1117.45</ele>
        <time>2025-04-15T14:44:11.608Z</time>
      </trkpt>
      <trkpt lat="44.84647" lon="3.83613">
        <ele>1118.38</ele>
        <time>2025-04-15T14:44:15.053Z</time>
      </trkpt>
      <trkpt lat="44.84673" lon="3.83631">
        <ele>1119.38</ele>
        <time>2025-04-15T14:44:18.503Z</time>
      </trkpt>
      <trkpt lat="44.847" lon="3.83649">
        <ele>1120.22</ele>
        <time>2025-04-15T14:44:21.957Z</time>
      </trkpt>
      <trkpt lat="44.84726" lon="3.83667">
        <ele>1121.03</ele>
        <time>2025-04-15T14:44:25.416Z</time>
      </trkpt>
      <trkpt lat="44.84752" lon="3.83685">
        <ele>1122.01</ele>
        <time>2025-04-15T14:44:28.880Z</time>
      </trkpt>
      <trkpt lat="44.84778" lon="3.83703">
        <ele>1123.12</ele>
        <time>2025-04-15T14:44:32.349Z</time>
      </trkpt>
      <trkpt lat="44.84805" lon="3.83721">
        <ele>1124.19</ele>
        <time>2025-04-15T14:44:35.822Z</time>
      </trkpt>
      <trkpt lat="44.84831" lon="3.8374">
        <ele>1125.25</ele>
        <time>2025-04-15T14:44:39.300Z</time>
      </trkpt>
      <trkpt lat="44.84857" lon="3.83758">
        <ele>1126.41</ele>
        <time>2025-04-15T14:44:42.783Z</time>
      </trkpt>
      <trkpt lat="44.84883" lon="3.83776">
        <ele>1127.59</ele>
        <time>2025-04-15T14:44:46.270Z</time>
      </trkpt>
      <trkpt lat="44.84909" lon="3.83793">
        <ele>1128.75</ele>
        <time>2025-04-15T14:44:49.762Z</time>
      </trkpt>
      <trkpt lat="44.84935" lon="3.83811">
        <ele>1129.85</ele>
        <time>2025-04-15T14:44:53.258Z</time>
      </trkpt>
      <trkpt lat="44.8496" lon="3.83829">
        <ele>1130.93</ele>
        <time>2025-04-15T14:44:56.759Z</time>
      </trkpt>
      <trkpt lat="44.84986" lon="3.83847">
        <ele>1131.97</ele>
        <time>2025-04-15T14:45:00.265Z</time>
      </trkpt>
      <trkpt lat="44.85012" lon="3.83865">
        <ele>1133.05</ele>
        <time>2025-04-15T14:45:03.775Z</time>
      </trkpt>
      <trkpt lat="44.85014" lon="3.83869">
        <ele>1134.07</ele>
        <time>2025-04-15T14:45:07.286Z</time>
      </trkpt>
      <trkpt lat="44.85042" lon="3.83888">
        <ele>1135.19</ele>
        <time>2025-04-15T14:45:10.802Z</time>
      </trkpt>
      <trkpt lat="44.8507" lon="3.83908">
        <ele>1136.32</ele>
        <time>2025-04-15T14:45:14.323Z</time>
      </trkpt>
      <trkpt lat="44.85098" lon="3.83927">
        <ele>1137.33</ele>
        <time>2025-04-15T14:45:17.849Z</time>
      </trkpt>
      <trkpt lat="44.85126" lon="3.83946">
        <ele>1138.28</ele>
        <time>2025-04-15T14:45:21.380Z</time>
      </trkpt>
      <trkpt lat="44.85153" lon="3.83965">
        <ele>1139.13</ele>
        <time>2025-04-15T14:45:24.916Z</time>
      </trkpt>
      <trkpt lat="44.85181" lon="3.83985">
        <ele>1140</ele>
        <time>2025-04-15T14:45:28.457Z</time>
      </trkpt>
      <trkpt lat="44.85209" lon="3.84004">
        <ele>1140.86</ele>
        <time>2025-04-15T14:45:32.003Z</time>
      </trkpt>
      <trkpt lat="44.85237" lon="3.84023">
        <ele>1141.7</ele>
        <time>2025-04-15T14:45:35.554Z</time>
      </trkpt>
      <trkpt lat="44.85265" lon="3.84042">
        <ele>1142.55</ele>
        <time>2025-04-15T14:45:39.109Z</time>
      </trkpt>
      <trkpt lat="44.85293" lon="3.84061">
        <ele>1143.4</ele>
        <time>2025-04-15T14:45:42.669Z</time>
      </trkpt>
      <trkpt lat="44.85321" lon="3.84081">
        <ele>1144.22</ele>
        <time>2025-04-15T14:45:46.234Z</time>
      </trkpt>
      <trkpt lat="44.85349" lon="3.841">
        <ele>1145.05</ele>
        <time>2025-04-15T14:45:49.804Z</time>
      </trkpt>
      <trkpt lat="44.85377" lon="3.84119">
        <ele>1145.83</ele>
        <time>2025-04-15T14:45:53.379Z</time>
      </trkpt>
      <trkpt lat="44.85404" lon="3.84138">
        <ele>1146.58</ele>
        <time>2025-04-15T14:45:56.959Z</time>
      </trkpt>
      <trkpt lat="44.85432" lon="3.84158">
        <ele>1147.35</ele>
        <time>2025-04-15T14:46:00.544Z</time>
      </trkpt>
      <trkpt lat="44.8546" lon="3.84177">
        <ele>1148.08</ele>
        <time>2025-04-15T14:46:04.134Z</time>
      </trkpt>
      <trkpt lat="44.85488" lon="3.84196">
        <ele>1148.7</ele>
        <time>2025-04-15T14:46:07.729Z</time>
      </trkpt>
      <trkpt lat="44.85516" lon="3.84215">
        <ele>1149.21</ele>
        <time>2025-04-15T14:46:11.329Z</time>
      </trkpt>
      <trkpt lat="44.85544" lon="3.84234">
        <ele>1149.6</ele>
        <time>2025-04-15T14:46:14.934Z</time>
      </trkpt>
      <trkpt lat="44.85572" lon="3.84254">
        <ele>1149.89</ele>
        <time>2025-04-15T14:46:18.544Z</time>
      </trkpt>
      <trkpt lat="44.856" lon="3.84273">
        <ele>1150.08</ele>
        <time>2025-04-15T14:46:22.159Z</time>
      </trkpt>
      <trkpt lat="44.85628" lon="3.84292">
        <ele>1150.29</ele>
        <time>2025-04-15T14:46:25.779Z</time>
      </trkpt>
      <trkpt lat="44.85655" lon="3.84311">
        <ele>1150.54</ele>
        <time>2025-04-15T14:46:29.404Z</time>
      </trkpt>
      <trkpt lat="44.85683" lon="3.84331">
        <ele>1150.68</ele>
        <time>2025-04-15T14:46:33.034Z</time>
      </trkpt>
      <trkpt lat="44.85711" lon="3.8435">
        <ele>1150.71</ele>
        <time>2025-04-15T14:46:36.669Z</time>
      </trkpt>
      <trkpt lat="44.85739" lon="3.84369">
        <ele>1150.69</ele>
        <time>2025-04-15T14:46:40.309Z</time>
      </trkpt>
      <trkpt lat="44.85744" lon="3.84371">
        <ele>1150.6</ele>
        <time>2025-04-15T14:46:43.950Z</time>
      </trkpt>
      <trkpt lat="44.85752" lon="3.84378">
        <ele>1150.45</ele>
        <time>2025-04-15T14:46:47.592Z</time>
      </trkpt>
      <trkpt lat="44.85756" lon="3.8438">
        <ele>1150.24</ele>
        <time>2025-04-15T14:46:51.235Z</time>
      </trkpt>
      <trkpt lat="44.85784" lon="3.84399">
        <ele>1150.02</ele>
        <time>2025-04-15T14:46:54.883Z</time>
      </trkpt>
      <trkpt lat="44.85811" lon="3.84418">
        <ele>1149.76</ele>
        <time>2025-04-15T14:46:58.536Z</time>
      </trkpt>
      <trkpt lat="44.85839" lon="3.84437">
        <ele>1149.31</ele>
        <time>2025-04-15T14:47:02.194Z</time>
      </trkpt>
      <trkpt lat="44.85866" lon="3.84456">
        <ele>1148.84</ele>
        <time>2025-04-15T14:47:05.857Z</time>
      </trkpt>
      <trkpt lat="44.85894" lon="3.84474">
        <ele>1148.33</ele>
        <time>2025-04-15T14:47:09.525Z</time>
      </trkpt>
      <trkpt lat="44.85921" lon="3.84493">
        <ele>1147.74</ele>
        <time>2025-04-15T14:47:13.197Z</time>
      </trkpt>
      <trkpt lat="44.85949" lon="3.84512">
        <ele>1147.13</ele>
        <time>2025-04-15T14:47:16.874Z</time>
      </trkpt>
      <trkpt lat="44.85976" lon="3.84531">
        <ele>1146.51</ele>
        <time>2025-04-15T14:47:20.556Z</time>
      </trkpt>
      <trkpt lat="44.86004" lon="3.8455">
        <ele>1145.78</ele>
        <time>2025-04-15T14:47:24.243Z</time>
      </trkpt>
      <trkpt lat="44.86031" lon="3.84569">
        <ele>1144.92</ele>
        <time>2025-04-15T14:47:27.935Z</time>
      </trkpt>
      <trkpt lat="44.86059" lon="3.84588">
        <ele>1144.07</ele>
        <time>2025-04-15T14:47:31.632Z</time>
      </trkpt>
      <trkpt lat="44.86086" lon="3.84607">
        <ele>1143.24</ele>
        <time>2025-04-15T14:47:35.334Z</time>
      </trkpt>
      <trkpt lat="44.86114" lon="3.84626">
        <ele>1142.39</ele>
        <time>2025-04-15T14:47:39.041Z</time>
      </trkpt>
      <trkpt lat="44.86141" lon="3.84644">
        <ele>1141.48</ele>
        <time>2025-04-15T14:47:42.753Z</time>
      </trkpt>
      <trkpt lat="44.86169" lon="3.84663">
        <ele>1140.55</ele>
        <time>2025-04-15T14:47:46.469Z</time>
      </trkpt>
      <trkpt lat="44.86196" lon="3.84682">
        <ele>1139.6</ele>
        <time>2025-04-15T14:47:50.190Z</time>
      </trkpt>
      <trkpt lat="44.86224" lon="3.84701">
        <ele>1138.68</ele>
        <time>2025-04-15T14:47:53.916Z</time>
      </trkpt>
      <trkpt lat="44.86251" lon="3.8472">
        <ele>1137.78</ele>
        <time>2025-04-15T14:47:57.647Z</time>
      </trkpt>
      <trkpt lat="44.86279" lon="3.84739">
        <ele>1136.86</ele>
        <time>2025-04-15T14:48:01.383Z</time>
      </trkpt>
      <trkpt lat="44.86306" lon="3.84758">
        <ele>1135.89</ele>
        <time>2025-04-15T14:48:05.124Z</time>
      </trkpt>
      <trkpt lat="44.86334" lon="3.84777">
        <ele>1134.86</ele>
        <time>2025-04-15T14:48:08.870Z</time>
      </trkpt>
      <trkpt lat="44.86335" lon="3.84779">
        <ele>1134.05</ele>
        <time>2025-04-15T14:48:12.616Z</time>
      </trkpt>
      <trkpt lat="44.86364" lon="3.84794">
        <ele>1133.18</ele>
        <time>2025-04-15T14:48:16.367Z</time>
      </trkpt>
      <trkpt lat="44.86394" lon="3.84808">
        <ele>1132.43</ele>
        <time>2025-04-15T14:48:20.123Z</time>
      </trkpt>
      <trkpt lat="44.86424" lon="3.84823">
        <ele>1131.87</ele>
        <time>2025-04-15T14:48:23.884Z</time>
      </trkpt>
      <trkpt lat="44.86436" lon="3.84829">
        <ele>1131.27</ele>
        <time>2025-04-15T14:48:27.647Z</time>
      </trkpt>
      <trkpt lat="44.86436" lon="3.84867">
        <ele>1130.7</ele>
        <time>2025-04-15T14:48:31.415Z</time>
      </trkpt>
      <trkpt lat="44.86441" lon="3.84878">
        <ele>1130.22</ele>
        <time>2025-04-15T14:48:35.184Z</time>
      </trkpt>
      <trkpt lat="44.86454" lon="3.84911">
        <ele>1129.78</ele>
        <time>2025-04-15T14:48:38.957Z</time>
      </trkpt>
      <trkpt lat="44.86467" lon="3.84944">
        <ele>1129.51</ele>
        <time>2025-04-15T14:48:42.735Z</time>
      </trkpt>
      <trkpt lat="44.8648" lon="3.84977">
        <ele>1129.28</ele>
        <time>2025-04-15T14:48:46.517Z</time>
      </trkpt>
      <trkpt lat="44.86493" lon="3.8501">
        <ele>1129</ele>
        <time>2025-04-15T14:48:50.303Z</time>
      </trkpt>
      <trkpt lat="44.86505" lon="3.85043">
        <ele>1128.85</ele>
        <time>2025-04-15T14:48:54.094Z</time>
      </trkpt>
      <trkpt lat="44.86524" lon="3.85072">
        <ele>1128.88</ele>
        <time>2025-04-15T14:48:57.889Z</time>
      </trkpt>
      <trkpt lat="44.86543" lon="3.85101">
        <ele>1129.03</ele>
        <time>2025-04-15T14:49:01.688Z</time>
      </trkpt>
      <trkpt lat="44.86562" lon="3.85131">
        <ele>1129.2</ele>
        <time>2025-04-15T14:49:05.492Z</time>
      </trkpt>
      <trkpt lat="44.8658" lon="3.8516">
        <ele>1129.51</ele>
        <time>2025-04-15T14:49:09.300Z</time>
      </trkpt>
      <trkpt lat="44.86599" lon="3.85189">
        <ele>1129.97</ele>
        <time>2025-04-15T14:49:13.113Z</time>
      </trkpt>
      <trkpt lat="44.86618" lon="3.85219">
        <ele>1130.57</ele>
        <time>2025-04-15T14:49:16.930Z</time>
      </trkpt>
      <trkpt lat="44.86637" lon="3.85248">
        <ele>1131.22</ele>
        <time>2025-04-15T14:49:20.752Z</time>
      </trkpt>
      <trkpt lat="44.86656" lon="3.85277">
        <ele>1131.8</ele>
        <time>2025-04-15T14:49:24.578Z</time>
      </trkpt>
      <trkpt lat="44.86664" lon="3.85297">
        <ele>1132.47</ele>
        <time>2025-04-15T14:49:28.407Z</time>
      </trkpt>
      <trkpt lat="44.86673" lon="3.85318">
        <ele>1133.27</ele>
        <time>2025-04-15T14:49:32.239Z</time>
      </trkpt>
      <trkpt lat="44.86683" lon="3.85358">
        <ele>1134.13</ele>
        <time>2025-04-15T14:49:36.076Z</time>
      </trkpt>
      <trkpt lat="44.86692" lon="3.85399">
        <ele>1135</ele>
        <time>2025-04-15T14:49:39.918Z</time>
      </trkpt>
      <trkpt lat="44.86702" lon="3.8544">
        <ele>1135.92</ele>
        <time>2025-04-15T14:49:43.764Z</time>
      </trkpt>
      <trkpt lat="44.86712" lon="3.85481">
        <ele>1136.88</ele>
        <time>2025-04-15T14:49:47.615Z</time>
      </trkpt>
      <trkpt lat="44.86722" lon="3.85522">
        <ele>1137.84</ele>
        <time>2025-04-15T14:49:51.471Z</time>
      </trkpt>
      <trkpt lat="44.86732" lon="3.85563">
        <ele>1138.88</ele>
        <time>2025-04-15T14:49:55.332Z</time>
      </trkpt>
      <trkpt lat="44.86742" lon="3.85604">
        <ele>1139.95</ele>
        <time>2025-04-15T14:49:59.198Z</time>
      </trkpt>
      <trkpt lat="44.86752" lon="3.85644">
        <ele>1140.95</ele>
        <time>2025-04-15T14:50:03.069Z</time>
      </trkpt>
      <trkpt lat="44.86762" lon="3.85685">
        <ele>1141.96</ele>
        <time>2025-04-15T14:50:06.945Z</time>
      </trkpt>
      <trkpt lat="44.86771" lon="3.85725">
        <ele>1143.03</ele>
        <time>2025-04-15T14:50:10.826Z</time>
      </trkpt>
      <trkpt lat="44.86779" lon="3.85747">
        <ele>1144.03</ele>
        <time>2025-04-15T14:50:14.710Z</time>
      </trkpt>
      <trkpt lat="44.86786" lon="3.85768">
        <ele>1145.01</ele>
        <time>2025-04-15T14:50:18.596Z</time>
      </trkpt>
      <trkpt lat="44.86798" lon="3.85786">
        <ele>1145.94</ele>
        <time>2025-04-15T14:50:22.485Z</time>
      </trkpt>
      <trkpt lat="44.8681" lon="3.85805">
        <ele>1146.78</ele>
        <time>2025-04-15T14:50:26.377Z</time>
      </trkpt>
      <trkpt lat="44.86824" lon="3.85821">
        <ele>1147.5</ele>
        <time>2025-04-15T14:50:30.272Z</time>
      </trkpt>
      <trkpt lat="44.86838" lon="3.85837">
        <ele>1148.14</ele>
        <time>2025-04-15T14:50:34.170Z</time>
      </trkpt>
      <trkpt lat="44.86864" lon="3.85856">
        <ele>1148.66</ele>
        <time>2025-04-15T14:50:38.072Z</time>
      </trkpt>
      <trkpt lat="44.86884" lon="3.85865">
        <ele>1149.07</ele>
        <time>2025-04-15T14:50:41.978Z</time>
      </trkpt>
      <trkpt lat="44.86904" lon="3.85875">
        <ele>1149.37</ele>
        <time>2025-04-15T14:50:45.887Z</time>
      </trkpt>
      <trkpt lat="44.86924" lon="3.85884">
        <ele>1149.55</ele>
        <time>2025-04-15T14:50:49.799Z</time>
      </trkpt>
      <trkpt lat="44.86944" lon="3.85893">
        <ele>1149.49</ele>
        <time>2025-04-15T14:50:53.715Z</time>
      </trkpt>
      <trkpt lat="44.86965" lon="3.85901">
        <ele>1149.26</ele>
        <time>2025-04-15T14:50:57.634Z</time>
      </trkpt>
      <trkpt lat="44.86984" lon="3.85916">
        <ele>1148.91</ele>
        <time>2025-04-15T14:51:01.557Z</time>
      </trkpt>
      <trkpt lat="44.87001" lon="3.85944">
        <ele>1148.6</ele>
        <time>2025-04-15T14:51:05.484Z</time>
      </trkpt>
      <trkpt lat="44.87014" lon="3.85979">
        <ele>1148.21</ele>
        <time>2025-04-15T14:51:09.415Z</time>
      </trkpt>
      <trkpt lat="44.87027" lon="3.86013">
        <ele>1147.57</ele>
        <time>2025-04-15T14:51:13.351Z</time>
      </trkpt>
      <trkpt lat="44.8704" lon="3.86047">
        <ele>1146.69</ele>
        <time>2025-04-15T14:51:17.291Z</time>
      </trkpt>
      <trkpt lat="44.8705" lon="3.86086">
        <ele>1145.68</ele>
        <time>2025-04-15T14:51:21.236Z</time>
      </trkpt>
      <trkpt lat="44.87059" lon="3.86122">
        <ele>1144.5</ele>
        <time>2025-04-15T14:51:25.185Z</time>
      </trkpt>
      <trkpt lat="44.8708" lon="3.86148">
        <ele>1143.13</ele>
        <time>2025-04-15T14:51:29.139Z</time>
      </trkpt>
      <trkpt lat="44.87106" lon="3.86163">
        <ele>1141.76</ele>
        <time>2025-04-15T14:51:33.097Z</time>
      </trkpt>
      <trkpt lat="44.87125" lon="3.86163">
        <ele>1140.32</ele>
        <time>2025-04-15T14:51:37.058Z</time>
      </trkpt>
      <trkpt lat="44.87145" lon="3.86154">
        <ele>1138.78</ele>
        <time>2025-04-15T14:51:41.023Z</time>
      </trkpt>
      <trkpt lat="44.87161" lon="3.8615">
        <ele>1137.19</ele>
        <time>2025-04-15T14:51:44.990Z</time>
      </trkpt>
      <trkpt lat="44.87177" lon="3.86146">
        <ele>1135.56</ele>
        <time>2025-04-15T14:51:48.960Z</time>
      </trkpt>
      <trkpt lat="44.87194" lon="3.86139">
        <ele>1133.87</ele>
        <time>2025-04-15T14:51:52.933Z</time>
      </trkpt>
      <trkpt lat="44.87219" lon="3.8612">
        <ele>1132.06</ele>
        <time>2025-04-15T14:51:56.910Z</time>
      </trkpt>
      <trkpt lat="44.87243" lon="3.86101">
        <ele>1130.16</ele>
        <time>2025-04-15T14:52:00.892Z</time>
      </trkpt>
      <trkpt lat="44.87252" lon="3.86099">
        <ele>1128.35</ele>
        <time>2025-04-15T14:52:04.875Z</time>
      </trkpt>
      <trkpt lat="44.8728" lon="3.86114">
        <ele>1126.44</ele>
        <time>2025-04-15T14:52:08.863Z</time>
      </trkpt>
      <trkpt lat="44.87301" lon="3.86138">
        <ele>1124.55</ele>
        <time>2025-04-15T14:52:12.855Z</time>
      </trkpt>
      <trkpt lat="44.87323" lon="3.86163">
        <ele>1122.62</ele>
        <time>2025-04-15T14:52:16.852Z</time>
      </trkpt>
      <trkpt lat="44.87344" lon="3.86187">
        <ele>1120.72</ele>
        <time>2025-04-15T14:52:20.853Z</time>
      </trkpt>
      <trkpt lat="44.87366" lon="3.86212">
        <ele>1118.86</ele>
        <time>2025-04-15T14:52:24.859Z</time>
      </trkpt>
      <trkpt lat="44.87387" lon="3.86236">
        <ele>1117.07</ele>
        <time>2025-04-15T14:52:28.869Z</time>
      </trkpt>
      <trkpt lat="44.87402" lon="3.8626">
        <ele>1115.31</ele>
        <time>2025-04-15T14:52:32.883Z</time>
      </trkpt>
      <trkpt lat="44.87407" lon="3.86282">
        <ele>1113.58</ele>
        <time>2025-04-15T14:52:36.899Z</time>
      </trkpt>
      <trkpt lat="44.87411" lon="3.86305">
        <ele>1111.93</ele>
        <time>2025-04-15T14:52:40.918Z</time>
      </trkpt>
      <trkpt lat="44.87415" lon="3.86339">
        <ele>1110.32</ele>
        <time>2025-04-15T14:52:44.941Z</time>
      </trkpt>
      <trkpt lat="44.87418" lon="3.86372">
        <ele>1108.73</ele>
        <time>2025-04-15T14:52:48.968Z</time>
      </trkpt>
      <trkpt lat="44.87422" lon="3.86406">
        <ele>1107.14</ele>
        <time>2025-04-15T14:52:52.999Z</time>
      </trkpt>
      <trkpt lat="44.87426" lon="3.8644">
        <ele>1105.58</ele>
        <time>2025-04-15T14:52:57.033Z</time>
      </trkpt>
      <trkpt lat="44.87432" lon="3.8647">
        <ele>1104.06</ele>
        <time>2025-04-15T14:53:01.071Z</time>
      </trkpt>
      <trkpt lat="44.87441" lon="3.86487">
        <ele>1102.54</ele>
        <time>2025-04-15T14:53:05.111Z</time>
      </trkpt>
      <trkpt lat="44.87467" lon="3.86498">
        <ele>1101</ele>
        <time>2025-04-15T14:53:09.156Z</time>
      </trkpt>
      <trkpt lat="44.87482" lon="3.86509">
        <ele>1099.52</ele>
        <time>2025-04-15T14:53:13.203Z</time>
      </trkpt>
      <trkpt lat="44.87501" lon="3.86533">
        <ele>1098.03</ele>
        <time>2025-04-15T14:53:17.255Z</time>
      </trkpt>
      <trkpt lat="44.8752" lon="3.86557">
        <ele>1096.59</ele>
        <time>2025-04-15T14:53:21.311Z</time>
      </trkpt>
      <trkpt lat="44.8754" lon="3.86581">
        <ele>1095.2</ele>
        <time>2025-04-15T14:53:25.371Z</time>
      </trkpt>
      <trkpt lat="44.87559" lon="3.86609">
        <ele>1093.86</ele>
        <time>2025-04-15T14:53:29.435Z</time>
      </trkpt>
      <trkpt lat="44.87572" lon="3.86648">
        <ele>1092.54</ele>
        <time>2025-04-15T14:53:33.504Z</time>
      </trkpt>
      <trkpt lat="44.8758" lon="3.86672">
        <ele>1091.21</ele>
        <time>2025-04-15T14:53:37.576Z</time>
      </trkpt>
      <trkpt lat="44.87588" lon="3.86696">
        <ele>1089.89</ele>
        <time>2025-04-15T14:53:41.651Z</time>
      </trkpt>
      <trkpt lat="44.87595" lon="3.86721">
        <ele>1088.56</ele>
        <time>2025-04-15T14:53:45.729Z</time>
      </trkpt>
      <trkpt lat="44.87613" lon="3.86751">
        <ele>1087.2</ele>
        <time>2025-04-15T14:53:49.812Z</time>
      </trkpt>
      <trkpt lat="44.8763" lon="3.86769">
        <ele>1085.93</ele>
        <time>2025-04-15T14:53:53.898Z</time>
      </trkpt>
      <trkpt lat="44.87647" lon="3.86787">
        <ele>1084.7</ele>
        <time>2025-04-15T14:53:57.988Z</time>
      </trkpt>
      <trkpt lat="44.87673" lon="3.86805">
        <ele>1083.55</ele>
        <time>2025-04-15T14:54:02.082Z</time>
      </trkpt>
      <trkpt lat="44.877" lon="3.86823">
        <ele>1082.41</ele>
        <time>2025-04-15T14:54:06.181Z</time>
      </trkpt>
      <trkpt lat="44.87726" lon="3.8684">
        <ele>1081.22</ele>
        <time>2025-04-15T14:54:10.285Z</time>
      </trkpt>
      <trkpt lat="44.87753" lon="3.86858">
        <ele>1080.04</ele>
        <time>2025-04-15T14:54:14.393Z</time>
      </trkpt>
      <trkpt lat="44.87779" lon="3.86875">
        <ele>1078.82</ele>
        <time>2025-04-15T14:54:18.506Z</time>
      </trkpt>
      <trkpt lat="44.87806" lon="3.86893">
        <ele>1077.6</ele>
        <time>2025-04-15T14:54:22.624Z</time>
      </trkpt>
      <trkpt lat="44.87827" lon="3.86898">
        <ele>1076.44</ele>
        <time>2025-04-15T14:54:26.745Z</time>
      </trkpt>
      <trkpt lat="44.87849" lon="3.86903">
        <ele>1075.37</ele>
        <time>2025-04-15T14:54:30.870Z</time>
      </trkpt>
      <trkpt lat="44.87864" lon="3.86914">
        <ele>1074.37</ele>
        <time>2025-04-15T14:54:34.997Z</time>
      </trkpt>
      <trkpt lat="44.87883" lon="3.86944">
        <ele>1073.31</ele>
        <time>2025-04-15T14:54:39.129Z</time>
      </trkpt>
      <trkpt lat="44.87902" lon="3.86974">
        <ele>1072.15</ele>
        <time>2025-04-15T14:54:43.265Z</time>
      </trkpt>
      <trkpt lat="44.87921" lon="3.87004">
        <ele>1071</ele>
        <time>2025-04-15T14:54:47.406Z</time>
      </trkpt>
      <trkpt lat="44.8794" lon="3.87034">
        <ele>1069.87</ele>
        <time>2025-04-15T14:54:51.552Z</time>
      </trkpt>
      <trkpt lat="44.87959" lon="3.87064">
        <ele>1068.69</ele>
        <time>2025-04-15T14:54:55.702Z</time>
      </trkpt>
      <trkpt lat="44.87978" lon="3.87094">
        <ele>1067.51</ele>
        <time>2025-04-15T14:54:59.857Z</time>
      </trkpt>
      <trkpt lat="44.87997" lon="3.87124">
        <ele>1066.39</ele>
        <time>2025-04-15T14:55:04.016Z</time>
      </trkpt>
      <trkpt lat="44.88012" lon="3.87137">
        <ele>1065.3</ele>
        <time>2025-04-15T14:55:08.178Z</time>
      </trkpt>
      <trkpt lat="44.88036" lon="3.87146">
        <ele>1064.12</ele>
        <time>2025-04-15T14:55:12.344Z</time>
      </trkpt>
      <trkpt lat="44.88061" lon="3.87154">
        <ele>1062.91</ele>
        <time>2025-04-15T14:55:16.514Z</time>
      </trkpt>
      <trkpt lat="44.8808" lon="3.87169">
        <ele>1061.72</ele>
        <time>2025-04-15T14:55:20.688Z</time>
      </trkpt>
      <trkpt lat="44.88097" lon="3.87194">
        <ele>1060.54</ele>
        <time>2025-04-15T14:55:24.866Z</time>
      </trkpt>
      <trkpt lat="44.88115" lon="3.87218">
        <ele>1059.4</ele>
        <time>2025-04-15T14:55:29.048Z</time>
      </trkpt>
      <trkpt lat="44.88132" lon="3.87242">
        <ele>1058.22</ele>
        <time>2025-04-15T14:55:33.233Z</time>
      </trkpt>
      <trkpt lat="44.88149" lon="3.87266">
        <ele>1056.96</ele>
        <time>2025-04-15T14:55:37.422Z</time>
      </trkpt>
      <trkpt lat="44.88163" lon="3.87304">
        <ele>1055.61</ele>
        <time>2025-04-15T14:55:41.616Z</time>
      </trkpt>
      <trkpt lat="44.88177" lon="3.87341">
        <ele>1054.19</ele>
        <time>2025-04-15T14:55:45.815Z</time>
      </trkpt>
      <trkpt lat="44.88185" lon="3.87376">
        <ele>1052.76</ele>
        <time>2025-04-15T14:55:50.018Z</time>
      </trkpt>
      <trkpt lat="44.88193" lon="3.87411">
        <ele>1051.37</ele>
        <time>2025-04-15T14:55:54.225Z</time>
      </trkpt>
      <trkpt lat="44.882" lon="3.87446">
        <ele>1050.01</ele>
        <time>2025-04-15T14:55:58.437Z</time>
      </trkpt>
      <trkpt lat="44.88204" lon="3.87477">
        <ele>1048.66</ele>
        <time>2025-04-15T14:56:02.652Z</time>
      </trkpt>
      <trkpt lat="44.88208" lon="3.87508">
        <ele>1047.31</ele>
        <time>2025-04-15T14:56:06.871Z</time>
      </trkpt>
      <trkpt lat="44.88211" lon="3.87538">
        <ele>1045.97</ele>
        <time>2025-04-15T14:56:11.093Z</time>
      </trkpt>
      <trkpt lat="44.8822" lon="3.87558">
        <ele>1044.65</ele>
        <time>2025-04-15T14:56:15.318Z</time>
      </trkpt>
      <trkpt lat="44.88239" lon="3.87579">
        <ele>1043.34</ele>
        <time>2025-04-15T14:56:19.547Z</time>
      </trkpt>
      <trkpt lat="44.88258" lon="3.87601">
        <ele>1042.01</ele>
        <time>2025-04-15T14:56:23.780Z</time>
      </trkpt>
      <trkpt lat="44.88258" lon="3.87601">
        <ele>1040.8</ele>
        <time>2025-04-15T14:56:28.013Z</time>
      </trkpt>
      <trkpt lat="44.88276" lon="3.87616">
        <ele>1039.59</ele>
        <time>2025-04-15T14:56:32.249Z</time>
      </trkpt>
      <trkpt lat="44.88297" lon="3.87641">
        <ele>1038.34</ele>
        <time>2025-04-15T14:56:36.489Z</time>
      </trkpt>
      <trkpt lat="44.8832" lon="3.8767">
        <ele>1037.15</ele>
        <time>2025-04-15T14:56:40.734Z</time>
      </trkpt>
      <trkpt lat="44.88343" lon="3.87699">
        <ele>1035.98</ele>
        <time>2025-04-15T14:56:44.984Z</time>
      </trkpt>
      <trkpt lat="44.88366" lon="3.87727">
        <ele>1034.86</ele>
        <time>2025-04-15T14:56:49.239Z</time>
      </trkpt>
      <trkpt lat="44.88383" lon="3.87754">
        <ele>1033.86</ele>
        <time>2025-04-15T14:56:53.498Z</time>
      </trkpt>
      <trkpt lat="44.88401" lon="3.8778">
        <ele>1032.93</ele>
        <time>2025-04-15T14:56:57.761Z</time>
      </trkpt>
      <trkpt lat="44.88419" lon="3.87806">
        <ele>1032.04</ele>
        <time>2025-04-15T14:57:02.028Z</time>
      </trkpt>
      <trkpt lat="44.88437" lon="3.87832">
        <ele>1031.27</ele>
        <time>2025-04-15T14:57:06.300Z</time>
      </trkpt>
      <trkpt lat="44.88461" lon="3.8785">
        <ele>1030.66</ele>
        <time>2025-04-15T14:57:10.576Z</time>
      </trkpt>
      <trkpt lat="44.88486" lon="3.87867">
        <ele>1030.06</ele>
        <time>2025-04-15T14:57:14.856Z</time>
      </trkpt>
      <trkpt lat="44.88501" lon="3.87882">
        <ele>1029.47</ele>
        <time>2025-04-15T14:57:19.139Z</time>
      </trkpt>
      <trkpt lat="44.88519" lon="3.87917">
        <ele>1028.9</ele>
        <time>2025-04-15T14:57:23.427Z</time>
      </trkpt>
      <trkpt lat="44.88537" lon="3.87953">
        <ele>1028.47</ele>
        <time>2025-04-15T14:57:27.720Z</time>
      </trkpt>
      <trkpt lat="44.88556" lon="3.87979">
        <ele>1028.22</ele>
        <time>2025-04-15T14:57:32.017Z</time>
      </trkpt>
      <trkpt lat="44.88574" lon="3.88006">
        <ele>1028.07</ele>
        <time>2025-04-15T14:57:36.319Z</time>
      </trkpt>
      <trkpt lat="44.88593" lon="3.88014">
        <ele>1027.99</ele>
        <time>2025-04-15T14:57:40.624Z</time>
      </trkpt>
      <trkpt lat="44.88612" lon="3.88021">
        <ele>1027.91</ele>
        <time>2025-04-15T14:57:44.932Z</time>
      </trkpt>
      <trkpt lat="44.88627" lon="3.88035">
        <ele>1027.85</ele>
        <time>2025-04-15T14:57:49.243Z</time>
      </trkpt>
      <trkpt lat="44.88643" lon="3.88049">
        <ele>1027.81</ele>
        <time>2025-04-15T14:57:53.557Z</time>
      </trkpt>
      <trkpt lat="44.88664" lon="3.88053">
        <ele>1027.82</ele>
        <time>2025-04-15T14:57:57.874Z</time>
      </trkpt>
      <trkpt lat="44.88685" lon="3.88058">
        <ele>1027.9</ele>
        <time>2025-04-15T14:58:02.195Z</time>
      </trkpt>
      <trkpt lat="44.88705" lon="3.88068">
        <ele>1028.04</ele>
        <time>2025-04-15T14:58:06.519Z</time>
      </trkpt>
      <trkpt lat="44.88726" lon="3.88088">
        <ele>1028.08</ele>
        <time>2025-04-15T14:58:10.847Z</time>
      </trkpt>
      <trkpt lat="44.88743" lon="3.88114">
        <ele>1028.09</ele>
        <time>2025-04-15T14:58:15.179Z</time>
      </trkpt>
      <trkpt lat="44.88763" lon="3.88118">
        <ele>1028.14</ele>
        <time>2025-04-15T14:58:19.514Z</time>
      </trkpt>
      <trkpt lat="44.88784" lon="3.88099">
        <ele>1028.19</ele>
        <time>2025-04-15T14:58:23.853Z</time>
      </trkpt>
      <trkpt lat="44.88803" lon="3.88081">
        <ele>1028.17</ele>
        <time>2025-04-15T14:58:28.196Z</time>
      </trkpt>
      <trkpt lat="44.8881" lon="3.88077">
        <ele>1028.15</ele>
        <time>2025-04-15T14:58:32.540Z</time>
      </trkpt>
      <trkpt lat="44.88822" lon="3.88046">
        <ele>1028.12</ele>
        <time>2025-04-15T14:58:36.888Z</time>
      </trkpt>
      <trkpt lat="44.88833" lon="3.88015">
        <ele>1028.04</ele>
        <time>2025-04-15T14:58:41.240Z</time>
      </trkpt>
      <trkpt lat="44.88842" lon="3.87991">
        <ele>1027.95</ele>
        <time>2025-04-15T14:58:45.595Z</time>
      </trkpt>
      <trkpt lat="44.88851" lon="3.87962">
        <ele>1027.76</ele>
        <time>2025-04-15T14:58:49.954Z</time>
      </trkpt>
      <trkpt lat="44.88861" lon="3.87932">
        <ele>1027.48</ele>
        <time>2025-04-15T14:58:54.317Z</time>
      </trkpt>
      <trkpt lat="44.8887" lon="3.87903">
        <ele>1027.13</ele>
        <time>2025-04-15T14:58:58.683Z</time>
      </trkpt>
      <trkpt lat="44.88891" lon="3.87905">
        <ele>1026.67</ele>
        <time>2025-04-15T14:59:03.053Z</time>
      </trkpt>
      <trkpt lat="44.88919" lon="3.87899">
        <ele>1026.12</ele>
        <time>2025-04-15T14:59:07.427Z</time>
      </trkpt>
      <trkpt lat="44.88947" lon="3.87892">
        <ele>1025.54</ele>
        <time>2025-04-15T14:59:11.806Z</time>
      </trkpt>
      <trkpt lat="44.88974" lon="3.87885">
        <ele>1024.86</ele>
        <time>2025-04-15T14:59:16.189Z</time>
      </trkpt>
      <trkpt lat="44.89002" lon="3.87879">
        <ele>1024.16</ele>
        <time>2025-04-15T14:59:20.577Z</time>
      </trkpt>
      <trkpt lat="44.8903" lon="3.87872">
        <ele>1023.35</ele>
        <time>2025-04-15T14:59:24.969Z</time>
      </trkpt>
      <trkpt lat="44.89057" lon="3.87865">
        <ele>1022.45</ele>
        <time>2025-04-15T14:59:29.366Z</time>
      </trkpt>
      <trkpt lat="44.89085" lon="3.87859">
        <ele>1021.53</ele>
        <time>2025-04-15T14:59:33.767Z</time>
      </trkpt>
      <trkpt lat="44.89112" lon="3.87852">
        <ele>1020.65</ele>
        <time>2025-04-15T14:59:38.173Z</time>
      </trkpt>
      <trkpt lat="44.8914" lon="3.87845">
        <ele>1019.71</ele>
        <time>2025-04-15T14:59:42.583Z</time>
      </trkpt>
      <trkpt lat="44.89164" lon="3.87843">
        <ele>1018.66</ele>
        <time>2025-04-15T14:59:46.997Z</time>
      </trkpt>
      <trkpt lat="44.89188" lon="3.87841">
        <ele>1017.55</ele>
        <time>2025-04-15T14:59:51.415Z</time>
      </trkpt>
      <trkpt lat="44.89218" lon="3.87838">
        <ele>1016.36</ele>
        <time>2025-04-15T14:59:55.838Z</time>
      </trkpt>
      <trkpt lat="44.89248" lon="3.87836">
        <ele>1015.11</ele>
        <time>2025-04-15T15:00:00.265Z</time>
      </trkpt>
      <trkpt lat="44.89278" lon="3.87833">
        <ele>1013.8</ele>
        <time>2025-04-15T15:00:04.697Z</time>
      </trkpt>
      <trkpt lat="44.89309" lon="3.8783">
        <ele>1012.51</ele>
        <time>2025-04-15T15:00:09.134Z</time>
      </trkpt>
      <trkpt lat="44.89339" lon="3.87827">
        <ele>1011.15</ele>
        <time>2025-04-15T15:00:13.576Z</time>
      </trkpt>
      <trkpt lat="44.89369" lon="3.87824">
        <ele>1009.67</ele>
        <time>2025-04-15T15:00:18.023Z</time>
      </trkpt>
      <trkpt lat="44.894" lon="3.87822">
        <ele>1008.18</ele>
        <time>2025-04-15T15:00:22.475Z</time>
      </trkpt>
      <trkpt lat="44.89431" lon="3.87824">
        <ele>1006.72</ele>
        <time>2025-04-15T15:00:26.932Z</time>
      </trkpt>
      <trkpt lat="44.89462" lon="3.87827">
        <ele>1005.18</ele>
        <time>2025-04-15T15:00:31.394Z</time>
      </trkpt>
      <trkpt lat="44.89493" lon="3.87829">
        <ele>1003.66</ele>
        <time>2025-04-15T15:00:35.861Z</time>
      </trkpt>
      <trkpt lat="44.89524" lon="3.87832">
        <ele>1002.22</ele>
        <time>2025-04-15T15:00:40.333Z</time>
      </trkpt>
      <trkpt lat="44.89555" lon="3.87834">
        <ele>1000.72</ele>
        <time>2025-04-15T15:00:44.810Z</time>
      </trkpt>
      <trkpt lat="44.89587" lon="3.87837">
        <ele>999.13</ele>
        <time>2025-04-15T15:00:49.292Z</time>
      </trkpt>
      <trkpt lat="44.89615" lon="3.8784">
        <ele>997.6</ele>
        <time>2025-04-15T15:00:53.778Z</time>
      </trkpt>
      <trkpt lat="44.89642" lon="3.87844">
        <ele>996.14</ele>
        <time>2025-04-15T15:00:58.269Z</time>
      </trkpt>
      <trkpt lat="44.8967" lon="3.87848">
        <ele>994.73</ele>
        <time>2025-04-15T15:01:02.764Z</time>
      </trkpt>
      <trkpt lat="44.89698" lon="3.87852">
        <ele>993.26</ele>
        <time>2025-04-15T15:01:07.264Z</time>
      </trkpt>
      <trkpt lat="44.89722" lon="3.87856">
        <ele>991.77</ele>
        <time>2025-04-15T15:01:11.767Z</time>
      </trkpt>
      <trkpt lat="44.89744" lon="3.8787">
        <ele>990.28</ele>
        <time>2025-04-15T15:01:16.274Z</time>
      </trkpt>
      <trkpt lat="44.89766" lon="3.87883">
        <ele>988.76</ele>
        <time>2025-04-15T15:01:20.785Z</time>
      </trkpt>
      <trkpt lat="44.89788" lon="3.87897">
        <ele>987.21</ele>
        <time>2025-04-15T15:01:25.300Z</time>
      </trkpt>
      <trkpt lat="44.89816" lon="3.87903">
        <ele>985.6</ele>
        <time>2025-04-15T15:01:29.820Z</time>
      </trkpt>
      <trkpt lat="44.89844" lon="3.87897">
        <ele>984.1</ele>
        <time>2025-04-15T15:01:34.344Z</time>
      </trkpt>
      <trkpt lat="44.89874" lon="3.87884">
        <ele>982.63</ele>
        <time>2025-04-15T15:01:38.873Z</time>
      </trkpt>
      <trkpt lat="44.89881" lon="3.87878">
        <ele>981.28</ele>
        <time>2025-04-15T15:01:43.403Z</time>
      </trkpt>
      <trkpt lat="44.89889" lon="3.87865">
        <ele>979.98</ele>
        <time>2025-04-15T15:01:47.935Z</time>
      </trkpt>
      <trkpt lat="44.89902" lon="3.87835">
        <ele>978.69</ele>
        <time>2025-04-15T15:01:52.471Z</time>
      </trkpt>
      <trkpt lat="44.899" lon="3.87805">
        <ele>977.39</ele>
        <time>2025-04-15T15:01:57.011Z</time>
      </trkpt>
      <trkpt lat="44.89891" lon="3.87779">
        <ele>976.11</ele>
        <time>2025-04-15T15:02:01.554Z</time>
      </trkpt>
      <trkpt lat="44.89873" lon="3.87751">
        <ele>974.97</ele>
        <time>2025-04-15T15:02:06.101Z</time>
      </trkpt>
      <trkpt lat="44.89855" lon="3.87723">
        <ele>973.96</ele>
        <time>2025-04-15T15:02:10.653Z</time>
      </trkpt>
      <trkpt lat="44.89838" lon="3.87692">
        <ele>972.8</ele>
        <time>2025-04-15T15:02:15.209Z</time>
      </trkpt>
      <trkpt lat="44.8982" lon="3.8766">
        <ele>971.59</ele>
        <time>2025-04-15T15:02:19.770Z</time>
      </trkpt>
      <trkpt lat="44.89803" lon="3.87629">
        <ele>970.46</ele>
        <time>2025-04-15T15:02:24.335Z</time>
      </trkpt>
      <trkpt lat="44.89795" lon="3.87596">
        <ele>969.43</ele>
        <time>2025-04-15T15:02:28.904Z</time>
      </trkpt>
      <trkpt lat="44.89793" lon="3.87569">
        <ele>968.67</ele>
        <time>2025-04-15T15:02:33.476Z</time>
      </trkpt>
      <trkpt lat="44.89799" lon="3.87538">
        <ele>968.03</ele>
        <time>2025-04-15T15:02:38.052Z</time>
      </trkpt>
      <trkpt lat="44.89806" lon="3.87508">
        <ele>967.62</ele>
        <time>2025-04-15T15:02:42.631Z</time>
      </trkpt>
      <trkpt lat="44.89821" lon="3.87487">
        <ele>967.34</ele>
        <time>2025-04-15T15:02:47.214Z</time>
      </trkpt>
      <trkpt lat="44.89842" lon="3.87474">
        <ele>967.29</ele>
        <time>2025-04-15T15:02:51.801Z</time>
      </trkpt>
      <trkpt lat="44.89861" lon="3.87472">
        <ele>967.36</ele>
        <time>2025-04-15T15:02:56.391Z</time>
      </trkpt>
      <trkpt lat="44.89881" lon="3.87476">
        <ele>967.46</ele>
        <time>2025-04-15T15:03:00.984Z</time>
      </trkpt>
      <trkpt lat="44.89901" lon="3.87486">
        <ele>967.61</ele>
        <time>2025-04-15T15:03:05.580Z</time>
      </trkpt>
      <trkpt lat="44.89922" lon="3.87496">
        <ele>967.88</ele>
        <time>2025-04-15T15:03:10.180Z</time>
      </trkpt>
      <trkpt lat="44.89943" lon="3.87506">
        <ele>968.25</ele>
        <time>2025-04-15T15:03:14.783Z</time>
      </trkpt>
      <trkpt lat="44.89971" lon="3.87511">
        <ele>968.86</ele>
        <time>2025-04-15T15:03:19.391Z</time>
      </trkpt>
      <trkpt lat="44.89988" lon="3.87508">
        <ele>969.55</ele>
        <time>2025-04-15T15:03:24.002Z</time>
      </trkpt>
      <trkpt lat="44.90001" lon="3.87496">
        <ele>970.31</ele>
        <time>2025-04-15T15:03:28.615Z</time>
      </trkpt>
      <trkpt lat="44.90012" lon="3.87478">
        <ele>971.15</ele>
        <time>2025-04-15T15:03:33.231Z</time>
      </trkpt>
      <trkpt lat="44.90022" lon="3.87441">
        <ele>972.01</ele>
        <time>2025-04-15T15:03:37.851Z</time>
      </trkpt>
      <trkpt lat="44.90032" lon="3.87403">
        <ele>972.88</ele>
        <time>2025-04-15T15:03:42.476Z</time>
      </trkpt>
      <trkpt lat="44.90042" lon="3.87365">
        <ele>973.79</ele>
        <time>2025-04-15T15:03:47.106Z</time>
      </trkpt>
      <trkpt lat="44.90053" lon="3.87327">
        <ele>974.79</ele>
        <time>2025-04-15T15:03:51.740Z</time>
      </trkpt>
      <trkpt lat="44.90063" lon="3.8729">
        <ele>975.89</ele>
        <time>2025-04-15T15:03:56.379Z</time>
      </trkpt>
      <trkpt lat="44.90074" lon="3.87261">
        <ele>976.81</ele>
        <time>2025-04-15T15:04:01.021Z</time>
      </trkpt>
      <trkpt lat="44.90084" lon="3.87232">
        <ele>977.71</ele>
        <time>2025-04-15T15:04:05.667Z</time>
      </trkpt>
      <trkpt lat="44.901" lon="3.87199">
        <ele>978.68</ele>
        <time>2025-04-15T15:04:10.318Z</time>
      </trkpt>
      <trkpt lat="44.90115" lon="3.87166">
        <ele>979.6</ele>
        <time>2025-04-15T15:04:14.973Z</time>
      </trkpt>
      <trkpt lat="44.90131" lon="3.87134">
        <ele>980.51</ele>
        <time>2025-04-15T15:04:19.632Z</time>
      </trkpt>
      <trkpt lat="44.90146" lon="3.87101">
        <ele>981.38</ele>
        <time>2025-04-15T15:04:24.296Z</time>
      </trkpt>
      <trkpt lat="44.90161" lon="3.87069">
        <ele>982.13</ele>
        <time>2025-04-15T15:04:28.964Z</time>
      </trkpt>
      <trkpt lat="44.90177" lon="3.87036">
        <ele>982.89</ele>
        <time>2025-04-15T15:04:33.637Z</time>
      </trkpt>
      <trkpt lat="44.90183" lon="3.87011">
        <ele>983.64</ele>
        <time>2025-04-15T15:04:38.313Z</time>
      </trkpt>
      <trkpt lat="44.9019" lon="3.86985">
        <ele>984.36</ele>
        <time>2025-04-15T15:04:42.992Z</time>
      </trkpt>
      <trkpt lat="44.90192" lon="3.86946">
        <ele>985.02</ele>
        <time>2025-04-15T15:04:47.675Z</time>
      </trkpt>
      <trkpt lat="44.9019" lon="3.86919">
        <ele>985.64</ele>
        <time>2025-04-15T15:04:52.362Z</time>
      </trkpt>
      <trkpt lat="44.90187" lon="3.86893">
        <ele>986.16</ele>
        <time>2025-04-15T15:04:57.052Z</time>
      </trkpt>
      <trkpt lat="44.90192" lon="3.86865">
        <ele>986.61</ele>
        <time>2025-04-15T15:05:01.745Z</time>
      </trkpt>
      <trkpt lat="44.90198" lon="3.8685">
        <ele>986.96</ele>
        <time>2025-04-15T15:05:06.440Z</time>
      </trkpt>
      <trkpt lat="44.90218" lon="3.8683">
        <ele>987.28</ele>
        <time>2025-04-15T15:05:11.139Z</time>
      </trkpt>
      <trkpt lat="44.90246" lon="3.86818">
        <ele>987.43</ele>
        <time>2025-04-15T15:05:15.842Z</time>
      </trkpt>
      <trkpt lat="44.90275" lon="3.86805">
        <ele>987.63</ele>
        <time>2025-04-15T15:05:20.550Z</time>
      </trkpt>
      <trkpt lat="44.9029" lon="3.86805">
        <ele>987.78</ele>
        <time>2025-04-15T15:05:25.261Z</time>
      </trkpt>
      <trkpt lat="44.90315" lon="3.86814">
        <ele>987.82</ele>
        <time>2025-04-15T15:05:29.976Z</time>
      </trkpt>
      <trkpt lat="44.9034" lon="3.86824">
        <ele>987.81</ele>
        <time>2025-04-15T15:05:34.695Z</time>
      </trkpt>
      <trkpt lat="44.90351" lon="3.86835">
        <ele>987.72</ele>
        <time>2025-04-15T15:05:39.416Z</time>
      </trkpt>
      <trkpt lat="44.90368" lon="3.86854">
        <ele>987.58</ele>
        <time>2025-04-15T15:05:44.141Z</time>
      </trkpt>
      <trkpt lat="44.90387" lon="3.86884">
        <ele>987.35</ele>
        <time>2025-04-15T15:05:48.870Z</time>
      </trkpt>
      <trkpt lat="44.90406" lon="3.86914">
        <ele>987.03</ele>
        <time>2025-04-15T15:05:53.604Z</time>
      </trkpt>
      <trkpt lat="44.90426" lon="3.86944">
        <ele>986.7</ele>
        <time>2025-04-15T15:05:58.342Z</time>
      </trkpt>
      <trkpt lat="44.90442" lon="3.86967">
        <ele>986.34</ele>
        <time>2025-04-15T15:06:03.084Z</time>
      </trkpt>
      <trkpt lat="44.90458" lon="3.86989">
        <ele>985.93</ele>
        <time>2025-04-15T15:06:07.830Z</time>
      </trkpt>
      <trkpt lat="44.90472" lon="3.87008">
        <ele>985.5</ele>
        <time>2025-04-15T15:06:12.579Z</time>
      </trkpt>
      <trkpt lat="44.90486" lon="3.87028">
        <ele>985.06</ele>
        <time>2025-04-15T15:06:17.331Z</time>
      </trkpt>
      <trkpt lat="44.90508" lon="3.87051">
        <ele>984.56</ele>
        <time>2025-04-15T15:06:22.087Z</time>
      </trkpt>
      <trkpt lat="44.90531" lon="3.87075">
        <ele>984.07</ele>
        <time>2025-04-15T15:06:26.848Z</time>
      </trkpt>
      <trkpt lat="44.9055" lon="3.87092">
        <ele>983.61</ele>
        <time>2025-04-15T15:06:31.613Z</time>
      </trkpt>
      <trkpt lat="44.90569" lon="3.87109">
        <ele>983.19</ele>
        <time>2025-04-15T15:06:36.381Z</time>
      </trkpt>
      <trkpt lat="44.90589" lon="3.87126">
        <ele>982.78</ele>
        <time>2025-04-15T15:06:41.153Z</time>
      </trkpt>
      <trkpt lat="44.90606" lon="3.87139">
        <ele>982.41</ele>
        <time>2025-04-15T15:06:45.928Z</time>
      </trkpt>
      <trkpt lat="44.90628" lon="3.87151">
        <ele>982.05</ele>
        <time>2025-04-15T15:06:50.707Z</time>
      </trkpt>
      <trkpt lat="44.9065" lon="3.87162">
        <ele>981.63</ele>
        <time>2025-04-15T15:06:55.490Z</time>
      </trkpt>
      <trkpt lat="44.90672" lon="3.87174">
        <ele>981.24</ele>
        <time>2025-04-15T15:07:00.276Z</time>
      </trkpt>
      <trkpt lat="44.90701" lon="3.87185">
        <ele>980.95</ele>
        <time>2025-04-15T15:07:05.067Z</time>
      </trkpt>
      <trkpt lat="44.9073" lon="3.87196">
        <ele>980.71</ele>
        <time>2025-04-15T15:07:09.863Z</time>
      </trkpt>
      <trkpt lat="44.90759" lon="3.87207">
        <ele>980.44</ele>
        <time>2025-04-15T15:07:14.664Z</time>
      </trkpt>
      <trkpt lat="44.90788" lon="3.87219">
        <ele>980.15</ele>
        <time>2025-04-15T15:07:19.470Z</time>
      </trkpt>
      <trkpt lat="44.90815" lon="3.87222">
        <ele>979.93</ele>
        <time>2025-04-15T15:07:24.280Z</time>
      </trkpt>
      <trkpt lat="44.90843" lon="3.87226">
        <ele>979.81</ele>
        <time>2025-04-15T15:07:29.094Z</time>
      </trkpt>
      <trkpt lat="44.9087" lon="3.87229">
        <ele>979.77</ele>
        <time>2025-04-15T15:07:33.913Z</time>
      </trkpt>
      <trkpt lat="44.90894" lon="3.87241">
        <ele>979.61</ele>
        <time>2025-04-15T15:07:38.736Z</time>
      </trkpt>
      <trkpt lat="44.90918" lon="3.87253">
        <ele>979.42</ele>
        <time>2025-04-15T15:07:43.563Z</time>
      </trkpt>
      <trkpt lat="44.90942" lon="3.87265">
        <ele>979.3</ele>
        <time>2025-04-15T15:07:48.394Z</time>
      </trkpt>
      <trkpt lat="44.90966" lon="3.87277">
        <ele>979.29</ele>
        <time>2025-04-15T15:07:53.229Z</time>
      </trkpt>
      <trkpt lat="44.90997" lon="3.87286">
        <ele>979.33</ele>
        <time>2025-04-15T15:07:58.069Z</time>
      </trkpt>
      <trkpt lat="44.91027" lon="3.87295">
        <ele>979.3</ele>
        <time>2025-04-15T15:08:02.914Z</time>
      </trkpt>
      <trkpt lat="44.91058" lon="3.87305">
        <ele>979.27</ele>
        <time>2025-04-15T15:08:07.764Z</time>
      </trkpt>
      <trkpt lat="44.91089" lon="3.87314">
        <ele>979.14</ele>
        <time>2025-04-15T15:08:12.619Z</time>
      </trkpt>
      <trkpt lat="44.91119" lon="3.87324">
        <ele>979.05</ele>
        <time>2025-04-15T15:08:17.479Z</time>
      </trkpt>
      <trkpt lat="44.9115" lon="3.87333">
        <ele>978.92</ele>
        <time>2025-04-15T15:08:22.344Z</time>
      </trkpt>
      <trkpt lat="44.9118" lon="3.87342">
        <ele>978.81</ele>
        <time>2025-04-15T15:08:27.214Z</time>
      </trkpt>
      <trkpt lat="44.91211" lon="3.87352">
        <ele>978.7</ele>
        <time>2025-04-15T15:08:32.089Z</time>
      </trkpt>
      <trkpt lat="44.91241" lon="3.87358">
        <ele>978.6</ele>
        <time>2025-04-15T15:08:36.969Z</time>
      </trkpt>
      <trkpt lat="44.91271" lon="3.87365">
        <ele>978.52</ele>
        <time>2025-04-15T15:08:41.854Z</time>
      </trkpt>
      <trkpt lat="44.91301" lon="3.87371">
        <ele>978.4</ele>
        <time>2025-04-15T15:08:46.744Z</time>
      </trkpt>
      <trkpt lat="44.91331" lon="3.87378">
        <ele>978.29</ele>
        <time>2025-04-15T15:08:51.639Z</time>
      </trkpt>
      <trkpt lat="44.91362" lon="3.87385">
        <ele>978.16</ele>
        <time>2025-04-15T15:08:56.538Z</time>
      </trkpt>
      <trkpt lat="44.91392" lon="3.87393">
        <ele>978.02</ele>
        <time>2025-04-15T15:09:01.442Z</time>
      </trkpt>
      <trkpt lat="44.91423" lon="3.874">
        <ele>977.91</ele>
        <time>2025-04-15T15:09:06.351Z</time>
      </trkpt>
      <trkpt lat="44.91453" lon="3.87408">
        <ele>977.92</ele>
        <time>2025-04-15T15:09:11.265Z</time>
      </trkpt>
      <trkpt lat="44.91473" lon="3.87416">
        <ele>977.91</ele>
        <time>2025-04-15T15:09:16.183Z</time>
      </trkpt>
      <trkpt lat="44.91492" lon="3.87425">
        <ele>977.92</ele>
        <time>2025-04-15T15:09:21.104Z</time>
      </trkpt>
      <trkpt lat="44.91522" lon="3.87435">
        <ele>977.99</ele>
        <time>2025-04-15T15:09:26.030Z</time>
      </trkpt>
      <trkpt lat="44.91553" lon="3.87445">
        <ele>978.15</ele>
        <time>2025-04-15T15:09:30.961Z</time>
      </trkpt>
      <trkpt lat="44.91583" lon="3.87455">
        <ele>978.29</ele>
        <time>2025-04-15T15:09:35.897Z</time>
      </trkpt>
      <trkpt lat="44.91614" lon="3.87465">
        <ele>978.38</ele>
        <time>2025-04-15T15:09:40.838Z</time>
      </trkpt>
      <trkpt lat="44.91644" lon="3.87475">
        <ele>978.64</ele>
        <time>2025-04-15T15:09:45.784Z</time>
      </trkpt>
      <trkpt lat="44.91674" lon="3.87485">
        <ele>978.99</ele>
        <time>2025-04-15T15:09:50.735Z</time>
      </trkpt>
      <trkpt lat="44.91705" lon="3.87495">
        <ele>979.28</ele>
        <time>2025-04-15T15:09:55.691Z</time>
      </trkpt>
      <trkpt lat="44.91735" lon="3.87505">
        <ele>979.66</ele>
        <time>2025-04-15T15:10:00.652Z</time>
      </trkpt>
      <trkpt lat="44.91765" lon="3.87515">
        <ele>980.08</ele>
        <time>2025-04-15T15:10:05.618Z</time>
      </trkpt>
      <trkpt lat="44.91796" lon="3.87525">
        <ele>980.52</ele>
        <time>2025-04-15T15:10:10.589Z</time>
      </trkpt>
      <trkpt lat="44.91826" lon="3.87535">
        <ele>980.98</ele>
        <time>2025-04-15T15:10:15.565Z</time>
      </trkpt>
      <trkpt lat="44.91857" lon="3.87545">
        <ele>981.55</ele>
        <time>2025-04-15T15:10:20.546Z</time>
      </trkpt>
      <trkpt lat="44.91887" lon="3.87555">
        <ele>982.21</ele>
        <time>2025-04-15T15:10:25.532Z</time>
      </trkpt>
      <trkpt lat="44.91918" lon="3.87564">
        <ele>982.88</ele>
        <time>2025-04-15T15:10:30.523Z</time>
      </trkpt>
      <trkpt lat="44.91949" lon="3.87574">
        <ele>983.62</ele>
        <time>2025-04-15T15:10:35.519Z</time>
      </trkpt>
      <trkpt lat="44.91979" lon="3.87584">
        <ele>984.38</ele>
        <time>2025-04-15T15:10:40.520Z</time>
      </trkpt>
      <trkpt lat="44.92007" lon="3.87592">
        <ele>985.16</ele>
        <time>2025-04-15T15:10:45.525Z</time>
      </trkpt>
      <trkpt lat="44.92035" lon="3.87601">
        <ele>985.83</ele>
        <time>2025-04-15T15:10:50.535Z</time>
      </trkpt>
      <trkpt lat="44.92063" lon="3.8761">
        <ele>986.49</ele>
        <time>2025-04-15T15:10:55.550Z</time>
      </trkpt>
      <trkpt lat="44.92091" lon="3.87619">
        <ele>987.06</ele>
        <time>2025-04-15T15:11:00.569Z</time>
      </trkpt>
      <trkpt lat="44.92119" lon="3.87628">
        <ele>987.51</ele>
        <time>2025-04-15T15:11:05.593Z</time>
      </trkpt>
      <trkpt lat="44.92147" lon="3.87637">
        <ele>987.91</ele>
        <time>2025-04-15T15:11:10.621Z</time>
      </trkpt>
      <trkpt lat="44.92165" lon="3.87643">
        <ele>988.22</ele>
        <time>2025-04-15T15:11:15.652Z</time>
      </trkpt>
      <trkpt lat="44.92183" lon="3.87648">
        <ele>988.43</ele>
        <time>2025-04-15T15:11:20.686Z</time>
      </trkpt>
      <trkpt lat="44.92183" lon="3.87648">
        <ele>988.58</ele>
        <time>2025-04-15T15:11:25.720Z</time>
      </trkpt>
      <trkpt lat="44.92213" lon="3.87657">
        <ele>988.52</ele>
        <time>2025-04-15T15:11:30.759Z</time>
      </trkpt>
      <trkpt lat="44.9224" lon="3.8766">
        <ele>988.45</ele>
        <time>2025-04-15T15:11:35.803Z</time>
      </trkpt>
      <trkpt lat="44.92267" lon="3.87664">
        <ele>988.37</ele>
        <time>2025-04-15T15:11:40.851Z</time>
      </trkpt>
      <trkpt lat="44.92295" lon="3.87667">
        <ele>988.27</ele>
        <time>2025-04-15T15:11:45.903Z</time>
      </trkpt>
      <trkpt lat="44.92325" lon="3.87676">
        <ele>987.99</ele>
        <time>2025-04-15T15:11:50.960Z</time>
      </trkpt>
      <trkpt lat="44.92356" lon="3.87685">
        <ele>987.61</ele>
        <time>2025-04-15T15:11:56.022Z</time>
      </trkpt>
      <trkpt lat="44.92386" lon="3.87695">
        <ele>987.13</ele>
        <time>2025-04-15T15:12:01.089Z</time>
      </trkpt>
      <trkpt lat="44.92417" lon="3.87704">
        <ele>986.54</ele>
        <time>2025-04-15T15:12:06.161Z</time>
      </trkpt>
      <trkpt lat="44.92447" lon="3.87707">
        <ele>985.87</ele>
        <time>2025-04-15T15:12:11.238Z</time>
      </trkpt>
      <trkpt lat="44.92478" lon="3.8771">
        <ele>985.22</ele>
        <time>2025-04-15T15:12:16.320Z</time>
      </trkpt>
      <trkpt lat="44.92509" lon="3.87713">
        <ele>984.55</ele>
        <time>2025-04-15T15:12:21.407Z</time>
      </trkpt>
      <trkpt lat="44.92539" lon="3.87717">
        <ele>983.8</ele>
        <time>2025-04-15T15:12:26.499Z</time>
      </trkpt>
      <trkpt lat="44.9257" lon="3.87723">
        <ele>982.97</ele>
        <time>2025-04-15T15:12:31.596Z</time>
      </trkpt>
      <trkpt lat="44.926" lon="3.87729">
        <ele>982.1</ele>
        <time>2025-04-15T15:12:36.698Z</time>
      </trkpt>
      <trkpt lat="44.9263" lon="3.87735">
        <ele>981.26</ele>
        <time>2025-04-15T15:12:41.805Z</time>
      </trkpt>
      <trkpt lat="44.92661" lon="3.87741">
        <ele>980.39</ele>
        <time>2025-04-15T15:12:46.917Z</time>
      </trkpt>
      <trkpt lat="44.92691" lon="3.87747">
        <ele>979.52</ele>
        <time>2025-04-15T15:12:52.033Z</time>
      </trkpt>
      <trkpt lat="44.92721" lon="3.87753">
        <ele>978.64</ele>
        <time>2025-04-15T15:12:57.154Z</time>
      </trkpt>
      <trkpt lat="44.92752" lon="3.87759">
        <ele>977.68</ele>
        <time>2025-04-15T15:13:02.280Z</time>
      </trkpt>
      <trkpt lat="44.92777" lon="3.87762">
        <ele>976.73</ele>
        <time>2025-04-15T15:13:07.410Z</time>
      </trkpt>
      <trkpt lat="44.92803" lon="3.87765">
        <ele>975.79</ele>
        <time>2025-04-15T15:13:12.545Z</time>
      </trkpt>
      <trkpt lat="44.92829" lon="3.87768">
        <ele>974.85</ele>
        <time>2025-04-15T15:13:17.684Z</time>
      </trkpt>
      <trkpt lat="44.92855" lon="3.87771">
        <ele>973.84</ele>
        <time>2025-04-15T15:13:22.827Z</time>
      </trkpt>
      <trkpt lat="44.9288" lon="3.87775">
        <ele>972.8</ele>
        <time>2025-04-15T15:13:27.974Z</time>
      </trkpt>
      <trkpt lat="44.92911" lon="3.87781">
        <ele>971.77</ele>
        <time>2025-04-15T15:13:33.126Z</time>
      </trkpt>
      <trkpt lat="44.92941" lon="3.87788">
        <ele>970.73</ele>
        <time>2025-04-15T15:13:38.283Z</time>
      </trkpt>
      <trkpt lat="44.92972" lon="3.87795">
        <ele>969.71</ele>
        <time>2025-04-15T15:13:43.445Z</time>
      </trkpt>
      <trkpt lat="44.93002" lon="3.87802">
        <ele>968.76</ele>
        <time>2025-04-15T15:13:48.612Z</time>
      </trkpt>
      <trkpt lat="44.93032" lon="3.87808">
        <ele>967.94</ele>
        <time>2025-04-15T15:13:53.784Z</time>
      </trkpt>
      <trkpt lat="44.93063" lon="3.87815">
        <ele>967.12</ele>
        <time>2025-04-15T15:13:58.960Z</time>
      </trkpt>
      <trkpt lat="44.93093" lon="3.87822">
        <ele>966.16</ele>
        <time>2025-04-15T15:14:04.141Z</time>
      </trkpt>
      <trkpt lat="44.93116" lon="3.87824">
        <ele>965.21</ele>
        <time>2025-04-15T15:14:09.326Z</time>
      </trkpt>
      <trkpt lat="44.93139" lon="3.87826">
        <ele>964.31</ele>
        <time>2025-04-15T15:14:14.515Z</time>
      </trkpt>
      <trkpt lat="44.93161" lon="3.87828">
        <ele>963.45</ele>
        <time>2025-04-15T15:14:19.707Z</time>
      </trkpt>
      <trkpt lat="44.93187" lon="3.87823">
        <ele>962.62</ele>
        <time>2025-04-15T15:14:24.904Z</time>
      </trkpt>
      <trkpt lat="44.93213" lon="3.87818">
        <ele>961.9</ele>
        <time>2025-04-15T15:14:30.105Z</time>
      </trkpt>
      <trkpt lat="44.93239" lon="3.87813">
        <ele>961.17</ele>
        <time>2025-04-15T15:14:35.310Z</time>
      </trkpt>
      <trkpt lat="44.9326" lon="3.87808">
        <ele>960.34</ele>
        <time>2025-04-15T15:14:40.518Z</time>
      </trkpt>
      <trkpt lat="44.93282" lon="3.87802">
        <ele>959.53</ele>
        <time>2025-04-15T15:14:45.730Z</time>
      </trkpt>
      <trkpt lat="44.9329" lon="3.87805">
        <ele>958.8</ele>
        <time>2025-04-15T15:14:50.943Z</time>
      </trkpt>
      <trkpt lat="44.93314" lon="3.87809">
        <ele>957.94</ele>
        <time>2025-04-15T15:14:56.160Z</time>
      </trkpt>
      <trkpt lat="44.93341" lon="3.87821">
        <ele>957.16</ele>
        <time>2025-04-15T15:15:01.382Z</time>
      </trkpt>
      <trkpt lat="44.93367" lon="3.87834">
        <ele>956.48</ele>
        <time>2025-04-15T15:15:06.608Z</time>
      </trkpt>
      <trkpt lat="44.93394" lon="3.87846">
        <ele>955.88</ele>
        <time>2025-04-15T15:15:11.839Z</time>
      </trkpt>
      <trkpt lat="44.93421" lon="3.87858">
        <ele>955.27</ele>
        <time>2025-04-15T15:15:17.074Z</time>
      </trkpt>
      <trkpt lat="44.93428" lon="3.87862">
        <ele>954.67</ele>
        <time>2025-04-15T15:15:22.310Z</time>
      </trkpt>
      <trkpt lat="44.93447" lon="3.87873">
        <ele>954.08</ele>
        <time>2025-04-15T15:15:27.550Z</time>
      </trkpt>
      <trkpt lat="44.93466" lon="3.87884">
        <ele>953.48</ele>
        <time>2025-04-15T15:15:32.793Z</time>
      </trkpt>
      <trkpt lat="44.93479" lon="3.87914">
        <ele>952.85</ele>
        <time>2025-04-15T15:15:38.040Z</time>
      </trkpt>
      <trkpt lat="44.93483" lon="3.8794">
        <ele>952.21</ele>
        <time>2025-04-15T15:15:43.290Z</time>
      </trkpt>
      <trkpt lat="44.93483" lon="3.8794">
        <ele>951.62</ele>
        <time>2025-04-15T15:15:48.540Z</time>
      </trkpt>
      <trkpt lat="44.9349" lon="3.87969">
        <ele>950.96</ele>
        <time>2025-04-15T15:15:53.793Z</time>
      </trkpt>
      <trkpt lat="44.93496" lon="3.87998">
        <ele>950.27</ele>
        <time>2025-04-15T15:15:59.050Z</time>
      </trkpt>
      <trkpt lat="44.93495" lon="3.8802">
        <ele>949.57</ele>
        <time>2025-04-15T15:16:04.309Z</time>
      </trkpt>
      <trkpt lat="44.93494" lon="3.88043">
        <ele>948.83</ele>
        <time>2025-04-15T15:16:09.571Z</time>
      </trkpt>
      <trkpt lat="44.93512" lon="3.88057">
        <ele>948.04</ele>
        <time>2025-04-15T15:16:14.836Z</time>
      </trkpt>
      <trkpt lat="44.93531" lon="3.88071">
        <ele>947.19</ele>
        <time>2025-04-15T15:16:20.105Z</time>
      </trkpt>
      <trkpt lat="44.93552" lon="3.88081">
        <ele>946.33</ele>
        <time>2025-04-15T15:16:25.377Z</time>
      </trkpt>
      <trkpt lat="44.93558" lon="3.88081">
        <ele>945.46</ele>
        <time>2025-04-15T15:16:30.650Z</time>
      </trkpt>
      <trkpt lat="44.93584" lon="3.88086">
        <ele>944.52</ele>
        <time>2025-04-15T15:16:35.927Z</time>
      </trkpt>
      <trkpt lat="44.93589" lon="3.88081">
        <ele>943.53</ele>
        <time>2025-04-15T15:16:41.205Z</time>
      </trkpt>
      <trkpt lat="44.93599" lon="3.88075">
        <ele>942.46</ele>
        <time>2025-04-15T15:16:46.485Z</time>
      </trkpt>
      <trkpt lat="44.93608" lon="3.88073">
        <ele>941.3</ele>
        <time>2025-04-15T15:16:51.767Z</time>
      </trkpt>
      <trkpt lat="44.93622" lon="3.88086">
        <ele>940.02</ele>
        <time>2025-04-15T15:16:57.051Z</time>
      </trkpt>
      <trkpt lat="44.93636" lon="3.88099">
        <ele>938.64</ele>
        <time>2025-04-15T15:17:02.338Z</time>
      </trkpt>
      <trkpt lat="44.93656" lon="3.88126">
        <ele>937.1</ele>
        <time>2025-04-15T15:17:07.629Z</time>
      </trkpt>
      <trkpt lat="44.93676" lon="3.88153">
        <ele>935.54</ele>
        <time>2025-04-15T15:17:12.925Z</time>
      </trkpt>
      <trkpt lat="44.93696" lon="3.8818">
        <ele>933.86</ele>
        <time>2025-04-15T15:17:18.225Z</time>
      </trkpt>
      <trkpt lat="44.93711" lon="3.88199">
        <ele>932.18</ele>
        <time>2025-04-15T15:17:23.528Z</time>
      </trkpt>
      <trkpt lat="44.93726" lon="3.88219">
        <ele>930.41</ele>
        <time>2025-04-15T15:17:28.835Z</time>
      </trkpt>
      <trkpt lat="44.93748" lon="3.88249">
        <ele>928.54</ele>
        <time>2025-04-15T15:17:34.147Z</time>
      </trkpt>
      <trkpt lat="44.93771" lon="3.88279">
        <ele>926.57</ele>
        <time>2025-04-15T15:17:39.464Z</time>
      </trkpt>
      <trkpt lat="44.93793" lon="3.8831">
        <ele>924.54</ele>
        <time>2025-04-15T15:17:44.786Z</time>
      </trkpt>
      <trkpt lat="44.93815" lon="3.8834">
        <ele>922.59</ele>
        <time>2025-04-15T15:17:50.113Z</time>
      </trkpt>
      <trkpt lat="44.93838" lon="3.88371">
        <ele>920.6</ele>
        <time>2025-04-15T15:17:55.445Z</time>
      </trkpt>
      <trkpt lat="44.9386" lon="3.88401">
        <ele>918.7</ele>
        <time>2025-04-15T15:18:00.782Z</time>
      </trkpt>
      <trkpt lat="44.93882" lon="3.88431">
        <ele>916.78</ele>
        <time>2025-04-15T15:18:06.124Z</time>
      </trkpt>
      <trkpt lat="44.93899" lon="3.8846">
        <ele>914.88</ele>
        <time>2025-04-15T15:18:11.470Z</time>
      </trkpt>
      <trkpt lat="44.93916" lon="3.88488">
        <ele>912.93</ele>
        <time>2025-04-15T15:18:16.820Z</time>
      </trkpt>
      <trkpt lat="44.93933" lon="3.88517">
        <ele>911.02</ele>
        <time>2025-04-15T15:18:22.174Z</time>
      </trkpt>
      <trkpt lat="44.9395" lon="3.88546">
        <ele>909.09</ele>
        <time>2025-04-15T15:18:27.532Z</time>
      </trkpt>
      <trkpt lat="44.93967" lon="3.88574">
        <ele>907.25</ele>
        <time>2025-04-15T15:18:32.895Z</time>
      </trkpt>
      <trkpt lat="44.93983" lon="3.88603">
        <ele>905.44</ele>
        <time>2025-04-15T15:18:38.262Z</time>
      </trkpt>
      <trkpt lat="44.93998" lon="3.88627">
        <ele>903.68</ele>
        <time>2025-04-15T15:18:43.632Z</time>
      </trkpt>
      <trkpt lat="44.94012" lon="3.88651">
        <ele>901.98</ele>
        <time>2025-04-15T15:18:49.006Z</time>
      </trkpt>
      <trkpt lat="44.94026" lon="3.88676">
        <ele>900.36</ele>
        <time>2025-04-15T15:18:54.384Z</time>
      </trkpt>
      <trkpt lat="44.94041" lon="3.88686">
        <ele>898.82</ele>
        <time>2025-04-15T15:18:59.764Z</time>
      </trkpt>
      <trkpt lat="44.94052" lon="3.88684">
        <ele>897.37</ele>
        <time>2025-04-15T15:19:05.146Z</time>
      </trkpt>
      <trkpt lat="44.94061" lon="3.88678">
        <ele>895.96</ele>
        <time>2025-04-15T15:19:10.530Z</time>
      </trkpt>
      <trkpt lat="44.94071" lon="3.88663">
        <ele>894.52</ele>
        <time>2025-04-15T15:19:15.916Z</time>
      </trkpt>
      <trkpt lat="44.94073" lon="3.88648">
        <ele>893.19</ele>
        <time>2025-04-15T15:19:21.304Z</time>
      </trkpt>
      <trkpt lat="44.94066" lon="3.8862">
        <ele>892.07</ele>
        <time>2025-04-15T15:19:26.695Z</time>
      </trkpt>
      <trkpt lat="44.94058" lon="3.88592">
        <ele>890.95</ele>
        <time>2025-04-15T15:19:32.090Z</time>
      </trkpt>
      <trkpt lat="44.94058" lon="3.88556">
        <ele>889.83</ele>
        <time>2025-04-15T15:19:37.489Z</time>
      </trkpt>
      <trkpt lat="44.94065" lon="3.88515">
        <ele>888.76</ele>
        <time>2025-04-15T15:19:42.892Z</time>
      </trkpt>
      <trkpt lat="44.94072" lon="3.88494">
        <ele>887.45</ele>
        <time>2025-04-15T15:19:48.298Z</time>
      </trkpt>
      <trkpt lat="44.9408" lon="3.88474">
        <ele>886.1</ele>
        <time>2025-04-15T15:19:53.707Z</time>
      </trkpt>
      <trkpt lat="44.94095" lon="3.88444">
        <ele>884.75</ele>
        <time>2025-04-15T15:19:59.120Z</time>
      </trkpt>
      <trkpt lat="44.9411" lon="3.88414">
        <ele>883.41</ele>
        <time>2025-04-15T15:20:04.537Z</time>
      </trkpt>
      <trkpt lat="44.94136" lon="3.88399">
        <ele>881.6</ele>
        <time>2025-04-15T15:20:09.958Z</time>
      </trkpt>
      <trkpt lat="44.94161" lon="3.88384">
        <ele>879.92</ele>
        <time>2025-04-15T15:20:15.384Z</time>
      </trkpt>
      <trkpt lat="44.94172" lon="3.88369">
        <ele>878.53</ele>
        <time>2025-04-15T15:20:20.812Z</time>
      </trkpt>
      <trkpt lat="44.94178" lon="3.88336">
        <ele>877.46</ele>
        <time>2025-04-15T15:20:26.244Z</time>
      </trkpt>
      <trkpt lat="44.94184" lon="3.88303">
        <ele>876.13</ele>
        <time>2025-04-15T15:20:31.680Z</time>
      </trkpt>
      <trkpt lat="44.9419" lon="3.8827">
        <ele>874.44</ele>
        <time>2025-04-15T15:20:37.120Z</time>
      </trkpt>
      <trkpt lat="44.94196" lon="3.88238">
        <ele>872.6</ele>
        <time>2025-04-15T15:20:42.564Z</time>
      </trkpt>
      <trkpt lat="44.94202" lon="3.88219">
        <ele>871.16</ele>
        <time>2025-04-15T15:20:48.010Z</time>
      </trkpt>
      <trkpt lat="44.94211" lon="3.88208">
        <ele>869.74</ele>
        <time>2025-04-15T15:20:53.458Z</time>
      </trkpt>
      <trkpt lat="44.94215" lon="3.88206">
        <ele>868.56</ele>
        <time>2025-04-15T15:20:58.907Z</time>
      </trkpt>
      <trkpt lat="44.94237" lon="3.88206">
        <ele>867.37</ele>
        <time>2025-04-15T15:21:04.359Z</time>
      </trkpt>
      <trkpt lat="44.94247" lon="3.88212">
        <ele>866.52</ele>
        <time>2025-04-15T15:21:09.813Z</time>
      </trkpt>
      <trkpt lat="44.94254" lon="3.88225">
        <ele>865.74</ele>
        <time>2025-04-15T15:21:15.269Z</time>
      </trkpt>
      <trkpt lat="44.9425" lon="3.88266">
        <ele>865.09</ele>
        <time>2025-04-15T15:21:20.729Z</time>
      </trkpt>
      <trkpt lat="44.94247" lon="3.88307">
        <ele>864.43</ele>
        <time>2025-04-15T15:21:26.194Z</time>
      </trkpt>
      <trkpt lat="44.94257" lon="3.88343">
        <ele>863.93</ele>
        <time>2025-04-15T15:21:31.664Z</time>
      </trkpt>
      <trkpt lat="44.94267" lon="3.8838">
        <ele>863.58</ele>
        <time>2025-04-15T15:21:37.138Z</time>
      </trkpt>
      <trkpt lat="44.94271" lon="3.88403">
        <ele>863.41</ele>
        <time>2025-04-15T15:21:42.615Z</time>
      </trkpt>
      <trkpt lat="44.94269" lon="3.88433">
        <ele>863.28</ele>
        <time>2025-04-15T15:21:48.095Z</time>
      </trkpt>
      <trkpt lat="44.94264" lon="3.88459">
        <ele>863.19</ele>
        <time>2025-04-15T15:21:53.578Z</time>
      </trkpt>
      <trkpt lat="44.94248" lon="3.88486">
        <ele>863.1</ele>
        <time>2025-04-15T15:21:59.065Z</time>
      </trkpt>
      <trkpt lat="44.94232" lon="3.88513">
        <ele>863.24</ele>
        <time>2025-04-15T15:22:04.556Z</time>
      </trkpt>
      <trkpt lat="44.9423" lon="3.88523">
        <ele>863.67</ele>
        <time>2025-04-15T15:22:10.048Z</time>
      </trkpt>
      <trkpt lat="44.94232" lon="3.88538">
        <ele>864.27</ele>
        <time>2025-04-15T15:22:15.542Z</time>
      </trkpt>
      <trkpt lat="44.94254" lon="3.88568">
        <ele>865.28</ele>
        <time>2025-04-15T15:22:21.041Z</time>
      </trkpt>
      <trkpt lat="44.94261" lon="3.88589">
        <ele>866.2</ele>
        <time>2025-04-15T15:22:26.543Z</time>
      </trkpt>
      <trkpt lat="44.94269" lon="3.88609">
        <ele>867.27</ele>
        <time>2025-04-15T15:22:32.047Z</time>
      </trkpt>
      <trkpt lat="44.9427" lon="3.88641">
        <ele>868.23</ele>
        <time>2025-04-15T15:22:37.555Z</time>
      </trkpt>
      <trkpt lat="44.94272" lon="3.88674">
        <ele>869.33</ele>
        <time>2025-04-15T15:22:43.067Z</time>
      </trkpt>
      <trkpt lat="44.94273" lon="3.88706">
        <ele>870.49</ele>
        <time>2025-04-15T15:22:48.582Z</time>
      </trkpt>
      <trkpt lat="44.94288" lon="3.88736">
        <ele>872.08</ele>
        <time>2025-04-15T15:22:54.101Z</time>
      </trkpt>
      <trkpt lat="44.94303" lon="3.88766">
        <ele>873.58</ele>
        <time>2025-04-15T15:22:59.625Z</time>
      </trkpt>
      <trkpt lat="44.94318" lon="3.88796">
        <ele>875.17</ele>
        <time>2025-04-15T15:23:05.153Z</time>
      </trkpt>
      <trkpt lat="44.94327" lon="3.88831">
        <ele>876.66</ele>
        <time>2025-04-15T15:23:10.685Z</time>
      </trkpt>
      <trkpt lat="44.94335" lon="3.88867">
        <ele>878.12</ele>
        <time>2025-04-15T15:23:16.221Z</time>
      </trkpt>
      <trkpt lat="44.94344" lon="3.88902">
        <ele>879.74</ele>
        <time>2025-04-15T15:23:21.762Z</time>
      </trkpt>
      <trkpt lat="44.94352" lon="3.88938">
        <ele>881.41</ele>
        <time>2025-04-15T15:23:27.307Z</time>
      </trkpt>
      <trkpt lat="44.94359" lon="3.88953">
        <ele>882.96</ele>
        <time>2025-04-15T15:23:32.854Z</time>
      </trkpt>
      <trkpt lat="44.94365" lon="3.88965">
        <ele>884.44</ele>
        <time>2025-04-15T15:23:38.403Z</time>
      </trkpt>
      <trkpt lat="44.9439" lon="3.88982">
        <ele>886.1</ele>
        <time>2025-04-15T15:23:43.956Z</time>
      </trkpt>
      <trkpt lat="44.94415" lon="3.88998">
        <ele>887.8</ele>
        <time>2025-04-15T15:23:49.513Z</time>
      </trkpt>
      <trkpt lat="44.9444" lon="3.89015">
        <ele>889.38</ele>
        <time>2025-04-15T15:23:55.075Z</time>
      </trkpt>
      <trkpt lat="44.94449" lon="3.89019">
        <ele>890.74</ele>
        <time>2025-04-15T15:24:00.638Z</time>
      </trkpt>
      <trkpt lat="44.94449" lon="3.89019">
        <ele>891.98</ele>
        <time>2025-04-15T15:24:06.201Z</time>
      </trkpt>
      <trkpt lat="44.94466" lon="3.89023">
        <ele>893.2</ele>
        <time>2025-04-15T15:24:11.767Z</time>
      </trkpt>
      <trkpt lat="44.9447" lon="3.89024">
        <ele>894.27</ele>
        <time>2025-04-15T15:24:17.334Z</time>
      </trkpt>
      <trkpt lat="44.94492" lon="3.8903">
        <ele>895.23</ele>
        <time>2025-04-15T15:24:22.904Z</time>
      </trkpt>
      <trkpt lat="44.94522" lon="3.89032">
        <ele>896.17</ele>
        <time>2025-04-15T15:24:28.479Z</time>
      </trkpt>
      <trkpt lat="44.94522" lon="3.89032">
        <ele>896.91</ele>
        <time>2025-04-15T15:24:34.054Z</time>
      </trkpt>
      <trkpt lat="44.94553" lon="3.89034">
        <ele>897.68</ele>
        <time>2025-04-15T15:24:39.634Z</time>
      </trkpt>
      <trkpt lat="44.94584" lon="3.89035">
        <ele>898.24</ele>
        <time>2025-04-15T15:24:45.219Z</time>
      </trkpt>
      <trkpt lat="44.94615" lon="3.89037">
        <ele>898.56</ele>
        <time>2025-04-15T15:24:50.809Z</time>
      </trkpt>
      <trkpt lat="44.94646" lon="3.89038">
        <ele>898.89</ele>
        <time>2025-04-15T15:24:56.404Z</time>
      </trkpt>
      <trkpt lat="44.94677" lon="3.8904">
        <ele>899.13</ele>
        <time>2025-04-15T15:25:02.004Z</time>
      </trkpt>
      <trkpt lat="44.94708" lon="3.89042">
        <ele>899.36</ele>
        <time>2025-04-15T15:25:07.609Z</time>
      </trkpt>
      <trkpt lat="44.9474" lon="3.89043">
        <ele>899.39</ele>
        <time>2025-04-15T15:25:13.219Z</time>
      </trkpt>
      <trkpt lat="44.94771" lon="3.89045">
        <ele>899.26</ele>
        <time>2025-04-15T15:25:18.834Z</time>
      </trkpt>
      <trkpt lat="44.948" lon="3.89045">
        <ele>899.05</ele>
        <time>2025-04-15T15:25:24.454Z</time>
      </trkpt>
      <trkpt lat="44.9483" lon="3.89046">
        <ele>898.88</ele>
        <time>2025-04-15T15:25:30.078Z</time>
      </trkpt>
      <trkpt lat="44.9486" lon="3.89046">
        <ele>898.62</ele>
        <time>2025-04-15T15:25:35.707Z</time>
      </trkpt>
      <trkpt lat="44.94889" lon="3.89046">
        <ele>898.27</ele>
        <time>2025-04-15T15:25:41.341Z</time>
      </trkpt>
      <trkpt lat="44.94919" lon="3.89047">
        <ele>897.81</ele>
        <time>2025-04-15T15:25:46.980Z</time>
      </trkpt>
      <trkpt lat="44.94949" lon="3.89047">
        <ele>897.41</ele>
        <time>2025-04-15T15:25:52.623Z</time>
      </trkpt>
      <trkpt lat="44.9497" lon="3.89041">
        <ele>897.01</ele>
        <time>2025-04-15T15:25:58.270Z</time>
      </trkpt>
      <trkpt lat="44.94996" lon="3.89025">
        <ele>896.52</ele>
        <time>2025-04-15T15:26:03.921Z</time>
      </trkpt>
      <trkpt lat="44.95022" lon="3.8901">
        <ele>896.03</ele>
        <time>2025-04-15T15:26:09.577Z</time>
      </trkpt>
      <trkpt lat="44.95047" lon="3.8899">
        <ele>895.55</ele>
        <time>2025-04-15T15:26:15.237Z</time>
      </trkpt>
      <trkpt lat="44.95071" lon="3.8897">
        <ele>895.15</ele>
        <time>2025-04-15T15:26:20.902Z</time>
      </trkpt>
      <trkpt lat="44.95094" lon="3.88951">
        <ele>894.73</ele>
        <time>2025-04-15T15:26:26.571Z</time>
      </trkpt>
      <trkpt lat="44.95118" lon="3.88932">
        <ele>894.3</ele>
        <time>2025-04-15T15:26:32.245Z</time>
      </trkpt>
      <trkpt lat="44.95141" lon="3.88913">
        <ele>893.82</ele>
        <time>2025-04-15T15:26:37.923Z</time>
      </trkpt>
      <trkpt lat="44.95164" lon="3.88894">
        <ele>893.29</ele>
        <time>2025-04-15T15:26:43.605Z</time>
      </trkpt>
      <trkpt lat="44.95187" lon="3.88875">
        <ele>892.78</ele>
        <time>2025-04-15T15:26:49.291Z</time>
      </trkpt>
      <trkpt lat="44.95211" lon="3.88856">
        <ele>892.23</ele>
        <time>2025-04-15T15:26:54.982Z</time>
      </trkpt>
      <trkpt lat="44.95225" lon="3.88847">
        <ele>891.68</ele>
        <time>2025-04-15T15:27:00.675Z</time>
      </trkpt>
      <trkpt lat="44.95236" lon="3.88841">
        <ele>891.11</ele>
        <time>2025-04-15T15:27:06.370Z</time>
      </trkpt>
      <trkpt lat="44.95236" lon="3.88841">
        <ele>890.49</ele>
        <time>2025-04-15T15:27:12.065Z</time>
      </trkpt>
      <trkpt lat="44.95264" lon="3.88846">
        <ele>889.84</ele>
        <time>2025-04-15T15:27:17.765Z</time>
      </trkpt>
      <trkpt lat="44.95292" lon="3.8885">
        <ele>889.12</ele>
        <time>2025-04-15T15:27:23.469Z</time>
      </trkpt>
      <trkpt lat="44.9532" lon="3.88855">
        <ele>888.36</ele>
        <time>2025-04-15T15:27:29.178Z</time>
      </trkpt>
      <trkpt lat="44.95348" lon="3.88859">
        <ele>887.54</ele>
        <time>2025-04-15T15:27:34.891Z</time>
      </trkpt>
      <trkpt lat="44.95376" lon="3.88864">
        <ele>886.73</ele>
        <time>2025-04-15T15:27:40.609Z</time>
      </trkpt>
      <trkpt lat="44.95404" lon="3.88869">
        <ele>885.88</ele>
        <time>2025-04-15T15:27:46.331Z</time>
      </trkpt>
      <trkpt lat="44.95432" lon="3.88873">
        <ele>885.09</ele>
        <time>2025-04-15T15:27:52.058Z</time>
      </trkpt>
      <trkpt lat="44.95439" lon="3.88875">
        <ele>884.27</ele>
        <time>2025-04-15T15:27:57.786Z</time>
      </trkpt>
      <trkpt lat="44.95457" lon="3.88878">
        <ele>883.41</ele>
        <time>2025-04-15T15:28:03.517Z</time>
      </trkpt>
      <trkpt lat="44.95475" lon="3.88882">
        <ele>882.56</ele>
        <time>2025-04-15T15:28:09.251Z</time>
      </trkpt>
      <trkpt lat="44.95495" lon="3.88887">
        <ele>881.73</ele>
        <time>2025-04-15T15:28:14.988Z</time>
      </trkpt>
      <trkpt lat="44.95516" lon="3.88892">
        <ele>880.92</ele>
        <time>2025-04-15T15:28:20.728Z</time>
      </trkpt>
      <trkpt lat="44.95537" lon="3.88897">
        <ele>880.11</ele>
        <time>2025-04-15T15:28:26.472Z</time>
      </trkpt>
      <trkpt lat="44.95557" lon="3.88898">
        <ele>879.32</ele>
        <time>2025-04-15T15:28:32.219Z</time>
      </trkpt>
      <trkpt lat="44.95578" lon="3.88899">
        <ele>878.52</ele>
        <time>2025-04-15T15:28:37.969Z</time>
      </trkpt>
      <trkpt lat="44.95606" lon="3.88884">
        <ele>877.73</ele>
        <time>2025-04-15T15:28:43.724Z</time>
      </trkpt>
      <trkpt lat="44.95635" lon="3.88868">
        <ele>876.99</ele>
        <time>2025-04-15T15:28:49.484Z</time>
      </trkpt>
      <trkpt lat="44.95663" lon="3.88853">
        <ele>876.18</ele>
        <time>2025-04-15T15:28:55.249Z</time>
      </trkpt>
      <trkpt lat="44.95692" lon="3.88837">
        <ele>875.34</ele>
        <time>2025-04-15T15:29:01.019Z</time>
      </trkpt>
      <trkpt lat="44.95721" lon="3.88822">
        <ele>874.48</ele>
        <time>2025-04-15T15:29:06.794Z</time>
      </trkpt>
      <trkpt lat="44.95749" lon="3.88807">
        <ele>873.74</ele>
        <time>2025-04-15T15:29:12.574Z</time>
      </trkpt>
      <trkpt lat="44.95765" lon="3.888">
        <ele>873.08</ele>
        <time>2025-04-15T15:29:18.356Z</time>
      </trkpt>
      <trkpt lat="44.95781" lon="3.88794">
        <ele>872.52</ele>
        <time>2025-04-15T15:29:24.141Z</time>
      </trkpt>
      <trkpt lat="44.95796" lon="3.88798">
        <ele>872.01</ele>
        <time>2025-04-15T15:29:29.928Z</time>
      </trkpt>
      <trkpt lat="44.95822" lon="3.88806">
        <ele>871.56</ele>
        <time>2025-04-15T15:29:35.720Z</time>
      </trkpt>
      <trkpt lat="44.95848" lon="3.88813">
        <ele>871.14</ele>
        <time>2025-04-15T15:29:41.516Z</time>
      </trkpt>
      <trkpt lat="44.95875" lon="3.88821">
        <ele>870.78</ele>
        <time>2025-04-15T15:29:47.316Z</time>
      </trkpt>
      <trkpt lat="44.95901" lon="3.88829">
        <ele>870.41</ele>
        <time>2025-04-15T15:29:53.121Z</time>
      </trkpt>
      <trkpt lat="44.95927" lon="3.88837">
        <ele>870.16</ele>
        <time>2025-04-15T15:29:58.930Z</time>
      </trkpt>
      <trkpt lat="44.95948" lon="3.8883">
        <ele>869.97</ele>
        <time>2025-04-15T15:30:04.742Z</time>
      </trkpt>
      <trkpt lat="44.95969" lon="3.88824">
        <ele>869.82</ele>
        <time>2025-04-15T15:30:10.558Z</time>
      </trkpt>
      <trkpt lat="44.9599" lon="3.88817">
        <ele>869.61</ele>
        <time>2025-04-15T15:30:16.377Z</time>
      </trkpt>
      <trkpt lat="44.96018" lon="3.88811">
        <ele>869.5</ele>
        <time>2025-04-15T15:30:22.201Z</time>
      </trkpt>
      <trkpt lat="44.9604" lon="3.8881">
        <ele>869.41</ele>
        <time>2025-04-15T15:30:28.028Z</time>
      </trkpt>
      <trkpt lat="44.96062" lon="3.88809">
        <ele>869.34</ele>
        <time>2025-04-15T15:30:33.859Z</time>
      </trkpt>
      <trkpt lat="44.96084" lon="3.88809">
        <ele>869.3</ele>
        <time>2025-04-15T15:30:39.693Z</time>
      </trkpt>
      <trkpt lat="44.96095" lon="3.8881">
        <ele>869.24</ele>
        <time>2025-04-15T15:30:45.529Z</time>
      </trkpt>
      <trkpt lat="44.96121" lon="3.88814">
        <ele>869.18</ele>
        <time>2025-04-15T15:30:51.369Z</time>
      </trkpt>
      <trkpt lat="44.96148" lon="3.88818">
        <ele>869.01</ele>
        <time>2025-04-15T15:30:57.213Z</time>
      </trkpt>
      <trkpt lat="44.96174" lon="3.88822">
        <ele>868.95</ele>
        <time>2025-04-15T15:31:03.062Z</time>
      </trkpt>
      <trkpt lat="44.96193" lon="3.88812">
        <ele>868.96</ele>
        <time>2025-04-15T15:31:08.914Z</time>
      </trkpt>
      <trkpt lat="44.96213" lon="3.88802">
        <ele>868.92</ele>
        <time>2025-04-15T15:31:14.769Z</time>
      </trkpt>
      <trkpt lat="44.96237" lon="3.88784">
        <ele>868.76</ele>
        <time>2025-04-15T15:31:20.629Z</time>
      </trkpt>
      <trkpt lat="44.96262" lon="3.88766">
        <ele>868.47</ele>
        <time>2025-04-15T15:31:26.493Z</time>
      </trkpt>
      <trkpt lat="44.96293" lon="3.88764">
        <ele>868.22</ele>
        <time>2025-04-15T15:31:32.362Z</time>
      </trkpt>
      <trkpt lat="44.96324" lon="3.88763">
        <ele>867.99</ele>
        <time>2025-04-15T15:31:38.236Z</time>
      </trkpt>
      <trkpt lat="44.96354" lon="3.88762">
        <ele>867.63</ele>
        <time>2025-04-15T15:31:44.115Z</time>
      </trkpt>
      <trkpt lat="44.96385" lon="3.88759">
        <ele>867.18</ele>
        <time>2025-04-15T15:31:49.999Z</time>
      </trkpt>
      <trkpt lat="44.96416" lon="3.88756">
        <ele>866.67</ele>
        <time>2025-04-15T15:31:55.888Z</time>
      </trkpt>
      <trkpt lat="44.96447" lon="3.88753">
        <ele>866.11</ele>
        <time>2025-04-15T15:32:01.782Z</time>
      </trkpt>
      <trkpt lat="44.96472" lon="3.88751">
        <ele>865.55</ele>
        <time>2025-04-15T15:32:07.680Z</time>
      </trkpt>
      <trkpt lat="44.96498" lon="3.8875">
        <ele>864.93</ele>
        <time>2025-04-15T15:32:13.582Z</time>
      </trkpt>
      <trkpt lat="44.96524" lon="3.88748">
        <ele>864.26</ele>
        <time>2025-04-15T15:32:19.488Z</time>
      </trkpt>
      <trkpt lat="44.9655" lon="3.88747">
        <ele>863.47</ele>
        <time>2025-04-15T15:32:25.398Z</time>
      </trkpt>
      <trkpt lat="44.96576" lon="3.88744">
        <ele>862.65</ele>
        <time>2025-04-15T15:32:31.313Z</time>
      </trkpt>
      <trkpt lat="44.96603" lon="3.88742">
        <ele>861.81</ele>
        <time>2025-04-15T15:32:37.232Z</time>
      </trkpt>
      <trkpt lat="44.96629" lon="3.8874">
        <ele>860.92</ele>
        <time>2025-04-15T15:32:43.155Z</time>
      </trkpt>
      <trkpt lat="44.96656" lon="3.88738">
        <ele>860.02</ele>
        <time>2025-04-15T15:32:49.082Z</time>
      </trkpt>
      <trkpt lat="44.96683" lon="3.88736">
        <ele>859.11</ele>
        <time>2025-04-15T15:32:55.014Z</time>
      </trkpt>
      <trkpt lat="44.9671" lon="3.88751">
        <ele>858.2</ele>
        <time>2025-04-15T15:33:00.950Z</time>
      </trkpt>
      <trkpt lat="44.96736" lon="3.88766">
        <ele>857.29</ele>
        <time>2025-04-15T15:33:06.891Z</time>
      </trkpt>
      <trkpt lat="44.96756" lon="3.88772">
        <ele>856.44</ele>
        <time>2025-04-15T15:33:12.835Z</time>
      </trkpt>
      <trkpt lat="44.96764" lon="3.88772">
        <ele>855.64</ele>
        <time>2025-04-15T15:33:18.780Z</time>
      </trkpt>
      <trkpt lat="44.9678" lon="3.88764">
        <ele>854.86</ele>
        <time>2025-04-15T15:33:24.728Z</time>
      </trkpt>
      <trkpt lat="44.96796" lon="3.88755">
        <ele>854.08</ele>
        <time>2025-04-15T15:33:30.679Z</time>
      </trkpt>
      <trkpt lat="44.96816" lon="3.88749">
        <ele>853.32</ele>
        <time>2025-04-15T15:33:36.633Z</time>
      </trkpt>
      <trkpt lat="44.96835" lon="3.88742">
        <ele>852.56</ele>
        <time>2025-04-15T15:33:42.590Z</time>
      </trkpt>
      <trkpt lat="44.96829" lon="3.88779">
        <ele>851.77</ele>
        <time>2025-04-15T15:33:48.552Z</time>
      </trkpt>
      <trkpt lat="44.96822" lon="3.88792">
        <ele>851.02</ele>
        <time>2025-04-15T15:33:54.515Z</time>
      </trkpt>
      <trkpt lat="44.968" lon="3.88805">
        <ele>850.3</ele>
        <time>2025-04-15T15:34:00.482Z</time>
      </trkpt>
      <trkpt lat="44.96778" lon="3.88818">
        <ele>849.58</ele>
        <time>2025-04-15T15:34:06.453Z</time>
      </trkpt>
      <trkpt lat="44.96756" lon="3.88832">
        <ele>848.81</ele>
        <time>2025-04-15T15:34:12.428Z</time>
      </trkpt>
      <trkpt lat="44.96734" lon="3.88845">
        <ele>848.07</ele>
        <time>2025-04-15T15:34:18.407Z</time>
      </trkpt>
      <trkpt lat="44.96713" lon="3.88871">
        <ele>847.15</ele>
        <time>2025-04-15T15:34:24.390Z</time>
      </trkpt>
      <trkpt lat="44.96691" lon="3.88897">
        <ele>846.09</ele>
        <time>2025-04-15T15:34:30.378Z</time>
      </trkpt>
      <trkpt lat="44.96667" lon="3.8892">
        <ele>845.09</ele>
        <time>2025-04-15T15:34:36.370Z</time>
      </trkpt>
      <trkpt lat="44.96643" lon="3.88944">
        <ele>844.04</ele>
        <time>2025-04-15T15:34:42.367Z</time>
      </trkpt>
      <trkpt lat="44.96618" lon="3.88968">
        <ele>843</ele>
        <time>2025-04-15T15:34:48.369Z</time>
      </trkpt>
      <trkpt lat="44.96597" lon="3.88995">
        <ele>841.82</ele>
        <time>2025-04-15T15:34:54.376Z</time>
      </trkpt>
      <trkpt lat="44.96614" lon="3.88991">
        <ele>840.6</ele>
        <time>2025-04-15T15:35:00.385Z</time>
      </trkpt>
      <trkpt lat="44.96628" lon="3.88979">
        <ele>839.35</ele>
        <time>2025-04-15T15:35:06.397Z</time>
      </trkpt>
      <trkpt lat="44.96642" lon="3.88968">
        <ele>838.08</ele>
        <time>2025-04-15T15:35:12.412Z</time>
      </trkpt>
      <trkpt lat="44.96669" lon="3.8895">
        <ele>836.59</ele>
        <time>2025-04-15T15:35:18.431Z</time>
      </trkpt>
      <trkpt lat="44.96695" lon="3.88933">
        <ele>835.18</ele>
        <time>2025-04-15T15:35:24.455Z</time>
      </trkpt>
      <trkpt lat="44.96722" lon="3.88916">
        <ele>833.7</ele>
        <time>2025-04-15T15:35:30.484Z</time>
      </trkpt>
      <trkpt lat="44.96748" lon="3.88899">
        <ele>832.16</ele>
        <time>2025-04-15T15:35:36.517Z</time>
      </trkpt>
      <trkpt lat="44.96775" lon="3.88882">
        <ele>830.61</ele>
        <time>2025-04-15T15:35:42.555Z</time>
      </trkpt>
      <trkpt lat="44.96804" lon="3.88877">
        <ele>828.78</ele>
        <time>2025-04-15T15:35:48.598Z</time>
      </trkpt>
      <trkpt lat="44.96833" lon="3.88873">
        <ele>827.07</ele>
        <time>2025-04-15T15:35:54.645Z</time>
      </trkpt>
      <trkpt lat="44.96862" lon="3.88867">
        <ele>825.3</ele>
        <time>2025-04-15T15:36:00.697Z</time>
      </trkpt>
      <trkpt lat="44.96891" lon="3.8886">
        <ele>823.49</ele>
        <time>2025-04-15T15:36:06.754Z</time>
      </trkpt>
      <trkpt lat="44.9691" lon="3.8886">
        <ele>821.63</ele>
        <time>2025-04-15T15:36:12.814Z</time>
      </trkpt>
      <trkpt lat="44.96934" lon="3.88862">
        <ele>819.62</ele>
        <time>2025-04-15T15:36:18.878Z</time>
      </trkpt>
      <trkpt lat="44.96957" lon="3.88865">
        <ele>817.79</ele>
        <time>2025-04-15T15:36:24.945Z</time>
      </trkpt>
      <trkpt lat="44.96981" lon="3.88867">
        <ele>815.98</ele>
        <time>2025-04-15T15:36:31.016Z</time>
      </trkpt>
      <trkpt lat="44.97005" lon="3.88869">
        <ele>814.18</ele>
        <time>2025-04-15T15:36:37.091Z</time>
      </trkpt>
      <trkpt lat="44.97029" lon="3.88875">
        <ele>812.44</ele>
        <time>2025-04-15T15:36:43.170Z</time>
      </trkpt>
      <trkpt lat="44.97054" lon="3.88882">
        <ele>810.8</ele>
        <time>2025-04-15T15:36:49.253Z</time>
      </trkpt>
      <trkpt lat="44.97083" lon="3.88891">
        <ele>809.1</ele>
        <time>2025-04-15T15:36:55.341Z</time>
      </trkpt>
      <trkpt lat="44.97111" lon="3.889">
        <ele>807.3</ele>
        <time>2025-04-15T15:37:01.433Z</time>
      </trkpt>
      <trkpt lat="44.9714" lon="3.8891">
        <ele>805.5</ele>
        <time>2025-04-15T15:37:07.530Z</time>
      </trkpt>
      <trkpt lat="44.9714" lon="3.8891">
        <ele>804.02</ele>
        <time>2025-04-15T15:37:13.627Z</time>
      </trkpt>
      <trkpt lat="44.97163" lon="3.88912">
        <ele>802.43</ele>
        <time>2025-04-15T15:37:19.728Z</time>
      </trkpt>
      <trkpt lat="44.97183" lon="3.88903">
        <ele>801.04</ele>
        <time>2025-04-15T15:37:25.832Z</time>
      </trkpt>
      <trkpt lat="44.97198" lon="3.88884">
        <ele>799.62</ele>
        <time>2025-04-15T15:37:31.939Z</time>
      </trkpt>
      <trkpt lat="44.97202" lon="3.88869">
        <ele>798.33</ele>
        <time>2025-04-15T15:37:38.048Z</time>
      </trkpt>
      <trkpt lat="44.972" lon="3.88839">
        <ele>797.07</ele>
        <time>2025-04-15T15:37:44.161Z</time>
      </trkpt>
      <trkpt lat="44.97188" lon="3.88803">
        <ele>795.77</ele>
        <time>2025-04-15T15:37:50.278Z</time>
      </trkpt>
      <trkpt lat="44.97176" lon="3.88768">
        <ele>794.63</ele>
        <time>2025-04-15T15:37:56.399Z</time>
      </trkpt>
      <trkpt lat="44.97174" lon="3.88747">
        <ele>793.51</ele>
        <time>2025-04-15T15:38:02.523Z</time>
      </trkpt>
      <trkpt lat="44.97178" lon="3.88736">
        <ele>792.23</ele>
        <time>2025-04-15T15:38:08.648Z</time>
      </trkpt>
      <trkpt lat="44.97196" lon="3.88721">
        <ele>790.83</ele>
        <time>2025-04-15T15:38:14.777Z</time>
      </trkpt>
      <trkpt lat="44.97215" lon="3.88713">
        <ele>789.38</ele>
        <time>2025-04-15T15:38:20.909Z</time>
      </trkpt>
      <trkpt lat="44.97234" lon="3.88706">
        <ele>788.01</ele>
        <time>2025-04-15T15:38:27.044Z</time>
      </trkpt>
      <trkpt lat="44.97261" lon="3.88704">
        <ele>786.65</ele>
        <time>2025-04-15T15:38:33.183Z</time>
      </trkpt>
      <trkpt lat="44.97287" lon="3.88701">
        <ele>785.24</ele>
        <time>2025-04-15T15:38:39.326Z</time>
      </trkpt>
      <trkpt lat="44.97314" lon="3.88699">
        <ele>783.83</ele>
        <time>2025-04-15T15:38:45.474Z</time>
      </trkpt>
      <trkpt lat="44.9734" lon="3.88697">
        <ele>782.27</ele>
        <time>2025-04-15T15:38:51.626Z</time>
      </trkpt>
      <trkpt lat="44.97367" lon="3.88695">
        <ele>780.79</ele>
        <time>2025-04-15T15:38:57.782Z</time>
      </trkpt>
      <trkpt lat="44.97396" lon="3.88686">
        <ele>779.33</ele>
        <time>2025-04-15T15:39:03.943Z</time>
      </trkpt>
      <trkpt lat="44.97425" lon="3.88677">
        <ele>777.66</ele>
        <time>2025-04-15T15:39:10.109Z</time>
      </trkpt>
      <trkpt lat="44.97454" lon="3.88668">
        <ele>776.07</ele>
        <time>2025-04-15T15:39:16.280Z</time>
      </trkpt>
      <trkpt lat="44.97483" lon="3.88659">
        <ele>774.73</ele>
        <time>2025-04-15T15:39:22.455Z</time>
      </trkpt>
      <trkpt lat="44.97505" lon="3.88653">
        <ele>773.31</ele>
        <time>2025-04-15T15:39:28.634Z</time>
      </trkpt>
      <trkpt lat="44.97526" lon="3.88646">
        <ele>771.77</ele>
        <time>2025-04-15T15:39:34.816Z</time>
      </trkpt>
      <trkpt lat="44.97547" lon="3.88639">
        <ele>770.04</ele>
        <time>2025-04-15T15:39:41.002Z</time>
      </trkpt>
      <trkpt lat="44.97569" lon="3.88629">
        <ele>768.14</ele>
        <time>2025-04-15T15:39:47.191Z</time>
      </trkpt>
      <trkpt lat="44.97586" lon="3.88614">
        <ele>766.5</ele>
        <time>2025-04-15T15:39:53.384Z</time>
      </trkpt>
      <trkpt lat="44.97606" lon="3.88593">
        <ele>764.78</ele>
        <time>2025-04-15T15:39:59.581Z</time>
      </trkpt>
      <trkpt lat="44.97626" lon="3.88573">
        <ele>762.97</ele>
        <time>2025-04-15T15:40:05.782Z</time>
      </trkpt>
      <trkpt lat="44.97646" lon="3.88552">
        <ele>761.1</ele>
        <time>2025-04-15T15:40:11.986Z</time>
      </trkpt>
      <trkpt lat="44.97665" lon="3.88532">
        <ele>759.17</ele>
        <time>2025-04-15T15:40:18.194Z</time>
      </trkpt>
      <trkpt lat="44.97683" lon="3.88521">
        <ele>757.2</ele>
        <time>2025-04-15T15:40:24.405Z</time>
      </trkpt>
      <trkpt lat="44.977" lon="3.88517">
        <ele>755.18</ele>
        <time>2025-04-15T15:40:30.619Z</time>
      </trkpt>
      <trkpt lat="44.97731" lon="3.88518">
        <ele>753.07</ele>
        <time>2025-04-15T15:40:36.838Z</time>
      </trkpt>
      <trkpt lat="44.97761" lon="3.88518">
        <ele>751.09</ele>
        <time>2025-04-15T15:40:43.062Z</time>
      </trkpt>
      <trkpt lat="44.97792" lon="3.88519">
        <ele>749.16</ele>
        <time>2025-04-15T15:40:49.291Z</time>
      </trkpt>
      <trkpt lat="44.9782" lon="3.88524">
        <ele>747.15</ele>
        <time>2025-04-15T15:40:55.524Z</time>
      </trkpt>
      <trkpt lat="44.97847" lon="3.88528">
        <ele>745.17</ele>
        <time>2025-04-15T15:41:01.762Z</time>
      </trkpt>
      <trkpt lat="44.97875" lon="3.88533">
        <ele>743.34</ele>
        <time>2025-04-15T15:41:08.004Z</time>
      </trkpt>
      <trkpt lat="44.97902" lon="3.88537">
        <ele>741.45</ele>
        <time>2025-04-15T15:41:14.251Z</time>
      </trkpt>
      <trkpt lat="44.9793" lon="3.88542">
        <ele>739.5</ele>
        <time>2025-04-15T15:41:20.502Z</time>
      </trkpt>
      <trkpt lat="44.97957" lon="3.88547">
        <ele>737.6</ele>
        <time>2025-04-15T15:41:26.758Z</time>
      </trkpt>
      <trkpt lat="44.97985" lon="3.88551">
        <ele>735.58</ele>
        <time>2025-04-15T15:41:33.018Z</time>
      </trkpt>
      <trkpt lat="44.98011" lon="3.88545">
        <ele>733.73</ele>
        <time>2025-04-15T15:41:39.282Z</time>
      </trkpt>
      <trkpt lat="44.98026" lon="3.88536">
        <ele>732.01</ele>
        <time>2025-04-15T15:41:45.549Z</time>
      </trkpt>
      <trkpt lat="44.98039" lon="3.88515">
        <ele>730.34</ele>
        <time>2025-04-15T15:41:51.819Z</time>
      </trkpt>
      <trkpt lat="44.98045" lon="3.88493">
        <ele>728.75</ele>
        <time>2025-04-15T15:41:58.092Z</time>
      </trkpt>
      <trkpt lat="44.98045" lon="3.88471">
        <ele>727.18</ele>
        <time>2025-04-15T15:42:04.367Z</time>
      </trkpt>
      <trkpt lat="44.98045" lon="3.88448">
        <ele>725.59</ele>
        <time>2025-04-15T15:42:10.645Z</time>
      </trkpt>
      <trkpt lat="44.98041" lon="3.88415">
        <ele>724.16</ele>
        <time>2025-04-15T15:42:16.927Z</time>
      </trkpt>
      <trkpt lat="44.98037" lon="3.88382">
        <ele>722.65</ele>
        <time>2025-04-15T15:42:23.213Z</time>
      </trkpt>
      <trkpt lat="44.98044" lon="3.88346">
        <ele>720.92</ele>
        <time>2025-04-15T15:42:29.503Z</time>
      </trkpt>
      <trkpt lat="44.98052" lon="3.88311">
        <ele>719.35</ele>
        <time>2025-04-15T15:42:35.797Z</time>
      </trkpt>
      <trkpt lat="44.98055" lon="3.88287">
        <ele>717.87</ele>
        <time>2025-04-15T15:42:42.094Z</time>
      </trkpt>
      <trkpt lat="44.98058" lon="3.88264">
        <ele>716.36</ele>
        <time>2025-04-15T15:42:48.393Z</time>
      </trkpt>
      <trkpt lat="44.98063" lon="3.8823">
        <ele>714.87</ele>
        <time>2025-04-15T15:42:54.696Z</time>
      </trkpt>
      <trkpt lat="44.98068" lon="3.88196">
        <ele>713.43</ele>
        <time>2025-04-15T15:43:01.003Z</time>
      </trkpt>
      <trkpt lat="44.98073" lon="3.88162">
        <ele>712.06</ele>
        <time>2025-04-15T15:43:07.314Z</time>
      </trkpt>
      <trkpt lat="44.98077" lon="3.88129">
        <ele>710.6</ele>
        <time>2025-04-15T15:43:13.629Z</time>
      </trkpt>
      <trkpt lat="44.9809" lon="3.88092">
        <ele>708.91</ele>
        <time>2025-04-15T15:43:19.949Z</time>
      </trkpt>
      <trkpt lat="44.9811" lon="3.88073">
        <ele>707.53</ele>
        <time>2025-04-15T15:43:26.272Z</time>
      </trkpt>
      <trkpt lat="44.98135" lon="3.88066">
        <ele>706.33</ele>
        <time>2025-04-15T15:43:32.600Z</time>
      </trkpt>
      <trkpt lat="44.98155" lon="3.88064">
        <ele>705.18</ele>
        <time>2025-04-15T15:43:38.931Z</time>
      </trkpt>
      <trkpt lat="44.98174" lon="3.88068">
        <ele>704.09</ele>
        <time>2025-04-15T15:43:45.265Z</time>
      </trkpt>
      <trkpt lat="44.98193" lon="3.88079">
        <ele>703.13</ele>
        <time>2025-04-15T15:43:51.602Z</time>
      </trkpt>
      <trkpt lat="44.98193" lon="3.88079">
        <ele>702.23</ele>
        <time>2025-04-15T15:43:57.939Z</time>
      </trkpt>
      <trkpt lat="44.98208" lon="3.88101">
        <ele>701.38</ele>
        <time>2025-04-15T15:44:04.280Z</time>
      </trkpt>
      <trkpt lat="44.98215" lon="3.88131">
        <ele>700.54</ele>
        <time>2025-04-15T15:44:10.624Z</time>
      </trkpt>
      <trkpt lat="44.98218" lon="3.88167">
        <ele>699.76</ele>
        <time>2025-04-15T15:44:16.972Z</time>
      </trkpt>
      <trkpt lat="44.98222" lon="3.88204">
        <ele>699.09</ele>
        <time>2025-04-15T15:44:23.325Z</time>
      </trkpt>
      <trkpt lat="44.98226" lon="3.8824">
        <ele>698.48</ele>
        <time>2025-04-15T15:44:29.682Z</time>
      </trkpt>
      <trkpt lat="44.98234" lon="3.88274">
        <ele>697.93</ele>
        <time>2025-04-15T15:44:36.043Z</time>
      </trkpt>
      <trkpt lat="44.98243" lon="3.88308">
        <ele>697.39</ele>
        <time>2025-04-15T15:44:42.408Z</time>
      </trkpt>
      <trkpt lat="44.98251" lon="3.88341">
        <ele>696.89</ele>
        <time>2025-04-15T15:44:48.777Z</time>
      </trkpt>
      <trkpt lat="44.98273" lon="3.88365">
        <ele>696.62</ele>
        <time>2025-04-15T15:44:55.150Z</time>
      </trkpt>
      <trkpt lat="44.98298" lon="3.88376">
        <ele>696.56</ele>
        <time>2025-04-15T15:45:01.528Z</time>
      </trkpt>
      <trkpt lat="44.98324" lon="3.88387">
        <ele>696.54</ele>
        <time>2025-04-15T15:45:07.910Z</time>
      </trkpt>
      <trkpt lat="44.9835" lon="3.88399">
        <ele>696.43</ele>
        <time>2025-04-15T15:45:14.296Z</time>
      </trkpt>
      <trkpt lat="44.98376" lon="3.8841">
        <ele>696.26</ele>
        <time>2025-04-15T15:45:20.687Z</time>
      </trkpt>
      <trkpt lat="44.98401" lon="3.88422">
        <ele>696.07</ele>
        <time>2025-04-15T15:45:27.082Z</time>
      </trkpt>
      <trkpt lat="44.98427" lon="3.88433">
        <ele>696.08</ele>
        <time>2025-04-15T15:45:33.481Z</time>
      </trkpt>
      <trkpt lat="44.98444" lon="3.88435">
        <ele>696.19</ele>
        <time>2025-04-15T15:45:39.883Z</time>
      </trkpt>
      <trkpt lat="44.98451" lon="3.88444">
        <ele>696.18</ele>
        <time>2025-04-15T15:45:46.286Z</time>
      </trkpt>
      <trkpt lat="44.98479" lon="3.88446">
        <ele>696.37</ele>
        <time>2025-04-15T15:45:52.694Z</time>
      </trkpt>
      <trkpt lat="44.98494" lon="3.88442">
        <ele>696.52</ele>
        <time>2025-04-15T15:45:59.104Z</time>
      </trkpt>
      <trkpt lat="44.98522" lon="3.88435">
        <ele>696.67</ele>
        <time>2025-04-15T15:46:05.519Z</time>
      </trkpt>
      <trkpt lat="44.9855" lon="3.88429">
        <ele>696.72</ele>
        <time>2025-04-15T15:46:11.938Z</time>
      </trkpt>
      <trkpt lat="44.98576" lon="3.88417">
        <ele>696.71</ele>
        <time>2025-04-15T15:46:18.362Z</time>
      </trkpt>
      <trkpt lat="44.98602" lon="3.88405">
        <ele>696.61</ele>
        <time>2025-04-15T15:46:24.790Z</time>
      </trkpt>
      <trkpt lat="44.98629" lon="3.88392">
        <ele>696.36</ele>
        <time>2025-04-15T15:46:31.223Z</time>
      </trkpt>
      <trkpt lat="44.98653" lon="3.88385">
        <ele>695.97</ele>
        <time>2025-04-15T15:46:37.660Z</time>
      </trkpt>
      <trkpt lat="44.98678" lon="3.88377">
        <ele>695.65</ele>
        <time>2025-04-15T15:46:44.101Z</time>
      </trkpt>
      <trkpt lat="44.98702" lon="3.88369">
        <ele>695.37</ele>
        <time>2025-04-15T15:46:50.546Z</time>
      </trkpt>
      <trkpt lat="44.9872" lon="3.88358">
        <ele>695.15</ele>
        <time>2025-04-15T15:46:56.994Z</time>
      </trkpt>
      <trkpt lat="44.98738" lon="3.88347">
        <ele>694.96</ele>
        <time>2025-04-15T15:47:03.445Z</time>
      </trkpt>
      <trkpt lat="44.98754" lon="3.88333">
        <ele>694.85</ele>
        <time>2025-04-15T15:47:09.899Z</time>
      </trkpt>
      <trkpt lat="44.98771" lon="3.8832">
        <ele>694.93</ele>
        <time>2025-04-15T15:47:16.356Z</time>
      </trkpt>
      <trkpt lat="44.98787" lon="3.88292">
        <ele>695.01</ele>
        <time>2025-04-15T15:47:22.817Z</time>
      </trkpt>
      <trkpt lat="44.98794" lon="3.88281">
        <ele>694.94</ele>
        <time>2025-04-15T15:47:29.280Z</time>
      </trkpt>
      <trkpt lat="44.98813" lon="3.88266">
        <ele>694.76</ele>
        <time>2025-04-15T15:47:35.746Z</time>
      </trkpt>
      <trkpt lat="44.98826" lon="3.88262">
        <ele>694.66</ele>
        <time>2025-04-15T15:47:42.214Z</time>
      </trkpt>
      <trkpt lat="44.98851" lon="3.88268">
        <ele>694.54</ele>
        <time>2025-04-15T15:47:48.687Z</time>
      </trkpt>
      <trkpt lat="44.98876" lon="3.88274">
        <ele>694.57</ele>
        <time>2025-04-15T15:47:55.164Z</time>
      </trkpt>
      <trkpt lat="44.98901" lon="3.88281">
        <ele>694.65</ele>
        <time>2025-04-15T15:48:01.645Z</time>
      </trkpt>
      <trkpt lat="44.98925" lon="3.88285">
        <ele>694.83</ele>
        <time>2025-04-15T15:48:08.129Z</time>
      </trkpt>
      <trkpt lat="44.98944" lon="3.88285">
        <ele>695.14</ele>
        <time>2025-04-15T15:48:14.617Z</time>
      </trkpt>
      <trkpt lat="44.98964" lon="3.88285">
        <ele>695.55</ele>
        <time>2025-04-15T15:48:21.108Z</time>
      </trkpt>
      <trkpt lat="44.98987" lon="3.88278">
        <ele>696.15</ele>
        <time>2025-04-15T15:48:27.603Z</time>
      </trkpt>
      <trkpt lat="44.99011" lon="3.8827">
        <ele>696.87</ele>
        <time>2025-04-15T15:48:34.101Z</time>
      </trkpt>
      <trkpt lat="44.99034" lon="3.88265">
        <ele>697.73</ele>
        <time>2025-04-15T15:48:40.603Z</time>
      </trkpt>
      <trkpt lat="44.99058" lon="3.88259">
        <ele>698.65</ele>
        <time>2025-04-15T15:48:47.109Z</time>
      </trkpt>
      <trkpt lat="44.99074" lon="3.88262">
        <ele>699.56</ele>
        <time>2025-04-15T15:48:53.618Z</time>
      </trkpt>
      <trkpt lat="44.9909" lon="3.88264">
        <ele>700.63</ele>
        <time>2025-04-15T15:49:00.129Z</time>
      </trkpt>
      <trkpt lat="44.99103" lon="3.88272">
        <ele>701.67</ele>
        <time>2025-04-15T15:49:06.643Z</time>
      </trkpt>
      <trkpt lat="44.99116" lon="3.88283">
        <ele>702.76</ele>
        <time>2025-04-15T15:49:13.159Z</time>
      </trkpt>
      <trkpt lat="44.99136" lon="3.88307">
        <ele>703.92</ele>
        <time>2025-04-15T15:49:19.679Z</time>
      </trkpt>
      <trkpt lat="44.99156" lon="3.88332">
        <ele>705.21</ele>
        <time>2025-04-15T15:49:26.203Z</time>
      </trkpt>
      <trkpt lat="44.99176" lon="3.88356">
        <ele>706.6</ele>
        <time>2025-04-15T15:49:32.732Z</time>
      </trkpt>
      <trkpt lat="44.99193" lon="3.88367">
        <ele>708.16</ele>
        <time>2025-04-15T15:49:39.264Z</time>
      </trkpt>
      <trkpt lat="44.9921" lon="3.88377">
        <ele>709.74</ele>
        <time>2025-04-15T15:49:45.799Z</time>
      </trkpt>
      <trkpt lat="44.99238" lon="3.88396">
        <ele>711.23</ele>
        <time>2025-04-15T15:49:52.338Z</time>
      </trkpt>
      <trkpt lat="44.99265" lon="3.88415">
        <ele>712.8</ele>
        <time>2025-04-15T15:49:58.882Z</time>
      </trkpt>
      <trkpt lat="44.99292" lon="3.88434">
        <ele>714.42</ele>
        <time>2025-04-15T15:50:05.431Z</time>
      </trkpt>
      <trkpt lat="44.99319" lon="3.88453">
        <ele>715.96</ele>
        <time>2025-04-15T15:50:11.985Z</time>
      </trkpt>
      <trkpt lat="44.99346" lon="3.88472">
        <ele>717.58</ele>
        <time>2025-04-15T15:50:18.544Z</time>
      </trkpt>
      <trkpt lat="44.99373" lon="3.88491">
        <ele>719.24</ele>
        <time>2025-04-15T15:50:25.108Z</time>
      </trkpt>
      <trkpt lat="44.99386" lon="3.88507">
        <ele>720.91</ele>
        <time>2025-04-15T15:50:31.674Z</time>
      </trkpt>
      <trkpt lat="44.99399" lon="3.88523">
        <ele>722.66</ele>
        <time>2025-04-15T15:50:38.243Z</time>
      </trkpt>
      <trkpt lat="44.99415" lon="3.8855">
        <ele>724.38</ele>
        <time>2025-04-15T15:50:44.816Z</time>
      </trkpt>
      <trkpt lat="44.99431" lon="3.88576">
        <ele>726.12</ele>
        <time>2025-04-15T15:50:51.393Z</time>
      </trkpt>
      <trkpt lat="44.99446" lon="3.88603">
        <ele>727.92</ele>
        <time>2025-04-15T15:50:57.974Z</time>
      </trkpt>
      <trkpt lat="44.9947" lon="3.88629">
        <ele>729.84</ele>
        <time>2025-04-15T15:51:04.560Z</time>
      </trkpt>
      <trkpt lat="44.99481" lon="3.88635">
        <ele>731.74</ele>
        <time>2025-04-15T15:51:11.148Z</time>
      </trkpt>
      <trkpt lat="44.995" lon="3.88637">
        <ele>733.81</ele>
        <time>2025-04-15T15:51:17.739Z</time>
      </trkpt>
      <trkpt lat="44.99519" lon="3.88639">
        <ele>735.88</ele>
        <time>2025-04-15T15:51:24.333Z</time>
      </trkpt>
      <trkpt lat="44.99541" lon="3.88652">
        <ele>737.85</ele>
        <time>2025-04-15T15:51:30.931Z</time>
      </trkpt>
      <trkpt lat="44.99562" lon="3.88665">
        <ele>739.72</ele>
        <time>2025-04-15T15:51:37.532Z</time>
      </trkpt>
      <trkpt lat="44.99577" lon="3.88669">
        <ele>741.53</ele>
        <time>2025-04-15T15:51:44.136Z</time>
      </trkpt>
      <trkpt lat="44.9959" lon="3.88669">
        <ele>743.29</ele>
        <time>2025-04-15T15:51:50.742Z</time>
      </trkpt>
      <trkpt lat="44.99605" lon="3.88661">
        <ele>745.04</ele>
        <time>2025-04-15T15:51:57.350Z</time>
      </trkpt>
      <trkpt lat="44.9962" lon="3.88639">
        <ele>746.86</ele>
        <time>2025-04-15T15:52:03.962Z</time>
      </trkpt>
      <trkpt lat="44.99635" lon="3.88616">
        <ele>748.52</ele>
        <time>2025-04-15T15:52:10.577Z</time>
      </trkpt>
      <trkpt lat="44.9965" lon="3.88594">
        <ele>750.12</ele>
        <time>2025-04-15T15:52:17.196Z</time>
      </trkpt>
      <trkpt lat="44.99678" lon="3.88574">
        <ele>751.46</ele>
        <time>2025-04-15T15:52:23.820Z</time>
      </trkpt>
      <trkpt lat="44.99706" lon="3.88553">
        <ele>752.83</ele>
        <time>2025-04-15T15:52:30.449Z</time>
      </trkpt>
      <trkpt lat="44.99719" lon="3.88536">
        <ele>754.22</ele>
        <time>2025-04-15T15:52:37.081Z</time>
      </trkpt>
      <trkpt lat="44.99732" lon="3.88519">
        <ele>755.48</ele>
        <time>2025-04-15T15:52:43.716Z</time>
      </trkpt>
      <trkpt lat="44.99754" lon="3.88504">
        <ele>756.65</ele>
        <time>2025-04-15T15:52:50.355Z</time>
      </trkpt>
      <trkpt lat="44.99777" lon="3.88489">
        <ele>757.94</ele>
        <time>2025-04-15T15:52:56.998Z</time>
      </trkpt>
      <trkpt lat="44.99793" lon="3.88485">
        <ele>759.1</ele>
        <time>2025-04-15T15:53:03.643Z</time>
      </trkpt>
      <trkpt lat="44.99809" lon="3.8848">
        <ele>760.16</ele>
        <time>2025-04-15T15:53:10.291Z</time>
      </trkpt>
      <trkpt lat="44.99832" lon="3.8848">
        <ele>761.07</ele>
        <time>2025-04-15T15:53:16.942Z</time>
      </trkpt>
      <trkpt lat="44.99854" lon="3.8848">
        <ele>761.93</ele>
        <time>2025-04-15T15:53:23.597Z</time>
      </trkpt>
      <trkpt lat="44.99882" lon="3.88474">
        <ele>762.86</ele>
        <time>2025-04-15T15:53:30.257Z</time>
      </trkpt>
      <trkpt lat="44.99906" lon="3.88457">
        <ele>763.72</ele>
        <time>2025-04-15T15:53:36.921Z</time>
      </trkpt>
      <trkpt lat="44.9992" lon="3.88428">
        <ele>764.54</ele>
        <time>2025-04-15T15:53:43.589Z</time>
      </trkpt>
      <trkpt lat="44.99934" lon="3.884">
        <ele>765.25</ele>
        <time>2025-04-15T15:53:50.261Z</time>
      </trkpt>
      <trkpt lat="44.99949" lon="3.88371">
        <ele>765.89</ele>
        <time>2025-04-15T15:53:56.937Z</time>
      </trkpt>
      <trkpt lat="44.9997" lon="3.88339">
        <ele>766.2</ele>
        <time>2025-04-15T15:54:03.618Z</time>
      </trkpt>
      <trkpt lat="44.99983" lon="3.88326">
        <ele>766.37</ele>
        <time>2025-04-15T15:54:10.301Z</time>
      </trkpt>
      <trkpt lat="44.99996" lon="3.88313">
        <ele>766.52</ele>
        <time>2025-04-15T15:54:16.987Z</time>
      </trkpt>
      <trkpt lat="45.00012" lon="3.88306">
        <ele>766.5</ele>
        <time>2025-04-15T15:54:23.675Z</time>
      </trkpt>
      <trkpt lat="45.00028" lon="3.88298">
        <ele>766.36</ele>
        <time>2025-04-15T15:54:30.366Z</time>
      </trkpt>
      <trkpt lat="45.00056" lon="3.88294">
        <ele>766.54</ele>
        <time>2025-04-15T15:54:37.062Z</time>
      </trkpt>
      <trkpt lat="45.00079" lon="3.883">
        <ele>766.54</ele>
        <time>2025-04-15T15:54:43.762Z</time>
      </trkpt>
      <trkpt lat="45.00079" lon="3.883">
        <ele>766.51</ele>
        <time>2025-04-15T15:54:50.462Z</time>
      </trkpt>
      <trkpt lat="45.00099" lon="3.8832">
        <ele>766.34</ele>
        <time>2025-04-15T15:54:57.165Z</time>
      </trkpt>
      <trkpt lat="45.00118" lon="3.88339">
        <ele>766.21</ele>
        <time>2025-04-15T15:55:03.872Z</time>
      </trkpt>
      <trkpt lat="45.00135" lon="3.88347">
        <ele>766.21</ele>
        <time>2025-04-15T15:55:10.582Z</time>
      </trkpt>
      <trkpt lat="45.00162" lon="3.88353">
        <ele>766.34</ele>
        <time>2025-04-15T15:55:17.296Z</time>
      </trkpt>
      <trkpt lat="45.00189" lon="3.88358">
        <ele>766.46</ele>
        <time>2025-04-15T15:55:24.015Z</time>
      </trkpt>
      <trkpt lat="45.00209" lon="3.88367">
        <ele>766.48</ele>
        <time>2025-04-15T15:55:30.737Z</time>
      </trkpt>
      <trkpt lat="45.00229" lon="3.88377">
        <ele>766.61</ele>
        <time>2025-04-15T15:55:37.462Z</time>
      </trkpt>
      <trkpt lat="45.00249" lon="3.88386">
        <ele>766.78</ele>
        <time>2025-04-15T15:55:44.191Z</time>
      </trkpt>
      <trkpt lat="45.00258" lon="3.88392">
        <ele>766.88</ele>
        <time>2025-04-15T15:55:50.921Z</time>
      </trkpt>
      <trkpt lat="45.00266" lon="3.88405">
        <ele>766.97</ele>
        <time>2025-04-15T15:55:57.653Z</time>
      </trkpt>
      <trkpt lat="45.00279" lon="3.88442">
        <ele>766.94</ele>
        <time>2025-04-15T15:56:04.390Z</time>
      </trkpt>
      <trkpt lat="45.00292" lon="3.88478">
        <ele>766.99</ele>
        <time>2025-04-15T15:56:11.132Z</time>
      </trkpt>
      <trkpt lat="45.00309" lon="3.88493">
        <ele>767.52</ele>
        <time>2025-04-15T15:56:17.877Z</time>
      </trkpt>
      <trkpt lat="45.00333" lon="3.88502">
        <ele>768.22</ele>
        <time>2025-04-15T15:56:24.626Z</time>
      </trkpt>
      <trkpt lat="45.00358" lon="3.88511">
        <ele>768.92</ele>
        <time>2025-04-15T15:56:31.379Z</time>
      </trkpt>
      <trkpt lat="45.00382" lon="3.8852">
        <ele>769.66</ele>
        <time>2025-04-15T15:56:38.136Z</time>
      </trkpt>
      <trkpt lat="45.00407" lon="3.88529">
        <ele>770.49</ele>
        <time>2025-04-15T15:56:44.897Z</time>
      </trkpt>
      <trkpt lat="45.00431" lon="3.88538">
        <ele>771.43</ele>
        <time>2025-04-15T15:56:51.662Z</time>
      </trkpt>
      <trkpt lat="45.00431" lon="3.88538">
        <ele>772.64</ele>
        <time>2025-04-15T15:56:58.427Z</time>
      </trkpt>
      <trkpt lat="45.00461" lon="3.88546">
        <ele>774.15</ele>
        <time>2025-04-15T15:57:05.197Z</time>
      </trkpt>
      <trkpt lat="45.0049" lon="3.88554">
        <ele>775.83</ele>
        <time>2025-04-15T15:57:11.972Z</time>
      </trkpt>
      <trkpt lat="45.00519" lon="3.88562">
        <ele>777.51</ele>
        <time>2025-04-15T15:57:18.751Z</time>
      </trkpt>
      <trkpt lat="45.00549" lon="3.88573">
        <ele>779.25</ele>
        <time>2025-04-15T15:57:25.535Z</time>
      </trkpt>
      <trkpt lat="45.00568" lon="3.88586">
        <ele>780.81</ele>
        <time>2025-04-15T15:57:32.323Z</time>
      </trkpt>
      <trkpt lat="45.00586" lon="3.88598">
        <ele>782.42</ele>
        <time>2025-04-15T15:57:39.114Z</time>
      </trkpt>
      <trkpt lat="45.00608" lon="3.88601">
        <ele>784.31</ele>
        <time>2025-04-15T15:57:45.908Z</time>
      </trkpt>
      <trkpt lat="45.0063" lon="3.88603">
        <ele>786.2</ele>
        <time>2025-04-15T15:57:52.706Z</time>
      </trkpt>
      <trkpt lat="45.00652" lon="3.88605">
        <ele>787.97</ele>
        <time>2025-04-15T15:57:59.508Z</time>
      </trkpt>
      <trkpt lat="45.00667" lon="3.8862">
        <ele>789.52</ele>
        <time>2025-04-15T15:58:06.313Z</time>
      </trkpt>
      <trkpt lat="45.00682" lon="3.88635">
        <ele>790.95</ele>
        <time>2025-04-15T15:58:13.120Z</time>
      </trkpt>
      <trkpt lat="45.00702" lon="3.88669">
        <ele>791.97</ele>
        <time>2025-04-15T15:58:19.932Z</time>
      </trkpt>
      <trkpt lat="45.00719" lon="3.88705">
        <ele>792.62</ele>
        <time>2025-04-15T15:58:26.749Z</time>
      </trkpt>
      <trkpt lat="45.00736" lon="3.88741">
        <ele>793.56</ele>
        <time>2025-04-15T15:58:33.571Z</time>
      </trkpt>
      <trkpt lat="45.00753" lon="3.88777">
        <ele>794.71</ele>
        <time>2025-04-15T15:58:40.398Z</time>
      </trkpt>
      <trkpt lat="45.0077" lon="3.88813">
        <ele>795.63</ele>
        <time>2025-04-15T15:58:47.230Z</time>
      </trkpt>
      <trkpt lat="45.00781" lon="3.88852">
        <ele>796.45</ele>
        <time>2025-04-15T15:58:54.067Z</time>
      </trkpt>
      <trkpt lat="45.00783" lon="3.88875">
        <ele>796.9</ele>
        <time>2025-04-15T15:59:00.907Z</time>
      </trkpt>
      <trkpt lat="45.00779" lon="3.88895">
        <ele>797.05</ele>
        <time>2025-04-15T15:59:07.749Z</time>
      </trkpt>
      <trkpt lat="45.0077" lon="3.88918">
        <ele>797.01</ele>
        <time>2025-04-15T15:59:14.594Z</time>
      </trkpt>
      <trkpt lat="45.00762" lon="3.88942">
        <ele>797.17</ele>
        <time>2025-04-15T15:59:21.442Z</time>
      </trkpt>
      <trkpt lat="45.00764" lon="3.88965">
        <ele>797.59</ele>
        <time>2025-04-15T15:59:28.293Z</time>
      </trkpt>
      <trkpt lat="45.00775" lon="3.88991">
        <ele>798.06</ele>
        <time>2025-04-15T15:59:35.147Z</time>
      </trkpt>
      <trkpt lat="45.0079" lon="3.89016">
        <ele>798.53</ele>
        <time>2025-04-15T15:59:42.005Z</time>
      </trkpt>
      <trkpt lat="45.00806" lon="3.8904">
        <ele>799</ele>
        <time>2025-04-15T15:59:48.866Z</time>
      </trkpt>
      <trkpt lat="45.00822" lon="3.89064">
        <ele>799.37</ele>
        <time>2025-04-15T15:59:55.731Z</time>
      </trkpt>
      <trkpt lat="45.00836" lon="3.89093">
        <ele>799.83</ele>
        <time>2025-04-15T16:00:02.600Z</time>
      </trkpt>
      <trkpt lat="45.00851" lon="3.89122">
        <ele>800.03</ele>
        <time>2025-04-15T16:00:09.473Z</time>
      </trkpt>
      <trkpt lat="45.00861" lon="3.89141">
        <ele>800.03</ele>
        <time>2025-04-15T16:00:16.349Z</time>
      </trkpt>
      <trkpt lat="45.00876" lon="3.8918">
        <ele>800.15</ele>
        <time>2025-04-15T16:00:23.230Z</time>
      </trkpt>
      <trkpt lat="45.00881" lon="3.89217">
        <ele>800.14</ele>
        <time>2025-04-15T16:00:30.115Z</time>
      </trkpt>
      <trkpt lat="45.00886" lon="3.89253">
        <ele>800.16</ele>
        <time>2025-04-15T16:00:37.004Z</time>
      </trkpt>
      <trkpt lat="45.00893" lon="3.89281">
        <ele>800.38</ele>
        <time>2025-04-15T16:00:43.897Z</time>
      </trkpt>
      <trkpt lat="45.00907" lon="3.89304">
        <ele>800.89</ele>
        <time>2025-04-15T16:00:50.793Z</time>
      </trkpt>
      <trkpt lat="45.00921" lon="3.89327">
        <ele>801.34</ele>
        <time>2025-04-15T16:00:57.693Z</time>
      </trkpt>
      <trkpt lat="45.00936" lon="3.8935">
        <ele>801.85</ele>
        <time>2025-04-15T16:01:04.596Z</time>
      </trkpt>
      <trkpt lat="45.00936" lon="3.8935">
        <ele>802.24</ele>
        <time>2025-04-15T16:01:11.499Z</time>
      </trkpt>
      <trkpt lat="45.00946" lon="3.89367">
        <ele>802.83</ele>
        <time>2025-04-15T16:01:18.405Z</time>
      </trkpt>
      <trkpt lat="45.00957" lon="3.89384">
        <ele>803.29</ele>
        <time>2025-04-15T16:01:25.313Z</time>
      </trkpt>
      <trkpt lat="45.0097" lon="3.89418">
        <ele>803.58</ele>
        <time>2025-04-15T16:01:32.226Z</time>
      </trkpt>
      <trkpt lat="45.00985" lon="3.89455">
        <ele>803.8</ele>
        <time>2025-04-15T16:01:39.143Z</time>
      </trkpt>
      <trkpt lat="45.01" lon="3.89491">
        <ele>803.64</ele>
        <time>2025-04-15T16:01:46.065Z</time>
      </trkpt>
      <trkpt lat="45.01012" lon="3.89518">
        <ele>803.65</ele>
        <time>2025-04-15T16:01:52.991Z</time>
      </trkpt>
      <trkpt lat="45.01024" lon="3.89545">
        <ele>803.68</ele>
        <time>2025-04-15T16:01:59.920Z</time>
      </trkpt>
      <trkpt lat="45.01041" lon="3.89573">
        <ele>803.74</ele>
        <time>2025-04-15T16:02:06.854Z</time>
      </trkpt>
      <trkpt lat="45.01057" lon="3.89597">
        <ele>803.63</ele>
        <time>2025-04-15T16:02:13.791Z</time>
      </trkpt>
      <trkpt lat="45.01073" lon="3.89622">
        <ele>803.41</ele>
        <time>2025-04-15T16:02:20.732Z</time>
      </trkpt>
      <trkpt lat="45.01091" lon="3.89635">
        <ele>803.28</ele>
        <time>2025-04-15T16:02:27.676Z</time>
      </trkpt>
      <trkpt lat="45.01109" lon="3.89648">
        <ele>803.03</ele>
        <time>2025-04-15T16:02:34.624Z</time>
      </trkpt>
      <trkpt lat="45.0112" lon="3.89652">
        <ele>802.83</ele>
        <time>2025-04-15T16:02:41.574Z</time>
      </trkpt>
      <trkpt lat="45.01133" lon="3.89661">
        <ele>802.61</ele>
        <time>2025-04-15T16:02:48.526Z</time>
      </trkpt>
      <trkpt lat="45.01146" lon="3.89684">
        <ele>802.35</ele>
        <time>2025-04-15T16:02:55.481Z</time>
      </trkpt>
      <trkpt lat="45.01157" lon="3.89676">
        <ele>802.32</ele>
        <time>2025-04-15T16:03:02.438Z</time>
      </trkpt>
      <trkpt lat="45.01182" lon="3.89665">
        <ele>802.33</ele>
        <time>2025-04-15T16:03:09.399Z</time>
      </trkpt>
      <trkpt lat="45.012" lon="3.89663">
        <ele>802.06</ele>
        <time>2025-04-15T16:03:16.363Z</time>
      </trkpt>
      <trkpt lat="45.01217" lon="3.89661">
        <ele>801.84</ele>
        <time>2025-04-15T16:03:23.330Z</time>
      </trkpt>
      <trkpt lat="45.01239" lon="3.89657">
        <ele>801.78</ele>
        <time>2025-04-15T16:03:30.301Z</time>
      </trkpt>
      <trkpt lat="45.01261" lon="3.89653">
        <ele>801.98</ele>
        <time>2025-04-15T16:03:37.275Z</time>
      </trkpt>
      <trkpt lat="45.01283" lon="3.8965">
        <ele>802.36</ele>
        <time>2025-04-15T16:03:44.253Z</time>
      </trkpt>
      <trkpt lat="45.01269" lon="3.89613">
        <ele>803.29</ele>
        <time>2025-04-15T16:03:51.235Z</time>
      </trkpt>
      <trkpt lat="45.01255" lon="3.89577">
        <ele>804.1</ele>
        <time>2025-04-15T16:03:58.222Z</time>
      </trkpt>
      <trkpt lat="45.01251" lon="3.89577">
        <ele>804.35</ele>
        <time>2025-04-15T16:04:05.210Z</time>
      </trkpt>
      <trkpt lat="45.01224" lon="3.89598">
        <ele>804.52</ele>
        <time>2025-04-15T16:04:12.203Z</time>
      </trkpt>
    </trkseg>
  </trk>
  <trk>
    <name><![CDATA[2025 J3 Road trip chateauneuf-Hom]]></name>
    <extensions>
      <line xmlns="http://www.topografix.com/GPX/gpx_style/0/2">
        <color>FFFF00</color>
        <width>4</width>
      </line>
    </extensions>
    <trkseg>
      <trkpt lat="44.63323" lon="3.67616">
        <ele>1176.36</ele>
        <time>2024-11-05T09:46:39.000Z</time>
      </trkpt>
      <trkpt lat="44.63333" lon="3.67614">
        <ele>1176.22</ele>
        <time>2024-11-05T09:46:39.002Z</time>
      </trkpt>
      <trkpt lat="44.63331" lon="3.67591">
        <ele>1176.04</ele>
        <time>2024-11-05T09:46:39.006Z</time>
      </trkpt>
      <trkpt lat="44.63329" lon="3.67569">
        <ele>1175.85</ele>
        <time>2024-11-05T09:46:39.013Z</time>
      </trkpt>
      <trkpt lat="44.6333" lon="3.67558">
        <ele>1175.66</ele>
        <time>2024-11-05T09:46:39.021Z</time>
      </trkpt>
      <trkpt lat="44.63336" lon="3.67549">
        <ele>1175.45</ele>
        <time>2024-11-05T09:46:39.031Z</time>
      </trkpt>
      <trkpt lat="44.6335" lon="3.67537">
        <ele>1175.24</ele>
        <time>2024-11-05T09:46:39.043Z</time>
      </trkpt>
      <trkpt lat="44.63363" lon="3.67525">
        <ele>1175.04</ele>
        <time>2024-11-05T09:46:39.058Z</time>
      </trkpt>
      <trkpt lat="44.63368" lon="3.67507">
        <ele>1174.81</ele>
        <time>2024-11-05T09:46:39.075Z</time>
      </trkpt>
      <trkpt lat="44.63366" lon="3.67474">
        <ele>1174.59</ele>
        <time>2024-11-05T09:46:39.096Z</time>
      </trkpt>
      <trkpt lat="44.63365" lon="3.67449">
        <ele>1174.35</ele>
        <time>2024-11-05T09:46:39.120Z</time>
      </trkpt>
      <trkpt lat="44.63364" lon="3.67423">
        <ele>1174.14</ele>
        <time>2024-11-05T09:46:39.147Z</time>
      </trkpt>
      <trkpt lat="44.63359" lon="3.67414">
        <ele>1173.96</ele>
        <time>2024-11-05T09:46:39.175Z</time>
      </trkpt>
      <trkpt lat="44.63359" lon="3.67411">
        <ele>1173.8</ele>
        <time>2024-11-05T09:46:39.203Z</time>
      </trkpt>
      <trkpt lat="44.63359" lon="3.67399">
        <ele>1173.65</ele>
        <time>2024-11-05T09:46:39.233Z</time>
      </trkpt>
      <trkpt lat="44.6336" lon="3.67362">
        <ele>1173.59</ele>
        <time>2024-11-05T09:46:39.267Z</time>
      </trkpt>
      <trkpt lat="44.63334" lon="3.67362">
        <ele>1173.51</ele>
        <time>2024-11-05T09:46:39.305Z</time>
      </trkpt>
      <trkpt lat="44.6331" lon="3.67357">
        <ele>1173.43</ele>
        <time>2024-11-05T09:46:39.347Z</time>
      </trkpt>
      <trkpt lat="44.63285" lon="3.67353">
        <ele>1173.38</ele>
        <time>2024-11-05T09:46:39.393Z</time>
      </trkpt>
      <trkpt lat="44.6326" lon="3.67348">
        <ele>1173.39</ele>
        <time>2024-11-05T09:46:39.443Z</time>
      </trkpt>
      <trkpt lat="44.63239" lon="3.67348">
        <ele>1173.38</ele>
        <time>2024-11-05T09:46:39.496Z</time>
      </trkpt>
      <trkpt lat="44.63217" lon="3.67348">
        <ele>1173.37</ele>
        <time>2024-11-05T09:46:39.553Z</time>
      </trkpt>
      <trkpt lat="44.63191" lon="3.67337">
        <ele>1173.36</ele>
        <time>2024-11-05T09:46:39.614Z</time>
      </trkpt>
      <trkpt lat="44.63164" lon="3.67325">
        <ele>1173.41</ele>
        <time>2024-11-05T09:46:39.680Z</time>
      </trkpt>
      <trkpt lat="44.63136" lon="3.67317">
        <ele>1173.48</ele>
        <time>2024-11-05T09:46:39.750Z</time>
      </trkpt>
      <trkpt lat="44.63108" lon="3.67309">
        <ele>1173.5</ele>
        <time>2024-11-05T09:46:39.825Z</time>
      </trkpt>
      <trkpt lat="44.63088" lon="3.67302">
        <ele>1173.56</ele>
        <time>2024-11-05T09:46:39.903Z</time>
      </trkpt>
      <trkpt lat="44.63068" lon="3.67294">
        <ele>1173.66</ele>
        <time>2024-11-05T09:46:39.984Z</time>
      </trkpt>
      <trkpt lat="44.63049" lon="3.67285">
        <ele>1173.76</ele>
        <time>2024-11-05T09:46:40.069Z</time>
      </trkpt>
      <trkpt lat="44.63031" lon="3.67276">
        <ele>1173.86</ele>
        <time>2024-11-05T09:46:40.157Z</time>
      </trkpt>
      <trkpt lat="44.63007" lon="3.67261">
        <ele>1173.87</ele>
        <time>2024-11-05T09:46:40.249Z</time>
      </trkpt>
      <trkpt lat="44.6298" lon="3.67247">
        <ele>1173.88</ele>
        <time>2024-11-05T09:46:40.346Z</time>
      </trkpt>
      <trkpt lat="44.62963" lon="3.67243">
        <ele>1173.89</ele>
        <time>2024-11-05T09:46:40.445Z</time>
      </trkpt>
      <trkpt lat="44.62944" lon="3.6724">
        <ele>1173.94</ele>
        <time>2024-11-05T09:46:40.547Z</time>
      </trkpt>
      <trkpt lat="44.62925" lon="3.67236">
        <ele>1174.04</ele>
        <time>2024-11-05T09:46:40.652Z</time>
      </trkpt>
      <trkpt lat="44.62903" lon="3.67234">
        <ele>1174.09</ele>
        <time>2024-11-05T09:46:40.761Z</time>
      </trkpt>
      <trkpt lat="44.62881" lon="3.67232">
        <ele>1174.11</ele>
        <time>2024-11-05T09:46:40.873Z</time>
      </trkpt>
      <trkpt lat="44.62859" lon="3.6723">
        <ele>1174.13</ele>
        <time>2024-11-05T09:46:40.989Z</time>
      </trkpt>
      <trkpt lat="44.62832" lon="3.67225">
        <ele>1174.18</ele>
        <time>2024-11-05T09:46:41.109Z</time>
      </trkpt>
      <trkpt lat="44.62812" lon="3.67213">
        <ele>1174.28</ele>
        <time>2024-11-05T09:46:41.233Z</time>
      </trkpt>
      <trkpt lat="44.62797" lon="3.672">
        <ele>1174.36</ele>
        <time>2024-11-05T09:46:41.360Z</time>
      </trkpt>
      <trkpt lat="44.6278" lon="3.67179">
        <ele>1174.37</ele>
        <time>2024-11-05T09:46:41.490Z</time>
      </trkpt>
      <trkpt lat="44.62768" lon="3.67158">
        <ele>1174.37</ele>
        <time>2024-11-05T09:46:41.623Z</time>
      </trkpt>
      <trkpt lat="44.62763" lon="3.67143">
        <ele>1174.38</ele>
        <time>2024-11-05T09:46:41.758Z</time>
      </trkpt>
      <trkpt lat="44.62763" lon="3.67124">
        <ele>1174.44</ele>
        <time>2024-11-05T09:46:41.895Z</time>
      </trkpt>
      <trkpt lat="44.62769" lon="3.67101">
        <ele>1174.56</ele>
        <time>2024-11-05T09:46:42.035Z</time>
      </trkpt>
      <trkpt lat="44.62777" lon="3.67072">
        <ele>1174.64</ele>
        <time>2024-11-05T09:46:42.179Z</time>
      </trkpt>
      <trkpt lat="44.62786" lon="3.67042">
        <ele>1174.73</ele>
        <time>2024-11-05T09:46:42.326Z</time>
      </trkpt>
      <trkpt lat="44.62795" lon="3.67013">
        <ele>1174.77</ele>
        <time>2024-11-05T09:46:42.477Z</time>
      </trkpt>
      <trkpt lat="44.62802" lon="3.66983">
        <ele>1174.84</ele>
        <time>2024-11-05T09:46:42.632Z</time>
      </trkpt>
      <trkpt lat="44.62809" lon="3.66952">
        <ele>1174.96</ele>
        <time>2024-11-05T09:46:42.790Z</time>
      </trkpt>
      <trkpt lat="44.62816" lon="3.66922">
        <ele>1175.13</ele>
        <time>2024-11-05T09:46:42.952Z</time>
      </trkpt>
      <trkpt lat="44.6282" lon="3.669">
        <ele>1175.33</ele>
        <time>2024-11-05T09:46:43.117Z</time>
      </trkpt>
      <trkpt lat="44.62825" lon="3.66878">
        <ele>1175.56</ele>
        <time>2024-11-05T09:46:43.284Z</time>
      </trkpt>
      <trkpt lat="44.62827" lon="3.66841">
        <ele>1175.78</ele>
        <time>2024-11-05T09:46:43.455Z</time>
      </trkpt>
      <trkpt lat="44.6283" lon="3.66804">
        <ele>1176.02</ele>
        <time>2024-11-05T09:46:43.631Z</time>
      </trkpt>
      <trkpt lat="44.62833" lon="3.66767">
        <ele>1176.25</ele>
        <time>2024-11-05T09:46:43.811Z</time>
      </trkpt>
      <trkpt lat="44.62835" lon="3.66731">
        <ele>1176.5</ele>
        <time>2024-11-05T09:46:43.995Z</time>
      </trkpt>
      <trkpt lat="44.62835" lon="3.66688">
        <ele>1176.83</ele>
        <time>2024-11-05T09:46:44.184Z</time>
      </trkpt>
      <trkpt lat="44.62833" lon="3.66654">
        <ele>1177.18</ele>
        <time>2024-11-05T09:46:44.377Z</time>
      </trkpt>
      <trkpt lat="44.6283" lon="3.6662">
        <ele>1177.52</ele>
        <time>2024-11-05T09:46:44.574Z</time>
      </trkpt>
      <trkpt lat="44.62827" lon="3.66586">
        <ele>1177.84</ele>
        <time>2024-11-05T09:46:44.775Z</time>
      </trkpt>
      <trkpt lat="44.62825" lon="3.66552">
        <ele>1178.18</ele>
        <time>2024-11-05T09:46:44.980Z</time>
      </trkpt>
      <trkpt lat="44.62825" lon="3.66515">
        <ele>1178.51</ele>
        <time>2024-11-05T09:46:45.189Z</time>
      </trkpt>
      <trkpt lat="44.6283" lon="3.66476">
        <ele>1178.86</ele>
        <time>2024-11-05T09:46:45.402Z</time>
      </trkpt>
      <trkpt lat="44.62834" lon="3.66454">
        <ele>1179.27</ele>
        <time>2024-11-05T09:46:45.618Z</time>
      </trkpt>
      <trkpt lat="44.62838" lon="3.66432">
        <ele>1179.69</ele>
        <time>2024-11-05T09:46:45.837Z</time>
      </trkpt>
      <trkpt lat="44.62844" lon="3.66405">
        <ele>1180.14</ele>
        <time>2024-11-05T09:46:46.059Z</time>
      </trkpt>
      <trkpt lat="44.62851" lon="3.66379">
        <ele>1180.57</ele>
        <time>2024-11-05T09:46:46.284Z</time>
      </trkpt>
      <trkpt lat="44.62865" lon="3.66348">
        <ele>1181.01</ele>
        <time>2024-11-05T09:46:46.513Z</time>
      </trkpt>
      <trkpt lat="44.62866" lon="3.66334">
        <ele>1181.48</ele>
        <time>2024-11-05T09:46:46.744Z</time>
      </trkpt>
      <trkpt lat="44.62864" lon="3.6632">
        <ele>1181.97</ele>
        <time>2024-11-05T09:46:46.976Z</time>
      </trkpt>
      <trkpt lat="44.62858" lon="3.66302">
        <ele>1182.51</ele>
        <time>2024-11-05T09:46:47.211Z</time>
      </trkpt>
      <trkpt lat="44.62836" lon="3.66271">
        <ele>1183.07</ele>
        <time>2024-11-05T09:46:47.451Z</time>
      </trkpt>
      <trkpt lat="44.62815" lon="3.6624">
        <ele>1183.7</ele>
        <time>2024-11-05T09:46:47.696Z</time>
      </trkpt>
      <trkpt lat="44.62794" lon="3.66208">
        <ele>1184.41</ele>
        <time>2024-11-05T09:46:47.946Z</time>
      </trkpt>
      <trkpt lat="44.62774" lon="3.66178">
        <ele>1185.2</ele>
        <time>2024-11-05T09:46:48.200Z</time>
      </trkpt>
      <trkpt lat="44.62766" lon="3.6616">
        <ele>1186.04</ele>
        <time>2024-11-05T09:46:48.457Z</time>
      </trkpt>
      <trkpt lat="44.62759" lon="3.66139">
        <ele>1186.97</ele>
        <time>2024-11-05T09:46:48.716Z</time>
      </trkpt>
      <trkpt lat="44.62757" lon="3.66119">
        <ele>1187.94</ele>
        <time>2024-11-05T09:46:48.978Z</time>
      </trkpt>
      <trkpt lat="44.62761" lon="3.66103">
        <ele>1188.98</ele>
        <time>2024-11-05T09:46:49.242Z</time>
      </trkpt>
      <trkpt lat="44.62775" lon="3.66091">
        <ele>1190.07</ele>
        <time>2024-11-05T09:46:49.508Z</time>
      </trkpt>
      <trkpt lat="44.62789" lon="3.66079">
        <ele>1191.22</ele>
        <time>2024-11-05T09:46:49.777Z</time>
      </trkpt>
      <trkpt lat="44.62801" lon="3.6606">
        <ele>1192.44</ele>
        <time>2024-11-05T09:46:50.049Z</time>
      </trkpt>
      <trkpt lat="44.6281" lon="3.66037">
        <ele>1193.73</ele>
        <time>2024-11-05T09:46:50.324Z</time>
      </trkpt>
      <trkpt lat="44.62815" lon="3.66004">
        <ele>1195.15</ele>
        <time>2024-11-05T09:46:50.603Z</time>
      </trkpt>
      <trkpt lat="44.6282" lon="3.65972">
        <ele>1196.6</ele>
        <time>2024-11-05T09:46:50.885Z</time>
      </trkpt>
      <trkpt lat="44.62826" lon="3.65939">
        <ele>1198.13</ele>
        <time>2024-11-05T09:46:51.171Z</time>
      </trkpt>
      <trkpt lat="44.62831" lon="3.65907">
        <ele>1199.67</ele>
        <time>2024-11-05T09:46:51.461Z</time>
      </trkpt>
      <trkpt lat="44.62841" lon="3.65873">
        <ele>1201.21</ele>
        <time>2024-11-05T09:46:51.755Z</time>
      </trkpt>
      <trkpt lat="44.62853" lon="3.65833">
        <ele>1202.84</ele>
        <time>2024-11-05T09:46:52.054Z</time>
      </trkpt>
      <trkpt lat="44.62866" lon="3.65794">
        <ele>1204.57</ele>
        <time>2024-11-05T09:46:52.358Z</time>
      </trkpt>
      <trkpt lat="44.62879" lon="3.65755">
        <ele>1206.3</ele>
        <time>2024-11-05T09:46:52.667Z</time>
      </trkpt>
      <trkpt lat="44.62891" lon="3.65715">
        <ele>1208.09</ele>
        <time>2024-11-05T09:46:52.981Z</time>
      </trkpt>
      <trkpt lat="44.62904" lon="3.65676">
        <ele>1209.87</ele>
        <time>2024-11-05T09:46:53.300Z</time>
      </trkpt>
      <trkpt lat="44.62909" lon="3.65645">
        <ele>1211.68</ele>
        <time>2024-11-05T09:46:53.622Z</time>
      </trkpt>
      <trkpt lat="44.62914" lon="3.65613">
        <ele>1213.46</ele>
        <time>2024-11-05T09:46:53.948Z</time>
      </trkpt>
      <trkpt lat="44.62918" lon="3.65583">
        <ele>1215.29</ele>
        <time>2024-11-05T09:46:54.278Z</time>
      </trkpt>
      <trkpt lat="44.62922" lon="3.65553">
        <ele>1217.11</ele>
        <time>2024-11-05T09:46:54.611Z</time>
      </trkpt>
      <trkpt lat="44.62924" lon="3.65524">
        <ele>1218.95</ele>
        <time>2024-11-05T09:46:54.947Z</time>
      </trkpt>
      <trkpt lat="44.62924" lon="3.65494">
        <ele>1220.79</ele>
        <time>2024-11-05T09:46:55.287Z</time>
      </trkpt>
      <trkpt lat="44.62922" lon="3.65455">
        <ele>1222.61</ele>
        <time>2024-11-05T09:46:55.631Z</time>
      </trkpt>
      <trkpt lat="44.62917" lon="3.65431">
        <ele>1224.36</ele>
        <time>2024-11-05T09:46:55.978Z</time>
      </trkpt>
      <trkpt lat="44.62913" lon="3.65407">
        <ele>1226.09</ele>
        <time>2024-11-05T09:46:56.328Z</time>
      </trkpt>
      <trkpt lat="44.62903" lon="3.65379">
        <ele>1227.78</ele>
        <time>2024-11-05T09:46:56.682Z</time>
      </trkpt>
      <trkpt lat="44.62893" lon="3.65358">
        <ele>1229.41</ele>
        <time>2024-11-05T09:46:57.039Z</time>
      </trkpt>
      <trkpt lat="44.6288" lon="3.65336">
        <ele>1231</ele>
        <time>2024-11-05T09:46:57.399Z</time>
      </trkpt>
      <trkpt lat="44.62863" lon="3.65316">
        <ele>1232.55</ele>
        <time>2024-11-05T09:46:57.762Z</time>
      </trkpt>
      <trkpt lat="44.62863" lon="3.65316">
        <ele>1234.09</ele>
        <time>2024-11-05T09:46:58.125Z</time>
      </trkpt>
      <trkpt lat="44.62839" lon="3.65293">
        <ele>1235.74</ele>
        <time>2024-11-05T09:46:58.493Z</time>
      </trkpt>
      <trkpt lat="44.62815" lon="3.6527">
        <ele>1237.39</ele>
        <time>2024-11-05T09:46:58.866Z</time>
      </trkpt>
      <trkpt lat="44.62803" lon="3.65256">
        <ele>1238.95</ele>
        <time>2024-11-05T09:46:59.241Z</time>
      </trkpt>
      <trkpt lat="44.62792" lon="3.65239">
        <ele>1240.48</ele>
        <time>2024-11-05T09:46:59.619Z</time>
      </trkpt>
      <trkpt lat="44.62783" lon="3.65218">
        <ele>1242</ele>
        <time>2024-11-05T09:47:00.000Z</time>
      </trkpt>
      <trkpt lat="44.6277" lon="3.65186">
        <ele>1243.57</ele>
        <time>2024-11-05T09:47:00.385Z</time>
      </trkpt>
      <trkpt lat="44.62757" lon="3.65154">
        <ele>1245.2</ele>
        <time>2024-11-05T09:47:00.774Z</time>
      </trkpt>
      <trkpt lat="44.62744" lon="3.65127">
        <ele>1246.82</ele>
        <time>2024-11-05T09:47:01.167Z</time>
      </trkpt>
      <trkpt lat="44.62726" lon="3.65102">
        <ele>1248.4</ele>
        <time>2024-11-05T09:47:01.564Z</time>
      </trkpt>
      <trkpt lat="44.62708" lon="3.65078">
        <ele>1249.9</ele>
        <time>2024-11-05T09:47:01.965Z</time>
      </trkpt>
      <trkpt lat="44.62696" lon="3.65052">
        <ele>1251.38</ele>
        <time>2024-11-05T09:47:02.369Z</time>
      </trkpt>
      <trkpt lat="44.62685" lon="3.65025">
        <ele>1252.83</ele>
        <time>2024-11-05T09:47:02.777Z</time>
      </trkpt>
      <trkpt lat="44.62675" lon="3.64997">
        <ele>1254.27</ele>
        <time>2024-11-05T09:47:03.188Z</time>
      </trkpt>
      <trkpt lat="44.62665" lon="3.6497">
        <ele>1255.67</ele>
        <time>2024-11-05T09:47:03.603Z</time>
      </trkpt>
      <trkpt lat="44.62655" lon="3.64939">
        <ele>1257.01</ele>
        <time>2024-11-05T09:47:04.022Z</time>
      </trkpt>
      <trkpt lat="44.62646" lon="3.64908">
        <ele>1258.35</ele>
        <time>2024-11-05T09:47:04.445Z</time>
      </trkpt>
      <trkpt lat="44.62637" lon="3.64877">
        <ele>1259.71</ele>
        <time>2024-11-05T09:47:04.871Z</time>
      </trkpt>
      <trkpt lat="44.62627" lon="3.64846">
        <ele>1261.08</ele>
        <time>2024-11-05T09:47:05.301Z</time>
      </trkpt>
      <trkpt lat="44.62623" lon="3.6483">
        <ele>1262.43</ele>
        <time>2024-11-05T09:47:05.733Z</time>
      </trkpt>
      <trkpt lat="44.62612" lon="3.64791">
        <ele>1263.87</ele>
        <time>2024-11-05T09:47:06.170Z</time>
      </trkpt>
      <trkpt lat="44.62602" lon="3.64753">
        <ele>1265.39</ele>
        <time>2024-11-05T09:47:06.612Z</time>
      </trkpt>
      <trkpt lat="44.62592" lon="3.64714">
        <ele>1266.94</ele>
        <time>2024-11-05T09:47:07.058Z</time>
      </trkpt>
      <trkpt lat="44.62581" lon="3.64676">
        <ele>1268.45</ele>
        <time>2024-11-05T09:47:07.509Z</time>
      </trkpt>
      <trkpt lat="44.62571" lon="3.64637">
        <ele>1269.93</ele>
        <time>2024-11-05T09:47:07.965Z</time>
      </trkpt>
      <trkpt lat="44.6256" lon="3.64599">
        <ele>1271.36</ele>
        <time>2024-11-05T09:47:08.426Z</time>
      </trkpt>
      <trkpt lat="44.6255" lon="3.64561">
        <ele>1272.81</ele>
        <time>2024-11-05T09:47:08.891Z</time>
      </trkpt>
      <trkpt lat="44.62541" lon="3.64524">
        <ele>1274.34</ele>
        <time>2024-11-05T09:47:09.361Z</time>
      </trkpt>
      <trkpt lat="44.62533" lon="3.64488">
        <ele>1275.83</ele>
        <time>2024-11-05T09:47:09.835Z</time>
      </trkpt>
      <trkpt lat="44.62525" lon="3.6445">
        <ele>1277.28</ele>
        <time>2024-11-05T09:47:10.313Z</time>
      </trkpt>
      <trkpt lat="44.62518" lon="3.64412">
        <ele>1278.74</ele>
        <time>2024-11-05T09:47:10.796Z</time>
      </trkpt>
      <trkpt lat="44.6251" lon="3.64374">
        <ele>1280.24</ele>
        <time>2024-11-05T09:47:11.283Z</time>
      </trkpt>
      <trkpt lat="44.62503" lon="3.64336">
        <ele>1281.76</ele>
        <time>2024-11-05T09:47:11.775Z</time>
      </trkpt>
      <trkpt lat="44.62495" lon="3.64299">
        <ele>1283.28</ele>
        <time>2024-11-05T09:47:12.271Z</time>
      </trkpt>
      <trkpt lat="44.62493" lon="3.64271">
        <ele>1284.8</ele>
        <time>2024-11-05T09:47:12.771Z</time>
      </trkpt>
      <trkpt lat="44.62491" lon="3.64243">
        <ele>1286.38</ele>
        <time>2024-11-05T09:47:13.274Z</time>
      </trkpt>
      <trkpt lat="44.62489" lon="3.64218">
        <ele>1287.96</ele>
        <time>2024-11-05T09:47:13.780Z</time>
      </trkpt>
      <trkpt lat="44.62477" lon="3.64185">
        <ele>1289.58</ele>
        <time>2024-11-05T09:47:14.290Z</time>
      </trkpt>
      <trkpt lat="44.62456" lon="3.64155">
        <ele>1291.21</ele>
        <time>2024-11-05T09:47:14.805Z</time>
      </trkpt>
      <trkpt lat="44.62435" lon="3.64124">
        <ele>1292.84</ele>
        <time>2024-11-05T09:47:15.325Z</time>
      </trkpt>
      <trkpt lat="44.62414" lon="3.64094">
        <ele>1294.46</ele>
        <time>2024-11-05T09:47:15.849Z</time>
      </trkpt>
      <trkpt lat="44.62393" lon="3.64063">
        <ele>1296.09</ele>
        <time>2024-11-05T09:47:16.378Z</time>
      </trkpt>
      <trkpt lat="44.62371" lon="3.64033">
        <ele>1297.76</ele>
        <time>2024-11-05T09:47:16.912Z</time>
      </trkpt>
      <trkpt lat="44.6235" lon="3.64003">
        <ele>1299.44</ele>
        <time>2024-11-05T09:47:17.451Z</time>
      </trkpt>
      <trkpt lat="44.6233" lon="3.63982">
        <ele>1301.09</ele>
        <time>2024-11-05T09:47:17.994Z</time>
      </trkpt>
      <trkpt lat="44.62312" lon="3.63975">
        <ele>1302.75</ele>
        <time>2024-11-05T09:47:18.540Z</time>
      </trkpt>
      <trkpt lat="44.62296" lon="3.63975">
        <ele>1304.45</ele>
        <time>2024-11-05T09:47:19.089Z</time>
      </trkpt>
      <trkpt lat="44.62284" lon="3.6398">
        <ele>1306.14</ele>
        <time>2024-11-05T09:47:19.640Z</time>
      </trkpt>
      <trkpt lat="44.62272" lon="3.63995">
        <ele>1307.84</ele>
        <time>2024-11-05T09:47:20.193Z</time>
      </trkpt>
      <trkpt lat="44.62259" lon="3.6401">
        <ele>1309.55</ele>
        <time>2024-11-05T09:47:20.749Z</time>
      </trkpt>
      <trkpt lat="44.62248" lon="3.6402">
        <ele>1311.29</ele>
        <time>2024-11-05T09:47:21.307Z</time>
      </trkpt>
      <trkpt lat="44.62235" lon="3.64027">
        <ele>1313.05</ele>
        <time>2024-11-05T09:47:21.867Z</time>
      </trkpt>
      <trkpt lat="44.62216" lon="3.64028">
        <ele>1314.83</ele>
        <time>2024-11-05T09:47:22.430Z</time>
      </trkpt>
      <trkpt lat="44.62197" lon="3.64024">
        <ele>1316.59</ele>
        <time>2024-11-05T09:47:22.996Z</time>
      </trkpt>
      <trkpt lat="44.62182" lon="3.64014">
        <ele>1318.32</ele>
        <time>2024-11-05T09:47:23.565Z</time>
      </trkpt>
      <trkpt lat="44.62168" lon="3.64">
        <ele>1320.07</ele>
        <time>2024-11-05T09:47:24.137Z</time>
      </trkpt>
      <trkpt lat="44.62148" lon="3.63973">
        <ele>1321.88</ele>
        <time>2024-11-05T09:47:24.713Z</time>
      </trkpt>
      <trkpt lat="44.62127" lon="3.63945">
        <ele>1323.73</ele>
        <time>2024-11-05T09:47:25.294Z</time>
      </trkpt>
      <trkpt lat="44.62106" lon="3.63915">
        <ele>1325.58</ele>
        <time>2024-11-05T09:47:25.880Z</time>
      </trkpt>
      <trkpt lat="44.62085" lon="3.63885">
        <ele>1327.38</ele>
        <time>2024-11-05T09:47:26.470Z</time>
      </trkpt>
      <trkpt lat="44.6207" lon="3.63852">
        <ele>1329.21</ele>
        <time>2024-11-05T09:47:27.065Z</time>
      </trkpt>
      <trkpt lat="44.62054" lon="3.6382">
        <ele>1331.01</ele>
        <time>2024-11-05T09:47:27.664Z</time>
      </trkpt>
      <trkpt lat="44.62038" lon="3.63788">
        <ele>1332.8</ele>
        <time>2024-11-05T09:47:28.268Z</time>
      </trkpt>
      <trkpt lat="44.62023" lon="3.63756">
        <ele>1334.57</ele>
        <time>2024-11-05T09:47:28.876Z</time>
      </trkpt>
      <trkpt lat="44.62007" lon="3.63723">
        <ele>1336.4</ele>
        <time>2024-11-05T09:47:29.489Z</time>
      </trkpt>
      <trkpt lat="44.61991" lon="3.63691">
        <ele>1338.29</ele>
        <time>2024-11-05T09:47:30.106Z</time>
      </trkpt>
      <trkpt lat="44.61975" lon="3.63659">
        <ele>1340.22</ele>
        <time>2024-11-05T09:47:30.728Z</time>
      </trkpt>
      <trkpt lat="44.6196" lon="3.63627">
        <ele>1342.14</ele>
        <time>2024-11-05T09:47:31.354Z</time>
      </trkpt>
      <trkpt lat="44.61942" lon="3.63593">
        <ele>1344.02</ele>
        <time>2024-11-05T09:47:31.985Z</time>
      </trkpt>
      <trkpt lat="44.61925" lon="3.63571">
        <ele>1345.89</ele>
        <time>2024-11-05T09:47:32.620Z</time>
      </trkpt>
      <trkpt lat="44.61908" lon="3.63549">
        <ele>1347.76</ele>
        <time>2024-11-05T09:47:33.258Z</time>
      </trkpt>
      <trkpt lat="44.61891" lon="3.63527">
        <ele>1349.66</ele>
        <time>2024-11-05T09:47:33.900Z</time>
      </trkpt>
      <trkpt lat="44.61873" lon="3.63505">
        <ele>1351.54</ele>
        <time>2024-11-05T09:47:34.546Z</time>
      </trkpt>
      <trkpt lat="44.61856" lon="3.63483">
        <ele>1353.44</ele>
        <time>2024-11-05T09:47:35.195Z</time>
      </trkpt>
      <trkpt lat="44.61856" lon="3.63483">
        <ele>1355.28</ele>
        <time>2024-11-05T09:47:35.844Z</time>
      </trkpt>
      <trkpt lat="44.61842" lon="3.63463">
        <ele>1357.19</ele>
        <time>2024-11-05T09:47:36.497Z</time>
      </trkpt>
      <trkpt lat="44.61828" lon="3.63443">
        <ele>1359.12</ele>
        <time>2024-11-05T09:47:37.153Z</time>
      </trkpt>
      <trkpt lat="44.61821" lon="3.63424">
        <ele>1361.02</ele>
        <time>2024-11-05T09:47:37.811Z</time>
      </trkpt>
      <trkpt lat="44.61817" lon="3.63402">
        <ele>1362.93</ele>
        <time>2024-11-05T09:47:38.472Z</time>
      </trkpt>
      <trkpt lat="44.61812" lon="3.6338">
        <ele>1364.8</ele>
        <time>2024-11-05T09:47:39.135Z</time>
      </trkpt>
      <trkpt lat="44.61812" lon="3.6338">
        <ele>1366.66</ele>
        <time>2024-11-05T09:47:39.798Z</time>
      </trkpt>
      <trkpt lat="44.61809" lon="3.63367">
        <ele>1368.5</ele>
        <time>2024-11-05T09:47:40.463Z</time>
      </trkpt>
      <trkpt lat="44.61806" lon="3.63339">
        <ele>1370.35</ele>
        <time>2024-11-05T09:47:41.131Z</time>
      </trkpt>
      <trkpt lat="44.61803" lon="3.63311">
        <ele>1372.27</ele>
        <time>2024-11-05T09:47:41.803Z</time>
      </trkpt>
      <trkpt lat="44.61801" lon="3.63272">
        <ele>1374.28</ele>
        <time>2024-11-05T09:47:42.479Z</time>
      </trkpt>
      <trkpt lat="44.61798" lon="3.63234">
        <ele>1376.29</ele>
        <time>2024-11-05T09:47:43.159Z</time>
      </trkpt>
      <trkpt lat="44.61796" lon="3.63195">
        <ele>1378.31</ele>
        <time>2024-11-05T09:47:43.844Z</time>
      </trkpt>
      <trkpt lat="44.61793" lon="3.63156">
        <ele>1380.33</ele>
        <time>2024-11-05T09:47:44.533Z</time>
      </trkpt>
      <trkpt lat="44.61791" lon="3.63118">
        <ele>1382.33</ele>
        <time>2024-11-05T09:47:45.227Z</time>
      </trkpt>
      <trkpt lat="44.61788" lon="3.6308">
        <ele>1384.31</ele>
        <time>2024-11-05T09:47:45.925Z</time>
      </trkpt>
      <trkpt lat="44.61786" lon="3.63046">
        <ele>1386.26</ele>
        <time>2024-11-05T09:47:46.627Z</time>
      </trkpt>
      <trkpt lat="44.61785" lon="3.63011">
        <ele>1388.14</ele>
        <time>2024-11-05T09:47:47.333Z</time>
      </trkpt>
      <trkpt lat="44.61783" lon="3.62977">
        <ele>1390.02</ele>
        <time>2024-11-05T09:47:48.043Z</time>
      </trkpt>
      <trkpt lat="44.61783" lon="3.62936">
        <ele>1391.92</ele>
        <time>2024-11-05T09:47:48.758Z</time>
      </trkpt>
      <trkpt lat="44.61783" lon="3.62895">
        <ele>1393.81</ele>
        <time>2024-11-05T09:47:49.477Z</time>
      </trkpt>
      <trkpt lat="44.61782" lon="3.62873">
        <ele>1395.63</ele>
        <time>2024-11-05T09:47:50.199Z</time>
      </trkpt>
      <trkpt lat="44.61782" lon="3.6285">
        <ele>1397.4</ele>
        <time>2024-11-05T09:47:50.923Z</time>
      </trkpt>
      <trkpt lat="44.61779" lon="3.62828">
        <ele>1399.14</ele>
        <time>2024-11-05T09:47:51.650Z</time>
      </trkpt>
      <trkpt lat="44.61775" lon="3.62806">
        <ele>1400.83</ele>
        <time>2024-11-05T09:47:52.379Z</time>
      </trkpt>
      <trkpt lat="44.61768" lon="3.62768">
        <ele>1402.53</ele>
        <time>2024-11-05T09:47:53.113Z</time>
      </trkpt>
      <trkpt lat="44.61758" lon="3.62728">
        <ele>1404.25</ele>
        <time>2024-11-05T09:47:53.852Z</time>
      </trkpt>
      <trkpt lat="44.61747" lon="3.62688">
        <ele>1405.91</ele>
        <time>2024-11-05T09:47:54.596Z</time>
      </trkpt>
      <trkpt lat="44.61736" lon="3.6265">
        <ele>1407.54</ele>
        <time>2024-11-05T09:47:55.344Z</time>
      </trkpt>
      <trkpt lat="44.61724" lon="3.62626">
        <ele>1409.11</ele>
        <time>2024-11-05T09:47:56.096Z</time>
      </trkpt>
      <trkpt lat="44.61701" lon="3.62597">
        <ele>1410.63</ele>
        <time>2024-11-05T09:47:56.853Z</time>
      </trkpt>
      <trkpt lat="44.61678" lon="3.62568">
        <ele>1412.17</ele>
        <time>2024-11-05T09:47:57.615Z</time>
      </trkpt>
      <trkpt lat="44.61655" lon="3.62539">
        <ele>1413.71</ele>
        <time>2024-11-05T09:47:58.382Z</time>
      </trkpt>
      <trkpt lat="44.61655" lon="3.62539">
        <ele>1415.15</ele>
        <time>2024-11-05T09:47:59.149Z</time>
      </trkpt>
      <trkpt lat="44.61634" lon="3.62513">
        <ele>1416.62</ele>
        <time>2024-11-05T09:47:59.920Z</time>
      </trkpt>
      <trkpt lat="44.61612" lon="3.62488">
        <ele>1418.06</ele>
        <time>2024-11-05T09:48:00.696Z</time>
      </trkpt>
      <trkpt lat="44.61591" lon="3.62462">
        <ele>1419.45</ele>
        <time>2024-11-05T09:48:01.476Z</time>
      </trkpt>
      <trkpt lat="44.61569" lon="3.62436">
        <ele>1420.8</ele>
        <time>2024-11-05T09:48:02.261Z</time>
      </trkpt>
      <trkpt lat="44.61548" lon="3.62409">
        <ele>1422.13</ele>
        <time>2024-11-05T09:48:03.050Z</time>
      </trkpt>
      <trkpt lat="44.61527" lon="3.62381">
        <ele>1423.41</ele>
        <time>2024-11-05T09:48:03.844Z</time>
      </trkpt>
      <trkpt lat="44.61506" lon="3.62354">
        <ele>1424.68</ele>
        <time>2024-11-05T09:48:04.643Z</time>
      </trkpt>
      <trkpt lat="44.6149" lon="3.62331">
        <ele>1425.85</ele>
        <time>2024-11-05T09:48:05.445Z</time>
      </trkpt>
      <trkpt lat="44.61474" lon="3.62308">
        <ele>1426.96</ele>
        <time>2024-11-05T09:48:06.251Z</time>
      </trkpt>
      <trkpt lat="44.61458" lon="3.62285">
        <ele>1428.06</ele>
        <time>2024-11-05T09:48:07.061Z</time>
      </trkpt>
      <trkpt lat="44.61438" lon="3.62255">
        <ele>1429.15</ele>
        <time>2024-11-05T09:48:07.875Z</time>
      </trkpt>
      <trkpt lat="44.61418" lon="3.62225">
        <ele>1430.14</ele>
        <time>2024-11-05T09:48:08.694Z</time>
      </trkpt>
      <trkpt lat="44.61398" lon="3.62195">
        <ele>1431.08</ele>
        <time>2024-11-05T09:48:09.518Z</time>
      </trkpt>
      <trkpt lat="44.61378" lon="3.62165">
        <ele>1432.01</ele>
        <time>2024-11-05T09:48:10.346Z</time>
      </trkpt>
      <trkpt lat="44.61358" lon="3.62135">
        <ele>1432.87</ele>
        <time>2024-11-05T09:48:11.179Z</time>
      </trkpt>
      <trkpt lat="44.61338" lon="3.62106">
        <ele>1433.65</ele>
        <time>2024-11-05T09:48:12.017Z</time>
      </trkpt>
      <trkpt lat="44.6133" lon="3.62089">
        <ele>1434.36</ele>
        <time>2024-11-05T09:48:12.857Z</time>
      </trkpt>
      <trkpt lat="44.61324" lon="3.62069">
        <ele>1435</ele>
        <time>2024-11-05T09:48:13.699Z</time>
      </trkpt>
      <trkpt lat="44.61322" lon="3.62033">
        <ele>1435.6</ele>
        <time>2024-11-05T09:48:14.546Z</time>
      </trkpt>
      <trkpt lat="44.6132" lon="3.61997">
        <ele>1436.12</ele>
        <time>2024-11-05T09:48:15.397Z</time>
      </trkpt>
      <trkpt lat="44.61319" lon="3.61961">
        <ele>1436.59</ele>
        <time>2024-11-05T09:48:16.252Z</time>
      </trkpt>
      <trkpt lat="44.61317" lon="3.61926">
        <ele>1436.95</ele>
        <time>2024-11-05T09:48:17.111Z</time>
      </trkpt>
      <trkpt lat="44.61318" lon="3.61902">
        <ele>1437.26</ele>
        <time>2024-11-05T09:48:17.972Z</time>
      </trkpt>
      <trkpt lat="44.61318" lon="3.61879">
        <ele>1437.45</ele>
        <time>2024-11-05T09:48:18.836Z</time>
      </trkpt>
      <trkpt lat="44.61323" lon="3.61849">
        <ele>1437.58</ele>
        <time>2024-11-05T09:48:19.704Z</time>
      </trkpt>
      <trkpt lat="44.61333" lon="3.61813">
        <ele>1437.6</ele>
        <time>2024-11-05T09:48:20.576Z</time>
      </trkpt>
      <trkpt lat="44.61343" lon="3.61776">
        <ele>1437.55</ele>
        <time>2024-11-05T09:48:21.453Z</time>
      </trkpt>
      <trkpt lat="44.61347" lon="3.6175">
        <ele>1437.43</ele>
        <time>2024-11-05T09:48:22.333Z</time>
      </trkpt>
      <trkpt lat="44.6135" lon="3.61724">
        <ele>1437.24</ele>
        <time>2024-11-05T09:48:23.216Z</time>
      </trkpt>
      <trkpt lat="44.61355" lon="3.6169">
        <ele>1436.94</ele>
        <time>2024-11-05T09:48:24.103Z</time>
      </trkpt>
      <trkpt lat="44.61359" lon="3.61656">
        <ele>1436.61</ele>
        <time>2024-11-05T09:48:24.994Z</time>
      </trkpt>
      <trkpt lat="44.61363" lon="3.61621">
        <ele>1436.25</ele>
        <time>2024-11-05T09:48:25.889Z</time>
      </trkpt>
      <trkpt lat="44.61367" lon="3.61588">
        <ele>1435.78</ele>
        <time>2024-11-05T09:48:26.787Z</time>
      </trkpt>
      <trkpt lat="44.61369" lon="3.61568">
        <ele>1435.28</ele>
        <time>2024-11-05T09:48:27.688Z</time>
      </trkpt>
      <trkpt lat="44.61371" lon="3.61526">
        <ele>1434.71</ele>
        <time>2024-11-05T09:48:28.594Z</time>
      </trkpt>
      <trkpt lat="44.61373" lon="3.61484">
        <ele>1434.09</ele>
        <time>2024-11-05T09:48:29.504Z</time>
      </trkpt>
      <trkpt lat="44.61375" lon="3.61442">
        <ele>1433.38</ele>
        <time>2024-11-05T09:48:30.419Z</time>
      </trkpt>
      <trkpt lat="44.61379" lon="3.61403">
        <ele>1432.62</ele>
        <time>2024-11-05T09:48:31.339Z</time>
      </trkpt>
      <trkpt lat="44.61382" lon="3.61364">
        <ele>1431.82</ele>
        <time>2024-11-05T09:48:32.263Z</time>
      </trkpt>
      <trkpt lat="44.61386" lon="3.61325">
        <ele>1430.98</ele>
        <time>2024-11-05T09:48:33.192Z</time>
      </trkpt>
      <trkpt lat="44.61389" lon="3.61286">
        <ele>1430.08</ele>
        <time>2024-11-05T09:48:34.125Z</time>
      </trkpt>
      <trkpt lat="44.61398" lon="3.6125">
        <ele>1429.14</ele>
        <time>2024-11-05T09:48:35.062Z</time>
      </trkpt>
      <trkpt lat="44.61407" lon="3.61215">
        <ele>1428.14</ele>
        <time>2024-11-05T09:48:36.004Z</time>
      </trkpt>
      <trkpt lat="44.61416" lon="3.61179">
        <ele>1427.09</ele>
        <time>2024-11-05T09:48:36.950Z</time>
      </trkpt>
      <trkpt lat="44.61425" lon="3.61143">
        <ele>1426.02</ele>
        <time>2024-11-05T09:48:37.900Z</time>
      </trkpt>
      <trkpt lat="44.6143" lon="3.61117">
        <ele>1424.89</ele>
        <time>2024-11-05T09:48:38.854Z</time>
      </trkpt>
      <trkpt lat="44.61436" lon="3.6109">
        <ele>1423.72</ele>
        <time>2024-11-05T09:48:39.811Z</time>
      </trkpt>
      <trkpt lat="44.61443" lon="3.61048">
        <ele>1422.49</ele>
        <time>2024-11-05T09:48:40.773Z</time>
      </trkpt>
      <trkpt lat="44.61443" lon="3.6102">
        <ele>1421.25</ele>
        <time>2024-11-05T09:48:41.738Z</time>
      </trkpt>
      <trkpt lat="44.61444" lon="3.60993">
        <ele>1419.99</ele>
        <time>2024-11-05T09:48:42.706Z</time>
      </trkpt>
      <trkpt lat="44.61442" lon="3.60961">
        <ele>1418.69</ele>
        <time>2024-11-05T09:48:43.678Z</time>
      </trkpt>
      <trkpt lat="44.6144" lon="3.60928">
        <ele>1417.33</ele>
        <time>2024-11-05T09:48:44.653Z</time>
      </trkpt>
      <trkpt lat="44.61437" lon="3.60896">
        <ele>1415.96</ele>
        <time>2024-11-05T09:48:45.632Z</time>
      </trkpt>
      <trkpt lat="44.61431" lon="3.60862">
        <ele>1414.58</ele>
        <time>2024-11-05T09:48:46.615Z</time>
      </trkpt>
      <trkpt lat="44.61425" lon="3.60829">
        <ele>1413.18</ele>
        <time>2024-11-05T09:48:47.602Z</time>
      </trkpt>
      <trkpt lat="44.61412" lon="3.60791">
        <ele>1411.77</ele>
        <time>2024-11-05T09:48:48.594Z</time>
      </trkpt>
      <trkpt lat="44.61401" lon="3.60779">
        <ele>1410.35</ele>
        <time>2024-11-05T09:48:49.588Z</time>
      </trkpt>
      <trkpt lat="44.6139" lon="3.6077">
        <ele>1408.92</ele>
        <time>2024-11-05T09:48:50.584Z</time>
      </trkpt>
      <trkpt lat="44.61362" lon="3.60755">
        <ele>1407.42</ele>
        <time>2024-11-05T09:48:51.585Z</time>
      </trkpt>
      <trkpt lat="44.61333" lon="3.6074">
        <ele>1405.91</ele>
        <time>2024-11-05T09:48:52.591Z</time>
      </trkpt>
      <trkpt lat="44.61304" lon="3.60725">
        <ele>1404.39</ele>
        <time>2024-11-05T09:48:53.602Z</time>
      </trkpt>
      <trkpt lat="44.61279" lon="3.60712">
        <ele>1402.84</ele>
        <time>2024-11-05T09:48:54.617Z</time>
      </trkpt>
      <trkpt lat="44.61254" lon="3.607">
        <ele>1401.38</ele>
        <time>2024-11-05T09:48:55.636Z</time>
      </trkpt>
      <trkpt lat="44.61229" lon="3.60687">
        <ele>1399.95</ele>
        <time>2024-11-05T09:48:56.660Z</time>
      </trkpt>
      <trkpt lat="44.61204" lon="3.60675">
        <ele>1398.51</ele>
        <time>2024-11-05T09:48:57.688Z</time>
      </trkpt>
      <trkpt lat="44.61175" lon="3.60659">
        <ele>1397.04</ele>
        <time>2024-11-05T09:48:58.721Z</time>
      </trkpt>
      <trkpt lat="44.61146" lon="3.60644">
        <ele>1395.64</ele>
        <time>2024-11-05T09:48:59.759Z</time>
      </trkpt>
      <trkpt lat="44.61118" lon="3.60628">
        <ele>1394.3</ele>
        <time>2024-11-05T09:49:00.802Z</time>
      </trkpt>
      <trkpt lat="44.61092" lon="3.60615">
        <ele>1393</ele>
        <time>2024-11-05T09:49:01.849Z</time>
      </trkpt>
      <trkpt lat="44.61065" lon="3.60602">
        <ele>1391.73</ele>
        <time>2024-11-05T09:49:02.900Z</time>
      </trkpt>
      <trkpt lat="44.61039" lon="3.60589">
        <ele>1390.48</ele>
        <time>2024-11-05T09:49:03.956Z</time>
      </trkpt>
      <trkpt lat="44.6102" lon="3.60574">
        <ele>1389.27</ele>
        <time>2024-11-05T09:49:05.015Z</time>
      </trkpt>
      <trkpt lat="44.61" lon="3.6056">
        <ele>1388.11</ele>
        <time>2024-11-05T09:49:06.078Z</time>
      </trkpt>
      <trkpt lat="44.60982" lon="3.60542">
        <ele>1387.05</ele>
        <time>2024-11-05T09:49:07.145Z</time>
      </trkpt>
      <trkpt lat="44.60964" lon="3.60525">
        <ele>1386.03</ele>
        <time>2024-11-05T09:49:08.215Z</time>
      </trkpt>
      <trkpt lat="44.60946" lon="3.60507">
        <ele>1385.06</ele>
        <time>2024-11-05T09:49:09.289Z</time>
      </trkpt>
      <trkpt lat="44.6094" lon="3.60502">
        <ele>1384.14</ele>
        <time>2024-11-05T09:49:10.364Z</time>
      </trkpt>
      <trkpt lat="44.60919" lon="3.60472">
        <ele>1383.22</ele>
        <time>2024-11-05T09:49:11.444Z</time>
      </trkpt>
      <trkpt lat="44.60898" lon="3.60442">
        <ele>1382.39</ele>
        <time>2024-11-05T09:49:12.528Z</time>
      </trkpt>
      <trkpt lat="44.60878" lon="3.60412">
        <ele>1381.63</ele>
        <time>2024-11-05T09:49:13.617Z</time>
      </trkpt>
      <trkpt lat="44.60859" lon="3.60382">
        <ele>1380.98</ele>
        <time>2024-11-05T09:49:14.711Z</time>
      </trkpt>
      <trkpt lat="44.60851" lon="3.60363">
        <ele>1380.38</ele>
        <time>2024-11-05T09:49:15.807Z</time>
      </trkpt>
      <trkpt lat="44.60843" lon="3.60342">
        <ele>1379.83</ele>
        <time>2024-11-05T09:49:16.906Z</time>
      </trkpt>
      <trkpt lat="44.60835" lon="3.60311">
        <ele>1379.36</ele>
        <time>2024-11-05T09:49:18.009Z</time>
      </trkpt>
      <trkpt lat="44.60828" lon="3.60281">
        <ele>1378.99</ele>
        <time>2024-11-05T09:49:19.115Z</time>
      </trkpt>
      <trkpt lat="44.60823" lon="3.60245">
        <ele>1378.71</ele>
        <time>2024-11-05T09:49:20.225Z</time>
      </trkpt>
      <trkpt lat="44.60819" lon="3.60208">
        <ele>1378.45</ele>
        <time>2024-11-05T09:49:21.340Z</time>
      </trkpt>
      <trkpt lat="44.60814" lon="3.60172">
        <ele>1378.19</ele>
        <time>2024-11-05T09:49:22.459Z</time>
      </trkpt>
      <trkpt lat="44.60809" lon="3.60144">
        <ele>1377.95</ele>
        <time>2024-11-05T09:49:23.581Z</time>
      </trkpt>
      <trkpt lat="44.60804" lon="3.60116">
        <ele>1377.81</ele>
        <time>2024-11-05T09:49:24.706Z</time>
      </trkpt>
      <trkpt lat="44.60795" lon="3.60084">
        <ele>1377.73</ele>
        <time>2024-11-05T09:49:25.835Z</time>
      </trkpt>
      <trkpt lat="44.60782" lon="3.60057">
        <ele>1377.69</ele>
        <time>2024-11-05T09:49:26.968Z</time>
      </trkpt>
      <trkpt lat="44.60762" lon="3.60028">
        <ele>1377.64</ele>
        <time>2024-11-05T09:49:28.106Z</time>
      </trkpt>
      <trkpt lat="44.60742" lon="3.6">
        <ele>1377.6</ele>
        <time>2024-11-05T09:49:29.248Z</time>
      </trkpt>
      <trkpt lat="44.60721" lon="3.59971">
        <ele>1377.64</ele>
        <time>2024-11-05T09:49:30.395Z</time>
      </trkpt>
      <trkpt lat="44.60701" lon="3.59943">
        <ele>1377.75</ele>
        <time>2024-11-05T09:49:31.546Z</time>
      </trkpt>
      <trkpt lat="44.60681" lon="3.59914">
        <ele>1377.88</ele>
        <time>2024-11-05T09:49:32.702Z</time>
      </trkpt>
      <trkpt lat="44.60661" lon="3.59885">
        <ele>1378.04</ele>
        <time>2024-11-05T09:49:33.863Z</time>
      </trkpt>
      <trkpt lat="44.60641" lon="3.59857">
        <ele>1378.27</ele>
        <time>2024-11-05T09:49:35.028Z</time>
      </trkpt>
      <trkpt lat="44.60621" lon="3.59828">
        <ele>1378.58</ele>
        <time>2024-11-05T09:49:36.198Z</time>
      </trkpt>
      <trkpt lat="44.60601" lon="3.598">
        <ele>1378.91</ele>
        <time>2024-11-05T09:49:37.372Z</time>
      </trkpt>
      <trkpt lat="44.60581" lon="3.59768">
        <ele>1379.31</ele>
        <time>2024-11-05T09:49:38.551Z</time>
      </trkpt>
      <trkpt lat="44.60561" lon="3.59737">
        <ele>1379.77</ele>
        <time>2024-11-05T09:49:39.735Z</time>
      </trkpt>
      <trkpt lat="44.60547" lon="3.59707">
        <ele>1380.24</ele>
        <time>2024-11-05T09:49:40.923Z</time>
      </trkpt>
      <trkpt lat="44.60533" lon="3.59677">
        <ele>1380.75</ele>
        <time>2024-11-05T09:49:42.115Z</time>
      </trkpt>
      <trkpt lat="44.60523" lon="3.5965">
        <ele>1381.26</ele>
        <time>2024-11-05T09:49:43.311Z</time>
      </trkpt>
      <trkpt lat="44.60514" lon="3.59624">
        <ele>1381.79</ele>
        <time>2024-11-05T09:49:44.510Z</time>
      </trkpt>
      <trkpt lat="44.6051" lon="3.5961">
        <ele>1382.31</ele>
        <time>2024-11-05T09:49:45.711Z</time>
      </trkpt>
      <trkpt lat="44.60513" lon="3.59598">
        <ele>1382.85</ele>
        <time>2024-11-05T09:49:46.913Z</time>
      </trkpt>
      <trkpt lat="44.60524" lon="3.59582">
        <ele>1383.39</ele>
        <time>2024-11-05T09:49:48.118Z</time>
      </trkpt>
      <trkpt lat="44.60535" lon="3.59565">
        <ele>1383.97</ele>
        <time>2024-11-05T09:49:49.325Z</time>
      </trkpt>
      <trkpt lat="44.60561" lon="3.59541">
        <ele>1384.53</ele>
        <time>2024-11-05T09:49:50.537Z</time>
      </trkpt>
      <trkpt lat="44.60587" lon="3.59517">
        <ele>1385.11</ele>
        <time>2024-11-05T09:49:51.754Z</time>
      </trkpt>
      <trkpt lat="44.60612" lon="3.59492">
        <ele>1385.65</ele>
        <time>2024-11-05T09:49:52.976Z</time>
      </trkpt>
      <trkpt lat="44.6063" lon="3.59473">
        <ele>1386.17</ele>
        <time>2024-11-05T09:49:54.202Z</time>
      </trkpt>
      <trkpt lat="44.6064" lon="3.59454">
        <ele>1386.7</ele>
        <time>2024-11-05T09:49:55.430Z</time>
      </trkpt>
      <trkpt lat="44.60651" lon="3.59424">
        <ele>1387.24</ele>
        <time>2024-11-05T09:49:56.662Z</time>
      </trkpt>
      <trkpt lat="44.60654" lon="3.59416">
        <ele>1387.72</ele>
        <time>2024-11-05T09:49:57.895Z</time>
      </trkpt>
      <trkpt lat="44.60654" lon="3.59416">
        <ele>1388.18</ele>
        <time>2024-11-05T09:49:59.128Z</time>
      </trkpt>
      <trkpt lat="44.60664" lon="3.59382">
        <ele>1388.65</ele>
        <time>2024-11-05T09:50:00.366Z</time>
      </trkpt>
      <trkpt lat="44.60674" lon="3.59348">
        <ele>1389.09</ele>
        <time>2024-11-05T09:50:01.608Z</time>
      </trkpt>
      <trkpt lat="44.60684" lon="3.59313">
        <ele>1389.54</ele>
        <time>2024-11-05T09:50:02.854Z</time>
      </trkpt>
      <trkpt lat="44.60695" lon="3.59279">
        <ele>1389.92</ele>
        <time>2024-11-05T09:50:04.104Z</time>
      </trkpt>
      <trkpt lat="44.60705" lon="3.59245">
        <ele>1390.24</ele>
        <time>2024-11-05T09:50:05.358Z</time>
      </trkpt>
      <trkpt lat="44.60713" lon="3.59215">
        <ele>1390.55</ele>
        <time>2024-11-05T09:50:06.616Z</time>
      </trkpt>
      <trkpt lat="44.60721" lon="3.59184">
        <ele>1390.8</ele>
        <time>2024-11-05T09:50:07.878Z</time>
      </trkpt>
      <trkpt lat="44.60729" lon="3.59153">
        <ele>1391.02</ele>
        <time>2024-11-05T09:50:09.144Z</time>
      </trkpt>
      <trkpt lat="44.60734" lon="3.59131">
        <ele>1391.22</ele>
        <time>2024-11-05T09:50:10.412Z</time>
      </trkpt>
      <trkpt lat="44.60734" lon="3.59102">
        <ele>1391.38</ele>
        <time>2024-11-05T09:50:11.684Z</time>
      </trkpt>
      <trkpt lat="44.60727" lon="3.59059">
        <ele>1391.49</ele>
        <time>2024-11-05T09:50:12.961Z</time>
      </trkpt>
      <trkpt lat="44.60719" lon="3.59017">
        <ele>1391.56</ele>
        <time>2024-11-05T09:50:14.243Z</time>
      </trkpt>
      <trkpt lat="44.60711" lon="3.58975">
        <ele>1391.64</ele>
        <time>2024-11-05T09:50:15.530Z</time>
      </trkpt>
      <trkpt lat="44.60707" lon="3.58937">
        <ele>1391.63</ele>
        <time>2024-11-05T09:50:16.821Z</time>
      </trkpt>
      <trkpt lat="44.60704" lon="3.589">
        <ele>1391.59</ele>
        <time>2024-11-05T09:50:18.116Z</time>
      </trkpt>
      <trkpt lat="44.607" lon="3.58862">
        <ele>1391.56</ele>
        <time>2024-11-05T09:50:19.416Z</time>
      </trkpt>
      <trkpt lat="44.60697" lon="3.58837">
        <ele>1391.49</ele>
        <time>2024-11-05T09:50:20.719Z</time>
      </trkpt>
      <trkpt lat="44.60689" lon="3.5881">
        <ele>1391.37</ele>
        <time>2024-11-05T09:50:22.025Z</time>
      </trkpt>
      <trkpt lat="44.60678" lon="3.58787">
        <ele>1391.2</ele>
        <time>2024-11-05T09:50:23.334Z</time>
      </trkpt>
      <trkpt lat="44.60661" lon="3.58763">
        <ele>1391.01</ele>
        <time>2024-11-05T09:50:24.647Z</time>
      </trkpt>
      <trkpt lat="44.60644" lon="3.58738">
        <ele>1390.79</ele>
        <time>2024-11-05T09:50:25.964Z</time>
      </trkpt>
      <trkpt lat="44.60627" lon="3.58713">
        <ele>1390.59</ele>
        <time>2024-11-05T09:50:27.285Z</time>
      </trkpt>
      <trkpt lat="44.60608" lon="3.58681">
        <ele>1390.4</ele>
        <time>2024-11-05T09:50:28.611Z</time>
      </trkpt>
      <trkpt lat="44.60596" lon="3.58659">
        <ele>1390.2</ele>
        <time>2024-11-05T09:50:29.940Z</time>
      </trkpt>
      <trkpt lat="44.60592" lon="3.58639">
        <ele>1389.97</ele>
        <time>2024-11-05T09:50:31.271Z</time>
      </trkpt>
      <trkpt lat="44.60594" lon="3.58622">
        <ele>1389.76</ele>
        <time>2024-11-05T09:50:32.604Z</time>
      </trkpt>
      <trkpt lat="44.60602" lon="3.58605">
        <ele>1389.5</ele>
        <time>2024-11-05T09:50:33.939Z</time>
      </trkpt>
      <trkpt lat="44.60624" lon="3.58587">
        <ele>1389.19</ele>
        <time>2024-11-05T09:50:35.278Z</time>
      </trkpt>
      <trkpt lat="44.60646" lon="3.58568">
        <ele>1388.84</ele>
        <time>2024-11-05T09:50:36.622Z</time>
      </trkpt>
      <trkpt lat="44.60669" lon="3.58544">
        <ele>1388.51</ele>
        <time>2024-11-05T09:50:37.970Z</time>
      </trkpt>
      <trkpt lat="44.60686" lon="3.58518">
        <ele>1388.23</ele>
        <time>2024-11-05T09:50:39.322Z</time>
      </trkpt>
      <trkpt lat="44.60696" lon="3.58493">
        <ele>1387.97</ele>
        <time>2024-11-05T09:50:40.677Z</time>
      </trkpt>
      <trkpt lat="44.60702" lon="3.58462">
        <ele>1387.72</ele>
        <time>2024-11-05T09:50:42.036Z</time>
      </trkpt>
      <trkpt lat="44.60704" lon="3.58432">
        <ele>1387.46</ele>
        <time>2024-11-05T09:50:43.399Z</time>
      </trkpt>
      <trkpt lat="44.607" lon="3.58398">
        <ele>1387.21</ele>
        <time>2024-11-05T09:50:44.766Z</time>
      </trkpt>
      <trkpt lat="44.60694" lon="3.58355">
        <ele>1387.02</ele>
        <time>2024-11-05T09:50:46.138Z</time>
      </trkpt>
      <trkpt lat="44.60683" lon="3.58315">
        <ele>1386.81</ele>
        <time>2024-11-05T09:50:47.514Z</time>
      </trkpt>
      <trkpt lat="44.60674" lon="3.58287">
        <ele>1386.63</ele>
        <time>2024-11-05T09:50:48.894Z</time>
      </trkpt>
      <trkpt lat="44.60665" lon="3.58259">
        <ele>1386.51</ele>
        <time>2024-11-05T09:50:50.278Z</time>
      </trkpt>
      <trkpt lat="44.60656" lon="3.58231">
        <ele>1386.43</ele>
        <time>2024-11-05T09:50:51.665Z</time>
      </trkpt>
      <trkpt lat="44.60652" lon="3.58197">
        <ele>1386.33</ele>
        <time>2024-11-05T09:50:53.056Z</time>
      </trkpt>
      <trkpt lat="44.60653" lon="3.58167">
        <ele>1386.24</ele>
        <time>2024-11-05T09:50:54.450Z</time>
      </trkpt>
      <trkpt lat="44.60653" lon="3.58167">
        <ele>1386.23</ele>
        <time>2024-11-05T09:50:55.844Z</time>
      </trkpt>
      <trkpt lat="44.60658" lon="3.58124">
        <ele>1386.22</ele>
        <time>2024-11-05T09:50:57.243Z</time>
      </trkpt>
      <trkpt lat="44.60668" lon="3.58101">
        <ele>1386.24</ele>
        <time>2024-11-05T09:50:58.645Z</time>
      </trkpt>
      <trkpt lat="44.60686" lon="3.58079">
        <ele>1386.27</ele>
        <time>2024-11-05T09:51:00.051Z</time>
      </trkpt>
      <trkpt lat="44.60692" lon="3.58074">
        <ele>1386.38</ele>
        <time>2024-11-05T09:51:01.458Z</time>
      </trkpt>
      <trkpt lat="44.60717" lon="3.58048">
        <ele>1386.57</ele>
        <time>2024-11-05T09:51:02.870Z</time>
      </trkpt>
      <trkpt lat="44.60743" lon="3.58023">
        <ele>1386.83</ele>
        <time>2024-11-05T09:51:04.287Z</time>
      </trkpt>
      <trkpt lat="44.60768" lon="3.57997">
        <ele>1387.13</ele>
        <time>2024-11-05T09:51:05.709Z</time>
      </trkpt>
      <trkpt lat="44.60794" lon="3.57972">
        <ele>1387.47</ele>
        <time>2024-11-05T09:51:07.136Z</time>
      </trkpt>
      <trkpt lat="44.60819" lon="3.57947">
        <ele>1387.82</ele>
        <time>2024-11-05T09:51:08.568Z</time>
      </trkpt>
      <trkpt lat="44.60845" lon="3.57921">
        <ele>1388.21</ele>
        <time>2024-11-05T09:51:10.005Z</time>
      </trkpt>
      <trkpt lat="44.6087" lon="3.57896">
        <ele>1388.63</ele>
        <time>2024-11-05T09:51:11.447Z</time>
      </trkpt>
      <trkpt lat="44.60895" lon="3.5787">
        <ele>1389.04</ele>
        <time>2024-11-05T09:51:12.894Z</time>
      </trkpt>
      <trkpt lat="44.60921" lon="3.57845">
        <ele>1389.52</ele>
        <time>2024-11-05T09:51:14.346Z</time>
      </trkpt>
      <trkpt lat="44.60946" lon="3.57819">
        <ele>1390.08</ele>
        <time>2024-11-05T09:51:15.803Z</time>
      </trkpt>
      <trkpt lat="44.60972" lon="3.57794">
        <ele>1390.68</ele>
        <time>2024-11-05T09:51:17.265Z</time>
      </trkpt>
      <trkpt lat="44.60984" lon="3.57776">
        <ele>1391.25</ele>
        <time>2024-11-05T09:51:18.730Z</time>
      </trkpt>
      <trkpt lat="44.60996" lon="3.57758">
        <ele>1391.87</ele>
        <time>2024-11-05T09:51:20.198Z</time>
      </trkpt>
      <trkpt lat="44.61009" lon="3.57737">
        <ele>1392.53</ele>
        <time>2024-11-05T09:51:21.669Z</time>
      </trkpt>
      <trkpt lat="44.61021" lon="3.57716">
        <ele>1393.19</ele>
        <time>2024-11-05T09:51:23.143Z</time>
      </trkpt>
      <trkpt lat="44.61033" lon="3.57691">
        <ele>1393.89</ele>
        <time>2024-11-05T09:51:24.621Z</time>
      </trkpt>
      <trkpt lat="44.61045" lon="3.57667">
        <ele>1394.57</ele>
        <time>2024-11-05T09:51:26.102Z</time>
      </trkpt>
      <trkpt lat="44.61053" lon="3.57646">
        <ele>1395.28</ele>
        <time>2024-11-05T09:51:27.586Z</time>
      </trkpt>
      <trkpt lat="44.61062" lon="3.57625">
        <ele>1395.98</ele>
        <time>2024-11-05T09:51:29.073Z</time>
      </trkpt>
      <trkpt lat="44.6107" lon="3.57599">
        <ele>1396.69</ele>
        <time>2024-11-05T09:51:30.563Z</time>
      </trkpt>
      <trkpt lat="44.61079" lon="3.57572">
        <ele>1397.41</ele>
        <time>2024-11-05T09:51:32.056Z</time>
      </trkpt>
      <trkpt lat="44.61089" lon="3.57531">
        <ele>1398.16</ele>
        <time>2024-11-05T09:51:33.554Z</time>
      </trkpt>
      <trkpt lat="44.61097" lon="3.5749">
        <ele>1398.86</ele>
        <time>2024-11-05T09:51:35.057Z</time>
      </trkpt>
      <trkpt lat="44.61102" lon="3.57456">
        <ele>1399.6</ele>
        <time>2024-11-05T09:51:36.564Z</time>
      </trkpt>
      <trkpt lat="44.61103" lon="3.57413">
        <ele>1400.41</ele>
        <time>2024-11-05T09:51:38.076Z</time>
      </trkpt>
      <trkpt lat="44.61105" lon="3.57371">
        <ele>1401.21</ele>
        <time>2024-11-05T09:51:39.593Z</time>
      </trkpt>
      <trkpt lat="44.6111" lon="3.5734">
        <ele>1401.95</ele>
        <time>2024-11-05T09:51:41.113Z</time>
      </trkpt>
      <trkpt lat="44.61122" lon="3.57308">
        <ele>1402.64</ele>
        <time>2024-11-05T09:51:42.637Z</time>
      </trkpt>
      <trkpt lat="44.61131" lon="3.57275">
        <ele>1403.34</ele>
        <time>2024-11-05T09:51:44.166Z</time>
      </trkpt>
      <trkpt lat="44.61137" lon="3.57236">
        <ele>1404.03</ele>
        <time>2024-11-05T09:51:45.699Z</time>
      </trkpt>
      <trkpt lat="44.61144" lon="3.57196">
        <ele>1404.7</ele>
        <time>2024-11-05T09:51:47.237Z</time>
      </trkpt>
      <trkpt lat="44.61151" lon="3.57158">
        <ele>1405.31</ele>
        <time>2024-11-05T09:51:48.779Z</time>
      </trkpt>
      <trkpt lat="44.61154" lon="3.57123">
        <ele>1405.92</ele>
        <time>2024-11-05T09:51:50.325Z</time>
      </trkpt>
      <trkpt lat="44.61157" lon="3.57088">
        <ele>1406.5</ele>
        <time>2024-11-05T09:51:51.875Z</time>
      </trkpt>
      <trkpt lat="44.61158" lon="3.57052">
        <ele>1407.04</ele>
        <time>2024-11-05T09:51:53.429Z</time>
      </trkpt>
      <trkpt lat="44.6116" lon="3.57016">
        <ele>1407.57</ele>
        <time>2024-11-05T09:51:54.988Z</time>
      </trkpt>
      <trkpt lat="44.61158" lon="3.56979">
        <ele>1408.04</ele>
        <time>2024-11-05T09:51:56.551Z</time>
      </trkpt>
      <trkpt lat="44.61157" lon="3.56942">
        <ele>1408.48</ele>
        <time>2024-11-05T09:51:58.118Z</time>
      </trkpt>
      <trkpt lat="44.61156" lon="3.56906">
        <ele>1408.85</ele>
        <time>2024-11-05T09:51:59.689Z</time>
      </trkpt>
      <trkpt lat="44.61155" lon="3.56869">
        <ele>1409.22</ele>
        <time>2024-11-05T09:52:01.264Z</time>
      </trkpt>
      <trkpt lat="44.61154" lon="3.56833">
        <ele>1409.55</ele>
        <time>2024-11-05T09:52:02.844Z</time>
      </trkpt>
      <trkpt lat="44.61155" lon="3.5679">
        <ele>1409.85</ele>
        <time>2024-11-05T09:52:04.428Z</time>
      </trkpt>
      <trkpt lat="44.61156" lon="3.56748">
        <ele>1410.11</ele>
        <time>2024-11-05T09:52:06.017Z</time>
      </trkpt>
      <trkpt lat="44.61158" lon="3.56725">
        <ele>1410.33</ele>
        <time>2024-11-05T09:52:07.609Z</time>
      </trkpt>
      <trkpt lat="44.61161" lon="3.56702">
        <ele>1410.54</ele>
        <time>2024-11-05T09:52:09.204Z</time>
      </trkpt>
      <trkpt lat="44.61168" lon="3.56659">
        <ele>1410.71</ele>
        <time>2024-11-05T09:52:10.804Z</time>
      </trkpt>
      <trkpt lat="44.61175" lon="3.56616">
        <ele>1410.86</ele>
        <time>2024-11-05T09:52:12.409Z</time>
      </trkpt>
      <trkpt lat="44.61179" lon="3.56585">
        <ele>1410.93</ele>
        <time>2024-11-05T09:52:14.017Z</time>
      </trkpt>
      <trkpt lat="44.61183" lon="3.56555">
        <ele>1410.94</ele>
        <time>2024-11-05T09:52:15.629Z</time>
      </trkpt>
      <trkpt lat="44.61185" lon="3.56514">
        <ele>1410.88</ele>
        <time>2024-11-05T09:52:17.245Z</time>
      </trkpt>
      <trkpt lat="44.61183" lon="3.56481">
        <ele>1410.81</ele>
        <time>2024-11-05T09:52:18.865Z</time>
      </trkpt>
      <trkpt lat="44.6118" lon="3.56449">
        <ele>1410.73</ele>
        <time>2024-11-05T09:52:20.489Z</time>
      </trkpt>
      <trkpt lat="44.61178" lon="3.56416">
        <ele>1410.63</ele>
        <time>2024-11-05T09:52:22.117Z</time>
      </trkpt>
      <trkpt lat="44.6118" lon="3.56379">
        <ele>1410.46</ele>
        <time>2024-11-05T09:52:23.749Z</time>
      </trkpt>
      <trkpt lat="44.61187" lon="3.56338">
        <ele>1410.25</ele>
        <time>2024-11-05T09:52:25.386Z</time>
      </trkpt>
      <trkpt lat="44.61195" lon="3.56297">
        <ele>1409.99</ele>
        <time>2024-11-05T09:52:27.028Z</time>
      </trkpt>
      <trkpt lat="44.61194" lon="3.56268">
        <ele>1409.67</ele>
        <time>2024-11-05T09:52:28.673Z</time>
      </trkpt>
      <trkpt lat="44.61185" lon="3.56241">
        <ele>1409.35</ele>
        <time>2024-11-05T09:52:30.321Z</time>
      </trkpt>
      <trkpt lat="44.61177" lon="3.5622">
        <ele>1409.02</ele>
        <time>2024-11-05T09:52:31.972Z</time>
      </trkpt>
      <trkpt lat="44.61168" lon="3.56198">
        <ele>1408.71</ele>
        <time>2024-11-05T09:52:33.626Z</time>
      </trkpt>
      <trkpt lat="44.61163" lon="3.56164">
        <ele>1408.37</ele>
        <time>2024-11-05T09:52:35.284Z</time>
      </trkpt>
      <trkpt lat="44.61165" lon="3.56136">
        <ele>1407.92</ele>
        <time>2024-11-05T09:52:36.945Z</time>
      </trkpt>
      <trkpt lat="44.61171" lon="3.56097">
        <ele>1407.45</ele>
        <time>2024-11-05T09:52:38.611Z</time>
      </trkpt>
      <trkpt lat="44.61179" lon="3.56063">
        <ele>1406.95</ele>
        <time>2024-11-05T09:52:40.281Z</time>
      </trkpt>
      <trkpt lat="44.61186" lon="3.5603">
        <ele>1406.43</ele>
        <time>2024-11-05T09:52:41.955Z</time>
      </trkpt>
      <trkpt lat="44.61191" lon="3.56004">
        <ele>1405.89</ele>
        <time>2024-11-05T09:52:43.632Z</time>
      </trkpt>
      <trkpt lat="44.61191" lon="3.56004">
        <ele>1405.36</ele>
        <time>2024-11-05T09:52:45.309Z</time>
      </trkpt>
      <trkpt lat="44.61191" lon="3.56004">
        <ele>1404.82</ele>
        <time>2024-11-05T09:52:46.986Z</time>
      </trkpt>
      <trkpt lat="44.61191" lon="3.56004">
        <ele>1404.25</ele>
        <time>2024-11-05T09:52:48.663Z</time>
      </trkpt>
      <trkpt lat="44.61191" lon="3.56004">
        <ele>1403.66</ele>
        <time>2024-11-05T09:52:50.340Z</time>
      </trkpt>
      <trkpt lat="44.61191" lon="3.56004">
        <ele>1403.05</ele>
        <time>2024-11-05T09:52:52.017Z</time>
      </trkpt>
      <trkpt lat="44.61192" lon="3.55998">
        <ele>1402.41</ele>
        <time>2024-11-05T09:52:53.695Z</time>
      </trkpt>
      <trkpt lat="44.61191" lon="3.55976">
        <ele>1401.76</ele>
        <time>2024-11-05T09:52:55.375Z</time>
      </trkpt>
      <trkpt lat="44.6118" lon="3.55953">
        <ele>1401.1</ele>
        <time>2024-11-05T09:52:57.058Z</time>
      </trkpt>
      <trkpt lat="44.61165" lon="3.55927">
        <ele>1400.4</ele>
        <time>2024-11-05T09:52:58.745Z</time>
      </trkpt>
      <trkpt lat="44.61152" lon="3.55899">
        <ele>1399.72</ele>
        <time>2024-11-05T09:53:00.436Z</time>
      </trkpt>
      <trkpt lat="44.61147" lon="3.5588">
        <ele>1399.01</ele>
        <time>2024-11-05T09:53:02.129Z</time>
      </trkpt>
      <trkpt lat="44.61143" lon="3.55854">
        <ele>1398.27</ele>
        <time>2024-11-05T09:53:03.825Z</time>
      </trkpt>
      <trkpt lat="44.61142" lon="3.55817">
        <ele>1397.48</ele>
        <time>2024-11-05T09:53:05.525Z</time>
      </trkpt>
      <trkpt lat="44.61143" lon="3.55778">
        <ele>1396.62</ele>
        <time>2024-11-05T09:53:07.230Z</time>
      </trkpt>
      <trkpt lat="44.61147" lon="3.55747">
        <ele>1395.77</ele>
        <time>2024-11-05T09:53:08.938Z</time>
      </trkpt>
      <trkpt lat="44.61152" lon="3.55725">
        <ele>1394.96</ele>
        <time>2024-11-05T09:53:10.649Z</time>
      </trkpt>
      <trkpt lat="44.61157" lon="3.55703">
        <ele>1394.13</ele>
        <time>2024-11-05T09:53:12.363Z</time>
      </trkpt>
      <trkpt lat="44.61166" lon="3.55684">
        <ele>1393.3</ele>
        <time>2024-11-05T09:53:14.079Z</time>
      </trkpt>
      <trkpt lat="44.61175" lon="3.55665">
        <ele>1392.48</ele>
        <time>2024-11-05T09:53:15.798Z</time>
      </trkpt>
      <trkpt lat="44.6119" lon="3.55646">
        <ele>1391.62</ele>
        <time>2024-11-05T09:53:17.520Z</time>
      </trkpt>
      <trkpt lat="44.61199" lon="3.55638">
        <ele>1390.76</ele>
        <time>2024-11-05T09:53:19.244Z</time>
      </trkpt>
      <trkpt lat="44.61204" lon="3.55634">
        <ele>1389.91</ele>
        <time>2024-11-05T09:53:20.969Z</time>
      </trkpt>
      <trkpt lat="44.6123" lon="3.5562">
        <ele>1388.99</ele>
        <time>2024-11-05T09:53:22.698Z</time>
      </trkpt>
      <trkpt lat="44.61257" lon="3.55607">
        <ele>1388.05</ele>
        <time>2024-11-05T09:53:24.432Z</time>
      </trkpt>
      <trkpt lat="44.61284" lon="3.55593">
        <ele>1387.13</ele>
        <time>2024-11-05T09:53:26.170Z</time>
      </trkpt>
      <trkpt lat="44.61311" lon="3.55579">
        <ele>1386.21</ele>
        <time>2024-11-05T09:53:27.913Z</time>
      </trkpt>
      <trkpt lat="44.61335" lon="3.55568">
        <ele>1385.28</ele>
        <time>2024-11-05T09:53:29.660Z</time>
      </trkpt>
      <trkpt lat="44.61359" lon="3.55557">
        <ele>1384.35</ele>
        <time>2024-11-05T09:53:31.411Z</time>
      </trkpt>
      <trkpt lat="44.61384" lon="3.55545">
        <ele>1383.38</ele>
        <time>2024-11-05T09:53:33.166Z</time>
      </trkpt>
      <trkpt lat="44.61411" lon="3.55554">
        <ele>1382.47</ele>
        <time>2024-11-05T09:53:34.926Z</time>
      </trkpt>
      <trkpt lat="44.61431" lon="3.55554">
        <ele>1381.54</ele>
        <time>2024-11-05T09:53:36.689Z</time>
      </trkpt>
      <trkpt lat="44.61451" lon="3.55554">
        <ele>1380.59</ele>
        <time>2024-11-05T09:53:38.455Z</time>
      </trkpt>
      <trkpt lat="44.6148" lon="3.55557">
        <ele>1379.6</ele>
        <time>2024-11-05T09:53:40.226Z</time>
      </trkpt>
      <trkpt lat="44.61509" lon="3.5556">
        <ele>1378.64</ele>
        <time>2024-11-05T09:53:42.001Z</time>
      </trkpt>
      <trkpt lat="44.61538" lon="3.55563">
        <ele>1377.66</ele>
        <time>2024-11-05T09:53:43.781Z</time>
      </trkpt>
      <trkpt lat="44.61567" lon="3.55566">
        <ele>1376.71</ele>
        <time>2024-11-05T09:53:45.566Z</time>
      </trkpt>
      <trkpt lat="44.61595" lon="3.55569">
        <ele>1375.68</ele>
        <time>2024-11-05T09:53:47.355Z</time>
      </trkpt>
      <trkpt lat="44.61624" lon="3.55572">
        <ele>1374.61</ele>
        <time>2024-11-05T09:53:49.149Z</time>
      </trkpt>
      <trkpt lat="44.61653" lon="3.55575">
        <ele>1373.58</ele>
        <time>2024-11-05T09:53:50.948Z</time>
      </trkpt>
      <trkpt lat="44.61683" lon="3.55584">
        <ele>1372.55</ele>
        <time>2024-11-05T09:53:52.752Z</time>
      </trkpt>
      <trkpt lat="44.61694" lon="3.55597">
        <ele>1371.47</ele>
        <time>2024-11-05T09:53:54.558Z</time>
      </trkpt>
      <trkpt lat="44.61702" lon="3.55616">
        <ele>1370.37</ele>
        <time>2024-11-05T09:53:56.366Z</time>
      </trkpt>
      <trkpt lat="44.61709" lon="3.5565">
        <ele>1369.2</ele>
        <time>2024-11-05T09:53:58.178Z</time>
      </trkpt>
      <trkpt lat="44.61715" lon="3.55683">
        <ele>1368</ele>
        <time>2024-11-05T09:53:59.994Z</time>
      </trkpt>
      <trkpt lat="44.61722" lon="3.55717">
        <ele>1366.84</ele>
        <time>2024-11-05T09:54:01.814Z</time>
      </trkpt>
      <trkpt lat="44.6173" lon="3.55753">
        <ele>1365.67</ele>
        <time>2024-11-05T09:54:03.639Z</time>
      </trkpt>
      <trkpt lat="44.61739" lon="3.5579">
        <ele>1364.45</ele>
        <time>2024-11-05T09:54:05.468Z</time>
      </trkpt>
      <trkpt lat="44.61749" lon="3.55823">
        <ele>1363.22</ele>
        <time>2024-11-05T09:54:07.301Z</time>
      </trkpt>
      <trkpt lat="44.61758" lon="3.55856">
        <ele>1361.96</ele>
        <time>2024-11-05T09:54:09.138Z</time>
      </trkpt>
      <trkpt lat="44.61768" lon="3.55893">
        <ele>1360.7</ele>
        <time>2024-11-05T09:54:10.980Z</time>
      </trkpt>
      <trkpt lat="44.61778" lon="3.5593">
        <ele>1359.44</ele>
        <time>2024-11-05T09:54:12.826Z</time>
      </trkpt>
      <trkpt lat="44.61789" lon="3.55967">
        <ele>1358.15</ele>
        <time>2024-11-05T09:54:14.677Z</time>
      </trkpt>
      <trkpt lat="44.61799" lon="3.56004">
        <ele>1356.84</ele>
        <time>2024-11-05T09:54:16.532Z</time>
      </trkpt>
      <trkpt lat="44.61809" lon="3.56041">
        <ele>1355.57</ele>
        <time>2024-11-05T09:54:18.392Z</time>
      </trkpt>
      <trkpt lat="44.61814" lon="3.56055">
        <ele>1354.32</ele>
        <time>2024-11-05T09:54:20.254Z</time>
      </trkpt>
      <trkpt lat="44.61825" lon="3.5607">
        <ele>1353.06</ele>
        <time>2024-11-05T09:54:22.118Z</time>
      </trkpt>
      <trkpt lat="44.61846" lon="3.56087">
        <ele>1351.78</ele>
        <time>2024-11-05T09:54:23.986Z</time>
      </trkpt>
      <trkpt lat="44.61867" lon="3.56105">
        <ele>1350.48</ele>
        <time>2024-11-05T09:54:25.858Z</time>
      </trkpt>
      <trkpt lat="44.61888" lon="3.56115">
        <ele>1349.23</ele>
        <time>2024-11-05T09:54:27.734Z</time>
      </trkpt>
      <trkpt lat="44.61913" lon="3.56122">
        <ele>1347.98</ele>
        <time>2024-11-05T09:54:29.614Z</time>
      </trkpt>
      <trkpt lat="44.61933" lon="3.56122">
        <ele>1346.77</ele>
        <time>2024-11-05T09:54:31.497Z</time>
      </trkpt>
      <trkpt lat="44.61959" lon="3.56115">
        <ele>1345.55</ele>
        <time>2024-11-05T09:54:33.384Z</time>
      </trkpt>
      <trkpt lat="44.61981" lon="3.56105">
        <ele>1344.32</ele>
        <time>2024-11-05T09:54:35.275Z</time>
      </trkpt>
      <trkpt lat="44.61981" lon="3.56105">
        <ele>1343.18</ele>
        <time>2024-11-05T09:54:37.166Z</time>
      </trkpt>
      <trkpt lat="44.62007" lon="3.56096">
        <ele>1341.97</ele>
        <time>2024-11-05T09:54:39.061Z</time>
      </trkpt>
      <trkpt lat="44.62033" lon="3.56086">
        <ele>1340.82</ele>
        <time>2024-11-05T09:54:40.960Z</time>
      </trkpt>
      <trkpt lat="44.62059" lon="3.56077">
        <ele>1339.77</ele>
        <time>2024-11-05T09:54:42.864Z</time>
      </trkpt>
      <trkpt lat="44.62085" lon="3.56068">
        <ele>1338.76</ele>
        <time>2024-11-05T09:54:44.772Z</time>
      </trkpt>
      <trkpt lat="44.62108" lon="3.5606">
        <ele>1337.77</ele>
        <time>2024-11-05T09:54:46.684Z</time>
      </trkpt>
      <trkpt lat="44.6213" lon="3.56053">
        <ele>1336.83</ele>
        <time>2024-11-05T09:54:48.599Z</time>
      </trkpt>
      <trkpt lat="44.62153" lon="3.56045">
        <ele>1335.92</ele>
        <time>2024-11-05T09:54:50.518Z</time>
      </trkpt>
      <trkpt lat="44.62164" lon="3.56036">
        <ele>1335.04</ele>
        <time>2024-11-05T09:54:52.439Z</time>
      </trkpt>
      <trkpt lat="44.62184" lon="3.56053">
        <ele>1334.24</ele>
        <time>2024-11-05T09:54:54.364Z</time>
      </trkpt>
      <trkpt lat="44.62196" lon="3.56051">
        <ele>1333.44</ele>
        <time>2024-11-05T09:54:56.291Z</time>
      </trkpt>
      <trkpt lat="44.62214" lon="3.56041">
        <ele>1332.67</ele>
        <time>2024-11-05T09:54:58.221Z</time>
      </trkpt>
      <trkpt lat="44.62229" lon="3.56027">
        <ele>1332</ele>
        <time>2024-11-05T09:55:00.154Z</time>
      </trkpt>
      <trkpt lat="44.62237" lon="3.56018">
        <ele>1331.36</ele>
        <time>2024-11-05T09:55:02.088Z</time>
      </trkpt>
      <trkpt lat="44.62242" lon="3.56017">
        <ele>1330.8</ele>
        <time>2024-11-05T09:55:04.023Z</time>
      </trkpt>
      <trkpt lat="44.6227" lon="3.56031">
        <ele>1330.28</ele>
        <time>2024-11-05T09:55:05.963Z</time>
      </trkpt>
      <trkpt lat="44.62299" lon="3.56044">
        <ele>1329.79</ele>
        <time>2024-11-05T09:55:07.908Z</time>
      </trkpt>
      <trkpt lat="44.62317" lon="3.56055">
        <ele>1329.36</ele>
        <time>2024-11-05T09:55:09.856Z</time>
      </trkpt>
      <trkpt lat="44.62335" lon="3.56065">
        <ele>1328.97</ele>
        <time>2024-11-05T09:55:11.807Z</time>
      </trkpt>
      <trkpt lat="44.62364" lon="3.56078">
        <ele>1328.66</ele>
        <time>2024-11-05T09:55:13.763Z</time>
      </trkpt>
      <trkpt lat="44.62372" lon="3.56101">
        <ele>1328.47</ele>
        <time>2024-11-05T09:55:15.722Z</time>
      </trkpt>
      <trkpt lat="44.62372" lon="3.5612">
        <ele>1328.38</ele>
        <time>2024-11-05T09:55:17.683Z</time>
      </trkpt>
      <trkpt lat="44.62372" lon="3.5612">
        <ele>1328.37</ele>
        <time>2024-11-05T09:55:19.644Z</time>
      </trkpt>
      <trkpt lat="44.62372" lon="3.5612">
        <ele>1328.44</ele>
        <time>2024-11-05T09:55:21.605Z</time>
      </trkpt>
      <trkpt lat="44.62372" lon="3.5612">
        <ele>1328.58</ele>
        <time>2024-11-05T09:55:23.566Z</time>
      </trkpt>
      <trkpt lat="44.62372" lon="3.5612">
        <ele>1328.8</ele>
        <time>2024-11-05T09:55:25.527Z</time>
      </trkpt>
      <trkpt lat="44.62372" lon="3.56101">
        <ele>1328.47</ele>
        <time>2024-11-05T09:55:27.490Z</time>
      </trkpt>
      <trkpt lat="44.62364" lon="3.56078">
        <ele>1329.5</ele>
        <time>2024-11-05T09:55:29.456Z</time>
      </trkpt>
      <trkpt lat="44.62335" lon="3.56065">
        <ele>1328.97</ele>
        <time>2024-11-05T09:55:31.427Z</time>
      </trkpt>
      <trkpt lat="44.62317" lon="3.56055">
        <ele>1330.63</ele>
        <time>2024-11-05T09:55:33.401Z</time>
      </trkpt>
      <trkpt lat="44.62299" lon="3.56044">
        <ele>1329.79</ele>
        <time>2024-11-05T09:55:35.378Z</time>
      </trkpt>
      <trkpt lat="44.6227" lon="3.56031">
        <ele>1331.99</ele>
        <time>2024-11-05T09:55:37.360Z</time>
      </trkpt>
      <trkpt lat="44.62242" lon="3.56017">
        <ele>1330.8</ele>
        <time>2024-11-05T09:55:39.347Z</time>
      </trkpt>
      <trkpt lat="44.62237" lon="3.56018">
        <ele>1331.36</ele>
        <time>2024-11-05T09:55:41.335Z</time>
      </trkpt>
      <trkpt lat="44.62229" lon="3.56027">
        <ele>1332</ele>
        <time>2024-11-05T09:55:43.324Z</time>
      </trkpt>
      <trkpt lat="44.62214" lon="3.56041">
        <ele>1332.67</ele>
        <time>2024-11-05T09:55:45.316Z</time>
      </trkpt>
      <trkpt lat="44.62196" lon="3.56051">
        <ele>1333.44</ele>
        <time>2024-11-05T09:55:47.311Z</time>
      </trkpt>
      <trkpt lat="44.62184" lon="3.56053">
        <ele>1334.24</ele>
        <time>2024-11-05T09:55:49.308Z</time>
      </trkpt>
      <trkpt lat="44.62164" lon="3.56036">
        <ele>1335.04</ele>
        <time>2024-11-05T09:55:51.309Z</time>
      </trkpt>
      <trkpt lat="44.62153" lon="3.56045">
        <ele>1335.92</ele>
        <time>2024-11-05T09:55:53.312Z</time>
      </trkpt>
      <trkpt lat="44.6213" lon="3.56053">
        <ele>1340.5</ele>
        <time>2024-11-05T09:55:55.319Z</time>
      </trkpt>
      <trkpt lat="44.62108" lon="3.5606">
        <ele>1341.65</ele>
        <time>2024-11-05T09:55:57.329Z</time>
      </trkpt>
      <trkpt lat="44.62085" lon="3.56068">
        <ele>1338.76</ele>
        <time>2024-11-05T09:55:59.343Z</time>
      </trkpt>
      <trkpt lat="44.62059" lon="3.56077">
        <ele>1344.07</ele>
        <time>2024-11-05T09:56:01.361Z</time>
      </trkpt>
      <trkpt lat="44.62033" lon="3.56086">
        <ele>1345.32</ele>
        <time>2024-11-05T09:56:03.384Z</time>
      </trkpt>
      <trkpt lat="44.62007" lon="3.56096">
        <ele>1346.66</ele>
        <time>2024-11-05T09:56:05.411Z</time>
      </trkpt>
      <trkpt lat="44.61981" lon="3.56105">
        <ele>1343.18</ele>
        <time>2024-11-05T09:56:07.442Z</time>
      </trkpt>
      <trkpt lat="44.61981" lon="3.56105">
        <ele>1344.32</ele>
        <time>2024-11-05T09:56:09.473Z</time>
      </trkpt>
      <trkpt lat="44.61959" lon="3.56115">
        <ele>1345.55</ele>
        <time>2024-11-05T09:56:11.508Z</time>
      </trkpt>
      <trkpt lat="44.61933" lon="3.56122">
        <ele>1346.77</ele>
        <time>2024-11-05T09:56:13.547Z</time>
      </trkpt>
      <trkpt lat="44.61913" lon="3.56122">
        <ele>1347.98</ele>
        <time>2024-11-05T09:56:15.590Z</time>
      </trkpt>
      <trkpt lat="44.61888" lon="3.56115">
        <ele>1349.23</ele>
        <time>2024-11-05T09:56:17.637Z</time>
      </trkpt>
      <trkpt lat="44.61867" lon="3.56105">
        <ele>1350.48</ele>
        <time>2024-11-05T09:56:19.687Z</time>
      </trkpt>
      <trkpt lat="44.61846" lon="3.56087">
        <ele>1357.79</ele>
        <time>2024-11-05T09:56:21.741Z</time>
      </trkpt>
      <trkpt lat="44.61825" lon="3.5607">
        <ele>1353.06</ele>
        <time>2024-11-05T09:56:23.799Z</time>
      </trkpt>
      <trkpt lat="44.61814" lon="3.56055">
        <ele>1354.32</ele>
        <time>2024-11-05T09:56:25.859Z</time>
      </trkpt>
      <trkpt lat="44.61809" lon="3.56041">
        <ele>1355.57</ele>
        <time>2024-11-05T09:56:27.921Z</time>
      </trkpt>
      <trkpt lat="44.61799" lon="3.56004">
        <ele>1363.19</ele>
        <time>2024-11-05T09:56:29.988Z</time>
      </trkpt>
      <trkpt lat="44.61788" lon="3.55967">
        <ele>1364.54</ele>
        <time>2024-11-05T09:56:32.059Z</time>
      </trkpt>
      <trkpt lat="44.61778" lon="3.5593">
        <ele>1365.85</ele>
        <time>2024-11-05T09:56:34.135Z</time>
      </trkpt>
      <trkpt lat="44.61768" lon="3.55893">
        <ele>1367.11</ele>
        <time>2024-11-05T09:56:36.215Z</time>
      </trkpt>
      <trkpt lat="44.61758" lon="3.55856">
        <ele>1361.96</ele>
        <time>2024-11-05T09:56:38.300Z</time>
      </trkpt>
      <trkpt lat="44.61749" lon="3.55823">
        <ele>1369.54</ele>
        <time>2024-11-05T09:56:40.389Z</time>
      </trkpt>
      <trkpt lat="44.61739" lon="3.5579">
        <ele>1364.45</ele>
        <time>2024-11-05T09:56:42.482Z</time>
      </trkpt>
      <trkpt lat="44.6173" lon="3.55753">
        <ele>1371.78</ele>
        <time>2024-11-05T09:56:44.579Z</time>
      </trkpt>
      <trkpt lat="44.61722" lon="3.55717">
        <ele>1366.84</ele>
        <time>2024-11-05T09:56:46.681Z</time>
      </trkpt>
      <trkpt lat="44.61715" lon="3.55683">
        <ele>1373.78</ele>
        <time>2024-11-05T09:56:48.787Z</time>
      </trkpt>
      <trkpt lat="44.61709" lon="3.55649">
        <ele>1374.76</ele>
        <time>2024-11-05T09:56:50.897Z</time>
      </trkpt>
      <trkpt lat="44.61702" lon="3.55616">
        <ele>1370.37</ele>
        <time>2024-11-05T09:56:53.011Z</time>
      </trkpt>
      <trkpt lat="44.61694" lon="3.55597">
        <ele>1371.47</ele>
        <time>2024-11-05T09:56:55.127Z</time>
      </trkpt>
      <trkpt lat="44.61683" lon="3.55584">
        <ele>1372.55</ele>
        <time>2024-11-05T09:56:57.246Z</time>
      </trkpt>
      <trkpt lat="44.61653" lon="3.55575">
        <ele>1373.58</ele>
        <time>2024-11-05T09:56:59.370Z</time>
      </trkpt>
      <trkpt lat="44.61624" lon="3.55572">
        <ele>1378.48</ele>
        <time>2024-11-05T09:57:01.498Z</time>
      </trkpt>
      <trkpt lat="44.61595" lon="3.55569">
        <ele>1379.07</ele>
        <time>2024-11-05T09:57:03.631Z</time>
      </trkpt>
      <trkpt lat="44.61567" lon="3.55566">
        <ele>1379.58</ele>
        <time>2024-11-05T09:57:05.768Z</time>
      </trkpt>
      <trkpt lat="44.61538" lon="3.55563">
        <ele>1379.96</ele>
        <time>2024-11-05T09:57:07.910Z</time>
      </trkpt>
      <trkpt lat="44.61509" lon="3.5556">
        <ele>1380.32</ele>
        <time>2024-11-05T09:57:10.057Z</time>
      </trkpt>
      <trkpt lat="44.6148" lon="3.55557">
        <ele>1380.62</ele>
        <time>2024-11-05T09:57:12.208Z</time>
      </trkpt>
      <trkpt lat="44.61451" lon="3.55554">
        <ele>1380.59</ele>
        <time>2024-11-05T09:57:14.364Z</time>
      </trkpt>
      <trkpt lat="44.61431" lon="3.55554">
        <ele>1381.07</ele>
        <time>2024-11-05T09:57:16.523Z</time>
      </trkpt>
      <trkpt lat="44.61411" lon="3.55554">
        <ele>1382.47</ele>
        <time>2024-11-05T09:57:18.685Z</time>
      </trkpt>
      <trkpt lat="44.61384" lon="3.55545">
        <ele>1381.22</ele>
        <time>2024-11-05T09:57:20.852Z</time>
      </trkpt>
      <trkpt lat="44.61406" lon="3.55531">
        <ele>1381.18</ele>
        <time>2024-11-05T09:57:23.023Z</time>
      </trkpt>
      <trkpt lat="44.61433" lon="3.5551">
        <ele>1381.05</ele>
        <time>2024-11-05T09:57:25.199Z</time>
      </trkpt>
      <trkpt lat="44.6146" lon="3.55489">
        <ele>1380.9</ele>
        <time>2024-11-05T09:57:27.380Z</time>
      </trkpt>
      <trkpt lat="44.61473" lon="3.55475">
        <ele>1380.72</ele>
        <time>2024-11-05T09:57:29.563Z</time>
      </trkpt>
      <trkpt lat="44.61479" lon="3.5546">
        <ele>1380.49</ele>
        <time>2024-11-05T09:57:31.748Z</time>
      </trkpt>
      <trkpt lat="44.61482" lon="3.55441">
        <ele>1380.18</ele>
        <time>2024-11-05T09:57:33.935Z</time>
      </trkpt>
      <trkpt lat="44.61482" lon="3.5541">
        <ele>1379.81</ele>
        <time>2024-11-05T09:57:36.126Z</time>
      </trkpt>
      <trkpt lat="44.61479" lon="3.5537">
        <ele>1379.39</ele>
        <time>2024-11-05T09:57:38.322Z</time>
      </trkpt>
      <trkpt lat="44.61473" lon="3.55336">
        <ele>1378.91</ele>
        <time>2024-11-05T09:57:40.522Z</time>
      </trkpt>
      <trkpt lat="44.61466" lon="3.5531">
        <ele>1378.37</ele>
        <time>2024-11-05T09:57:42.725Z</time>
      </trkpt>
      <trkpt lat="44.61459" lon="3.55283">
        <ele>1377.78</ele>
        <time>2024-11-05T09:57:44.931Z</time>
      </trkpt>
      <trkpt lat="44.61456" lon="3.55249">
        <ele>1377.13</ele>
        <time>2024-11-05T09:57:47.141Z</time>
      </trkpt>
      <trkpt lat="44.61458" lon="3.55216">
        <ele>1376.49</ele>
        <time>2024-11-05T09:57:49.355Z</time>
      </trkpt>
      <trkpt lat="44.61464" lon="3.55189">
        <ele>1375.81</ele>
        <time>2024-11-05T09:57:51.572Z</time>
      </trkpt>
      <trkpt lat="44.61474" lon="3.55159">
        <ele>1375.07</ele>
        <time>2024-11-05T09:57:53.793Z</time>
      </trkpt>
      <trkpt lat="44.61478" lon="3.55125">
        <ele>1374.27</ele>
        <time>2024-11-05T09:57:56.018Z</time>
      </trkpt>
      <trkpt lat="44.61483" lon="3.55092">
        <ele>1373.43</ele>
        <time>2024-11-05T09:57:58.247Z</time>
      </trkpt>
      <trkpt lat="44.61488" lon="3.55058">
        <ele>1372.58</ele>
        <time>2024-11-05T09:58:00.480Z</time>
      </trkpt>
      <trkpt lat="44.61492" lon="3.55025">
        <ele>1371.68</ele>
        <time>2024-11-05T09:58:02.716Z</time>
      </trkpt>
      <trkpt lat="44.61495" lon="3.54991">
        <ele>1370.77</ele>
        <time>2024-11-05T09:58:04.956Z</time>
      </trkpt>
      <trkpt lat="44.61496" lon="3.5495">
        <ele>1369.76</ele>
        <time>2024-11-05T09:58:07.201Z</time>
      </trkpt>
      <trkpt lat="44.61496" lon="3.5495">
        <ele>1368.79</ele>
        <time>2024-11-05T09:58:09.446Z</time>
      </trkpt>
      <trkpt lat="44.61496" lon="3.5495">
        <ele>1367.79</ele>
        <time>2024-11-05T09:58:11.691Z</time>
      </trkpt>
      <trkpt lat="44.61496" lon="3.5495">
        <ele>1366.75</ele>
        <time>2024-11-05T09:58:13.936Z</time>
      </trkpt>
      <trkpt lat="44.61496" lon="3.5495">
        <ele>1365.69</ele>
        <time>2024-11-05T09:58:16.181Z</time>
      </trkpt>
      <trkpt lat="44.61496" lon="3.5495">
        <ele>1364.61</ele>
        <time>2024-11-05T09:58:18.426Z</time>
      </trkpt>
      <trkpt lat="44.61496" lon="3.54939">
        <ele>1363.48</ele>
        <time>2024-11-05T09:58:20.672Z</time>
      </trkpt>
      <trkpt lat="44.61499" lon="3.54911">
        <ele>1362.31</ele>
        <time>2024-11-05T09:58:22.922Z</time>
      </trkpt>
      <trkpt lat="44.61502" lon="3.54883">
        <ele>1361.1</ele>
        <time>2024-11-05T09:58:25.175Z</time>
      </trkpt>
      <trkpt lat="44.61506" lon="3.54858">
        <ele>1359.88</ele>
        <time>2024-11-05T09:58:27.431Z</time>
      </trkpt>
      <trkpt lat="44.6151" lon="3.54833">
        <ele>1358.68</ele>
        <time>2024-11-05T09:58:29.690Z</time>
      </trkpt>
      <trkpt lat="44.61518" lon="3.54802">
        <ele>1357.43</ele>
        <time>2024-11-05T09:58:31.952Z</time>
      </trkpt>
      <trkpt lat="44.61525" lon="3.5477">
        <ele>1356.12</ele>
        <time>2024-11-05T09:58:34.218Z</time>
      </trkpt>
      <trkpt lat="44.61532" lon="3.54739">
        <ele>1354.82</ele>
        <time>2024-11-05T09:58:36.488Z</time>
      </trkpt>
      <trkpt lat="44.61538" lon="3.54701">
        <ele>1353.52</ele>
        <time>2024-11-05T09:58:38.762Z</time>
      </trkpt>
      <trkpt lat="44.61548" lon="3.54659">
        <ele>1352.2</ele>
        <time>2024-11-05T09:58:41.041Z</time>
      </trkpt>
      <trkpt lat="44.61558" lon="3.54632">
        <ele>1350.92</ele>
        <time>2024-11-05T09:58:43.324Z</time>
      </trkpt>
      <trkpt lat="44.61576" lon="3.54599">
        <ele>1349.63</ele>
        <time>2024-11-05T09:58:45.612Z</time>
      </trkpt>
      <trkpt lat="44.61591" lon="3.54566">
        <ele>1348.25</ele>
        <time>2024-11-05T09:58:47.904Z</time>
      </trkpt>
      <trkpt lat="44.61607" lon="3.54533">
        <ele>1346.82</ele>
        <time>2024-11-05T09:58:50.201Z</time>
      </trkpt>
      <trkpt lat="44.61617" lon="3.54507">
        <ele>1345.43</ele>
        <time>2024-11-05T09:58:52.501Z</time>
      </trkpt>
      <trkpt lat="44.61624" lon="3.54468">
        <ele>1344</ele>
        <time>2024-11-05T09:58:54.806Z</time>
      </trkpt>
      <trkpt lat="44.61631" lon="3.5443">
        <ele>1342.6</ele>
        <time>2024-11-05T09:58:57.115Z</time>
      </trkpt>
      <trkpt lat="44.61639" lon="3.54407">
        <ele>1341.26</ele>
        <time>2024-11-05T09:58:59.427Z</time>
      </trkpt>
      <trkpt lat="44.61649" lon="3.54393">
        <ele>1339.92</ele>
        <time>2024-11-05T09:59:01.741Z</time>
      </trkpt>
      <trkpt lat="44.61662" lon="3.5438">
        <ele>1338.54</ele>
        <time>2024-11-05T09:59:04.058Z</time>
      </trkpt>
      <trkpt lat="44.61677" lon="3.54375">
        <ele>1337.17</ele>
        <time>2024-11-05T09:59:06.377Z</time>
      </trkpt>
      <trkpt lat="44.617" lon="3.5437">
        <ele>1335.77</ele>
        <time>2024-11-05T09:59:08.700Z</time>
      </trkpt>
      <trkpt lat="44.61724" lon="3.54365">
        <ele>1334.39</ele>
        <time>2024-11-05T09:59:11.027Z</time>
      </trkpt>
      <trkpt lat="44.61724" lon="3.54365">
        <ele>1333.08</ele>
        <time>2024-11-05T09:59:13.354Z</time>
      </trkpt>
      <trkpt lat="44.61738" lon="3.54363">
        <ele>1331.77</ele>
        <time>2024-11-05T09:59:15.683Z</time>
      </trkpt>
      <trkpt lat="44.61759" lon="3.54347">
        <ele>1330.42</ele>
        <time>2024-11-05T09:59:18.016Z</time>
      </trkpt>
      <trkpt lat="44.61768" lon="3.54335">
        <ele>1329.11</ele>
        <time>2024-11-05T09:59:20.351Z</time>
      </trkpt>
      <trkpt lat="44.61776" lon="3.54319">
        <ele>1327.79</ele>
        <time>2024-11-05T09:59:22.688Z</time>
      </trkpt>
      <trkpt lat="44.61781" lon="3.54297">
        <ele>1326.48</ele>
        <time>2024-11-05T09:59:25.028Z</time>
      </trkpt>
      <trkpt lat="44.61781" lon="3.54273">
        <ele>1325.18</ele>
        <time>2024-11-05T09:59:27.371Z</time>
      </trkpt>
      <trkpt lat="44.61777" lon="3.54249">
        <ele>1323.93</ele>
        <time>2024-11-05T09:59:29.716Z</time>
      </trkpt>
      <trkpt lat="44.61773" lon="3.54231">
        <ele>1322.69</ele>
        <time>2024-11-05T09:59:32.064Z</time>
      </trkpt>
      <trkpt lat="44.61766" lon="3.54213">
        <ele>1321.47</ele>
        <time>2024-11-05T09:59:34.414Z</time>
      </trkpt>
      <trkpt lat="44.6175" lon="3.54185">
        <ele>1320.24</ele>
        <time>2024-11-05T09:59:36.768Z</time>
      </trkpt>
      <trkpt lat="44.61728" lon="3.54154">
        <ele>1319.08</ele>
        <time>2024-11-05T09:59:39.127Z</time>
      </trkpt>
      <trkpt lat="44.61714" lon="3.54131">
        <ele>1317.95</ele>
        <time>2024-11-05T09:59:41.490Z</time>
      </trkpt>
      <trkpt lat="44.61699" lon="3.54109">
        <ele>1316.84</ele>
        <time>2024-11-05T09:59:43.856Z</time>
      </trkpt>
      <trkpt lat="44.61685" lon="3.54081">
        <ele>1315.68</ele>
        <time>2024-11-05T09:59:46.226Z</time>
      </trkpt>
      <trkpt lat="44.61671" lon="3.54054">
        <ele>1314.63</ele>
        <time>2024-11-05T09:59:48.600Z</time>
      </trkpt>
      <trkpt lat="44.61663" lon="3.54027">
        <ele>1313.65</ele>
        <time>2024-11-05T09:59:50.977Z</time>
      </trkpt>
      <trkpt lat="44.61654" lon="3.54">
        <ele>1312.69</ele>
        <time>2024-11-05T09:59:53.357Z</time>
      </trkpt>
      <trkpt lat="44.61645" lon="3.53966">
        <ele>1311.7</ele>
        <time>2024-11-05T09:59:55.742Z</time>
      </trkpt>
      <trkpt lat="44.61636" lon="3.53931">
        <ele>1310.77</ele>
        <time>2024-11-05T09:59:58.131Z</time>
      </trkpt>
      <trkpt lat="44.61628" lon="3.53897">
        <ele>1309.91</ele>
        <time>2024-11-05T10:00:00.524Z</time>
      </trkpt>
      <trkpt lat="44.61619" lon="3.53863">
        <ele>1309.05</ele>
        <time>2024-11-05T10:00:02.921Z</time>
      </trkpt>
      <trkpt lat="44.61607" lon="3.53827">
        <ele>1308.21</ele>
        <time>2024-11-05T10:00:05.323Z</time>
      </trkpt>
      <trkpt lat="44.61595" lon="3.53798">
        <ele>1307.36</ele>
        <time>2024-11-05T10:00:07.728Z</time>
      </trkpt>
      <trkpt lat="44.61583" lon="3.53769">
        <ele>1306.51</ele>
        <time>2024-11-05T10:00:10.137Z</time>
      </trkpt>
      <trkpt lat="44.61573" lon="3.53737">
        <ele>1305.68</ele>
        <time>2024-11-05T10:00:12.550Z</time>
      </trkpt>
      <trkpt lat="44.61563" lon="3.53706">
        <ele>1304.89</ele>
        <time>2024-11-05T10:00:14.967Z</time>
      </trkpt>
      <trkpt lat="44.61553" lon="3.53674">
        <ele>1304.09</ele>
        <time>2024-11-05T10:00:17.388Z</time>
      </trkpt>
      <trkpt lat="44.61543" lon="3.53642">
        <ele>1303.29</ele>
        <time>2024-11-05T10:00:19.813Z</time>
      </trkpt>
      <trkpt lat="44.61532" lon="3.53619">
        <ele>1302.47</ele>
        <time>2024-11-05T10:00:22.241Z</time>
      </trkpt>
      <trkpt lat="44.61522" lon="3.53596">
        <ele>1301.69</ele>
        <time>2024-11-05T10:00:24.672Z</time>
      </trkpt>
      <trkpt lat="44.61512" lon="3.53562">
        <ele>1300.92</ele>
        <time>2024-11-05T10:00:27.108Z</time>
      </trkpt>
      <trkpt lat="44.61503" lon="3.53528">
        <ele>1300.13</ele>
        <time>2024-11-05T10:00:29.548Z</time>
      </trkpt>
      <trkpt lat="44.61489" lon="3.53495">
        <ele>1299.33</ele>
        <time>2024-11-05T10:00:31.992Z</time>
      </trkpt>
      <trkpt lat="44.61476" lon="3.53462">
        <ele>1298.5</ele>
        <time>2024-11-05T10:00:34.440Z</time>
      </trkpt>
      <trkpt lat="44.61462" lon="3.53429">
        <ele>1297.7</ele>
        <time>2024-11-05T10:00:36.893Z</time>
      </trkpt>
      <trkpt lat="44.61449" lon="3.53403">
        <ele>1296.94</ele>
        <time>2024-11-05T10:00:39.349Z</time>
      </trkpt>
      <trkpt lat="44.61435" lon="3.53377">
        <ele>1296.19</ele>
        <time>2024-11-05T10:00:41.809Z</time>
      </trkpt>
      <trkpt lat="44.61422" lon="3.53343">
        <ele>1295.44</ele>
        <time>2024-11-05T10:00:44.274Z</time>
      </trkpt>
      <trkpt lat="44.61408" lon="3.53309">
        <ele>1294.66</ele>
        <time>2024-11-05T10:00:46.743Z</time>
      </trkpt>
      <trkpt lat="44.61396" lon="3.53288">
        <ele>1293.92</ele>
        <time>2024-11-05T10:00:49.215Z</time>
      </trkpt>
      <trkpt lat="44.61384" lon="3.53266">
        <ele>1293.17</ele>
        <time>2024-11-05T10:00:51.690Z</time>
      </trkpt>
      <trkpt lat="44.61376" lon="3.53242">
        <ele>1292.41</ele>
        <time>2024-11-05T10:00:54.168Z</time>
      </trkpt>
      <trkpt lat="44.61373" lon="3.53214">
        <ele>1291.66</ele>
        <time>2024-11-05T10:00:56.650Z</time>
      </trkpt>
      <trkpt lat="44.61374" lon="3.53182">
        <ele>1290.91</ele>
        <time>2024-11-05T10:00:59.135Z</time>
      </trkpt>
      <trkpt lat="44.61374" lon="3.5315">
        <ele>1290.2</ele>
        <time>2024-11-05T10:01:01.624Z</time>
      </trkpt>
      <trkpt lat="44.61375" lon="3.53112">
        <ele>1289.54</ele>
        <time>2024-11-05T10:01:04.117Z</time>
      </trkpt>
      <trkpt lat="44.61375" lon="3.53074">
        <ele>1288.87</ele>
        <time>2024-11-05T10:01:06.615Z</time>
      </trkpt>
      <trkpt lat="44.61378" lon="3.53031">
        <ele>1288.19</ele>
        <time>2024-11-05T10:01:09.117Z</time>
      </trkpt>
      <trkpt lat="44.61385" lon="3.52997">
        <ele>1287.53</ele>
        <time>2024-11-05T10:01:11.623Z</time>
      </trkpt>
      <trkpt lat="44.61394" lon="3.5296">
        <ele>1286.91</ele>
        <time>2024-11-05T10:01:14.134Z</time>
      </trkpt>
      <trkpt lat="44.61403" lon="3.52924">
        <ele>1286.32</ele>
        <time>2024-11-05T10:01:16.649Z</time>
      </trkpt>
      <trkpt lat="44.61406" lon="3.52891">
        <ele>1285.77</ele>
        <time>2024-11-05T10:01:19.168Z</time>
      </trkpt>
      <trkpt lat="44.61405" lon="3.52863">
        <ele>1285.2</ele>
        <time>2024-11-05T10:01:21.690Z</time>
      </trkpt>
      <trkpt lat="44.61402" lon="3.52833">
        <ele>1284.68</ele>
        <time>2024-11-05T10:01:24.216Z</time>
      </trkpt>
      <trkpt lat="44.61399" lon="3.52804">
        <ele>1284.13</ele>
        <time>2024-11-05T10:01:26.745Z</time>
      </trkpt>
      <trkpt lat="44.61396" lon="3.52767">
        <ele>1283.58</ele>
        <time>2024-11-05T10:01:29.278Z</time>
      </trkpt>
      <trkpt lat="44.61392" lon="3.52731">
        <ele>1283.01</ele>
        <time>2024-11-05T10:01:31.816Z</time>
      </trkpt>
      <trkpt lat="44.61386" lon="3.52694">
        <ele>1282.47</ele>
        <time>2024-11-05T10:01:34.358Z</time>
      </trkpt>
      <trkpt lat="44.61373" lon="3.52657">
        <ele>1281.85</ele>
        <time>2024-11-05T10:01:36.905Z</time>
      </trkpt>
      <trkpt lat="44.6136" lon="3.52632">
        <ele>1281.3</ele>
        <time>2024-11-05T10:01:39.455Z</time>
      </trkpt>
      <trkpt lat="44.61341" lon="3.52612">
        <ele>1280.83</ele>
        <time>2024-11-05T10:01:42.009Z</time>
      </trkpt>
      <trkpt lat="44.61323" lon="3.52593">
        <ele>1280.28</ele>
        <time>2024-11-05T10:01:44.567Z</time>
      </trkpt>
      <trkpt lat="44.61312" lon="3.52576">
        <ele>1279.74</ele>
        <time>2024-11-05T10:01:47.127Z</time>
      </trkpt>
      <trkpt lat="44.61301" lon="3.52548">
        <ele>1279.23</ele>
        <time>2024-11-05T10:01:49.691Z</time>
      </trkpt>
      <trkpt lat="44.61289" lon="3.52521">
        <ele>1278.76</ele>
        <time>2024-11-05T10:01:52.259Z</time>
      </trkpt>
      <trkpt lat="44.61279" lon="3.52488">
        <ele>1278.24</ele>
        <time>2024-11-05T10:01:54.831Z</time>
      </trkpt>
      <trkpt lat="44.61268" lon="3.52456">
        <ele>1277.72</ele>
        <time>2024-11-05T10:01:57.407Z</time>
      </trkpt>
      <trkpt lat="44.6125" lon="3.52422">
        <ele>1277.33</ele>
        <time>2024-11-05T10:01:59.988Z</time>
      </trkpt>
      <trkpt lat="44.61241" lon="3.524">
        <ele>1276.96</ele>
        <time>2024-11-05T10:02:02.571Z</time>
      </trkpt>
      <trkpt lat="44.61241" lon="3.524">
        <ele>1276.57</ele>
        <time>2024-11-05T10:02:05.154Z</time>
      </trkpt>
      <trkpt lat="44.61238" lon="3.52388">
        <ele>1276.2</ele>
        <time>2024-11-05T10:02:07.739Z</time>
      </trkpt>
      <trkpt lat="44.61238" lon="3.52367">
        <ele>1275.86</ele>
        <time>2024-11-05T10:02:10.326Z</time>
      </trkpt>
      <trkpt lat="44.61243" lon="3.52347">
        <ele>1275.48</ele>
        <time>2024-11-05T10:02:12.916Z</time>
      </trkpt>
      <trkpt lat="44.61256" lon="3.52325">
        <ele>1275.1</ele>
        <time>2024-11-05T10:02:15.509Z</time>
      </trkpt>
      <trkpt lat="44.61268" lon="3.52308">
        <ele>1274.74</ele>
        <time>2024-11-05T10:02:18.105Z</time>
      </trkpt>
      <trkpt lat="44.6128" lon="3.52291">
        <ele>1274.41</ele>
        <time>2024-11-05T10:02:20.703Z</time>
      </trkpt>
      <trkpt lat="44.61296" lon="3.52275">
        <ele>1274.07</ele>
        <time>2024-11-05T10:02:23.304Z</time>
      </trkpt>
      <trkpt lat="44.61312" lon="3.5226">
        <ele>1273.71</ele>
        <time>2024-11-05T10:02:25.909Z</time>
      </trkpt>
      <trkpt lat="44.61331" lon="3.52238">
        <ele>1273.34</ele>
        <time>2024-11-05T10:02:28.518Z</time>
      </trkpt>
      <trkpt lat="44.61346" lon="3.52212">
        <ele>1272.97</ele>
        <time>2024-11-05T10:02:31.130Z</time>
      </trkpt>
      <trkpt lat="44.61361" lon="3.5218">
        <ele>1272.56</ele>
        <time>2024-11-05T10:02:33.747Z</time>
      </trkpt>
      <trkpt lat="44.61375" lon="3.52149">
        <ele>1272.11</ele>
        <time>2024-11-05T10:02:36.368Z</time>
      </trkpt>
      <trkpt lat="44.61381" lon="3.52131">
        <ele>1271.66</ele>
        <time>2024-11-05T10:02:38.991Z</time>
      </trkpt>
      <trkpt lat="44.61383" lon="3.52104">
        <ele>1271.2</ele>
        <time>2024-11-05T10:02:41.617Z</time>
      </trkpt>
      <trkpt lat="44.61383" lon="3.52082">
        <ele>1270.74</ele>
        <time>2024-11-05T10:02:44.246Z</time>
      </trkpt>
      <trkpt lat="44.61383" lon="3.52059">
        <ele>1270.28</ele>
        <time>2024-11-05T10:02:46.877Z</time>
      </trkpt>
      <trkpt lat="44.61385" lon="3.52019">
        <ele>1269.83</ele>
        <time>2024-11-05T10:02:49.513Z</time>
      </trkpt>
      <trkpt lat="44.61388" lon="3.5198">
        <ele>1269.33</ele>
        <time>2024-11-05T10:02:52.154Z</time>
      </trkpt>
      <trkpt lat="44.61393" lon="3.51948">
        <ele>1268.78</ele>
        <time>2024-11-05T10:02:54.798Z</time>
      </trkpt>
      <trkpt lat="44.614" lon="3.51919">
        <ele>1268.25</ele>
        <time>2024-11-05T10:02:57.446Z</time>
      </trkpt>
      <trkpt lat="44.61406" lon="3.5189">
        <ele>1267.68</ele>
        <time>2024-11-05T10:03:00.097Z</time>
      </trkpt>
      <trkpt lat="44.61413" lon="3.51861">
        <ele>1267.08</ele>
        <time>2024-11-05T10:03:02.752Z</time>
      </trkpt>
      <trkpt lat="44.61425" lon="3.51828">
        <ele>1266.44</ele>
        <time>2024-11-05T10:03:05.411Z</time>
      </trkpt>
      <trkpt lat="44.61431" lon="3.51816">
        <ele>1265.78</ele>
        <time>2024-11-05T10:03:08.072Z</time>
      </trkpt>
      <trkpt lat="44.61447" lon="3.51794">
        <ele>1265.09</ele>
        <time>2024-11-05T10:03:10.736Z</time>
      </trkpt>
      <trkpt lat="44.61464" lon="3.51772">
        <ele>1264.34</ele>
        <time>2024-11-05T10:03:13.404Z</time>
      </trkpt>
      <trkpt lat="44.6148" lon="3.5175">
        <ele>1263.57</ele>
        <time>2024-11-05T10:03:16.076Z</time>
      </trkpt>
      <trkpt lat="44.61497" lon="3.51718">
        <ele>1262.71</ele>
        <time>2024-11-05T10:03:18.752Z</time>
      </trkpt>
      <trkpt lat="44.61508" lon="3.51689">
        <ele>1261.83</ele>
        <time>2024-11-05T10:03:21.432Z</time>
      </trkpt>
      <trkpt lat="44.61518" lon="3.51661">
        <ele>1260.92</ele>
        <time>2024-11-05T10:03:24.115Z</time>
      </trkpt>
      <trkpt lat="44.61529" lon="3.51632">
        <ele>1260</ele>
        <time>2024-11-05T10:03:26.802Z</time>
      </trkpt>
      <trkpt lat="44.61537" lon="3.51606">
        <ele>1259.03</ele>
        <time>2024-11-05T10:03:29.492Z</time>
      </trkpt>
      <trkpt lat="44.61545" lon="3.51581">
        <ele>1258.03</ele>
        <time>2024-11-05T10:03:32.186Z</time>
      </trkpt>
      <trkpt lat="44.61555" lon="3.51554">
        <ele>1257.05</ele>
        <time>2024-11-05T10:03:34.883Z</time>
      </trkpt>
      <trkpt lat="44.61565" lon="3.51527">
        <ele>1256</ele>
        <time>2024-11-05T10:03:37.584Z</time>
      </trkpt>
      <trkpt lat="44.61574" lon="3.51491">
        <ele>1254.87</ele>
        <time>2024-11-05T10:03:40.289Z</time>
      </trkpt>
      <trkpt lat="44.6158" lon="3.5147">
        <ele>1253.77</ele>
        <time>2024-11-05T10:03:42.996Z</time>
      </trkpt>
      <trkpt lat="44.61585" lon="3.51449">
        <ele>1252.67</ele>
        <time>2024-11-05T10:03:45.706Z</time>
      </trkpt>
      <trkpt lat="44.61597" lon="3.51412">
        <ele>1251.53</ele>
        <time>2024-11-05T10:03:48.421Z</time>
      </trkpt>
      <trkpt lat="44.6161" lon="3.51387">
        <ele>1250.39</ele>
        <time>2024-11-05T10:03:51.139Z</time>
      </trkpt>
      <trkpt lat="44.61622" lon="3.51362">
        <ele>1249.26</ele>
        <time>2024-11-05T10:03:53.861Z</time>
      </trkpt>
      <trkpt lat="44.61631" lon="3.51342">
        <ele>1248.12</ele>
        <time>2024-11-05T10:03:56.585Z</time>
      </trkpt>
      <trkpt lat="44.61638" lon="3.51316">
        <ele>1246.95</ele>
        <time>2024-11-05T10:03:59.312Z</time>
      </trkpt>
      <trkpt lat="44.61643" lon="3.51286">
        <ele>1245.78</ele>
        <time>2024-11-05T10:04:02.043Z</time>
      </trkpt>
      <trkpt lat="44.61648" lon="3.51256">
        <ele>1244.64</ele>
        <time>2024-11-05T10:04:04.778Z</time>
      </trkpt>
      <trkpt lat="44.61654" lon="3.51233">
        <ele>1243.47</ele>
        <time>2024-11-05T10:04:07.515Z</time>
      </trkpt>
      <trkpt lat="44.61665" lon="3.51219">
        <ele>1242.27</ele>
        <time>2024-11-05T10:04:10.255Z</time>
      </trkpt>
      <trkpt lat="44.61691" lon="3.51202">
        <ele>1241</ele>
        <time>2024-11-05T10:04:12.999Z</time>
      </trkpt>
      <trkpt lat="44.61711" lon="3.51192">
        <ele>1239.77</ele>
        <time>2024-11-05T10:04:15.747Z</time>
      </trkpt>
      <trkpt lat="44.61732" lon="3.51183">
        <ele>1238.58</ele>
        <time>2024-11-05T10:04:18.498Z</time>
      </trkpt>
      <trkpt lat="44.61759" lon="3.51176">
        <ele>1237.4</ele>
        <time>2024-11-05T10:04:21.254Z</time>
      </trkpt>
      <trkpt lat="44.61785" lon="3.5117">
        <ele>1236.23</ele>
        <time>2024-11-05T10:04:24.014Z</time>
      </trkpt>
      <trkpt lat="44.61808" lon="3.51158">
        <ele>1235.08</ele>
        <time>2024-11-05T10:04:26.778Z</time>
      </trkpt>
      <trkpt lat="44.61831" lon="3.51147">
        <ele>1233.96</ele>
        <time>2024-11-05T10:04:29.546Z</time>
      </trkpt>
      <trkpt lat="44.61854" lon="3.51136">
        <ele>1232.86</ele>
        <time>2024-11-05T10:04:32.317Z</time>
      </trkpt>
      <trkpt lat="44.6187" lon="3.51128">
        <ele>1231.74</ele>
        <time>2024-11-05T10:04:35.091Z</time>
      </trkpt>
      <trkpt lat="44.61887" lon="3.51121">
        <ele>1230.64</ele>
        <time>2024-11-05T10:04:37.868Z</time>
      </trkpt>
      <trkpt lat="44.61908" lon="3.51109">
        <ele>1229.57</ele>
        <time>2024-11-05T10:04:40.649Z</time>
      </trkpt>
      <trkpt lat="44.61931" lon="3.51086">
        <ele>1228.52</ele>
        <time>2024-11-05T10:04:43.434Z</time>
      </trkpt>
      <trkpt lat="44.61952" lon="3.51069">
        <ele>1227.47</ele>
        <time>2024-11-05T10:04:46.223Z</time>
      </trkpt>
      <trkpt lat="44.61978" lon="3.51056">
        <ele>1226.44</ele>
        <time>2024-11-05T10:04:49.016Z</time>
      </trkpt>
      <trkpt lat="44.62004" lon="3.51043">
        <ele>1225.43</ele>
        <time>2024-11-05T10:04:51.814Z</time>
      </trkpt>
      <trkpt lat="44.6203" lon="3.5103">
        <ele>1224.47</ele>
        <time>2024-11-05T10:04:54.616Z</time>
      </trkpt>
      <trkpt lat="44.62046" lon="3.51019">
        <ele>1223.49</ele>
        <time>2024-11-05T10:04:57.421Z</time>
      </trkpt>
      <trkpt lat="44.62062" lon="3.51007">
        <ele>1222.52</ele>
        <time>2024-11-05T10:05:00.229Z</time>
      </trkpt>
      <trkpt lat="44.62082" lon="3.50987">
        <ele>1221.56</ele>
        <time>2024-11-05T10:05:03.041Z</time>
      </trkpt>
      <trkpt lat="44.62097" lon="3.50969">
        <ele>1220.65</ele>
        <time>2024-11-05T10:05:05.856Z</time>
      </trkpt>
      <trkpt lat="44.62112" lon="3.50951">
        <ele>1219.77</ele>
        <time>2024-11-05T10:05:08.674Z</time>
      </trkpt>
      <trkpt lat="44.62136" lon="3.50931">
        <ele>1218.94</ele>
        <time>2024-11-05T10:05:11.497Z</time>
      </trkpt>
      <trkpt lat="44.62153" lon="3.50919">
        <ele>1218.18</ele>
        <time>2024-11-05T10:05:14.323Z</time>
      </trkpt>
      <trkpt lat="44.6217" lon="3.50907">
        <ele>1217.45</ele>
        <time>2024-11-05T10:05:17.152Z</time>
      </trkpt>
      <trkpt lat="44.62188" lon="3.50891">
        <ele>1216.74</ele>
        <time>2024-11-05T10:05:19.984Z</time>
      </trkpt>
      <trkpt lat="44.62207" lon="3.50872">
        <ele>1216.08</ele>
        <time>2024-11-05T10:05:22.820Z</time>
      </trkpt>
      <trkpt lat="44.62227" lon="3.50847">
        <ele>1215.44</ele>
        <time>2024-11-05T10:05:25.660Z</time>
      </trkpt>
      <trkpt lat="44.62247" lon="3.50823">
        <ele>1214.82</ele>
        <time>2024-11-05T10:05:28.505Z</time>
      </trkpt>
      <trkpt lat="44.62268" lon="3.50799">
        <ele>1214.22</ele>
        <time>2024-11-05T10:05:31.354Z</time>
      </trkpt>
      <trkpt lat="44.62285" lon="3.50778">
        <ele>1213.66</ele>
        <time>2024-11-05T10:05:34.206Z</time>
      </trkpt>
      <trkpt lat="44.62301" lon="3.50757">
        <ele>1213.13</ele>
        <time>2024-11-05T10:05:37.062Z</time>
      </trkpt>
      <trkpt lat="44.62318" lon="3.50736">
        <ele>1212.62</ele>
        <time>2024-11-05T10:05:39.922Z</time>
      </trkpt>
      <trkpt lat="44.62341" lon="3.50713">
        <ele>1212.14</ele>
        <time>2024-11-05T10:05:42.786Z</time>
      </trkpt>
      <trkpt lat="44.62363" lon="3.50689">
        <ele>1211.65</ele>
        <time>2024-11-05T10:05:45.655Z</time>
      </trkpt>
      <trkpt lat="44.62375" lon="3.50674">
        <ele>1211.19</ele>
        <time>2024-11-05T10:05:48.526Z</time>
      </trkpt>
      <trkpt lat="44.6239" lon="3.50649">
        <ele>1210.74</ele>
        <time>2024-11-05T10:05:51.401Z</time>
      </trkpt>
      <trkpt lat="44.62405" lon="3.50623">
        <ele>1210.36</ele>
        <time>2024-11-05T10:05:54.280Z</time>
      </trkpt>
      <trkpt lat="44.6242" lon="3.50598">
        <ele>1210.07</ele>
        <time>2024-11-05T10:05:57.163Z</time>
      </trkpt>
      <trkpt lat="44.6242" lon="3.50598">
        <ele>1209.79</ele>
        <time>2024-11-05T10:06:00.046Z</time>
      </trkpt>
      <trkpt lat="44.62442" lon="3.50566">
        <ele>1209.57</ele>
        <time>2024-11-05T10:06:02.934Z</time>
      </trkpt>
      <trkpt lat="44.6246" lon="3.50534">
        <ele>1209.38</ele>
        <time>2024-11-05T10:06:05.826Z</time>
      </trkpt>
      <trkpt lat="44.62478" lon="3.50501">
        <ele>1209.19</ele>
        <time>2024-11-05T10:06:08.723Z</time>
      </trkpt>
      <trkpt lat="44.62496" lon="3.50469">
        <ele>1208.99</ele>
        <time>2024-11-05T10:06:11.625Z</time>
      </trkpt>
      <trkpt lat="44.62513" lon="3.50437">
        <ele>1208.85</ele>
        <time>2024-11-05T10:06:14.531Z</time>
      </trkpt>
      <trkpt lat="44.62529" lon="3.50414">
        <ele>1208.71</ele>
        <time>2024-11-05T10:06:17.441Z</time>
      </trkpt>
      <trkpt lat="44.62545" lon="3.50391">
        <ele>1208.59</ele>
        <time>2024-11-05T10:06:20.354Z</time>
      </trkpt>
      <trkpt lat="44.62562" lon="3.50366">
        <ele>1208.48</ele>
        <time>2024-11-05T10:06:23.271Z</time>
      </trkpt>
      <trkpt lat="44.62574" lon="3.50352">
        <ele>1208.44</ele>
        <time>2024-11-05T10:06:26.191Z</time>
      </trkpt>
      <trkpt lat="44.62586" lon="3.50337">
        <ele>1208.41</ele>
        <time>2024-11-05T10:06:29.114Z</time>
      </trkpt>
      <trkpt lat="44.62607" lon="3.50317">
        <ele>1208.43</ele>
        <time>2024-11-05T10:06:32.041Z</time>
      </trkpt>
      <trkpt lat="44.62627" lon="3.50298">
        <ele>1208.44</ele>
        <time>2024-11-05T10:06:34.972Z</time>
      </trkpt>
      <trkpt lat="44.62641" lon="3.50281">
        <ele>1208.45</ele>
        <time>2024-11-05T10:06:37.905Z</time>
      </trkpt>
      <trkpt lat="44.62655" lon="3.50264">
        <ele>1208.5</ele>
        <time>2024-11-05T10:06:40.841Z</time>
      </trkpt>
      <trkpt lat="44.62676" lon="3.50238">
        <ele>1208.57</ele>
        <time>2024-11-05T10:06:43.782Z</time>
      </trkpt>
      <trkpt lat="44.62688" lon="3.50212">
        <ele>1208.65</ele>
        <time>2024-11-05T10:06:46.726Z</time>
      </trkpt>
      <trkpt lat="44.627" lon="3.50186">
        <ele>1208.71</ele>
        <time>2024-11-05T10:06:49.674Z</time>
      </trkpt>
      <trkpt lat="44.62712" lon="3.5016">
        <ele>1208.85</ele>
        <time>2024-11-05T10:06:52.625Z</time>
      </trkpt>
      <trkpt lat="44.62723" lon="3.50139">
        <ele>1209</ele>
        <time>2024-11-05T10:06:55.579Z</time>
      </trkpt>
      <trkpt lat="44.62738" lon="3.50116">
        <ele>1209.2</ele>
        <time>2024-11-05T10:06:58.537Z</time>
      </trkpt>
      <trkpt lat="44.62754" lon="3.50093">
        <ele>1209.38</ele>
        <time>2024-11-05T10:07:01.499Z</time>
      </trkpt>
      <trkpt lat="44.6277" lon="3.5007">
        <ele>1209.55</ele>
        <time>2024-11-05T10:07:04.464Z</time>
      </trkpt>
      <trkpt lat="44.62786" lon="3.5005">
        <ele>1209.67</ele>
        <time>2024-11-05T10:07:07.433Z</time>
      </trkpt>
      <trkpt lat="44.62802" lon="3.5003">
        <ele>1209.83</ele>
        <time>2024-11-05T10:07:10.405Z</time>
      </trkpt>
      <trkpt lat="44.62816" lon="3.50006">
        <ele>1209.95</ele>
        <time>2024-11-05T10:07:13.381Z</time>
      </trkpt>
      <trkpt lat="44.6283" lon="3.49982">
        <ele>1210.09</ele>
        <time>2024-11-05T10:07:16.360Z</time>
      </trkpt>
      <trkpt lat="44.62844" lon="3.49959">
        <ele>1210.19</ele>
        <time>2024-11-05T10:07:19.343Z</time>
      </trkpt>
      <trkpt lat="44.62858" lon="3.49942">
        <ele>1210.3</ele>
        <time>2024-11-05T10:07:22.329Z</time>
      </trkpt>
      <trkpt lat="44.6288" lon="3.49921">
        <ele>1210.4</ele>
        <time>2024-11-05T10:07:25.319Z</time>
      </trkpt>
      <trkpt lat="44.62902" lon="3.499">
        <ele>1210.49</ele>
        <time>2024-11-05T10:07:28.313Z</time>
      </trkpt>
      <trkpt lat="44.62924" lon="3.49878">
        <ele>1210.58</ele>
        <time>2024-11-05T10:07:31.312Z</time>
      </trkpt>
      <trkpt lat="44.62951" lon="3.49856">
        <ele>1210.64</ele>
        <time>2024-11-05T10:07:34.316Z</time>
      </trkpt>
      <trkpt lat="44.62977" lon="3.49833">
        <ele>1210.69</ele>
        <time>2024-11-05T10:07:37.324Z</time>
      </trkpt>
      <trkpt lat="44.62989" lon="3.49818">
        <ele>1210.7</ele>
        <time>2024-11-05T10:07:40.335Z</time>
      </trkpt>
      <trkpt lat="44.63001" lon="3.49803">
        <ele>1210.63</ele>
        <time>2024-11-05T10:07:43.349Z</time>
      </trkpt>
      <trkpt lat="44.6301" lon="3.49782">
        <ele>1210.57</ele>
        <time>2024-11-05T10:07:46.365Z</time>
      </trkpt>
      <trkpt lat="44.63019" lon="3.49761">
        <ele>1210.47</ele>
        <time>2024-11-05T10:07:49.384Z</time>
      </trkpt>
      <trkpt lat="44.63027" lon="3.49738">
        <ele>1210.37</ele>
        <time>2024-11-05T10:07:52.406Z</time>
      </trkpt>
      <trkpt lat="44.63035" lon="3.49714">
        <ele>1210.27</ele>
        <time>2024-11-05T10:07:55.431Z</time>
      </trkpt>
      <trkpt lat="44.63044" lon="3.4968">
        <ele>1210.13</ele>
        <time>2024-11-05T10:07:58.460Z</time>
      </trkpt>
      <trkpt lat="44.63053" lon="3.49645">
        <ele>1209.93</ele>
        <time>2024-11-05T10:08:01.494Z</time>
      </trkpt>
      <trkpt lat="44.63066" lon="3.49617">
        <ele>1209.72</ele>
        <time>2024-11-05T10:08:04.531Z</time>
      </trkpt>
      <trkpt lat="44.6308" lon="3.49589">
        <ele>1209.46</ele>
        <time>2024-11-05T10:08:07.572Z</time>
      </trkpt>
      <trkpt lat="44.63093" lon="3.49562">
        <ele>1209.16</ele>
        <time>2024-11-05T10:08:10.617Z</time>
      </trkpt>
      <trkpt lat="44.631" lon="3.49539">
        <ele>1208.87</ele>
        <time>2024-11-05T10:08:13.665Z</time>
      </trkpt>
      <trkpt lat="44.63107" lon="3.49515">
        <ele>1208.58</ele>
        <time>2024-11-05T10:08:16.716Z</time>
      </trkpt>
      <trkpt lat="44.63109" lon="3.49489">
        <ele>1208.28</ele>
        <time>2024-11-05T10:08:19.770Z</time>
      </trkpt>
      <trkpt lat="44.63105" lon="3.49459">
        <ele>1207.99</ele>
        <time>2024-11-05T10:08:22.827Z</time>
      </trkpt>
      <trkpt lat="44.63101" lon="3.49441">
        <ele>1207.66</ele>
        <time>2024-11-05T10:08:25.886Z</time>
      </trkpt>
      <trkpt lat="44.63106" lon="3.4943">
        <ele>1207.32</ele>
        <time>2024-11-05T10:08:28.947Z</time>
      </trkpt>
      <trkpt lat="44.63106" lon="3.49399">
        <ele>1206.95</ele>
        <time>2024-11-05T10:08:32.011Z</time>
      </trkpt>
      <trkpt lat="44.63106" lon="3.49368">
        <ele>1206.57</ele>
        <time>2024-11-05T10:08:35.079Z</time>
      </trkpt>
      <trkpt lat="44.63107" lon="3.49337">
        <ele>1206.17</ele>
        <time>2024-11-05T10:08:38.150Z</time>
      </trkpt>
      <trkpt lat="44.63112" lon="3.49297">
        <ele>1205.7</ele>
        <time>2024-11-05T10:08:41.226Z</time>
      </trkpt>
      <trkpt lat="44.63116" lon="3.49279">
        <ele>1205.21</ele>
        <time>2024-11-05T10:08:44.304Z</time>
      </trkpt>
      <trkpt lat="44.63129" lon="3.49249">
        <ele>1204.68</ele>
        <time>2024-11-05T10:08:47.386Z</time>
      </trkpt>
      <trkpt lat="44.63151" lon="3.49224">
        <ele>1204.15</ele>
        <time>2024-11-05T10:08:50.473Z</time>
      </trkpt>
      <trkpt lat="44.63164" lon="3.49213">
        <ele>1203.59</ele>
        <time>2024-11-05T10:08:53.562Z</time>
      </trkpt>
      <trkpt lat="44.63184" lon="3.49202">
        <ele>1202.98</ele>
        <time>2024-11-05T10:08:56.655Z</time>
      </trkpt>
      <trkpt lat="44.63204" lon="3.49191">
        <ele>1202.35</ele>
        <time>2024-11-05T10:08:59.751Z</time>
      </trkpt>
      <trkpt lat="44.63224" lon="3.49181">
        <ele>1201.67</ele>
        <time>2024-11-05T10:09:02.850Z</time>
      </trkpt>
      <trkpt lat="44.63239" lon="3.49176">
        <ele>1201.03</ele>
        <time>2024-11-05T10:09:05.952Z</time>
      </trkpt>
      <trkpt lat="44.63252" lon="3.49168">
        <ele>1200.35</ele>
        <time>2024-11-05T10:09:09.056Z</time>
      </trkpt>
      <trkpt lat="44.63267" lon="3.49146">
        <ele>1199.62</ele>
        <time>2024-11-05T10:09:12.164Z</time>
      </trkpt>
      <trkpt lat="44.63271" lon="3.49127">
        <ele>1198.86</ele>
        <time>2024-11-05T10:09:15.274Z</time>
      </trkpt>
      <trkpt lat="44.63271" lon="3.49112">
        <ele>1198.11</ele>
        <time>2024-11-05T10:09:18.386Z</time>
      </trkpt>
      <trkpt lat="44.63269" lon="3.49097">
        <ele>1197.33</ele>
        <time>2024-11-05T10:09:21.499Z</time>
      </trkpt>
      <trkpt lat="44.63262" lon="3.49069">
        <ele>1196.5</ele>
        <time>2024-11-05T10:09:24.616Z</time>
      </trkpt>
      <trkpt lat="44.6325" lon="3.49039">
        <ele>1195.65</ele>
        <time>2024-11-05T10:09:27.737Z</time>
      </trkpt>
      <trkpt lat="44.63238" lon="3.49009">
        <ele>1194.81</ele>
        <time>2024-11-05T10:09:30.862Z</time>
      </trkpt>
      <trkpt lat="44.63226" lon="3.48979">
        <ele>1193.95</ele>
        <time>2024-11-05T10:09:33.991Z</time>
      </trkpt>
      <trkpt lat="44.63219" lon="3.4896">
        <ele>1193.07</ele>
        <time>2024-11-05T10:09:37.122Z</time>
      </trkpt>
      <trkpt lat="44.63215" lon="3.48936">
        <ele>1192.19</ele>
        <time>2024-11-05T10:09:40.256Z</time>
      </trkpt>
      <trkpt lat="44.63213" lon="3.48915">
        <ele>1191.32</ele>
        <time>2024-11-05T10:09:43.392Z</time>
      </trkpt>
      <trkpt lat="44.63213" lon="3.48893">
        <ele>1190.43</ele>
        <time>2024-11-05T10:09:46.531Z</time>
      </trkpt>
      <trkpt lat="44.63217" lon="3.48872">
        <ele>1189.53</ele>
        <time>2024-11-05T10:09:49.672Z</time>
      </trkpt>
      <trkpt lat="44.6323" lon="3.48832">
        <ele>1188.57</ele>
        <time>2024-11-05T10:09:52.818Z</time>
      </trkpt>
      <trkpt lat="44.63243" lon="3.48792">
        <ele>1187.63</ele>
        <time>2024-11-05T10:09:55.969Z</time>
      </trkpt>
      <trkpt lat="44.63247" lon="3.4877">
        <ele>1186.7</ele>
        <time>2024-11-05T10:09:59.123Z</time>
      </trkpt>
      <trkpt lat="44.63252" lon="3.48747">
        <ele>1185.8</ele>
        <time>2024-11-05T10:10:02.280Z</time>
      </trkpt>
      <trkpt lat="44.63252" lon="3.48721">
        <ele>1184.89</ele>
        <time>2024-11-05T10:10:05.439Z</time>
      </trkpt>
      <trkpt lat="44.63252" lon="3.48696">
        <ele>1183.94</ele>
        <time>2024-11-05T10:10:08.601Z</time>
      </trkpt>
      <trkpt lat="44.63255" lon="3.48658">
        <ele>1183</ele>
        <time>2024-11-05T10:10:11.768Z</time>
      </trkpt>
      <trkpt lat="44.63257" lon="3.48642">
        <ele>1182.04</ele>
        <time>2024-11-05T10:10:14.937Z</time>
      </trkpt>
      <trkpt lat="44.6327" lon="3.48617">
        <ele>1181.06</ele>
        <time>2024-11-05T10:10:18.109Z</time>
      </trkpt>
      <trkpt lat="44.63285" lon="3.48599">
        <ele>1180.09</ele>
        <time>2024-11-05T10:10:21.284Z</time>
      </trkpt>
      <trkpt lat="44.633" lon="3.4858">
        <ele>1179.1</ele>
        <time>2024-11-05T10:10:24.463Z</time>
      </trkpt>
      <trkpt lat="44.63315" lon="3.48557">
        <ele>1178.13</ele>
        <time>2024-11-05T10:10:27.645Z</time>
      </trkpt>
      <trkpt lat="44.63326" lon="3.48528">
        <ele>1177.16</ele>
        <time>2024-11-05T10:10:30.831Z</time>
      </trkpt>
      <trkpt lat="44.63336" lon="3.48499">
        <ele>1176.18</ele>
        <time>2024-11-05T10:10:34.021Z</time>
      </trkpt>
      <trkpt lat="44.63347" lon="3.48469">
        <ele>1175.23</ele>
        <time>2024-11-05T10:10:37.214Z</time>
      </trkpt>
      <trkpt lat="44.63347" lon="3.48461">
        <ele>1174.26</ele>
        <time>2024-11-05T10:10:40.408Z</time>
      </trkpt>
      <trkpt lat="44.63346" lon="3.48437">
        <ele>1173.31</ele>
        <time>2024-11-05T10:10:43.605Z</time>
      </trkpt>
      <trkpt lat="44.63337" lon="3.4841">
        <ele>1172.33</ele>
        <time>2024-11-05T10:10:46.805Z</time>
      </trkpt>
      <trkpt lat="44.63331" lon="3.48398">
        <ele>1171.34</ele>
        <time>2024-11-05T10:10:50.007Z</time>
      </trkpt>
      <trkpt lat="44.63318" lon="3.48384">
        <ele>1170.32</ele>
        <time>2024-11-05T10:10:53.212Z</time>
      </trkpt>
      <trkpt lat="44.63305" lon="3.4837">
        <ele>1169.31</ele>
        <time>2024-11-05T10:10:56.419Z</time>
      </trkpt>
      <trkpt lat="44.6329" lon="3.48359">
        <ele>1168.3</ele>
        <time>2024-11-05T10:10:59.629Z</time>
      </trkpt>
      <trkpt lat="44.63266" lon="3.48348">
        <ele>1167.25</ele>
        <time>2024-11-05T10:11:02.843Z</time>
      </trkpt>
      <trkpt lat="44.63241" lon="3.48337">
        <ele>1166.19</ele>
        <time>2024-11-05T10:11:06.061Z</time>
      </trkpt>
      <trkpt lat="44.63228" lon="3.48327">
        <ele>1165.15</ele>
        <time>2024-11-05T10:11:09.282Z</time>
      </trkpt>
      <trkpt lat="44.63214" lon="3.48312">
        <ele>1164.08</ele>
        <time>2024-11-05T10:11:12.506Z</time>
      </trkpt>
      <trkpt lat="44.632" lon="3.48297">
        <ele>1163</ele>
        <time>2024-11-05T10:11:15.732Z</time>
      </trkpt>
      <trkpt lat="44.63192" lon="3.48284">
        <ele>1161.92</ele>
        <time>2024-11-05T10:11:18.960Z</time>
      </trkpt>
      <trkpt lat="44.63187" lon="3.48273">
        <ele>1160.85</ele>
        <time>2024-11-05T10:11:22.190Z</time>
      </trkpt>
      <trkpt lat="44.63185" lon="3.4826">
        <ele>1159.78</ele>
        <time>2024-11-05T10:11:25.421Z</time>
      </trkpt>
      <trkpt lat="44.63185" lon="3.48247">
        <ele>1158.71</ele>
        <time>2024-11-05T10:11:28.654Z</time>
      </trkpt>
      <trkpt lat="44.63187" lon="3.48232">
        <ele>1157.63</ele>
        <time>2024-11-05T10:11:31.889Z</time>
      </trkpt>
      <trkpt lat="44.63194" lon="3.48211">
        <ele>1156.53</ele>
        <time>2024-11-05T10:11:35.126Z</time>
      </trkpt>
      <trkpt lat="44.63197" lon="3.48189">
        <ele>1155.42</ele>
        <time>2024-11-05T10:11:38.366Z</time>
      </trkpt>
      <trkpt lat="44.63201" lon="3.48168">
        <ele>1154.31</ele>
        <time>2024-11-05T10:11:41.608Z</time>
      </trkpt>
      <trkpt lat="44.63201" lon="3.48141">
        <ele>1153.19</ele>
        <time>2024-11-05T10:11:44.853Z</time>
      </trkpt>
      <trkpt lat="44.63201" lon="3.48113">
        <ele>1152.07</ele>
        <time>2024-11-05T10:11:48.102Z</time>
      </trkpt>
      <trkpt lat="44.63201" lon="3.48104">
        <ele>1150.98</ele>
        <time>2024-11-05T10:11:51.352Z</time>
      </trkpt>
      <trkpt lat="44.63201" lon="3.4808">
        <ele>1149.89</ele>
        <time>2024-11-05T10:11:54.604Z</time>
      </trkpt>
      <trkpt lat="44.632" lon="3.48056">
        <ele>1148.76</ele>
        <time>2024-11-05T10:11:57.859Z</time>
      </trkpt>
      <trkpt lat="44.632" lon="3.48031">
        <ele>1147.6</ele>
        <time>2024-11-05T10:12:01.117Z</time>
      </trkpt>
      <trkpt lat="44.63204" lon="3.48003">
        <ele>1146.45</ele>
        <time>2024-11-05T10:12:04.378Z</time>
      </trkpt>
      <trkpt lat="44.63209" lon="3.4799">
        <ele>1145.33</ele>
        <time>2024-11-05T10:12:07.641Z</time>
      </trkpt>
      <trkpt lat="44.63224" lon="3.47968">
        <ele>1144.18</ele>
        <time>2024-11-05T10:12:10.907Z</time>
      </trkpt>
      <trkpt lat="44.63237" lon="3.4796">
        <ele>1143.08</ele>
        <time>2024-11-05T10:12:14.176Z</time>
      </trkpt>
      <trkpt lat="44.63252" lon="3.47953">
        <ele>1141.96</ele>
        <time>2024-11-05T10:12:17.447Z</time>
      </trkpt>
      <trkpt lat="44.63275" lon="3.47946">
        <ele>1140.86</ele>
        <time>2024-11-05T10:12:20.722Z</time>
      </trkpt>
      <trkpt lat="44.63298" lon="3.47938">
        <ele>1139.76</ele>
        <time>2024-11-05T10:12:24.001Z</time>
      </trkpt>
      <trkpt lat="44.63321" lon="3.4793">
        <ele>1138.65</ele>
        <time>2024-11-05T10:12:27.284Z</time>
      </trkpt>
      <trkpt lat="44.6333" lon="3.47927">
        <ele>1137.54</ele>
        <time>2024-11-05T10:12:30.568Z</time>
      </trkpt>
      <trkpt lat="44.63344" lon="3.47923">
        <ele>1136.42</ele>
        <time>2024-11-05T10:12:33.854Z</time>
      </trkpt>
      <trkpt lat="44.63374" lon="3.4791">
        <ele>1135.29</ele>
        <time>2024-11-05T10:12:37.145Z</time>
      </trkpt>
      <trkpt lat="44.63379" lon="3.47905">
        <ele>1134.22</ele>
        <time>2024-11-05T10:12:40.437Z</time>
      </trkpt>
      <trkpt lat="44.63383" lon="3.47898">
        <ele>1133.15</ele>
        <time>2024-11-05T10:12:43.730Z</time>
      </trkpt>
      <trkpt lat="44.63386" lon="3.47875">
        <ele>1132.08</ele>
        <time>2024-11-05T10:12:47.026Z</time>
      </trkpt>
      <trkpt lat="44.63387" lon="3.47865">
        <ele>1131.05</ele>
        <time>2024-11-05T10:12:50.323Z</time>
      </trkpt>
      <trkpt lat="44.6339" lon="3.47858">
        <ele>1130.04</ele>
        <time>2024-11-05T10:12:53.621Z</time>
      </trkpt>
      <trkpt lat="44.63416" lon="3.47843">
        <ele>1129.05</ele>
        <time>2024-11-05T10:12:56.924Z</time>
      </trkpt>
      <trkpt lat="44.6343" lon="3.47826">
        <ele>1128.09</ele>
        <time>2024-11-05T10:13:00.230Z</time>
      </trkpt>
      <trkpt lat="44.63437" lon="3.47813">
        <ele>1127.16</ele>
        <time>2024-11-05T10:13:03.537Z</time>
      </trkpt>
      <trkpt lat="44.63442" lon="3.47805">
        <ele>1126.23</ele>
        <time>2024-11-05T10:13:06.846Z</time>
      </trkpt>
      <trkpt lat="44.63452" lon="3.47773">
        <ele>1125.32</ele>
        <time>2024-11-05T10:13:10.159Z</time>
      </trkpt>
      <trkpt lat="44.6346" lon="3.47757">
        <ele>1124.44</ele>
        <time>2024-11-05T10:13:13.474Z</time>
      </trkpt>
      <trkpt lat="44.63472" lon="3.4774">
        <ele>1123.6</ele>
        <time>2024-11-05T10:13:16.791Z</time>
      </trkpt>
      <trkpt lat="44.63484" lon="3.47712">
        <ele>1122.76</ele>
        <time>2024-11-05T10:13:20.112Z</time>
      </trkpt>
      <trkpt lat="44.63497" lon="3.4768">
        <ele>1121.92</ele>
        <time>2024-11-05T10:13:23.437Z</time>
      </trkpt>
      <trkpt lat="44.63512" lon="3.47659">
        <ele>1121.16</ele>
        <time>2024-11-05T10:13:26.766Z</time>
      </trkpt>
      <trkpt lat="44.63511" lon="3.4765">
        <ele>1120.44</ele>
        <time>2024-11-05T10:13:30.096Z</time>
      </trkpt>
      <trkpt lat="44.63518" lon="3.47632">
        <ele>1119.74</ele>
        <time>2024-11-05T10:13:33.428Z</time>
      </trkpt>
      <trkpt lat="44.6353" lon="3.47612">
        <ele>1119.11</ele>
        <time>2024-11-05T10:13:36.763Z</time>
      </trkpt>
      <trkpt lat="44.63541" lon="3.47593">
        <ele>1118.5</ele>
        <time>2024-11-05T10:13:40.101Z</time>
      </trkpt>
      <trkpt lat="44.63558" lon="3.47571">
        <ele>1117.89</ele>
        <time>2024-11-05T10:13:43.443Z</time>
      </trkpt>
      <trkpt lat="44.63578" lon="3.47553">
        <ele>1117.36</ele>
        <time>2024-11-05T10:13:46.789Z</time>
      </trkpt>
      <trkpt lat="44.63601" lon="3.47535">
        <ele>1116.91</ele>
        <time>2024-11-05T10:13:50.139Z</time>
      </trkpt>
      <trkpt lat="44.63621" lon="3.47529">
        <ele>1116.52</ele>
        <time>2024-11-05T10:13:53.492Z</time>
      </trkpt>
      <trkpt lat="44.63648" lon="3.47529">
        <ele>1116.18</ele>
        <time>2024-11-05T10:13:56.849Z</time>
      </trkpt>
      <trkpt lat="44.6365" lon="3.47525">
        <ele>1115.95</ele>
        <time>2024-11-05T10:14:00.207Z</time>
      </trkpt>
      <trkpt lat="44.6367" lon="3.47538">
        <ele>1115.81</ele>
        <time>2024-11-05T10:14:03.568Z</time>
      </trkpt>
      <trkpt lat="44.63691" lon="3.4755">
        <ele>1115.66</ele>
        <time>2024-11-05T10:14:06.933Z</time>
      </trkpt>
      <trkpt lat="44.63712" lon="3.47563">
        <ele>1115.57</ele>
        <time>2024-11-05T10:14:10.302Z</time>
      </trkpt>
      <trkpt lat="44.63732" lon="3.47568">
        <ele>1115.52</ele>
        <time>2024-11-05T10:14:13.674Z</time>
      </trkpt>
      <trkpt lat="44.63761" lon="3.47568">
        <ele>1115.58</ele>
        <time>2024-11-05T10:14:17.051Z</time>
      </trkpt>
      <trkpt lat="44.63779" lon="3.47564">
        <ele>1115.78</ele>
        <time>2024-11-05T10:14:20.431Z</time>
      </trkpt>
      <trkpt lat="44.63796" lon="3.47557">
        <ele>1116.04</ele>
        <time>2024-11-05T10:14:23.813Z</time>
      </trkpt>
      <trkpt lat="44.63824" lon="3.4754">
        <ele>1116.39</ele>
        <time>2024-11-05T10:14:27.200Z</time>
      </trkpt>
      <trkpt lat="44.63852" lon="3.47523">
        <ele>1116.79</ele>
        <time>2024-11-05T10:14:30.592Z</time>
      </trkpt>
      <trkpt lat="44.6388" lon="3.47506">
        <ele>1117.26</ele>
        <time>2024-11-05T10:14:33.989Z</time>
      </trkpt>
      <trkpt lat="44.63909" lon="3.47489">
        <ele>1117.83</ele>
        <time>2024-11-05T10:14:37.391Z</time>
      </trkpt>
      <trkpt lat="44.63937" lon="3.47472">
        <ele>1118.46</ele>
        <time>2024-11-05T10:14:40.798Z</time>
      </trkpt>
      <trkpt lat="44.63965" lon="3.47455">
        <ele>1119.16</ele>
        <time>2024-11-05T10:14:44.210Z</time>
      </trkpt>
      <trkpt lat="44.63994" lon="3.47437">
        <ele>1119.89</ele>
        <time>2024-11-05T10:14:47.627Z</time>
      </trkpt>
      <trkpt lat="44.64022" lon="3.4742">
        <ele>1120.63</ele>
        <time>2024-11-05T10:14:51.049Z</time>
      </trkpt>
      <trkpt lat="44.64049" lon="3.47403">
        <ele>1121.38</ele>
        <time>2024-11-05T10:14:54.475Z</time>
      </trkpt>
      <trkpt lat="44.64075" lon="3.47386">
        <ele>1122.1</ele>
        <time>2024-11-05T10:14:57.906Z</time>
      </trkpt>
      <trkpt lat="44.64102" lon="3.47369">
        <ele>1122.81</ele>
        <time>2024-11-05T10:15:01.342Z</time>
      </trkpt>
      <trkpt lat="44.64128" lon="3.47352">
        <ele>1123.48</ele>
        <time>2024-11-05T10:15:04.782Z</time>
      </trkpt>
      <trkpt lat="44.64155" lon="3.47335">
        <ele>1124.17</ele>
        <time>2024-11-05T10:15:08.227Z</time>
      </trkpt>
      <trkpt lat="44.64155" lon="3.47335">
        <ele>1124.86</ele>
        <time>2024-11-05T10:15:11.672Z</time>
      </trkpt>
      <trkpt lat="44.64172" lon="3.47323">
        <ele>1125.57</ele>
        <time>2024-11-05T10:15:15.120Z</time>
      </trkpt>
      <trkpt lat="44.64189" lon="3.47311">
        <ele>1126.3</ele>
        <time>2024-11-05T10:15:18.571Z</time>
      </trkpt>
      <trkpt lat="44.6421" lon="3.47291">
        <ele>1126.99</ele>
        <time>2024-11-05T10:15:22.026Z</time>
      </trkpt>
      <trkpt lat="44.64231" lon="3.4727">
        <ele>1127.66</ele>
        <time>2024-11-05T10:15:25.485Z</time>
      </trkpt>
      <trkpt lat="44.64252" lon="3.4725">
        <ele>1128.31</ele>
        <time>2024-11-05T10:15:28.948Z</time>
      </trkpt>
      <trkpt lat="44.64273" lon="3.4723">
        <ele>1128.9</ele>
        <time>2024-11-05T10:15:32.416Z</time>
      </trkpt>
      <trkpt lat="44.64299" lon="3.47207">
        <ele>1129.43</ele>
        <time>2024-11-05T10:15:35.888Z</time>
      </trkpt>
      <trkpt lat="44.64325" lon="3.47183">
        <ele>1129.98</ele>
        <time>2024-11-05T10:15:39.365Z</time>
      </trkpt>
      <trkpt lat="44.64351" lon="3.47159">
        <ele>1130.58</ele>
        <time>2024-11-05T10:15:42.847Z</time>
      </trkpt>
      <trkpt lat="44.64372" lon="3.47144">
        <ele>1131.12</ele>
        <time>2024-11-05T10:15:46.333Z</time>
      </trkpt>
      <trkpt lat="44.64395" lon="3.47134">
        <ele>1131.61</ele>
        <time>2024-11-05T10:15:49.823Z</time>
      </trkpt>
      <trkpt lat="44.64418" lon="3.47123">
        <ele>1132.01</ele>
        <time>2024-11-05T10:15:53.317Z</time>
      </trkpt>
      <trkpt lat="44.64444" lon="3.47113">
        <ele>1132.39</ele>
        <time>2024-11-05T10:15:56.815Z</time>
      </trkpt>
      <trkpt lat="44.64471" lon="3.47103">
        <ele>1132.79</ele>
        <time>2024-11-05T10:16:00.318Z</time>
      </trkpt>
      <trkpt lat="44.64497" lon="3.47093">
        <ele>1133.17</ele>
        <time>2024-11-05T10:16:03.825Z</time>
      </trkpt>
      <trkpt lat="44.64524" lon="3.47083">
        <ele>1133.58</ele>
        <time>2024-11-05T10:16:07.336Z</time>
      </trkpt>
      <trkpt lat="44.6455" lon="3.47073">
        <ele>1133.93</ele>
        <time>2024-11-05T10:16:10.852Z</time>
      </trkpt>
      <trkpt lat="44.64577" lon="3.47063">
        <ele>1134.25</ele>
        <time>2024-11-05T10:16:14.372Z</time>
      </trkpt>
      <trkpt lat="44.64603" lon="3.47053">
        <ele>1134.52</ele>
        <time>2024-11-05T10:16:17.897Z</time>
      </trkpt>
      <trkpt lat="44.64625" lon="3.47046">
        <ele>1134.77</ele>
        <time>2024-11-05T10:16:21.425Z</time>
      </trkpt>
      <trkpt lat="44.64647" lon="3.47039">
        <ele>1134.99</ele>
        <time>2024-11-05T10:16:24.957Z</time>
      </trkpt>
      <trkpt lat="44.64677" lon="3.47026">
        <ele>1135.16</ele>
        <time>2024-11-05T10:16:28.494Z</time>
      </trkpt>
      <trkpt lat="44.64706" lon="3.47013">
        <ele>1135.26</ele>
        <time>2024-11-05T10:16:32.036Z</time>
      </trkpt>
      <trkpt lat="44.64735" lon="3.47">
        <ele>1135.36</ele>
        <time>2024-11-05T10:16:35.583Z</time>
      </trkpt>
      <trkpt lat="44.64764" lon="3.46987">
        <ele>1135.45</ele>
        <time>2024-11-05T10:16:39.135Z</time>
      </trkpt>
      <trkpt lat="44.64792" lon="3.46971">
        <ele>1135.46</ele>
        <time>2024-11-05T10:16:42.691Z</time>
      </trkpt>
      <trkpt lat="44.64809" lon="3.46957">
        <ele>1135.4</ele>
        <time>2024-11-05T10:16:46.250Z</time>
      </trkpt>
      <trkpt lat="44.64826" lon="3.46943">
        <ele>1135.3</ele>
        <time>2024-11-05T10:16:49.813Z</time>
      </trkpt>
      <trkpt lat="44.64826" lon="3.46943">
        <ele>1135.24</ele>
        <time>2024-11-05T10:16:53.376Z</time>
      </trkpt>
      <trkpt lat="44.64826" lon="3.46943">
        <ele>1135.14</ele>
        <time>2024-11-05T10:16:56.939Z</time>
      </trkpt>
      <trkpt lat="44.64826" lon="3.46943">
        <ele>1135.01</ele>
        <time>2024-11-05T10:17:00.502Z</time>
      </trkpt>
      <trkpt lat="44.64826" lon="3.46943">
        <ele>1134.85</ele>
        <time>2024-11-05T10:17:04.065Z</time>
      </trkpt>
      <trkpt lat="44.64826" lon="3.46943">
        <ele>1134.65</ele>
        <time>2024-11-05T10:17:07.628Z</time>
      </trkpt>
      <trkpt lat="44.64834" lon="3.46933">
        <ele>1134.39</ele>
        <time>2024-11-05T10:17:11.192Z</time>
      </trkpt>
      <trkpt lat="44.64844" lon="3.4692">
        <ele>1134.1</ele>
        <time>2024-11-05T10:17:14.759Z</time>
      </trkpt>
      <trkpt lat="44.64871" lon="3.46887">
        <ele>1133.86</ele>
        <time>2024-11-05T10:17:18.331Z</time>
      </trkpt>
      <trkpt lat="44.64878" lon="3.46878">
        <ele>1133.54</ele>
        <time>2024-11-05T10:17:21.905Z</time>
      </trkpt>
      <trkpt lat="44.64888" lon="3.46866">
        <ele>1133.19</ele>
        <time>2024-11-05T10:17:25.481Z</time>
      </trkpt>
      <trkpt lat="44.64894" lon="3.46857">
        <ele>1132.8</ele>
        <time>2024-11-05T10:17:29.058Z</time>
      </trkpt>
      <trkpt lat="44.64898" lon="3.46853">
        <ele>1132.36</ele>
        <time>2024-11-05T10:17:32.636Z</time>
      </trkpt>
      <trkpt lat="44.64904" lon="3.46845">
        <ele>1131.9</ele>
        <time>2024-11-05T10:17:36.215Z</time>
      </trkpt>
      <trkpt lat="44.64921" lon="3.46824">
        <ele>1131.37</ele>
        <time>2024-11-05T10:17:39.798Z</time>
      </trkpt>
      <trkpt lat="44.64928" lon="3.46815">
        <ele>1130.8</ele>
        <time>2024-11-05T10:17:43.382Z</time>
      </trkpt>
      <trkpt lat="44.64931" lon="3.46811">
        <ele>1130.2</ele>
        <time>2024-11-05T10:17:46.967Z</time>
      </trkpt>
      <trkpt lat="44.64941" lon="3.46798">
        <ele>1129.57</ele>
        <time>2024-11-05T10:17:50.554Z</time>
      </trkpt>
      <trkpt lat="44.64948" lon="3.4679">
        <ele>1128.91</ele>
        <time>2024-11-05T10:17:54.143Z</time>
      </trkpt>
      <trkpt lat="44.64955" lon="3.46782">
        <ele>1128.2</ele>
        <time>2024-11-05T10:17:57.733Z</time>
      </trkpt>
      <trkpt lat="44.64961" lon="3.46773">
        <ele>1127.46</ele>
        <time>2024-11-05T10:18:01.325Z</time>
      </trkpt>
      <trkpt lat="44.64971" lon="3.46761">
        <ele>1126.7</ele>
        <time>2024-11-05T10:18:04.919Z</time>
      </trkpt>
      <trkpt lat="44.64978" lon="3.46752">
        <ele>1125.89</ele>
        <time>2024-11-05T10:18:08.514Z</time>
      </trkpt>
      <trkpt lat="44.64988" lon="3.4674">
        <ele>1125.02</ele>
        <time>2024-11-05T10:18:12.111Z</time>
      </trkpt>
      <trkpt lat="44.6499" lon="3.46737">
        <ele>1124.13</ele>
        <time>2024-11-05T10:18:15.709Z</time>
      </trkpt>
      <trkpt lat="44.64994" lon="3.46731">
        <ele>1123.22</ele>
        <time>2024-11-05T10:18:19.308Z</time>
      </trkpt>
      <trkpt lat="44.65014" lon="3.46705">
        <ele>1122.27</ele>
        <time>2024-11-05T10:18:22.911Z</time>
      </trkpt>
      <trkpt lat="44.65027" lon="3.46688">
        <ele>1121.25</ele>
        <time>2024-11-05T10:18:26.517Z</time>
      </trkpt>
      <trkpt lat="44.65033" lon="3.46679">
        <ele>1120.22</ele>
        <time>2024-11-05T10:18:30.124Z</time>
      </trkpt>
      <trkpt lat="44.65063" lon="3.4664">
        <ele>1119.01</ele>
        <time>2024-11-05T10:18:33.738Z</time>
      </trkpt>
      <trkpt lat="44.65082" lon="3.46614">
        <ele>1117.81</ele>
        <time>2024-11-05T10:18:37.356Z</time>
      </trkpt>
      <trkpt lat="44.65102" lon="3.46588">
        <ele>1116.67</ele>
        <time>2024-11-05T10:18:40.979Z</time>
      </trkpt>
      <trkpt lat="44.65118" lon="3.46567">
        <ele>1115.54</ele>
        <time>2024-11-05T10:18:44.605Z</time>
      </trkpt>
      <trkpt lat="44.65134" lon="3.46545">
        <ele>1114.43</ele>
        <time>2024-11-05T10:18:48.235Z</time>
      </trkpt>
      <trkpt lat="44.65154" lon="3.46519">
        <ele>1113.37</ele>
        <time>2024-11-05T10:18:51.869Z</time>
      </trkpt>
      <trkpt lat="44.65173" lon="3.46493">
        <ele>1112.29</ele>
        <time>2024-11-05T10:18:55.507Z</time>
      </trkpt>
      <trkpt lat="44.65183" lon="3.4648">
        <ele>1111.2</ele>
        <time>2024-11-05T10:18:59.147Z</time>
      </trkpt>
      <trkpt lat="44.65189" lon="3.46471">
        <ele>1110.06</ele>
        <time>2024-11-05T10:19:02.789Z</time>
      </trkpt>
      <trkpt lat="44.65201" lon="3.46456">
        <ele>1108.91</ele>
        <time>2024-11-05T10:19:06.433Z</time>
      </trkpt>
      <trkpt lat="44.6522" lon="3.46419">
        <ele>1107.65</ele>
        <time>2024-11-05T10:19:10.083Z</time>
      </trkpt>
      <trkpt lat="44.6522" lon="3.46418">
        <ele>1106.55</ele>
        <time>2024-11-05T10:19:13.733Z</time>
      </trkpt>
      <trkpt lat="44.65226" lon="3.46401">
        <ele>1105.42</ele>
        <time>2024-11-05T10:19:17.385Z</time>
      </trkpt>
      <trkpt lat="44.65229" lon="3.4639">
        <ele>1104.33</ele>
        <time>2024-11-05T10:19:21.038Z</time>
      </trkpt>
      <trkpt lat="44.65229" lon="3.46389">
        <ele>1103.28</ele>
        <time>2024-11-05T10:19:24.691Z</time>
      </trkpt>
      <trkpt lat="44.65233" lon="3.46358">
        <ele>1102.29</ele>
        <time>2024-11-05T10:19:28.348Z</time>
      </trkpt>
      <trkpt lat="44.65237" lon="3.46314">
        <ele>1101.25</ele>
        <time>2024-11-05T10:19:32.010Z</time>
      </trkpt>
      <trkpt lat="44.65238" lon="3.46302">
        <ele>1100.23</ele>
        <time>2024-11-05T10:19:35.673Z</time>
      </trkpt>
      <trkpt lat="44.65241" lon="3.46264">
        <ele>1099.16</ele>
        <time>2024-11-05T10:19:39.341Z</time>
      </trkpt>
      <trkpt lat="44.65241" lon="3.46258">
        <ele>1098.23</ele>
        <time>2024-11-05T10:19:43.009Z</time>
      </trkpt>
      <trkpt lat="44.65242" lon="3.46252">
        <ele>1097.32</ele>
        <time>2024-11-05T10:19:46.678Z</time>
      </trkpt>
      <trkpt lat="44.65244" lon="3.46246">
        <ele>1096.45</ele>
        <time>2024-11-05T10:19:50.348Z</time>
      </trkpt>
      <trkpt lat="44.65245" lon="3.4624">
        <ele>1095.61</ele>
        <time>2024-11-05T10:19:54.019Z</time>
      </trkpt>
      <trkpt lat="44.65247" lon="3.46234">
        <ele>1094.82</ele>
        <time>2024-11-05T10:19:57.690Z</time>
      </trkpt>
      <trkpt lat="44.65248" lon="3.46228">
        <ele>1094.07</ele>
        <time>2024-11-05T10:20:01.362Z</time>
      </trkpt>
      <trkpt lat="44.6525" lon="3.46222">
        <ele>1093.36</ele>
        <time>2024-11-05T10:20:05.035Z</time>
      </trkpt>
      <trkpt lat="44.65254" lon="3.46211">
        <ele>1092.69</ele>
        <time>2024-11-05T10:20:08.709Z</time>
      </trkpt>
      <trkpt lat="44.65261" lon="3.46189">
        <ele>1092.09</ele>
        <time>2024-11-05T10:20:12.386Z</time>
      </trkpt>
      <trkpt lat="44.65265" lon="3.46177">
        <ele>1091.55</ele>
        <time>2024-11-05T10:20:16.064Z</time>
      </trkpt>
      <trkpt lat="44.65269" lon="3.46166">
        <ele>1091.07</ele>
        <time>2024-11-05T10:20:19.744Z</time>
      </trkpt>
      <trkpt lat="44.6527" lon="3.46163">
        <ele>1090.62</ele>
        <time>2024-11-05T10:20:23.424Z</time>
      </trkpt>
      <trkpt lat="44.65278" lon="3.46138">
        <ele>1090.18</ele>
        <time>2024-11-05T10:20:27.107Z</time>
      </trkpt>
      <trkpt lat="44.65282" lon="3.46126">
        <ele>1089.81</ele>
        <time>2024-11-05T10:20:30.792Z</time>
      </trkpt>
      <trkpt lat="44.65286" lon="3.46115">
        <ele>1089.51</ele>
        <time>2024-11-05T10:20:34.478Z</time>
      </trkpt>
      <trkpt lat="44.6529" lon="3.46103">
        <ele>1089.27</ele>
        <time>2024-11-05T10:20:38.166Z</time>
      </trkpt>
      <trkpt lat="44.65293" lon="3.46092">
        <ele>1089.1</ele>
        <time>2024-11-05T10:20:41.855Z</time>
      </trkpt>
      <trkpt lat="44.653" lon="3.46071">
        <ele>1088.99</ele>
        <time>2024-11-05T10:20:45.547Z</time>
      </trkpt>
      <trkpt lat="44.65303" lon="3.46057">
        <ele>1088.93</ele>
        <time>2024-11-05T10:20:49.241Z</time>
      </trkpt>
      <trkpt lat="44.65316" lon="3.46003">
        <ele>1089.01</ele>
        <time>2024-11-05T10:20:52.941Z</time>
      </trkpt>
      <trkpt lat="44.65316" lon="3.46001">
        <ele>1089.06</ele>
        <time>2024-11-05T10:20:56.641Z</time>
      </trkpt>
      <trkpt lat="44.65321" lon="3.45985">
        <ele>1089.18</ele>
        <time>2024-11-05T10:21:00.343Z</time>
      </trkpt>
      <trkpt lat="44.65324" lon="3.45974">
        <ele>1089.34</ele>
        <time>2024-11-05T10:21:04.047Z</time>
      </trkpt>
      <trkpt lat="44.65326" lon="3.45967">
        <ele>1089.56</ele>
        <time>2024-11-05T10:21:07.751Z</time>
      </trkpt>
      <trkpt lat="44.65328" lon="3.45963">
        <ele>1089.84</ele>
        <time>2024-11-05T10:21:11.456Z</time>
      </trkpt>
      <trkpt lat="44.65342" lon="3.45931">
        <ele>1090.15</ele>
        <time>2024-11-05T10:21:15.165Z</time>
      </trkpt>
      <trkpt lat="44.65349" lon="3.45915">
        <ele>1090.51</ele>
        <time>2024-11-05T10:21:18.876Z</time>
      </trkpt>
      <trkpt lat="44.65354" lon="3.45904">
        <ele>1090.97</ele>
        <time>2024-11-05T10:21:22.589Z</time>
      </trkpt>
      <trkpt lat="44.65359" lon="3.45893">
        <ele>1091.43</ele>
        <time>2024-11-05T10:21:26.303Z</time>
      </trkpt>
      <trkpt lat="44.65361" lon="3.45888">
        <ele>1091.95</ele>
        <time>2024-11-05T10:21:30.018Z</time>
      </trkpt>
      <trkpt lat="44.65363" lon="3.45884">
        <ele>1092.54</ele>
        <time>2024-11-05T10:21:33.734Z</time>
      </trkpt>
      <trkpt lat="44.65366" lon="3.45878">
        <ele>1093.16</ele>
        <time>2024-11-05T10:21:37.451Z</time>
      </trkpt>
      <trkpt lat="44.65372" lon="3.45867">
        <ele>1093.83</ele>
        <time>2024-11-05T10:21:41.169Z</time>
      </trkpt>
      <trkpt lat="44.65385" lon="3.45842">
        <ele>1094.56</ele>
        <time>2024-11-05T10:21:44.891Z</time>
      </trkpt>
      <trkpt lat="44.65387" lon="3.45837">
        <ele>1095.29</ele>
        <time>2024-11-05T10:21:48.613Z</time>
      </trkpt>
      <trkpt lat="44.65395" lon="3.45817">
        <ele>1096.07</ele>
        <time>2024-11-05T10:21:52.338Z</time>
      </trkpt>
      <trkpt lat="44.65397" lon="3.45809">
        <ele>1096.9</ele>
        <time>2024-11-05T10:21:56.064Z</time>
      </trkpt>
      <trkpt lat="44.654" lon="3.45797">
        <ele>1097.76</ele>
        <time>2024-11-05T10:21:59.791Z</time>
      </trkpt>
      <trkpt lat="44.65406" lon="3.45773">
        <ele>1098.71</ele>
        <time>2024-11-05T10:22:03.521Z</time>
      </trkpt>
      <trkpt lat="44.65411" lon="3.45755">
        <ele>1099.71</ele>
        <time>2024-11-05T10:22:07.253Z</time>
      </trkpt>
      <trkpt lat="44.65414" lon="3.45743">
        <ele>1100.68</ele>
        <time>2024-11-05T10:22:10.987Z</time>
      </trkpt>
      <trkpt lat="44.65418" lon="3.45726">
        <ele>1101.72</ele>
        <time>2024-11-05T10:22:14.723Z</time>
      </trkpt>
      <trkpt lat="44.65421" lon="3.45714">
        <ele>1102.74</ele>
        <time>2024-11-05T10:22:18.460Z</time>
      </trkpt>
      <trkpt lat="44.65423" lon="3.45707">
        <ele>1103.75</ele>
        <time>2024-11-05T10:22:22.198Z</time>
      </trkpt>
      <trkpt lat="44.65435" lon="3.45679">
        <ele>1104.8</ele>
        <time>2024-11-05T10:22:25.940Z</time>
      </trkpt>
      <trkpt lat="44.65443" lon="3.45667">
        <ele>1105.83</ele>
        <time>2024-11-05T10:22:29.684Z</time>
      </trkpt>
      <trkpt lat="44.65448" lon="3.4566">
        <ele>1106.86</ele>
        <time>2024-11-05T10:22:33.429Z</time>
      </trkpt>
      <trkpt lat="44.6545" lon="3.45658">
        <ele>1107.9</ele>
        <time>2024-11-05T10:22:37.174Z</time>
      </trkpt>
      <trkpt lat="44.65481" lon="3.45623">
        <ele>1109.05</ele>
        <time>2024-11-05T10:22:40.926Z</time>
      </trkpt>
      <trkpt lat="44.65496" lon="3.45608">
        <ele>1110.13</ele>
        <time>2024-11-05T10:22:44.681Z</time>
      </trkpt>
      <trkpt lat="44.65506" lon="3.45596">
        <ele>1111.19</ele>
        <time>2024-11-05T10:22:48.438Z</time>
      </trkpt>
      <trkpt lat="44.65513" lon="3.45589">
        <ele>1112.24</ele>
        <time>2024-11-05T10:22:52.196Z</time>
      </trkpt>
      <trkpt lat="44.65531" lon="3.45569">
        <ele>1113.27</ele>
        <time>2024-11-05T10:22:55.958Z</time>
      </trkpt>
      <trkpt lat="44.65548" lon="3.4555">
        <ele>1114.29</ele>
        <time>2024-11-05T10:22:59.723Z</time>
      </trkpt>
      <trkpt lat="44.65559" lon="3.45538">
        <ele>1115.27</ele>
        <time>2024-11-05T10:23:03.490Z</time>
      </trkpt>
      <trkpt lat="44.65573" lon="3.45523">
        <ele>1116.24</ele>
        <time>2024-11-05T10:23:07.260Z</time>
      </trkpt>
      <trkpt lat="44.6558" lon="3.45515">
        <ele>1117.18</ele>
        <time>2024-11-05T10:23:11.032Z</time>
      </trkpt>
      <trkpt lat="44.65582" lon="3.45513">
        <ele>1118.13</ele>
        <time>2024-11-05T10:23:14.804Z</time>
      </trkpt>
      <trkpt lat="44.65588" lon="3.45508">
        <ele>1119.04</ele>
        <time>2024-11-05T10:23:18.577Z</time>
      </trkpt>
      <trkpt lat="44.65602" lon="3.45493">
        <ele>1119.94</ele>
        <time>2024-11-05T10:23:22.353Z</time>
      </trkpt>
      <trkpt lat="44.6561" lon="3.45486">
        <ele>1120.84</ele>
        <time>2024-11-05T10:23:26.131Z</time>
      </trkpt>
      <trkpt lat="44.65635" lon="3.45461">
        <ele>1121.78</ele>
        <time>2024-11-05T10:23:29.913Z</time>
      </trkpt>
      <trkpt lat="44.65635" lon="3.45461">
        <ele>1122.66</ele>
        <time>2024-11-05T10:23:33.696Z</time>
      </trkpt>
      <trkpt lat="44.65653" lon="3.45442">
        <ele>1123.55</ele>
        <time>2024-11-05T10:23:37.482Z</time>
      </trkpt>
      <trkpt lat="44.65674" lon="3.45419">
        <ele>1124.43</ele>
        <time>2024-11-05T10:23:41.272Z</time>
      </trkpt>
      <trkpt lat="44.65692" lon="3.454">
        <ele>1125.33</ele>
        <time>2024-11-05T10:23:45.066Z</time>
      </trkpt>
      <trkpt lat="44.65703" lon="3.45388">
        <ele>1126.15</ele>
        <time>2024-11-05T10:23:48.862Z</time>
      </trkpt>
      <trkpt lat="44.6572" lon="3.45369">
        <ele>1126.93</ele>
        <time>2024-11-05T10:23:52.662Z</time>
      </trkpt>
      <trkpt lat="44.65734" lon="3.45354">
        <ele>1127.7</ele>
        <time>2024-11-05T10:23:56.465Z</time>
      </trkpt>
      <trkpt lat="44.65745" lon="3.45343">
        <ele>1128.43</ele>
        <time>2024-11-05T10:24:00.270Z</time>
      </trkpt>
      <trkpt lat="44.65749" lon="3.45338">
        <ele>1129.12</ele>
        <time>2024-11-05T10:24:04.076Z</time>
      </trkpt>
      <trkpt lat="44.65779" lon="3.45302">
        <ele>1129.89</ele>
        <time>2024-11-05T10:24:07.888Z</time>
      </trkpt>
      <trkpt lat="44.65786" lon="3.45294">
        <ele>1130.55</ele>
        <time>2024-11-05T10:24:11.701Z</time>
      </trkpt>
      <trkpt lat="44.6581" lon="3.45266">
        <ele>1131.15</ele>
        <time>2024-11-05T10:24:15.519Z</time>
      </trkpt>
      <trkpt lat="44.6583" lon="3.45242">
        <ele>1131.75</ele>
        <time>2024-11-05T10:24:19.341Z</time>
      </trkpt>
      <trkpt lat="44.6584" lon="3.4523">
        <ele>1132.31</ele>
        <time>2024-11-05T10:24:23.166Z</time>
      </trkpt>
      <trkpt lat="44.65846" lon="3.45223">
        <ele>1132.84</ele>
        <time>2024-11-05T10:24:26.992Z</time>
      </trkpt>
      <trkpt lat="44.65851" lon="3.45219">
        <ele>1133.34</ele>
        <time>2024-11-05T10:24:30.819Z</time>
      </trkpt>
      <trkpt lat="44.65859" lon="3.45213">
        <ele>1133.83</ele>
        <time>2024-11-05T10:24:34.647Z</time>
      </trkpt>
      <trkpt lat="44.65862" lon="3.4521">
        <ele>1134.27</ele>
        <time>2024-11-05T10:24:38.476Z</time>
      </trkpt>
      <trkpt lat="44.65863" lon="3.4521">
        <ele>1134.67</ele>
        <time>2024-11-05T10:24:42.305Z</time>
      </trkpt>
      <trkpt lat="44.65871" lon="3.45205">
        <ele>1135.06</ele>
        <time>2024-11-05T10:24:46.135Z</time>
      </trkpt>
      <trkpt lat="44.65879" lon="3.45201">
        <ele>1135.4</ele>
        <time>2024-11-05T10:24:49.967Z</time>
      </trkpt>
      <trkpt lat="44.65883" lon="3.45199">
        <ele>1135.72</ele>
        <time>2024-11-05T10:24:53.799Z</time>
      </trkpt>
      <trkpt lat="44.65888" lon="3.45196">
        <ele>1136</ele>
        <time>2024-11-05T10:24:57.632Z</time>
      </trkpt>
      <trkpt lat="44.65892" lon="3.45194">
        <ele>1136.26</ele>
        <time>2024-11-05T10:25:01.466Z</time>
      </trkpt>
      <trkpt lat="44.659" lon="3.4519">
        <ele>1136.48</ele>
        <time>2024-11-05T10:25:05.301Z</time>
      </trkpt>
      <trkpt lat="44.65908" lon="3.45185">
        <ele>1136.66</ele>
        <time>2024-11-05T10:25:09.138Z</time>
      </trkpt>
      <trkpt lat="44.65942" lon="3.45167">
        <ele>1136.81</ele>
        <time>2024-11-05T10:25:12.980Z</time>
      </trkpt>
      <trkpt lat="44.65962" lon="3.45156">
        <ele>1136.96</ele>
        <time>2024-11-05T10:25:16.826Z</time>
      </trkpt>
      <trkpt lat="44.65996" lon="3.45138">
        <ele>1137.13</ele>
        <time>2024-11-05T10:25:20.678Z</time>
      </trkpt>
      <trkpt lat="44.66008" lon="3.45131">
        <ele>1137.23</ele>
        <time>2024-11-05T10:25:24.532Z</time>
      </trkpt>
      <trkpt lat="44.66021" lon="3.45125">
        <ele>1137.29</ele>
        <time>2024-11-05T10:25:28.388Z</time>
      </trkpt>
      <trkpt lat="44.66034" lon="3.45118">
        <ele>1137.33</ele>
        <time>2024-11-05T10:25:32.246Z</time>
      </trkpt>
      <trkpt lat="44.66042" lon="3.45113">
        <ele>1137.35</ele>
        <time>2024-11-05T10:25:36.106Z</time>
      </trkpt>
      <trkpt lat="44.66059" lon="3.45104">
        <ele>1137.34</ele>
        <time>2024-11-05T10:25:39.968Z</time>
      </trkpt>
      <trkpt lat="44.66061" lon="3.45103">
        <ele>1137.31</ele>
        <time>2024-11-05T10:25:43.831Z</time>
      </trkpt>
      <trkpt lat="44.66073" lon="3.45096">
        <ele>1137.24</ele>
        <time>2024-11-05T10:25:47.696Z</time>
      </trkpt>
      <trkpt lat="44.66088" lon="3.45088">
        <ele>1137.17</ele>
        <time>2024-11-05T10:25:51.564Z</time>
      </trkpt>
      <trkpt lat="44.66114" lon="3.45073">
        <ele>1137.08</ele>
        <time>2024-11-05T10:25:55.436Z</time>
      </trkpt>
      <trkpt lat="44.66135" lon="3.45062">
        <ele>1136.96</ele>
        <time>2024-11-05T10:25:59.312Z</time>
      </trkpt>
      <trkpt lat="44.66159" lon="3.45049">
        <ele>1136.85</ele>
        <time>2024-11-05T10:26:03.192Z</time>
      </trkpt>
      <trkpt lat="44.66168" lon="3.45044">
        <ele>1136.7</ele>
        <time>2024-11-05T10:26:07.073Z</time>
      </trkpt>
      <trkpt lat="44.66188" lon="3.45033">
        <ele>1136.54</ele>
        <time>2024-11-05T10:26:10.958Z</time>
      </trkpt>
      <trkpt lat="44.66196" lon="3.45028">
        <ele>1136.34</ele>
        <time>2024-11-05T10:26:14.844Z</time>
      </trkpt>
      <trkpt lat="44.662" lon="3.45026">
        <ele>1136.11</ele>
        <time>2024-11-05T10:26:18.731Z</time>
      </trkpt>
      <trkpt lat="44.66208" lon="3.45022">
        <ele>1135.85</ele>
        <time>2024-11-05T10:26:22.619Z</time>
      </trkpt>
      <trkpt lat="44.66229" lon="3.4501">
        <ele>1135.57</ele>
        <time>2024-11-05T10:26:26.511Z</time>
      </trkpt>
      <trkpt lat="44.66231" lon="3.45009">
        <ele>1135.26</ele>
        <time>2024-11-05T10:26:30.403Z</time>
      </trkpt>
      <trkpt lat="44.66248" lon="3.44999">
        <ele>1134.94</ele>
        <time>2024-11-05T10:26:34.298Z</time>
      </trkpt>
      <trkpt lat="44.6625" lon="3.44998">
        <ele>1134.59</ele>
        <time>2024-11-05T10:26:38.193Z</time>
      </trkpt>
      <trkpt lat="44.66248" lon="3.44983">
        <ele>1134.22</ele>
        <time>2024-11-05T10:26:42.090Z</time>
      </trkpt>
      <trkpt lat="44.66247" lon="3.44975">
        <ele>1133.82</ele>
        <time>2024-11-05T10:26:45.988Z</time>
      </trkpt>
      <trkpt lat="44.66248" lon="3.4497">
        <ele>1133.41</ele>
        <time>2024-11-05T10:26:49.887Z</time>
      </trkpt>
      <trkpt lat="44.6625" lon="3.44958">
        <ele>1132.96</ele>
        <time>2024-11-05T10:26:53.787Z</time>
      </trkpt>
      <trkpt lat="44.66253" lon="3.44942">
        <ele>1132.49</ele>
        <time>2024-11-05T10:26:57.689Z</time>
      </trkpt>
      <trkpt lat="44.66253" lon="3.44934">
        <ele>1132.01</ele>
        <time>2024-11-05T10:27:01.592Z</time>
      </trkpt>
      <trkpt lat="44.66254" lon="3.44914">
        <ele>1131.51</ele>
        <time>2024-11-05T10:27:05.497Z</time>
      </trkpt>
      <trkpt lat="44.66253" lon="3.44908">
        <ele>1130.99</ele>
        <time>2024-11-05T10:27:09.403Z</time>
      </trkpt>
      <trkpt lat="44.66252" lon="3.44896">
        <ele>1130.44</ele>
        <time>2024-11-05T10:27:13.310Z</time>
      </trkpt>
      <trkpt lat="44.66249" lon="3.44871">
        <ele>1129.87</ele>
        <time>2024-11-05T10:27:17.220Z</time>
      </trkpt>
      <trkpt lat="44.66247" lon="3.44856">
        <ele>1129.3</ele>
        <time>2024-11-05T10:27:21.132Z</time>
      </trkpt>
      <trkpt lat="44.66242" lon="3.44841">
        <ele>1128.7</ele>
        <time>2024-11-05T10:27:25.046Z</time>
      </trkpt>
      <trkpt lat="44.6624" lon="3.44834">
        <ele>1128.1</ele>
        <time>2024-11-05T10:27:28.961Z</time>
      </trkpt>
      <trkpt lat="44.66233" lon="3.44819">
        <ele>1127.45</ele>
        <time>2024-11-05T10:27:32.878Z</time>
      </trkpt>
      <trkpt lat="44.66226" lon="3.44811">
        <ele>1126.8</ele>
        <time>2024-11-05T10:27:36.796Z</time>
      </trkpt>
      <trkpt lat="44.66212" lon="3.44796">
        <ele>1126.1</ele>
        <time>2024-11-05T10:27:40.717Z</time>
      </trkpt>
      <trkpt lat="44.6621" lon="3.44793">
        <ele>1125.46</ele>
        <time>2024-11-05T10:27:44.638Z</time>
      </trkpt>
      <trkpt lat="44.66206" lon="3.44787">
        <ele>1124.8</ele>
        <time>2024-11-05T10:27:48.560Z</time>
      </trkpt>
      <trkpt lat="44.662" lon="3.44776">
        <ele>1124.13</ele>
        <time>2024-11-05T10:27:52.484Z</time>
      </trkpt>
      <trkpt lat="44.66198" lon="3.44765">
        <ele>1123.48</ele>
        <time>2024-11-05T10:27:56.409Z</time>
      </trkpt>
      <trkpt lat="44.66197" lon="3.44759">
        <ele>1122.83</ele>
        <time>2024-11-05T10:28:00.335Z</time>
      </trkpt>
      <trkpt lat="44.66194" lon="3.44746">
        <ele>1122.18</ele>
        <time>2024-11-05T10:28:04.263Z</time>
      </trkpt>
      <trkpt lat="44.66194" lon="3.44734">
        <ele>1121.54</ele>
        <time>2024-11-05T10:28:08.192Z</time>
      </trkpt>
      <trkpt lat="44.66194" lon="3.44722">
        <ele>1120.9</ele>
        <time>2024-11-05T10:28:12.122Z</time>
      </trkpt>
      <trkpt lat="44.66194" lon="3.44722">
        <ele>1120.26</ele>
        <time>2024-11-05T10:28:16.052Z</time>
      </trkpt>
      <trkpt lat="44.66192" lon="3.44703">
        <ele>1119.6</ele>
        <time>2024-11-05T10:28:19.984Z</time>
      </trkpt>
      <trkpt lat="44.6619" lon="3.44697">
        <ele>1118.96</ele>
        <time>2024-11-05T10:28:23.917Z</time>
      </trkpt>
      <trkpt lat="44.66187" lon="3.44685">
        <ele>1118.32</ele>
        <time>2024-11-05T10:28:27.852Z</time>
      </trkpt>
      <trkpt lat="44.66183" lon="3.44667">
        <ele>1117.67</ele>
        <time>2024-11-05T10:28:31.789Z</time>
      </trkpt>
      <trkpt lat="44.66182" lon="3.44665">
        <ele>1117.06</ele>
        <time>2024-11-05T10:28:35.726Z</time>
      </trkpt>
      <trkpt lat="44.66178" lon="3.44657">
        <ele>1116.44</ele>
        <time>2024-11-05T10:28:39.664Z</time>
      </trkpt>
      <trkpt lat="44.66173" lon="3.44647">
        <ele>1115.84</ele>
        <time>2024-11-05T10:28:43.604Z</time>
      </trkpt>
      <trkpt lat="44.66163" lon="3.44626">
        <ele>1115.23</ele>
        <time>2024-11-05T10:28:47.547Z</time>
      </trkpt>
      <trkpt lat="44.66147" lon="3.44595">
        <ele>1114.61</ele>
        <time>2024-11-05T10:28:51.494Z</time>
      </trkpt>
      <trkpt lat="44.66144" lon="3.4459">
        <ele>1114.05</ele>
        <time>2024-11-05T10:28:55.442Z</time>
      </trkpt>
      <trkpt lat="44.66138" lon="3.44581">
        <ele>1113.5</ele>
        <time>2024-11-05T10:28:59.391Z</time>
      </trkpt>
      <trkpt lat="44.66132" lon="3.44572">
        <ele>1112.96</ele>
        <time>2024-11-05T10:29:03.341Z</time>
      </trkpt>
      <trkpt lat="44.66126" lon="3.44564">
        <ele>1112.44</ele>
        <time>2024-11-05T10:29:07.293Z</time>
      </trkpt>
      <trkpt lat="44.66121" lon="3.44561">
        <ele>1111.94</ele>
        <time>2024-11-05T10:29:11.246Z</time>
      </trkpt>
      <trkpt lat="44.66105" lon="3.44551">
        <ele>1111.45</ele>
        <time>2024-11-05T10:29:15.201Z</time>
      </trkpt>
      <trkpt lat="44.66099" lon="3.44547">
        <ele>1110.99</ele>
        <time>2024-11-05T10:29:19.157Z</time>
      </trkpt>
      <trkpt lat="44.66096" lon="3.44547">
        <ele>1110.55</ele>
        <time>2024-11-05T10:29:23.114Z</time>
      </trkpt>
      <trkpt lat="44.66074" lon="3.44547">
        <ele>1110.1</ele>
        <time>2024-11-05T10:29:27.074Z</time>
      </trkpt>
      <trkpt lat="44.66065" lon="3.44547">
        <ele>1109.69</ele>
        <time>2024-11-05T10:29:31.036Z</time>
      </trkpt>
      <trkpt lat="44.66065" lon="3.44547">
        <ele>1109.3</ele>
        <time>2024-11-05T10:29:34.998Z</time>
      </trkpt>
      <trkpt lat="44.66032" lon="3.44545">
        <ele>1108.92</ele>
        <time>2024-11-05T10:29:38.965Z</time>
      </trkpt>
      <trkpt lat="44.6603" lon="3.44543">
        <ele>1108.56</ele>
        <time>2024-11-05T10:29:42.933Z</time>
      </trkpt>
      <trkpt lat="44.6601" lon="3.44527">
        <ele>1108.21</ele>
        <time>2024-11-05T10:29:46.904Z</time>
      </trkpt>
      <trkpt lat="44.65999" lon="3.44508">
        <ele>1107.87</ele>
        <time>2024-11-05T10:29:50.878Z</time>
      </trkpt>
      <trkpt lat="44.65984" lon="3.44484">
        <ele>1107.54</ele>
        <time>2024-11-05T10:29:54.856Z</time>
      </trkpt>
      <trkpt lat="44.65979" lon="3.44474">
        <ele>1107.24</ele>
        <time>2024-11-05T10:29:58.835Z</time>
      </trkpt>
      <trkpt lat="44.65969" lon="3.44458">
        <ele>1106.95</ele>
        <time>2024-11-05T10:30:02.817Z</time>
      </trkpt>
      <trkpt lat="44.65934" lon="3.44387">
        <ele>1106.65</ele>
        <time>2024-11-05T10:30:06.808Z</time>
      </trkpt>
      <trkpt lat="44.65926" lon="3.44372">
        <ele>1106.38</ele>
        <time>2024-11-05T10:30:10.802Z</time>
      </trkpt>
      <trkpt lat="44.65924" lon="3.44367">
        <ele>1106.14</ele>
        <time>2024-11-05T10:30:14.796Z</time>
      </trkpt>
      <trkpt lat="44.65917" lon="3.44337">
        <ele>1105.89</ele>
        <time>2024-11-05T10:30:18.794Z</time>
      </trkpt>
      <trkpt lat="44.65911" lon="3.44313">
        <ele>1105.67</ele>
        <time>2024-11-05T10:30:22.795Z</time>
      </trkpt>
      <trkpt lat="44.65909" lon="3.44304">
        <ele>1105.48</ele>
        <time>2024-11-05T10:30:26.797Z</time>
      </trkpt>
      <trkpt lat="44.65909" lon="3.44301">
        <ele>1105.31</ele>
        <time>2024-11-05T10:30:30.799Z</time>
      </trkpt>
      <trkpt lat="44.65908" lon="3.44288">
        <ele>1105.15</ele>
        <time>2024-11-05T10:30:34.803Z</time>
      </trkpt>
      <trkpt lat="44.65906" lon="3.44276">
        <ele>1105.02</ele>
        <time>2024-11-05T10:30:38.808Z</time>
      </trkpt>
      <trkpt lat="44.65905" lon="3.44257">
        <ele>1104.87</ele>
        <time>2024-11-05T10:30:42.815Z</time>
      </trkpt>
      <trkpt lat="44.65903" lon="3.4424">
        <ele>1104.75</ele>
        <time>2024-11-05T10:30:46.824Z</time>
      </trkpt>
      <trkpt lat="44.65896" lon="3.44215">
        <ele>1104.63</ele>
        <time>2024-11-05T10:30:50.836Z</time>
      </trkpt>
      <trkpt lat="44.65891" lon="3.44196">
        <ele>1104.52</ele>
        <time>2024-11-05T10:30:54.851Z</time>
      </trkpt>
      <trkpt lat="44.65886" lon="3.44187">
        <ele>1104.41</ele>
        <time>2024-11-05T10:30:58.867Z</time>
      </trkpt>
      <trkpt lat="44.65878" lon="3.44171">
        <ele>1104.29</ele>
        <time>2024-11-05T10:31:02.885Z</time>
      </trkpt>
      <trkpt lat="44.65868" lon="3.44151">
        <ele>1104.21</ele>
        <time>2024-11-05T10:31:06.906Z</time>
      </trkpt>
      <trkpt lat="44.65868" lon="3.44151">
        <ele>1104.13</ele>
        <time>2024-11-05T10:31:10.927Z</time>
      </trkpt>
      <trkpt lat="44.65861" lon="3.44143">
        <ele>1104.07</ele>
        <time>2024-11-05T10:31:14.949Z</time>
      </trkpt>
      <trkpt lat="44.65854" lon="3.44135">
        <ele>1104.02</ele>
        <time>2024-11-05T10:31:18.973Z</time>
      </trkpt>
      <trkpt lat="44.65846" lon="3.44125">
        <ele>1103.99</ele>
        <time>2024-11-05T10:31:22.998Z</time>
      </trkpt>
      <trkpt lat="44.65835" lon="3.4412">
        <ele>1103.94</ele>
        <time>2024-11-05T10:31:27.025Z</time>
      </trkpt>
      <trkpt lat="44.65818" lon="3.44112">
        <ele>1103.87</ele>
        <time>2024-11-05T10:31:31.055Z</time>
      </trkpt>
      <trkpt lat="44.65816" lon="3.44111">
        <ele>1103.79</ele>
        <time>2024-11-05T10:31:35.086Z</time>
      </trkpt>
      <trkpt lat="44.65805" lon="3.4411">
        <ele>1103.7</ele>
        <time>2024-11-05T10:31:39.118Z</time>
      </trkpt>
      <trkpt lat="44.65782" lon="3.44108">
        <ele>1103.57</ele>
        <time>2024-11-05T10:31:43.154Z</time>
      </trkpt>
      <trkpt lat="44.6576" lon="3.44106">
        <ele>1103.46</ele>
        <time>2024-11-05T10:31:47.193Z</time>
      </trkpt>
      <trkpt lat="44.65756" lon="3.44106">
        <ele>1103.36</ele>
        <time>2024-11-05T10:31:51.233Z</time>
      </trkpt>
      <trkpt lat="44.65725" lon="3.44106">
        <ele>1103.26</ele>
        <time>2024-11-05T10:31:55.278Z</time>
      </trkpt>
      <trkpt lat="44.65712" lon="3.44113">
        <ele>1103.11</ele>
        <time>2024-11-05T10:31:59.325Z</time>
      </trkpt>
      <trkpt lat="44.65687" lon="3.44126">
        <ele>1102.98</ele>
        <time>2024-11-05T10:32:03.377Z</time>
      </trkpt>
      <trkpt lat="44.65684" lon="3.44128">
        <ele>1102.83</ele>
        <time>2024-11-05T10:32:07.429Z</time>
      </trkpt>
      <trkpt lat="44.65678" lon="3.4413">
        <ele>1102.68</ele>
        <time>2024-11-05T10:32:11.482Z</time>
      </trkpt>
      <trkpt lat="44.65634" lon="3.44145">
        <ele>1102.52</ele>
        <time>2024-11-05T10:32:15.542Z</time>
      </trkpt>
      <trkpt lat="44.65617" lon="3.44144">
        <ele>1102.38</ele>
        <time>2024-11-05T10:32:19.605Z</time>
      </trkpt>
      <trkpt lat="44.65608" lon="3.44144">
        <ele>1102.19</ele>
        <time>2024-11-05T10:32:23.670Z</time>
      </trkpt>
      <trkpt lat="44.65599" lon="3.44142">
        <ele>1102</ele>
        <time>2024-11-05T10:32:27.736Z</time>
      </trkpt>
      <trkpt lat="44.65569" lon="3.44134">
        <ele>1101.76</ele>
        <time>2024-11-05T10:32:31.807Z</time>
      </trkpt>
      <trkpt lat="44.6556" lon="3.44131">
        <ele>1101.51</ele>
        <time>2024-11-05T10:32:35.879Z</time>
      </trkpt>
      <trkpt lat="44.65548" lon="3.44128">
        <ele>1101.25</ele>
        <time>2024-11-05T10:32:39.953Z</time>
      </trkpt>
      <trkpt lat="44.65547" lon="3.44128">
        <ele>1100.97</ele>
        <time>2024-11-05T10:32:44.027Z</time>
      </trkpt>
      <trkpt lat="44.65516" lon="3.44122">
        <ele>1100.66</ele>
        <time>2024-11-05T10:32:48.106Z</time>
      </trkpt>
      <trkpt lat="44.65498" lon="3.44119">
        <ele>1100.32</ele>
        <time>2024-11-05T10:32:52.188Z</time>
      </trkpt>
      <trkpt lat="44.65478" lon="3.44115">
        <ele>1099.94</ele>
        <time>2024-11-05T10:32:56.274Z</time>
      </trkpt>
      <trkpt lat="44.65438" lon="3.44117">
        <ele>1099.66</ele>
        <time>2024-11-05T10:33:00.366Z</time>
      </trkpt>
      <trkpt lat="44.65436" lon="3.44118">
        <ele>1099.28</ele>
        <time>2024-11-05T10:33:04.458Z</time>
      </trkpt>
      <trkpt lat="44.65427" lon="3.44121">
        <ele>1098.88</ele>
        <time>2024-11-05T10:33:08.552Z</time>
      </trkpt>
      <trkpt lat="44.65423" lon="3.44122">
        <ele>1098.45</ele>
        <time>2024-11-05T10:33:12.646Z</time>
      </trkpt>
      <trkpt lat="44.65414" lon="3.44125">
        <ele>1097.98</ele>
        <time>2024-11-05T10:33:16.742Z</time>
      </trkpt>
      <trkpt lat="44.65401" lon="3.44129">
        <ele>1097.48</ele>
        <time>2024-11-05T10:33:20.840Z</time>
      </trkpt>
      <trkpt lat="44.65357" lon="3.44143">
        <ele>1096.87</ele>
        <time>2024-11-05T10:33:24.945Z</time>
      </trkpt>
      <trkpt lat="44.65353" lon="3.44144">
        <ele>1096.33</ele>
        <time>2024-11-05T10:33:29.051Z</time>
      </trkpt>
      <trkpt lat="44.65349" lon="3.44145">
        <ele>1095.78</ele>
        <time>2024-11-05T10:33:33.158Z</time>
      </trkpt>
      <trkpt lat="44.65331" lon="3.44149">
        <ele>1095.16</ele>
        <time>2024-11-05T10:33:37.268Z</time>
      </trkpt>
      <trkpt lat="44.65325" lon="3.4415">
        <ele>1094.55</ele>
        <time>2024-11-05T10:33:41.378Z</time>
      </trkpt>
      <trkpt lat="44.65318" lon="3.44146">
        <ele>1093.94</ele>
        <time>2024-11-05T10:33:45.490Z</time>
      </trkpt>
      <trkpt lat="44.65306" lon="3.44138">
        <ele>1093.32</ele>
        <time>2024-11-05T10:33:49.604Z</time>
      </trkpt>
      <trkpt lat="44.65299" lon="3.44133">
        <ele>1092.66</ele>
        <time>2024-11-05T10:33:53.719Z</time>
      </trkpt>
      <trkpt lat="44.65278" lon="3.44108">
        <ele>1092.02</ele>
        <time>2024-11-05T10:33:57.839Z</time>
      </trkpt>
      <trkpt lat="44.65273" lon="3.44102">
        <ele>1091.35</ele>
        <time>2024-11-05T10:34:01.960Z</time>
      </trkpt>
      <trkpt lat="44.65247" lon="3.44082">
        <ele>1090.58</ele>
        <time>2024-11-05T10:34:06.085Z</time>
      </trkpt>
      <trkpt lat="44.65235" lon="3.44073">
        <ele>1089.84</ele>
        <time>2024-11-05T10:34:10.212Z</time>
      </trkpt>
      <trkpt lat="44.65221" lon="3.44059">
        <ele>1089.11</ele>
        <time>2024-11-05T10:34:14.342Z</time>
      </trkpt>
      <trkpt lat="44.65203" lon="3.44041">
        <ele>1088.35</ele>
        <time>2024-11-05T10:34:18.476Z</time>
      </trkpt>
      <trkpt lat="44.65201" lon="3.44039">
        <ele>1087.64</ele>
        <time>2024-11-05T10:34:22.610Z</time>
      </trkpt>
      <trkpt lat="44.65191" lon="3.44022">
        <ele>1086.89</ele>
        <time>2024-11-05T10:34:26.747Z</time>
      </trkpt>
      <trkpt lat="44.65185" lon="3.44012">
        <ele>1086.16</ele>
        <time>2024-11-05T10:34:30.885Z</time>
      </trkpt>
      <trkpt lat="44.65171" lon="3.43989">
        <ele>1085.4</ele>
        <time>2024-11-05T10:34:35.027Z</time>
      </trkpt>
      <trkpt lat="44.65169" lon="3.43986">
        <ele>1084.69</ele>
        <time>2024-11-05T10:34:39.169Z</time>
      </trkpt>
      <trkpt lat="44.65161" lon="3.43979">
        <ele>1084</ele>
        <time>2024-11-05T10:34:43.313Z</time>
      </trkpt>
      <trkpt lat="44.65151" lon="3.43979">
        <ele>1083.31</ele>
        <time>2024-11-05T10:34:47.458Z</time>
      </trkpt>
      <trkpt lat="44.65138" lon="3.43985">
        <ele>1082.6</ele>
        <time>2024-11-05T10:34:51.605Z</time>
      </trkpt>
      <trkpt lat="44.65108" lon="3.43999">
        <ele>1081.86</ele>
        <time>2024-11-05T10:34:55.757Z</time>
      </trkpt>
      <trkpt lat="44.65104" lon="3.44001">
        <ele>1081.2</ele>
        <time>2024-11-05T10:34:59.910Z</time>
      </trkpt>
      <trkpt lat="44.65096" lon="3.44006">
        <ele>1080.54</ele>
        <time>2024-11-05T10:35:04.065Z</time>
      </trkpt>
      <trkpt lat="44.65059" lon="3.44027">
        <ele>1079.83</ele>
        <time>2024-11-05T10:35:08.226Z</time>
      </trkpt>
      <trkpt lat="44.65054" lon="3.4403">
        <ele>1079.22</ele>
        <time>2024-11-05T10:35:12.388Z</time>
      </trkpt>
      <trkpt lat="44.65041" lon="3.44045">
        <ele>1078.62</ele>
        <time>2024-11-05T10:35:16.552Z</time>
      </trkpt>
      <trkpt lat="44.65027" lon="3.44062">
        <ele>1078.03</ele>
        <time>2024-11-05T10:35:20.719Z</time>
      </trkpt>
      <trkpt lat="44.6502" lon="3.4407">
        <ele>1077.45</ele>
        <time>2024-11-05T10:35:24.888Z</time>
      </trkpt>
      <trkpt lat="44.65013" lon="3.44076">
        <ele>1076.91</ele>
        <time>2024-11-05T10:35:29.058Z</time>
      </trkpt>
      <trkpt lat="44.64998" lon="3.44089">
        <ele>1076.36</ele>
        <time>2024-11-05T10:35:33.231Z</time>
      </trkpt>
      <trkpt lat="44.64978" lon="3.44105">
        <ele>1075.83</ele>
        <time>2024-11-05T10:35:37.408Z</time>
      </trkpt>
      <trkpt lat="44.64971" lon="3.44111">
        <ele>1075.34</ele>
        <time>2024-11-05T10:35:41.586Z</time>
      </trkpt>
      <trkpt lat="44.64971" lon="3.44111">
        <ele>1074.92</ele>
        <time>2024-11-05T10:35:45.764Z</time>
      </trkpt>
      <trkpt lat="44.64962" lon="3.44111">
        <ele>1074.49</ele>
        <time>2024-11-05T10:35:49.943Z</time>
      </trkpt>
      <trkpt lat="44.64955" lon="3.44111">
        <ele>1074.1</ele>
        <time>2024-11-05T10:35:54.124Z</time>
      </trkpt>
      <trkpt lat="44.64946" lon="3.441">
        <ele>1073.76</ele>
        <time>2024-11-05T10:35:58.306Z</time>
      </trkpt>
      <trkpt lat="44.64944" lon="3.44096">
        <ele>1073.46</ele>
        <time>2024-11-05T10:36:02.489Z</time>
      </trkpt>
      <trkpt lat="44.6494" lon="3.44085">
        <ele>1073.19</ele>
        <time>2024-11-05T10:36:06.673Z</time>
      </trkpt>
      <trkpt lat="44.64937" lon="3.4408">
        <ele>1072.95</ele>
        <time>2024-11-05T10:36:10.858Z</time>
      </trkpt>
      <trkpt lat="44.64933" lon="3.44069">
        <ele>1072.73</ele>
        <time>2024-11-05T10:36:15.045Z</time>
      </trkpt>
      <trkpt lat="44.64928" lon="3.44058">
        <ele>1072.54</ele>
        <time>2024-11-05T10:36:19.233Z</time>
      </trkpt>
      <trkpt lat="44.64924" lon="3.44047">
        <ele>1072.39</ele>
        <time>2024-11-05T10:36:23.422Z</time>
      </trkpt>
      <trkpt lat="44.64919" lon="3.44037">
        <ele>1072.26</ele>
        <time>2024-11-05T10:36:27.613Z</time>
      </trkpt>
      <trkpt lat="44.64914" lon="3.44026">
        <ele>1072.16</ele>
        <time>2024-11-05T10:36:31.805Z</time>
      </trkpt>
      <trkpt lat="44.64908" lon="3.4401">
        <ele>1072.11</ele>
        <time>2024-11-05T10:36:35.999Z</time>
      </trkpt>
      <trkpt lat="44.64903" lon="3.43999">
        <ele>1072.06</ele>
        <time>2024-11-05T10:36:40.195Z</time>
      </trkpt>
      <trkpt lat="44.64902" lon="3.43997">
        <ele>1072.03</ele>
        <time>2024-11-05T10:36:44.391Z</time>
      </trkpt>
      <trkpt lat="44.64891" lon="3.43985">
        <ele>1072.03</ele>
        <time>2024-11-05T10:36:48.589Z</time>
      </trkpt>
      <trkpt lat="44.6487" lon="3.43973">
        <ele>1072.01</ele>
        <time>2024-11-05T10:36:52.791Z</time>
      </trkpt>
      <trkpt lat="44.64852" lon="3.43963">
        <ele>1072.04</ele>
        <time>2024-11-05T10:36:56.996Z</time>
      </trkpt>
      <trkpt lat="44.64838" lon="3.43945">
        <ele>1072.13</ele>
        <time>2024-11-05T10:37:01.204Z</time>
      </trkpt>
      <trkpt lat="44.64835" lon="3.43942">
        <ele>1072.2</ele>
        <time>2024-11-05T10:37:05.413Z</time>
      </trkpt>
      <trkpt lat="44.64824" lon="3.43922">
        <ele>1072.31</ele>
        <time>2024-11-05T10:37:09.625Z</time>
      </trkpt>
      <trkpt lat="44.64817" lon="3.43907">
        <ele>1072.43</ele>
        <time>2024-11-05T10:37:13.839Z</time>
      </trkpt>
      <trkpt lat="44.64816" lon="3.43906">
        <ele>1072.55</ele>
        <time>2024-11-05T10:37:18.053Z</time>
      </trkpt>
      <trkpt lat="44.64801" lon="3.43871">
        <ele>1072.7</ele>
        <time>2024-11-05T10:37:22.272Z</time>
      </trkpt>
      <trkpt lat="44.64788" lon="3.43838">
        <ele>1072.8</ele>
        <time>2024-11-05T10:37:26.495Z</time>
      </trkpt>
      <trkpt lat="44.64784" lon="3.43828">
        <ele>1072.93</ele>
        <time>2024-11-05T10:37:30.719Z</time>
      </trkpt>
      <trkpt lat="44.64779" lon="3.43817">
        <ele>1073.08</ele>
        <time>2024-11-05T10:37:34.945Z</time>
      </trkpt>
      <trkpt lat="44.64773" lon="3.43801">
        <ele>1073.22</ele>
        <time>2024-11-05T10:37:39.173Z</time>
      </trkpt>
      <trkpt lat="44.64771" lon="3.43797">
        <ele>1073.4</ele>
        <time>2024-11-05T10:37:43.401Z</time>
      </trkpt>
      <trkpt lat="44.64769" lon="3.43789">
        <ele>1073.58</ele>
        <time>2024-11-05T10:37:47.630Z</time>
      </trkpt>
      <trkpt lat="44.64765" lon="3.43772">
        <ele>1073.77</ele>
        <time>2024-11-05T10:37:51.861Z</time>
      </trkpt>
      <trkpt lat="44.64753" lon="3.43724">
        <ele>1073.96</ele>
        <time>2024-11-05T10:37:56.098Z</time>
      </trkpt>
      <trkpt lat="44.64748" lon="3.43701">
        <ele>1074.14</ele>
        <time>2024-11-05T10:38:00.338Z</time>
      </trkpt>
      <trkpt lat="44.64745" lon="3.43689">
        <ele>1074.33</ele>
        <time>2024-11-05T10:38:04.579Z</time>
      </trkpt>
      <trkpt lat="44.64742" lon="3.43678">
        <ele>1074.52</ele>
        <time>2024-11-05T10:38:08.822Z</time>
      </trkpt>
      <trkpt lat="44.64739" lon="3.43666">
        <ele>1074.7</ele>
        <time>2024-11-05T10:38:13.066Z</time>
      </trkpt>
      <trkpt lat="44.64737" lon="3.43655">
        <ele>1074.93</ele>
        <time>2024-11-05T10:38:17.311Z</time>
      </trkpt>
      <trkpt lat="44.64734" lon="3.43644">
        <ele>1075.16</ele>
        <time>2024-11-05T10:38:21.558Z</time>
      </trkpt>
      <trkpt lat="44.64731" lon="3.43638">
        <ele>1075.37</ele>
        <time>2024-11-05T10:38:25.806Z</time>
      </trkpt>
      <trkpt lat="44.64725" lon="3.43629">
        <ele>1075.6</ele>
        <time>2024-11-05T10:38:30.055Z</time>
      </trkpt>
      <trkpt lat="44.64716" lon="3.43615">
        <ele>1075.83</ele>
        <time>2024-11-05T10:38:34.306Z</time>
      </trkpt>
      <trkpt lat="44.64715" lon="3.43613">
        <ele>1076.04</ele>
        <time>2024-11-05T10:38:38.557Z</time>
      </trkpt>
      <trkpt lat="44.64703" lon="3.43599">
        <ele>1076.24</ele>
        <time>2024-11-05T10:38:42.811Z</time>
      </trkpt>
      <trkpt lat="44.64696" lon="3.43591">
        <ele>1076.44</ele>
        <time>2024-11-05T10:38:47.066Z</time>
      </trkpt>
      <trkpt lat="44.64689" lon="3.43583">
        <ele>1076.64</ele>
        <time>2024-11-05T10:38:51.323Z</time>
      </trkpt>
      <trkpt lat="44.64686" lon="3.43579">
        <ele>1076.82</ele>
        <time>2024-11-05T10:38:55.581Z</time>
      </trkpt>
      <trkpt lat="44.64679" lon="3.43571">
        <ele>1077</ele>
        <time>2024-11-05T10:38:59.840Z</time>
      </trkpt>
      <trkpt lat="44.64672" lon="3.43563">
        <ele>1077.16</ele>
        <time>2024-11-05T10:39:04.100Z</time>
      </trkpt>
      <trkpt lat="44.64661" lon="3.43551">
        <ele>1077.34</ele>
        <time>2024-11-05T10:39:08.363Z</time>
      </trkpt>
      <trkpt lat="44.64654" lon="3.43543">
        <ele>1077.48</ele>
        <time>2024-11-05T10:39:12.627Z</time>
      </trkpt>
      <trkpt lat="44.64641" lon="3.43527">
        <ele>1077.62</ele>
        <time>2024-11-05T10:39:16.894Z</time>
      </trkpt>
      <trkpt lat="44.64634" lon="3.43519">
        <ele>1077.72</ele>
        <time>2024-11-05T10:39:21.162Z</time>
      </trkpt>
      <trkpt lat="44.64627" lon="3.43511">
        <ele>1077.8</ele>
        <time>2024-11-05T10:39:25.432Z</time>
      </trkpt>
      <trkpt lat="44.64603" lon="3.43483">
        <ele>1077.88</ele>
        <time>2024-11-05T10:39:29.707Z</time>
      </trkpt>
      <trkpt lat="44.64592" lon="3.43471">
        <ele>1077.92</ele>
        <time>2024-11-05T10:39:33.984Z</time>
      </trkpt>
      <trkpt lat="44.64585" lon="3.43463">
        <ele>1077.94</ele>
        <time>2024-11-05T10:39:38.262Z</time>
      </trkpt>
      <trkpt lat="44.64583" lon="3.4346">
        <ele>1077.92</ele>
        <time>2024-11-05T10:39:42.541Z</time>
      </trkpt>
      <trkpt lat="44.64579" lon="3.43454">
        <ele>1077.89</ele>
        <time>2024-11-05T10:39:46.821Z</time>
      </trkpt>
      <trkpt lat="44.64576" lon="3.43449">
        <ele>1077.83</ele>
        <time>2024-11-05T10:39:51.101Z</time>
      </trkpt>
      <trkpt lat="44.6457" lon="3.4344">
        <ele>1077.75</ele>
        <time>2024-11-05T10:39:55.383Z</time>
      </trkpt>
      <trkpt lat="44.64567" lon="3.43435">
        <ele>1077.62</ele>
        <time>2024-11-05T10:39:59.666Z</time>
      </trkpt>
      <trkpt lat="44.64564" lon="3.43431">
        <ele>1077.47</ele>
        <time>2024-11-05T10:40:03.949Z</time>
      </trkpt>
      <trkpt lat="44.64561" lon="3.43426">
        <ele>1077.29</ele>
        <time>2024-11-05T10:40:08.233Z</time>
      </trkpt>
      <trkpt lat="44.64558" lon="3.43421">
        <ele>1077.08</ele>
        <time>2024-11-05T10:40:12.518Z</time>
      </trkpt>
      <trkpt lat="44.64555" lon="3.43417">
        <ele>1076.84</ele>
        <time>2024-11-05T10:40:16.804Z</time>
      </trkpt>
      <trkpt lat="44.64552" lon="3.43412">
        <ele>1076.57</ele>
        <time>2024-11-05T10:40:21.090Z</time>
      </trkpt>
      <trkpt lat="44.64546" lon="3.43403">
        <ele>1076.25</ele>
        <time>2024-11-05T10:40:25.378Z</time>
      </trkpt>
      <trkpt lat="44.6454" lon="3.43393">
        <ele>1075.9</ele>
        <time>2024-11-05T10:40:29.667Z</time>
      </trkpt>
      <trkpt lat="44.64527" lon="3.43375">
        <ele>1075.5</ele>
        <time>2024-11-05T10:40:33.959Z</time>
      </trkpt>
      <trkpt lat="44.64515" lon="3.43356">
        <ele>1075.06</ele>
        <time>2024-11-05T10:40:38.254Z</time>
      </trkpt>
      <trkpt lat="44.64501" lon="3.43331">
        <ele>1074.59</ele>
        <time>2024-11-05T10:40:42.553Z</time>
      </trkpt>
      <trkpt lat="44.64498" lon="3.43306">
        <ele>1074.21</ele>
        <time>2024-11-05T10:40:46.854Z</time>
      </trkpt>
      <trkpt lat="44.645" lon="3.43295">
        <ele>1073.78</ele>
        <time>2024-11-05T10:40:51.157Z</time>
      </trkpt>
      <trkpt lat="44.64503" lon="3.43277">
        <ele>1073.32</ele>
        <time>2024-11-05T10:40:55.462Z</time>
      </trkpt>
      <trkpt lat="44.64514" lon="3.43256">
        <ele>1072.9</ele>
        <time>2024-11-05T10:40:59.770Z</time>
      </trkpt>
      <trkpt lat="44.64527" lon="3.43233">
        <ele>1072.42</ele>
        <time>2024-11-05T10:41:04.081Z</time>
      </trkpt>
      <trkpt lat="44.64528" lon="3.43231">
        <ele>1071.9</ele>
        <time>2024-11-05T10:41:08.392Z</time>
      </trkpt>
      <trkpt lat="44.64533" lon="3.43215">
        <ele>1071.34</ele>
        <time>2024-11-05T10:41:12.705Z</time>
      </trkpt>
      <trkpt lat="44.64534" lon="3.43201">
        <ele>1070.75</ele>
        <time>2024-11-05T10:41:17.020Z</time>
      </trkpt>
      <trkpt lat="44.64535" lon="3.43174">
        <ele>1070.13</ele>
        <time>2024-11-05T10:41:21.338Z</time>
      </trkpt>
      <trkpt lat="44.64537" lon="3.43164">
        <ele>1069.52</ele>
        <time>2024-11-05T10:41:25.657Z</time>
      </trkpt>
      <trkpt lat="44.64539" lon="3.43152">
        <ele>1068.88</ele>
        <time>2024-11-05T10:41:29.978Z</time>
      </trkpt>
      <trkpt lat="44.64539" lon="3.4315">
        <ele>1068.25</ele>
        <time>2024-11-05T10:41:34.299Z</time>
      </trkpt>
      <trkpt lat="44.64545" lon="3.43135">
        <ele>1067.62</ele>
        <time>2024-11-05T10:41:38.622Z</time>
      </trkpt>
      <trkpt lat="44.64552" lon="3.43115">
        <ele>1066.97</ele>
        <time>2024-11-05T10:41:42.947Z</time>
      </trkpt>
      <trkpt lat="44.64569" lon="3.43083">
        <ele>1066.28</ele>
        <time>2024-11-05T10:41:47.277Z</time>
      </trkpt>
      <trkpt lat="44.64575" lon="3.43072">
        <ele>1065.6</ele>
        <time>2024-11-05T10:41:51.609Z</time>
      </trkpt>
      <trkpt lat="44.64579" lon="3.43055">
        <ele>1064.87</ele>
        <time>2024-11-05T10:41:55.943Z</time>
      </trkpt>
      <trkpt lat="44.64583" lon="3.43034">
        <ele>1064.18</ele>
        <time>2024-11-05T10:42:00.279Z</time>
      </trkpt>
      <trkpt lat="44.64584" lon="3.4303">
        <ele>1063.51</ele>
        <time>2024-11-05T10:42:04.616Z</time>
      </trkpt>
      <trkpt lat="44.64586" lon="3.43018">
        <ele>1062.86</ele>
        <time>2024-11-05T10:42:08.954Z</time>
      </trkpt>
      <trkpt lat="44.64588" lon="3.43006">
        <ele>1062.21</ele>
        <time>2024-11-05T10:42:13.293Z</time>
      </trkpt>
      <trkpt lat="44.64594" lon="3.42969">
        <ele>1061.54</ele>
        <time>2024-11-05T10:42:17.637Z</time>
      </trkpt>
      <trkpt lat="44.64605" lon="3.42908">
        <ele>1060.83</ele>
        <time>2024-11-05T10:42:21.988Z</time>
      </trkpt>
      <trkpt lat="44.64607" lon="3.42896">
        <ele>1060.18</ele>
        <time>2024-11-05T10:42:26.340Z</time>
      </trkpt>
      <trkpt lat="44.64613" lon="3.42859">
        <ele>1059.5</ele>
        <time>2024-11-05T10:42:30.697Z</time>
      </trkpt>
      <trkpt lat="44.64617" lon="3.42841">
        <ele>1058.86</ele>
        <time>2024-11-05T10:42:35.056Z</time>
      </trkpt>
      <trkpt lat="44.64619" lon="3.42829">
        <ele>1058.25</ele>
        <time>2024-11-05T10:42:39.416Z</time>
      </trkpt>
      <trkpt lat="44.64623" lon="3.42805">
        <ele>1057.65</ele>
        <time>2024-11-05T10:42:43.779Z</time>
      </trkpt>
      <trkpt lat="44.64625" lon="3.42793">
        <ele>1057.08</ele>
        <time>2024-11-05T10:42:48.143Z</time>
      </trkpt>
      <trkpt lat="44.64628" lon="3.42775">
        <ele>1056.51</ele>
        <time>2024-11-05T10:42:52.510Z</time>
      </trkpt>
      <trkpt lat="44.6463" lon="3.42763">
        <ele>1055.96</ele>
        <time>2024-11-05T10:42:56.878Z</time>
      </trkpt>
      <trkpt lat="44.64632" lon="3.42751">
        <ele>1055.44</ele>
        <time>2024-11-05T10:43:01.247Z</time>
      </trkpt>
      <trkpt lat="44.64633" lon="3.42746">
        <ele>1054.95</ele>
        <time>2024-11-05T10:43:05.617Z</time>
      </trkpt>
      <trkpt lat="44.64635" lon="3.42739">
        <ele>1054.49</ele>
        <time>2024-11-05T10:43:09.988Z</time>
      </trkpt>
      <trkpt lat="44.64637" lon="3.42727">
        <ele>1054.02</ele>
        <time>2024-11-05T10:43:14.360Z</time>
      </trkpt>
      <trkpt lat="44.6464" lon="3.42715">
        <ele>1053.59</ele>
        <time>2024-11-05T10:43:18.734Z</time>
      </trkpt>
      <trkpt lat="44.64641" lon="3.42712">
        <ele>1053.19</ele>
        <time>2024-11-05T10:43:23.108Z</time>
      </trkpt>
      <trkpt lat="44.64647" lon="3.42701">
        <ele>1052.81</ele>
        <time>2024-11-05T10:43:27.484Z</time>
      </trkpt>
      <trkpt lat="44.64652" lon="3.42692">
        <ele>1052.45</ele>
        <time>2024-11-05T10:43:31.861Z</time>
      </trkpt>
      <trkpt lat="44.64662" lon="3.42674">
        <ele>1052.12</ele>
        <time>2024-11-05T10:43:36.241Z</time>
      </trkpt>
      <trkpt lat="44.64664" lon="3.42671">
        <ele>1051.81</ele>
        <time>2024-11-05T10:43:40.621Z</time>
      </trkpt>
      <trkpt lat="44.64662" lon="3.42645">
        <ele>1051.54</ele>
        <time>2024-11-05T10:43:45.004Z</time>
      </trkpt>
      <trkpt lat="44.64661" lon="3.42628">
        <ele>1051.29</ele>
        <time>2024-11-05T10:43:49.389Z</time>
      </trkpt>
      <trkpt lat="44.64661" lon="3.42624">
        <ele>1051.06</ele>
        <time>2024-11-05T10:43:53.774Z</time>
      </trkpt>
      <trkpt lat="44.64664" lon="3.42604">
        <ele>1050.85</ele>
        <time>2024-11-05T10:43:58.162Z</time>
      </trkpt>
      <trkpt lat="44.64666" lon="3.42595">
        <ele>1050.67</ele>
        <time>2024-11-05T10:44:02.551Z</time>
      </trkpt>
      <trkpt lat="44.64673" lon="3.4257">
        <ele>1050.51</ele>
        <time>2024-11-05T10:44:06.943Z</time>
      </trkpt>
      <trkpt lat="44.64676" lon="3.42558">
        <ele>1050.36</ele>
        <time>2024-11-05T10:44:11.336Z</time>
      </trkpt>
      <trkpt lat="44.6468" lon="3.42541">
        <ele>1050.22</ele>
        <time>2024-11-05T10:44:15.731Z</time>
      </trkpt>
      <trkpt lat="44.64685" lon="3.42523">
        <ele>1050.11</ele>
        <time>2024-11-05T10:44:20.129Z</time>
      </trkpt>
      <trkpt lat="44.64693" lon="3.42494">
        <ele>1050.05</ele>
        <time>2024-11-05T10:44:24.530Z</time>
      </trkpt>
      <trkpt lat="44.64694" lon="3.42489">
        <ele>1049.99</ele>
        <time>2024-11-05T10:44:28.932Z</time>
      </trkpt>
      <trkpt lat="44.64698" lon="3.42463">
        <ele>1049.94</ele>
        <time>2024-11-05T10:44:33.337Z</time>
      </trkpt>
      <trkpt lat="44.64704" lon="3.42433">
        <ele>1049.89</ele>
        <time>2024-11-05T10:44:37.745Z</time>
      </trkpt>
      <trkpt lat="44.64706" lon="3.4242">
        <ele>1049.89</ele>
        <time>2024-11-05T10:44:42.155Z</time>
      </trkpt>
      <trkpt lat="44.6471" lon="3.42396">
        <ele>1049.88</ele>
        <time>2024-11-05T10:44:46.568Z</time>
      </trkpt>
      <trkpt lat="44.64716" lon="3.42359">
        <ele>1049.85</ele>
        <time>2024-11-05T10:44:50.985Z</time>
      </trkpt>
      <trkpt lat="44.64719" lon="3.42341">
        <ele>1049.86</ele>
        <time>2024-11-05T10:44:55.404Z</time>
      </trkpt>
      <trkpt lat="44.64724" lon="3.42314">
        <ele>1049.9</ele>
        <time>2024-11-05T10:44:59.826Z</time>
      </trkpt>
      <trkpt lat="44.64727" lon="3.42291">
        <ele>1049.98</ele>
        <time>2024-11-05T10:45:04.251Z</time>
      </trkpt>
      <trkpt lat="44.6473" lon="3.42266">
        <ele>1050.09</ele>
        <time>2024-11-05T10:45:08.679Z</time>
      </trkpt>
      <trkpt lat="44.64733" lon="3.42235">
        <ele>1050.22</ele>
        <time>2024-11-05T10:45:13.110Z</time>
      </trkpt>
      <trkpt lat="44.64734" lon="3.4223">
        <ele>1050.33</ele>
        <time>2024-11-05T10:45:17.542Z</time>
      </trkpt>
      <trkpt lat="44.64733" lon="3.42204">
        <ele>1050.47</ele>
        <time>2024-11-05T10:45:21.977Z</time>
      </trkpt>
      <trkpt lat="44.64732" lon="3.42179">
        <ele>1050.59</ele>
        <time>2024-11-05T10:45:26.415Z</time>
      </trkpt>
      <trkpt lat="44.64732" lon="3.42177">
        <ele>1050.72</ele>
        <time>2024-11-05T10:45:30.853Z</time>
      </trkpt>
      <trkpt lat="44.6473" lon="3.42167">
        <ele>1050.86</ele>
        <time>2024-11-05T10:45:35.292Z</time>
      </trkpt>
      <trkpt lat="44.64716" lon="3.42093">
        <ele>1051.02</ele>
        <time>2024-11-05T10:45:39.740Z</time>
      </trkpt>
      <trkpt lat="44.64709" lon="3.42057">
        <ele>1051.17</ele>
        <time>2024-11-05T10:45:44.192Z</time>
      </trkpt>
      <trkpt lat="44.64707" lon="3.42047">
        <ele>1051.32</ele>
        <time>2024-11-05T10:45:48.645Z</time>
      </trkpt>
      <trkpt lat="44.64707" lon="3.42032">
        <ele>1051.46</ele>
        <time>2024-11-05T10:45:53.100Z</time>
      </trkpt>
      <trkpt lat="44.64706" lon="3.42001">
        <ele>1051.55</ele>
        <time>2024-11-05T10:45:57.559Z</time>
      </trkpt>
      <trkpt lat="44.64706" lon="3.41995">
        <ele>1051.7</ele>
        <time>2024-11-05T10:46:02.018Z</time>
      </trkpt>
      <trkpt lat="44.64707" lon="3.41988">
        <ele>1051.84</ele>
        <time>2024-11-05T10:46:06.478Z</time>
      </trkpt>
      <trkpt lat="44.64708" lon="3.41975">
        <ele>1051.98</ele>
        <time>2024-11-05T10:46:10.940Z</time>
      </trkpt>
      <trkpt lat="44.6471" lon="3.41951">
        <ele>1052.1</ele>
        <time>2024-11-05T10:46:15.404Z</time>
      </trkpt>
      <trkpt lat="44.6471" lon="3.41947">
        <ele>1052.25</ele>
        <time>2024-11-05T10:46:19.869Z</time>
      </trkpt>
      <trkpt lat="44.64711" lon="3.41947">
        <ele>1052.38</ele>
        <time>2024-11-05T10:46:24.334Z</time>
      </trkpt>
      <trkpt lat="44.64712" lon="3.41939">
        <ele>1052.52</ele>
        <time>2024-11-05T10:46:28.800Z</time>
      </trkpt>
      <trkpt lat="44.64713" lon="3.41927">
        <ele>1052.67</ele>
        <time>2024-11-05T10:46:33.267Z</time>
      </trkpt>
      <trkpt lat="44.64713" lon="3.41922">
        <ele>1052.8</ele>
        <time>2024-11-05T10:46:37.735Z</time>
      </trkpt>
      <trkpt lat="44.64716" lon="3.41909">
        <ele>1052.91</ele>
        <time>2024-11-05T10:46:42.205Z</time>
      </trkpt>
      <trkpt lat="44.64724" lon="3.41879">
        <ele>1053.04</ele>
        <time>2024-11-05T10:46:46.678Z</time>
      </trkpt>
      <trkpt lat="44.64728" lon="3.41861">
        <ele>1053.18</ele>
        <time>2024-11-05T10:46:51.153Z</time>
      </trkpt>
      <trkpt lat="44.64729" lon="3.41858">
        <ele>1053.29</ele>
        <time>2024-11-05T10:46:55.629Z</time>
      </trkpt>
      <trkpt lat="44.64732" lon="3.4185">
        <ele>1053.4</ele>
        <time>2024-11-05T10:47:00.106Z</time>
      </trkpt>
      <trkpt lat="44.64743" lon="3.41822">
        <ele>1053.51</ele>
        <time>2024-11-05T10:47:04.586Z</time>
      </trkpt>
      <trkpt lat="44.64747" lon="3.41811">
        <ele>1053.6</ele>
        <time>2024-11-05T10:47:09.068Z</time>
      </trkpt>
      <trkpt lat="44.64751" lon="3.418">
        <ele>1053.68</ele>
        <time>2024-11-05T10:47:13.551Z</time>
      </trkpt>
      <trkpt lat="44.64759" lon="3.41778">
        <ele>1053.75</ele>
        <time>2024-11-05T10:47:18.037Z</time>
      </trkpt>
      <trkpt lat="44.64764" lon="3.41767">
        <ele>1053.79</ele>
        <time>2024-11-05T10:47:22.525Z</time>
      </trkpt>
      <trkpt lat="44.64768" lon="3.41756">
        <ele>1053.83</ele>
        <time>2024-11-05T10:47:27.014Z</time>
      </trkpt>
      <trkpt lat="44.64769" lon="3.41752">
        <ele>1053.88</ele>
        <time>2024-11-05T10:47:31.503Z</time>
      </trkpt>
      <trkpt lat="44.64769" lon="3.41743">
        <ele>1053.93</ele>
        <time>2024-11-05T10:47:35.993Z</time>
      </trkpt>
      <trkpt lat="44.6477" lon="3.4173">
        <ele>1053.95</ele>
        <time>2024-11-05T10:47:40.485Z</time>
      </trkpt>
      <trkpt lat="44.64765" lon="3.41721">
        <ele>1054</ele>
        <time>2024-11-05T10:47:44.978Z</time>
      </trkpt>
      <trkpt lat="44.64762" lon="3.41716">
        <ele>1054.04</ele>
        <time>2024-11-05T10:47:49.472Z</time>
      </trkpt>
      <trkpt lat="44.64759" lon="3.41711">
        <ele>1054.07</ele>
        <time>2024-11-05T10:47:53.967Z</time>
      </trkpt>
      <trkpt lat="44.6475" lon="3.41698">
        <ele>1054.11</ele>
        <time>2024-11-05T10:47:58.464Z</time>
      </trkpt>
      <trkpt lat="44.64743" lon="3.41689">
        <ele>1054.14</ele>
        <time>2024-11-05T10:48:02.962Z</time>
      </trkpt>
      <trkpt lat="44.64736" lon="3.41679">
        <ele>1054.17</ele>
        <time>2024-11-05T10:48:07.462Z</time>
      </trkpt>
      <trkpt lat="44.6472" lon="3.41649">
        <ele>1054.16</ele>
        <time>2024-11-05T10:48:11.966Z</time>
      </trkpt>
      <trkpt lat="44.64691" lon="3.41612">
        <ele>1054.2</ele>
        <time>2024-11-05T10:48:16.476Z</time>
      </trkpt>
      <trkpt lat="44.64686" lon="3.41606">
        <ele>1054.23</ele>
        <time>2024-11-05T10:48:20.988Z</time>
      </trkpt>
      <trkpt lat="44.64675" lon="3.41598">
        <ele>1054.28</ele>
        <time>2024-11-05T10:48:25.501Z</time>
      </trkpt>
      <trkpt lat="44.64663" lon="3.416">
        <ele>1054.33</ele>
        <time>2024-11-05T10:48:30.016Z</time>
      </trkpt>
      <trkpt lat="44.64658" lon="3.41602">
        <ele>1054.38</ele>
        <time>2024-11-05T10:48:34.532Z</time>
      </trkpt>
      <trkpt lat="44.64641" lon="3.41611">
        <ele>1054.42</ele>
        <time>2024-11-05T10:48:39.051Z</time>
      </trkpt>
      <trkpt lat="44.64637" lon="3.41612">
        <ele>1054.48</ele>
        <time>2024-11-05T10:48:43.571Z</time>
      </trkpt>
      <trkpt lat="44.64629" lon="3.41615">
        <ele>1054.53</ele>
        <time>2024-11-05T10:48:48.092Z</time>
      </trkpt>
      <trkpt lat="44.6462" lon="3.41613">
        <ele>1054.58</ele>
        <time>2024-11-05T10:48:52.615Z</time>
      </trkpt>
      <trkpt lat="44.64615" lon="3.41611">
        <ele>1054.64</ele>
        <time>2024-11-05T10:48:57.138Z</time>
      </trkpt>
      <trkpt lat="44.64611" lon="3.41608">
        <ele>1054.73</ele>
        <time>2024-11-05T10:49:01.662Z</time>
      </trkpt>
      <trkpt lat="44.64603" lon="3.41604">
        <ele>1054.82</ele>
        <time>2024-11-05T10:49:06.187Z</time>
      </trkpt>
      <trkpt lat="44.64603" lon="3.41604">
        <ele>1054.92</ele>
        <time>2024-11-05T10:49:10.713Z</time>
      </trkpt>
      <trkpt lat="44.64599" lon="3.416">
        <ele>1055.04</ele>
        <time>2024-11-05T10:49:15.239Z</time>
      </trkpt>
      <trkpt lat="44.64592" lon="3.41593">
        <ele>1055.16</ele>
        <time>2024-11-05T10:49:19.767Z</time>
      </trkpt>
      <trkpt lat="44.64585" lon="3.41585">
        <ele>1055.3</ele>
        <time>2024-11-05T10:49:24.296Z</time>
      </trkpt>
      <trkpt lat="44.64578" lon="3.41577">
        <ele>1055.45</ele>
        <time>2024-11-05T10:49:28.827Z</time>
      </trkpt>
      <trkpt lat="44.64556" lon="3.41555">
        <ele>1055.65</ele>
        <time>2024-11-05T10:49:33.362Z</time>
      </trkpt>
      <trkpt lat="44.64546" lon="3.41544">
        <ele>1055.81</ele>
        <time>2024-11-05T10:49:37.899Z</time>
      </trkpt>
      <trkpt lat="44.64532" lon="3.4154">
        <ele>1055.99</ele>
        <time>2024-11-05T10:49:42.438Z</time>
      </trkpt>
      <trkpt lat="44.64523" lon="3.41538">
        <ele>1056.16</ele>
        <time>2024-11-05T10:49:46.979Z</time>
      </trkpt>
      <trkpt lat="44.64515" lon="3.41536">
        <ele>1056.35</ele>
        <time>2024-11-05T10:49:51.521Z</time>
      </trkpt>
      <trkpt lat="44.6451" lon="3.41535">
        <ele>1056.56</ele>
        <time>2024-11-05T10:49:56.064Z</time>
      </trkpt>
      <trkpt lat="44.64501" lon="3.41532">
        <ele>1056.77</ele>
        <time>2024-11-05T10:50:00.608Z</time>
      </trkpt>
      <trkpt lat="44.64488" lon="3.41529">
        <ele>1056.99</ele>
        <time>2024-11-05T10:50:05.154Z</time>
      </trkpt>
      <trkpt lat="44.64476" lon="3.41521">
        <ele>1057.22</ele>
        <time>2024-11-05T10:50:09.703Z</time>
      </trkpt>
      <trkpt lat="44.64472" lon="3.41519">
        <ele>1057.49</ele>
        <time>2024-11-05T10:50:14.252Z</time>
      </trkpt>
      <trkpt lat="44.64469" lon="3.41514">
        <ele>1057.78</ele>
        <time>2024-11-05T10:50:18.802Z</time>
      </trkpt>
      <trkpt lat="44.64462" lon="3.41504">
        <ele>1058.1</ele>
        <time>2024-11-05T10:50:23.353Z</time>
      </trkpt>
      <trkpt lat="44.64466" lon="3.41478">
        <ele>1058.42</ele>
        <time>2024-11-05T10:50:27.908Z</time>
      </trkpt>
      <trkpt lat="44.64468" lon="3.41475">
        <ele>1058.72</ele>
        <time>2024-11-05T10:50:32.463Z</time>
      </trkpt>
      <trkpt lat="44.6448" lon="3.41449">
        <ele>1059.06</ele>
        <time>2024-11-05T10:50:37.022Z</time>
      </trkpt>
      <trkpt lat="44.64485" lon="3.41439">
        <ele>1059.4</ele>
        <time>2024-11-05T10:50:41.582Z</time>
      </trkpt>
      <trkpt lat="44.6449" lon="3.41428">
        <ele>1059.75</ele>
        <time>2024-11-05T10:50:46.143Z</time>
      </trkpt>
      <trkpt lat="44.64493" lon="3.41423">
        <ele>1060.09</ele>
        <time>2024-11-05T10:50:50.705Z</time>
      </trkpt>
      <trkpt lat="44.64495" lon="3.41418">
        <ele>1060.44</ele>
        <time>2024-11-05T10:50:55.268Z</time>
      </trkpt>
      <trkpt lat="44.64497" lon="3.41412">
        <ele>1060.8</ele>
        <time>2024-11-05T10:50:59.832Z</time>
      </trkpt>
      <trkpt lat="44.64503" lon="3.41395">
        <ele>1061.2</ele>
        <time>2024-11-05T10:51:04.398Z</time>
      </trkpt>
      <trkpt lat="44.64509" lon="3.41378">
        <ele>1061.56</ele>
        <time>2024-11-05T10:51:08.966Z</time>
      </trkpt>
      <trkpt lat="44.64511" lon="3.41359">
        <ele>1061.95</ele>
        <time>2024-11-05T10:51:13.536Z</time>
      </trkpt>
      <trkpt lat="44.64512" lon="3.41353">
        <ele>1062.32</ele>
        <time>2024-11-05T10:51:18.107Z</time>
      </trkpt>
      <trkpt lat="44.64512" lon="3.41349">
        <ele>1062.7</ele>
        <time>2024-11-05T10:51:22.678Z</time>
      </trkpt>
      <trkpt lat="44.6451" lon="3.41341">
        <ele>1063.1</ele>
        <time>2024-11-05T10:51:27.250Z</time>
      </trkpt>
      <trkpt lat="44.64506" lon="3.4133">
        <ele>1063.5</ele>
        <time>2024-11-05T10:51:31.824Z</time>
      </trkpt>
      <trkpt lat="44.64505" lon="3.41325">
        <ele>1063.89</ele>
        <time>2024-11-05T10:51:36.398Z</time>
      </trkpt>
      <trkpt lat="44.6449" lon="3.41313">
        <ele>1064.32</ele>
        <time>2024-11-05T10:51:40.975Z</time>
      </trkpt>
      <trkpt lat="44.64475" lon="3.41314">
        <ele>1064.75</ele>
        <time>2024-11-05T10:51:45.554Z</time>
      </trkpt>
      <trkpt lat="44.64462" lon="3.41315">
        <ele>1065.15</ele>
        <time>2024-11-05T10:51:50.136Z</time>
      </trkpt>
      <trkpt lat="44.64444" lon="3.41317">
        <ele>1065.56</ele>
        <time>2024-11-05T10:51:54.720Z</time>
      </trkpt>
      <trkpt lat="44.64435" lon="3.41318">
        <ele>1065.95</ele>
        <time>2024-11-05T10:51:59.306Z</time>
      </trkpt>
      <trkpt lat="44.64426" lon="3.41318">
        <ele>1066.32</ele>
        <time>2024-11-05T10:52:03.893Z</time>
      </trkpt>
      <trkpt lat="44.64417" lon="3.41319">
        <ele>1066.69</ele>
        <time>2024-11-05T10:52:08.482Z</time>
      </trkpt>
      <trkpt lat="44.64413" lon="3.4132">
        <ele>1067.05</ele>
        <time>2024-11-05T10:52:13.071Z</time>
      </trkpt>
      <trkpt lat="44.64407" lon="3.4132">
        <ele>1067.4</ele>
        <time>2024-11-05T10:52:17.661Z</time>
      </trkpt>
      <trkpt lat="44.64404" lon="3.41321">
        <ele>1067.74</ele>
        <time>2024-11-05T10:52:22.252Z</time>
      </trkpt>
      <trkpt lat="44.64387" lon="3.41324">
        <ele>1068.08</ele>
        <time>2024-11-05T10:52:26.846Z</time>
      </trkpt>
      <trkpt lat="44.64347" lon="3.41332">
        <ele>1068.45</ele>
        <time>2024-11-05T10:52:31.446Z</time>
      </trkpt>
      <trkpt lat="44.64338" lon="3.41334">
        <ele>1068.75</ele>
        <time>2024-11-05T10:52:36.047Z</time>
      </trkpt>
      <trkpt lat="44.64301" lon="3.41355">
        <ele>1069.04</ele>
        <time>2024-11-05T10:52:40.655Z</time>
      </trkpt>
      <trkpt lat="44.64289" lon="3.41362">
        <ele>1069.34</ele>
        <time>2024-11-05T10:52:45.265Z</time>
      </trkpt>
      <trkpt lat="44.6428" lon="3.41367">
        <ele>1069.64</ele>
        <time>2024-11-05T10:52:49.876Z</time>
      </trkpt>
      <trkpt lat="44.64272" lon="3.41381">
        <ele>1069.96</ele>
        <time>2024-11-05T10:52:54.489Z</time>
      </trkpt>
      <trkpt lat="44.64268" lon="3.41388">
        <ele>1070.21</ele>
        <time>2024-11-05T10:52:59.104Z</time>
      </trkpt>
      <trkpt lat="44.64266" lon="3.41389">
        <ele>1070.45</ele>
        <time>2024-11-05T10:53:03.719Z</time>
      </trkpt>
      <trkpt lat="44.64261" lon="3.41391">
        <ele>1070.67</ele>
        <time>2024-11-05T10:53:08.335Z</time>
      </trkpt>
      <trkpt lat="44.64254" lon="3.41392">
        <ele>1070.86</ele>
        <time>2024-11-05T10:53:12.952Z</time>
      </trkpt>
      <trkpt lat="44.6425" lon="3.4139">
        <ele>1071.07</ele>
        <time>2024-11-05T10:53:17.569Z</time>
      </trkpt>
      <trkpt lat="44.64245" lon="3.41388">
        <ele>1071.26</ele>
        <time>2024-11-05T10:53:22.187Z</time>
      </trkpt>
      <trkpt lat="44.64242" lon="3.41386">
        <ele>1071.45</ele>
        <time>2024-11-05T10:53:26.806Z</time>
      </trkpt>
      <trkpt lat="44.64235" lon="3.41381">
        <ele>1071.63</ele>
        <time>2024-11-05T10:53:31.426Z</time>
      </trkpt>
      <trkpt lat="44.64234" lon="3.4138">
        <ele>1071.8</ele>
        <time>2024-11-05T10:53:36.046Z</time>
      </trkpt>
      <trkpt lat="44.64231" lon="3.41373">
        <ele>1071.98</ele>
        <time>2024-11-05T10:53:40.667Z</time>
      </trkpt>
      <trkpt lat="44.64231" lon="3.41369">
        <ele>1072.14</ele>
        <time>2024-11-05T10:53:45.289Z</time>
      </trkpt>
      <trkpt lat="44.64231" lon="3.41346">
        <ele>1072.32</ele>
        <time>2024-11-05T10:53:49.913Z</time>
      </trkpt>
      <trkpt lat="44.64241" lon="3.41322">
        <ele>1072.43</ele>
        <time>2024-11-05T10:53:54.540Z</time>
      </trkpt>
      <trkpt lat="44.64241" lon="3.4131">
        <ele>1072.56</ele>
        <time>2024-11-05T10:53:59.169Z</time>
      </trkpt>
      <trkpt lat="44.64242" lon="3.41294">
        <ele>1072.69</ele>
        <time>2024-11-05T10:54:03.800Z</time>
      </trkpt>
      <trkpt lat="44.6424" lon="3.41279">
        <ele>1072.81</ele>
        <time>2024-11-05T10:54:08.432Z</time>
      </trkpt>
      <trkpt lat="44.64238" lon="3.41258">
        <ele>1072.91</ele>
        <time>2024-11-05T10:54:13.067Z</time>
      </trkpt>
      <trkpt lat="44.64234" lon="3.41249">
        <ele>1073.05</ele>
        <time>2024-11-05T10:54:17.703Z</time>
      </trkpt>
      <trkpt lat="44.64225" lon="3.41232">
        <ele>1073.17</ele>
        <time>2024-11-05T10:54:22.341Z</time>
      </trkpt>
      <trkpt lat="44.64223" lon="3.4123">
        <ele>1073.3</ele>
        <time>2024-11-05T10:54:26.980Z</time>
      </trkpt>
      <trkpt lat="44.64214" lon="3.41225">
        <ele>1073.45</ele>
        <time>2024-11-05T10:54:31.620Z</time>
      </trkpt>
      <trkpt lat="44.64198" lon="3.41215">
        <ele>1073.62</ele>
        <time>2024-11-05T10:54:36.263Z</time>
      </trkpt>
      <trkpt lat="44.64186" lon="3.41207">
        <ele>1073.74</ele>
        <time>2024-11-05T10:54:40.908Z</time>
      </trkpt>
      <trkpt lat="44.64174" lon="3.41199">
        <ele>1073.86</ele>
        <time>2024-11-05T10:54:45.555Z</time>
      </trkpt>
      <trkpt lat="44.64152" lon="3.41185">
        <ele>1073.98</ele>
        <time>2024-11-05T10:54:50.206Z</time>
      </trkpt>
      <trkpt lat="44.6415" lon="3.41183">
        <ele>1074.12</ele>
        <time>2024-11-05T10:54:54.858Z</time>
      </trkpt>
      <trkpt lat="44.64142" lon="3.41177">
        <ele>1074.27</ele>
        <time>2024-11-05T10:54:59.511Z</time>
      </trkpt>
      <trkpt lat="44.64135" lon="3.41172">
        <ele>1074.44</ele>
        <time>2024-11-05T10:55:04.165Z</time>
      </trkpt>
      <trkpt lat="44.64131" lon="3.41166">
        <ele>1074.61</ele>
        <time>2024-11-05T10:55:08.820Z</time>
      </trkpt>
      <trkpt lat="44.64118" lon="3.41149">
        <ele>1074.78</ele>
        <time>2024-11-05T10:55:13.478Z</time>
      </trkpt>
      <trkpt lat="44.64115" lon="3.41145">
        <ele>1074.97</ele>
        <time>2024-11-05T10:55:18.137Z</time>
      </trkpt>
      <trkpt lat="44.64113" lon="3.41142">
        <ele>1075.17</ele>
        <time>2024-11-05T10:55:22.796Z</time>
      </trkpt>
      <trkpt lat="44.6411" lon="3.41135">
        <ele>1075.38</ele>
        <time>2024-11-05T10:55:27.456Z</time>
      </trkpt>
      <trkpt lat="44.641" lon="3.41113">
        <ele>1075.6</ele>
        <time>2024-11-05T10:55:32.119Z</time>
      </trkpt>
      <trkpt lat="44.64099" lon="3.41108">
        <ele>1075.84</ele>
        <time>2024-11-05T10:55:36.783Z</time>
      </trkpt>
      <trkpt lat="44.64096" lon="3.41096">
        <ele>1076.09</ele>
        <time>2024-11-05T10:55:41.448Z</time>
      </trkpt>
      <trkpt lat="44.64094" lon="3.4109">
        <ele>1076.37</ele>
        <time>2024-11-05T10:55:46.114Z</time>
      </trkpt>
      <trkpt lat="44.64096" lon="3.41078">
        <ele>1076.65</ele>
        <time>2024-11-05T10:55:50.782Z</time>
      </trkpt>
      <trkpt lat="44.64098" lon="3.41069">
        <ele>1076.98</ele>
        <time>2024-11-05T10:55:55.451Z</time>
      </trkpt>
      <trkpt lat="44.64099" lon="3.41066">
        <ele>1077.31</ele>
        <time>2024-11-05T10:56:00.120Z</time>
      </trkpt>
      <trkpt lat="44.64104" lon="3.41055">
        <ele>1077.67</ele>
        <time>2024-11-05T10:56:04.790Z</time>
      </trkpt>
      <trkpt lat="44.64118" lon="3.41023">
        <ele>1078.06</ele>
        <time>2024-11-05T10:56:09.465Z</time>
      </trkpt>
      <trkpt lat="44.64124" lon="3.41008">
        <ele>1078.46</ele>
        <time>2024-11-05T10:56:14.142Z</time>
      </trkpt>
      <trkpt lat="44.64131" lon="3.40984">
        <ele>1078.88</ele>
        <time>2024-11-05T10:56:18.822Z</time>
      </trkpt>
      <trkpt lat="44.64133" lon="3.40978">
        <ele>1079.31</ele>
        <time>2024-11-05T10:56:23.502Z</time>
      </trkpt>
      <trkpt lat="44.64133" lon="3.40953">
        <ele>1079.82</ele>
        <time>2024-11-05T10:56:28.185Z</time>
      </trkpt>
      <trkpt lat="44.64134" lon="3.40922">
        <ele>1080.31</ele>
        <time>2024-11-05T10:56:32.872Z</time>
      </trkpt>
      <trkpt lat="44.64131" lon="3.4091">
        <ele>1080.8</ele>
        <time>2024-11-05T10:56:37.560Z</time>
      </trkpt>
      <trkpt lat="44.64126" lon="3.40886">
        <ele>1081.32</ele>
        <time>2024-11-05T10:56:42.251Z</time>
      </trkpt>
      <trkpt lat="44.64124" lon="3.40879">
        <ele>1081.82</ele>
        <time>2024-11-05T10:56:46.943Z</time>
      </trkpt>
      <trkpt lat="44.64119" lon="3.40864">
        <ele>1082.33</ele>
        <time>2024-11-05T10:56:51.637Z</time>
      </trkpt>
      <trkpt lat="44.64112" lon="3.40854">
        <ele>1082.87</ele>
        <time>2024-11-05T10:56:56.332Z</time>
      </trkpt>
      <trkpt lat="44.64109" lon="3.4085">
        <ele>1083.4</ele>
        <time>2024-11-05T10:57:01.028Z</time>
      </trkpt>
      <trkpt lat="44.64096" lon="3.40833">
        <ele>1083.96</ele>
        <time>2024-11-05T10:57:05.727Z</time>
      </trkpt>
      <trkpt lat="44.6409" lon="3.40825">
        <ele>1084.52</ele>
        <time>2024-11-05T10:57:10.427Z</time>
      </trkpt>
      <trkpt lat="44.64089" lon="3.40824">
        <ele>1085.06</ele>
        <time>2024-11-05T10:57:15.127Z</time>
      </trkpt>
      <trkpt lat="44.64084" lon="3.40814">
        <ele>1085.62</ele>
        <time>2024-11-05T10:57:19.829Z</time>
      </trkpt>
      <trkpt lat="44.6408" lon="3.40806">
        <ele>1086.17</ele>
        <time>2024-11-05T10:57:24.532Z</time>
      </trkpt>
      <trkpt lat="44.64078" lon="3.40797">
        <ele>1086.72</ele>
        <time>2024-11-05T10:57:29.236Z</time>
      </trkpt>
      <trkpt lat="44.64075" lon="3.40779">
        <ele>1087.25</ele>
        <time>2024-11-05T10:57:33.942Z</time>
      </trkpt>
      <trkpt lat="44.6407" lon="3.40748">
        <ele>1087.82</ele>
        <time>2024-11-05T10:57:38.652Z</time>
      </trkpt>
      <trkpt lat="44.64061" lon="3.40693">
        <ele>1088.41</ele>
        <time>2024-11-05T10:57:43.368Z</time>
      </trkpt>
      <trkpt lat="44.64055" lon="3.40662">
        <ele>1088.95</ele>
        <time>2024-11-05T10:57:48.088Z</time>
      </trkpt>
      <trkpt lat="44.64053" lon="3.4065">
        <ele>1089.43</ele>
        <time>2024-11-05T10:57:52.809Z</time>
      </trkpt>
      <trkpt lat="44.64053" lon="3.4065">
        <ele>1089.89</ele>
        <time>2024-11-05T10:57:57.530Z</time>
      </trkpt>
      <trkpt lat="44.64053" lon="3.4065">
        <ele>1090.33</ele>
        <time>2024-11-05T10:58:02.251Z</time>
      </trkpt>
      <trkpt lat="44.64053" lon="3.4065">
        <ele>1090.74</ele>
        <time>2024-11-05T10:58:06.972Z</time>
      </trkpt>
      <trkpt lat="44.64053" lon="3.4065">
        <ele>1091.14</ele>
        <time>2024-11-05T10:58:11.693Z</time>
      </trkpt>
      <trkpt lat="44.64053" lon="3.4065">
        <ele>1091.5</ele>
        <time>2024-11-05T10:58:16.414Z</time>
      </trkpt>
      <trkpt lat="44.64051" lon="3.4064">
        <ele>1091.84</ele>
        <time>2024-11-05T10:58:21.137Z</time>
      </trkpt>
      <trkpt lat="44.64038" lon="3.40607">
        <ele>1092.15</ele>
        <time>2024-11-05T10:58:25.864Z</time>
      </trkpt>
      <trkpt lat="44.64022" lon="3.40585">
        <ele>1092.38</ele>
        <time>2024-11-05T10:58:30.594Z</time>
      </trkpt>
      <trkpt lat="44.63998" lon="3.40572">
        <ele>1092.62</ele>
        <time>2024-11-05T10:58:35.329Z</time>
      </trkpt>
      <trkpt lat="44.63989" lon="3.40562">
        <ele>1092.85</ele>
        <time>2024-11-05T10:58:40.065Z</time>
      </trkpt>
      <trkpt lat="44.6398" lon="3.40554">
        <ele>1093.04</ele>
        <time>2024-11-05T10:58:44.803Z</time>
      </trkpt>
      <trkpt lat="44.6398" lon="3.4053">
        <ele>1093.19</ele>
        <time>2024-11-05T10:58:49.544Z</time>
      </trkpt>
      <trkpt lat="44.6399" lon="3.40491">
        <ele>1093.28</ele>
        <time>2024-11-05T10:58:54.290Z</time>
      </trkpt>
      <trkpt lat="44.63999" lon="3.40452">
        <ele>1093.31</ele>
        <time>2024-11-05T10:58:59.040Z</time>
      </trkpt>
      <trkpt lat="44.64004" lon="3.40411">
        <ele>1093.32</ele>
        <time>2024-11-05T10:59:03.795Z</time>
      </trkpt>
      <trkpt lat="44.63999" lon="3.40371">
        <ele>1093.24</ele>
        <time>2024-11-05T10:59:08.555Z</time>
      </trkpt>
      <trkpt lat="44.63987" lon="3.40341">
        <ele>1093.12</ele>
        <time>2024-11-05T10:59:13.319Z</time>
      </trkpt>
      <trkpt lat="44.63974" lon="3.4031">
        <ele>1092.92</ele>
        <time>2024-11-05T10:59:18.087Z</time>
      </trkpt>
      <trkpt lat="44.63961" lon="3.4028">
        <ele>1092.77</ele>
        <time>2024-11-05T10:59:22.859Z</time>
      </trkpt>
      <trkpt lat="44.63954" lon="3.40255">
        <ele>1092.59</ele>
        <time>2024-11-05T10:59:27.634Z</time>
      </trkpt>
      <trkpt lat="44.63954" lon="3.40229">
        <ele>1092.32</ele>
        <time>2024-11-05T10:59:32.412Z</time>
      </trkpt>
      <trkpt lat="44.63962" lon="3.40193">
        <ele>1091.95</ele>
        <time>2024-11-05T10:59:37.194Z</time>
      </trkpt>
      <trkpt lat="44.63969" lon="3.40157">
        <ele>1091.6</ele>
        <time>2024-11-05T10:59:41.980Z</time>
      </trkpt>
      <trkpt lat="44.63976" lon="3.40114">
        <ele>1091.28</ele>
        <time>2024-11-05T10:59:46.771Z</time>
      </trkpt>
      <trkpt lat="44.63977" lon="3.40078">
        <ele>1090.83</ele>
        <time>2024-11-05T10:59:51.566Z</time>
      </trkpt>
      <trkpt lat="44.6397" lon="3.40038">
        <ele>1090.28</ele>
        <time>2024-11-05T10:59:56.366Z</time>
      </trkpt>
      <trkpt lat="44.63963" lon="3.39997">
        <ele>1089.64</ele>
        <time>2024-11-05T11:00:01.171Z</time>
      </trkpt>
      <trkpt lat="44.63961" lon="3.3999">
        <ele>1088.98</ele>
        <time>2024-11-05T11:00:05.977Z</time>
      </trkpt>
      <trkpt lat="44.63958" lon="3.39957">
        <ele>1088.23</ele>
        <time>2024-11-05T11:00:10.787Z</time>
      </trkpt>
      <trkpt lat="44.63955" lon="3.39924">
        <ele>1087.42</ele>
        <time>2024-11-05T11:00:15.600Z</time>
      </trkpt>
      <trkpt lat="44.63952" lon="3.39892">
        <ele>1086.63</ele>
        <time>2024-11-05T11:00:20.417Z</time>
      </trkpt>
      <trkpt lat="44.63948" lon="3.39877">
        <ele>1085.78</ele>
        <time>2024-11-05T11:00:25.236Z</time>
      </trkpt>
      <trkpt lat="44.63935" lon="3.39853">
        <ele>1084.87</ele>
        <time>2024-11-05T11:00:30.058Z</time>
      </trkpt>
      <trkpt lat="44.63922" lon="3.39828">
        <ele>1083.91</ele>
        <time>2024-11-05T11:00:34.884Z</time>
      </trkpt>
      <trkpt lat="44.63911" lon="3.3981">
        <ele>1082.84</ele>
        <time>2024-11-05T11:00:39.713Z</time>
      </trkpt>
      <trkpt lat="44.63901" lon="3.39791">
        <ele>1081.69</ele>
        <time>2024-11-05T11:00:44.544Z</time>
      </trkpt>
      <trkpt lat="44.63904" lon="3.39773">
        <ele>1080.57</ele>
        <time>2024-11-05T11:00:49.377Z</time>
      </trkpt>
      <trkpt lat="44.63899" lon="3.39757">
        <ele>1079.37</ele>
        <time>2024-11-05T11:00:54.213Z</time>
      </trkpt>
      <trkpt lat="44.63907" lon="3.39715">
        <ele>1078.14</ele>
        <time>2024-11-05T11:00:59.053Z</time>
      </trkpt>
      <trkpt lat="44.639" lon="3.39704">
        <ele>1076.86</ele>
        <time>2024-11-05T11:01:03.895Z</time>
      </trkpt>
      <trkpt lat="44.6388" lon="3.39732">
        <ele>1075.61</ele>
        <time>2024-11-05T11:01:08.742Z</time>
      </trkpt>
      <trkpt lat="44.63861" lon="3.3976">
        <ele>1074.33</ele>
        <time>2024-11-05T11:01:13.593Z</time>
      </trkpt>
      <trkpt lat="44.63852" lon="3.39762">
        <ele>1073.02</ele>
        <time>2024-11-05T11:01:18.445Z</time>
      </trkpt>
      <trkpt lat="44.63863" lon="3.39733">
        <ele>1071.68</ele>
        <time>2024-11-05T11:01:23.301Z</time>
      </trkpt>
      <trkpt lat="44.63873" lon="3.39703">
        <ele>1070.31</ele>
        <time>2024-11-05T11:01:28.161Z</time>
      </trkpt>
      <trkpt lat="44.63884" lon="3.39674">
        <ele>1068.94</ele>
        <time>2024-11-05T11:01:33.025Z</time>
      </trkpt>
      <trkpt lat="44.63899" lon="3.39638">
        <ele>1067.56</ele>
        <time>2024-11-05T11:01:37.893Z</time>
      </trkpt>
      <trkpt lat="44.63914" lon="3.39602">
        <ele>1066.16</ele>
        <time>2024-11-05T11:01:42.766Z</time>
      </trkpt>
      <trkpt lat="44.63923" lon="3.39582">
        <ele>1064.76</ele>
        <time>2024-11-05T11:01:47.642Z</time>
      </trkpt>
      <trkpt lat="44.63933" lon="3.39562">
        <ele>1063.35</ele>
        <time>2024-11-05T11:01:52.521Z</time>
      </trkpt>
      <trkpt lat="44.63943" lon="3.39549">
        <ele>1062</ele>
        <time>2024-11-05T11:01:57.402Z</time>
      </trkpt>
      <trkpt lat="44.63958" lon="3.39537">
        <ele>1060.62</ele>
        <time>2024-11-05T11:02:02.286Z</time>
      </trkpt>
      <trkpt lat="44.63978" lon="3.39527">
        <ele>1059.28</ele>
        <time>2024-11-05T11:02:07.173Z</time>
      </trkpt>
      <trkpt lat="44.63998" lon="3.39517">
        <ele>1057.89</ele>
        <time>2024-11-05T11:02:12.063Z</time>
      </trkpt>
      <trkpt lat="44.64018" lon="3.39508">
        <ele>1056.54</ele>
        <time>2024-11-05T11:02:16.957Z</time>
      </trkpt>
      <trkpt lat="44.64042" lon="3.39512">
        <ele>1055.26</ele>
        <time>2024-11-05T11:02:21.855Z</time>
      </trkpt>
      <trkpt lat="44.64068" lon="3.39498">
        <ele>1053.92</ele>
        <time>2024-11-05T11:02:26.757Z</time>
      </trkpt>
      <trkpt lat="44.6409" lon="3.39497">
        <ele>1052.65</ele>
        <time>2024-11-05T11:02:31.663Z</time>
      </trkpt>
      <trkpt lat="44.64099" lon="3.39504">
        <ele>1051.44</ele>
        <time>2024-11-05T11:02:36.570Z</time>
      </trkpt>
      <trkpt lat="44.64099" lon="3.39504">
        <ele>1050.3</ele>
        <time>2024-11-05T11:02:41.477Z</time>
      </trkpt>
      <trkpt lat="44.64108" lon="3.39511">
        <ele>1049.18</ele>
        <time>2024-11-05T11:02:46.386Z</time>
      </trkpt>
      <trkpt lat="44.64125" lon="3.39536">
        <ele>1048.1</ele>
        <time>2024-11-05T11:02:51.299Z</time>
      </trkpt>
      <trkpt lat="44.64142" lon="3.3956">
        <ele>1047.06</ele>
        <time>2024-11-05T11:02:56.216Z</time>
      </trkpt>
      <trkpt lat="44.64158" lon="3.39574">
        <ele>1046.03</ele>
        <time>2024-11-05T11:03:01.136Z</time>
      </trkpt>
      <trkpt lat="44.64176" lon="3.39581">
        <ele>1045.01</ele>
        <time>2024-11-05T11:03:06.059Z</time>
      </trkpt>
      <trkpt lat="44.64202" lon="3.39582">
        <ele>1044.02</ele>
        <time>2024-11-05T11:03:10.986Z</time>
      </trkpt>
      <trkpt lat="44.64218" lon="3.39571">
        <ele>1043.11</ele>
        <time>2024-11-05T11:03:15.916Z</time>
      </trkpt>
      <trkpt lat="44.64226" lon="3.39563">
        <ele>1042.32</ele>
        <time>2024-11-05T11:03:20.847Z</time>
      </trkpt>
      <trkpt lat="44.64238" lon="3.39546">
        <ele>1041.62</ele>
        <time>2024-11-05T11:03:25.781Z</time>
      </trkpt>
      <trkpt lat="44.64255" lon="3.39511">
        <ele>1041.01</ele>
        <time>2024-11-05T11:03:30.720Z</time>
      </trkpt>
      <trkpt lat="44.6426" lon="3.39498">
        <ele>1040.51</ele>
        <time>2024-11-05T11:03:35.661Z</time>
      </trkpt>
      <trkpt lat="44.64263" lon="3.39482">
        <ele>1040.06</ele>
        <time>2024-11-05T11:03:40.604Z</time>
      </trkpt>
      <trkpt lat="44.64262" lon="3.39443">
        <ele>1039.7</ele>
        <time>2024-11-05T11:03:45.551Z</time>
      </trkpt>
      <trkpt lat="44.64267" lon="3.39419">
        <ele>1039.38</ele>
        <time>2024-11-05T11:03:50.501Z</time>
      </trkpt>
      <trkpt lat="44.64271" lon="3.39395">
        <ele>1039.09</ele>
        <time>2024-11-05T11:03:55.454Z</time>
      </trkpt>
      <trkpt lat="44.64278" lon="3.39364">
        <ele>1038.86</ele>
        <time>2024-11-05T11:04:00.410Z</time>
      </trkpt>
      <trkpt lat="44.64286" lon="3.39346">
        <ele>1038.67</ele>
        <time>2024-11-05T11:04:05.369Z</time>
      </trkpt>
      <trkpt lat="44.64302" lon="3.39327">
        <ele>1038.57</ele>
        <time>2024-11-05T11:04:10.331Z</time>
      </trkpt>
      <trkpt lat="44.64312" lon="3.39303">
        <ele>1038.52</ele>
        <time>2024-11-05T11:04:15.296Z</time>
      </trkpt>
      <trkpt lat="44.64322" lon="3.39279">
        <ele>1038.5</ele>
        <time>2024-11-05T11:04:20.265Z</time>
      </trkpt>
      <trkpt lat="44.64331" lon="3.39261">
        <ele>1038.55</ele>
        <time>2024-11-05T11:04:25.236Z</time>
      </trkpt>
      <trkpt lat="44.6434" lon="3.39247">
        <ele>1038.64</ele>
        <time>2024-11-05T11:04:30.209Z</time>
      </trkpt>
      <trkpt lat="44.64352" lon="3.39233">
        <ele>1038.78</ele>
        <time>2024-11-05T11:04:35.185Z</time>
      </trkpt>
      <trkpt lat="44.64361" lon="3.39219">
        <ele>1038.94</ele>
        <time>2024-11-05T11:04:40.163Z</time>
      </trkpt>
      <trkpt lat="44.64369" lon="3.39198">
        <ele>1039.13</ele>
        <time>2024-11-05T11:04:45.144Z</time>
      </trkpt>
      <trkpt lat="44.64376" lon="3.39176">
        <ele>1039.34</ele>
        <time>2024-11-05T11:04:50.127Z</time>
      </trkpt>
      <trkpt lat="44.64385" lon="3.39156">
        <ele>1039.59</ele>
        <time>2024-11-05T11:04:55.113Z</time>
      </trkpt>
      <trkpt lat="44.64394" lon="3.39135">
        <ele>1039.86</ele>
        <time>2024-11-05T11:05:00.102Z</time>
      </trkpt>
      <trkpt lat="44.64414" lon="3.39124">
        <ele>1040.16</ele>
        <time>2024-11-05T11:05:05.094Z</time>
      </trkpt>
      <trkpt lat="44.64431" lon="3.3912">
        <ele>1040.47</ele>
        <time>2024-11-05T11:05:10.089Z</time>
      </trkpt>
      <trkpt lat="44.64446" lon="3.39121">
        <ele>1040.78</ele>
        <time>2024-11-05T11:05:15.086Z</time>
      </trkpt>
      <trkpt lat="44.64468" lon="3.3912">
        <ele>1041.12</ele>
        <time>2024-11-05T11:05:20.087Z</time>
      </trkpt>
      <trkpt lat="44.64491" lon="3.39119">
        <ele>1041.48</ele>
        <time>2024-11-05T11:05:25.092Z</time>
      </trkpt>
      <trkpt lat="44.6451" lon="3.39119">
        <ele>1041.87</ele>
        <time>2024-11-05T11:05:30.100Z</time>
      </trkpt>
      <trkpt lat="44.64529" lon="3.39119">
        <ele>1042.23</ele>
        <time>2024-11-05T11:05:35.111Z</time>
      </trkpt>
      <trkpt lat="44.64544" lon="3.39116">
        <ele>1042.56</ele>
        <time>2024-11-05T11:05:40.124Z</time>
      </trkpt>
      <trkpt lat="44.64565" lon="3.39102">
        <ele>1042.86</ele>
        <time>2024-11-05T11:05:45.141Z</time>
      </trkpt>
      <trkpt lat="44.64578" lon="3.39085">
        <ele>1043.22</ele>
        <time>2024-11-05T11:05:50.161Z</time>
      </trkpt>
      <trkpt lat="44.64591" lon="3.39068">
        <ele>1043.61</ele>
        <time>2024-11-05T11:05:55.184Z</time>
      </trkpt>
      <trkpt lat="44.64599" lon="3.39052">
        <ele>1044.03</ele>
        <time>2024-11-05T11:06:00.209Z</time>
      </trkpt>
      <trkpt lat="44.64612" lon="3.39039">
        <ele>1044.48</ele>
        <time>2024-11-05T11:06:05.236Z</time>
      </trkpt>
      <trkpt lat="44.6463" lon="3.39007">
        <ele>1044.98</ele>
        <time>2024-11-05T11:06:10.268Z</time>
      </trkpt>
      <trkpt lat="44.64651" lon="3.38987">
        <ele>1045.49</ele>
        <time>2024-11-05T11:06:15.304Z</time>
      </trkpt>
      <trkpt lat="44.64672" lon="3.38975">
        <ele>1045.99</ele>
        <time>2024-11-05T11:06:20.344Z</time>
      </trkpt>
      <trkpt lat="44.64699" lon="3.38966">
        <ele>1046.43</ele>
        <time>2024-11-05T11:06:25.388Z</time>
      </trkpt>
      <trkpt lat="44.64726" lon="3.38957">
        <ele>1046.86</ele>
        <time>2024-11-05T11:06:30.437Z</time>
      </trkpt>
      <trkpt lat="44.64754" lon="3.38948">
        <ele>1047.34</ele>
        <time>2024-11-05T11:06:35.490Z</time>
      </trkpt>
      <trkpt lat="44.64768" lon="3.38938">
        <ele>1047.74</ele>
        <time>2024-11-05T11:06:40.546Z</time>
      </trkpt>
      <trkpt lat="44.64783" lon="3.38928">
        <ele>1048.12</ele>
        <time>2024-11-05T11:06:45.604Z</time>
      </trkpt>
      <trkpt lat="44.648" lon="3.38903">
        <ele>1048.48</ele>
        <time>2024-11-05T11:06:50.666Z</time>
      </trkpt>
      <trkpt lat="44.64817" lon="3.38877">
        <ele>1048.82</ele>
        <time>2024-11-05T11:06:55.732Z</time>
      </trkpt>
      <trkpt lat="44.64834" lon="3.38852">
        <ele>1049.12</ele>
        <time>2024-11-05T11:07:00.802Z</time>
      </trkpt>
      <trkpt lat="44.64856" lon="3.38837">
        <ele>1049.45</ele>
        <time>2024-11-05T11:07:05.876Z</time>
      </trkpt>
      <trkpt lat="44.64878" lon="3.38822">
        <ele>1049.76</ele>
        <time>2024-11-05T11:07:10.954Z</time>
      </trkpt>
      <trkpt lat="44.64899" lon="3.38806">
        <ele>1050.08</ele>
        <time>2024-11-05T11:07:16.036Z</time>
      </trkpt>
      <trkpt lat="44.64921" lon="3.38791">
        <ele>1050.43</ele>
        <time>2024-11-05T11:07:21.122Z</time>
      </trkpt>
      <trkpt lat="44.64945" lon="3.38764">
        <ele>1050.73</ele>
        <time>2024-11-05T11:07:26.213Z</time>
      </trkpt>
      <trkpt lat="44.64968" lon="3.38736">
        <ele>1050.96</ele>
        <time>2024-11-05T11:07:31.309Z</time>
      </trkpt>
      <trkpt lat="44.64987" lon="3.3871">
        <ele>1051.18</ele>
        <time>2024-11-05T11:07:36.409Z</time>
      </trkpt>
      <trkpt lat="44.65005" lon="3.38684">
        <ele>1051.43</ele>
        <time>2024-11-05T11:07:41.513Z</time>
      </trkpt>
      <trkpt lat="44.65014" lon="3.38649">
        <ele>1051.69</ele>
        <time>2024-11-05T11:07:46.621Z</time>
      </trkpt>
      <trkpt lat="44.65019" lon="3.38621">
        <ele>1051.99</ele>
        <time>2024-11-05T11:07:51.732Z</time>
      </trkpt>
      <trkpt lat="44.65024" lon="3.38594">
        <ele>1052.34</ele>
        <time>2024-11-05T11:07:56.847Z</time>
      </trkpt>
      <trkpt lat="44.65035" lon="3.38554">
        <ele>1052.67</ele>
        <time>2024-11-05T11:08:01.967Z</time>
      </trkpt>
      <trkpt lat="44.65048" lon="3.38539">
        <ele>1053.02</ele>
        <time>2024-11-05T11:08:07.089Z</time>
      </trkpt>
      <trkpt lat="44.65071" lon="3.38532">
        <ele>1053.38</ele>
        <time>2024-11-05T11:08:12.215Z</time>
      </trkpt>
      <trkpt lat="44.65095" lon="3.38532">
        <ele>1053.7</ele>
        <time>2024-11-05T11:08:17.345Z</time>
      </trkpt>
      <trkpt lat="44.65118" lon="3.38532">
        <ele>1054.02</ele>
        <time>2024-11-05T11:08:22.479Z</time>
      </trkpt>
      <trkpt lat="44.65142" lon="3.38531">
        <ele>1054.39</ele>
        <time>2024-11-05T11:08:27.616Z</time>
      </trkpt>
      <trkpt lat="44.65158" lon="3.38516">
        <ele>1054.82</ele>
        <time>2024-11-05T11:08:32.757Z</time>
      </trkpt>
      <trkpt lat="44.65173" lon="3.38499">
        <ele>1055.31</ele>
        <time>2024-11-05T11:08:37.901Z</time>
      </trkpt>
      <trkpt lat="44.65202" lon="3.38491">
        <ele>1055.91</ele>
        <time>2024-11-05T11:08:43.049Z</time>
      </trkpt>
      <trkpt lat="44.6523" lon="3.38489">
        <ele>1056.5</ele>
        <time>2024-11-05T11:08:48.202Z</time>
      </trkpt>
      <trkpt lat="44.65258" lon="3.38488">
        <ele>1057.1</ele>
        <time>2024-11-05T11:08:53.359Z</time>
      </trkpt>
      <trkpt lat="44.65286" lon="3.38487">
        <ele>1057.74</ele>
        <time>2024-11-05T11:08:58.521Z</time>
      </trkpt>
      <trkpt lat="44.65314" lon="3.38503">
        <ele>1058.42</ele>
        <time>2024-11-05T11:09:03.688Z</time>
      </trkpt>
      <trkpt lat="44.65331" lon="3.38516">
        <ele>1059.1</ele>
        <time>2024-11-05T11:09:08.858Z</time>
      </trkpt>
      <trkpt lat="44.65349" lon="3.38528">
        <ele>1059.81</ele>
        <time>2024-11-05T11:09:14.031Z</time>
      </trkpt>
      <trkpt lat="44.65365" lon="3.38552">
        <ele>1060.62</ele>
        <time>2024-11-05T11:09:19.208Z</time>
      </trkpt>
      <trkpt lat="44.65386" lon="3.38566">
        <ele>1061.31</ele>
        <time>2024-11-05T11:09:24.388Z</time>
      </trkpt>
      <trkpt lat="44.65401" lon="3.38566">
        <ele>1062</ele>
        <time>2024-11-05T11:09:29.571Z</time>
      </trkpt>
      <trkpt lat="44.6542" lon="3.3856">
        <ele>1062.72</ele>
        <time>2024-11-05T11:09:34.757Z</time>
      </trkpt>
      <trkpt lat="44.65442" lon="3.38567">
        <ele>1063.52</ele>
        <time>2024-11-05T11:09:39.947Z</time>
      </trkpt>
      <trkpt lat="44.65457" lon="3.38583">
        <ele>1064.39</ele>
        <time>2024-11-05T11:09:45.140Z</time>
      </trkpt>
      <trkpt lat="44.65473" lon="3.386">
        <ele>1065.28</ele>
        <time>2024-11-05T11:09:50.336Z</time>
      </trkpt>
      <trkpt lat="44.65488" lon="3.38614">
        <ele>1066.13</ele>
        <time>2024-11-05T11:09:55.535Z</time>
      </trkpt>
      <trkpt lat="44.65498" lon="3.38618">
        <ele>1066.95</ele>
        <time>2024-11-05T11:10:00.735Z</time>
      </trkpt>
      <trkpt lat="44.65511" lon="3.38611">
        <ele>1067.75</ele>
        <time>2024-11-05T11:10:05.938Z</time>
      </trkpt>
      <trkpt lat="44.65518" lon="3.38597">
        <ele>1068.57</ele>
        <time>2024-11-05T11:10:11.142Z</time>
      </trkpt>
      <trkpt lat="44.65513" lon="3.38559">
        <ele>1069.4</ele>
        <time>2024-11-05T11:10:16.351Z</time>
      </trkpt>
      <trkpt lat="44.6551" lon="3.38535">
        <ele>1070.26</ele>
        <time>2024-11-05T11:10:21.563Z</time>
      </trkpt>
      <trkpt lat="44.65506" lon="3.38511">
        <ele>1071.15</ele>
        <time>2024-11-05T11:10:26.777Z</time>
      </trkpt>
      <trkpt lat="44.65503" lon="3.38478">
        <ele>1072.08</ele>
        <time>2024-11-05T11:10:31.995Z</time>
      </trkpt>
      <trkpt lat="44.65513" lon="3.38443">
        <ele>1073.06</ele>
        <time>2024-11-05T11:10:37.218Z</time>
      </trkpt>
      <trkpt lat="44.65526" lon="3.38414">
        <ele>1074.01</ele>
        <time>2024-11-05T11:10:42.444Z</time>
      </trkpt>
      <trkpt lat="44.65547" lon="3.38395">
        <ele>1074.98</ele>
        <time>2024-11-05T11:10:47.674Z</time>
      </trkpt>
      <trkpt lat="44.6557" lon="3.38374">
        <ele>1075.98</ele>
        <time>2024-11-05T11:10:52.909Z</time>
      </trkpt>
      <trkpt lat="44.65594" lon="3.38353">
        <ele>1076.98</ele>
        <time>2024-11-05T11:10:58.148Z</time>
      </trkpt>
      <trkpt lat="44.65609" lon="3.38344">
        <ele>1077.98</ele>
        <time>2024-11-05T11:11:03.390Z</time>
      </trkpt>
      <trkpt lat="44.65624" lon="3.38334">
        <ele>1078.96</ele>
        <time>2024-11-05T11:11:08.635Z</time>
      </trkpt>
      <trkpt lat="44.65641" lon="3.38332">
        <ele>1079.99</ele>
        <time>2024-11-05T11:11:13.882Z</time>
      </trkpt>
      <trkpt lat="44.65659" lon="3.38331">
        <ele>1080.97</ele>
        <time>2024-11-05T11:11:19.132Z</time>
      </trkpt>
      <trkpt lat="44.65675" lon="3.38335">
        <ele>1081.95</ele>
        <time>2024-11-05T11:11:24.385Z</time>
      </trkpt>
      <trkpt lat="44.65691" lon="3.38339">
        <ele>1082.91</ele>
        <time>2024-11-05T11:11:29.641Z</time>
      </trkpt>
      <trkpt lat="44.65709" lon="3.38367">
        <ele>1083.92</ele>
        <time>2024-11-05T11:11:34.901Z</time>
      </trkpt>
      <trkpt lat="44.65727" lon="3.38385">
        <ele>1084.91</ele>
        <time>2024-11-05T11:11:40.164Z</time>
      </trkpt>
      <trkpt lat="44.65747" lon="3.38389">
        <ele>1085.91</ele>
        <time>2024-11-05T11:11:45.431Z</time>
      </trkpt>
      <trkpt lat="44.65766" lon="3.38393">
        <ele>1086.9</ele>
        <time>2024-11-05T11:11:50.701Z</time>
      </trkpt>
      <trkpt lat="44.65766" lon="3.38393">
        <ele>1087.87</ele>
        <time>2024-11-05T11:11:55.971Z</time>
      </trkpt>
      <trkpt lat="44.65783" lon="3.38397">
        <ele>1088.84</ele>
        <time>2024-11-05T11:12:01.243Z</time>
      </trkpt>
      <trkpt lat="44.658" lon="3.384">
        <ele>1089.8</ele>
        <time>2024-11-05T11:12:06.518Z</time>
      </trkpt>
      <trkpt lat="44.65827" lon="3.38413">
        <ele>1090.79</ele>
        <time>2024-11-05T11:12:11.798Z</time>
      </trkpt>
      <trkpt lat="44.65854" lon="3.38425">
        <ele>1091.78</ele>
        <time>2024-11-05T11:12:17.082Z</time>
      </trkpt>
      <trkpt lat="44.65871" lon="3.38425">
        <ele>1092.71</ele>
        <time>2024-11-05T11:12:22.369Z</time>
      </trkpt>
      <trkpt lat="44.65888" lon="3.38425">
        <ele>1093.65</ele>
        <time>2024-11-05T11:12:27.659Z</time>
      </trkpt>
      <trkpt lat="44.65905" lon="3.38393">
        <ele>1094.51</ele>
        <time>2024-11-05T11:12:32.953Z</time>
      </trkpt>
      <trkpt lat="44.65912" lon="3.38365">
        <ele>1095.38</ele>
        <time>2024-11-05T11:12:38.251Z</time>
      </trkpt>
      <trkpt lat="44.6592" lon="3.38338">
        <ele>1096.28</ele>
        <time>2024-11-05T11:12:43.552Z</time>
      </trkpt>
      <trkpt lat="44.65928" lon="3.38299">
        <ele>1097.2</ele>
        <time>2024-11-05T11:12:48.858Z</time>
      </trkpt>
      <trkpt lat="44.65936" lon="3.3826">
        <ele>1098.05</ele>
        <time>2024-11-05T11:12:54.168Z</time>
      </trkpt>
      <trkpt lat="44.65944" lon="3.38221">
        <ele>1098.9</ele>
        <time>2024-11-05T11:12:59.483Z</time>
      </trkpt>
      <trkpt lat="44.65952" lon="3.38183">
        <ele>1099.74</ele>
        <time>2024-11-05T11:13:04.802Z</time>
      </trkpt>
      <trkpt lat="44.65968" lon="3.38156">
        <ele>1100.52</ele>
        <time>2024-11-05T11:13:10.125Z</time>
      </trkpt>
      <trkpt lat="44.65986" lon="3.3815">
        <ele>1101.24</ele>
        <time>2024-11-05T11:13:15.451Z</time>
      </trkpt>
      <trkpt lat="44.66011" lon="3.38157">
        <ele>1101.95</ele>
        <time>2024-11-05T11:13:20.781Z</time>
      </trkpt>
      <trkpt lat="44.66031" lon="3.38168">
        <ele>1102.62</ele>
        <time>2024-11-05T11:13:26.115Z</time>
      </trkpt>
      <trkpt lat="44.66051" lon="3.38178">
        <ele>1103.27</ele>
        <time>2024-11-05T11:13:31.452Z</time>
      </trkpt>
      <trkpt lat="44.66071" lon="3.38189">
        <ele>1103.84</ele>
        <time>2024-11-05T11:13:36.793Z</time>
      </trkpt>
      <trkpt lat="44.66098" lon="3.38191">
        <ele>1104.34</ele>
        <time>2024-11-05T11:13:42.138Z</time>
      </trkpt>
      <trkpt lat="44.66118" lon="3.3819">
        <ele>1104.85</ele>
        <time>2024-11-05T11:13:47.486Z</time>
      </trkpt>
      <trkpt lat="44.66138" lon="3.38189">
        <ele>1105.32</ele>
        <time>2024-11-05T11:13:52.837Z</time>
      </trkpt>
      <trkpt lat="44.6616" lon="3.38177">
        <ele>1105.74</ele>
        <time>2024-11-05T11:13:58.192Z</time>
      </trkpt>
      <trkpt lat="44.66172" lon="3.38144">
        <ele>1106.06</ele>
        <time>2024-11-05T11:14:03.551Z</time>
      </trkpt>
      <trkpt lat="44.66183" lon="3.3811">
        <ele>1106.3</ele>
        <time>2024-11-05T11:14:08.915Z</time>
      </trkpt>
      <trkpt lat="44.66195" lon="3.38075">
        <ele>1106.51</ele>
        <time>2024-11-05T11:14:14.283Z</time>
      </trkpt>
      <trkpt lat="44.66205" lon="3.38056">
        <ele>1106.65</ele>
        <time>2024-11-05T11:14:19.654Z</time>
      </trkpt>
      <trkpt lat="44.66223" lon="3.38039">
        <ele>1106.78</ele>
        <time>2024-11-05T11:14:25.028Z</time>
      </trkpt>
      <trkpt lat="44.66241" lon="3.38022">
        <ele>1106.85</ele>
        <time>2024-11-05T11:14:30.406Z</time>
      </trkpt>
      <trkpt lat="44.66255" lon="3.37989">
        <ele>1106.88</ele>
        <time>2024-11-05T11:14:35.788Z</time>
      </trkpt>
      <trkpt lat="44.66269" lon="3.37957">
        <ele>1106.84</ele>
        <time>2024-11-05T11:14:41.174Z</time>
      </trkpt>
      <trkpt lat="44.66284" lon="3.37925">
        <ele>1106.78</ele>
        <time>2024-11-05T11:14:46.565Z</time>
      </trkpt>
      <trkpt lat="44.66298" lon="3.37903">
        <ele>1106.64</ele>
        <time>2024-11-05T11:14:51.959Z</time>
      </trkpt>
      <trkpt lat="44.66313" lon="3.37881">
        <ele>1106.47</ele>
        <time>2024-11-05T11:14:57.357Z</time>
      </trkpt>
      <trkpt lat="44.66328" lon="3.37859">
        <ele>1106.27</ele>
        <time>2024-11-05T11:15:02.758Z</time>
      </trkpt>
      <trkpt lat="44.66319" lon="3.37852">
        <ele>1106.12</ele>
        <time>2024-11-05T11:15:08.161Z</time>
      </trkpt>
      <trkpt lat="44.66329" lon="3.37824">
        <ele>1105.87</ele>
        <time>2024-11-05T11:15:13.567Z</time>
      </trkpt>
      <trkpt lat="44.66338" lon="3.37796">
        <ele>1105.6</ele>
        <time>2024-11-05T11:15:18.977Z</time>
      </trkpt>
      <trkpt lat="44.66348" lon="3.37768">
        <ele>1105.34</ele>
        <time>2024-11-05T11:15:24.390Z</time>
      </trkpt>
      <trkpt lat="44.66353" lon="3.37733">
        <ele>1105.05</ele>
        <time>2024-11-05T11:15:29.807Z</time>
      </trkpt>
      <trkpt lat="44.66353" lon="3.37698">
        <ele>1104.68</ele>
        <time>2024-11-05T11:15:35.228Z</time>
      </trkpt>
      <trkpt lat="44.66353" lon="3.37662">
        <ele>1104.27</ele>
        <time>2024-11-05T11:15:40.654Z</time>
      </trkpt>
      <trkpt lat="44.66357" lon="3.37629">
        <ele>1103.92</ele>
        <time>2024-11-05T11:15:46.083Z</time>
      </trkpt>
      <trkpt lat="44.66361" lon="3.37604">
        <ele>1103.57</ele>
        <time>2024-11-05T11:15:51.515Z</time>
      </trkpt>
      <trkpt lat="44.66365" lon="3.37579">
        <ele>1103.24</ele>
        <time>2024-11-05T11:15:56.950Z</time>
      </trkpt>
      <trkpt lat="44.66372" lon="3.37548">
        <ele>1102.84</ele>
        <time>2024-11-05T11:16:02.389Z</time>
      </trkpt>
      <trkpt lat="44.66378" lon="3.37517">
        <ele>1102.45</ele>
        <time>2024-11-05T11:16:07.832Z</time>
      </trkpt>
      <trkpt lat="44.66386" lon="3.37488">
        <ele>1102.07</ele>
        <time>2024-11-05T11:16:13.278Z</time>
      </trkpt>
      <trkpt lat="44.66393" lon="3.37459">
        <ele>1101.65</ele>
        <time>2024-11-05T11:16:18.728Z</time>
      </trkpt>
      <trkpt lat="44.66404" lon="3.37427">
        <ele>1101.22</ele>
        <time>2024-11-05T11:16:24.182Z</time>
      </trkpt>
      <trkpt lat="44.66415" lon="3.37395">
        <ele>1100.77</ele>
        <time>2024-11-05T11:16:29.640Z</time>
      </trkpt>
      <trkpt lat="44.66423" lon="3.37371">
        <ele>1100.36</ele>
        <time>2024-11-05T11:16:35.101Z</time>
      </trkpt>
      <trkpt lat="44.66432" lon="3.37348">
        <ele>1099.91</ele>
        <time>2024-11-05T11:16:40.565Z</time>
      </trkpt>
      <trkpt lat="44.66444" lon="3.37316">
        <ele>1099.46</ele>
        <time>2024-11-05T11:16:46.033Z</time>
      </trkpt>
      <trkpt lat="44.66456" lon="3.37284">
        <ele>1099.01</ele>
        <time>2024-11-05T11:16:51.505Z</time>
      </trkpt>
      <trkpt lat="44.66468" lon="3.37253">
        <ele>1098.58</ele>
        <time>2024-11-05T11:16:56.981Z</time>
      </trkpt>
      <trkpt lat="44.6648" lon="3.37221">
        <ele>1098.13</ele>
        <time>2024-11-05T11:17:02.461Z</time>
      </trkpt>
      <trkpt lat="44.66489" lon="3.37186">
        <ele>1097.71</ele>
        <time>2024-11-05T11:17:07.945Z</time>
      </trkpt>
      <trkpt lat="44.66498" lon="3.37151">
        <ele>1097.33</ele>
        <time>2024-11-05T11:17:13.434Z</time>
      </trkpt>
      <trkpt lat="44.665" lon="3.37112">
        <ele>1097.02</ele>
        <time>2024-11-05T11:17:18.927Z</time>
      </trkpt>
      <trkpt lat="44.66507" lon="3.37084">
        <ele>1096.64</ele>
        <time>2024-11-05T11:17:24.424Z</time>
      </trkpt>
      <trkpt lat="44.66515" lon="3.37073">
        <ele>1096.22</ele>
        <time>2024-11-05T11:17:29.922Z</time>
      </trkpt>
      <trkpt lat="44.66527" lon="3.37066">
        <ele>1095.79</ele>
        <time>2024-11-05T11:17:35.422Z</time>
      </trkpt>
      <trkpt lat="44.66546" lon="3.37059">
        <ele>1095.33</ele>
        <time>2024-11-05T11:17:40.926Z</time>
      </trkpt>
      <trkpt lat="44.66565" lon="3.37053">
        <ele>1094.87</ele>
        <time>2024-11-05T11:17:46.433Z</time>
      </trkpt>
      <trkpt lat="44.66584" lon="3.37044">
        <ele>1094.45</ele>
        <time>2024-11-05T11:17:51.943Z</time>
      </trkpt>
      <trkpt lat="44.66599" lon="3.37031">
        <ele>1094.06</ele>
        <time>2024-11-05T11:17:57.456Z</time>
      </trkpt>
      <trkpt lat="44.66612" lon="3.37015">
        <ele>1093.66</ele>
        <time>2024-11-05T11:18:02.971Z</time>
      </trkpt>
      <trkpt lat="44.66623" lon="3.36991">
        <ele>1093.31</ele>
        <time>2024-11-05T11:18:08.490Z</time>
      </trkpt>
      <trkpt lat="44.66628" lon="3.36969">
        <ele>1092.96</ele>
        <time>2024-11-05T11:18:14.011Z</time>
      </trkpt>
      <trkpt lat="44.66632" lon="3.36945">
        <ele>1092.6</ele>
        <time>2024-11-05T11:18:19.535Z</time>
      </trkpt>
      <trkpt lat="44.66632" lon="3.36922">
        <ele>1092.24</ele>
        <time>2024-11-05T11:18:25.062Z</time>
      </trkpt>
      <trkpt lat="44.66631" lon="3.36902">
        <ele>1091.9</ele>
        <time>2024-11-05T11:18:30.591Z</time>
      </trkpt>
      <trkpt lat="44.66625" lon="3.36873">
        <ele>1091.56</ele>
        <time>2024-11-05T11:18:36.124Z</time>
      </trkpt>
      <trkpt lat="44.66612" lon="3.36845">
        <ele>1091.26</ele>
        <time>2024-11-05T11:18:41.660Z</time>
      </trkpt>
      <trkpt lat="44.66599" lon="3.36817">
        <ele>1090.93</ele>
        <time>2024-11-05T11:18:47.200Z</time>
      </trkpt>
      <trkpt lat="44.66586" lon="3.36789">
        <ele>1090.61</ele>
        <time>2024-11-05T11:18:52.744Z</time>
      </trkpt>
      <trkpt lat="44.66577" lon="3.36756">
        <ele>1090.25</ele>
        <time>2024-11-05T11:18:58.292Z</time>
      </trkpt>
      <trkpt lat="44.66572" lon="3.36723">
        <ele>1090</ele>
        <time>2024-11-05T11:19:03.844Z</time>
      </trkpt>
      <trkpt lat="44.66567" lon="3.36691">
        <ele>1089.84</ele>
        <time>2024-11-05T11:19:09.400Z</time>
      </trkpt>
      <trkpt lat="44.66564" lon="3.3668">
        <ele>1089.65</ele>
        <time>2024-11-05T11:19:14.957Z</time>
      </trkpt>
      <trkpt lat="44.66551" lon="3.36657">
        <ele>1089.46</ele>
        <time>2024-11-05T11:19:20.517Z</time>
      </trkpt>
      <trkpt lat="44.66536" lon="3.36637">
        <ele>1089.22</ele>
        <time>2024-11-05T11:19:26.081Z</time>
      </trkpt>
      <trkpt lat="44.66521" lon="3.36616">
        <ele>1088.96</ele>
        <time>2024-11-05T11:19:31.648Z</time>
      </trkpt>
      <trkpt lat="44.66514" lon="3.36601">
        <ele>1088.74</ele>
        <time>2024-11-05T11:19:37.217Z</time>
      </trkpt>
      <trkpt lat="44.66511" lon="3.3659">
        <ele>1088.53</ele>
        <time>2024-11-05T11:19:42.787Z</time>
      </trkpt>
      <trkpt lat="44.66511" lon="3.36577">
        <ele>1088.34</ele>
        <time>2024-11-05T11:19:48.359Z</time>
      </trkpt>
      <trkpt lat="44.66515" lon="3.36563">
        <ele>1088.15</ele>
        <time>2024-11-05T11:19:53.933Z</time>
      </trkpt>
      <trkpt lat="44.66529" lon="3.36541">
        <ele>1088.01</ele>
        <time>2024-11-05T11:19:59.510Z</time>
      </trkpt>
      <trkpt lat="44.66554" lon="3.36522">
        <ele>1087.92</ele>
        <time>2024-11-05T11:20:05.092Z</time>
      </trkpt>
      <trkpt lat="44.66579" lon="3.36502">
        <ele>1087.73</ele>
        <time>2024-11-05T11:20:10.678Z</time>
      </trkpt>
      <trkpt lat="44.66603" lon="3.36482">
        <ele>1087.5</ele>
        <time>2024-11-05T11:20:16.269Z</time>
      </trkpt>
      <trkpt lat="44.66628" lon="3.36463">
        <ele>1087.22</ele>
        <time>2024-11-05T11:20:21.864Z</time>
      </trkpt>
      <trkpt lat="44.66644" lon="3.36441">
        <ele>1086.99</ele>
        <time>2024-11-05T11:20:27.463Z</time>
      </trkpt>
      <trkpt lat="44.66651" lon="3.36422">
        <ele>1086.84</ele>
        <time>2024-11-05T11:20:33.064Z</time>
      </trkpt>
      <trkpt lat="44.66653" lon="3.36402">
        <ele>1086.71</ele>
        <time>2024-11-05T11:20:38.667Z</time>
      </trkpt>
      <trkpt lat="44.66652" lon="3.36381">
        <ele>1086.59</ele>
        <time>2024-11-05T11:20:44.273Z</time>
      </trkpt>
      <trkpt lat="44.66641" lon="3.3635">
        <ele>1086.42</ele>
        <time>2024-11-05T11:20:49.883Z</time>
      </trkpt>
      <trkpt lat="44.66625" lon="3.3632">
        <ele>1086.21</ele>
        <time>2024-11-05T11:20:55.497Z</time>
      </trkpt>
      <trkpt lat="44.66609" lon="3.3629">
        <ele>1086</ele>
        <time>2024-11-05T11:21:01.115Z</time>
      </trkpt>
      <trkpt lat="44.66593" lon="3.3626">
        <ele>1085.82</ele>
        <time>2024-11-05T11:21:06.738Z</time>
      </trkpt>
      <trkpt lat="44.66593" lon="3.3626">
        <ele>1085.65</ele>
        <time>2024-11-05T11:21:12.361Z</time>
      </trkpt>
      <trkpt lat="44.66578" lon="3.36231">
        <ele>1085.48</ele>
        <time>2024-11-05T11:21:17.988Z</time>
      </trkpt>
      <trkpt lat="44.66564" lon="3.36201">
        <ele>1085.31</ele>
        <time>2024-11-05T11:21:23.619Z</time>
      </trkpt>
      <trkpt lat="44.66549" lon="3.36172">
        <ele>1085.15</ele>
        <time>2024-11-05T11:21:29.254Z</time>
      </trkpt>
      <trkpt lat="44.66535" lon="3.36142">
        <ele>1085</ele>
        <time>2024-11-05T11:21:34.893Z</time>
      </trkpt>
      <trkpt lat="44.66521" lon="3.36113">
        <ele>1084.8</ele>
        <time>2024-11-05T11:21:40.536Z</time>
      </trkpt>
      <trkpt lat="44.66513" lon="3.36092">
        <ele>1084.59</ele>
        <time>2024-11-05T11:21:46.182Z</time>
      </trkpt>
      <trkpt lat="44.66506" lon="3.36064">
        <ele>1084.37</ele>
        <time>2024-11-05T11:21:51.831Z</time>
      </trkpt>
      <trkpt lat="44.66498" lon="3.36036">
        <ele>1084.12</ele>
        <time>2024-11-05T11:21:57.484Z</time>
      </trkpt>
      <trkpt lat="44.66492" lon="3.36006">
        <ele>1083.88</ele>
        <time>2024-11-05T11:22:03.140Z</time>
      </trkpt>
      <trkpt lat="44.66485" lon="3.35976">
        <ele>1083.67</ele>
        <time>2024-11-05T11:22:08.800Z</time>
      </trkpt>
      <trkpt lat="44.66482" lon="3.3594">
        <ele>1083.51</ele>
        <time>2024-11-05T11:22:14.464Z</time>
      </trkpt>
      <trkpt lat="44.66479" lon="3.35905">
        <ele>1083.35</ele>
        <time>2024-11-05T11:22:20.132Z</time>
      </trkpt>
      <trkpt lat="44.66479" lon="3.35879">
        <ele>1083.19</ele>
        <time>2024-11-05T11:22:25.803Z</time>
      </trkpt>
      <trkpt lat="44.66479" lon="3.35853">
        <ele>1083.01</ele>
        <time>2024-11-05T11:22:31.477Z</time>
      </trkpt>
      <trkpt lat="44.6648" lon="3.35822">
        <ele>1082.84</ele>
        <time>2024-11-05T11:22:37.154Z</time>
      </trkpt>
      <trkpt lat="44.66482" lon="3.35791">
        <ele>1082.67</ele>
        <time>2024-11-05T11:22:42.835Z</time>
      </trkpt>
      <trkpt lat="44.66484" lon="3.35754">
        <ele>1082.5</ele>
        <time>2024-11-05T11:22:48.520Z</time>
      </trkpt>
      <trkpt lat="44.66485" lon="3.35716">
        <ele>1082.3</ele>
        <time>2024-11-05T11:22:54.209Z</time>
      </trkpt>
      <trkpt lat="44.66487" lon="3.35679">
        <ele>1082.09</ele>
        <time>2024-11-05T11:22:59.903Z</time>
      </trkpt>
      <trkpt lat="44.66489" lon="3.35642">
        <ele>1081.92</ele>
        <time>2024-11-05T11:23:05.601Z</time>
      </trkpt>
      <trkpt lat="44.66485" lon="3.35604">
        <ele>1081.79</ele>
        <time>2024-11-05T11:23:11.303Z</time>
      </trkpt>
      <trkpt lat="44.66482" lon="3.35567">
        <ele>1081.63</ele>
        <time>2024-11-05T11:23:17.010Z</time>
      </trkpt>
      <trkpt lat="44.66481" lon="3.35527">
        <ele>1081.51</ele>
        <time>2024-11-05T11:23:22.721Z</time>
      </trkpt>
      <trkpt lat="44.66475" lon="3.35499">
        <ele>1081.41</ele>
        <time>2024-11-05T11:23:28.435Z</time>
      </trkpt>
      <trkpt lat="44.66461" lon="3.35461">
        <ele>1081.27</ele>
        <time>2024-11-05T11:23:34.154Z</time>
      </trkpt>
      <trkpt lat="44.66445" lon="3.35426">
        <ele>1081.15</ele>
        <time>2024-11-05T11:23:39.878Z</time>
      </trkpt>
      <trkpt lat="44.6643" lon="3.35403">
        <ele>1081.05</ele>
        <time>2024-11-05T11:23:45.606Z</time>
      </trkpt>
      <trkpt lat="44.66416" lon="3.35381">
        <ele>1080.92</ele>
        <time>2024-11-05T11:23:51.337Z</time>
      </trkpt>
      <trkpt lat="44.66402" lon="3.35358">
        <ele>1080.78</ele>
        <time>2024-11-05T11:23:57.071Z</time>
      </trkpt>
      <trkpt lat="44.66386" lon="3.35331">
        <ele>1080.63</ele>
        <time>2024-11-05T11:24:02.809Z</time>
      </trkpt>
      <trkpt lat="44.66372" lon="3.35298">
        <ele>1080.56</ele>
        <time>2024-11-05T11:24:08.552Z</time>
      </trkpt>
      <trkpt lat="44.66358" lon="3.35265">
        <ele>1080.51</ele>
        <time>2024-11-05T11:24:14.299Z</time>
      </trkpt>
      <trkpt lat="44.66345" lon="3.35232">
        <ele>1080.44</ele>
        <time>2024-11-05T11:24:20.051Z</time>
      </trkpt>
      <trkpt lat="44.66337" lon="3.3521">
        <ele>1080.41</ele>
        <time>2024-11-05T11:24:25.805Z</time>
      </trkpt>
      <trkpt lat="44.6633" lon="3.35188">
        <ele>1080.39</ele>
        <time>2024-11-05T11:24:31.562Z</time>
      </trkpt>
      <trkpt lat="44.66324" lon="3.35167">
        <ele>1080.38</ele>
        <time>2024-11-05T11:24:37.322Z</time>
      </trkpt>
      <trkpt lat="44.66319" lon="3.35145">
        <ele>1080.42</ele>
        <time>2024-11-05T11:24:43.084Z</time>
      </trkpt>
      <trkpt lat="44.66315" lon="3.3512">
        <ele>1080.46</ele>
        <time>2024-11-05T11:24:48.849Z</time>
      </trkpt>
      <trkpt lat="44.6631" lon="3.35095">
        <ele>1080.52</ele>
        <time>2024-11-05T11:24:54.617Z</time>
      </trkpt>
      <trkpt lat="44.66308" lon="3.35053">
        <ele>1080.59</ele>
        <time>2024-11-05T11:25:00.390Z</time>
      </trkpt>
      <trkpt lat="44.66306" lon="3.35012">
        <ele>1080.71</ele>
        <time>2024-11-05T11:25:06.168Z</time>
      </trkpt>
      <trkpt lat="44.66304" lon="3.3497">
        <ele>1080.88</ele>
        <time>2024-11-05T11:25:11.951Z</time>
      </trkpt>
      <trkpt lat="44.66302" lon="3.34929">
        <ele>1081.01</ele>
        <time>2024-11-05T11:25:17.738Z</time>
      </trkpt>
      <trkpt lat="44.66298" lon="3.34896">
        <ele>1081.13</ele>
        <time>2024-11-05T11:25:23.529Z</time>
      </trkpt>
      <trkpt lat="44.66294" lon="3.34863">
        <ele>1081.28</ele>
        <time>2024-11-05T11:25:29.324Z</time>
      </trkpt>
      <trkpt lat="44.66292" lon="3.34821">
        <ele>1081.45</ele>
        <time>2024-11-05T11:25:35.124Z</time>
      </trkpt>
      <trkpt lat="44.66289" lon="3.34779">
        <ele>1081.62</ele>
        <time>2024-11-05T11:25:40.929Z</time>
      </trkpt>
      <trkpt lat="44.66287" lon="3.34737">
        <ele>1081.76</ele>
        <time>2024-11-05T11:25:46.738Z</time>
      </trkpt>
      <trkpt lat="44.66287" lon="3.34711">
        <ele>1081.9</ele>
        <time>2024-11-05T11:25:52.550Z</time>
      </trkpt>
      <trkpt lat="44.66287" lon="3.34686">
        <ele>1082.04</ele>
        <time>2024-11-05T11:25:58.365Z</time>
      </trkpt>
      <trkpt lat="44.66284" lon="3.34651">
        <ele>1082.19</ele>
        <time>2024-11-05T11:26:04.184Z</time>
      </trkpt>
      <trkpt lat="44.66276" lon="3.34611">
        <ele>1082.33</ele>
        <time>2024-11-05T11:26:10.008Z</time>
      </trkpt>
      <trkpt lat="44.66269" lon="3.34571">
        <ele>1082.47</ele>
        <time>2024-11-05T11:26:15.837Z</time>
      </trkpt>
      <trkpt lat="44.66263" lon="3.34534">
        <ele>1082.6</ele>
        <time>2024-11-05T11:26:21.670Z</time>
      </trkpt>
      <trkpt lat="44.66257" lon="3.34496">
        <ele>1082.68</ele>
        <time>2024-11-05T11:26:27.507Z</time>
      </trkpt>
      <trkpt lat="44.66251" lon="3.34459">
        <ele>1082.7</ele>
        <time>2024-11-05T11:26:33.349Z</time>
      </trkpt>
      <trkpt lat="44.66245" lon="3.34422">
        <ele>1082.72</ele>
        <time>2024-11-05T11:26:39.195Z</time>
      </trkpt>
      <trkpt lat="44.6624" lon="3.34385">
        <ele>1082.76</ele>
        <time>2024-11-05T11:26:45.045Z</time>
      </trkpt>
      <trkpt lat="44.66229" lon="3.3435">
        <ele>1082.82</ele>
        <time>2024-11-05T11:26:50.900Z</time>
      </trkpt>
      <trkpt lat="44.66217" lon="3.34322">
        <ele>1082.9</ele>
        <time>2024-11-05T11:26:56.758Z</time>
      </trkpt>
      <trkpt lat="44.66205" lon="3.34302">
        <ele>1082.96</ele>
        <time>2024-11-05T11:27:02.619Z</time>
      </trkpt>
      <trkpt lat="44.66188" lon="3.34281">
        <ele>1083.03</ele>
        <time>2024-11-05T11:27:08.484Z</time>
      </trkpt>
      <trkpt lat="44.6617" lon="3.3426">
        <ele>1083.12</ele>
        <time>2024-11-05T11:27:14.353Z</time>
      </trkpt>
      <trkpt lat="44.66154" lon="3.34245">
        <ele>1083.2</ele>
        <time>2024-11-05T11:27:20.225Z</time>
      </trkpt>
      <trkpt lat="44.66139" lon="3.34229">
        <ele>1083.27</ele>
        <time>2024-11-05T11:27:26.100Z</time>
      </trkpt>
      <trkpt lat="44.66124" lon="3.34215">
        <ele>1083.34</ele>
        <time>2024-11-05T11:27:31.978Z</time>
      </trkpt>
      <trkpt lat="44.6611" lon="3.342">
        <ele>1083.38</ele>
        <time>2024-11-05T11:27:37.859Z</time>
      </trkpt>
      <trkpt lat="44.66085" lon="3.34175">
        <ele>1083.41</ele>
        <time>2024-11-05T11:27:43.744Z</time>
      </trkpt>
      <trkpt lat="44.66061" lon="3.3415">
        <ele>1083.41</ele>
        <time>2024-11-05T11:27:49.634Z</time>
      </trkpt>
      <trkpt lat="44.66036" lon="3.34125">
        <ele>1083.38</ele>
        <time>2024-11-05T11:27:55.529Z</time>
      </trkpt>
      <trkpt lat="44.66012" lon="3.341">
        <ele>1083.31</ele>
        <time>2024-11-05T11:28:01.429Z</time>
      </trkpt>
      <trkpt lat="44.65987" lon="3.34076">
        <ele>1083.23</ele>
        <time>2024-11-05T11:28:07.334Z</time>
      </trkpt>
      <trkpt lat="44.65964" lon="3.34053">
        <ele>1083.18</ele>
        <time>2024-11-05T11:28:13.243Z</time>
      </trkpt>
      <trkpt lat="44.6594" lon="3.34031">
        <ele>1083.13</ele>
        <time>2024-11-05T11:28:19.157Z</time>
      </trkpt>
      <trkpt lat="44.65916" lon="3.34009">
        <ele>1083.03</ele>
        <time>2024-11-05T11:28:25.076Z</time>
      </trkpt>
      <trkpt lat="44.65892" lon="3.33986">
        <ele>1082.92</ele>
        <time>2024-11-05T11:28:30.999Z</time>
      </trkpt>
      <trkpt lat="44.65869" lon="3.33964">
        <ele>1082.81</ele>
        <time>2024-11-05T11:28:36.927Z</time>
      </trkpt>
      <trkpt lat="44.65845" lon="3.33942">
        <ele>1082.68</ele>
        <time>2024-11-05T11:28:42.859Z</time>
      </trkpt>
      <trkpt lat="44.65832" lon="3.33927">
        <ele>1082.55</ele>
        <time>2024-11-05T11:28:48.794Z</time>
      </trkpt>
      <trkpt lat="44.65819" lon="3.33913">
        <ele>1082.42</ele>
        <time>2024-11-05T11:28:54.732Z</time>
      </trkpt>
      <trkpt lat="44.65808" lon="3.33893">
        <ele>1082.31</ele>
        <time>2024-11-05T11:29:00.672Z</time>
      </trkpt>
      <trkpt lat="44.65799" lon="3.33873">
        <ele>1082.18</ele>
        <time>2024-11-05T11:29:06.615Z</time>
      </trkpt>
      <trkpt lat="44.65789" lon="3.33839">
        <ele>1082.03</ele>
        <time>2024-11-05T11:29:12.562Z</time>
      </trkpt>
      <trkpt lat="44.6578" lon="3.33804">
        <ele>1081.89</ele>
        <time>2024-11-05T11:29:18.513Z</time>
      </trkpt>
      <trkpt lat="44.6577" lon="3.3377">
        <ele>1081.77</ele>
        <time>2024-11-05T11:29:24.469Z</time>
      </trkpt>
      <trkpt lat="44.65761" lon="3.33736">
        <ele>1081.67</ele>
        <time>2024-11-05T11:29:30.429Z</time>
      </trkpt>
      <trkpt lat="44.65751" lon="3.33702">
        <ele>1081.56</ele>
        <time>2024-11-05T11:29:36.393Z</time>
      </trkpt>
      <trkpt lat="44.65744" lon="3.33664">
        <ele>1081.46</ele>
        <time>2024-11-05T11:29:42.362Z</time>
      </trkpt>
      <trkpt lat="44.65737" lon="3.33626">
        <ele>1081.37</ele>
        <time>2024-11-05T11:29:48.335Z</time>
      </trkpt>
      <trkpt lat="44.6573" lon="3.33588">
        <ele>1081.26</ele>
        <time>2024-11-05T11:29:54.313Z</time>
      </trkpt>
      <trkpt lat="44.65722" lon="3.3355">
        <ele>1081.13</ele>
        <time>2024-11-05T11:30:00.295Z</time>
      </trkpt>
      <trkpt lat="44.65712" lon="3.33511">
        <ele>1081</ele>
        <time>2024-11-05T11:30:06.282Z</time>
      </trkpt>
      <trkpt lat="44.65701" lon="3.33473">
        <ele>1080.85</ele>
        <time>2024-11-05T11:30:12.273Z</time>
      </trkpt>
      <trkpt lat="44.65701" lon="3.33473">
        <ele>1080.76</ele>
        <time>2024-11-05T11:30:18.264Z</time>
      </trkpt>
      <trkpt lat="44.65693" lon="3.33441">
        <ele>1080.66</ele>
        <time>2024-11-05T11:30:24.259Z</time>
      </trkpt>
      <trkpt lat="44.65685" lon="3.3341">
        <ele>1080.59</ele>
        <time>2024-11-05T11:30:30.258Z</time>
      </trkpt>
      <trkpt lat="44.65677" lon="3.33378">
        <ele>1080.56</ele>
        <time>2024-11-05T11:30:36.261Z</time>
      </trkpt>
      <trkpt lat="44.65671" lon="3.33342">
        <ele>1080.51</ele>
        <time>2024-11-05T11:30:42.268Z</time>
      </trkpt>
      <trkpt lat="44.65667" lon="3.33299">
        <ele>1080.46</ele>
        <time>2024-11-05T11:30:48.280Z</time>
      </trkpt>
      <trkpt lat="44.65662" lon="3.33256">
        <ele>1080.4</ele>
        <time>2024-11-05T11:30:54.297Z</time>
      </trkpt>
      <trkpt lat="44.65658" lon="3.33214">
        <ele>1080.32</ele>
        <time>2024-11-05T11:31:00.319Z</time>
      </trkpt>
      <trkpt lat="44.65653" lon="3.33171">
        <ele>1080.29</ele>
        <time>2024-11-05T11:31:06.346Z</time>
      </trkpt>
      <trkpt lat="44.65649" lon="3.33128">
        <ele>1080.36</ele>
        <time>2024-11-05T11:31:12.378Z</time>
      </trkpt>
      <trkpt lat="44.65644" lon="3.33086">
        <ele>1080.48</ele>
        <time>2024-11-05T11:31:18.415Z</time>
      </trkpt>
      <trkpt lat="44.65637" lon="3.33053">
        <ele>1080.58</ele>
        <time>2024-11-05T11:31:24.456Z</time>
      </trkpt>
      <trkpt lat="44.65627" lon="3.33021">
        <ele>1080.65</ele>
        <time>2024-11-05T11:31:30.501Z</time>
      </trkpt>
      <trkpt lat="44.65613" lon="3.33004">
        <ele>1080.73</ele>
        <time>2024-11-05T11:31:36.549Z</time>
      </trkpt>
      <trkpt lat="44.65599" lon="3.32972">
        <ele>1080.87</ele>
        <time>2024-11-05T11:31:42.601Z</time>
      </trkpt>
      <trkpt lat="44.65584" lon="3.32941">
        <ele>1081.02</ele>
        <time>2024-11-05T11:31:48.657Z</time>
      </trkpt>
      <trkpt lat="44.65572" lon="3.32922">
        <ele>1081.18</ele>
        <time>2024-11-05T11:31:54.716Z</time>
      </trkpt>
      <trkpt lat="44.6556" lon="3.32904">
        <ele>1081.37</ele>
        <time>2024-11-05T11:32:00.778Z</time>
      </trkpt>
      <trkpt lat="44.65548" lon="3.32889">
        <ele>1081.58</ele>
        <time>2024-11-05T11:32:06.843Z</time>
      </trkpt>
      <trkpt lat="44.65535" lon="3.32874">
        <ele>1081.83</ele>
        <time>2024-11-05T11:32:12.910Z</time>
      </trkpt>
      <trkpt lat="44.65514" lon="3.32865">
        <ele>1082.1</ele>
        <time>2024-11-05T11:32:18.981Z</time>
      </trkpt>
      <trkpt lat="44.65493" lon="3.32856">
        <ele>1082.41</ele>
        <time>2024-11-05T11:32:25.055Z</time>
      </trkpt>
      <trkpt lat="44.65463" lon="3.32847">
        <ele>1082.72</ele>
        <time>2024-11-05T11:32:31.134Z</time>
      </trkpt>
      <trkpt lat="44.65432" lon="3.32839">
        <ele>1082.95</ele>
        <time>2024-11-05T11:32:37.218Z</time>
      </trkpt>
      <trkpt lat="44.65402" lon="3.32831">
        <ele>1083.15</ele>
        <time>2024-11-05T11:32:43.307Z</time>
      </trkpt>
      <trkpt lat="44.65372" lon="3.32822">
        <ele>1083.42</ele>
        <time>2024-11-05T11:32:49.401Z</time>
      </trkpt>
      <trkpt lat="44.65342" lon="3.32814">
        <ele>1083.78</ele>
        <time>2024-11-05T11:32:55.500Z</time>
      </trkpt>
      <trkpt lat="44.65316" lon="3.32803">
        <ele>1084.14</ele>
        <time>2024-11-05T11:33:01.603Z</time>
      </trkpt>
      <trkpt lat="44.65291" lon="3.32792">
        <ele>1084.5</ele>
        <time>2024-11-05T11:33:07.710Z</time>
      </trkpt>
      <trkpt lat="44.6527" lon="3.3278">
        <ele>1084.86</ele>
        <time>2024-11-05T11:33:13.821Z</time>
      </trkpt>
      <trkpt lat="44.6525" lon="3.32768">
        <ele>1085.24</ele>
        <time>2024-11-05T11:33:19.936Z</time>
      </trkpt>
      <trkpt lat="44.65229" lon="3.32756">
        <ele>1085.62</ele>
        <time>2024-11-05T11:33:26.054Z</time>
      </trkpt>
      <trkpt lat="44.65209" lon="3.32737">
        <ele>1086.03</ele>
        <time>2024-11-05T11:33:32.176Z</time>
      </trkpt>
      <trkpt lat="44.65189" lon="3.32718">
        <ele>1086.48</ele>
        <time>2024-11-05T11:33:38.302Z</time>
      </trkpt>
      <trkpt lat="44.65169" lon="3.32699">
        <ele>1086.92</ele>
        <time>2024-11-05T11:33:44.432Z</time>
      </trkpt>
      <trkpt lat="44.65148" lon="3.32681">
        <ele>1087.35</ele>
        <time>2024-11-05T11:33:50.566Z</time>
      </trkpt>
      <trkpt lat="44.65128" lon="3.32662">
        <ele>1087.8</ele>
        <time>2024-11-05T11:33:56.704Z</time>
      </trkpt>
      <trkpt lat="44.65107" lon="3.32644">
        <ele>1088.28</ele>
        <time>2024-11-05T11:34:02.845Z</time>
      </trkpt>
      <trkpt lat="44.65086" lon="3.32625">
        <ele>1088.78</ele>
        <time>2024-11-05T11:34:08.990Z</time>
      </trkpt>
      <trkpt lat="44.65061" lon="3.32606">
        <ele>1089.28</ele>
        <time>2024-11-05T11:34:15.140Z</time>
      </trkpt>
      <trkpt lat="44.65035" lon="3.32586">
        <ele>1089.74</ele>
        <time>2024-11-05T11:34:21.295Z</time>
      </trkpt>
      <trkpt lat="44.65009" lon="3.32567">
        <ele>1090.23</ele>
        <time>2024-11-05T11:34:27.454Z</time>
      </trkpt>
      <trkpt lat="44.64984" lon="3.32555">
        <ele>1090.76</ele>
        <time>2024-11-05T11:34:33.618Z</time>
      </trkpt>
      <trkpt lat="44.64958" lon="3.32542">
        <ele>1091.32</ele>
        <time>2024-11-05T11:34:39.786Z</time>
      </trkpt>
      <trkpt lat="44.64933" lon="3.3253">
        <ele>1091.9</ele>
        <time>2024-11-05T11:34:45.958Z</time>
      </trkpt>
      <trkpt lat="44.64907" lon="3.3252">
        <ele>1092.52</ele>
        <time>2024-11-05T11:34:52.135Z</time>
      </trkpt>
      <trkpt lat="44.64882" lon="3.3251">
        <ele>1093.15</ele>
        <time>2024-11-05T11:34:58.316Z</time>
      </trkpt>
      <trkpt lat="44.64856" lon="3.32501">
        <ele>1093.82</ele>
        <time>2024-11-05T11:35:04.501Z</time>
      </trkpt>
      <trkpt lat="44.64831" lon="3.32491">
        <ele>1094.51</ele>
        <time>2024-11-05T11:35:10.690Z</time>
      </trkpt>
      <trkpt lat="44.64808" lon="3.32485">
        <ele>1095.18</ele>
        <time>2024-11-05T11:35:16.883Z</time>
      </trkpt>
      <trkpt lat="44.64784" lon="3.32479">
        <ele>1095.84</ele>
        <time>2024-11-05T11:35:23.080Z</time>
      </trkpt>
      <trkpt lat="44.64761" lon="3.32473">
        <ele>1096.58</ele>
        <time>2024-11-05T11:35:29.281Z</time>
      </trkpt>
      <trkpt lat="44.64734" lon="3.32463">
        <ele>1097.35</ele>
        <time>2024-11-05T11:35:35.486Z</time>
      </trkpt>
      <trkpt lat="44.64706" lon="3.32454">
        <ele>1098.12</ele>
        <time>2024-11-05T11:35:41.696Z</time>
      </trkpt>
      <trkpt lat="44.64679" lon="3.32445">
        <ele>1098.86</ele>
        <time>2024-11-05T11:35:47.910Z</time>
      </trkpt>
      <trkpt lat="44.64666" lon="3.32443">
        <ele>1099.62</ele>
        <time>2024-11-05T11:35:54.126Z</time>
      </trkpt>
      <trkpt lat="44.64641" lon="3.32438">
        <ele>1100.42</ele>
        <time>2024-11-05T11:36:00.346Z</time>
      </trkpt>
      <trkpt lat="44.64616" lon="3.32434">
        <ele>1101.21</ele>
        <time>2024-11-05T11:36:06.570Z</time>
      </trkpt>
      <trkpt lat="44.64592" lon="3.3243">
        <ele>1101.98</ele>
        <time>2024-11-05T11:36:12.798Z</time>
      </trkpt>
      <trkpt lat="44.64567" lon="3.32426">
        <ele>1102.74</ele>
        <time>2024-11-05T11:36:19.030Z</time>
      </trkpt>
      <trkpt lat="44.64538" lon="3.32423">
        <ele>1103.48</ele>
        <time>2024-11-05T11:36:25.267Z</time>
      </trkpt>
      <trkpt lat="44.64509" lon="3.32421">
        <ele>1104.26</ele>
        <time>2024-11-05T11:36:31.508Z</time>
      </trkpt>
      <trkpt lat="44.6448" lon="3.32419">
        <ele>1105.08</ele>
        <time>2024-11-05T11:36:37.754Z</time>
      </trkpt>
      <trkpt lat="44.6445" lon="3.32426">
        <ele>1105.92</ele>
        <time>2024-11-05T11:36:44.005Z</time>
      </trkpt>
      <trkpt lat="44.64436" lon="3.32435">
        <ele>1106.71</ele>
        <time>2024-11-05T11:36:50.259Z</time>
      </trkpt>
      <trkpt lat="44.64421" lon="3.32445">
        <ele>1107.51</ele>
        <time>2024-11-05T11:36:56.515Z</time>
      </trkpt>
      <trkpt lat="44.64402" lon="3.32453">
        <ele>1108.31</ele>
        <time>2024-11-05T11:37:02.774Z</time>
      </trkpt>
      <trkpt lat="44.64382" lon="3.32461">
        <ele>1109.06</ele>
        <time>2024-11-05T11:37:09.037Z</time>
      </trkpt>
      <trkpt lat="44.6436" lon="3.32459">
        <ele>1109.75</ele>
        <time>2024-11-05T11:37:15.303Z</time>
      </trkpt>
      <trkpt lat="44.64332" lon="3.32456">
        <ele>1110.42</ele>
        <time>2024-11-05T11:37:21.574Z</time>
      </trkpt>
      <trkpt lat="44.64305" lon="3.32452">
        <ele>1111.06</ele>
        <time>2024-11-05T11:37:27.849Z</time>
      </trkpt>
      <trkpt lat="44.64277" lon="3.32449">
        <ele>1111.71</ele>
        <time>2024-11-05T11:37:34.128Z</time>
      </trkpt>
      <trkpt lat="44.64249" lon="3.32446">
        <ele>1112.4</ele>
        <time>2024-11-05T11:37:40.412Z</time>
      </trkpt>
      <trkpt lat="44.6422" lon="3.32454">
        <ele>1113.11</ele>
        <time>2024-11-05T11:37:46.701Z</time>
      </trkpt>
      <trkpt lat="44.64191" lon="3.32463">
        <ele>1113.79</ele>
        <time>2024-11-05T11:37:52.994Z</time>
      </trkpt>
      <trkpt lat="44.6417" lon="3.32468">
        <ele>1114.33</ele>
        <time>2024-11-05T11:37:59.291Z</time>
      </trkpt>
      <trkpt lat="44.64147" lon="3.32473">
        <ele>1114.86</ele>
        <time>2024-11-05T11:38:05.592Z</time>
      </trkpt>
      <trkpt lat="44.6412" lon="3.32472">
        <ele>1115.42</ele>
        <time>2024-11-05T11:38:11.897Z</time>
      </trkpt>
      <trkpt lat="44.64092" lon="3.32472">
        <ele>1115.9</ele>
        <time>2024-11-05T11:38:18.206Z</time>
      </trkpt>
      <trkpt lat="44.64067" lon="3.32466">
        <ele>1116.29</ele>
        <time>2024-11-05T11:38:24.519Z</time>
      </trkpt>
      <trkpt lat="44.64042" lon="3.32461">
        <ele>1116.64</ele>
        <time>2024-11-05T11:38:30.836Z</time>
      </trkpt>
      <trkpt lat="44.64021" lon="3.32449">
        <ele>1117.01</ele>
        <time>2024-11-05T11:38:37.157Z</time>
      </trkpt>
      <trkpt lat="44.64001" lon="3.32436">
        <ele>1117.31</ele>
        <time>2024-11-05T11:38:43.482Z</time>
      </trkpt>
      <trkpt lat="44.63979" lon="3.32419">
        <ele>1117.54</ele>
        <time>2024-11-05T11:38:49.811Z</time>
      </trkpt>
      <trkpt lat="44.63958" lon="3.32401">
        <ele>1117.72</ele>
        <time>2024-11-05T11:38:56.144Z</time>
      </trkpt>
      <trkpt lat="44.63937" lon="3.32377">
        <ele>1117.83</ele>
        <time>2024-11-05T11:39:02.481Z</time>
      </trkpt>
      <trkpt lat="44.63917" lon="3.32353">
        <ele>1117.85</ele>
        <time>2024-11-05T11:39:08.822Z</time>
      </trkpt>
      <trkpt lat="44.639" lon="3.3233">
        <ele>1117.82</ele>
        <time>2024-11-05T11:39:15.167Z</time>
      </trkpt>
      <trkpt lat="44.63883" lon="3.32308">
        <ele>1117.77</ele>
        <time>2024-11-05T11:39:21.516Z</time>
      </trkpt>
      <trkpt lat="44.63866" lon="3.32286">
        <ele>1117.68</ele>
        <time>2024-11-05T11:39:27.868Z</time>
      </trkpt>
      <trkpt lat="44.63849" lon="3.32258">
        <ele>1117.56</ele>
        <time>2024-11-05T11:39:34.225Z</time>
      </trkpt>
      <trkpt lat="44.63831" lon="3.32231">
        <ele>1117.39</ele>
        <time>2024-11-05T11:39:40.586Z</time>
      </trkpt>
      <trkpt lat="44.63814" lon="3.32203">
        <ele>1117.2</ele>
        <time>2024-11-05T11:39:46.951Z</time>
      </trkpt>
      <trkpt lat="44.63814" lon="3.32203">
        <ele>1116.97</ele>
        <time>2024-11-05T11:39:53.316Z</time>
      </trkpt>
      <trkpt lat="44.63794" lon="3.32176">
        <ele>1116.72</ele>
        <time>2024-11-05T11:39:59.685Z</time>
      </trkpt>
      <trkpt lat="44.63774" lon="3.32149">
        <ele>1116.4</ele>
        <time>2024-11-05T11:40:06.059Z</time>
      </trkpt>
      <trkpt lat="44.63754" lon="3.32122">
        <ele>1116.03</ele>
        <time>2024-11-05T11:40:12.437Z</time>
      </trkpt>
      <trkpt lat="44.63734" lon="3.32095">
        <ele>1115.59</ele>
        <time>2024-11-05T11:40:18.820Z</time>
      </trkpt>
      <trkpt lat="44.63714" lon="3.32068">
        <ele>1115.13</ele>
        <time>2024-11-05T11:40:25.207Z</time>
      </trkpt>
      <trkpt lat="44.63693" lon="3.32037">
        <ele>1114.6</ele>
        <time>2024-11-05T11:40:31.599Z</time>
      </trkpt>
      <trkpt lat="44.63672" lon="3.32006">
        <ele>1114</ele>
        <time>2024-11-05T11:40:37.996Z</time>
      </trkpt>
      <trkpt lat="44.63651" lon="3.31974">
        <ele>1113.47</ele>
        <time>2024-11-05T11:40:44.398Z</time>
      </trkpt>
      <trkpt lat="44.6363" lon="3.31943">
        <ele>1112.92</ele>
        <time>2024-11-05T11:40:50.805Z</time>
      </trkpt>
      <trkpt lat="44.63609" lon="3.31912">
        <ele>1112.32</ele>
        <time>2024-11-05T11:40:57.217Z</time>
      </trkpt>
      <trkpt lat="44.63597" lon="3.31886">
        <ele>1111.68</ele>
        <time>2024-11-05T11:41:03.632Z</time>
      </trkpt>
      <trkpt lat="44.63585" lon="3.31861">
        <ele>1111.04</ele>
        <time>2024-11-05T11:41:10.051Z</time>
      </trkpt>
      <trkpt lat="44.63585" lon="3.31861">
        <ele>1110.43</ele>
        <time>2024-11-05T11:41:16.470Z</time>
      </trkpt>
      <trkpt lat="44.63571" lon="3.31834">
        <ele>1109.8</ele>
        <time>2024-11-05T11:41:22.892Z</time>
      </trkpt>
      <trkpt lat="44.63557" lon="3.31807">
        <ele>1109.18</ele>
        <time>2024-11-05T11:41:29.318Z</time>
      </trkpt>
      <trkpt lat="44.63543" lon="3.3178">
        <ele>1108.58</ele>
        <time>2024-11-05T11:41:35.748Z</time>
      </trkpt>
      <trkpt lat="44.6353" lon="3.31753">
        <ele>1107.93</ele>
        <time>2024-11-05T11:41:42.182Z</time>
      </trkpt>
      <trkpt lat="44.63509" lon="3.3172">
        <ele>1107.26</ele>
        <time>2024-11-05T11:41:48.621Z</time>
      </trkpt>
      <trkpt lat="44.63489" lon="3.31686">
        <ele>1106.53</ele>
        <time>2024-11-05T11:41:55.065Z</time>
      </trkpt>
      <trkpt lat="44.63469" lon="3.31653">
        <ele>1105.77</ele>
        <time>2024-11-05T11:42:01.514Z</time>
      </trkpt>
      <trkpt lat="44.63464" lon="3.31636">
        <ele>1104.99</ele>
        <time>2024-11-05T11:42:07.965Z</time>
      </trkpt>
      <trkpt lat="44.63466" lon="3.31597">
        <ele>1104.14</ele>
        <time>2024-11-05T11:42:14.420Z</time>
      </trkpt>
      <trkpt lat="44.63468" lon="3.31558">
        <ele>1103.3</ele>
        <time>2024-11-05T11:42:20.880Z</time>
      </trkpt>
      <trkpt lat="44.63469" lon="3.31519">
        <ele>1102.49</ele>
        <time>2024-11-05T11:42:27.344Z</time>
      </trkpt>
      <trkpt lat="44.63471" lon="3.3148">
        <ele>1101.66</ele>
        <time>2024-11-05T11:42:33.813Z</time>
      </trkpt>
      <trkpt lat="44.63473" lon="3.31442">
        <ele>1100.82</ele>
        <time>2024-11-05T11:42:40.286Z</time>
      </trkpt>
      <trkpt lat="44.63476" lon="3.31405">
        <ele>1099.97</ele>
        <time>2024-11-05T11:42:46.763Z</time>
      </trkpt>
      <trkpt lat="44.63479" lon="3.31369">
        <ele>1099.08</ele>
        <time>2024-11-05T11:42:53.245Z</time>
      </trkpt>
      <trkpt lat="44.63477" lon="3.31338">
        <ele>1098.16</ele>
        <time>2024-11-05T11:42:59.730Z</time>
      </trkpt>
      <trkpt lat="44.63476" lon="3.31307">
        <ele>1097.23</ele>
        <time>2024-11-05T11:43:06.219Z</time>
      </trkpt>
      <trkpt lat="44.63471" lon="3.31288">
        <ele>1096.3</ele>
        <time>2024-11-05T11:43:12.710Z</time>
      </trkpt>
      <trkpt lat="44.63459" lon="3.31261">
        <ele>1095.37</ele>
        <time>2024-11-05T11:43:19.205Z</time>
      </trkpt>
      <trkpt lat="44.63447" lon="3.31235">
        <ele>1094.44</ele>
        <time>2024-11-05T11:43:25.703Z</time>
      </trkpt>
      <trkpt lat="44.63444" lon="3.3121">
        <ele>1093.5</ele>
        <time>2024-11-05T11:43:32.204Z</time>
      </trkpt>
      <trkpt lat="44.63453" lon="3.31186">
        <ele>1092.54</ele>
        <time>2024-11-05T11:43:38.708Z</time>
      </trkpt>
      <trkpt lat="44.63472" lon="3.3118">
        <ele>1091.52</ele>
        <time>2024-11-05T11:43:45.215Z</time>
      </trkpt>
      <trkpt lat="44.6349" lon="3.31173">
        <ele>1090.44</ele>
        <time>2024-11-05T11:43:51.725Z</time>
      </trkpt>
      <trkpt lat="44.63513" lon="3.3117">
        <ele>1089.32</ele>
        <time>2024-11-05T11:43:58.239Z</time>
      </trkpt>
      <trkpt lat="44.63537" lon="3.31167">
        <ele>1088.21</ele>
        <time>2024-11-05T11:44:04.757Z</time>
      </trkpt>
      <trkpt lat="44.63553" lon="3.31158">
        <ele>1087.14</ele>
        <time>2024-11-05T11:44:11.277Z</time>
      </trkpt>
      <trkpt lat="44.63569" lon="3.31139">
        <ele>1086.08</ele>
        <time>2024-11-05T11:44:17.801Z</time>
      </trkpt>
      <trkpt lat="44.63583" lon="3.31109">
        <ele>1085.08</ele>
        <time>2024-11-05T11:44:24.329Z</time>
      </trkpt>
      <trkpt lat="44.63597" lon="3.31078">
        <ele>1084.02</ele>
        <time>2024-11-05T11:44:30.861Z</time>
      </trkpt>
      <trkpt lat="44.6361" lon="3.31048">
        <ele>1082.94</ele>
        <time>2024-11-05T11:44:37.397Z</time>
      </trkpt>
      <trkpt lat="44.63624" lon="3.31017">
        <ele>1081.88</ele>
        <time>2024-11-05T11:44:43.937Z</time>
      </trkpt>
      <trkpt lat="44.63638" lon="3.30987">
        <ele>1080.75</ele>
        <time>2024-11-05T11:44:50.481Z</time>
      </trkpt>
      <trkpt lat="44.63652" lon="3.30967">
        <ele>1079.67</ele>
        <time>2024-11-05T11:44:57.029Z</time>
      </trkpt>
      <trkpt lat="44.63663" lon="3.30936">
        <ele>1078.5</ele>
        <time>2024-11-05T11:45:03.581Z</time>
      </trkpt>
      <trkpt lat="44.63661" lon="3.30899">
        <ele>1077.34</ele>
        <time>2024-11-05T11:45:10.137Z</time>
      </trkpt>
      <trkpt lat="44.6365" lon="3.30871">
        <ele>1076.23</ele>
        <time>2024-11-05T11:45:16.697Z</time>
      </trkpt>
      <trkpt lat="44.63627" lon="3.30851">
        <ele>1075.15</ele>
        <time>2024-11-05T11:45:23.261Z</time>
      </trkpt>
      <trkpt lat="44.63605" lon="3.30831">
        <ele>1074.08</ele>
        <time>2024-11-05T11:45:29.829Z</time>
      </trkpt>
      <trkpt lat="44.63587" lon="3.30822">
        <ele>1073.04</ele>
        <time>2024-11-05T11:45:36.400Z</time>
      </trkpt>
      <trkpt lat="44.6357" lon="3.30813">
        <ele>1071.94</ele>
        <time>2024-11-05T11:45:42.974Z</time>
      </trkpt>
      <trkpt lat="44.6355" lon="3.3081">
        <ele>1070.9</ele>
        <time>2024-11-05T11:45:49.551Z</time>
      </trkpt>
      <trkpt lat="44.6353" lon="3.30807">
        <ele>1069.87</ele>
        <time>2024-11-05T11:45:56.132Z</time>
      </trkpt>
      <trkpt lat="44.63512" lon="3.30792">
        <ele>1068.86</ele>
        <time>2024-11-05T11:46:02.716Z</time>
      </trkpt>
      <trkpt lat="44.63507" lon="3.3078">
        <ele>1067.78</ele>
        <time>2024-11-05T11:46:09.301Z</time>
      </trkpt>
      <trkpt lat="44.63502" lon="3.30757">
        <ele>1066.7</ele>
        <time>2024-11-05T11:46:15.889Z</time>
      </trkpt>
      <trkpt lat="44.63502" lon="3.30726">
        <ele>1065.57</ele>
        <time>2024-11-05T11:46:22.481Z</time>
      </trkpt>
      <trkpt lat="44.63502" lon="3.30695">
        <ele>1064.44</ele>
        <time>2024-11-05T11:46:29.076Z</time>
      </trkpt>
      <trkpt lat="44.63496" lon="3.30658">
        <ele>1063.3</ele>
        <time>2024-11-05T11:46:35.675Z</time>
      </trkpt>
      <trkpt lat="44.63489" lon="3.3064">
        <ele>1062.2</ele>
        <time>2024-11-05T11:46:42.277Z</time>
      </trkpt>
      <trkpt lat="44.63473" lon="3.30622">
        <ele>1061.12</ele>
        <time>2024-11-05T11:46:48.882Z</time>
      </trkpt>
      <trkpt lat="44.63453" lon="3.30613">
        <ele>1060.02</ele>
        <time>2024-11-05T11:46:55.490Z</time>
      </trkpt>
      <trkpt lat="44.63433" lon="3.30605">
        <ele>1058.87</ele>
        <time>2024-11-05T11:47:02.102Z</time>
      </trkpt>
      <trkpt lat="44.63413" lon="3.30602">
        <ele>1057.76</ele>
        <time>2024-11-05T11:47:08.717Z</time>
      </trkpt>
      <trkpt lat="44.63392" lon="3.30598">
        <ele>1056.72</ele>
        <time>2024-11-05T11:47:15.335Z</time>
      </trkpt>
      <trkpt lat="44.63377" lon="3.30591">
        <ele>1055.69</ele>
        <time>2024-11-05T11:47:21.956Z</time>
      </trkpt>
      <trkpt lat="44.63361" lon="3.30583">
        <ele>1054.67</ele>
        <time>2024-11-05T11:47:28.580Z</time>
      </trkpt>
      <trkpt lat="44.63338" lon="3.30554">
        <ele>1053.57</ele>
        <time>2024-11-05T11:47:35.209Z</time>
      </trkpt>
      <trkpt lat="44.63315" lon="3.30524">
        <ele>1052.5</ele>
        <time>2024-11-05T11:47:41.843Z</time>
      </trkpt>
      <trkpt lat="44.63291" lon="3.30494">
        <ele>1051.47</ele>
        <time>2024-11-05T11:47:48.482Z</time>
      </trkpt>
      <trkpt lat="44.63281" lon="3.30477">
        <ele>1050.43</ele>
        <time>2024-11-05T11:47:55.123Z</time>
      </trkpt>
      <trkpt lat="44.63277" lon="3.30445">
        <ele>1049.31</ele>
        <time>2024-11-05T11:48:01.768Z</time>
      </trkpt>
      <trkpt lat="44.63288" lon="3.30425">
        <ele>1048.29</ele>
        <time>2024-11-05T11:48:08.416Z</time>
      </trkpt>
      <trkpt lat="44.63313" lon="3.30414">
        <ele>1047.36</ele>
        <time>2024-11-05T11:48:15.068Z</time>
      </trkpt>
      <trkpt lat="44.63343" lon="3.30416">
        <ele>1046.28</ele>
        <time>2024-11-05T11:48:21.725Z</time>
      </trkpt>
      <trkpt lat="44.63367" lon="3.30412">
        <ele>1045.26</ele>
        <time>2024-11-05T11:48:28.386Z</time>
      </trkpt>
      <trkpt lat="44.63391" lon="3.30409">
        <ele>1044.25</ele>
        <time>2024-11-05T11:48:35.051Z</time>
      </trkpt>
      <trkpt lat="44.63414" lon="3.30398">
        <ele>1043.2</ele>
        <time>2024-11-05T11:48:41.719Z</time>
      </trkpt>
      <trkpt lat="44.63436" lon="3.30388">
        <ele>1042.18</ele>
        <time>2024-11-05T11:48:48.391Z</time>
      </trkpt>
      <trkpt lat="44.63465" lon="3.30377">
        <ele>1041.16</ele>
        <time>2024-11-05T11:48:55.068Z</time>
      </trkpt>
      <trkpt lat="44.63495" lon="3.30367">
        <ele>1040.2</ele>
        <time>2024-11-05T11:49:01.750Z</time>
      </trkpt>
      <trkpt lat="44.63524" lon="3.30356">
        <ele>1039.2</ele>
        <time>2024-11-05T11:49:08.437Z</time>
      </trkpt>
      <trkpt lat="44.63551" lon="3.30338">
        <ele>1038.25</ele>
        <time>2024-11-05T11:49:15.129Z</time>
      </trkpt>
      <trkpt lat="44.63565" lon="3.30322">
        <ele>1037.26</ele>
        <time>2024-11-05T11:49:21.823Z</time>
      </trkpt>
      <trkpt lat="44.63579" lon="3.30306">
        <ele>1036.23</ele>
        <time>2024-11-05T11:49:28.520Z</time>
      </trkpt>
      <trkpt lat="44.63592" lon="3.30293">
        <ele>1035.2</ele>
        <time>2024-11-05T11:49:35.220Z</time>
      </trkpt>
      <trkpt lat="44.63609" lon="3.30289">
        <ele>1034.15</ele>
        <time>2024-11-05T11:49:41.923Z</time>
      </trkpt>
      <trkpt lat="44.63626" lon="3.30285">
        <ele>1033.09</ele>
        <time>2024-11-05T11:49:48.628Z</time>
      </trkpt>
      <trkpt lat="44.63642" lon="3.30268">
        <ele>1032.14</ele>
        <time>2024-11-05T11:49:55.337Z</time>
      </trkpt>
      <trkpt lat="44.63651" lon="3.30244">
        <ele>1031.16</ele>
        <time>2024-11-05T11:50:02.049Z</time>
      </trkpt>
      <trkpt lat="44.63658" lon="3.30208">
        <ele>1030.17</ele>
        <time>2024-11-05T11:50:08.765Z</time>
      </trkpt>
      <trkpt lat="44.63657" lon="3.30185">
        <ele>1029.16</ele>
        <time>2024-11-05T11:50:15.484Z</time>
      </trkpt>
      <trkpt lat="44.63656" lon="3.30162">
        <ele>1028.17</ele>
        <time>2024-11-05T11:50:22.205Z</time>
      </trkpt>
      <trkpt lat="44.63648" lon="3.30133">
        <ele>1027.2</ele>
        <time>2024-11-05T11:50:28.930Z</time>
      </trkpt>
      <trkpt lat="44.63641" lon="3.30112">
        <ele>1026.25</ele>
        <time>2024-11-05T11:50:35.658Z</time>
      </trkpt>
      <trkpt lat="44.63634" lon="3.30091">
        <ele>1025.31</ele>
        <time>2024-11-05T11:50:42.388Z</time>
      </trkpt>
      <trkpt lat="44.63627" lon="3.30055">
        <ele>1024.32</ele>
        <time>2024-11-05T11:50:49.122Z</time>
      </trkpt>
      <trkpt lat="44.63621" lon="3.30019">
        <ele>1023.36</ele>
        <time>2024-11-05T11:50:55.861Z</time>
      </trkpt>
      <trkpt lat="44.63613" lon="3.29993">
        <ele>1022.46</ele>
        <time>2024-11-05T11:51:02.603Z</time>
      </trkpt>
      <trkpt lat="44.63605" lon="3.29968">
        <ele>1021.57</ele>
        <time>2024-11-05T11:51:09.348Z</time>
      </trkpt>
      <trkpt lat="44.636" lon="3.29956">
        <ele>1020.7</ele>
        <time>2024-11-05T11:51:16.095Z</time>
      </trkpt>
      <trkpt lat="44.63589" lon="3.2994">
        <ele>1019.9</ele>
        <time>2024-11-05T11:51:22.844Z</time>
      </trkpt>
      <trkpt lat="44.63578" lon="3.29924">
        <ele>1019.07</ele>
        <time>2024-11-05T11:51:29.596Z</time>
      </trkpt>
      <trkpt lat="44.63549" lon="3.29909">
        <ele>1018.36</ele>
        <time>2024-11-05T11:51:36.353Z</time>
      </trkpt>
      <trkpt lat="44.6352" lon="3.29894">
        <ele>1017.68</ele>
        <time>2024-11-05T11:51:43.115Z</time>
      </trkpt>
      <trkpt lat="44.63501" lon="3.29861">
        <ele>1016.88</ele>
        <time>2024-11-05T11:51:49.881Z</time>
      </trkpt>
      <trkpt lat="44.63482" lon="3.29829">
        <ele>1016.19</ele>
        <time>2024-11-05T11:51:56.652Z</time>
      </trkpt>
      <trkpt lat="44.63463" lon="3.29796">
        <ele>1015.5</ele>
        <time>2024-11-05T11:52:03.428Z</time>
      </trkpt>
      <trkpt lat="44.63444" lon="3.29764">
        <ele>1014.78</ele>
        <time>2024-11-05T11:52:10.209Z</time>
      </trkpt>
      <trkpt lat="44.6343" lon="3.29739">
        <ele>1014.13</ele>
        <time>2024-11-05T11:52:16.993Z</time>
      </trkpt>
      <trkpt lat="44.63417" lon="3.29714">
        <ele>1013.49</ele>
        <time>2024-11-05T11:52:23.781Z</time>
      </trkpt>
      <trkpt lat="44.63399" lon="3.29696">
        <ele>1013</ele>
        <time>2024-11-05T11:52:30.572Z</time>
      </trkpt>
      <trkpt lat="44.63381" lon="3.29678">
        <ele>1012.46</ele>
        <time>2024-11-05T11:52:37.367Z</time>
      </trkpt>
      <trkpt lat="44.6336" lon="3.29671">
        <ele>1012.08</ele>
        <time>2024-11-05T11:52:44.165Z</time>
      </trkpt>
      <trkpt lat="44.63339" lon="3.29664">
        <ele>1011.71</ele>
        <time>2024-11-05T11:52:50.967Z</time>
      </trkpt>
      <trkpt lat="44.63317" lon="3.29657">
        <ele>1011.48</ele>
        <time>2024-11-05T11:52:57.773Z</time>
      </trkpt>
      <trkpt lat="44.63307" lon="3.29645">
        <ele>1011.19</ele>
        <time>2024-11-05T11:53:04.581Z</time>
      </trkpt>
      <trkpt lat="44.63305" lon="3.29627">
        <ele>1010.83</ele>
        <time>2024-11-05T11:53:11.391Z</time>
      </trkpt>
      <trkpt lat="44.6331" lon="3.29594">
        <ele>1010.33</ele>
        <time>2024-11-05T11:53:18.204Z</time>
      </trkpt>
      <trkpt lat="44.6331" lon="3.29572">
        <ele>1010.1</ele>
        <time>2024-11-05T11:53:25.020Z</time>
      </trkpt>
      <trkpt lat="44.63304" lon="3.29546">
        <ele>1010</ele>
        <time>2024-11-05T11:53:31.839Z</time>
      </trkpt>
      <trkpt lat="44.63298" lon="3.29521">
        <ele>1009.96</ele>
        <time>2024-11-05T11:53:38.661Z</time>
      </trkpt>
      <trkpt lat="44.6328" lon="3.29489">
        <ele>1009.98</ele>
        <time>2024-11-05T11:53:45.488Z</time>
      </trkpt>
      <trkpt lat="44.63258" lon="3.2947">
        <ele>1010.06</ele>
        <time>2024-11-05T11:53:52.319Z</time>
      </trkpt>
      <trkpt lat="44.63237" lon="3.2945">
        <ele>1010.18</ele>
        <time>2024-11-05T11:53:59.154Z</time>
      </trkpt>
      <trkpt lat="44.63228" lon="3.29433">
        <ele>1010.28</ele>
        <time>2024-11-05T11:54:05.991Z</time>
      </trkpt>
      <trkpt lat="44.63225" lon="3.294">
        <ele>1010.33</ele>
        <time>2024-11-05T11:54:12.832Z</time>
      </trkpt>
      <trkpt lat="44.63225" lon="3.29366">
        <ele>1010.49</ele>
        <time>2024-11-05T11:54:19.677Z</time>
      </trkpt>
      <trkpt lat="44.63222" lon="3.29332">
        <ele>1010.66</ele>
        <time>2024-11-05T11:54:26.526Z</time>
      </trkpt>
      <trkpt lat="44.63211" lon="3.29309">
        <ele>1010.93</ele>
        <time>2024-11-05T11:54:33.378Z</time>
      </trkpt>
      <trkpt lat="44.63201" lon="3.29285">
        <ele>1011.24</ele>
        <time>2024-11-05T11:54:40.233Z</time>
      </trkpt>
      <trkpt lat="44.63197" lon="3.29291">
        <ele>1011.72</ele>
        <time>2024-11-05T11:54:47.089Z</time>
      </trkpt>
      <trkpt lat="44.63184" lon="3.29286">
        <ele>1012.25</ele>
        <time>2024-11-05T11:54:53.947Z</time>
      </trkpt>
      <trkpt lat="44.63168" lon="3.29273">
        <ele>1012.77</ele>
        <time>2024-11-05T11:55:00.808Z</time>
      </trkpt>
      <trkpt lat="44.63141" lon="3.29257">
        <ele>1013.38</ele>
        <time>2024-11-05T11:55:07.674Z</time>
      </trkpt>
      <trkpt lat="44.63115" lon="3.29241">
        <ele>1014.04</ele>
        <time>2024-11-05T11:55:14.545Z</time>
      </trkpt>
      <trkpt lat="44.63088" lon="3.29225">
        <ele>1014.69</ele>
        <time>2024-11-05T11:55:21.420Z</time>
      </trkpt>
      <trkpt lat="44.63062" lon="3.29209">
        <ele>1015.32</ele>
        <time>2024-11-05T11:55:28.300Z</time>
      </trkpt>
      <trkpt lat="44.63051" lon="3.29198">
        <ele>1015.94</ele>
        <time>2024-11-05T11:55:35.182Z</time>
      </trkpt>
      <trkpt lat="44.63041" lon="3.29185">
        <ele>1016.55</ele>
        <time>2024-11-05T11:55:42.066Z</time>
      </trkpt>
      <trkpt lat="44.63038" lon="3.29154">
        <ele>1017.04</ele>
        <time>2024-11-05T11:55:48.954Z</time>
      </trkpt>
      <trkpt lat="44.63031" lon="3.29124">
        <ele>1017.66</ele>
        <time>2024-11-05T11:55:55.845Z</time>
      </trkpt>
      <trkpt lat="44.63021" lon="3.29092">
        <ele>1018.28</ele>
        <time>2024-11-05T11:56:02.740Z</time>
      </trkpt>
      <trkpt lat="44.63015" lon="3.29087">
        <ele>1018.87</ele>
        <time>2024-11-05T11:56:09.636Z</time>
      </trkpt>
      <trkpt lat="44.63004" lon="3.29083">
        <ele>1019.52</ele>
        <time>2024-11-05T11:56:16.534Z</time>
      </trkpt>
      <trkpt lat="44.62987" lon="3.29077">
        <ele>1020.11</ele>
        <time>2024-11-05T11:56:23.435Z</time>
      </trkpt>
      <trkpt lat="44.62971" lon="3.29071">
        <ele>1020.61</ele>
        <time>2024-11-05T11:56:30.339Z</time>
      </trkpt>
      <trkpt lat="44.62953" lon="3.2906">
        <ele>1021</ele>
        <time>2024-11-05T11:56:37.246Z</time>
      </trkpt>
      <trkpt lat="44.62936" lon="3.29049">
        <ele>1021.39</ele>
        <time>2024-11-05T11:56:44.156Z</time>
      </trkpt>
      <trkpt lat="44.62907" lon="3.29035">
        <ele>1021.89</ele>
        <time>2024-11-05T11:56:51.071Z</time>
      </trkpt>
      <trkpt lat="44.62877" lon="3.29021">
        <ele>1022.3</ele>
        <time>2024-11-05T11:56:57.991Z</time>
      </trkpt>
      <trkpt lat="44.6285" lon="3.29006">
        <ele>1022.6</ele>
        <time>2024-11-05T11:57:04.915Z</time>
      </trkpt>
      <trkpt lat="44.6285" lon="3.29006">
        <ele>1022.77</ele>
        <time>2024-11-05T11:57:11.839Z</time>
      </trkpt>
      <trkpt lat="44.6285" lon="3.29006">
        <ele>1022.89</ele>
        <time>2024-11-05T11:57:18.763Z</time>
      </trkpt>
      <trkpt lat="44.6285" lon="3.29006">
        <ele>1022.93</ele>
        <time>2024-11-05T11:57:25.687Z</time>
      </trkpt>
      <trkpt lat="44.6285" lon="3.29006">
        <ele>1022.91</ele>
        <time>2024-11-05T11:57:32.611Z</time>
      </trkpt>
      <trkpt lat="44.62877" lon="3.29021">
        <ele>1022.3</ele>
        <time>2024-11-05T11:57:39.540Z</time>
      </trkpt>
      <trkpt lat="44.62907" lon="3.29035">
        <ele>1022.48</ele>
        <time>2024-11-05T11:57:46.474Z</time>
      </trkpt>
      <trkpt lat="44.62936" lon="3.29049">
        <ele>1021.39</ele>
        <time>2024-11-05T11:57:53.413Z</time>
      </trkpt>
      <trkpt lat="44.62953" lon="3.2906">
        <ele>1021.79</ele>
        <time>2024-11-05T11:58:00.355Z</time>
      </trkpt>
      <trkpt lat="44.62971" lon="3.29071">
        <ele>1020.61</ele>
        <time>2024-11-05T11:58:07.300Z</time>
      </trkpt>
      <trkpt lat="44.62987" lon="3.29077">
        <ele>1021</ele>
        <time>2024-11-05T11:58:14.248Z</time>
      </trkpt>
      <trkpt lat="44.63004" lon="3.29083">
        <ele>1019.52</ele>
        <time>2024-11-05T11:58:21.199Z</time>
      </trkpt>
      <trkpt lat="44.63015" lon="3.29087">
        <ele>1018.87</ele>
        <time>2024-11-05T11:58:28.151Z</time>
      </trkpt>
      <trkpt lat="44.63021" lon="3.29092">
        <ele>1018.28</ele>
        <time>2024-11-05T11:58:35.105Z</time>
      </trkpt>
      <trkpt lat="44.63031" lon="3.29124">
        <ele>1017.66</ele>
        <time>2024-11-05T11:58:42.063Z</time>
      </trkpt>
      <trkpt lat="44.63038" lon="3.29154">
        <ele>1017.04</ele>
        <time>2024-11-05T11:58:49.024Z</time>
      </trkpt>
      <trkpt lat="44.63041" lon="3.29185">
        <ele>1016.55</ele>
        <time>2024-11-05T11:58:55.989Z</time>
      </trkpt>
      <trkpt lat="44.63051" lon="3.29198">
        <ele>1015.94</ele>
        <time>2024-11-05T11:59:02.956Z</time>
      </trkpt>
      <trkpt lat="44.63062" lon="3.29209">
        <ele>1015.32</ele>
        <time>2024-11-05T11:59:09.925Z</time>
      </trkpt>
      <trkpt lat="44.63088" lon="3.29225">
        <ele>1013.85</ele>
        <time>2024-11-05T11:59:16.899Z</time>
      </trkpt>
      <trkpt lat="44.63115" lon="3.29241">
        <ele>1012.71</ele>
        <time>2024-11-05T11:59:23.877Z</time>
      </trkpt>
      <trkpt lat="44.63141" lon="3.29257">
        <ele>1011.5</ele>
        <time>2024-11-05T11:59:30.860Z</time>
      </trkpt>
      <trkpt lat="44.63168" lon="3.29273">
        <ele>1012.77</ele>
        <time>2024-11-05T11:59:37.848Z</time>
      </trkpt>
      <trkpt lat="44.63184" lon="3.29286">
        <ele>1012.25</ele>
        <time>2024-11-05T11:59:44.839Z</time>
      </trkpt>
      <trkpt lat="44.63197" lon="3.29291">
        <ele>1011.72</ele>
        <time>2024-11-05T11:59:51.832Z</time>
      </trkpt>
      <trkpt lat="44.63201" lon="3.29285">
        <ele>1006.46</ele>
        <time>2024-11-05T11:59:58.826Z</time>
      </trkpt>
      <trkpt lat="44.63184" lon="3.29252">
        <ele>1005.12</ele>
        <time>2024-11-05T12:00:05.824Z</time>
      </trkpt>
      <trkpt lat="44.63166" lon="3.29233">
        <ele>1003.82</ele>
        <time>2024-11-05T12:00:12.826Z</time>
      </trkpt>
      <trkpt lat="44.63148" lon="3.29215">
        <ele>1002.5</ele>
        <time>2024-11-05T12:00:19.831Z</time>
      </trkpt>
      <trkpt lat="44.6313" lon="3.29196">
        <ele>1001.13</ele>
        <time>2024-11-05T12:00:26.840Z</time>
      </trkpt>
      <trkpt lat="44.63114" lon="3.29184">
        <ele>999.76</ele>
        <time>2024-11-05T12:00:33.852Z</time>
      </trkpt>
      <trkpt lat="44.63098" lon="3.29173">
        <ele>998.41</ele>
        <time>2024-11-05T12:00:40.867Z</time>
      </trkpt>
      <trkpt lat="44.63086" lon="3.29158">
        <ele>997</ele>
        <time>2024-11-05T12:00:47.884Z</time>
      </trkpt>
      <trkpt lat="44.63086" lon="3.29141">
        <ele>995.51</ele>
        <time>2024-11-05T12:00:54.903Z</time>
      </trkpt>
      <trkpt lat="44.63094" lon="3.29112">
        <ele>993.9</ele>
        <time>2024-11-05T12:01:01.926Z</time>
      </trkpt>
      <trkpt lat="44.63097" lon="3.29088">
        <ele>992.3</ele>
        <time>2024-11-05T12:01:08.952Z</time>
      </trkpt>
      <trkpt lat="44.63095" lon="3.29048">
        <ele>990.56</ele>
        <time>2024-11-05T12:01:15.982Z</time>
      </trkpt>
      <trkpt lat="44.63089" lon="3.29026">
        <ele>988.82</ele>
        <time>2024-11-05T12:01:23.015Z</time>
      </trkpt>
      <trkpt lat="44.63074" lon="3.29016">
        <ele>987.48</ele>
        <time>2024-11-05T12:01:30.050Z</time>
      </trkpt>
      <trkpt lat="44.63059" lon="3.29007">
        <ele>986.12</ele>
        <time>2024-11-05T12:01:37.088Z</time>
      </trkpt>
      <trkpt lat="44.63039" lon="3.29">
        <ele>984.81</ele>
        <time>2024-11-05T12:01:44.129Z</time>
      </trkpt>
      <trkpt lat="44.6302" lon="3.28993">
        <ele>983.37</ele>
        <time>2024-11-05T12:01:51.173Z</time>
      </trkpt>
      <trkpt lat="44.62996" lon="3.28974">
        <ele>981.74</ele>
        <time>2024-11-05T12:01:58.222Z</time>
      </trkpt>
      <trkpt lat="44.62972" lon="3.28955">
        <ele>980.18</ele>
        <time>2024-11-05T12:02:05.275Z</time>
      </trkpt>
      <trkpt lat="44.62953" lon="3.28938">
        <ele>978.69</ele>
        <time>2024-11-05T12:02:12.332Z</time>
      </trkpt>
      <trkpt lat="44.62934" lon="3.2892">
        <ele>977.23</ele>
        <time>2024-11-05T12:02:19.393Z</time>
      </trkpt>
      <trkpt lat="44.62915" lon="3.28903">
        <ele>975.77</ele>
        <time>2024-11-05T12:02:26.457Z</time>
      </trkpt>
      <trkpt lat="44.62894" lon="3.28877">
        <ele>974.19</ele>
        <time>2024-11-05T12:02:33.526Z</time>
      </trkpt>
      <trkpt lat="44.62874" lon="3.28851">
        <ele>972.64</ele>
        <time>2024-11-05T12:02:40.599Z</time>
      </trkpt>
      <trkpt lat="44.62853" lon="3.28833">
        <ele>971.13</ele>
        <time>2024-11-05T12:02:47.676Z</time>
      </trkpt>
      <trkpt lat="44.62832" lon="3.28815">
        <ele>969.59</ele>
        <time>2024-11-05T12:02:54.757Z</time>
      </trkpt>
      <trkpt lat="44.62821" lon="3.28802">
        <ele>967.97</ele>
        <time>2024-11-05T12:03:01.840Z</time>
      </trkpt>
      <trkpt lat="44.62801" lon="3.28792">
        <ele>966.45</ele>
        <time>2024-11-05T12:03:08.927Z</time>
      </trkpt>
      <trkpt lat="44.62777" lon="3.28785">
        <ele>964.99</ele>
        <time>2024-11-05T12:03:16.018Z</time>
      </trkpt>
      <trkpt lat="44.62754" lon="3.28779">
        <ele>963.53</ele>
        <time>2024-11-05T12:03:23.112Z</time>
      </trkpt>
      <trkpt lat="44.6273" lon="3.28763">
        <ele>962.02</ele>
        <time>2024-11-05T12:03:30.211Z</time>
      </trkpt>
      <trkpt lat="44.62706" lon="3.28748">
        <ele>960.59</ele>
        <time>2024-11-05T12:03:37.314Z</time>
      </trkpt>
      <trkpt lat="44.62684" lon="3.28729">
        <ele>959.13</ele>
        <time>2024-11-05T12:03:44.421Z</time>
      </trkpt>
      <trkpt lat="44.62662" lon="3.28711">
        <ele>957.69</ele>
        <time>2024-11-05T12:03:51.532Z</time>
      </trkpt>
      <trkpt lat="44.62648" lon="3.28698">
        <ele>956.22</ele>
        <time>2024-11-05T12:03:58.646Z</time>
      </trkpt>
      <trkpt lat="44.62635" lon="3.28684">
        <ele>954.75</ele>
        <time>2024-11-05T12:04:05.762Z</time>
      </trkpt>
      <trkpt lat="44.62614" lon="3.28658">
        <ele>953.21</ele>
        <time>2024-11-05T12:04:12.883Z</time>
      </trkpt>
      <trkpt lat="44.62593" lon="3.28632">
        <ele>951.67</ele>
        <time>2024-11-05T12:04:20.008Z</time>
      </trkpt>
      <trkpt lat="44.62579" lon="3.28628">
        <ele>950.33</ele>
        <time>2024-11-05T12:04:27.136Z</time>
      </trkpt>
      <trkpt lat="44.62567" lon="3.28618">
        <ele>948.89</ele>
        <time>2024-11-05T12:04:34.266Z</time>
      </trkpt>
      <trkpt lat="44.62561" lon="3.28604">
        <ele>947.33</ele>
        <time>2024-11-05T12:04:41.398Z</time>
      </trkpt>
      <trkpt lat="44.62555" lon="3.28579">
        <ele>945.69</ele>
        <time>2024-11-05T12:04:48.533Z</time>
      </trkpt>
      <trkpt lat="44.62548" lon="3.28558">
        <ele>944.13</ele>
        <time>2024-11-05T12:04:55.670Z</time>
      </trkpt>
      <trkpt lat="44.62538" lon="3.28546">
        <ele>942.69</ele>
        <time>2024-11-05T12:05:02.809Z</time>
      </trkpt>
      <trkpt lat="44.62512" lon="3.28527">
        <ele>941.31</ele>
        <time>2024-11-05T12:05:09.953Z</time>
      </trkpt>
      <trkpt lat="44.62485" lon="3.28507">
        <ele>939.9</ele>
        <time>2024-11-05T12:05:17.102Z</time>
      </trkpt>
      <trkpt lat="44.62458" lon="3.28488">
        <ele>938.45</ele>
        <time>2024-11-05T12:05:24.256Z</time>
      </trkpt>
      <trkpt lat="44.62432" lon="3.28469">
        <ele>936.95</ele>
        <time>2024-11-05T12:05:31.415Z</time>
      </trkpt>
      <trkpt lat="44.62405" lon="3.28449">
        <ele>935.48</ele>
        <time>2024-11-05T12:05:38.578Z</time>
      </trkpt>
      <trkpt lat="44.62389" lon="3.28435">
        <ele>934.06</ele>
        <time>2024-11-05T12:05:45.744Z</time>
      </trkpt>
      <trkpt lat="44.62373" lon="3.2842">
        <ele>932.68</ele>
        <time>2024-11-05T12:05:52.914Z</time>
      </trkpt>
      <trkpt lat="44.62354" lon="3.28394">
        <ele>931.19</ele>
        <time>2024-11-05T12:06:00.088Z</time>
      </trkpt>
      <trkpt lat="44.6234" lon="3.28379">
        <ele>929.78</ele>
        <time>2024-11-05T12:06:07.265Z</time>
      </trkpt>
      <trkpt lat="44.62323" lon="3.28373">
        <ele>928.45</ele>
        <time>2024-11-05T12:06:14.444Z</time>
      </trkpt>
      <trkpt lat="44.62306" lon="3.28367">
        <ele>927.12</ele>
        <time>2024-11-05T12:06:21.626Z</time>
      </trkpt>
      <trkpt lat="44.62291" lon="3.28359">
        <ele>925.8</ele>
        <time>2024-11-05T12:06:28.811Z</time>
      </trkpt>
      <trkpt lat="44.62276" lon="3.28352">
        <ele>924.47</ele>
        <time>2024-11-05T12:06:35.998Z</time>
      </trkpt>
      <trkpt lat="44.62255" lon="3.28347">
        <ele>923.1</ele>
        <time>2024-11-05T12:06:43.189Z</time>
      </trkpt>
      <trkpt lat="44.62225" lon="3.28347">
        <ele>921.67</ele>
        <time>2024-11-05T12:06:50.385Z</time>
      </trkpt>
      <trkpt lat="44.62204" lon="3.28352">
        <ele>920.36</ele>
        <time>2024-11-05T12:06:57.584Z</time>
      </trkpt>
      <trkpt lat="44.62183" lon="3.28356">
        <ele>919.08</ele>
        <time>2024-11-05T12:07:04.786Z</time>
      </trkpt>
      <trkpt lat="44.62162" lon="3.2836">
        <ele>917.8</ele>
        <time>2024-11-05T12:07:11.992Z</time>
      </trkpt>
      <trkpt lat="44.62134" lon="3.28374">
        <ele>916.5</ele>
        <time>2024-11-05T12:07:19.203Z</time>
      </trkpt>
      <trkpt lat="44.62109" lon="3.28388">
        <ele>915.14</ele>
        <time>2024-11-05T12:07:26.418Z</time>
      </trkpt>
      <trkpt lat="44.62104" lon="3.28399">
        <ele>913.93</ele>
        <time>2024-11-05T12:07:33.634Z</time>
      </trkpt>
      <trkpt lat="44.62104" lon="3.28409">
        <ele>912.78</ele>
        <time>2024-11-05T12:07:40.851Z</time>
      </trkpt>
      <trkpt lat="44.62106" lon="3.28417">
        <ele>911.66</ele>
        <time>2024-11-05T12:07:48.069Z</time>
      </trkpt>
      <trkpt lat="44.62112" lon="3.28427">
        <ele>910.6</ele>
        <time>2024-11-05T12:07:55.289Z</time>
      </trkpt>
      <trkpt lat="44.62137" lon="3.28445">
        <ele>909.72</ele>
        <time>2024-11-05T12:08:02.513Z</time>
      </trkpt>
      <trkpt lat="44.62152" lon="3.28464">
        <ele>908.79</ele>
        <time>2024-11-05T12:08:09.741Z</time>
      </trkpt>
      <trkpt lat="44.62152" lon="3.28464">
        <ele>907.79</ele>
        <time>2024-11-05T12:08:16.969Z</time>
      </trkpt>
      <trkpt lat="44.62156" lon="3.28479">
        <ele>906.8</ele>
        <time>2024-11-05T12:08:24.199Z</time>
      </trkpt>
      <trkpt lat="44.62161" lon="3.28513">
        <ele>905.8</ele>
        <time>2024-11-05T12:08:31.432Z</time>
      </trkpt>
      <trkpt lat="44.62162" lon="3.28533">
        <ele>904.82</ele>
        <time>2024-11-05T12:08:38.668Z</time>
      </trkpt>
      <trkpt lat="44.62161" lon="3.28558">
        <ele>903.87</ele>
        <time>2024-11-05T12:08:45.907Z</time>
      </trkpt>
      <trkpt lat="44.62158" lon="3.28572">
        <ele>902.92</ele>
        <time>2024-11-05T12:08:53.147Z</time>
      </trkpt>
      <trkpt lat="44.6215" lon="3.28605">
        <ele>901.91</ele>
        <time>2024-11-05T12:09:00.391Z</time>
      </trkpt>
      <trkpt lat="44.62142" lon="3.28637">
        <ele>900.97</ele>
        <time>2024-11-05T12:09:07.639Z</time>
      </trkpt>
      <trkpt lat="44.62132" lon="3.28669">
        <ele>900.13</ele>
        <time>2024-11-05T12:09:14.891Z</time>
      </trkpt>
      <trkpt lat="44.6212" lon="3.28689">
        <ele>899.24</ele>
        <time>2024-11-05T12:09:22.146Z</time>
      </trkpt>
      <trkpt lat="44.62108" lon="3.28699">
        <ele>898.3</ele>
        <time>2024-11-05T12:09:29.403Z</time>
      </trkpt>
      <trkpt lat="44.62093" lon="3.28709">
        <ele>897.33</ele>
        <time>2024-11-05T12:09:36.663Z</time>
      </trkpt>
      <trkpt lat="44.62064" lon="3.2872">
        <ele>896.33</ele>
        <time>2024-11-05T12:09:43.928Z</time>
      </trkpt>
      <trkpt lat="44.62034" lon="3.28731">
        <ele>895.47</ele>
        <time>2024-11-05T12:09:51.198Z</time>
      </trkpt>
      <trkpt lat="44.62005" lon="3.28742">
        <ele>894.58</ele>
        <time>2024-11-05T12:09:58.473Z</time>
      </trkpt>
      <trkpt lat="44.61992" lon="3.28742">
        <ele>893.55</ele>
        <time>2024-11-05T12:10:05.750Z</time>
      </trkpt>
      <trkpt lat="44.61967" lon="3.28736">
        <ele>892.3</ele>
        <time>2024-11-05T12:10:13.031Z</time>
      </trkpt>
      <trkpt lat="44.61953" lon="3.28737">
        <ele>891.31</ele>
        <time>2024-11-05T12:10:20.314Z</time>
      </trkpt>
      <trkpt lat="44.61944" lon="3.28746">
        <ele>890.47</ele>
        <time>2024-11-05T12:10:27.599Z</time>
      </trkpt>
      <trkpt lat="44.61932" lon="3.28785">
        <ele>889.98</ele>
        <time>2024-11-05T12:10:34.889Z</time>
      </trkpt>
      <trkpt lat="44.61927" lon="3.28794">
        <ele>889.13</ele>
        <time>2024-11-05T12:10:42.180Z</time>
      </trkpt>
      <trkpt lat="44.61919" lon="3.28797">
        <ele>888.19</ele>
        <time>2024-11-05T12:10:49.472Z</time>
      </trkpt>
      <trkpt lat="44.61897" lon="3.28793">
        <ele>887.04</ele>
        <time>2024-11-05T12:10:56.768Z</time>
      </trkpt>
      <trkpt lat="44.6188" lon="3.28798">
        <ele>886.09</ele>
        <time>2024-11-05T12:11:04.066Z</time>
      </trkpt>
      <trkpt lat="44.61874" lon="3.28806">
        <ele>885.26</ele>
        <time>2024-11-05T12:11:11.366Z</time>
      </trkpt>
      <trkpt lat="44.6186" lon="3.28831">
        <ele>884.58</ele>
        <time>2024-11-05T12:11:18.669Z</time>
      </trkpt>
      <trkpt lat="44.61843" lon="3.28845">
        <ele>883.7</ele>
        <time>2024-11-05T12:11:25.976Z</time>
      </trkpt>
      <trkpt lat="44.61825" lon="3.28856">
        <ele>882.79</ele>
        <time>2024-11-05T12:11:33.286Z</time>
      </trkpt>
      <trkpt lat="44.61806" lon="3.28867">
        <ele>881.87</ele>
        <time>2024-11-05T12:11:40.599Z</time>
      </trkpt>
      <trkpt lat="44.61782" lon="3.28885">
        <ele>880.97</ele>
        <time>2024-11-05T12:11:47.916Z</time>
      </trkpt>
      <trkpt lat="44.61767" lon="3.28912">
        <ele>880.15</ele>
        <time>2024-11-05T12:11:55.237Z</time>
      </trkpt>
      <trkpt lat="44.61761" lon="3.28935">
        <ele>879.35</ele>
        <time>2024-11-05T12:12:02.561Z</time>
      </trkpt>
      <trkpt lat="44.61755" lon="3.28959">
        <ele>878.57</ele>
        <time>2024-11-05T12:12:09.888Z</time>
      </trkpt>
      <trkpt lat="44.6175" lon="3.28967">
        <ele>877.69</ele>
        <time>2024-11-05T12:12:17.216Z</time>
      </trkpt>
      <trkpt lat="44.61738" lon="3.28971">
        <ele>876.84</ele>
        <time>2024-11-05T12:12:24.546Z</time>
      </trkpt>
      <trkpt lat="44.61728" lon="3.28968">
        <ele>875.87</ele>
        <time>2024-11-05T12:12:31.878Z</time>
      </trkpt>
      <trkpt lat="44.61723" lon="3.28959">
        <ele>874.82</ele>
        <time>2024-11-05T12:12:39.211Z</time>
      </trkpt>
      <trkpt lat="44.61717" lon="3.28919">
        <ele>873.45</ele>
        <time>2024-11-05T12:12:46.549Z</time>
      </trkpt>
      <trkpt lat="44.61711" lon="3.2888">
        <ele>872.17</ele>
        <time>2024-11-05T12:12:53.891Z</time>
      </trkpt>
      <trkpt lat="44.61699" lon="3.28857">
        <ele>870.98</ele>
        <time>2024-11-05T12:13:01.237Z</time>
      </trkpt>
      <trkpt lat="44.61686" lon="3.28851">
        <ele>869.88</ele>
        <time>2024-11-05T12:13:08.585Z</time>
      </trkpt>
      <trkpt lat="44.61675" lon="3.2885">
        <ele>868.82</ele>
        <time>2024-11-05T12:13:15.935Z</time>
      </trkpt>
      <trkpt lat="44.61659" lon="3.28862">
        <ele>867.85</ele>
        <time>2024-11-05T12:13:23.288Z</time>
      </trkpt>
      <trkpt lat="44.61643" lon="3.28875">
        <ele>866.88</ele>
        <time>2024-11-05T12:13:30.643Z</time>
      </trkpt>
      <trkpt lat="44.61619" lon="3.28881">
        <ele>865.69</ele>
        <time>2024-11-05T12:13:38.002Z</time>
      </trkpt>
      <trkpt lat="44.616" lon="3.28889">
        <ele>864.65</ele>
        <time>2024-11-05T12:13:45.364Z</time>
      </trkpt>
      <trkpt lat="44.61578" lon="3.28904">
        <ele>863.69</ele>
        <time>2024-11-05T12:13:52.730Z</time>
      </trkpt>
      <trkpt lat="44.61558" lon="3.2892">
        <ele>862.8</ele>
        <time>2024-11-05T12:14:00.100Z</time>
      </trkpt>
      <trkpt lat="44.61538" lon="3.28937">
        <ele>861.78</ele>
        <time>2024-11-05T12:14:07.474Z</time>
      </trkpt>
      <trkpt lat="44.61509" lon="3.28945">
        <ele>860.61</ele>
        <time>2024-11-05T12:14:14.853Z</time>
      </trkpt>
      <trkpt lat="44.61486" lon="3.28943">
        <ele>859.53</ele>
        <time>2024-11-05T12:14:22.235Z</time>
      </trkpt>
      <trkpt lat="44.61463" lon="3.28942">
        <ele>858.5</ele>
        <time>2024-11-05T12:14:29.621Z</time>
      </trkpt>
      <trkpt lat="44.61446" lon="3.28937">
        <ele>857.42</ele>
        <time>2024-11-05T12:14:37.010Z</time>
      </trkpt>
      <trkpt lat="44.61428" lon="3.28926">
        <ele>856.22</ele>
        <time>2024-11-05T12:14:44.402Z</time>
      </trkpt>
      <trkpt lat="44.61413" lon="3.2892">
        <ele>855.11</ele>
        <time>2024-11-05T12:14:51.796Z</time>
      </trkpt>
      <trkpt lat="44.61398" lon="3.28921">
        <ele>854.09</ele>
        <time>2024-11-05T12:14:59.193Z</time>
      </trkpt>
      <trkpt lat="44.61384" lon="3.28932">
        <ele>853.13</ele>
        <time>2024-11-05T12:15:06.592Z</time>
      </trkpt>
      <trkpt lat="44.61372" lon="3.28945">
        <ele>852.32</ele>
        <time>2024-11-05T12:15:13.994Z</time>
      </trkpt>
      <trkpt lat="44.61359" lon="3.28954">
        <ele>851.36</ele>
        <time>2024-11-05T12:15:21.398Z</time>
      </trkpt>
      <trkpt lat="44.6133" lon="3.28961">
        <ele>850.16</ele>
        <time>2024-11-05T12:15:28.807Z</time>
      </trkpt>
      <trkpt lat="44.613" lon="3.28969">
        <ele>849.03</ele>
        <time>2024-11-05T12:15:36.221Z</time>
      </trkpt>
      <trkpt lat="44.61287" lon="3.28974">
        <ele>848.08</ele>
        <time>2024-11-05T12:15:43.637Z</time>
      </trkpt>
      <trkpt lat="44.61272" lon="3.28989">
        <ele>847.21</ele>
        <time>2024-11-05T12:15:51.056Z</time>
      </trkpt>
      <trkpt lat="44.61256" lon="3.29004">
        <ele>846.38</ele>
        <time>2024-11-05T12:15:58.478Z</time>
      </trkpt>
      <trkpt lat="44.61238" lon="3.29029">
        <ele>845.44</ele>
        <time>2024-11-05T12:16:05.904Z</time>
      </trkpt>
      <trkpt lat="44.61221" lon="3.29055">
        <ele>844.46</ele>
        <time>2024-11-05T12:16:13.334Z</time>
      </trkpt>
      <trkpt lat="44.61216" lon="3.29063">
        <ele>843.65</ele>
        <time>2024-11-05T12:16:20.765Z</time>
      </trkpt>
      <trkpt lat="44.61212" lon="3.2909">
        <ele>842.99</ele>
        <time>2024-11-05T12:16:28.199Z</time>
      </trkpt>
      <trkpt lat="44.61208" lon="3.29101">
        <ele>842.16</ele>
        <time>2024-11-05T12:16:35.635Z</time>
      </trkpt>
      <trkpt lat="44.612" lon="3.29115">
        <ele>841.3</ele>
        <time>2024-11-05T12:16:43.073Z</time>
      </trkpt>
      <trkpt lat="44.61198" lon="3.29126">
        <ele>840.48</ele>
        <time>2024-11-05T12:16:50.512Z</time>
      </trkpt>
      <trkpt lat="44.61199" lon="3.2915">
        <ele>839.79</ele>
        <time>2024-11-05T12:16:57.954Z</time>
      </trkpt>
      <trkpt lat="44.61202" lon="3.29165">
        <ele>839.18</ele>
        <time>2024-11-05T12:17:05.398Z</time>
      </trkpt>
      <trkpt lat="44.612" lon="3.29177">
        <ele>838.46</ele>
        <time>2024-11-05T12:17:12.843Z</time>
      </trkpt>
      <trkpt lat="44.61185" lon="3.29196">
        <ele>837.51</ele>
        <time>2024-11-05T12:17:20.291Z</time>
      </trkpt>
      <trkpt lat="44.61169" lon="3.29214">
        <ele>836.67</ele>
        <time>2024-11-05T12:17:27.743Z</time>
      </trkpt>
      <trkpt lat="44.61161" lon="3.29226">
        <ele>835.98</ele>
        <time>2024-11-05T12:17:35.196Z</time>
      </trkpt>
      <trkpt lat="44.61155" lon="3.29258">
        <ele>835.38</ele>
        <time>2024-11-05T12:17:42.653Z</time>
      </trkpt>
      <trkpt lat="44.61151" lon="3.29268">
        <ele>834.63</ele>
        <time>2024-11-05T12:17:50.112Z</time>
      </trkpt>
      <trkpt lat="44.61144" lon="3.29272">
        <ele>833.83</ele>
        <time>2024-11-05T12:17:57.572Z</time>
      </trkpt>
      <trkpt lat="44.61132" lon="3.29278">
        <ele>832.95</ele>
        <time>2024-11-05T12:18:05.034Z</time>
      </trkpt>
      <trkpt lat="44.61126" lon="3.29285">
        <ele>832.21</ele>
        <time>2024-11-05T12:18:12.497Z</time>
      </trkpt>
      <trkpt lat="44.61123" lon="3.29296">
        <ele>831.5</ele>
        <time>2024-11-05T12:18:19.961Z</time>
      </trkpt>
      <trkpt lat="44.61123" lon="3.29305">
        <ele>830.86</ele>
        <time>2024-11-05T12:18:27.426Z</time>
      </trkpt>
      <trkpt lat="44.61128" lon="3.29321">
        <ele>830.4</ele>
        <time>2024-11-05T12:18:34.893Z</time>
      </trkpt>
      <trkpt lat="44.61129" lon="3.29337">
        <ele>829.86</ele>
        <time>2024-11-05T12:18:42.362Z</time>
      </trkpt>
      <trkpt lat="44.61125" lon="3.29348">
        <ele>829.2</ele>
        <time>2024-11-05T12:18:49.833Z</time>
      </trkpt>
      <trkpt lat="44.61118" lon="3.29353">
        <ele>828.38</ele>
        <time>2024-11-05T12:18:57.305Z</time>
      </trkpt>
      <trkpt lat="44.61108" lon="3.29352">
        <ele>827.47</ele>
        <time>2024-11-05T12:19:04.779Z</time>
      </trkpt>
      <trkpt lat="44.61095" lon="3.29345">
        <ele>826.42</ele>
        <time>2024-11-05T12:19:12.255Z</time>
      </trkpt>
      <trkpt lat="44.6109" lon="3.29345">
        <ele>825.58</ele>
        <time>2024-11-05T12:19:19.732Z</time>
      </trkpt>
      <trkpt lat="44.61076" lon="3.29359">
        <ele>824.77</ele>
        <time>2024-11-05T12:19:27.211Z</time>
      </trkpt>
      <trkpt lat="44.61061" lon="3.29382">
        <ele>824.07</ele>
        <time>2024-11-05T12:19:34.694Z</time>
      </trkpt>
      <trkpt lat="44.61047" lon="3.2939">
        <ele>823.2</ele>
        <time>2024-11-05T12:19:42.179Z</time>
      </trkpt>
      <trkpt lat="44.61042" lon="3.29398">
        <ele>822.4</ele>
        <time>2024-11-05T12:19:49.666Z</time>
      </trkpt>
      <trkpt lat="44.61039" lon="3.29408">
        <ele>821.63</ele>
        <time>2024-11-05T12:19:57.154Z</time>
      </trkpt>
      <trkpt lat="44.6104" lon="3.29445">
        <ele>821.2</ele>
        <time>2024-11-05T12:20:04.646Z</time>
      </trkpt>
      <trkpt lat="44.61035" lon="3.29456">
        <ele>820.38</ele>
        <time>2024-11-05T12:20:12.139Z</time>
      </trkpt>
      <trkpt lat="44.61014" lon="3.29466">
        <ele>819.41</ele>
        <time>2024-11-05T12:20:19.636Z</time>
      </trkpt>
      <trkpt lat="44.60992" lon="3.29476">
        <ele>818.49</ele>
        <time>2024-11-05T12:20:27.137Z</time>
      </trkpt>
      <trkpt lat="44.60963" lon="3.29493">
        <ele>817.65</ele>
        <time>2024-11-05T12:20:34.643Z</time>
      </trkpt>
      <trkpt lat="44.60946" lon="3.29498">
        <ele>816.61</ele>
        <time>2024-11-05T12:20:42.152Z</time>
      </trkpt>
      <trkpt lat="44.60917" lon="3.29492">
        <ele>815.58</ele>
        <time>2024-11-05T12:20:49.665Z</time>
      </trkpt>
      <trkpt lat="44.60888" lon="3.29487">
        <ele>814.53</ele>
        <time>2024-11-05T12:20:57.183Z</time>
      </trkpt>
      <trkpt lat="44.60868" lon="3.29486">
        <ele>813.52</ele>
        <time>2024-11-05T12:21:04.704Z</time>
      </trkpt>
      <trkpt lat="44.60848" lon="3.29485">
        <ele>812.23</ele>
        <time>2024-11-05T12:21:12.228Z</time>
      </trkpt>
      <trkpt lat="44.60831" lon="3.29485">
        <ele>810.91</ele>
        <time>2024-11-05T12:21:19.755Z</time>
      </trkpt>
      <trkpt lat="44.60809" lon="3.2949">
        <ele>809.92</ele>
        <time>2024-11-05T12:21:27.286Z</time>
      </trkpt>
      <trkpt lat="44.60787" lon="3.29494">
        <ele>808.85</ele>
        <time>2024-11-05T12:21:34.820Z</time>
      </trkpt>
      <trkpt lat="44.60768" lon="3.295">
        <ele>807.69</ele>
        <time>2024-11-05T12:21:42.357Z</time>
      </trkpt>
      <trkpt lat="44.60743" lon="3.29511">
        <ele>806.56</ele>
        <time>2024-11-05T12:21:49.898Z</time>
      </trkpt>
      <trkpt lat="44.60721" lon="3.29509">
        <ele>805.06</ele>
        <time>2024-11-05T12:21:57.443Z</time>
      </trkpt>
      <trkpt lat="44.60699" lon="3.29507">
        <ele>803.72</ele>
        <time>2024-11-05T12:22:04.991Z</time>
      </trkpt>
      <trkpt lat="44.60671" lon="3.29495">
        <ele>802.23</ele>
        <time>2024-11-05T12:22:12.544Z</time>
      </trkpt>
      <trkpt lat="44.60643" lon="3.29483">
        <ele>800.76</ele>
        <time>2024-11-05T12:22:20.102Z</time>
      </trkpt>
      <trkpt lat="44.60615" lon="3.29471">
        <ele>799.34</ele>
        <time>2024-11-05T12:22:27.665Z</time>
      </trkpt>
      <trkpt lat="44.60587" lon="3.29459">
        <ele>797.96</ele>
        <time>2024-11-05T12:22:35.232Z</time>
      </trkpt>
      <trkpt lat="44.60559" lon="3.29447">
        <ele>796.6</ele>
        <time>2024-11-05T12:22:42.804Z</time>
      </trkpt>
      <trkpt lat="44.60531" lon="3.29434">
        <ele>795.08</ele>
        <time>2024-11-05T12:22:50.381Z</time>
      </trkpt>
      <trkpt lat="44.60515" lon="3.29431">
        <ele>793.64</ele>
        <time>2024-11-05T12:22:57.960Z</time>
      </trkpt>
      <trkpt lat="44.60499" lon="3.29428">
        <ele>792.19</ele>
        <time>2024-11-05T12:23:05.542Z</time>
      </trkpt>
      <trkpt lat="44.6047" lon="3.29427">
        <ele>790.63</ele>
        <time>2024-11-05T12:23:13.128Z</time>
      </trkpt>
      <trkpt lat="44.60442" lon="3.29427">
        <ele>789.01</ele>
        <time>2024-11-05T12:23:20.719Z</time>
      </trkpt>
      <trkpt lat="44.60425" lon="3.29433">
        <ele>787.52</ele>
        <time>2024-11-05T12:23:28.313Z</time>
      </trkpt>
      <trkpt lat="44.60408" lon="3.29439">
        <ele>786.02</ele>
        <time>2024-11-05T12:23:35.909Z</time>
      </trkpt>
      <trkpt lat="44.60381" lon="3.29451">
        <ele>784.52</ele>
        <time>2024-11-05T12:23:43.510Z</time>
      </trkpt>
      <trkpt lat="44.60353" lon="3.29463">
        <ele>782.99</ele>
        <time>2024-11-05T12:23:51.116Z</time>
      </trkpt>
      <trkpt lat="44.60325" lon="3.29474">
        <ele>781.47</ele>
        <time>2024-11-05T12:23:58.726Z</time>
      </trkpt>
      <trkpt lat="44.60298" lon="3.29485">
        <ele>779.89</ele>
        <time>2024-11-05T12:24:06.341Z</time>
      </trkpt>
      <trkpt lat="44.60277" lon="3.29497">
        <ele>778.33</ele>
        <time>2024-11-05T12:24:13.960Z</time>
      </trkpt>
      <trkpt lat="44.60255" lon="3.29509">
        <ele>776.78</ele>
        <time>2024-11-05T12:24:21.582Z</time>
      </trkpt>
      <trkpt lat="44.60234" lon="3.29521">
        <ele>775.15</ele>
        <time>2024-11-05T12:24:29.208Z</time>
      </trkpt>
      <trkpt lat="44.60218" lon="3.29537">
        <ele>773.59</ele>
        <time>2024-11-05T12:24:36.837Z</time>
      </trkpt>
      <trkpt lat="44.60203" lon="3.29552">
        <ele>771.95</ele>
        <time>2024-11-05T12:24:44.469Z</time>
      </trkpt>
      <trkpt lat="44.60189" lon="3.29574">
        <ele>770.47</ele>
        <time>2024-11-05T12:24:52.104Z</time>
      </trkpt>
      <trkpt lat="44.60176" lon="3.29595">
        <ele>769</ele>
        <time>2024-11-05T12:24:59.743Z</time>
      </trkpt>
      <trkpt lat="44.60152" lon="3.29623">
        <ele>767.51</ele>
        <time>2024-11-05T12:25:07.387Z</time>
      </trkpt>
      <trkpt lat="44.60135" lon="3.29653">
        <ele>766.15</ele>
        <time>2024-11-05T12:25:15.035Z</time>
      </trkpt>
      <trkpt lat="44.60119" lon="3.29667">
        <ele>764.65</ele>
        <time>2024-11-05T12:25:22.686Z</time>
      </trkpt>
      <trkpt lat="44.60103" lon="3.2968">
        <ele>763.19</ele>
        <time>2024-11-05T12:25:30.340Z</time>
      </trkpt>
      <trkpt lat="44.60083" lon="3.29693">
        <ele>761.69</ele>
        <time>2024-11-05T12:25:37.997Z</time>
      </trkpt>
      <trkpt lat="44.60061" lon="3.29705">
        <ele>760.18</ele>
        <time>2024-11-05T12:25:45.658Z</time>
      </trkpt>
      <trkpt lat="44.60041" lon="3.2971">
        <ele>758.7</ele>
        <time>2024-11-05T12:25:53.323Z</time>
      </trkpt>
      <trkpt lat="44.60023" lon="3.29712">
        <ele>757.25</ele>
        <time>2024-11-05T12:26:00.990Z</time>
      </trkpt>
      <trkpt lat="44.59996" lon="3.29711">
        <ele>755.84</ele>
        <time>2024-11-05T12:26:08.662Z</time>
      </trkpt>
      <trkpt lat="44.59969" lon="3.2971">
        <ele>754.46</ele>
        <time>2024-11-05T12:26:16.338Z</time>
      </trkpt>
      <trkpt lat="44.59941" lon="3.29712">
        <ele>753.11</ele>
        <time>2024-11-05T12:26:24.019Z</time>
      </trkpt>
      <trkpt lat="44.59914" lon="3.29714">
        <ele>751.74</ele>
        <time>2024-11-05T12:26:31.704Z</time>
      </trkpt>
      <trkpt lat="44.59887" lon="3.29716">
        <ele>750.35</ele>
        <time>2024-11-05T12:26:39.393Z</time>
      </trkpt>
      <trkpt lat="44.59859" lon="3.29718">
        <ele>748.92</ele>
        <time>2024-11-05T12:26:47.087Z</time>
      </trkpt>
      <trkpt lat="44.59848" lon="3.29721">
        <ele>747.54</ele>
        <time>2024-11-05T12:26:54.782Z</time>
      </trkpt>
      <trkpt lat="44.59825" lon="3.29737">
        <ele>746.18</ele>
        <time>2024-11-05T12:27:02.482Z</time>
      </trkpt>
      <trkpt lat="44.59814" lon="3.29751">
        <ele>744.9</ele>
        <time>2024-11-05T12:27:10.184Z</time>
      </trkpt>
      <trkpt lat="44.598" lon="3.29775">
        <ele>743.71</ele>
        <time>2024-11-05T12:27:17.890Z</time>
      </trkpt>
      <trkpt lat="44.59785" lon="3.29799">
        <ele>742.57</ele>
        <time>2024-11-05T12:27:25.599Z</time>
      </trkpt>
      <trkpt lat="44.59772" lon="3.29816">
        <ele>741.4</ele>
        <time>2024-11-05T12:27:33.311Z</time>
      </trkpt>
      <trkpt lat="44.59758" lon="3.29832">
        <ele>740.22</ele>
        <time>2024-11-05T12:27:41.026Z</time>
      </trkpt>
      <trkpt lat="44.59734" lon="3.29854">
        <ele>738.98</ele>
        <time>2024-11-05T12:27:48.746Z</time>
      </trkpt>
      <trkpt lat="44.59709" lon="3.29875">
        <ele>737.87</ele>
        <time>2024-11-05T12:27:56.470Z</time>
      </trkpt>
      <trkpt lat="44.59682" lon="3.29888">
        <ele>736.8</ele>
        <time>2024-11-05T12:28:04.199Z</time>
      </trkpt>
      <trkpt lat="44.59652" lon="3.29892">
        <ele>735.73</ele>
        <time>2024-11-05T12:28:11.933Z</time>
      </trkpt>
      <trkpt lat="44.59652" lon="3.29892">
        <ele>734.72</ele>
        <time>2024-11-05T12:28:19.667Z</time>
      </trkpt>
      <trkpt lat="44.59634" lon="3.29894">
        <ele>733.72</ele>
        <time>2024-11-05T12:28:27.403Z</time>
      </trkpt>
      <trkpt lat="44.59617" lon="3.29895">
        <ele>732.78</ele>
        <time>2024-11-05T12:28:35.142Z</time>
      </trkpt>
      <trkpt lat="44.59595" lon="3.29892">
        <ele>731.88</ele>
        <time>2024-11-05T12:28:42.885Z</time>
      </trkpt>
      <trkpt lat="44.59567" lon="3.29885">
        <ele>731</ele>
        <time>2024-11-05T12:28:50.632Z</time>
      </trkpt>
      <trkpt lat="44.59538" lon="3.29877">
        <ele>730.07</ele>
        <time>2024-11-05T12:28:58.384Z</time>
      </trkpt>
      <trkpt lat="44.59509" lon="3.29869">
        <ele>729.09</ele>
        <time>2024-11-05T12:29:06.141Z</time>
      </trkpt>
      <trkpt lat="44.5948" lon="3.29861">
        <ele>728.12</ele>
        <time>2024-11-05T12:29:13.902Z</time>
      </trkpt>
      <trkpt lat="44.59452" lon="3.2986">
        <ele>727.25</ele>
        <time>2024-11-05T12:29:21.668Z</time>
      </trkpt>
      <trkpt lat="44.59423" lon="3.29858">
        <ele>726.37</ele>
        <time>2024-11-05T12:29:29.439Z</time>
      </trkpt>
      <trkpt lat="44.59395" lon="3.29857">
        <ele>725.56</ele>
        <time>2024-11-05T12:29:37.214Z</time>
      </trkpt>
      <trkpt lat="44.59384" lon="3.29851">
        <ele>724.87</ele>
        <time>2024-11-05T12:29:44.991Z</time>
      </trkpt>
      <trkpt lat="44.5937" lon="3.29836">
        <ele>724.27</ele>
        <time>2024-11-05T12:29:52.771Z</time>
      </trkpt>
      <trkpt lat="44.59357" lon="3.29821">
        <ele>723.77</ele>
        <time>2024-11-05T12:30:00.554Z</time>
      </trkpt>
      <trkpt lat="44.59352" lon="3.29816">
        <ele>723.22</ele>
        <time>2024-11-05T12:30:08.338Z</time>
      </trkpt>
      <trkpt lat="44.59346" lon="3.29814">
        <ele>722.66</ele>
        <time>2024-11-05T12:30:16.122Z</time>
      </trkpt>
      <trkpt lat="44.5934" lon="3.29814">
        <ele>722.1</ele>
        <time>2024-11-05T12:30:23.907Z</time>
      </trkpt>
      <trkpt lat="44.5931" lon="3.29821">
        <ele>721.43</ele>
        <time>2024-11-05T12:30:31.697Z</time>
      </trkpt>
      <trkpt lat="44.59293" lon="3.29825">
        <ele>720.86</ele>
        <time>2024-11-05T12:30:39.490Z</time>
      </trkpt>
      <trkpt lat="44.59277" lon="3.29829">
        <ele>720.34</ele>
        <time>2024-11-05T12:30:47.286Z</time>
      </trkpt>
      <trkpt lat="44.5926" lon="3.29836">
        <ele>719.86</ele>
        <time>2024-11-05T12:30:55.084Z</time>
      </trkpt>
      <trkpt lat="44.59243" lon="3.29842">
        <ele>719.44</ele>
        <time>2024-11-05T12:31:02.885Z</time>
      </trkpt>
      <trkpt lat="44.59221" lon="3.29861">
        <ele>718.86</ele>
        <time>2024-11-05T12:31:10.690Z</time>
      </trkpt>
      <trkpt lat="44.59207" lon="3.29869">
        <ele>718.38</ele>
        <time>2024-11-05T12:31:18.498Z</time>
      </trkpt>
      <trkpt lat="44.59186" lon="3.29872">
        <ele>717.93</ele>
        <time>2024-11-05T12:31:26.309Z</time>
      </trkpt>
      <trkpt lat="44.59162" lon="3.29886">
        <ele>717.5</ele>
        <time>2024-11-05T12:31:34.124Z</time>
      </trkpt>
      <trkpt lat="44.59138" lon="3.29899">
        <ele>717.16</ele>
        <time>2024-11-05T12:31:41.944Z</time>
      </trkpt>
      <trkpt lat="44.59114" lon="3.29913">
        <ele>716.67</ele>
        <time>2024-11-05T12:31:49.768Z</time>
      </trkpt>
      <trkpt lat="44.591" lon="3.29915">
        <ele>716.21</ele>
        <time>2024-11-05T12:31:57.594Z</time>
      </trkpt>
      <trkpt lat="44.59086" lon="3.29909">
        <ele>715.81</ele>
        <time>2024-11-05T12:32:05.422Z</time>
      </trkpt>
      <trkpt lat="44.59064" lon="3.29891">
        <ele>715.38</ele>
        <time>2024-11-05T12:32:13.254Z</time>
      </trkpt>
      <trkpt lat="44.59042" lon="3.29873">
        <ele>714.99</ele>
        <time>2024-11-05T12:32:21.090Z</time>
      </trkpt>
      <trkpt lat="44.5902" lon="3.29856">
        <ele>714.64</ele>
        <time>2024-11-05T12:32:28.930Z</time>
      </trkpt>
      <trkpt lat="44.58996" lon="3.29846">
        <ele>714.23</ele>
        <time>2024-11-05T12:32:36.774Z</time>
      </trkpt>
      <trkpt lat="44.58971" lon="3.29829">
        <ele>713.83</ele>
        <time>2024-11-05T12:32:44.623Z</time>
      </trkpt>
      <trkpt lat="44.58947" lon="3.29811">
        <ele>713.43</ele>
        <time>2024-11-05T12:32:52.476Z</time>
      </trkpt>
      <trkpt lat="44.58923" lon="3.29786">
        <ele>713.08</ele>
        <time>2024-11-05T12:33:00.334Z</time>
      </trkpt>
      <trkpt lat="44.58898" lon="3.29762">
        <ele>712.71</ele>
        <time>2024-11-05T12:33:08.197Z</time>
      </trkpt>
      <trkpt lat="44.58887" lon="3.29747">
        <ele>712.41</ele>
        <time>2024-11-05T12:33:16.062Z</time>
      </trkpt>
      <trkpt lat="44.58865" lon="3.29719">
        <ele>712.14</ele>
        <time>2024-11-05T12:33:23.932Z</time>
      </trkpt>
      <trkpt lat="44.58846" lon="3.29701">
        <ele>711.84</ele>
        <time>2024-11-05T12:33:31.806Z</time>
      </trkpt>
      <trkpt lat="44.58827" lon="3.29684">
        <ele>711.54</ele>
        <time>2024-11-05T12:33:39.683Z</time>
      </trkpt>
      <trkpt lat="44.58807" lon="3.29654">
        <ele>711.27</ele>
        <time>2024-11-05T12:33:47.565Z</time>
      </trkpt>
      <trkpt lat="44.58786" lon="3.29623">
        <ele>711.04</ele>
        <time>2024-11-05T12:33:55.452Z</time>
      </trkpt>
      <trkpt lat="44.58765" lon="3.29601">
        <ele>710.82</ele>
        <time>2024-11-05T12:34:03.343Z</time>
      </trkpt>
      <trkpt lat="44.58744" lon="3.29578">
        <ele>710.62</ele>
        <time>2024-11-05T12:34:11.238Z</time>
      </trkpt>
      <trkpt lat="44.58731" lon="3.29566">
        <ele>710.45</ele>
        <time>2024-11-05T12:34:19.136Z</time>
      </trkpt>
      <trkpt lat="44.58717" lon="3.29553">
        <ele>710.29</ele>
        <time>2024-11-05T12:34:27.037Z</time>
      </trkpt>
      <trkpt lat="44.587" lon="3.29545">
        <ele>710.1</ele>
        <time>2024-11-05T12:34:34.940Z</time>
      </trkpt>
      <trkpt lat="44.58684" lon="3.29537">
        <ele>709.94</ele>
        <time>2024-11-05T12:34:42.846Z</time>
      </trkpt>
      <trkpt lat="44.58661" lon="3.29532">
        <ele>709.74</ele>
        <time>2024-11-05T12:34:50.756Z</time>
      </trkpt>
      <trkpt lat="44.58643" lon="3.29533">
        <ele>709.55</ele>
        <time>2024-11-05T12:34:58.669Z</time>
      </trkpt>
      <trkpt lat="44.58643" lon="3.29533">
        <ele>709.39</ele>
        <time>2024-11-05T12:35:06.582Z</time>
      </trkpt>
      <trkpt lat="44.58616" lon="3.29534">
        <ele>709.29</ele>
        <time>2024-11-05T12:35:14.499Z</time>
      </trkpt>
      <trkpt lat="44.58589" lon="3.29536">
        <ele>709.19</ele>
        <time>2024-11-05T12:35:22.420Z</time>
      </trkpt>
      <trkpt lat="44.58563" lon="3.29537">
        <ele>709.06</ele>
        <time>2024-11-05T12:35:30.346Z</time>
      </trkpt>
      <trkpt lat="44.58536" lon="3.29538">
        <ele>708.88</ele>
        <time>2024-11-05T12:35:38.276Z</time>
      </trkpt>
      <trkpt lat="44.5852" lon="3.29536">
        <ele>708.71</ele>
        <time>2024-11-05T12:35:46.209Z</time>
      </trkpt>
      <trkpt lat="44.58503" lon="3.29533">
        <ele>708.56</ele>
        <time>2024-11-05T12:35:54.144Z</time>
      </trkpt>
      <trkpt lat="44.58487" lon="3.29528">
        <ele>708.39</ele>
        <time>2024-11-05T12:36:02.082Z</time>
      </trkpt>
      <trkpt lat="44.58471" lon="3.29523">
        <ele>708.24</ele>
        <time>2024-11-05T12:36:10.022Z</time>
      </trkpt>
      <trkpt lat="44.58445" lon="3.29501">
        <ele>708.13</ele>
        <time>2024-11-05T12:36:17.967Z</time>
      </trkpt>
      <trkpt lat="44.58425" lon="3.29473">
        <ele>708.09</ele>
        <time>2024-11-05T12:36:25.917Z</time>
      </trkpt>
      <trkpt lat="44.58404" lon="3.29445">
        <ele>708.15</ele>
        <time>2024-11-05T12:36:33.871Z</time>
      </trkpt>
      <trkpt lat="44.58381" lon="3.29423">
        <ele>708.14</ele>
        <time>2024-11-05T12:36:41.830Z</time>
      </trkpt>
      <trkpt lat="44.58358" lon="3.294">
        <ele>708.13</ele>
        <time>2024-11-05T12:36:49.793Z</time>
      </trkpt>
      <trkpt lat="44.58335" lon="3.29377">
        <ele>708.12</ele>
        <time>2024-11-05T12:36:57.761Z</time>
      </trkpt>
      <trkpt lat="44.58315" lon="3.29355">
        <ele>708.08</ele>
        <time>2024-11-05T12:37:05.733Z</time>
      </trkpt>
      <trkpt lat="44.58296" lon="3.29332">
        <ele>708.04</ele>
        <time>2024-11-05T12:37:13.709Z</time>
      </trkpt>
      <trkpt lat="44.58283" lon="3.29309">
        <ele>708.1</ele>
        <time>2024-11-05T12:37:21.689Z</time>
      </trkpt>
      <trkpt lat="44.58269" lon="3.29285">
        <ele>708.21</ele>
        <time>2024-11-05T12:37:29.672Z</time>
      </trkpt>
      <trkpt lat="44.58249" lon="3.29263">
        <ele>708.31</ele>
        <time>2024-11-05T12:37:37.659Z</time>
      </trkpt>
      <trkpt lat="44.58229" lon="3.29254">
        <ele>708.31</ele>
        <time>2024-11-05T12:37:45.649Z</time>
      </trkpt>
      <trkpt lat="44.58209" lon="3.29244">
        <ele>708.37</ele>
        <time>2024-11-05T12:37:53.643Z</time>
      </trkpt>
      <trkpt lat="44.5819" lon="3.2923">
        <ele>708.52</ele>
        <time>2024-11-05T12:38:01.640Z</time>
      </trkpt>
      <trkpt lat="44.5817" lon="3.29217">
        <ele>708.66</ele>
        <time>2024-11-05T12:38:09.641Z</time>
      </trkpt>
      <trkpt lat="44.58146" lon="3.29203">
        <ele>708.73</ele>
        <time>2024-11-05T12:38:17.646Z</time>
      </trkpt>
      <trkpt lat="44.58122" lon="3.29189">
        <ele>708.87</ele>
        <time>2024-11-05T12:38:25.655Z</time>
      </trkpt>
      <trkpt lat="44.58098" lon="3.29175">
        <ele>708.96</ele>
        <time>2024-11-05T12:38:33.668Z</time>
      </trkpt>
      <trkpt lat="44.58074" lon="3.29161">
        <ele>709.07</ele>
        <time>2024-11-05T12:38:41.685Z</time>
      </trkpt>
      <trkpt lat="44.58051" lon="3.29158">
        <ele>709.15</ele>
        <time>2024-11-05T12:38:49.706Z</time>
      </trkpt>
      <trkpt lat="44.58032" lon="3.29151">
        <ele>709.35</ele>
        <time>2024-11-05T12:38:57.730Z</time>
      </trkpt>
      <trkpt lat="44.58012" lon="3.29144">
        <ele>709.54</ele>
        <time>2024-11-05T12:39:05.758Z</time>
      </trkpt>
      <trkpt lat="44.57986" lon="3.29137">
        <ele>709.72</ele>
        <time>2024-11-05T12:39:13.790Z</time>
      </trkpt>
      <trkpt lat="44.57961" lon="3.29131">
        <ele>709.94</ele>
        <time>2024-11-05T12:39:21.826Z</time>
      </trkpt>
      <trkpt lat="44.57936" lon="3.29124">
        <ele>710.18</ele>
        <time>2024-11-05T12:39:29.866Z</time>
      </trkpt>
      <trkpt lat="44.57911" lon="3.29118">
        <ele>710.38</ele>
        <time>2024-11-05T12:39:37.910Z</time>
      </trkpt>
      <trkpt lat="44.57891" lon="3.29118">
        <ele>710.55</ele>
        <time>2024-11-05T12:39:45.957Z</time>
      </trkpt>
      <trkpt lat="44.57871" lon="3.29118">
        <ele>710.85</ele>
        <time>2024-11-05T12:39:54.007Z</time>
      </trkpt>
      <trkpt lat="44.57871" lon="3.29118">
        <ele>711.07</ele>
        <time>2024-11-05T12:40:02.057Z</time>
      </trkpt>
      <trkpt lat="44.5786" lon="3.29118">
        <ele>711.35</ele>
        <time>2024-11-05T12:40:10.109Z</time>
      </trkpt>
      <trkpt lat="44.57839" lon="3.29122">
        <ele>711.67</ele>
        <time>2024-11-05T12:40:18.165Z</time>
      </trkpt>
      <trkpt lat="44.57828" lon="3.29127">
        <ele>711.97</ele>
        <time>2024-11-05T12:40:26.222Z</time>
      </trkpt>
      <trkpt lat="44.5782" lon="3.29139">
        <ele>712.22</ele>
        <time>2024-11-05T12:40:34.281Z</time>
      </trkpt>
      <trkpt lat="44.57809" lon="3.29163">
        <ele>712.34</ele>
        <time>2024-11-05T12:40:42.344Z</time>
      </trkpt>
      <trkpt lat="44.57796" lon="3.29191">
        <ele>712.49</ele>
        <time>2024-11-05T12:40:50.410Z</time>
      </trkpt>
      <trkpt lat="44.57783" lon="3.29214">
        <ele>712.65</ele>
        <time>2024-11-05T12:40:58.480Z</time>
      </trkpt>
      <trkpt lat="44.57771" lon="3.29238">
        <ele>712.97</ele>
        <time>2024-11-05T12:41:06.553Z</time>
      </trkpt>
      <trkpt lat="44.57758" lon="3.29262">
        <ele>713.36</ele>
        <time>2024-11-05T12:41:14.629Z</time>
      </trkpt>
      <trkpt lat="44.57748" lon="3.29289">
        <ele>713.62</ele>
        <time>2024-11-05T12:41:22.709Z</time>
      </trkpt>
      <trkpt lat="44.57737" lon="3.29316">
        <ele>713.68</ele>
        <time>2024-11-05T12:41:30.793Z</time>
      </trkpt>
      <trkpt lat="44.57727" lon="3.2933">
        <ele>713.78</ele>
        <time>2024-11-05T12:41:38.879Z</time>
      </trkpt>
      <trkpt lat="44.57721" lon="3.29337">
        <ele>713.89</ele>
        <time>2024-11-05T12:41:46.966Z</time>
      </trkpt>
      <trkpt lat="44.57705" lon="3.2934">
        <ele>714.05</ele>
        <time>2024-11-05T12:41:55.056Z</time>
      </trkpt>
      <trkpt lat="44.57697" lon="3.29338">
        <ele>714.25</ele>
        <time>2024-11-05T12:42:03.147Z</time>
      </trkpt>
      <trkpt lat="44.57671" lon="3.29325">
        <ele>714.44</ele>
        <time>2024-11-05T12:42:11.242Z</time>
      </trkpt>
      <trkpt lat="44.57645" lon="3.29313">
        <ele>714.6</ele>
        <time>2024-11-05T12:42:19.342Z</time>
      </trkpt>
      <trkpt lat="44.57619" lon="3.293">
        <ele>714.81</ele>
        <time>2024-11-05T12:42:27.446Z</time>
      </trkpt>
      <trkpt lat="44.576" lon="3.29295">
        <ele>714.94</ele>
        <time>2024-11-05T12:42:35.553Z</time>
      </trkpt>
      <trkpt lat="44.57583" lon="3.29296">
        <ele>714.97</ele>
        <time>2024-11-05T12:42:43.663Z</time>
      </trkpt>
      <trkpt lat="44.57566" lon="3.29297">
        <ele>715.02</ele>
        <time>2024-11-05T12:42:51.776Z</time>
      </trkpt>
      <trkpt lat="44.57554" lon="3.29294">
        <ele>715.11</ele>
        <time>2024-11-05T12:42:59.891Z</time>
      </trkpt>
      <trkpt lat="44.57532" lon="3.2928">
        <ele>715.24</ele>
        <time>2024-11-05T12:43:08.009Z</time>
      </trkpt>
      <trkpt lat="44.57511" lon="3.29267">
        <ele>715.39</ele>
        <time>2024-11-05T12:43:16.131Z</time>
      </trkpt>
      <trkpt lat="44.57496" lon="3.29259">
        <ele>715.48</ele>
        <time>2024-11-05T12:43:24.256Z</time>
      </trkpt>
      <trkpt lat="44.57481" lon="3.29252">
        <ele>715.53</ele>
        <time>2024-11-05T12:43:32.383Z</time>
      </trkpt>
      <trkpt lat="44.57466" lon="3.29238">
        <ele>715.64</ele>
        <time>2024-11-05T12:43:40.513Z</time>
      </trkpt>
      <trkpt lat="44.57451" lon="3.29224">
        <ele>715.74</ele>
        <time>2024-11-05T12:43:48.646Z</time>
      </trkpt>
      <trkpt lat="44.57432" lon="3.29211">
        <ele>715.88</ele>
        <time>2024-11-05T12:43:56.782Z</time>
      </trkpt>
      <trkpt lat="44.57417" lon="3.29208">
        <ele>715.97</ele>
        <time>2024-11-05T12:44:04.921Z</time>
      </trkpt>
      <trkpt lat="44.57401" lon="3.29204">
        <ele>716.11</ele>
        <time>2024-11-05T12:44:13.062Z</time>
      </trkpt>
      <trkpt lat="44.57381" lon="3.29206">
        <ele>716.21</ele>
        <time>2024-11-05T12:44:21.207Z</time>
      </trkpt>
      <trkpt lat="44.57365" lon="3.2921">
        <ele>716.24</ele>
        <time>2024-11-05T12:44:29.354Z</time>
      </trkpt>
      <trkpt lat="44.57342" lon="3.29222">
        <ele>716.34</ele>
        <time>2024-11-05T12:44:37.505Z</time>
      </trkpt>
      <trkpt lat="44.5732" lon="3.29235">
        <ele>716.37</ele>
        <time>2024-11-05T12:44:45.660Z</time>
      </trkpt>
      <trkpt lat="44.57297" lon="3.2924">
        <ele>716.45</ele>
        <time>2024-11-05T12:44:53.819Z</time>
      </trkpt>
      <trkpt lat="44.5727" lon="3.2924">
        <ele>716.56</ele>
        <time>2024-11-05T12:45:01.982Z</time>
      </trkpt>
      <trkpt lat="44.57251" lon="3.29237">
        <ele>716.59</ele>
        <time>2024-11-05T12:45:10.148Z</time>
      </trkpt>
      <trkpt lat="44.57232" lon="3.29229">
        <ele>716.73</ele>
        <time>2024-11-05T12:45:18.317Z</time>
      </trkpt>
      <trkpt lat="44.57213" lon="3.29222">
        <ele>716.88</ele>
        <time>2024-11-05T12:45:26.489Z</time>
      </trkpt>
      <trkpt lat="44.57184" lon="3.29214">
        <ele>717</ele>
        <time>2024-11-05T12:45:34.666Z</time>
      </trkpt>
      <trkpt lat="44.57154" lon="3.29206">
        <ele>717.03</ele>
        <time>2024-11-05T12:45:42.848Z</time>
      </trkpt>
      <trkpt lat="44.57124" lon="3.29198">
        <ele>716.99</ele>
        <time>2024-11-05T12:45:51.035Z</time>
      </trkpt>
      <trkpt lat="44.57124" lon="3.29198">
        <ele>717.09</ele>
        <time>2024-11-05T12:45:59.222Z</time>
      </trkpt>
      <trkpt lat="44.57118" lon="3.29193">
        <ele>717.17</ele>
        <time>2024-11-05T12:46:07.410Z</time>
      </trkpt>
      <trkpt lat="44.57117" lon="3.29188">
        <ele>717.29</ele>
        <time>2024-11-05T12:46:15.599Z</time>
      </trkpt>
      <trkpt lat="44.57118" lon="3.29181">
        <ele>717.4</ele>
        <time>2024-11-05T12:46:23.788Z</time>
      </trkpt>
      <trkpt lat="44.57133" lon="3.2915">
        <ele>717.69</ele>
        <time>2024-11-05T12:46:31.982Z</time>
      </trkpt>
      <trkpt lat="44.57148" lon="3.29117">
        <ele>717.84</ele>
        <time>2024-11-05T12:46:40.180Z</time>
      </trkpt>
      <trkpt lat="44.57153" lon="3.29093">
        <ele>717.93</ele>
        <time>2024-11-05T12:46:48.381Z</time>
      </trkpt>
      <trkpt lat="44.57151" lon="3.2905">
        <ele>717.86</ele>
        <time>2024-11-05T12:46:56.587Z</time>
      </trkpt>
      <trkpt lat="44.57154" lon="3.2904">
        <ele>717.96</ele>
        <time>2024-11-05T12:47:04.794Z</time>
      </trkpt>
      <trkpt lat="44.57158" lon="3.29032">
        <ele>718.04</ele>
        <time>2024-11-05T12:47:13.002Z</time>
      </trkpt>
      <trkpt lat="44.57183" lon="3.29008">
        <ele>718.24</ele>
        <time>2024-11-05T12:47:21.215Z</time>
      </trkpt>
      <trkpt lat="44.57209" lon="3.28984">
        <ele>718.4</ele>
        <time>2024-11-05T12:47:29.433Z</time>
      </trkpt>
      <trkpt lat="44.57219" lon="3.28973">
        <ele>718.51</ele>
        <time>2024-11-05T12:47:37.653Z</time>
      </trkpt>
      <trkpt lat="44.57225" lon="3.28961">
        <ele>718.58</ele>
        <time>2024-11-05T12:47:45.875Z</time>
      </trkpt>
      <trkpt lat="44.57228" lon="3.28947">
        <ele>718.66</ele>
        <time>2024-11-05T12:47:54.099Z</time>
      </trkpt>
      <trkpt lat="44.57232" lon="3.28911">
        <ele>718.6</ele>
        <time>2024-11-05T12:48:02.327Z</time>
      </trkpt>
      <trkpt lat="44.57236" lon="3.28874">
        <ele>718.51</ele>
        <time>2024-11-05T12:48:10.559Z</time>
      </trkpt>
      <trkpt lat="44.57239" lon="3.28868">
        <ele>718.52</ele>
        <time>2024-11-05T12:48:18.792Z</time>
      </trkpt>
      <trkpt lat="44.57253" lon="3.28855">
        <ele>718.53</ele>
        <time>2024-11-05T12:48:27.028Z</time>
      </trkpt>
      <trkpt lat="44.57266" lon="3.28843">
        <ele>718.6</ele>
        <time>2024-11-05T12:48:35.266Z</time>
      </trkpt>
      <trkpt lat="44.57269" lon="3.2884">
        <ele>718.57</ele>
        <time>2024-11-05T12:48:43.505Z</time>
      </trkpt>
      <trkpt lat="44.57279" lon="3.28817">
        <ele>718.46</ele>
        <time>2024-11-05T12:48:51.747Z</time>
      </trkpt>
      <trkpt lat="44.57264" lon="3.28811">
        <ele>718.41</ele>
        <time>2024-11-05T12:48:59.991Z</time>
      </trkpt>
      <trkpt lat="44.5725" lon="3.28808">
        <ele>718.29</ele>
        <time>2024-11-05T12:49:08.237Z</time>
      </trkpt>
      <trkpt lat="44.57235" lon="3.28808">
        <ele>718.28</ele>
        <time>2024-11-05T12:49:16.486Z</time>
      </trkpt>
      <trkpt lat="44.57226" lon="3.28809">
        <ele>718.17</ele>
        <time>2024-11-05T12:49:24.736Z</time>
      </trkpt>
      <trkpt lat="44.57226" lon="3.28809">
        <ele>718.01</ele>
        <time>2024-11-05T12:49:32.986Z</time>
      </trkpt>
      <trkpt lat="44.57215" lon="3.28815">
        <ele>717.93</ele>
        <time>2024-11-05T12:49:41.238Z</time>
      </trkpt>
      <trkpt lat="44.57205" lon="3.28823">
        <ele>717.77</ele>
        <time>2024-11-05T12:49:49.492Z</time>
      </trkpt>
      <trkpt lat="44.57186" lon="3.28854">
        <ele>717.56</ele>
        <time>2024-11-05T12:49:57.751Z</time>
      </trkpt>
      <trkpt lat="44.57167" lon="3.28887">
        <ele>717.21</ele>
        <time>2024-11-05T12:50:06.015Z</time>
      </trkpt>
      <trkpt lat="44.5715" lon="3.28905">
        <ele>716.86</ele>
        <time>2024-11-05T12:50:14.282Z</time>
      </trkpt>
      <trkpt lat="44.57129" lon="3.28918">
        <ele>716.6</ele>
        <time>2024-11-05T12:50:22.553Z</time>
      </trkpt>
      <trkpt lat="44.57106" lon="3.28934">
        <ele>716.35</ele>
        <time>2024-11-05T12:50:30.828Z</time>
      </trkpt>
      <trkpt lat="44.57092" lon="3.28954">
        <ele>716</ele>
        <time>2024-11-05T12:50:39.106Z</time>
      </trkpt>
      <trkpt lat="44.57075" lon="3.2899">
        <ele>715.47</ele>
        <time>2024-11-05T12:50:47.389Z</time>
      </trkpt>
      <trkpt lat="44.57062" lon="3.29027">
        <ele>714.87</ele>
        <time>2024-11-05T12:50:55.677Z</time>
      </trkpt>
      <trkpt lat="44.57044" lon="3.29049">
        <ele>714.31</ele>
        <time>2024-11-05T12:51:03.968Z</time>
      </trkpt>
      <trkpt lat="44.57022" lon="3.29056">
        <ele>713.82</ele>
        <time>2024-11-05T12:51:12.263Z</time>
      </trkpt>
      <trkpt lat="44.57" lon="3.29063">
        <ele>713.28</ele>
        <time>2024-11-05T12:51:20.562Z</time>
      </trkpt>
      <trkpt lat="44.56973" lon="3.29066">
        <ele>712.72</ele>
        <time>2024-11-05T12:51:28.865Z</time>
      </trkpt>
      <trkpt lat="44.56946" lon="3.29068">
        <ele>712.24</ele>
        <time>2024-11-05T12:51:37.172Z</time>
      </trkpt>
      <trkpt lat="44.56931" lon="3.29075">
        <ele>711.73</ele>
        <time>2024-11-05T12:51:45.482Z</time>
      </trkpt>
      <trkpt lat="44.56911" lon="3.29091">
        <ele>711.14</ele>
        <time>2024-11-05T12:51:53.796Z</time>
      </trkpt>
      <trkpt lat="44.56889" lon="3.29117">
        <ele>710.49</ele>
        <time>2024-11-05T12:52:02.114Z</time>
      </trkpt>
      <trkpt lat="44.56871" lon="3.29141">
        <ele>709.82</ele>
        <time>2024-11-05T12:52:10.436Z</time>
      </trkpt>
      <trkpt lat="44.56855" lon="3.29171">
        <ele>709.1</ele>
        <time>2024-11-05T12:52:18.762Z</time>
      </trkpt>
      <trkpt lat="44.56835" lon="3.29197">
        <ele>708.34</ele>
        <time>2024-11-05T12:52:27.093Z</time>
      </trkpt>
      <trkpt lat="44.56822" lon="3.29206">
        <ele>707.62</ele>
        <time>2024-11-05T12:52:35.426Z</time>
      </trkpt>
      <trkpt lat="44.56805" lon="3.2921">
        <ele>706.91</ele>
        <time>2024-11-05T12:52:43.762Z</time>
      </trkpt>
      <trkpt lat="44.56789" lon="3.29214">
        <ele>706.21</ele>
        <time>2024-11-05T12:52:52.101Z</time>
      </trkpt>
      <trkpt lat="44.56759" lon="3.29206">
        <ele>705.54</ele>
        <time>2024-11-05T12:53:00.444Z</time>
      </trkpt>
      <trkpt lat="44.5673" lon="3.29189">
        <ele>704.78</ele>
        <time>2024-11-05T12:53:08.792Z</time>
      </trkpt>
      <trkpt lat="44.56701" lon="3.29171">
        <ele>703.95</ele>
        <time>2024-11-05T12:53:17.146Z</time>
      </trkpt>
      <trkpt lat="44.56685" lon="3.29165">
        <ele>703.19</ele>
        <time>2024-11-05T12:53:25.502Z</time>
      </trkpt>
      <trkpt lat="44.5666" lon="3.29159">
        <ele>702.41</ele>
        <time>2024-11-05T12:53:33.862Z</time>
      </trkpt>
      <trkpt lat="44.56634" lon="3.29154">
        <ele>701.6</ele>
        <time>2024-11-05T12:53:42.226Z</time>
      </trkpt>
      <trkpt lat="44.56609" lon="3.29148">
        <ele>700.81</ele>
        <time>2024-11-05T12:53:50.594Z</time>
      </trkpt>
      <trkpt lat="44.56602" lon="3.29146">
        <ele>700.03</ele>
        <time>2024-11-05T12:53:58.964Z</time>
      </trkpt>
      <trkpt lat="44.56571" lon="3.2914">
        <ele>699.23</ele>
        <time>2024-11-05T12:54:07.339Z</time>
      </trkpt>
      <trkpt lat="44.56541" lon="3.29134">
        <ele>698.4</ele>
        <time>2024-11-05T12:54:15.718Z</time>
      </trkpt>
      <trkpt lat="44.56527" lon="3.29125">
        <ele>697.59</ele>
        <time>2024-11-05T12:54:24.100Z</time>
      </trkpt>
      <trkpt lat="44.56509" lon="3.29121">
        <ele>696.77</ele>
        <time>2024-11-05T12:54:32.485Z</time>
      </trkpt>
      <trkpt lat="44.56509" lon="3.29121">
        <ele>696</ele>
        <time>2024-11-05T12:54:40.870Z</time>
      </trkpt>
      <trkpt lat="44.56491" lon="3.29119">
        <ele>695.19</ele>
        <time>2024-11-05T12:54:49.258Z</time>
      </trkpt>
      <trkpt lat="44.56473" lon="3.29117">
        <ele>694.39</ele>
        <time>2024-11-05T12:54:57.649Z</time>
      </trkpt>
      <trkpt lat="44.56447" lon="3.29118">
        <ele>693.6</ele>
        <time>2024-11-05T12:55:06.044Z</time>
      </trkpt>
      <trkpt lat="44.56447" lon="3.29118">
        <ele>692.85</ele>
        <time>2024-11-05T12:55:14.439Z</time>
      </trkpt>
      <trkpt lat="44.56425" lon="3.29116">
        <ele>692.1</ele>
        <time>2024-11-05T12:55:22.837Z</time>
      </trkpt>
      <trkpt lat="44.5641" lon="3.29117">
        <ele>691.36</ele>
        <time>2024-11-05T12:55:31.238Z</time>
      </trkpt>
      <trkpt lat="44.56401" lon="3.29116">
        <ele>690.63</ele>
        <time>2024-11-05T12:55:39.640Z</time>
      </trkpt>
      <trkpt lat="44.56395" lon="3.29108">
        <ele>689.92</ele>
        <time>2024-11-05T12:55:48.043Z</time>
      </trkpt>
      <trkpt lat="44.56391" lon="3.29107">
        <ele>689.2</ele>
        <time>2024-11-05T12:55:56.447Z</time>
      </trkpt>
      <trkpt lat="44.56382" lon="3.29109">
        <ele>688.48</ele>
        <time>2024-11-05T12:56:04.853Z</time>
      </trkpt>
      <trkpt lat="44.56382" lon="3.29109">
        <ele>687.77</ele>
        <time>2024-11-05T12:56:13.259Z</time>
      </trkpt>
      <trkpt lat="44.56377" lon="3.29118">
        <ele>687.04</ele>
        <time>2024-11-05T12:56:21.666Z</time>
      </trkpt>
      <trkpt lat="44.56374" lon="3.29129">
        <ele>686.31</ele>
        <time>2024-11-05T12:56:30.074Z</time>
      </trkpt>
      <trkpt lat="44.56376" lon="3.29136">
        <ele>685.59</ele>
        <time>2024-11-05T12:56:38.483Z</time>
      </trkpt>
      <trkpt lat="44.56371" lon="3.29147">
        <ele>684.87</ele>
        <time>2024-11-05T12:56:46.893Z</time>
      </trkpt>
      <trkpt lat="44.56367" lon="3.29158">
        <ele>684.17</ele>
        <time>2024-11-05T12:56:55.305Z</time>
      </trkpt>
      <trkpt lat="44.56357" lon="3.29174">
        <ele>683.46</ele>
        <time>2024-11-05T12:57:03.719Z</time>
      </trkpt>
      <trkpt lat="44.56335" lon="3.29183">
        <ele>682.78</ele>
        <time>2024-11-05T12:57:12.137Z</time>
      </trkpt>
      <trkpt lat="44.56313" lon="3.29192">
        <ele>682.09</ele>
        <time>2024-11-05T12:57:20.559Z</time>
      </trkpt>
      <trkpt lat="44.56302" lon="3.29193">
        <ele>681.39</ele>
        <time>2024-11-05T12:57:28.982Z</time>
      </trkpt>
      <trkpt lat="44.56295" lon="3.29193">
        <ele>680.69</ele>
        <time>2024-11-05T12:57:37.406Z</time>
      </trkpt>
      <trkpt lat="44.56276" lon="3.29186">
        <ele>679.99</ele>
        <time>2024-11-05T12:57:45.834Z</time>
      </trkpt>
      <trkpt lat="44.56258" lon="3.2918">
        <ele>679.28</ele>
        <time>2024-11-05T12:57:54.265Z</time>
      </trkpt>
      <trkpt lat="44.56232" lon="3.29175">
        <ele>678.56</ele>
        <time>2024-11-05T12:58:02.700Z</time>
      </trkpt>
      <trkpt lat="44.56208" lon="3.29174">
        <ele>677.84</ele>
        <time>2024-11-05T12:58:11.139Z</time>
      </trkpt>
      <trkpt lat="44.56187" lon="3.29176">
        <ele>677.11</ele>
        <time>2024-11-05T12:58:19.581Z</time>
      </trkpt>
      <trkpt lat="44.56165" lon="3.29178">
        <ele>676.39</ele>
        <time>2024-11-05T12:58:28.026Z</time>
      </trkpt>
      <trkpt lat="44.5616" lon="3.29178">
        <ele>675.68</ele>
        <time>2024-11-05T12:58:36.472Z</time>
      </trkpt>
      <trkpt lat="44.56137" lon="3.29181">
        <ele>674.92</ele>
        <time>2024-11-05T12:58:44.922Z</time>
      </trkpt>
      <trkpt lat="44.56106" lon="3.29184">
        <ele>674.16</ele>
        <time>2024-11-05T12:58:53.377Z</time>
      </trkpt>
      <trkpt lat="44.56093" lon="3.29186">
        <ele>673.46</ele>
        <time>2024-11-05T12:59:01.834Z</time>
      </trkpt>
      <trkpt lat="44.5608" lon="3.29185">
        <ele>672.77</ele>
        <time>2024-11-05T12:59:10.293Z</time>
      </trkpt>
      <trkpt lat="44.56063" lon="3.29183">
        <ele>672.06</ele>
        <time>2024-11-05T12:59:18.755Z</time>
      </trkpt>
      <trkpt lat="44.56046" lon="3.29181">
        <ele>671.38</ele>
        <time>2024-11-05T12:59:27.220Z</time>
      </trkpt>
      <trkpt lat="44.56025" lon="3.29175">
        <ele>670.72</ele>
        <time>2024-11-05T12:59:35.688Z</time>
      </trkpt>
      <trkpt lat="44.56006" lon="3.29168">
        <ele>670.05</ele>
        <time>2024-11-05T12:59:44.159Z</time>
      </trkpt>
      <trkpt lat="44.55988" lon="3.29162">
        <ele>669.36</ele>
        <time>2024-11-05T12:59:52.633Z</time>
      </trkpt>
      <trkpt lat="44.55961" lon="3.29151">
        <ele>668.67</ele>
        <time>2024-11-05T13:00:01.112Z</time>
      </trkpt>
      <trkpt lat="44.55934" lon="3.2914">
        <ele>667.98</ele>
        <time>2024-11-05T13:00:09.595Z</time>
      </trkpt>
      <trkpt lat="44.55934" lon="3.2914">
        <ele>667.33</ele>
        <time>2024-11-05T13:00:18.078Z</time>
      </trkpt>
      <trkpt lat="44.55907" lon="3.29129">
        <ele>666.67</ele>
        <time>2024-11-05T13:00:26.566Z</time>
      </trkpt>
      <trkpt lat="44.5588" lon="3.29118">
        <ele>666.01</ele>
        <time>2024-11-05T13:00:35.058Z</time>
      </trkpt>
      <trkpt lat="44.55852" lon="3.29105">
        <ele>665.37</ele>
        <time>2024-11-05T13:00:43.555Z</time>
      </trkpt>
      <trkpt lat="44.55832" lon="3.29094">
        <ele>664.72</ele>
        <time>2024-11-05T13:00:52.055Z</time>
      </trkpt>
      <trkpt lat="44.55832" lon="3.29094">
        <ele>664.1</ele>
        <time>2024-11-05T13:01:00.555Z</time>
      </trkpt>
      <trkpt lat="44.55828" lon="3.29089">
        <ele>663.49</ele>
        <time>2024-11-05T13:01:09.056Z</time>
      </trkpt>
      <trkpt lat="44.55824" lon="3.29087">
        <ele>662.88</ele>
        <time>2024-11-05T13:01:17.558Z</time>
      </trkpt>
      <trkpt lat="44.55819" lon="3.29088">
        <ele>662.27</ele>
        <time>2024-11-05T13:01:26.061Z</time>
      </trkpt>
      <trkpt lat="44.55813" lon="3.29092">
        <ele>661.67</ele>
        <time>2024-11-05T13:01:34.565Z</time>
      </trkpt>
      <trkpt lat="44.55794" lon="3.29094">
        <ele>661.07</ele>
        <time>2024-11-05T13:01:43.072Z</time>
      </trkpt>
      <trkpt lat="44.55774" lon="3.29094">
        <ele>660.48</ele>
        <time>2024-11-05T13:01:51.582Z</time>
      </trkpt>
      <trkpt lat="44.55742" lon="3.29095">
        <ele>659.88</ele>
        <time>2024-11-05T13:02:00.097Z</time>
      </trkpt>
      <trkpt lat="44.55711" lon="3.29096">
        <ele>659.3</ele>
        <time>2024-11-05T13:02:08.617Z</time>
      </trkpt>
      <trkpt lat="44.55679" lon="3.29097">
        <ele>658.75</ele>
        <time>2024-11-05T13:02:17.142Z</time>
      </trkpt>
      <trkpt lat="44.55657" lon="3.29099">
        <ele>658.22</ele>
        <time>2024-11-05T13:02:25.671Z</time>
      </trkpt>
      <trkpt lat="44.55635" lon="3.29101">
        <ele>657.7</ele>
        <time>2024-11-05T13:02:34.203Z</time>
      </trkpt>
      <trkpt lat="44.55613" lon="3.29101">
        <ele>657.16</ele>
        <time>2024-11-05T13:02:42.739Z</time>
      </trkpt>
      <trkpt lat="44.55591" lon="3.29102">
        <ele>656.65</ele>
        <time>2024-11-05T13:02:51.278Z</time>
      </trkpt>
      <trkpt lat="44.55569" lon="3.29103">
        <ele>656.15</ele>
        <time>2024-11-05T13:02:59.821Z</time>
      </trkpt>
      <trkpt lat="44.55541" lon="3.29103">
        <ele>655.66</ele>
        <time>2024-11-05T13:03:08.368Z</time>
      </trkpt>
      <trkpt lat="44.5552" lon="3.29103">
        <ele>655.19</ele>
        <time>2024-11-05T13:03:16.919Z</time>
      </trkpt>
      <trkpt lat="44.55513" lon="3.29107">
        <ele>654.75</ele>
        <time>2024-11-05T13:03:25.471Z</time>
      </trkpt>
      <trkpt lat="44.55508" lon="3.29118">
        <ele>654.31</ele>
        <time>2024-11-05T13:03:34.024Z</time>
      </trkpt>
      <trkpt lat="44.55498" lon="3.29145">
        <ele>653.91</ele>
        <time>2024-11-05T13:03:42.581Z</time>
      </trkpt>
      <trkpt lat="44.55486" lon="3.29184">
        <ele>653.52</ele>
        <time>2024-11-05T13:03:51.143Z</time>
      </trkpt>
      <trkpt lat="44.55474" lon="3.29223">
        <ele>653.09</ele>
        <time>2024-11-05T13:03:59.710Z</time>
      </trkpt>
      <trkpt lat="44.55464" lon="3.29235">
        <ele>652.69</ele>
        <time>2024-11-05T13:04:08.279Z</time>
      </trkpt>
      <trkpt lat="44.5546" lon="3.29238">
        <ele>652.31</ele>
        <time>2024-11-05T13:04:16.848Z</time>
      </trkpt>
      <trkpt lat="44.5545" lon="3.29243">
        <ele>651.93</ele>
        <time>2024-11-05T13:04:25.419Z</time>
      </trkpt>
      <trkpt lat="44.55435" lon="3.29243">
        <ele>651.57</ele>
        <time>2024-11-05T13:04:33.993Z</time>
      </trkpt>
      <trkpt lat="44.55417" lon="3.29244">
        <ele>651.23</ele>
        <time>2024-11-05T13:04:42.569Z</time>
      </trkpt>
      <trkpt lat="44.554" lon="3.29244">
        <ele>650.91</ele>
        <time>2024-11-05T13:04:51.148Z</time>
      </trkpt>
      <trkpt lat="44.55379" lon="3.29245">
        <ele>650.61</ele>
        <time>2024-11-05T13:04:59.731Z</time>
      </trkpt>
      <trkpt lat="44.55358" lon="3.29245">
        <ele>650.32</ele>
        <time>2024-11-05T13:05:08.317Z</time>
      </trkpt>
      <trkpt lat="44.55337" lon="3.29245">
        <ele>650.1</ele>
        <time>2024-11-05T13:05:16.906Z</time>
      </trkpt>
      <trkpt lat="44.55323" lon="3.29245">
        <ele>649.88</ele>
        <time>2024-11-05T13:05:25.498Z</time>
      </trkpt>
      <trkpt lat="44.55302" lon="3.29246">
        <ele>649.67</ele>
        <time>2024-11-05T13:05:34.093Z</time>
      </trkpt>
      <trkpt lat="44.55281" lon="3.29247">
        <ele>649.42</ele>
        <time>2024-11-05T13:05:42.691Z</time>
      </trkpt>
      <trkpt lat="44.55253" lon="3.2924">
        <ele>649.21</ele>
        <time>2024-11-05T13:05:51.294Z</time>
      </trkpt>
      <trkpt lat="44.55253" lon="3.2924">
        <ele>649.05</ele>
        <time>2024-11-05T13:05:59.897Z</time>
      </trkpt>
      <trkpt lat="44.5523" lon="3.29235">
        <ele>648.85</ele>
        <time>2024-11-05T13:06:08.503Z</time>
      </trkpt>
      <trkpt lat="44.55207" lon="3.29229">
        <ele>648.69</ele>
        <time>2024-11-05T13:06:17.113Z</time>
      </trkpt>
      <trkpt lat="44.55196" lon="3.29225">
        <ele>648.57</ele>
        <time>2024-11-05T13:06:25.725Z</time>
      </trkpt>
      <trkpt lat="44.55187" lon="3.29225">
        <ele>648.47</ele>
        <time>2024-11-05T13:06:34.339Z</time>
      </trkpt>
      <trkpt lat="44.55181" lon="3.29223">
        <ele>648.38</ele>
        <time>2024-11-05T13:06:42.953Z</time>
      </trkpt>
      <trkpt lat="44.55179" lon="3.29224">
        <ele>648.32</ele>
        <time>2024-11-05T13:06:51.568Z</time>
      </trkpt>
      <trkpt lat="44.55171" lon="3.29217">
        <ele>648.27</ele>
        <time>2024-11-05T13:07:00.184Z</time>
      </trkpt>
      <trkpt lat="44.55162" lon="3.29209">
        <ele>648.25</ele>
        <time>2024-11-05T13:07:08.802Z</time>
      </trkpt>
      <trkpt lat="44.5516" lon="3.29206">
        <ele>648.24</ele>
        <time>2024-11-05T13:07:17.421Z</time>
      </trkpt>
      <trkpt lat="44.5515" lon="3.29193">
        <ele>648.26</ele>
        <time>2024-11-05T13:07:26.042Z</time>
      </trkpt>
      <trkpt lat="44.5515" lon="3.29193">
        <ele>648.27</ele>
        <time>2024-11-05T13:07:34.663Z</time>
      </trkpt>
      <trkpt lat="44.5515" lon="3.29193">
        <ele>648.29</ele>
        <time>2024-11-05T13:07:43.284Z</time>
      </trkpt>
      <trkpt lat="44.5515" lon="3.29193">
        <ele>648.32</ele>
        <time>2024-11-05T13:07:51.905Z</time>
      </trkpt>
      <trkpt lat="44.5515" lon="3.29193">
        <ele>648.36</ele>
        <time>2024-11-05T13:08:00.526Z</time>
      </trkpt>
      <trkpt lat="44.5515" lon="3.29193">
        <ele>648.42</ele>
        <time>2024-11-05T13:08:09.147Z</time>
      </trkpt>
      <trkpt lat="44.55139" lon="3.29179">
        <ele>648.5</ele>
        <time>2024-11-05T13:08:17.770Z</time>
      </trkpt>
      <trkpt lat="44.55138" lon="3.29177">
        <ele>648.57</ele>
        <time>2024-11-05T13:08:26.393Z</time>
      </trkpt>
      <trkpt lat="44.55136" lon="3.2917">
        <ele>648.64</ele>
        <time>2024-11-05T13:08:35.017Z</time>
      </trkpt>
      <trkpt lat="44.55135" lon="3.29159">
        <ele>648.73</ele>
        <time>2024-11-05T13:08:43.643Z</time>
      </trkpt>
      <trkpt lat="44.55136" lon="3.29147">
        <ele>648.81</ele>
        <time>2024-11-05T13:08:52.270Z</time>
      </trkpt>
      <trkpt lat="44.55137" lon="3.2913">
        <ele>648.9</ele>
        <time>2024-11-05T13:09:00.899Z</time>
      </trkpt>
      <trkpt lat="44.55139" lon="3.29097">
        <ele>649.01</ele>
        <time>2024-11-05T13:09:09.532Z</time>
      </trkpt>
      <trkpt lat="44.55142" lon="3.29071">
        <ele>649.1</ele>
        <time>2024-11-05T13:09:18.168Z</time>
      </trkpt>
      <trkpt lat="44.55147" lon="3.29034">
        <ele>649.2</ele>
        <time>2024-11-05T13:09:26.808Z</time>
      </trkpt>
      <trkpt lat="44.55149" lon="3.29016">
        <ele>649.29</ele>
        <time>2024-11-05T13:09:35.450Z</time>
      </trkpt>
      <trkpt lat="44.55151" lon="3.29003">
        <ele>649.39</ele>
        <time>2024-11-05T13:09:44.094Z</time>
      </trkpt>
      <trkpt lat="44.55151" lon="3.29">
        <ele>649.46</ele>
        <time>2024-11-05T13:09:52.738Z</time>
      </trkpt>
      <trkpt lat="44.55149" lon="3.28987">
        <ele>649.54</ele>
        <time>2024-11-05T13:10:01.383Z</time>
      </trkpt>
      <trkpt lat="44.55147" lon="3.28986">
        <ele>649.6</ele>
        <time>2024-11-05T13:10:10.029Z</time>
      </trkpt>
      <trkpt lat="44.55142" lon="3.28982">
        <ele>649.66</ele>
        <time>2024-11-05T13:10:18.676Z</time>
      </trkpt>
      <trkpt lat="44.55106" lon="3.28968">
        <ele>649.72</ele>
        <time>2024-11-05T13:10:27.329Z</time>
      </trkpt>
      <trkpt lat="44.55084" lon="3.28959">
        <ele>649.75</ele>
        <time>2024-11-05T13:10:35.985Z</time>
      </trkpt>
      <trkpt lat="44.55073" lon="3.28955">
        <ele>649.78</ele>
        <time>2024-11-05T13:10:44.643Z</time>
      </trkpt>
      <trkpt lat="44.55054" lon="3.28948">
        <ele>649.81</ele>
        <time>2024-11-05T13:10:53.304Z</time>
      </trkpt>
      <trkpt lat="44.55041" lon="3.28943">
        <ele>649.82</ele>
        <time>2024-11-05T13:11:01.967Z</time>
      </trkpt>
      <trkpt lat="44.55033" lon="3.2894">
        <ele>649.83</ele>
        <time>2024-11-05T13:11:10.632Z</time>
      </trkpt>
      <trkpt lat="44.54994" lon="3.28926">
        <ele>649.77</ele>
        <time>2024-11-05T13:11:19.303Z</time>
      </trkpt>
      <trkpt lat="44.54968" lon="3.28916">
        <ele>649.75</ele>
        <time>2024-11-05T13:11:27.979Z</time>
      </trkpt>
      <trkpt lat="44.54938" lon="3.28905">
        <ele>649.73</ele>
        <time>2024-11-05T13:11:36.660Z</time>
      </trkpt>
      <trkpt lat="44.54917" lon="3.28897">
        <ele>649.7</ele>
        <time>2024-11-05T13:11:45.344Z</time>
      </trkpt>
      <trkpt lat="44.54904" lon="3.28892">
        <ele>649.67</ele>
        <time>2024-11-05T13:11:54.030Z</time>
      </trkpt>
      <trkpt lat="44.54879" lon="3.28884">
        <ele>649.64</ele>
        <time>2024-11-05T13:12:02.720Z</time>
      </trkpt>
      <trkpt lat="44.54859" lon="3.28876">
        <ele>649.61</ele>
        <time>2024-11-05T13:12:11.414Z</time>
      </trkpt>
      <trkpt lat="44.54844" lon="3.2887">
        <ele>649.58</ele>
        <time>2024-11-05T13:12:20.110Z</time>
      </trkpt>
      <trkpt lat="44.54832" lon="3.28866">
        <ele>649.53</ele>
        <time>2024-11-05T13:12:28.808Z</time>
      </trkpt>
      <trkpt lat="44.54823" lon="3.28864">
        <ele>649.48</ele>
        <time>2024-11-05T13:12:37.508Z</time>
      </trkpt>
      <trkpt lat="44.54802" lon="3.28858">
        <ele>649.42</ele>
        <time>2024-11-05T13:12:46.211Z</time>
      </trkpt>
      <trkpt lat="44.54789" lon="3.28855">
        <ele>649.35</ele>
        <time>2024-11-05T13:12:54.916Z</time>
      </trkpt>
      <trkpt lat="44.54776" lon="3.28851">
        <ele>649.27</ele>
        <time>2024-11-05T13:13:03.623Z</time>
      </trkpt>
      <trkpt lat="44.54758" lon="3.28847">
        <ele>649.18</ele>
        <time>2024-11-05T13:13:12.333Z</time>
      </trkpt>
      <trkpt lat="44.54751" lon="3.28845">
        <ele>649.08</ele>
        <time>2024-11-05T13:13:21.044Z</time>
      </trkpt>
      <trkpt lat="44.54723" lon="3.2884">
        <ele>649</ele>
        <time>2024-11-05T13:13:29.760Z</time>
      </trkpt>
      <trkpt lat="44.54714" lon="3.28839">
        <ele>648.89</ele>
        <time>2024-11-05T13:13:38.477Z</time>
      </trkpt>
      <trkpt lat="44.547" lon="3.28836">
        <ele>648.77</ele>
        <time>2024-11-05T13:13:47.196Z</time>
      </trkpt>
      <trkpt lat="44.54687" lon="3.28834">
        <ele>648.62</ele>
        <time>2024-11-05T13:13:55.918Z</time>
      </trkpt>
      <trkpt lat="44.54682" lon="3.28833">
        <ele>648.48</ele>
        <time>2024-11-05T13:14:04.640Z</time>
      </trkpt>
      <trkpt lat="44.54665" lon="3.28833">
        <ele>648.3</ele>
        <time>2024-11-05T13:14:13.365Z</time>
      </trkpt>
      <trkpt lat="44.54656" lon="3.28833">
        <ele>648.13</ele>
        <time>2024-11-05T13:14:22.092Z</time>
      </trkpt>
      <trkpt lat="44.54633" lon="3.28832">
        <ele>647.96</ele>
        <time>2024-11-05T13:14:30.822Z</time>
      </trkpt>
      <trkpt lat="44.54617" lon="3.28832">
        <ele>647.8</ele>
        <time>2024-11-05T13:14:39.555Z</time>
      </trkpt>
      <trkpt lat="44.54615" lon="3.28832">
        <ele>647.63</ele>
        <time>2024-11-05T13:14:48.288Z</time>
      </trkpt>
      <trkpt lat="44.54594" lon="3.2883">
        <ele>647.45</ele>
        <time>2024-11-05T13:14:57.024Z</time>
      </trkpt>
      <trkpt lat="44.5458" lon="3.28827">
        <ele>647.25</ele>
        <time>2024-11-05T13:15:05.763Z</time>
      </trkpt>
      <trkpt lat="44.54566" lon="3.28824">
        <ele>647.04</ele>
        <time>2024-11-05T13:15:14.504Z</time>
      </trkpt>
      <trkpt lat="44.54555" lon="3.28822">
        <ele>646.82</ele>
        <time>2024-11-05T13:15:23.247Z</time>
      </trkpt>
      <trkpt lat="44.54543" lon="3.28811">
        <ele>646.62</ele>
        <time>2024-11-05T13:15:31.992Z</time>
      </trkpt>
      <trkpt lat="44.5454" lon="3.28806">
        <ele>646.4</ele>
        <time>2024-11-05T13:15:40.738Z</time>
      </trkpt>
      <trkpt lat="44.54532" lon="3.28795">
        <ele>646.18</ele>
        <time>2024-11-05T13:15:49.486Z</time>
      </trkpt>
      <trkpt lat="44.54531" lon="3.28795">
        <ele>645.95</ele>
        <time>2024-11-05T13:15:58.234Z</time>
      </trkpt>
      <trkpt lat="44.54529" lon="3.28793">
        <ele>645.71</ele>
        <time>2024-11-05T13:16:06.982Z</time>
      </trkpt>
      <trkpt lat="44.54525" lon="3.28794">
        <ele>645.46</ele>
        <time>2024-11-05T13:16:15.731Z</time>
      </trkpt>
      <trkpt lat="44.54521" lon="3.28798">
        <ele>645.2</ele>
        <time>2024-11-05T13:16:24.481Z</time>
      </trkpt>
      <trkpt lat="44.54509" lon="3.28802">
        <ele>644.91</ele>
        <time>2024-11-05T13:16:33.233Z</time>
      </trkpt>
      <trkpt lat="44.54497" lon="3.28805">
        <ele>644.63</ele>
        <time>2024-11-05T13:16:41.986Z</time>
      </trkpt>
      <trkpt lat="44.54478" lon="3.28803">
        <ele>644.36</ele>
        <time>2024-11-05T13:16:50.743Z</time>
      </trkpt>
      <trkpt lat="44.54464" lon="3.28801">
        <ele>644.11</ele>
        <time>2024-11-05T13:16:59.502Z</time>
      </trkpt>
      <trkpt lat="44.54457" lon="3.288">
        <ele>643.85</ele>
        <time>2024-11-05T13:17:08.262Z</time>
      </trkpt>
      <trkpt lat="44.54455" lon="3.288">
        <ele>643.6</ele>
        <time>2024-11-05T13:17:17.022Z</time>
      </trkpt>
      <trkpt lat="44.54437" lon="3.28802">
        <ele>643.36</ele>
        <time>2024-11-05T13:17:25.785Z</time>
      </trkpt>
      <trkpt lat="44.5442" lon="3.28806">
        <ele>643.12</ele>
        <time>2024-11-05T13:17:34.551Z</time>
      </trkpt>
      <trkpt lat="44.54411" lon="3.28808">
        <ele>642.88</ele>
        <time>2024-11-05T13:17:43.318Z</time>
      </trkpt>
      <trkpt lat="44.54386" lon="3.28814">
        <ele>642.62</ele>
        <time>2024-11-05T13:17:52.089Z</time>
      </trkpt>
      <trkpt lat="44.54368" lon="3.28816">
        <ele>642.36</ele>
        <time>2024-11-05T13:18:00.863Z</time>
      </trkpt>
      <trkpt lat="44.5436" lon="3.28817">
        <ele>642.11</ele>
        <time>2024-11-05T13:18:09.639Z</time>
      </trkpt>
      <trkpt lat="44.54347" lon="3.28819">
        <ele>641.84</ele>
        <time>2024-11-05T13:18:18.417Z</time>
      </trkpt>
      <trkpt lat="44.54339" lon="3.2882">
        <ele>641.62</ele>
        <time>2024-11-05T13:18:27.196Z</time>
      </trkpt>
      <trkpt lat="44.54323" lon="3.2882">
        <ele>641.37</ele>
        <time>2024-11-05T13:18:35.977Z</time>
      </trkpt>
      <trkpt lat="44.54313" lon="3.28816">
        <ele>641.16</ele>
        <time>2024-11-05T13:18:44.760Z</time>
      </trkpt>
      <trkpt lat="44.54312" lon="3.28815">
        <ele>640.99</ele>
        <time>2024-11-05T13:18:53.543Z</time>
      </trkpt>
      <trkpt lat="44.54305" lon="3.28809">
        <ele>640.82</ele>
        <time>2024-11-05T13:19:02.328Z</time>
      </trkpt>
      <trkpt lat="44.54302" lon="3.28807">
        <ele>640.67</ele>
        <time>2024-11-05T13:19:11.113Z</time>
      </trkpt>
      <trkpt lat="44.54293" lon="3.28807">
        <ele>640.53</ele>
        <time>2024-11-05T13:19:19.900Z</time>
      </trkpt>
      <trkpt lat="44.54291" lon="3.28808">
        <ele>640.41</ele>
        <time>2024-11-05T13:19:28.687Z</time>
      </trkpt>
      <trkpt lat="44.54284" lon="3.28815">
        <ele>640.31</ele>
        <time>2024-11-05T13:19:37.475Z</time>
      </trkpt>
      <trkpt lat="44.54281" lon="3.28818">
        <ele>640.23</ele>
        <time>2024-11-05T13:19:46.264Z</time>
      </trkpt>
      <trkpt lat="44.54276" lon="3.28818">
        <ele>640.17</ele>
        <time>2024-11-05T13:19:55.054Z</time>
      </trkpt>
      <trkpt lat="44.54268" lon="3.28819">
        <ele>640.12</ele>
        <time>2024-11-05T13:20:03.845Z</time>
      </trkpt>
      <trkpt lat="44.54255" lon="3.28819">
        <ele>640.08</ele>
        <time>2024-11-05T13:20:12.638Z</time>
      </trkpt>
      <trkpt lat="44.54246" lon="3.2882">
        <ele>640.06</ele>
        <time>2024-11-05T13:20:21.433Z</time>
      </trkpt>
      <trkpt lat="44.54229" lon="3.2882">
        <ele>640.07</ele>
        <time>2024-11-05T13:20:30.230Z</time>
      </trkpt>
      <trkpt lat="44.54212" lon="3.28821">
        <ele>640.06</ele>
        <time>2024-11-05T13:20:39.030Z</time>
      </trkpt>
      <trkpt lat="44.5421" lon="3.28821">
        <ele>640.07</ele>
        <time>2024-11-05T13:20:47.830Z</time>
      </trkpt>
      <trkpt lat="44.54204" lon="3.28823">
        <ele>640.09</ele>
        <time>2024-11-05T13:20:56.631Z</time>
      </trkpt>
      <trkpt lat="44.54196" lon="3.28826">
        <ele>640.11</ele>
        <time>2024-11-05T13:21:05.434Z</time>
      </trkpt>
      <trkpt lat="44.54172" lon="3.28833">
        <ele>640.26</ele>
        <time>2024-11-05T13:21:14.241Z</time>
      </trkpt>
      <trkpt lat="44.5416" lon="3.28837">
        <ele>640.42</ele>
        <time>2024-11-05T13:21:23.050Z</time>
      </trkpt>
      <trkpt lat="44.54151" lon="3.28835">
        <ele>640.56</ele>
        <time>2024-11-05T13:21:31.860Z</time>
      </trkpt>
      <trkpt lat="44.54147" lon="3.28833">
        <ele>640.66</ele>
        <time>2024-11-05T13:21:40.671Z</time>
      </trkpt>
      <trkpt lat="44.54144" lon="3.28831">
        <ele>640.74</ele>
        <time>2024-11-05T13:21:49.482Z</time>
      </trkpt>
      <trkpt lat="44.54137" lon="3.28821">
        <ele>640.84</ele>
        <time>2024-11-05T13:21:58.295Z</time>
      </trkpt>
      <trkpt lat="44.54134" lon="3.28817">
        <ele>640.92</ele>
        <time>2024-11-05T13:22:07.109Z</time>
      </trkpt>
      <trkpt lat="44.54131" lon="3.28813">
        <ele>640.99</ele>
        <time>2024-11-05T13:22:15.923Z</time>
      </trkpt>
      <trkpt lat="44.54128" lon="3.28809">
        <ele>641.06</ele>
        <time>2024-11-05T13:22:24.738Z</time>
      </trkpt>
      <trkpt lat="44.54129" lon="3.28808">
        <ele>641.11</ele>
        <time>2024-11-05T13:22:33.553Z</time>
      </trkpt>
      <trkpt lat="44.54131" lon="3.28804">
        <ele>641.12</ele>
        <time>2024-11-05T13:22:42.369Z</time>
      </trkpt>
      <trkpt lat="44.54134" lon="3.28799">
        <ele>641.14</ele>
        <time>2024-11-05T13:22:51.185Z</time>
      </trkpt>
      <trkpt lat="44.54134" lon="3.28799">
        <ele>641.19</ele>
        <time>2024-11-05T13:23:00.001Z</time>
      </trkpt>
      <trkpt lat="44.54135" lon="3.28793">
        <ele>641.21</ele>
        <time>2024-11-05T13:23:08.818Z</time>
      </trkpt>
      <trkpt lat="44.54136" lon="3.28783">
        <ele>641.23</ele>
        <time>2024-11-05T13:23:17.636Z</time>
      </trkpt>
      <trkpt lat="44.54134" lon="3.28757">
        <ele>641.22</ele>
        <time>2024-11-05T13:23:26.457Z</time>
      </trkpt>
      <trkpt lat="44.54133" lon="3.28745">
        <ele>641.26</ele>
        <time>2024-11-05T13:23:35.280Z</time>
      </trkpt>
      <trkpt lat="44.54132" lon="3.28733">
        <ele>641.3</ele>
        <time>2024-11-05T13:23:44.104Z</time>
      </trkpt>
      <trkpt lat="44.54131" lon="3.28721">
        <ele>641.37</ele>
        <time>2024-11-05T13:23:52.929Z</time>
      </trkpt>
      <trkpt lat="44.5413" lon="3.28714">
        <ele>641.44</ele>
        <time>2024-11-05T13:24:01.755Z</time>
      </trkpt>
      <trkpt lat="44.54129" lon="3.28709">
        <ele>641.53</ele>
        <time>2024-11-05T13:24:10.582Z</time>
      </trkpt>
      <trkpt lat="44.54125" lon="3.28697">
        <ele>641.61</ele>
        <time>2024-11-05T13:24:19.410Z</time>
      </trkpt>
      <trkpt lat="44.54123" lon="3.28693">
        <ele>641.72</ele>
        <time>2024-11-05T13:24:28.239Z</time>
      </trkpt>
      <trkpt lat="44.54119" lon="3.28687">
        <ele>641.84</ele>
        <time>2024-11-05T13:24:37.069Z</time>
      </trkpt>
      <trkpt lat="44.54112" lon="3.28682">
        <ele>641.97</ele>
        <time>2024-11-05T13:24:45.900Z</time>
      </trkpt>
      <trkpt lat="44.54108" lon="3.28678">
        <ele>642.12</ele>
        <time>2024-11-05T13:24:54.732Z</time>
      </trkpt>
      <trkpt lat="44.54103" lon="3.28671">
        <ele>642.26</ele>
        <time>2024-11-05T13:25:03.565Z</time>
      </trkpt>
      <trkpt lat="44.54102" lon="3.28669">
        <ele>642.43</ele>
        <time>2024-11-05T13:25:12.398Z</time>
      </trkpt>
      <trkpt lat="44.54097" lon="3.28653">
        <ele>642.59</ele>
        <time>2024-11-05T13:25:21.233Z</time>
      </trkpt>
      <trkpt lat="44.54097" lon="3.28652">
        <ele>642.79</ele>
        <time>2024-11-05T13:25:30.068Z</time>
      </trkpt>
      <trkpt lat="44.54094" lon="3.28647">
        <ele>643.01</ele>
        <time>2024-11-05T13:25:38.904Z</time>
      </trkpt>
      <trkpt lat="44.54088" lon="3.28638">
        <ele>643.25</ele>
        <time>2024-11-05T13:25:47.741Z</time>
      </trkpt>
      <trkpt lat="44.54086" lon="3.28635">
        <ele>643.5</ele>
        <time>2024-11-05T13:25:56.579Z</time>
      </trkpt>
      <trkpt lat="44.54081" lon="3.28631">
        <ele>643.8</ele>
        <time>2024-11-05T13:26:05.418Z</time>
      </trkpt>
      <trkpt lat="44.54077" lon="3.28631">
        <ele>644.11</ele>
        <time>2024-11-05T13:26:14.257Z</time>
      </trkpt>
      <trkpt lat="44.54076" lon="3.28631">
        <ele>644.41</ele>
        <time>2024-11-05T13:26:23.097Z</time>
      </trkpt>
      <trkpt lat="44.54064" lon="3.28638">
        <ele>644.82</ele>
        <time>2024-11-05T13:26:31.939Z</time>
      </trkpt>
      <trkpt lat="44.54057" lon="3.28641">
        <ele>645.15</ele>
        <time>2024-11-05T13:26:40.782Z</time>
      </trkpt>
      <trkpt lat="44.54055" lon="3.28642">
        <ele>645.49</ele>
        <time>2024-11-05T13:26:49.625Z</time>
      </trkpt>
      <trkpt lat="44.54043" lon="3.2865">
        <ele>645.88</ele>
        <time>2024-11-05T13:26:58.470Z</time>
      </trkpt>
      <trkpt lat="44.54035" lon="3.28655">
        <ele>646.23</ele>
        <time>2024-11-05T13:27:07.317Z</time>
      </trkpt>
      <trkpt lat="44.54027" lon="3.2866">
        <ele>646.59</ele>
        <time>2024-11-05T13:27:16.165Z</time>
      </trkpt>
      <trkpt lat="44.54019" lon="3.28666">
        <ele>647.02</ele>
        <time>2024-11-05T13:27:25.014Z</time>
      </trkpt>
      <trkpt lat="44.54011" lon="3.28671">
        <ele>647.46</ele>
        <time>2024-11-05T13:27:33.865Z</time>
      </trkpt>
      <trkpt lat="44.53999" lon="3.28679">
        <ele>647.86</ele>
        <time>2024-11-05T13:27:42.718Z</time>
      </trkpt>
      <trkpt lat="44.53995" lon="3.28681">
        <ele>648.28</ele>
        <time>2024-11-05T13:27:51.572Z</time>
      </trkpt>
      <trkpt lat="44.53978" lon="3.2869">
        <ele>648.69</ele>
        <time>2024-11-05T13:28:00.429Z</time>
      </trkpt>
      <trkpt lat="44.53966" lon="3.28697">
        <ele>649.17</ele>
        <time>2024-11-05T13:28:09.288Z</time>
      </trkpt>
      <trkpt lat="44.53954" lon="3.28704">
        <ele>649.63</ele>
        <time>2024-11-05T13:28:18.149Z</time>
      </trkpt>
      <trkpt lat="44.53924" lon="3.28721">
        <ele>650.15</ele>
        <time>2024-11-05T13:28:27.015Z</time>
      </trkpt>
      <trkpt lat="44.53921" lon="3.28723">
        <ele>650.59</ele>
        <time>2024-11-05T13:28:35.882Z</time>
      </trkpt>
      <trkpt lat="44.53901" lon="3.28737">
        <ele>651.05</ele>
        <time>2024-11-05T13:28:44.752Z</time>
      </trkpt>
      <trkpt lat="44.5388" lon="3.28752">
        <ele>651.48</ele>
        <time>2024-11-05T13:28:53.626Z</time>
      </trkpt>
      <trkpt lat="44.53877" lon="3.28755">
        <ele>651.91</ele>
        <time>2024-11-05T13:29:02.500Z</time>
      </trkpt>
      <trkpt lat="44.53855" lon="3.28776">
        <ele>652.28</ele>
        <time>2024-11-05T13:29:11.379Z</time>
      </trkpt>
      <trkpt lat="44.53837" lon="3.28793">
        <ele>652.68</ele>
        <time>2024-11-05T13:29:20.261Z</time>
      </trkpt>
      <trkpt lat="44.5383" lon="3.288">
        <ele>653.12</ele>
        <time>2024-11-05T13:29:29.145Z</time>
      </trkpt>
      <trkpt lat="44.53826" lon="3.28804">
        <ele>653.56</ele>
        <time>2024-11-05T13:29:38.029Z</time>
      </trkpt>
      <trkpt lat="44.53818" lon="3.28807">
        <ele>654.04</ele>
        <time>2024-11-05T13:29:46.915Z</time>
      </trkpt>
      <trkpt lat="44.53816" lon="3.28808">
        <ele>654.5</ele>
        <time>2024-11-05T13:29:55.801Z</time>
      </trkpt>
      <trkpt lat="44.53804" lon="3.28809">
        <ele>654.99</ele>
        <time>2024-11-05T13:30:04.689Z</time>
      </trkpt>
      <trkpt lat="44.53791" lon="3.28811">
        <ele>655.53</ele>
        <time>2024-11-05T13:30:13.579Z</time>
      </trkpt>
      <trkpt lat="44.53778" lon="3.28813">
        <ele>656.04</ele>
        <time>2024-11-05T13:30:22.471Z</time>
      </trkpt>
      <trkpt lat="44.53774" lon="3.28813">
        <ele>656.52</ele>
        <time>2024-11-05T13:30:31.364Z</time>
      </trkpt>
      <trkpt lat="44.53769" lon="3.28816">
        <ele>656.99</ele>
        <time>2024-11-05T13:30:40.258Z</time>
      </trkpt>
      <trkpt lat="44.53753" lon="3.28825">
        <ele>657.46</ele>
        <time>2024-11-05T13:30:49.154Z</time>
      </trkpt>
      <trkpt lat="44.53744" lon="3.28829">
        <ele>657.93</ele>
        <time>2024-11-05T13:30:58.052Z</time>
      </trkpt>
      <trkpt lat="44.53738" lon="3.28831">
        <ele>658.41</ele>
        <time>2024-11-05T13:31:06.951Z</time>
      </trkpt>
      <trkpt lat="44.53708" lon="3.28832">
        <ele>658.96</ele>
        <time>2024-11-05T13:31:15.855Z</time>
      </trkpt>
      <trkpt lat="44.53697" lon="3.28832">
        <ele>659.43</ele>
        <time>2024-11-05T13:31:24.760Z</time>
      </trkpt>
      <trkpt lat="44.53695" lon="3.28833">
        <ele>659.88</ele>
        <time>2024-11-05T13:31:33.666Z</time>
      </trkpt>
      <trkpt lat="44.53678" lon="3.28839">
        <ele>660.26</ele>
        <time>2024-11-05T13:31:42.575Z</time>
      </trkpt>
      <trkpt lat="44.53639" lon="3.28854">
        <ele>660.65</ele>
        <time>2024-11-05T13:31:51.490Z</time>
      </trkpt>
      <trkpt lat="44.5362" lon="3.28861">
        <ele>661.19</ele>
        <time>2024-11-05T13:32:00.408Z</time>
      </trkpt>
      <trkpt lat="44.53591" lon="3.28886">
        <ele>661.66</ele>
        <time>2024-11-05T13:32:09.332Z</time>
      </trkpt>
      <trkpt lat="44.53571" lon="3.28902">
        <ele>662.16</ele>
        <time>2024-11-05T13:32:18.259Z</time>
      </trkpt>
      <trkpt lat="44.5357" lon="3.28903">
        <ele>662.63</ele>
        <time>2024-11-05T13:32:27.187Z</time>
      </trkpt>
      <trkpt lat="44.53563" lon="3.28907">
        <ele>663.1</ele>
        <time>2024-11-05T13:32:36.116Z</time>
      </trkpt>
      <trkpt lat="44.5356" lon="3.28909">
        <ele>663.58</ele>
        <time>2024-11-05T13:32:45.045Z</time>
      </trkpt>
      <trkpt lat="44.5355" lon="3.28912">
        <ele>664.09</ele>
        <time>2024-11-05T13:32:53.976Z</time>
      </trkpt>
      <trkpt lat="44.53545" lon="3.28913">
        <ele>664.58</ele>
        <time>2024-11-05T13:33:02.908Z</time>
      </trkpt>
      <trkpt lat="44.53541" lon="3.28913">
        <ele>665.1</ele>
        <time>2024-11-05T13:33:11.840Z</time>
      </trkpt>
      <trkpt lat="44.53528" lon="3.28913">
        <ele>665.64</ele>
        <time>2024-11-05T13:33:20.774Z</time>
      </trkpt>
      <trkpt lat="44.53519" lon="3.28912">
        <ele>666.14</ele>
        <time>2024-11-05T13:33:29.710Z</time>
      </trkpt>
      <trkpt lat="44.5351" lon="3.28912">
        <ele>666.65</ele>
        <time>2024-11-05T13:33:38.647Z</time>
      </trkpt>
      <trkpt lat="44.53483" lon="3.28911">
        <ele>667.19</ele>
        <time>2024-11-05T13:33:47.589Z</time>
      </trkpt>
      <trkpt lat="44.53474" lon="3.28911">
        <ele>667.73</ele>
        <time>2024-11-05T13:33:56.532Z</time>
      </trkpt>
      <trkpt lat="44.53473" lon="3.28911">
        <ele>668.27</ele>
        <time>2024-11-05T13:34:05.475Z</time>
      </trkpt>
      <trkpt lat="44.53456" lon="3.28912">
        <ele>668.8</ele>
        <time>2024-11-05T13:34:14.421Z</time>
      </trkpt>
      <trkpt lat="44.53421" lon="3.28915">
        <ele>669.36</ele>
        <time>2024-11-05T13:34:23.373Z</time>
      </trkpt>
      <trkpt lat="44.53402" lon="3.28915">
        <ele>669.98</ele>
        <time>2024-11-05T13:34:32.328Z</time>
      </trkpt>
      <trkpt lat="44.53392" lon="3.28915">
        <ele>670.57</ele>
        <time>2024-11-05T13:34:41.284Z</time>
      </trkpt>
      <trkpt lat="44.53384" lon="3.28914">
        <ele>671.17</ele>
        <time>2024-11-05T13:34:50.241Z</time>
      </trkpt>
      <trkpt lat="44.53371" lon="3.28912">
        <ele>671.8</ele>
        <time>2024-11-05T13:34:59.201Z</time>
      </trkpt>
      <trkpt lat="44.53353" lon="3.28909">
        <ele>672.43</ele>
        <time>2024-11-05T13:35:08.163Z</time>
      </trkpt>
      <trkpt lat="44.53349" lon="3.28909">
        <ele>673.03</ele>
        <time>2024-11-05T13:35:17.126Z</time>
      </trkpt>
      <trkpt lat="44.53337" lon="3.28907">
        <ele>673.65</ele>
        <time>2024-11-05T13:35:26.091Z</time>
      </trkpt>
      <trkpt lat="44.53336" lon="3.28907">
        <ele>674.24</ele>
        <time>2024-11-05T13:35:35.056Z</time>
      </trkpt>
      <trkpt lat="44.53309" lon="3.28911">
        <ele>674.86</ele>
        <time>2024-11-05T13:35:44.026Z</time>
      </trkpt>
      <trkpt lat="44.5329" lon="3.28914">
        <ele>675.48</ele>
        <time>2024-11-05T13:35:52.999Z</time>
      </trkpt>
      <trkpt lat="44.53278" lon="3.28913">
        <ele>676.12</ele>
        <time>2024-11-05T13:36:01.974Z</time>
      </trkpt>
      <trkpt lat="44.5326" lon="3.28911">
        <ele>676.77</ele>
        <time>2024-11-05T13:36:10.951Z</time>
      </trkpt>
      <trkpt lat="44.53224" lon="3.28908">
        <ele>677.44</ele>
        <time>2024-11-05T13:36:19.934Z</time>
      </trkpt>
      <trkpt lat="44.53203" lon="3.28906">
        <ele>678.08</ele>
        <time>2024-11-05T13:36:28.921Z</time>
      </trkpt>
      <trkpt lat="44.53184" lon="3.28907">
        <ele>678.69</ele>
        <time>2024-11-05T13:36:37.911Z</time>
      </trkpt>
      <trkpt lat="44.53176" lon="3.28907">
        <ele>679.29</ele>
        <time>2024-11-05T13:36:46.902Z</time>
      </trkpt>
      <trkpt lat="44.5314" lon="3.28918">
        <ele>679.91</ele>
        <time>2024-11-05T13:36:55.899Z</time>
      </trkpt>
      <trkpt lat="44.53127" lon="3.28922">
        <ele>680.53</ele>
        <time>2024-11-05T13:37:04.898Z</time>
      </trkpt>
      <trkpt lat="44.53115" lon="3.28925">
        <ele>681.15</ele>
        <time>2024-11-05T13:37:13.899Z</time>
      </trkpt>
      <trkpt lat="44.53114" lon="3.28926">
        <ele>681.74</ele>
        <time>2024-11-05T13:37:22.900Z</time>
      </trkpt>
      <trkpt lat="44.53106" lon="3.28932">
        <ele>682.31</ele>
        <time>2024-11-05T13:37:31.903Z</time>
      </trkpt>
      <trkpt lat="44.53089" lon="3.28943">
        <ele>682.89</ele>
        <time>2024-11-05T13:37:40.908Z</time>
      </trkpt>
      <trkpt lat="44.53076" lon="3.28952">
        <ele>683.44</ele>
        <time>2024-11-05T13:37:49.916Z</time>
      </trkpt>
      <trkpt lat="44.53066" lon="3.28957">
        <ele>684.01</ele>
        <time>2024-11-05T13:37:58.926Z</time>
      </trkpt>
      <trkpt lat="44.53065" lon="3.28957">
        <ele>684.59</ele>
        <time>2024-11-05T13:38:07.936Z</time>
      </trkpt>
      <trkpt lat="44.53058" lon="3.28958">
        <ele>685.18</ele>
        <time>2024-11-05T13:38:16.947Z</time>
      </trkpt>
      <trkpt lat="44.53051" lon="3.28957">
        <ele>685.78</ele>
        <time>2024-11-05T13:38:25.959Z</time>
      </trkpt>
      <trkpt lat="44.53047" lon="3.28956">
        <ele>686.36</ele>
        <time>2024-11-05T13:38:34.972Z</time>
      </trkpt>
      <trkpt lat="44.53043" lon="3.28953">
        <ele>686.97</ele>
        <time>2024-11-05T13:38:43.985Z</time>
      </trkpt>
      <trkpt lat="44.53031" lon="3.28943">
        <ele>687.65</ele>
        <time>2024-11-05T13:38:53.000Z</time>
      </trkpt>
      <trkpt lat="44.5302" lon="3.28934">
        <ele>688.29</ele>
        <time>2024-11-05T13:39:02.018Z</time>
      </trkpt>
      <trkpt lat="44.53014" lon="3.28929">
        <ele>688.89</ele>
        <time>2024-11-05T13:39:11.037Z</time>
      </trkpt>
      <trkpt lat="44.53008" lon="3.28926">
        <ele>689.48</ele>
        <time>2024-11-05T13:39:20.057Z</time>
      </trkpt>
      <trkpt lat="44.52999" lon="3.28921">
        <ele>690.09</ele>
        <time>2024-11-05T13:39:29.078Z</time>
      </trkpt>
      <trkpt lat="44.52996" lon="3.28919">
        <ele>690.67</ele>
        <time>2024-11-05T13:39:38.100Z</time>
      </trkpt>
      <trkpt lat="44.52987" lon="3.2892">
        <ele>691.28</ele>
        <time>2024-11-05T13:39:47.123Z</time>
      </trkpt>
      <trkpt lat="44.52978" lon="3.28927">
        <ele>691.83</ele>
        <time>2024-11-05T13:39:56.148Z</time>
      </trkpt>
      <trkpt lat="44.52977" lon="3.28928">
        <ele>692.38</ele>
        <time>2024-11-05T13:40:05.173Z</time>
      </trkpt>
      <trkpt lat="44.5297" lon="3.28945">
        <ele>692.88</ele>
        <time>2024-11-05T13:40:14.200Z</time>
      </trkpt>
      <trkpt lat="44.52969" lon="3.28949">
        <ele>693.42</ele>
        <time>2024-11-05T13:40:23.228Z</time>
      </trkpt>
      <trkpt lat="44.52962" lon="3.28992">
        <ele>693.89</ele>
        <time>2024-11-05T13:40:32.261Z</time>
      </trkpt>
      <trkpt lat="44.52962" lon="3.28994">
        <ele>694.42</ele>
        <time>2024-11-05T13:40:41.294Z</time>
      </trkpt>
      <trkpt lat="44.52958" lon="3.29008">
        <ele>694.96</ele>
        <time>2024-11-05T13:40:50.329Z</time>
      </trkpt>
      <trkpt lat="44.52955" lon="3.29014">
        <ele>695.49</ele>
        <time>2024-11-05T13:40:59.365Z</time>
      </trkpt>
      <trkpt lat="44.52953" lon="3.29017">
        <ele>696.02</ele>
        <time>2024-11-05T13:41:08.401Z</time>
      </trkpt>
      <trkpt lat="44.52948" lon="3.29023">
        <ele>696.57</ele>
        <time>2024-11-05T13:41:17.438Z</time>
      </trkpt>
      <trkpt lat="44.52943" lon="3.29028">
        <ele>697.11</ele>
        <time>2024-11-05T13:41:26.476Z</time>
      </trkpt>
      <trkpt lat="44.52936" lon="3.29032">
        <ele>697.68</ele>
        <time>2024-11-05T13:41:35.515Z</time>
      </trkpt>
      <trkpt lat="44.52932" lon="3.29033">
        <ele>698.25</ele>
        <time>2024-11-05T13:41:44.555Z</time>
      </trkpt>
      <trkpt lat="44.52914" lon="3.29039">
        <ele>698.85</ele>
        <time>2024-11-05T13:41:53.598Z</time>
      </trkpt>
      <trkpt lat="44.52888" lon="3.29048">
        <ele>699.47</ele>
        <time>2024-11-05T13:42:02.645Z</time>
      </trkpt>
      <trkpt lat="44.52884" lon="3.29049">
        <ele>700.01</ele>
        <time>2024-11-05T13:42:11.693Z</time>
      </trkpt>
      <trkpt lat="44.5288" lon="3.29051">
        <ele>700.54</ele>
        <time>2024-11-05T13:42:20.742Z</time>
      </trkpt>
      <trkpt lat="44.52863" lon="3.2906">
        <ele>701.04</ele>
        <time>2024-11-05T13:42:29.794Z</time>
      </trkpt>
      <trkpt lat="44.52854" lon="3.29065">
        <ele>701.57</ele>
        <time>2024-11-05T13:42:38.847Z</time>
      </trkpt>
      <trkpt lat="44.52813" lon="3.29088">
        <ele>702.09</ele>
        <time>2024-11-05T13:42:47.907Z</time>
      </trkpt>
      <trkpt lat="44.52806" lon="3.29091">
        <ele>702.63</ele>
        <time>2024-11-05T13:42:56.968Z</time>
      </trkpt>
      <trkpt lat="44.52804" lon="3.29092">
        <ele>703.19</ele>
        <time>2024-11-05T13:43:06.030Z</time>
      </trkpt>
      <trkpt lat="44.52786" lon="3.29097">
        <ele>703.78</ele>
        <time>2024-11-05T13:43:15.095Z</time>
      </trkpt>
      <trkpt lat="44.52756" lon="3.29107">
        <ele>704.43</ele>
        <time>2024-11-05T13:43:24.165Z</time>
      </trkpt>
      <trkpt lat="44.52751" lon="3.29109">
        <ele>704.98</ele>
        <time>2024-11-05T13:43:33.235Z</time>
      </trkpt>
      <trkpt lat="44.5273" lon="3.29119">
        <ele>705.63</ele>
        <time>2024-11-05T13:43:42.309Z</time>
      </trkpt>
      <trkpt lat="44.52711" lon="3.29129">
        <ele>706.23</ele>
        <time>2024-11-05T13:43:51.386Z</time>
      </trkpt>
      <trkpt lat="44.52705" lon="3.29133">
        <ele>706.75</ele>
        <time>2024-11-05T13:44:00.464Z</time>
      </trkpt>
      <trkpt lat="44.52693" lon="3.29141">
        <ele>707.28</ele>
        <time>2024-11-05T13:44:09.544Z</time>
      </trkpt>
      <trkpt lat="44.52679" lon="3.29151">
        <ele>707.75</ele>
        <time>2024-11-05T13:44:18.627Z</time>
      </trkpt>
      <trkpt lat="44.52672" lon="3.29154">
        <ele>708.23</ele>
        <time>2024-11-05T13:44:27.711Z</time>
      </trkpt>
      <trkpt lat="44.52669" lon="3.29155">
        <ele>708.69</ele>
        <time>2024-11-05T13:44:36.796Z</time>
      </trkpt>
      <trkpt lat="44.52655" lon="3.29156">
        <ele>709.24</ele>
        <time>2024-11-05T13:44:45.883Z</time>
      </trkpt>
      <trkpt lat="44.52647" lon="3.29156">
        <ele>709.73</ele>
        <time>2024-11-05T13:44:54.971Z</time>
      </trkpt>
      <trkpt lat="44.52642" lon="3.29156">
        <ele>710.18</ele>
        <time>2024-11-05T13:45:04.060Z</time>
      </trkpt>
      <trkpt lat="44.52635" lon="3.29159">
        <ele>710.62</ele>
        <time>2024-11-05T13:45:13.150Z</time>
      </trkpt>
      <trkpt lat="44.52634" lon="3.2916">
        <ele>710.99</ele>
        <time>2024-11-05T13:45:22.240Z</time>
      </trkpt>
      <trkpt lat="44.52627" lon="3.29168">
        <ele>711.37</ele>
        <time>2024-11-05T13:45:31.332Z</time>
      </trkpt>
      <trkpt lat="44.52623" lon="3.29178">
        <ele>711.68</ele>
        <time>2024-11-05T13:45:40.425Z</time>
      </trkpt>
      <trkpt lat="44.52616" lon="3.29194">
        <ele>711.95</ele>
        <time>2024-11-05T13:45:49.520Z</time>
      </trkpt>
      <trkpt lat="44.52607" lon="3.2921">
        <ele>712.23</ele>
        <time>2024-11-05T13:45:58.617Z</time>
      </trkpt>
      <trkpt lat="44.52597" lon="3.29221">
        <ele>712.49</ele>
        <time>2024-11-05T13:46:07.716Z</time>
      </trkpt>
      <trkpt lat="44.52589" lon="3.29228">
        <ele>712.71</ele>
        <time>2024-11-05T13:46:16.817Z</time>
      </trkpt>
      <trkpt lat="44.52582" lon="3.29235">
        <ele>712.92</ele>
        <time>2024-11-05T13:46:25.919Z</time>
      </trkpt>
      <trkpt lat="44.52573" lon="3.29244">
        <ele>713.09</ele>
        <time>2024-11-05T13:46:35.023Z</time>
      </trkpt>
      <trkpt lat="44.52556" lon="3.29259">
        <ele>713.24</ele>
        <time>2024-11-05T13:46:44.130Z</time>
      </trkpt>
      <trkpt lat="44.52541" lon="3.29273">
        <ele>713.36</ele>
        <time>2024-11-05T13:46:53.240Z</time>
      </trkpt>
      <trkpt lat="44.52533" lon="3.2928">
        <ele>713.51</ele>
        <time>2024-11-05T13:47:02.352Z</time>
      </trkpt>
      <trkpt lat="44.52522" lon="3.2929">
        <ele>713.63</ele>
        <time>2024-11-05T13:47:11.466Z</time>
      </trkpt>
      <trkpt lat="44.52517" lon="3.29294">
        <ele>713.77</ele>
        <time>2024-11-05T13:47:20.581Z</time>
      </trkpt>
      <trkpt lat="44.52504" lon="3.29301">
        <ele>713.91</ele>
        <time>2024-11-05T13:47:29.698Z</time>
      </trkpt>
      <trkpt lat="44.52501" lon="3.29302">
        <ele>714.07</ele>
        <time>2024-11-05T13:47:38.815Z</time>
      </trkpt>
      <trkpt lat="44.52491" lon="3.29304">
        <ele>714.24</ele>
        <time>2024-11-05T13:47:47.934Z</time>
      </trkpt>
      <trkpt lat="44.52484" lon="3.29302">
        <ele>714.45</ele>
        <time>2024-11-05T13:47:57.054Z</time>
      </trkpt>
      <trkpt lat="44.5247" lon="3.29298">
        <ele>714.71</ele>
        <time>2024-11-05T13:48:06.177Z</time>
      </trkpt>
      <trkpt lat="44.52461" lon="3.293">
        <ele>714.9</ele>
        <time>2024-11-05T13:48:15.301Z</time>
      </trkpt>
      <trkpt lat="44.52454" lon="3.29306">
        <ele>715.04</ele>
        <time>2024-11-05T13:48:24.426Z</time>
      </trkpt>
      <trkpt lat="44.52454" lon="3.29306">
        <ele>715.19</ele>
        <time>2024-11-05T13:48:33.551Z</time>
      </trkpt>
      <trkpt lat="44.52448" lon="3.29315">
        <ele>715.29</ele>
        <time>2024-11-05T13:48:42.678Z</time>
      </trkpt>
      <trkpt lat="44.52442" lon="3.29322">
        <ele>715.41</ele>
        <time>2024-11-05T13:48:51.806Z</time>
      </trkpt>
      <trkpt lat="44.52437" lon="3.29326">
        <ele>715.58</ele>
        <time>2024-11-05T13:49:00.935Z</time>
      </trkpt>
      <trkpt lat="44.52423" lon="3.29338">
        <ele>715.78</ele>
        <time>2024-11-05T13:49:10.066Z</time>
      </trkpt>
      <trkpt lat="44.52408" lon="3.29342">
        <ele>716.03</ele>
        <time>2024-11-05T13:49:19.200Z</time>
      </trkpt>
      <trkpt lat="44.52398" lon="3.29344">
        <ele>716.28</ele>
        <time>2024-11-05T13:49:28.336Z</time>
      </trkpt>
      <trkpt lat="44.52391" lon="3.2935">
        <ele>716.47</ele>
        <time>2024-11-05T13:49:37.473Z</time>
      </trkpt>
      <trkpt lat="44.52371" lon="3.29382">
        <ele>716.53</ele>
        <time>2024-11-05T13:49:46.615Z</time>
      </trkpt>
      <trkpt lat="44.52366" lon="3.2939">
        <ele>716.71</ele>
        <time>2024-11-05T13:49:55.758Z</time>
      </trkpt>
      <trkpt lat="44.52352" lon="3.29404">
        <ele>716.93</ele>
        <time>2024-11-05T13:50:04.904Z</time>
      </trkpt>
      <trkpt lat="44.52345" lon="3.29407">
        <ele>717.16</ele>
        <time>2024-11-05T13:50:14.051Z</time>
      </trkpt>
      <trkpt lat="44.52338" lon="3.2941">
        <ele>717.4</ele>
        <time>2024-11-05T13:50:23.199Z</time>
      </trkpt>
      <trkpt lat="44.52337" lon="3.2941">
        <ele>717.65</ele>
        <time>2024-11-05T13:50:32.347Z</time>
      </trkpt>
      <trkpt lat="44.52328" lon="3.29411">
        <ele>717.93</ele>
        <time>2024-11-05T13:50:41.497Z</time>
      </trkpt>
      <trkpt lat="44.52312" lon="3.29412">
        <ele>718.24</ele>
        <time>2024-11-05T13:50:50.649Z</time>
      </trkpt>
      <trkpt lat="44.52301" lon="3.29415">
        <ele>718.56</ele>
        <time>2024-11-05T13:50:59.803Z</time>
      </trkpt>
      <trkpt lat="44.52296" lon="3.29416">
        <ele>718.88</ele>
        <time>2024-11-05T13:51:08.958Z</time>
      </trkpt>
      <trkpt lat="44.52293" lon="3.29419">
        <ele>719.18</ele>
        <time>2024-11-05T13:51:18.113Z</time>
      </trkpt>
      <trkpt lat="44.52289" lon="3.29424">
        <ele>719.49</ele>
        <time>2024-11-05T13:51:27.269Z</time>
      </trkpt>
      <trkpt lat="44.52284" lon="3.29434">
        <ele>719.77</ele>
        <time>2024-11-05T13:51:36.427Z</time>
      </trkpt>
      <trkpt lat="44.52274" lon="3.29468">
        <ele>720.07</ele>
        <time>2024-11-05T13:51:45.589Z</time>
      </trkpt>
      <trkpt lat="44.52273" lon="3.29473">
        <ele>720.41</ele>
        <time>2024-11-05T13:51:54.751Z</time>
      </trkpt>
      <trkpt lat="44.52261" lon="3.29493">
        <ele>720.85</ele>
        <time>2024-11-05T13:52:03.916Z</time>
      </trkpt>
      <trkpt lat="44.52231" lon="3.2954">
        <ele>721.26</ele>
        <time>2024-11-05T13:52:13.089Z</time>
      </trkpt>
      <trkpt lat="44.52225" lon="3.2955">
        <ele>721.65</ele>
        <time>2024-11-05T13:52:22.263Z</time>
      </trkpt>
      <trkpt lat="44.52217" lon="3.29559">
        <ele>722.01</ele>
        <time>2024-11-05T13:52:31.439Z</time>
      </trkpt>
      <trkpt lat="44.52215" lon="3.29561">
        <ele>722.41</ele>
        <time>2024-11-05T13:52:40.615Z</time>
      </trkpt>
      <trkpt lat="44.52208" lon="3.29566">
        <ele>722.82</ele>
        <time>2024-11-05T13:52:49.792Z</time>
      </trkpt>
      <trkpt lat="44.52203" lon="3.29569">
        <ele>723.26</ele>
        <time>2024-11-05T13:52:58.970Z</time>
      </trkpt>
      <trkpt lat="44.52194" lon="3.29573">
        <ele>723.72</ele>
        <time>2024-11-05T13:53:08.150Z</time>
      </trkpt>
      <trkpt lat="44.5219" lon="3.29574">
        <ele>724.18</ele>
        <time>2024-11-05T13:53:17.331Z</time>
      </trkpt>
      <trkpt lat="44.52176" lon="3.29577">
        <ele>724.66</ele>
        <time>2024-11-05T13:53:26.514Z</time>
      </trkpt>
      <trkpt lat="44.52163" lon="3.29581">
        <ele>725.16</ele>
        <time>2024-11-05T13:53:35.699Z</time>
      </trkpt>
      <trkpt lat="44.52154" lon="3.29583">
        <ele>725.66</ele>
        <time>2024-11-05T13:53:44.885Z</time>
      </trkpt>
      <trkpt lat="44.52145" lon="3.29583">
        <ele>726.18</ele>
        <time>2024-11-05T13:53:54.073Z</time>
      </trkpt>
      <trkpt lat="44.52137" lon="3.29582">
        <ele>726.71</ele>
        <time>2024-11-05T13:54:03.262Z</time>
      </trkpt>
      <trkpt lat="44.52132" lon="3.29582">
        <ele>727.21</ele>
        <time>2024-11-05T13:54:12.452Z</time>
      </trkpt>
      <trkpt lat="44.52121" lon="3.29586">
        <ele>727.72</ele>
        <time>2024-11-05T13:54:21.644Z</time>
      </trkpt>
      <trkpt lat="44.5212" lon="3.29588">
        <ele>728.21</ele>
        <time>2024-11-05T13:54:30.836Z</time>
      </trkpt>
      <trkpt lat="44.52116" lon="3.29592">
        <ele>728.71</ele>
        <time>2024-11-05T13:54:40.029Z</time>
      </trkpt>
      <trkpt lat="44.52113" lon="3.29604">
        <ele>729.2</ele>
        <time>2024-11-05T13:54:49.223Z</time>
      </trkpt>
      <trkpt lat="44.5211" lon="3.29613">
        <ele>729.7</ele>
        <time>2024-11-05T13:54:58.418Z</time>
      </trkpt>
      <trkpt lat="44.5211" lon="3.29615">
        <ele>730.18</ele>
        <time>2024-11-05T13:55:07.614Z</time>
      </trkpt>
      <trkpt lat="44.52112" lon="3.29625">
        <ele>730.64</ele>
        <time>2024-11-05T13:55:16.811Z</time>
      </trkpt>
      <trkpt lat="44.52121" lon="3.29649">
        <ele>731.05</ele>
        <time>2024-11-05T13:55:26.011Z</time>
      </trkpt>
      <trkpt lat="44.52122" lon="3.29651">
        <ele>731.53</ele>
        <time>2024-11-05T13:55:35.211Z</time>
      </trkpt>
      <trkpt lat="44.52125" lon="3.29673">
        <ele>732</ele>
        <time>2024-11-05T13:55:44.414Z</time>
      </trkpt>
      <trkpt lat="44.52121" lon="3.29685">
        <ele>732.52</ele>
        <time>2024-11-05T13:55:53.618Z</time>
      </trkpt>
      <trkpt lat="44.52119" lon="3.29691">
        <ele>733.02</ele>
        <time>2024-11-05T13:56:02.823Z</time>
      </trkpt>
      <trkpt lat="44.52115" lon="3.29694">
        <ele>733.54</ele>
        <time>2024-11-05T13:56:12.029Z</time>
      </trkpt>
      <trkpt lat="44.52078" lon="3.29729">
        <ele>734.17</ele>
        <time>2024-11-05T13:56:21.242Z</time>
      </trkpt>
      <trkpt lat="44.52071" lon="3.29735">
        <ele>734.69</ele>
        <time>2024-11-05T13:56:30.456Z</time>
      </trkpt>
      <trkpt lat="44.5207" lon="3.29735">
        <ele>735.2</ele>
        <time>2024-11-05T13:56:39.670Z</time>
      </trkpt>
      <trkpt lat="44.52061" lon="3.29737">
        <ele>735.73</ele>
        <time>2024-11-05T13:56:48.886Z</time>
      </trkpt>
      <trkpt lat="44.52054" lon="3.29739">
        <ele>736.26</ele>
        <time>2024-11-05T13:56:58.103Z</time>
      </trkpt>
      <trkpt lat="44.52053" lon="3.29739">
        <ele>736.77</ele>
        <time>2024-11-05T13:57:07.320Z</time>
      </trkpt>
      <trkpt lat="44.52043" lon="3.29736">
        <ele>737.3</ele>
        <time>2024-11-05T13:57:16.539Z</time>
      </trkpt>
      <trkpt lat="44.52041" lon="3.29732">
        <ele>737.81</ele>
        <time>2024-11-05T13:57:25.758Z</time>
      </trkpt>
      <trkpt lat="44.5204" lon="3.29731">
        <ele>738.32</ele>
        <time>2024-11-05T13:57:34.977Z</time>
      </trkpt>
      <trkpt lat="44.52038" lon="3.29716">
        <ele>738.83</ele>
        <time>2024-11-05T13:57:44.198Z</time>
      </trkpt>
      <trkpt lat="44.52041" lon="3.29704">
        <ele>739.34</ele>
        <time>2024-11-05T13:57:53.421Z</time>
      </trkpt>
      <trkpt lat="44.52046" lon="3.29687">
        <ele>739.88</ele>
        <time>2024-11-05T13:58:02.646Z</time>
      </trkpt>
      <trkpt lat="44.52049" lon="3.29675">
        <ele>740.41</ele>
        <time>2024-11-05T13:58:11.872Z</time>
      </trkpt>
      <trkpt lat="44.52056" lon="3.29649">
        <ele>740.96</ele>
        <time>2024-11-05T13:58:21.101Z</time>
      </trkpt>
      <trkpt lat="44.52057" lon="3.29641">
        <ele>741.48</ele>
        <time>2024-11-05T13:58:30.331Z</time>
      </trkpt>
      <trkpt lat="44.52058" lon="3.29629">
        <ele>742</ele>
        <time>2024-11-05T13:58:39.563Z</time>
      </trkpt>
      <trkpt lat="44.52059" lon="3.29616">
        <ele>742.52</ele>
        <time>2024-11-05T13:58:48.796Z</time>
      </trkpt>
      <trkpt lat="44.52055" lon="3.29606">
        <ele>743.05</ele>
        <time>2024-11-05T13:58:58.030Z</time>
      </trkpt>
      <trkpt lat="44.52054" lon="3.29602">
        <ele>743.55</ele>
        <time>2024-11-05T13:59:07.265Z</time>
      </trkpt>
      <trkpt lat="44.52048" lon="3.29599">
        <ele>744.06</ele>
        <time>2024-11-05T13:59:16.501Z</time>
      </trkpt>
      <trkpt lat="44.52044" lon="3.29598">
        <ele>744.55</ele>
        <time>2024-11-05T13:59:25.738Z</time>
      </trkpt>
      <trkpt lat="44.52042" lon="3.29598">
        <ele>745.04</ele>
        <time>2024-11-05T13:59:34.975Z</time>
      </trkpt>
      <trkpt lat="44.52036" lon="3.29601">
        <ele>745.52</ele>
        <time>2024-11-05T13:59:44.213Z</time>
      </trkpt>
      <trkpt lat="44.52036" lon="3.29601">
        <ele>746.01</ele>
        <time>2024-11-05T13:59:53.451Z</time>
      </trkpt>
      <trkpt lat="44.52028" lon="3.29608">
        <ele>746.48</ele>
        <time>2024-11-05T14:00:02.690Z</time>
      </trkpt>
      <trkpt lat="44.52016" lon="3.29618">
        <ele>746.98</ele>
        <time>2024-11-05T14:00:11.932Z</time>
      </trkpt>
      <trkpt lat="44.52008" lon="3.29622">
        <ele>747.46</ele>
        <time>2024-11-05T14:00:21.175Z</time>
      </trkpt>
      <trkpt lat="44.52005" lon="3.29623">
        <ele>747.94</ele>
        <time>2024-11-05T14:00:30.419Z</time>
      </trkpt>
      <trkpt lat="44.51995" lon="3.29626">
        <ele>748.42</ele>
        <time>2024-11-05T14:00:39.664Z</time>
      </trkpt>
      <trkpt lat="44.51993" lon="3.29627">
        <ele>748.9</ele>
        <time>2024-11-05T14:00:48.910Z</time>
      </trkpt>
      <trkpt lat="44.51976" lon="3.29626">
        <ele>749.42</ele>
        <time>2024-11-05T14:00:58.158Z</time>
      </trkpt>
      <trkpt lat="44.51967" lon="3.29622">
        <ele>749.91</ele>
        <time>2024-11-05T14:01:07.408Z</time>
      </trkpt>
      <trkpt lat="44.51949" lon="3.29607">
        <ele>750.44</ele>
        <time>2024-11-05T14:01:16.661Z</time>
      </trkpt>
      <trkpt lat="44.51938" lon="3.29597">
        <ele>750.95</ele>
        <time>2024-11-05T14:01:25.916Z</time>
      </trkpt>
      <trkpt lat="44.51926" lon="3.29589">
        <ele>751.45</ele>
        <time>2024-11-05T14:01:35.173Z</time>
      </trkpt>
      <trkpt lat="44.51918" lon="3.29584">
        <ele>751.94</ele>
        <time>2024-11-05T14:01:44.432Z</time>
      </trkpt>
      <trkpt lat="44.51917" lon="3.29584">
        <ele>752.41</ele>
        <time>2024-11-05T14:01:53.691Z</time>
      </trkpt>
      <trkpt lat="44.51909" lon="3.29582">
        <ele>752.9</ele>
        <time>2024-11-05T14:02:02.951Z</time>
      </trkpt>
      <trkpt lat="44.51906" lon="3.29581">
        <ele>753.37</ele>
        <time>2024-11-05T14:02:12.212Z</time>
      </trkpt>
      <trkpt lat="44.51891" lon="3.2958">
        <ele>753.88</ele>
        <time>2024-11-05T14:02:21.475Z</time>
      </trkpt>
      <trkpt lat="44.51888" lon="3.2958">
        <ele>754.35</ele>
        <time>2024-11-05T14:02:30.739Z</time>
      </trkpt>
      <trkpt lat="44.51882" lon="3.29582">
        <ele>754.83</ele>
        <time>2024-11-05T14:02:40.004Z</time>
      </trkpt>
      <trkpt lat="44.51861" lon="3.29614">
        <ele>755.3</ele>
        <time>2024-11-05T14:02:49.274Z</time>
      </trkpt>
      <trkpt lat="44.51852" lon="3.29628">
        <ele>755.8</ele>
        <time>2024-11-05T14:02:58.546Z</time>
      </trkpt>
      <trkpt lat="44.51848" lon="3.29633">
        <ele>756.27</ele>
        <time>2024-11-05T14:03:07.819Z</time>
      </trkpt>
      <trkpt lat="44.51837" lon="3.29643">
        <ele>756.76</ele>
        <time>2024-11-05T14:03:17.094Z</time>
      </trkpt>
      <trkpt lat="44.5183" lon="3.2965">
        <ele>757.27</ele>
        <time>2024-11-05T14:03:26.370Z</time>
      </trkpt>
      <trkpt lat="44.51827" lon="3.29653">
        <ele>757.75</ele>
        <time>2024-11-05T14:03:35.647Z</time>
      </trkpt>
      <trkpt lat="44.51824" lon="3.29658">
        <ele>758.24</ele>
        <time>2024-11-05T14:03:44.924Z</time>
      </trkpt>
      <trkpt lat="44.5182" lon="3.29673">
        <ele>758.7</ele>
        <time>2024-11-05T14:03:54.203Z</time>
      </trkpt>
      <trkpt lat="44.51819" lon="3.29683">
        <ele>759.18</ele>
        <time>2024-11-05T14:04:03.483Z</time>
      </trkpt>
      <trkpt lat="44.51816" lon="3.29704">
        <ele>759.65</ele>
        <time>2024-11-05T14:04:12.766Z</time>
      </trkpt>
      <trkpt lat="44.51813" lon="3.29713">
        <ele>760.15</ele>
        <time>2024-11-05T14:04:22.050Z</time>
      </trkpt>
      <trkpt lat="44.51803" lon="3.29736">
        <ele>760.65</ele>
        <time>2024-11-05T14:04:31.337Z</time>
      </trkpt>
      <trkpt lat="44.51798" lon="3.29744">
        <ele>761.14</ele>
        <time>2024-11-05T14:04:40.625Z</time>
      </trkpt>
      <trkpt lat="44.51793" lon="3.29752">
        <ele>761.65</ele>
        <time>2024-11-05T14:04:49.914Z</time>
      </trkpt>
      <trkpt lat="44.51782" lon="3.29765">
        <ele>762.16</ele>
        <time>2024-11-05T14:04:59.206Z</time>
      </trkpt>
      <trkpt lat="44.51768" lon="3.29778">
        <ele>762.68</ele>
        <time>2024-11-05T14:05:08.500Z</time>
      </trkpt>
      <trkpt lat="44.51767" lon="3.29779">
        <ele>763.21</ele>
        <time>2024-11-05T14:05:17.795Z</time>
      </trkpt>
      <trkpt lat="44.51753" lon="3.29784">
        <ele>763.76</ele>
        <time>2024-11-05T14:05:27.092Z</time>
      </trkpt>
      <trkpt lat="44.5174" lon="3.29785">
        <ele>764.32</ele>
        <time>2024-11-05T14:05:36.391Z</time>
      </trkpt>
      <trkpt lat="44.51736" lon="3.29783">
        <ele>764.88</ele>
        <time>2024-11-05T14:05:45.691Z</time>
      </trkpt>
      <trkpt lat="44.51724" lon="3.29777">
        <ele>765.47</ele>
        <time>2024-11-05T14:05:54.993Z</time>
      </trkpt>
      <trkpt lat="44.51716" lon="3.2977">
        <ele>766.07</ele>
        <time>2024-11-05T14:06:04.296Z</time>
      </trkpt>
      <trkpt lat="44.51697" lon="3.29756">
        <ele>766.74</ele>
        <time>2024-11-05T14:06:13.603Z</time>
      </trkpt>
      <trkpt lat="44.51696" lon="3.29756">
        <ele>767.33</ele>
        <time>2024-11-05T14:06:22.910Z</time>
      </trkpt>
      <trkpt lat="44.51679" lon="3.29749">
        <ele>767.99</ele>
        <time>2024-11-05T14:06:32.220Z</time>
      </trkpt>
      <trkpt lat="44.51659" lon="3.29746">
        <ele>768.63</ele>
        <time>2024-11-05T14:06:41.533Z</time>
      </trkpt>
      <trkpt lat="44.51648" lon="3.29748">
        <ele>769.25</ele>
        <time>2024-11-05T14:06:50.848Z</time>
      </trkpt>
      <trkpt lat="44.51645" lon="3.29749">
        <ele>769.87</ele>
        <time>2024-11-05T14:07:00.163Z</time>
      </trkpt>
      <trkpt lat="44.51639" lon="3.29752">
        <ele>770.5</ele>
        <time>2024-11-05T14:07:09.479Z</time>
      </trkpt>
      <trkpt lat="44.51616" lon="3.29766">
        <ele>771.16</ele>
        <time>2024-11-05T14:07:18.799Z</time>
      </trkpt>
      <trkpt lat="44.51604" lon="3.29778">
        <ele>771.8</ele>
        <time>2024-11-05T14:07:28.122Z</time>
      </trkpt>
      <trkpt lat="44.51587" lon="3.29795">
        <ele>772.45</ele>
        <time>2024-11-05T14:07:37.448Z</time>
      </trkpt>
      <trkpt lat="44.51577" lon="3.29801">
        <ele>773.12</ele>
        <time>2024-11-05T14:07:46.776Z</time>
      </trkpt>
      <trkpt lat="44.51569" lon="3.29804">
        <ele>773.79</ele>
        <time>2024-11-05T14:07:56.105Z</time>
      </trkpt>
      <trkpt lat="44.51564" lon="3.29805">
        <ele>774.46</ele>
        <time>2024-11-05T14:08:05.435Z</time>
      </trkpt>
      <trkpt lat="44.51551" lon="3.29806">
        <ele>775.15</ele>
        <time>2024-11-05T14:08:14.767Z</time>
      </trkpt>
      <trkpt lat="44.51519" lon="3.29804">
        <ele>775.89</ele>
        <time>2024-11-05T14:08:24.104Z</time>
      </trkpt>
      <trkpt lat="44.51515" lon="3.29803">
        <ele>776.6</ele>
        <time>2024-11-05T14:08:33.442Z</time>
      </trkpt>
      <trkpt lat="44.51497" lon="3.298">
        <ele>777.35</ele>
        <time>2024-11-05T14:08:42.783Z</time>
      </trkpt>
      <trkpt lat="44.51495" lon="3.298">
        <ele>778.06</ele>
        <time>2024-11-05T14:08:52.124Z</time>
      </trkpt>
      <trkpt lat="44.51488" lon="3.29798">
        <ele>778.78</ele>
        <time>2024-11-05T14:09:01.466Z</time>
      </trkpt>
      <trkpt lat="44.51462" lon="3.29789">
        <ele>779.55</ele>
        <time>2024-11-05T14:09:10.812Z</time>
      </trkpt>
      <trkpt lat="44.51454" lon="3.29786">
        <ele>780.28</ele>
        <time>2024-11-05T14:09:20.160Z</time>
      </trkpt>
      <trkpt lat="44.51449" lon="3.29783">
        <ele>781.01</ele>
        <time>2024-11-05T14:09:29.508Z</time>
      </trkpt>
      <trkpt lat="44.51441" lon="3.29779">
        <ele>781.75</ele>
        <time>2024-11-05T14:09:38.858Z</time>
      </trkpt>
      <trkpt lat="44.51419" lon="3.29766">
        <ele>782.5</ele>
        <time>2024-11-05T14:09:48.212Z</time>
      </trkpt>
      <trkpt lat="44.51417" lon="3.29764">
        <ele>783.23</ele>
        <time>2024-11-05T14:09:57.566Z</time>
      </trkpt>
      <trkpt lat="44.51396" lon="3.29744">
        <ele>783.99</ele>
        <time>2024-11-05T14:10:06.924Z</time>
      </trkpt>
      <trkpt lat="44.51391" lon="3.29738">
        <ele>784.72</ele>
        <time>2024-11-05T14:10:16.283Z</time>
      </trkpt>
      <trkpt lat="44.51382" lon="3.29724">
        <ele>785.47</ele>
        <time>2024-11-05T14:10:25.644Z</time>
      </trkpt>
      <trkpt lat="44.5136" lon="3.29693">
        <ele>786.24</ele>
        <time>2024-11-05T14:10:35.010Z</time>
      </trkpt>
      <trkpt lat="44.51338" lon="3.29662">
        <ele>787.04</ele>
        <time>2024-11-05T14:10:44.381Z</time>
      </trkpt>
      <trkpt lat="44.51329" lon="3.29649">
        <ele>787.76</ele>
        <time>2024-11-05T14:10:53.754Z</time>
      </trkpt>
      <trkpt lat="44.51328" lon="3.29648">
        <ele>788.45</ele>
        <time>2024-11-05T14:11:03.128Z</time>
      </trkpt>
      <trkpt lat="44.51317" lon="3.29638">
        <ele>789.13</ele>
        <time>2024-11-05T14:11:12.504Z</time>
      </trkpt>
      <trkpt lat="44.51308" lon="3.29629">
        <ele>789.82</ele>
        <time>2024-11-05T14:11:21.881Z</time>
      </trkpt>
      <trkpt lat="44.51294" lon="3.29623">
        <ele>790.51</ele>
        <time>2024-11-05T14:11:31.261Z</time>
      </trkpt>
      <trkpt lat="44.51284" lon="3.29618">
        <ele>791.19</ele>
        <time>2024-11-05T14:11:40.642Z</time>
      </trkpt>
      <trkpt lat="44.5126" lon="3.29626">
        <ele>791.81</ele>
        <time>2024-11-05T14:11:50.028Z</time>
      </trkpt>
      <trkpt lat="44.51249" lon="3.2963">
        <ele>792.44</ele>
        <time>2024-11-05T14:11:59.415Z</time>
      </trkpt>
      <trkpt lat="44.51247" lon="3.29631">
        <ele>793.06</ele>
        <time>2024-11-05T14:12:08.803Z</time>
      </trkpt>
      <trkpt lat="44.51234" lon="3.29638">
        <ele>793.65</ele>
        <time>2024-11-05T14:12:18.193Z</time>
      </trkpt>
      <trkpt lat="44.51218" lon="3.29647">
        <ele>794.23</ele>
        <time>2024-11-05T14:12:27.586Z</time>
      </trkpt>
      <trkpt lat="44.51209" lon="3.29651">
        <ele>794.8</ele>
        <time>2024-11-05T14:12:36.980Z</time>
      </trkpt>
      <trkpt lat="44.51202" lon="3.29655">
        <ele>795.35</ele>
        <time>2024-11-05T14:12:46.375Z</time>
      </trkpt>
      <trkpt lat="44.51192" lon="3.29651">
        <ele>795.92</ele>
        <time>2024-11-05T14:12:55.772Z</time>
      </trkpt>
      <trkpt lat="44.51184" lon="3.29648">
        <ele>796.47</ele>
        <time>2024-11-05T14:13:05.170Z</time>
      </trkpt>
      <trkpt lat="44.51128" lon="3.29626">
        <ele>797.14</ele>
        <time>2024-11-05T14:13:14.578Z</time>
      </trkpt>
      <trkpt lat="44.51106" lon="3.29623">
        <ele>797.68</ele>
        <time>2024-11-05T14:13:23.989Z</time>
      </trkpt>
      <trkpt lat="44.51097" lon="3.29622">
        <ele>798.18</ele>
        <time>2024-11-05T14:13:33.402Z</time>
      </trkpt>
      <trkpt lat="44.51086" lon="3.29621">
        <ele>798.7</ele>
        <time>2024-11-05T14:13:42.816Z</time>
      </trkpt>
      <trkpt lat="44.51066" lon="3.29622">
        <ele>799.16</ele>
        <time>2024-11-05T14:13:52.234Z</time>
      </trkpt>
      <trkpt lat="44.51055" lon="3.29622">
        <ele>799.61</ele>
        <time>2024-11-05T14:14:01.653Z</time>
      </trkpt>
      <trkpt lat="44.51044" lon="3.29626">
        <ele>800</ele>
        <time>2024-11-05T14:14:11.074Z</time>
      </trkpt>
      <trkpt lat="44.51033" lon="3.2963">
        <ele>800.39</ele>
        <time>2024-11-05T14:14:20.497Z</time>
      </trkpt>
      <trkpt lat="44.51001" lon="3.29635">
        <ele>800.77</ele>
        <time>2024-11-05T14:14:29.925Z</time>
      </trkpt>
      <trkpt lat="44.50994" lon="3.29636">
        <ele>801.17</ele>
        <time>2024-11-05T14:14:39.354Z</time>
      </trkpt>
      <trkpt lat="44.50989" lon="3.29636">
        <ele>801.54</ele>
        <time>2024-11-05T14:14:48.784Z</time>
      </trkpt>
      <trkpt lat="44.50963" lon="3.29637">
        <ele>801.92</ele>
        <time>2024-11-05T14:14:58.218Z</time>
      </trkpt>
      <trkpt lat="44.50952" lon="3.29637">
        <ele>802.26</ele>
        <time>2024-11-05T14:15:07.654Z</time>
      </trkpt>
      <trkpt lat="44.50945" lon="3.29638">
        <ele>802.59</ele>
        <time>2024-11-05T14:15:17.091Z</time>
      </trkpt>
      <trkpt lat="44.50918" lon="3.29644">
        <ele>802.93</ele>
        <time>2024-11-05T14:15:26.532Z</time>
      </trkpt>
      <trkpt lat="44.50914" lon="3.29644">
        <ele>803.23</ele>
        <time>2024-11-05T14:15:35.974Z</time>
      </trkpt>
      <trkpt lat="44.50905" lon="3.29646">
        <ele>803.51</ele>
        <time>2024-11-05T14:15:45.418Z</time>
      </trkpt>
      <trkpt lat="44.50896" lon="3.29648">
        <ele>803.79</ele>
        <time>2024-11-05T14:15:54.863Z</time>
      </trkpt>
      <trkpt lat="44.50892" lon="3.29649">
        <ele>804.06</ele>
        <time>2024-11-05T14:16:04.309Z</time>
      </trkpt>
      <trkpt lat="44.50874" lon="3.29652">
        <ele>804.33</ele>
        <time>2024-11-05T14:16:13.758Z</time>
      </trkpt>
      <trkpt lat="44.50865" lon="3.29653">
        <ele>804.58</ele>
        <time>2024-11-05T14:16:23.208Z</time>
      </trkpt>
      <trkpt lat="44.50852" lon="3.29654">
        <ele>804.83</ele>
        <time>2024-11-05T14:16:32.660Z</time>
      </trkpt>
      <trkpt lat="44.50843" lon="3.29655">
        <ele>805.05</ele>
        <time>2024-11-05T14:16:42.114Z</time>
      </trkpt>
      <trkpt lat="44.50827" lon="3.29657">
        <ele>805.26</ele>
        <time>2024-11-05T14:16:51.570Z</time>
      </trkpt>
      <trkpt lat="44.50809" lon="3.29669">
        <ele>805.51</ele>
        <time>2024-11-05T14:17:01.029Z</time>
      </trkpt>
      <trkpt lat="44.50802" lon="3.29673">
        <ele>805.71</ele>
        <time>2024-11-05T14:17:10.489Z</time>
      </trkpt>
      <trkpt lat="44.508" lon="3.29673">
        <ele>805.88</ele>
        <time>2024-11-05T14:17:19.950Z</time>
      </trkpt>
      <trkpt lat="44.50796" lon="3.29674">
        <ele>806.05</ele>
        <time>2024-11-05T14:17:29.411Z</time>
      </trkpt>
      <trkpt lat="44.50793" lon="3.29674">
        <ele>806.2</ele>
        <time>2024-11-05T14:17:38.873Z</time>
      </trkpt>
      <trkpt lat="44.50787" lon="3.29673">
        <ele>806.34</ele>
        <time>2024-11-05T14:17:48.336Z</time>
      </trkpt>
      <trkpt lat="44.50784" lon="3.29673">
        <ele>806.47</ele>
        <time>2024-11-05T14:17:57.799Z</time>
      </trkpt>
      <trkpt lat="44.50779" lon="3.29668">
        <ele>806.57</ele>
        <time>2024-11-05T14:18:07.263Z</time>
      </trkpt>
      <trkpt lat="44.50772" lon="3.29661">
        <ele>806.66</ele>
        <time>2024-11-05T14:18:16.729Z</time>
      </trkpt>
      <trkpt lat="44.50764" lon="3.29654">
        <ele>806.73</ele>
        <time>2024-11-05T14:18:26.196Z</time>
      </trkpt>
      <trkpt lat="44.50757" lon="3.29647">
        <ele>806.79</ele>
        <time>2024-11-05T14:18:35.665Z</time>
      </trkpt>
      <trkpt lat="44.50753" lon="3.29644">
        <ele>806.85</ele>
        <time>2024-11-05T14:18:45.134Z</time>
      </trkpt>
      <trkpt lat="44.50745" lon="3.2964">
        <ele>806.9</ele>
        <time>2024-11-05T14:18:54.605Z</time>
      </trkpt>
      <trkpt lat="44.5074" lon="3.29639">
        <ele>806.95</ele>
        <time>2024-11-05T14:19:04.077Z</time>
      </trkpt>
      <trkpt lat="44.5073" lon="3.29636">
        <ele>806.99</ele>
        <time>2024-11-05T14:19:13.550Z</time>
      </trkpt>
      <trkpt lat="44.50727" lon="3.29636">
        <ele>807.04</ele>
        <time>2024-11-05T14:19:23.024Z</time>
      </trkpt>
      <trkpt lat="44.50718" lon="3.29638">
        <ele>807.09</ele>
        <time>2024-11-05T14:19:32.499Z</time>
      </trkpt>
      <trkpt lat="44.50709" lon="3.29639">
        <ele>807.13</ele>
        <time>2024-11-05T14:19:41.976Z</time>
      </trkpt>
      <trkpt lat="44.50707" lon="3.29639">
        <ele>807.15</ele>
        <time>2024-11-05T14:19:51.453Z</time>
      </trkpt>
      <trkpt lat="44.507" lon="3.29641">
        <ele>807.18</ele>
        <time>2024-11-05T14:20:00.931Z</time>
      </trkpt>
      <trkpt lat="44.50691" lon="3.29644">
        <ele>807.2</ele>
        <time>2024-11-05T14:20:10.410Z</time>
      </trkpt>
      <trkpt lat="44.50683" lon="3.29647">
        <ele>807.21</ele>
        <time>2024-11-05T14:20:19.891Z</time>
      </trkpt>
      <trkpt lat="44.50665" lon="3.29654">
        <ele>807.25</ele>
        <time>2024-11-05T14:20:29.375Z</time>
      </trkpt>
      <trkpt lat="44.50656" lon="3.29657">
        <ele>807.24</ele>
        <time>2024-11-05T14:20:38.860Z</time>
      </trkpt>
      <trkpt lat="44.50648" lon="3.2966">
        <ele>807.21</ele>
        <time>2024-11-05T14:20:48.347Z</time>
      </trkpt>
      <trkpt lat="44.50639" lon="3.29663">
        <ele>807.18</ele>
        <time>2024-11-05T14:20:57.835Z</time>
      </trkpt>
      <trkpt lat="44.5063" lon="3.29666">
        <ele>807.11</ele>
        <time>2024-11-05T14:21:07.325Z</time>
      </trkpt>
      <trkpt lat="44.50623" lon="3.29668">
        <ele>807.05</ele>
        <time>2024-11-05T14:21:16.816Z</time>
      </trkpt>
      <trkpt lat="44.50622" lon="3.29669">
        <ele>807</ele>
        <time>2024-11-05T14:21:26.307Z</time>
      </trkpt>
      <trkpt lat="44.50609" lon="3.29679">
        <ele>806.95</ele>
        <time>2024-11-05T14:21:35.800Z</time>
      </trkpt>
      <trkpt lat="44.50598" lon="3.29697">
        <ele>806.92</ele>
        <time>2024-11-05T14:21:45.296Z</time>
      </trkpt>
      <trkpt lat="44.50593" lon="3.29707">
        <ele>806.87</ele>
        <time>2024-11-05T14:21:54.793Z</time>
      </trkpt>
      <trkpt lat="44.50578" lon="3.29731">
        <ele>806.8</ele>
        <time>2024-11-05T14:22:04.294Z</time>
      </trkpt>
      <trkpt lat="44.5057" lon="3.29746">
        <ele>806.75</ele>
        <time>2024-11-05T14:22:13.797Z</time>
      </trkpt>
      <trkpt lat="44.50561" lon="3.29761">
        <ele>806.7</ele>
        <time>2024-11-05T14:22:23.302Z</time>
      </trkpt>
      <trkpt lat="44.50556" lon="3.2977">
        <ele>806.64</ele>
        <time>2024-11-05T14:22:32.809Z</time>
      </trkpt>
      <trkpt lat="44.50553" lon="3.29775">
        <ele>806.57</ele>
        <time>2024-11-05T14:22:42.316Z</time>
      </trkpt>
      <trkpt lat="44.50549" lon="3.29782">
        <ele>806.5</ele>
        <time>2024-11-05T14:22:51.824Z</time>
      </trkpt>
      <trkpt lat="44.50547" lon="3.29785">
        <ele>806.41</ele>
        <time>2024-11-05T14:23:01.333Z</time>
      </trkpt>
      <trkpt lat="44.5054" lon="3.29794">
        <ele>806.34</ele>
        <time>2024-11-05T14:23:10.843Z</time>
      </trkpt>
      <trkpt lat="44.50529" lon="3.29803">
        <ele>806.27</ele>
        <time>2024-11-05T14:23:20.356Z</time>
      </trkpt>
      <trkpt lat="44.50524" lon="3.29803">
        <ele>806.17</ele>
        <time>2024-11-05T14:23:29.869Z</time>
      </trkpt>
      <trkpt lat="44.50509" lon="3.29803">
        <ele>806.05</ele>
        <time>2024-11-05T14:23:39.385Z</time>
      </trkpt>
      <trkpt lat="44.5047" lon="3.29779">
        <ele>805.87</ele>
        <time>2024-11-05T14:23:48.908Z</time>
      </trkpt>
      <trkpt lat="44.50461" lon="3.29773">
        <ele>805.76</ele>
        <time>2024-11-05T14:23:58.432Z</time>
      </trkpt>
      <trkpt lat="44.50457" lon="3.29772">
        <ele>805.66</ele>
        <time>2024-11-05T14:24:07.957Z</time>
      </trkpt>
      <trkpt lat="44.50447" lon="3.29769">
        <ele>805.56</ele>
        <time>2024-11-05T14:24:17.483Z</time>
      </trkpt>
      <trkpt lat="44.5044" lon="3.29769">
        <ele>805.47</ele>
        <time>2024-11-05T14:24:27.011Z</time>
      </trkpt>
      <trkpt lat="44.50431" lon="3.29768">
        <ele>805.35</ele>
        <time>2024-11-05T14:24:36.540Z</time>
      </trkpt>
      <trkpt lat="44.50422" lon="3.29772">
        <ele>805.25</ele>
        <time>2024-11-05T14:24:46.070Z</time>
      </trkpt>
      <trkpt lat="44.50405" lon="3.2978">
        <ele>805.19</ele>
        <time>2024-11-05T14:24:55.603Z</time>
      </trkpt>
      <trkpt lat="44.50392" lon="3.29785">
        <ele>805.14</ele>
        <time>2024-11-05T14:25:05.139Z</time>
      </trkpt>
      <trkpt lat="44.50384" lon="3.29789">
        <ele>805.09</ele>
        <time>2024-11-05T14:25:14.676Z</time>
      </trkpt>
      <trkpt lat="44.50379" lon="3.29789">
        <ele>805.03</ele>
        <time>2024-11-05T14:25:24.214Z</time>
      </trkpt>
      <trkpt lat="44.50352" lon="3.2979">
        <ele>804.93</ele>
        <time>2024-11-05T14:25:33.756Z</time>
      </trkpt>
      <trkpt lat="44.50348" lon="3.2979">
        <ele>804.88</ele>
        <time>2024-11-05T14:25:43.299Z</time>
      </trkpt>
      <trkpt lat="44.50343" lon="3.29791">
        <ele>804.83</ele>
        <time>2024-11-05T14:25:52.842Z</time>
      </trkpt>
      <trkpt lat="44.50334" lon="3.29792">
        <ele>804.78</ele>
        <time>2024-11-05T14:26:02.387Z</time>
      </trkpt>
      <trkpt lat="44.50316" lon="3.29795">
        <ele>804.73</ele>
        <time>2024-11-05T14:26:11.935Z</time>
      </trkpt>
      <trkpt lat="44.50314" lon="3.29795">
        <ele>804.71</ele>
        <time>2024-11-05T14:26:21.483Z</time>
      </trkpt>
      <trkpt lat="44.50303" lon="3.29799">
        <ele>804.72</ele>
        <time>2024-11-05T14:26:31.033Z</time>
      </trkpt>
      <trkpt lat="44.50297" lon="3.29801">
        <ele>804.72</ele>
        <time>2024-11-05T14:26:40.584Z</time>
      </trkpt>
      <trkpt lat="44.50295" lon="3.29802">
        <ele>804.73</ele>
        <time>2024-11-05T14:26:50.135Z</time>
      </trkpt>
      <trkpt lat="44.50286" lon="3.29807">
        <ele>804.75</ele>
        <time>2024-11-05T14:26:59.688Z</time>
      </trkpt>
      <trkpt lat="44.50278" lon="3.29811">
        <ele>804.8</ele>
        <time>2024-11-05T14:27:09.242Z</time>
      </trkpt>
      <trkpt lat="44.50274" lon="3.29813">
        <ele>804.86</ele>
        <time>2024-11-05T14:27:18.797Z</time>
      </trkpt>
      <trkpt lat="44.50269" lon="3.29815">
        <ele>804.92</ele>
        <time>2024-11-05T14:27:28.353Z</time>
      </trkpt>
      <trkpt lat="44.50266" lon="3.29817">
        <ele>804.98</ele>
        <time>2024-11-05T14:27:37.909Z</time>
      </trkpt>
      <trkpt lat="44.50265" lon="3.29817">
        <ele>805.04</ele>
        <time>2024-11-05T14:27:47.465Z</time>
      </trkpt>
      <trkpt lat="44.50261" lon="3.29817">
        <ele>805.11</ele>
        <time>2024-11-05T14:27:57.022Z</time>
      </trkpt>
      <trkpt lat="44.50256" lon="3.29818">
        <ele>805.19</ele>
        <time>2024-11-05T14:28:06.580Z</time>
      </trkpt>
      <trkpt lat="44.50252" lon="3.29818">
        <ele>805.27</ele>
        <time>2024-11-05T14:28:16.138Z</time>
      </trkpt>
      <trkpt lat="44.50249" lon="3.29818">
        <ele>805.36</ele>
        <time>2024-11-05T14:28:25.697Z</time>
      </trkpt>
      <trkpt lat="44.50243" lon="3.29815">
        <ele>805.44</ele>
        <time>2024-11-05T14:28:35.257Z</time>
      </trkpt>
      <trkpt lat="44.50232" lon="3.2981">
        <ele>805.53</ele>
        <time>2024-11-05T14:28:44.819Z</time>
      </trkpt>
      <trkpt lat="44.50221" lon="3.29809">
        <ele>805.64</ele>
        <time>2024-11-05T14:28:54.383Z</time>
      </trkpt>
      <trkpt lat="44.50212" lon="3.29808">
        <ele>805.74</ele>
        <time>2024-11-05T14:29:03.948Z</time>
      </trkpt>
      <trkpt lat="44.50208" lon="3.29807">
        <ele>805.84</ele>
        <time>2024-11-05T14:29:13.514Z</time>
      </trkpt>
      <trkpt lat="44.50203" lon="3.29808">
        <ele>805.96</ele>
        <time>2024-11-05T14:29:23.080Z</time>
      </trkpt>
      <trkpt lat="44.50199" lon="3.29809">
        <ele>806.07</ele>
        <time>2024-11-05T14:29:32.647Z</time>
      </trkpt>
      <trkpt lat="44.50194" lon="3.2981">
        <ele>806.18</ele>
        <time>2024-11-05T14:29:42.215Z</time>
      </trkpt>
      <trkpt lat="44.5019" lon="3.29811">
        <ele>806.29</ele>
        <time>2024-11-05T14:29:51.784Z</time>
      </trkpt>
      <trkpt lat="44.50186" lon="3.29812">
        <ele>806.39</ele>
        <time>2024-11-05T14:30:01.353Z</time>
      </trkpt>
      <trkpt lat="44.50186" lon="3.29812">
        <ele>806.5</ele>
        <time>2024-11-05T14:30:10.922Z</time>
      </trkpt>
      <trkpt lat="44.50181" lon="3.29814">
        <ele>806.61</ele>
        <time>2024-11-05T14:30:20.492Z</time>
      </trkpt>
      <trkpt lat="44.50177" lon="3.29817">
        <ele>806.71</ele>
        <time>2024-11-05T14:30:30.063Z</time>
      </trkpt>
      <trkpt lat="44.50173" lon="3.29819">
        <ele>806.81</ele>
        <time>2024-11-05T14:30:39.634Z</time>
      </trkpt>
      <trkpt lat="44.50169" lon="3.29821">
        <ele>806.9</ele>
        <time>2024-11-05T14:30:49.206Z</time>
      </trkpt>
      <trkpt lat="44.50165" lon="3.29823">
        <ele>806.99</ele>
        <time>2024-11-05T14:30:58.779Z</time>
      </trkpt>
      <trkpt lat="44.50156" lon="3.29828">
        <ele>807.07</ele>
        <time>2024-11-05T14:31:08.353Z</time>
      </trkpt>
      <trkpt lat="44.50149" lon="3.29835">
        <ele>807.16</ele>
        <time>2024-11-05T14:31:17.929Z</time>
      </trkpt>
      <trkpt lat="44.50141" lon="3.29841">
        <ele>807.23</ele>
        <time>2024-11-05T14:31:27.506Z</time>
      </trkpt>
      <trkpt lat="44.50133" lon="3.29848">
        <ele>807.3</ele>
        <time>2024-11-05T14:31:37.085Z</time>
      </trkpt>
      <trkpt lat="44.50126" lon="3.29855">
        <ele>807.36</ele>
        <time>2024-11-05T14:31:46.665Z</time>
      </trkpt>
      <trkpt lat="44.50123" lon="3.29857">
        <ele>807.42</ele>
        <time>2024-11-05T14:31:56.246Z</time>
      </trkpt>
      <trkpt lat="44.50119" lon="3.29863">
        <ele>807.48</ele>
        <time>2024-11-05T14:32:05.827Z</time>
      </trkpt>
      <trkpt lat="44.50106" lon="3.29881">
        <ele>807.52</ele>
        <time>2024-11-05T14:32:15.411Z</time>
      </trkpt>
      <trkpt lat="44.50091" lon="3.29903">
        <ele>807.56</ele>
        <time>2024-11-05T14:32:24.999Z</time>
      </trkpt>
      <trkpt lat="44.50072" lon="3.29929">
        <ele>807.6</ele>
        <time>2024-11-05T14:32:34.591Z</time>
      </trkpt>
      <trkpt lat="44.50067" lon="3.29932">
        <ele>807.63</ele>
        <time>2024-11-05T14:32:44.184Z</time>
      </trkpt>
      <trkpt lat="44.50061" lon="3.29937">
        <ele>807.64</ele>
        <time>2024-11-05T14:32:53.778Z</time>
      </trkpt>
      <trkpt lat="44.50059" lon="3.29938">
        <ele>807.64</ele>
        <time>2024-11-05T14:33:03.372Z</time>
      </trkpt>
      <trkpt lat="44.50055" lon="3.2994">
        <ele>807.62</ele>
        <time>2024-11-05T14:33:12.967Z</time>
      </trkpt>
      <trkpt lat="44.50051" lon="3.29942">
        <ele>807.6</ele>
        <time>2024-11-05T14:33:22.563Z</time>
      </trkpt>
      <trkpt lat="44.50048" lon="3.29943">
        <ele>807.56</ele>
        <time>2024-11-05T14:33:32.159Z</time>
      </trkpt>
      <trkpt lat="44.50046" lon="3.29943">
        <ele>807.51</ele>
        <time>2024-11-05T14:33:41.756Z</time>
      </trkpt>
      <trkpt lat="44.50042" lon="3.29944">
        <ele>807.45</ele>
        <time>2024-11-05T14:33:51.353Z</time>
      </trkpt>
      <trkpt lat="44.50038" lon="3.29945">
        <ele>807.37</ele>
        <time>2024-11-05T14:34:00.951Z</time>
      </trkpt>
      <trkpt lat="44.50034" lon="3.29945">
        <ele>807.28</ele>
        <time>2024-11-05T14:34:10.550Z</time>
      </trkpt>
      <trkpt lat="44.50033" lon="3.29944">
        <ele>807.18</ele>
        <time>2024-11-05T14:34:20.149Z</time>
      </trkpt>
      <trkpt lat="44.50029" lon="3.29942">
        <ele>807.06</ele>
        <time>2024-11-05T14:34:29.748Z</time>
      </trkpt>
      <trkpt lat="44.50025" lon="3.29939">
        <ele>806.92</ele>
        <time>2024-11-05T14:34:39.348Z</time>
      </trkpt>
      <trkpt lat="44.50021" lon="3.29936">
        <ele>806.79</ele>
        <time>2024-11-05T14:34:48.949Z</time>
      </trkpt>
      <trkpt lat="44.50017" lon="3.29933">
        <ele>806.63</ele>
        <time>2024-11-05T14:34:58.551Z</time>
      </trkpt>
      <trkpt lat="44.50015" lon="3.29932">
        <ele>806.47</ele>
        <time>2024-11-05T14:35:08.153Z</time>
      </trkpt>
      <trkpt lat="44.50013" lon="3.2993">
        <ele>806.29</ele>
        <time>2024-11-05T14:35:17.755Z</time>
      </trkpt>
      <trkpt lat="44.5" lon="3.29912">
        <ele>806.08</ele>
        <time>2024-11-05T14:35:27.360Z</time>
      </trkpt>
      <trkpt lat="44.49997" lon="3.29908">
        <ele>805.88</ele>
        <time>2024-11-05T14:35:36.966Z</time>
      </trkpt>
      <trkpt lat="44.49994" lon="3.29904">
        <ele>805.66</ele>
        <time>2024-11-05T14:35:46.573Z</time>
      </trkpt>
      <trkpt lat="44.49991" lon="3.29899">
        <ele>805.43</ele>
        <time>2024-11-05T14:35:56.180Z</time>
      </trkpt>
      <trkpt lat="44.49987" lon="3.29895">
        <ele>805.19</ele>
        <time>2024-11-05T14:36:05.788Z</time>
      </trkpt>
      <trkpt lat="44.49984" lon="3.29891">
        <ele>804.94</ele>
        <time>2024-11-05T14:36:15.397Z</time>
      </trkpt>
      <trkpt lat="44.49981" lon="3.29887">
        <ele>804.68</ele>
        <time>2024-11-05T14:36:25.007Z</time>
      </trkpt>
      <trkpt lat="44.49978" lon="3.29882">
        <ele>804.41</ele>
        <time>2024-11-05T14:36:34.617Z</time>
      </trkpt>
      <trkpt lat="44.49974" lon="3.29878">
        <ele>804.12</ele>
        <time>2024-11-05T14:36:44.228Z</time>
      </trkpt>
      <trkpt lat="44.49971" lon="3.29873">
        <ele>803.82</ele>
        <time>2024-11-05T14:36:53.840Z</time>
      </trkpt>
      <trkpt lat="44.49968" lon="3.29869">
        <ele>803.51</ele>
        <time>2024-11-05T14:37:03.452Z</time>
      </trkpt>
      <trkpt lat="44.49961" lon="3.2986">
        <ele>803.18</ele>
        <time>2024-11-05T14:37:13.066Z</time>
      </trkpt>
      <trkpt lat="44.49952" lon="3.29847">
        <ele>802.85</ele>
        <time>2024-11-05T14:37:22.682Z</time>
      </trkpt>
      <trkpt lat="44.49948" lon="3.29843">
        <ele>802.53</ele>
        <time>2024-11-05T14:37:32.299Z</time>
      </trkpt>
      <trkpt lat="44.49946" lon="3.2984">
        <ele>802.2</ele>
        <time>2024-11-05T14:37:41.916Z</time>
      </trkpt>
      <trkpt lat="44.49945" lon="3.29839">
        <ele>801.87</ele>
        <time>2024-11-05T14:37:51.533Z</time>
      </trkpt>
      <trkpt lat="44.49941" lon="3.29838">
        <ele>801.53</ele>
        <time>2024-11-05T14:38:01.151Z</time>
      </trkpt>
      <trkpt lat="44.49936" lon="3.29836">
        <ele>801.18</ele>
        <time>2024-11-05T14:38:10.770Z</time>
      </trkpt>
      <trkpt lat="44.49932" lon="3.29834">
        <ele>800.83</ele>
        <time>2024-11-05T14:38:20.390Z</time>
      </trkpt>
      <trkpt lat="44.49928" lon="3.29832">
        <ele>800.47</ele>
        <time>2024-11-05T14:38:30.010Z</time>
      </trkpt>
      <trkpt lat="44.49923" lon="3.2983">
        <ele>800.11</ele>
        <time>2024-11-05T14:38:39.631Z</time>
      </trkpt>
      <trkpt lat="44.49915" lon="3.29826">
        <ele>799.74</ele>
        <time>2024-11-05T14:38:49.253Z</time>
      </trkpt>
      <trkpt lat="44.4991" lon="3.29824">
        <ele>799.37</ele>
        <time>2024-11-05T14:38:58.876Z</time>
      </trkpt>
      <trkpt lat="44.49906" lon="3.29822">
        <ele>799</ele>
        <time>2024-11-05T14:39:08.500Z</time>
      </trkpt>
      <trkpt lat="44.49898" lon="3.29817">
        <ele>798.62</ele>
        <time>2024-11-05T14:39:18.125Z</time>
      </trkpt>
      <trkpt lat="44.49882" lon="3.29807">
        <ele>798.23</ele>
        <time>2024-11-05T14:39:27.753Z</time>
      </trkpt>
      <trkpt lat="44.49879" lon="3.29806">
        <ele>797.87</ele>
        <time>2024-11-05T14:39:37.382Z</time>
      </trkpt>
      <trkpt lat="44.49874" lon="3.29801">
        <ele>797.51</ele>
        <time>2024-11-05T14:39:47.012Z</time>
      </trkpt>
      <trkpt lat="44.49867" lon="3.29793">
        <ele>797.15</ele>
        <time>2024-11-05T14:39:56.643Z</time>
      </trkpt>
      <trkpt lat="44.49852" lon="3.29778">
        <ele>796.79</ele>
        <time>2024-11-05T14:40:06.277Z</time>
      </trkpt>
      <trkpt lat="44.49845" lon="3.29771">
        <ele>796.44</ele>
        <time>2024-11-05T14:40:15.912Z</time>
      </trkpt>
      <trkpt lat="44.49838" lon="3.29763">
        <ele>796.11</ele>
        <time>2024-11-05T14:40:25.549Z</time>
      </trkpt>
      <trkpt lat="44.49836" lon="3.29761">
        <ele>795.79</ele>
        <time>2024-11-05T14:40:35.186Z</time>
      </trkpt>
      <trkpt lat="44.49821" lon="3.29743">
        <ele>795.45</ele>
        <time>2024-11-05T14:40:44.826Z</time>
      </trkpt>
      <trkpt lat="44.49805" lon="3.29723">
        <ele>795.13</ele>
        <time>2024-11-05T14:40:54.470Z</time>
      </trkpt>
      <trkpt lat="44.49795" lon="3.29708">
        <ele>794.81</ele>
        <time>2024-11-05T14:41:04.116Z</time>
      </trkpt>
      <trkpt lat="44.49789" lon="3.297">
        <ele>794.51</ele>
        <time>2024-11-05T14:41:13.764Z</time>
      </trkpt>
      <trkpt lat="44.49786" lon="3.29694">
        <ele>794.22</ele>
        <time>2024-11-05T14:41:23.412Z</time>
      </trkpt>
      <trkpt lat="44.4977" lon="3.29662">
        <ele>793.89</ele>
        <time>2024-11-05T14:41:33.065Z</time>
      </trkpt>
      <trkpt lat="44.49761" lon="3.29649">
        <ele>793.63</ele>
        <time>2024-11-05T14:41:42.720Z</time>
      </trkpt>
      <trkpt lat="44.49755" lon="3.2964">
        <ele>793.39</ele>
        <time>2024-11-05T14:41:52.376Z</time>
      </trkpt>
      <trkpt lat="44.49752" lon="3.29636">
        <ele>793.16</ele>
        <time>2024-11-05T14:42:02.033Z</time>
      </trkpt>
      <trkpt lat="44.49749" lon="3.29631">
        <ele>792.95</ele>
        <time>2024-11-05T14:42:11.691Z</time>
      </trkpt>
      <trkpt lat="44.49743" lon="3.29623">
        <ele>792.74</ele>
        <time>2024-11-05T14:42:21.350Z</time>
      </trkpt>
      <trkpt lat="44.49743" lon="3.29622">
        <ele>792.54</ele>
        <time>2024-11-05T14:42:31.009Z</time>
      </trkpt>
      <trkpt lat="44.49737" lon="3.29612">
        <ele>792.36</ele>
        <time>2024-11-05T14:42:40.670Z</time>
      </trkpt>
      <trkpt lat="44.4973" lon="3.296">
        <ele>792.18</ele>
        <time>2024-11-05T14:42:50.332Z</time>
      </trkpt>
      <trkpt lat="44.49726" lon="3.29592">
        <ele>792.02</ele>
        <time>2024-11-05T14:42:59.995Z</time>
      </trkpt>
      <trkpt lat="44.49719" lon="3.29576">
        <ele>791.86</ele>
        <time>2024-11-05T14:43:09.661Z</time>
      </trkpt>
      <trkpt lat="44.49714" lon="3.29566">
        <ele>791.73</ele>
        <time>2024-11-05T14:43:19.328Z</time>
      </trkpt>
      <trkpt lat="44.49707" lon="3.2955">
        <ele>791.59</ele>
        <time>2024-11-05T14:43:28.997Z</time>
      </trkpt>
      <trkpt lat="44.49702" lon="3.2954">
        <ele>791.49</ele>
        <time>2024-11-05T14:43:38.668Z</time>
      </trkpt>
      <trkpt lat="44.49697" lon="3.29529">
        <ele>791.4</ele>
        <time>2024-11-05T14:43:48.340Z</time>
      </trkpt>
      <trkpt lat="44.49693" lon="3.29518">
        <ele>791.32</ele>
        <time>2024-11-05T14:43:58.014Z</time>
      </trkpt>
      <trkpt lat="44.49688" lon="3.29508">
        <ele>791.25</ele>
        <time>2024-11-05T14:44:07.689Z</time>
      </trkpt>
      <trkpt lat="44.49683" lon="3.29497">
        <ele>791.19</ele>
        <time>2024-11-05T14:44:17.365Z</time>
      </trkpt>
      <trkpt lat="44.4968" lon="3.29491">
        <ele>791.14</ele>
        <time>2024-11-05T14:44:27.042Z</time>
      </trkpt>
      <trkpt lat="44.49678" lon="3.29487">
        <ele>791.1</ele>
        <time>2024-11-05T14:44:36.720Z</time>
      </trkpt>
      <trkpt lat="44.49675" lon="3.29482">
        <ele>791.07</ele>
        <time>2024-11-05T14:44:46.399Z</time>
      </trkpt>
      <trkpt lat="44.49666" lon="3.29468">
        <ele>791.07</ele>
        <time>2024-11-05T14:44:56.080Z</time>
      </trkpt>
      <trkpt lat="44.49656" lon="3.2945">
        <ele>791.07</ele>
        <time>2024-11-05T14:45:05.763Z</time>
      </trkpt>
      <trkpt lat="44.49655" lon="3.29449">
        <ele>791.05</ele>
        <time>2024-11-05T14:45:15.447Z</time>
      </trkpt>
      <trkpt lat="44.49636" lon="3.29424">
        <ele>791.05</ele>
        <time>2024-11-05T14:45:25.135Z</time>
      </trkpt>
      <trkpt lat="44.49635" lon="3.29423">
        <ele>791.03</ele>
        <time>2024-11-05T14:45:34.823Z</time>
      </trkpt>
      <trkpt lat="44.49627" lon="3.29417">
        <ele>791.01</ele>
        <time>2024-11-05T14:45:44.512Z</time>
      </trkpt>
      <trkpt lat="44.49624" lon="3.29413">
        <ele>790.98</ele>
        <time>2024-11-05T14:45:54.202Z</time>
      </trkpt>
      <trkpt lat="44.49616" lon="3.29407">
        <ele>790.95</ele>
        <time>2024-11-05T14:46:03.893Z</time>
      </trkpt>
      <trkpt lat="44.49615" lon="3.29406">
        <ele>790.92</ele>
        <time>2024-11-05T14:46:13.585Z</time>
      </trkpt>
      <trkpt lat="44.49612" lon="3.29404">
        <ele>790.88</ele>
        <time>2024-11-05T14:46:23.277Z</time>
      </trkpt>
      <trkpt lat="44.49608" lon="3.29402">
        <ele>790.83</ele>
        <time>2024-11-05T14:46:32.970Z</time>
      </trkpt>
      <trkpt lat="44.49604" lon="3.294">
        <ele>790.76</ele>
        <time>2024-11-05T14:46:42.664Z</time>
      </trkpt>
      <trkpt lat="44.496" lon="3.29398">
        <ele>790.69</ele>
        <time>2024-11-05T14:46:52.358Z</time>
      </trkpt>
      <trkpt lat="44.49595" lon="3.29395">
        <ele>790.61</ele>
        <time>2024-11-05T14:47:02.053Z</time>
      </trkpt>
      <trkpt lat="44.49593" lon="3.29394">
        <ele>790.52</ele>
        <time>2024-11-05T14:47:11.748Z</time>
      </trkpt>
      <trkpt lat="44.49591" lon="3.29394">
        <ele>790.42</ele>
        <time>2024-11-05T14:47:21.444Z</time>
      </trkpt>
      <trkpt lat="44.49587" lon="3.29393">
        <ele>790.31</ele>
        <time>2024-11-05T14:47:31.140Z</time>
      </trkpt>
      <trkpt lat="44.49582" lon="3.29392">
        <ele>790.19</ele>
        <time>2024-11-05T14:47:40.837Z</time>
      </trkpt>
      <trkpt lat="44.49573" lon="3.2939">
        <ele>790.06</ele>
        <time>2024-11-05T14:47:50.536Z</time>
      </trkpt>
      <trkpt lat="44.49565" lon="3.29388">
        <ele>789.91</ele>
        <time>2024-11-05T14:48:00.236Z</time>
      </trkpt>
      <trkpt lat="44.49548" lon="3.29384">
        <ele>789.74</ele>
        <time>2024-11-05T14:48:09.939Z</time>
      </trkpt>
      <trkpt lat="44.49538" lon="3.29383">
        <ele>789.55</ele>
        <time>2024-11-05T14:48:19.643Z</time>
      </trkpt>
      <trkpt lat="44.49529" lon="3.29383">
        <ele>789.36</ele>
        <time>2024-11-05T14:48:29.349Z</time>
      </trkpt>
      <trkpt lat="44.49525" lon="3.29382">
        <ele>789.16</ele>
        <time>2024-11-05T14:48:39.055Z</time>
      </trkpt>
      <trkpt lat="44.49498" lon="3.2938">
        <ele>788.92</ele>
        <time>2024-11-05T14:48:48.766Z</time>
      </trkpt>
      <trkpt lat="44.49496" lon="3.2938">
        <ele>788.69</ele>
        <time>2024-11-05T14:48:58.477Z</time>
      </trkpt>
      <trkpt lat="44.49484" lon="3.2938">
        <ele>788.43</ele>
        <time>2024-11-05T14:49:08.190Z</time>
      </trkpt>
      <trkpt lat="44.49475" lon="3.2938">
        <ele>788.16</ele>
        <time>2024-11-05T14:49:17.904Z</time>
      </trkpt>
      <trkpt lat="44.49466" lon="3.29379">
        <ele>787.87</ele>
        <time>2024-11-05T14:49:27.620Z</time>
      </trkpt>
      <trkpt lat="44.49458" lon="3.29379">
        <ele>787.58</ele>
        <time>2024-11-05T14:49:37.337Z</time>
      </trkpt>
      <trkpt lat="44.49449" lon="3.29379">
        <ele>787.27</ele>
        <time>2024-11-05T14:49:47.056Z</time>
      </trkpt>
      <trkpt lat="44.49422" lon="3.29378">
        <ele>786.97</ele>
        <time>2024-11-05T14:49:56.779Z</time>
      </trkpt>
      <trkpt lat="44.49408" lon="3.29378">
        <ele>786.66</ele>
        <time>2024-11-05T14:50:06.504Z</time>
      </trkpt>
      <trkpt lat="44.49395" lon="3.29378">
        <ele>786.33</ele>
        <time>2024-11-05T14:50:16.231Z</time>
      </trkpt>
      <trkpt lat="44.49391" lon="3.29377">
        <ele>785.99</ele>
        <time>2024-11-05T14:50:25.959Z</time>
      </trkpt>
      <trkpt lat="44.49382" lon="3.29377">
        <ele>785.62</ele>
        <time>2024-11-05T14:50:35.688Z</time>
      </trkpt>
      <trkpt lat="44.49375" lon="3.29377">
        <ele>785.24</ele>
        <time>2024-11-05T14:50:45.418Z</time>
      </trkpt>
      <trkpt lat="44.49368" lon="3.2938">
        <ele>784.87</ele>
        <time>2024-11-05T14:50:55.149Z</time>
      </trkpt>
      <trkpt lat="44.49355" lon="3.29385">
        <ele>784.46</ele>
        <time>2024-11-05T14:51:04.883Z</time>
      </trkpt>
      <trkpt lat="44.49338" lon="3.29405">
        <ele>784.06</ele>
        <time>2024-11-05T14:51:14.620Z</time>
      </trkpt>
      <trkpt lat="44.49321" lon="3.29425">
        <ele>783.65</ele>
        <time>2024-11-05T14:51:24.361Z</time>
      </trkpt>
      <trkpt lat="44.49296" lon="3.2946">
        <ele>783.21</ele>
        <time>2024-11-05T14:51:34.108Z</time>
      </trkpt>
      <trkpt lat="44.4928" lon="3.29482">
        <ele>782.81</ele>
        <time>2024-11-05T14:51:43.858Z</time>
      </trkpt>
      <trkpt lat="44.49274" lon="3.29491">
        <ele>782.4</ele>
        <time>2024-11-05T14:51:53.610Z</time>
      </trkpt>
      <trkpt lat="44.49267" lon="3.295">
        <ele>782</ele>
        <time>2024-11-05T14:52:03.363Z</time>
      </trkpt>
      <trkpt lat="44.49261" lon="3.29509">
        <ele>781.61</ele>
        <time>2024-11-05T14:52:13.117Z</time>
      </trkpt>
      <trkpt lat="44.49258" lon="3.29513">
        <ele>781.25</ele>
        <time>2024-11-05T14:52:22.872Z</time>
      </trkpt>
      <trkpt lat="44.49251" lon="3.29522">
        <ele>780.89</ele>
        <time>2024-11-05T14:52:32.629Z</time>
      </trkpt>
      <trkpt lat="44.49242" lon="3.29535">
        <ele>780.55</ele>
        <time>2024-11-05T14:52:42.388Z</time>
      </trkpt>
      <trkpt lat="44.49235" lon="3.29545">
        <ele>780.23</ele>
        <time>2024-11-05T14:52:52.148Z</time>
      </trkpt>
      <trkpt lat="44.49229" lon="3.29552">
        <ele>779.92</ele>
        <time>2024-11-05T14:53:01.910Z</time>
      </trkpt>
      <trkpt lat="44.49222" lon="3.2956">
        <ele>779.6</ele>
        <time>2024-11-05T14:53:11.673Z</time>
      </trkpt>
      <trkpt lat="44.492" lon="3.29583">
        <ele>779.29</ele>
        <time>2024-11-05T14:53:21.440Z</time>
      </trkpt>
      <trkpt lat="44.49199" lon="3.29584">
        <ele>778.99</ele>
        <time>2024-11-05T14:53:31.208Z</time>
      </trkpt>
      <trkpt lat="44.49184" lon="3.29617">
        <ele>778.72</ele>
        <time>2024-11-05T14:53:40.980Z</time>
      </trkpt>
      <trkpt lat="44.49183" lon="3.29619">
        <ele>778.46</ele>
        <time>2024-11-05T14:53:50.752Z</time>
      </trkpt>
      <trkpt lat="44.49179" lon="3.2963">
        <ele>778.21</ele>
        <time>2024-11-05T14:54:00.526Z</time>
      </trkpt>
      <trkpt lat="44.49163" lon="3.29672">
        <ele>777.97</ele>
        <time>2024-11-05T14:54:10.305Z</time>
      </trkpt>
      <trkpt lat="44.49161" lon="3.29685">
        <ele>777.73</ele>
        <time>2024-11-05T14:54:20.086Z</time>
      </trkpt>
      <trkpt lat="44.49159" lon="3.29701">
        <ele>777.5</ele>
        <time>2024-11-05T14:54:29.869Z</time>
      </trkpt>
      <trkpt lat="44.49159" lon="3.29716">
        <ele>777.28</ele>
        <time>2024-11-05T14:54:39.653Z</time>
      </trkpt>
      <trkpt lat="44.49158" lon="3.29734">
        <ele>777.08</ele>
        <time>2024-11-05T14:54:49.439Z</time>
      </trkpt>
      <trkpt lat="44.49162" lon="3.29779">
        <ele>776.87</ele>
        <time>2024-11-05T14:54:59.231Z</time>
      </trkpt>
      <trkpt lat="44.49164" lon="3.29798">
        <ele>776.68</ele>
        <time>2024-11-05T14:55:09.025Z</time>
      </trkpt>
      <trkpt lat="44.49165" lon="3.2981">
        <ele>776.52</ele>
        <time>2024-11-05T14:55:18.820Z</time>
      </trkpt>
      <trkpt lat="44.49166" lon="3.29823">
        <ele>776.36</ele>
        <time>2024-11-05T14:55:28.617Z</time>
      </trkpt>
      <trkpt lat="44.49167" lon="3.29835">
        <ele>776.21</ele>
        <time>2024-11-05T14:55:38.415Z</time>
      </trkpt>
      <trkpt lat="44.49168" lon="3.29848">
        <ele>776.08</ele>
        <time>2024-11-05T14:55:48.215Z</time>
      </trkpt>
      <trkpt lat="44.49169" lon="3.2986">
        <ele>775.95</ele>
        <time>2024-11-05T14:55:58.016Z</time>
      </trkpt>
      <trkpt lat="44.4917" lon="3.29885">
        <ele>775.85</ele>
        <time>2024-11-05T14:56:07.820Z</time>
      </trkpt>
      <trkpt lat="44.49172" lon="3.29911">
        <ele>775.76</ele>
        <time>2024-11-05T14:56:17.627Z</time>
      </trkpt>
      <trkpt lat="44.49173" lon="3.29923">
        <ele>775.66</ele>
        <time>2024-11-05T14:56:27.435Z</time>
      </trkpt>
      <trkpt lat="44.49173" lon="3.29929">
        <ele>775.57</ele>
        <time>2024-11-05T14:56:37.244Z</time>
      </trkpt>
      <trkpt lat="44.49174" lon="3.29942">
        <ele>775.48</ele>
        <time>2024-11-05T14:56:47.054Z</time>
      </trkpt>
      <trkpt lat="44.49176" lon="3.29973">
        <ele>775.41</ele>
        <time>2024-11-05T14:56:56.868Z</time>
      </trkpt>
      <trkpt lat="44.49178" lon="3.30011">
        <ele>775.31</ele>
        <time>2024-11-05T14:57:06.686Z</time>
      </trkpt>
      <trkpt lat="44.49179" lon="3.30017">
        <ele>775.23</ele>
        <time>2024-11-05T14:57:16.505Z</time>
      </trkpt>
      <trkpt lat="44.49181" lon="3.30039">
        <ele>775.12</ele>
        <time>2024-11-05T14:57:26.326Z</time>
      </trkpt>
      <trkpt lat="44.49182" lon="3.30042">
        <ele>775.04</ele>
        <time>2024-11-05T14:57:36.148Z</time>
      </trkpt>
      <trkpt lat="44.49185" lon="3.30054">
        <ele>774.95</ele>
        <time>2024-11-05T14:57:45.971Z</time>
      </trkpt>
      <trkpt lat="44.49186" lon="3.30058">
        <ele>774.87</ele>
        <time>2024-11-05T14:57:55.795Z</time>
      </trkpt>
      <trkpt lat="44.49187" lon="3.30059">
        <ele>774.79</ele>
        <time>2024-11-05T14:58:05.619Z</time>
      </trkpt>
      <trkpt lat="44.49189" lon="3.30065">
        <ele>774.71</ele>
        <time>2024-11-05T14:58:15.444Z</time>
      </trkpt>
      <trkpt lat="44.49195" lon="3.30075">
        <ele>774.63</ele>
        <time>2024-11-05T14:58:25.270Z</time>
      </trkpt>
      <trkpt lat="44.49197" lon="3.3008">
        <ele>774.54</ele>
        <time>2024-11-05T14:58:35.097Z</time>
      </trkpt>
      <trkpt lat="44.49209" lon="3.30099">
        <ele>774.48</ele>
        <time>2024-11-05T14:58:44.927Z</time>
      </trkpt>
      <trkpt lat="44.4922" lon="3.30117">
        <ele>774.41</ele>
        <time>2024-11-05T14:58:54.760Z</time>
      </trkpt>
      <trkpt lat="44.49224" lon="3.3013">
        <ele>774.31</ele>
        <time>2024-11-05T14:59:04.594Z</time>
      </trkpt>
      <trkpt lat="44.49225" lon="3.30133">
        <ele>774.19</ele>
        <time>2024-11-05T14:59:14.429Z</time>
      </trkpt>
      <trkpt lat="44.49227" lon="3.3015">
        <ele>774.07</ele>
        <time>2024-11-05T14:59:24.265Z</time>
      </trkpt>
      <trkpt lat="44.49226" lon="3.30171">
        <ele>773.9</ele>
        <time>2024-11-05T14:59:34.104Z</time>
      </trkpt>
      <trkpt lat="44.49221" lon="3.30184">
        <ele>773.7</ele>
        <time>2024-11-05T14:59:43.945Z</time>
      </trkpt>
      <trkpt lat="44.49217" lon="3.30196">
        <ele>773.49</ele>
        <time>2024-11-05T14:59:53.787Z</time>
      </trkpt>
      <trkpt lat="44.49212" lon="3.3021">
        <ele>773.25</ele>
        <time>2024-11-05T15:00:03.631Z</time>
      </trkpt>
      <trkpt lat="44.4921" lon="3.30219">
        <ele>773.06</ele>
        <time>2024-11-05T15:00:13.476Z</time>
      </trkpt>
      <trkpt lat="44.49208" lon="3.30229">
        <ele>772.85</ele>
        <time>2024-11-05T15:00:23.322Z</time>
      </trkpt>
      <trkpt lat="44.49208" lon="3.30237">
        <ele>772.65</ele>
        <time>2024-11-05T15:00:33.169Z</time>
      </trkpt>
      <trkpt lat="44.49209" lon="3.30275">
        <ele>772.47</ele>
        <time>2024-11-05T15:00:43.020Z</time>
      </trkpt>
      <trkpt lat="44.49209" lon="3.303">
        <ele>772.26</ele>
        <time>2024-11-05T15:00:52.874Z</time>
      </trkpt>
      <trkpt lat="44.4921" lon="3.30307">
        <ele>772.01</ele>
        <time>2024-11-05T15:01:02.729Z</time>
      </trkpt>
      <trkpt lat="44.4921" lon="3.30332">
        <ele>771.73</ele>
        <time>2024-11-05T15:01:12.587Z</time>
      </trkpt>
      <trkpt lat="44.49208" lon="3.30361">
        <ele>771.44</ele>
        <time>2024-11-05T15:01:22.448Z</time>
      </trkpt>
      <trkpt lat="44.49208" lon="3.30363">
        <ele>771.16</ele>
        <time>2024-11-05T15:01:32.310Z</time>
      </trkpt>
      <trkpt lat="44.49205" lon="3.30375">
        <ele>770.84</ele>
        <time>2024-11-05T15:01:42.173Z</time>
      </trkpt>
      <trkpt lat="44.49199" lon="3.30399">
        <ele>770.49</ele>
        <time>2024-11-05T15:01:52.039Z</time>
      </trkpt>
      <trkpt lat="44.49197" lon="3.30407">
        <ele>770.16</ele>
        <time>2024-11-05T15:02:01.906Z</time>
      </trkpt>
      <trkpt lat="44.49197" lon="3.30411">
        <ele>769.83</ele>
        <time>2024-11-05T15:02:11.773Z</time>
      </trkpt>
      <trkpt lat="44.49197" lon="3.30424">
        <ele>769.48</ele>
        <time>2024-11-05T15:02:21.642Z</time>
      </trkpt>
      <trkpt lat="44.49196" lon="3.30442">
        <ele>769.12</ele>
        <time>2024-11-05T15:02:31.513Z</time>
      </trkpt>
      <trkpt lat="44.49196" lon="3.30451">
        <ele>768.75</ele>
        <time>2024-11-05T15:02:41.385Z</time>
      </trkpt>
      <trkpt lat="44.49199" lon="3.3048">
        <ele>768.36</ele>
        <time>2024-11-05T15:02:51.260Z</time>
      </trkpt>
      <trkpt lat="44.492" lon="3.30493">
        <ele>767.95</ele>
        <time>2024-11-05T15:03:01.137Z</time>
      </trkpt>
      <trkpt lat="44.492" lon="3.30496">
        <ele>767.54</ele>
        <time>2024-11-05T15:03:11.014Z</time>
      </trkpt>
      <trkpt lat="44.49195" lon="3.30536">
        <ele>767.06</ele>
        <time>2024-11-05T15:03:20.896Z</time>
      </trkpt>
      <trkpt lat="44.49193" lon="3.30549">
        <ele>766.64</ele>
        <time>2024-11-05T15:03:30.779Z</time>
      </trkpt>
      <trkpt lat="44.49192" lon="3.30561">
        <ele>766.18</ele>
        <time>2024-11-05T15:03:40.664Z</time>
      </trkpt>
      <trkpt lat="44.49192" lon="3.30567">
        <ele>765.71</ele>
        <time>2024-11-05T15:03:50.549Z</time>
      </trkpt>
      <trkpt lat="44.49191" lon="3.3058">
        <ele>765.23</ele>
        <time>2024-11-05T15:04:00.436Z</time>
      </trkpt>
      <trkpt lat="44.49191" lon="3.30586">
        <ele>764.75</ele>
        <time>2024-11-05T15:04:10.323Z</time>
      </trkpt>
      <trkpt lat="44.4919" lon="3.30592">
        <ele>764.25</ele>
        <time>2024-11-05T15:04:20.211Z</time>
      </trkpt>
      <trkpt lat="44.4919" lon="3.30599">
        <ele>763.74</ele>
        <time>2024-11-05T15:04:30.100Z</time>
      </trkpt>
      <trkpt lat="44.4919" lon="3.30605">
        <ele>763.23</ele>
        <time>2024-11-05T15:04:39.990Z</time>
      </trkpt>
      <trkpt lat="44.49191" lon="3.30617">
        <ele>762.7</ele>
        <time>2024-11-05T15:04:49.881Z</time>
      </trkpt>
      <trkpt lat="44.49193" lon="3.30642">
        <ele>762.15</ele>
        <time>2024-11-05T15:04:59.775Z</time>
      </trkpt>
      <trkpt lat="44.49194" lon="3.30649">
        <ele>761.61</ele>
        <time>2024-11-05T15:05:09.670Z</time>
      </trkpt>
      <trkpt lat="44.49194" lon="3.30655">
        <ele>761.05</ele>
        <time>2024-11-05T15:05:19.565Z</time>
      </trkpt>
      <trkpt lat="44.49195" lon="3.30668">
        <ele>760.48</ele>
        <time>2024-11-05T15:05:29.462Z</time>
      </trkpt>
      <trkpt lat="44.49188" lon="3.30679">
        <ele>759.84</ele>
        <time>2024-11-05T15:05:39.361Z</time>
      </trkpt>
      <trkpt lat="44.49186" lon="3.30679">
        <ele>759.25</ele>
        <time>2024-11-05T15:05:49.260Z</time>
      </trkpt>
      <trkpt lat="44.49182" lon="3.30678">
        <ele>758.64</ele>
        <time>2024-11-05T15:05:59.160Z</time>
      </trkpt>
      <trkpt lat="44.49179" lon="3.30672">
        <ele>758.04</ele>
        <time>2024-11-05T15:06:09.060Z</time>
      </trkpt>
      <trkpt lat="44.49176" lon="3.30666">
        <ele>757.44</ele>
        <time>2024-11-05T15:06:18.961Z</time>
      </trkpt>
      <trkpt lat="44.49175" lon="3.30661">
        <ele>756.83</ele>
        <time>2024-11-05T15:06:28.863Z</time>
      </trkpt>
      <trkpt lat="44.49173" lon="3.30655">
        <ele>756.22</ele>
        <time>2024-11-05T15:06:38.766Z</time>
      </trkpt>
      <trkpt lat="44.4917" lon="3.30644">
        <ele>755.59</ele>
        <time>2024-11-05T15:06:48.670Z</time>
      </trkpt>
      <trkpt lat="44.49168" lon="3.30638">
        <ele>754.97</ele>
        <time>2024-11-05T15:06:58.575Z</time>
      </trkpt>
      <trkpt lat="44.49165" lon="3.30626">
        <ele>754.33</ele>
        <time>2024-11-05T15:07:08.481Z</time>
      </trkpt>
      <trkpt lat="44.49162" lon="3.30614">
        <ele>753.69</ele>
        <time>2024-11-05T15:07:18.389Z</time>
      </trkpt>
      <trkpt lat="44.49152" lon="3.30602">
        <ele>753</ele>
        <time>2024-11-05T15:07:28.299Z</time>
      </trkpt>
      <trkpt lat="44.49122" lon="3.30565">
        <ele>752.24</ele>
        <time>2024-11-05T15:07:38.215Z</time>
      </trkpt>
      <trkpt lat="44.49119" lon="3.30562">
        <ele>751.59</ele>
        <time>2024-11-05T15:07:48.132Z</time>
      </trkpt>
      <trkpt lat="44.49116" lon="3.30556">
        <ele>750.94</ele>
        <time>2024-11-05T15:07:58.050Z</time>
      </trkpt>
      <trkpt lat="44.49102" lon="3.30531">
        <ele>750.24</ele>
        <time>2024-11-05T15:08:07.971Z</time>
      </trkpt>
      <trkpt lat="44.491" lon="3.30526">
        <ele>749.59</ele>
        <time>2024-11-05T15:08:17.893Z</time>
      </trkpt>
      <trkpt lat="44.49094" lon="3.30516">
        <ele>748.94</ele>
        <time>2024-11-05T15:08:27.816Z</time>
      </trkpt>
      <trkpt lat="44.49086" lon="3.30501">
        <ele>748.29</ele>
        <time>2024-11-05T15:08:37.741Z</time>
      </trkpt>
      <trkpt lat="44.49078" lon="3.30486">
        <ele>747.63</ele>
        <time>2024-11-05T15:08:47.669Z</time>
      </trkpt>
      <trkpt lat="44.49076" lon="3.30482">
        <ele>747</ele>
        <time>2024-11-05T15:08:57.597Z</time>
      </trkpt>
      <trkpt lat="44.49057" lon="3.30438">
        <ele>746.31</ele>
        <time>2024-11-05T15:09:07.531Z</time>
      </trkpt>
      <trkpt lat="44.49052" lon="3.30428">
        <ele>745.66</ele>
        <time>2024-11-05T15:09:17.466Z</time>
      </trkpt>
      <trkpt lat="44.49048" lon="3.30417">
        <ele>745.02</ele>
        <time>2024-11-05T15:09:27.403Z</time>
      </trkpt>
      <trkpt lat="44.49047" lon="3.30415">
        <ele>744.4</ele>
        <time>2024-11-05T15:09:37.340Z</time>
      </trkpt>
      <trkpt lat="44.49032" lon="3.30387">
        <ele>743.67</ele>
        <time>2024-11-05T15:09:47.281Z</time>
      </trkpt>
      <trkpt lat="44.4903" lon="3.30383">
        <ele>743.05</ele>
        <time>2024-11-05T15:09:57.223Z</time>
      </trkpt>
      <trkpt lat="44.49026" lon="3.3037">
        <ele>742.41</ele>
        <time>2024-11-05T15:10:07.166Z</time>
      </trkpt>
      <trkpt lat="44.49023" lon="3.30362">
        <ele>741.79</ele>
        <time>2024-11-05T15:10:17.110Z</time>
      </trkpt>
      <trkpt lat="44.49023" lon="3.30359">
        <ele>741.2</ele>
        <time>2024-11-05T15:10:27.055Z</time>
      </trkpt>
      <trkpt lat="44.49022" lon="3.3034">
        <ele>740.61</ele>
        <time>2024-11-05T15:10:37.002Z</time>
      </trkpt>
      <trkpt lat="44.49024" lon="3.30334">
        <ele>740.04</ele>
        <time>2024-11-05T15:10:46.950Z</time>
      </trkpt>
      <trkpt lat="44.49026" lon="3.30322">
        <ele>739.48</ele>
        <time>2024-11-05T15:10:56.899Z</time>
      </trkpt>
      <trkpt lat="44.49028" lon="3.30316">
        <ele>738.89</ele>
        <time>2024-11-05T15:11:06.849Z</time>
      </trkpt>
      <trkpt lat="44.49029" lon="3.3031">
        <ele>738.31</ele>
        <time>2024-11-05T15:11:16.800Z</time>
      </trkpt>
      <trkpt lat="44.49032" lon="3.30299">
        <ele>737.72</ele>
        <time>2024-11-05T15:11:26.752Z</time>
      </trkpt>
      <trkpt lat="44.49035" lon="3.30287">
        <ele>737.13</ele>
        <time>2024-11-05T15:11:36.705Z</time>
      </trkpt>
      <trkpt lat="44.49038" lon="3.30275">
        <ele>736.54</ele>
        <time>2024-11-05T15:11:46.660Z</time>
      </trkpt>
      <trkpt lat="44.49042" lon="3.30259">
        <ele>735.93</ele>
        <time>2024-11-05T15:11:56.617Z</time>
      </trkpt>
      <trkpt lat="44.49046" lon="3.30226">
        <ele>735.24</ele>
        <time>2024-11-05T15:12:06.578Z</time>
      </trkpt>
      <trkpt lat="44.49047" lon="3.30216">
        <ele>734.61</ele>
        <time>2024-11-05T15:12:16.540Z</time>
      </trkpt>
      <trkpt lat="44.49047" lon="3.30201">
        <ele>733.99</ele>
        <time>2024-11-05T15:12:26.503Z</time>
      </trkpt>
      <trkpt lat="44.49047" lon="3.30195">
        <ele>733.37</ele>
        <time>2024-11-05T15:12:36.467Z</time>
      </trkpt>
      <trkpt lat="44.49046" lon="3.30189">
        <ele>732.74</ele>
        <time>2024-11-05T15:12:46.432Z</time>
      </trkpt>
      <trkpt lat="44.49046" lon="3.30183">
        <ele>732.1</ele>
        <time>2024-11-05T15:12:56.398Z</time>
      </trkpt>
      <trkpt lat="44.49046" lon="3.30177">
        <ele>731.46</ele>
        <time>2024-11-05T15:13:06.364Z</time>
      </trkpt>
      <trkpt lat="44.49046" lon="3.30172">
        <ele>730.81</ele>
        <time>2024-11-05T15:13:16.331Z</time>
      </trkpt>
      <trkpt lat="44.49044" lon="3.30164">
        <ele>730.14</ele>
        <time>2024-11-05T15:13:26.299Z</time>
      </trkpt>
      <trkpt lat="44.49043" lon="3.30161">
        <ele>729.46</ele>
        <time>2024-11-05T15:13:36.267Z</time>
      </trkpt>
      <trkpt lat="44.49036" lon="3.30157">
        <ele>728.75</ele>
        <time>2024-11-05T15:13:46.236Z</time>
      </trkpt>
      <trkpt lat="44.4903" lon="3.30165">
        <ele>728.02</ele>
        <time>2024-11-05T15:13:56.207Z</time>
      </trkpt>
      <trkpt lat="44.49029" lon="3.3017">
        <ele>727.31</ele>
        <time>2024-11-05T15:14:06.178Z</time>
      </trkpt>
      <trkpt lat="44.49027" lon="3.30182">
        <ele>726.58</ele>
        <time>2024-11-05T15:14:16.151Z</time>
      </trkpt>
      <trkpt lat="44.49025" lon="3.30194">
        <ele>725.83</ele>
        <time>2024-11-05T15:14:26.125Z</time>
      </trkpt>
      <trkpt lat="44.49024" lon="3.30199">
        <ele>725.09</ele>
        <time>2024-11-05T15:14:36.100Z</time>
      </trkpt>
      <trkpt lat="44.49013" lon="3.30215">
        <ele>724.27</ele>
        <time>2024-11-05T15:14:46.077Z</time>
      </trkpt>
      <trkpt lat="44.49011" lon="3.30217">
        <ele>723.5</ele>
        <time>2024-11-05T15:14:56.055Z</time>
      </trkpt>
      <trkpt lat="44.48988" lon="3.30237">
        <ele>722.63</ele>
        <time>2024-11-05T15:15:06.037Z</time>
      </trkpt>
      <trkpt lat="44.48981" lon="3.30244">
        <ele>721.83</ele>
        <time>2024-11-05T15:15:16.020Z</time>
      </trkpt>
      <trkpt lat="44.48966" lon="3.30257">
        <ele>720.96</ele>
        <time>2024-11-05T15:15:26.006Z</time>
      </trkpt>
      <trkpt lat="44.48953" lon="3.30275">
        <ele>720.14</ele>
        <time>2024-11-05T15:15:35.995Z</time>
      </trkpt>
      <trkpt lat="44.4894" lon="3.30292">
        <ele>719.34</ele>
        <time>2024-11-05T15:15:45.987Z</time>
      </trkpt>
      <trkpt lat="44.48933" lon="3.30301">
        <ele>718.54</ele>
        <time>2024-11-05T15:15:55.980Z</time>
      </trkpt>
      <trkpt lat="44.48922" lon="3.30311">
        <ele>717.7</ele>
        <time>2024-11-05T15:16:05.975Z</time>
      </trkpt>
      <trkpt lat="44.48915" lon="3.30317">
        <ele>716.89</ele>
        <time>2024-11-05T15:16:15.972Z</time>
      </trkpt>
      <trkpt lat="44.48903" lon="3.30328">
        <ele>716.05</ele>
        <time>2024-11-05T15:16:25.971Z</time>
      </trkpt>
      <trkpt lat="44.48895" lon="3.30337">
        <ele>715.22</ele>
        <time>2024-11-05T15:16:35.972Z</time>
      </trkpt>
      <trkpt lat="44.48894" lon="3.3034">
        <ele>714.46</ele>
        <time>2024-11-05T15:16:45.973Z</time>
      </trkpt>
      <trkpt lat="44.48891" lon="3.30351">
        <ele>713.7</ele>
        <time>2024-11-05T15:16:55.976Z</time>
      </trkpt>
      <trkpt lat="44.48893" lon="3.30368">
        <ele>712.97</ele>
        <time>2024-11-05T15:17:05.980Z</time>
      </trkpt>
      <trkpt lat="44.48894" lon="3.3037">
        <ele>712.24</ele>
        <time>2024-11-05T15:17:15.985Z</time>
      </trkpt>
      <trkpt lat="44.48904" lon="3.30397">
        <ele>711.55</ele>
        <time>2024-11-05T15:17:25.993Z</time>
      </trkpt>
      <trkpt lat="44.48914" lon="3.30425">
        <ele>710.85</ele>
        <time>2024-11-05T15:17:36.005Z</time>
      </trkpt>
      <trkpt lat="44.48916" lon="3.30431">
        <ele>710.14</ele>
        <time>2024-11-05T15:17:46.018Z</time>
      </trkpt>
      <trkpt lat="44.48922" lon="3.30462">
        <ele>709.39</ele>
        <time>2024-11-05T15:17:56.034Z</time>
      </trkpt>
      <trkpt lat="44.48924" lon="3.30479">
        <ele>708.66</ele>
        <time>2024-11-05T15:18:06.052Z</time>
      </trkpt>
      <trkpt lat="44.48925" lon="3.30496">
        <ele>707.95</ele>
        <time>2024-11-05T15:18:16.072Z</time>
      </trkpt>
      <trkpt lat="44.48925" lon="3.30497">
        <ele>707.28</ele>
        <time>2024-11-05T15:18:26.092Z</time>
      </trkpt>
      <trkpt lat="44.48923" lon="3.30553">
        <ele>706.49</ele>
        <time>2024-11-05T15:18:36.119Z</time>
      </trkpt>
      <trkpt lat="44.48922" lon="3.30575">
        <ele>705.82</ele>
        <time>2024-11-05T15:18:46.148Z</time>
      </trkpt>
      <trkpt lat="44.48922" lon="3.30578">
        <ele>705.17</ele>
        <time>2024-11-05T15:18:56.178Z</time>
      </trkpt>
      <trkpt lat="44.48922" lon="3.3059">
        <ele>704.52</ele>
        <time>2024-11-05T15:19:06.209Z</time>
      </trkpt>
      <trkpt lat="44.48923" lon="3.30602">
        <ele>703.87</ele>
        <time>2024-11-05T15:19:16.241Z</time>
      </trkpt>
      <trkpt lat="44.48923" lon="3.30615">
        <ele>703.24</ele>
        <time>2024-11-05T15:19:26.275Z</time>
      </trkpt>
      <trkpt lat="44.48924" lon="3.30646">
        <ele>702.59</ele>
        <time>2024-11-05T15:19:36.312Z</time>
      </trkpt>
      <trkpt lat="44.48925" lon="3.30671">
        <ele>701.95</ele>
        <time>2024-11-05T15:19:46.352Z</time>
      </trkpt>
      <trkpt lat="44.48925" lon="3.30686">
        <ele>701.31</ele>
        <time>2024-11-05T15:19:56.394Z</time>
      </trkpt>
      <trkpt lat="44.48926" lon="3.30695">
        <ele>700.7</ele>
        <time>2024-11-05T15:20:06.437Z</time>
      </trkpt>
      <trkpt lat="44.48927" lon="3.30708">
        <ele>700.09</ele>
        <time>2024-11-05T15:20:16.481Z</time>
      </trkpt>
      <trkpt lat="44.48928" lon="3.30713">
        <ele>699.5</ele>
        <time>2024-11-05T15:20:26.526Z</time>
      </trkpt>
      <trkpt lat="44.48928" lon="3.30714">
        <ele>698.91</ele>
        <time>2024-11-05T15:20:36.571Z</time>
      </trkpt>
      <trkpt lat="44.48931" lon="3.30719">
        <ele>698.32</ele>
        <time>2024-11-05T15:20:46.617Z</time>
      </trkpt>
      <trkpt lat="44.48933" lon="3.30724">
        <ele>697.73</ele>
        <time>2024-11-05T15:20:56.664Z</time>
      </trkpt>
      <trkpt lat="44.48935" lon="3.3073">
        <ele>697.14</ele>
        <time>2024-11-05T15:21:06.711Z</time>
      </trkpt>
      <trkpt lat="44.48938" lon="3.30735">
        <ele>696.54</ele>
        <time>2024-11-05T15:21:16.759Z</time>
      </trkpt>
      <trkpt lat="44.48939" lon="3.30738">
        <ele>695.95</ele>
        <time>2024-11-05T15:21:26.807Z</time>
      </trkpt>
      <trkpt lat="44.48939" lon="3.30741">
        <ele>695.35</ele>
        <time>2024-11-05T15:21:36.856Z</time>
      </trkpt>
      <trkpt lat="44.4894" lon="3.30747">
        <ele>694.75</ele>
        <time>2024-11-05T15:21:46.905Z</time>
      </trkpt>
      <trkpt lat="44.4894" lon="3.30749">
        <ele>694.14</ele>
        <time>2024-11-05T15:21:56.955Z</time>
      </trkpt>
      <trkpt lat="44.48937" lon="3.30757">
        <ele>693.51</ele>
        <time>2024-11-05T15:22:07.006Z</time>
      </trkpt>
      <trkpt lat="44.48932" lon="3.30757">
        <ele>692.88</ele>
        <time>2024-11-05T15:22:17.058Z</time>
      </trkpt>
      <trkpt lat="44.48927" lon="3.30758">
        <ele>692.24</ele>
        <time>2024-11-05T15:22:27.110Z</time>
      </trkpt>
      <trkpt lat="44.48925" lon="3.30758">
        <ele>691.61</ele>
        <time>2024-11-05T15:22:37.163Z</time>
      </trkpt>
      <trkpt lat="44.48923" lon="3.30757">
        <ele>690.97</ele>
        <time>2024-11-05T15:22:47.216Z</time>
      </trkpt>
      <trkpt lat="44.48915" lon="3.30752">
        <ele>690.31</ele>
        <time>2024-11-05T15:22:57.270Z</time>
      </trkpt>
      <trkpt lat="44.4889" lon="3.30739">
        <ele>689.59</ele>
        <time>2024-11-05T15:23:07.329Z</time>
      </trkpt>
      <trkpt lat="44.48869" lon="3.30727">
        <ele>688.87</ele>
        <time>2024-11-05T15:23:17.391Z</time>
      </trkpt>
      <trkpt lat="44.48857" lon="3.3072">
        <ele>688.16</ele>
        <time>2024-11-05T15:23:27.455Z</time>
      </trkpt>
      <trkpt lat="44.48848" lon="3.30716">
        <ele>687.46</ele>
        <time>2024-11-05T15:23:37.521Z</time>
      </trkpt>
      <trkpt lat="44.48832" lon="3.30707">
        <ele>686.72</ele>
        <time>2024-11-05T15:23:47.590Z</time>
      </trkpt>
      <trkpt lat="44.48822" lon="3.30701">
        <ele>686.01</ele>
        <time>2024-11-05T15:23:57.660Z</time>
      </trkpt>
      <trkpt lat="44.48807" lon="3.30693">
        <ele>685.28</ele>
        <time>2024-11-05T15:24:07.733Z</time>
      </trkpt>
      <trkpt lat="44.48799" lon="3.30688">
        <ele>684.56</ele>
        <time>2024-11-05T15:24:17.807Z</time>
      </trkpt>
      <trkpt lat="44.48782" lon="3.30679">
        <ele>683.81</ele>
        <time>2024-11-05T15:24:27.884Z</time>
      </trkpt>
      <trkpt lat="44.48749" lon="3.3066">
        <ele>683</ele>
        <time>2024-11-05T15:24:37.967Z</time>
      </trkpt>
      <trkpt lat="44.48737" lon="3.30653">
        <ele>682.23</ele>
        <time>2024-11-05T15:24:48.052Z</time>
      </trkpt>
      <trkpt lat="44.48725" lon="3.30646">
        <ele>681.46</ele>
        <time>2024-11-05T15:24:58.139Z</time>
      </trkpt>
      <trkpt lat="44.48708" lon="3.30637">
        <ele>680.67</ele>
        <time>2024-11-05T15:25:08.229Z</time>
      </trkpt>
      <trkpt lat="44.48698" lon="3.30631">
        <ele>679.88</ele>
        <time>2024-11-05T15:25:18.321Z</time>
      </trkpt>
      <trkpt lat="44.48676" lon="3.30615">
        <ele>679.08</ele>
        <time>2024-11-05T15:25:28.417Z</time>
      </trkpt>
      <trkpt lat="44.48665" lon="3.30605">
        <ele>678.28</ele>
        <time>2024-11-05T15:25:38.515Z</time>
      </trkpt>
      <trkpt lat="44.48643" lon="3.30587">
        <ele>677.47</ele>
        <time>2024-11-05T15:25:48.617Z</time>
      </trkpt>
      <trkpt lat="44.48635" lon="3.30578">
        <ele>676.66</ele>
        <time>2024-11-05T15:25:58.721Z</time>
      </trkpt>
      <trkpt lat="44.48614" lon="3.30553">
        <ele>675.84</ele>
        <time>2024-11-05T15:26:08.829Z</time>
      </trkpt>
      <trkpt lat="44.48603" lon="3.3054">
        <ele>675.02</ele>
        <time>2024-11-05T15:26:18.939Z</time>
      </trkpt>
      <trkpt lat="44.48598" lon="3.30532">
        <ele>674.19</ele>
        <time>2024-11-05T15:26:29.051Z</time>
      </trkpt>
      <trkpt lat="44.48592" lon="3.30523">
        <ele>673.36</ele>
        <time>2024-11-05T15:26:39.164Z</time>
      </trkpt>
      <trkpt lat="44.48586" lon="3.30514">
        <ele>672.52</ele>
        <time>2024-11-05T15:26:49.278Z</time>
      </trkpt>
      <trkpt lat="44.48578" lon="3.30501">
        <ele>671.67</ele>
        <time>2024-11-05T15:26:59.394Z</time>
      </trkpt>
      <trkpt lat="44.48568" lon="3.30471">
        <ele>670.74</ele>
        <time>2024-11-05T15:27:09.514Z</time>
      </trkpt>
      <trkpt lat="44.48562" lon="3.30454">
        <ele>669.81</ele>
        <time>2024-11-05T15:27:19.636Z</time>
      </trkpt>
      <trkpt lat="44.48556" lon="3.30437">
        <ele>668.87</ele>
        <time>2024-11-05T15:27:29.760Z</time>
      </trkpt>
      <trkpt lat="44.48551" lon="3.30424">
        <ele>667.93</ele>
        <time>2024-11-05T15:27:39.886Z</time>
      </trkpt>
      <trkpt lat="44.48549" lon="3.30421">
        <ele>667.06</ele>
        <time>2024-11-05T15:27:50.013Z</time>
      </trkpt>
      <trkpt lat="44.48543" lon="3.3041">
        <ele>666.16</ele>
        <time>2024-11-05T15:28:00.141Z</time>
      </trkpt>
      <trkpt lat="44.48533" lon="3.304">
        <ele>665.27</ele>
        <time>2024-11-05T15:28:10.271Z</time>
      </trkpt>
      <trkpt lat="44.48529" lon="3.30398">
        <ele>664.42</ele>
        <time>2024-11-05T15:28:20.402Z</time>
      </trkpt>
      <trkpt lat="44.4852" lon="3.30393">
        <ele>663.54</ele>
        <time>2024-11-05T15:28:30.534Z</time>
      </trkpt>
      <trkpt lat="44.48516" lon="3.30392">
        <ele>662.68</ele>
        <time>2024-11-05T15:28:40.667Z</time>
      </trkpt>
      <trkpt lat="44.48507" lon="3.30389">
        <ele>661.81</ele>
        <time>2024-11-05T15:28:50.802Z</time>
      </trkpt>
      <trkpt lat="44.48503" lon="3.30388">
        <ele>660.97</ele>
        <time>2024-11-05T15:29:00.937Z</time>
      </trkpt>
      <trkpt lat="44.48485" lon="3.30386">
        <ele>660.06</ele>
        <time>2024-11-05T15:29:11.075Z</time>
      </trkpt>
      <trkpt lat="44.48485" lon="3.30386">
        <ele>659.24</ele>
        <time>2024-11-05T15:29:21.213Z</time>
      </trkpt>
      <trkpt lat="44.48473" lon="3.30391">
        <ele>658.39</ele>
        <time>2024-11-05T15:29:31.353Z</time>
      </trkpt>
      <trkpt lat="44.48466" lon="3.30402">
        <ele>657.56</ele>
        <time>2024-11-05T15:29:41.495Z</time>
      </trkpt>
      <trkpt lat="44.48465" lon="3.30403">
        <ele>656.76</ele>
        <time>2024-11-05T15:29:51.637Z</time>
      </trkpt>
      <trkpt lat="44.48456" lon="3.30437">
        <ele>656.01</ele>
        <time>2024-11-05T15:30:01.783Z</time>
      </trkpt>
      <trkpt lat="44.48456" lon="3.30438">
        <ele>655.23</ele>
        <time>2024-11-05T15:30:11.929Z</time>
      </trkpt>
      <trkpt lat="44.48455" lon="3.30449">
        <ele>654.48</ele>
        <time>2024-11-05T15:30:22.076Z</time>
      </trkpt>
      <trkpt lat="44.48451" lon="3.30474">
        <ele>653.67</ele>
        <time>2024-11-05T15:30:32.226Z</time>
      </trkpt>
      <trkpt lat="44.48449" lon="3.30492">
        <ele>652.85</ele>
        <time>2024-11-05T15:30:42.379Z</time>
      </trkpt>
      <trkpt lat="44.48446" lon="3.30511">
        <ele>652.1</ele>
        <time>2024-11-05T15:30:52.534Z</time>
      </trkpt>
      <trkpt lat="44.48444" lon="3.30529">
        <ele>651.37</ele>
        <time>2024-11-05T15:31:02.691Z</time>
      </trkpt>
      <trkpt lat="44.48442" lon="3.30542">
        <ele>650.68</ele>
        <time>2024-11-05T15:31:12.849Z</time>
      </trkpt>
      <trkpt lat="44.48442" lon="3.30548">
        <ele>649.99</ele>
        <time>2024-11-05T15:31:23.008Z</time>
      </trkpt>
      <trkpt lat="44.48441" lon="3.30605">
        <ele>649.27</ele>
        <time>2024-11-05T15:31:33.174Z</time>
      </trkpt>
      <trkpt lat="44.48441" lon="3.3063">
        <ele>648.53</ele>
        <time>2024-11-05T15:31:43.342Z</time>
      </trkpt>
      <trkpt lat="44.4844" lon="3.30671">
        <ele>647.75</ele>
        <time>2024-11-05T15:31:53.515Z</time>
      </trkpt>
      <trkpt lat="44.4844" lon="3.30706">
        <ele>647.03</ele>
        <time>2024-11-05T15:32:03.692Z</time>
      </trkpt>
      <trkpt lat="44.4844" lon="3.30724">
        <ele>646.37</ele>
        <time>2024-11-05T15:32:13.871Z</time>
      </trkpt>
      <trkpt lat="44.48441" lon="3.30781">
        <ele>645.74</ele>
        <time>2024-11-05T15:32:24.057Z</time>
      </trkpt>
      <trkpt lat="44.48441" lon="3.30792">
        <ele>645.08</ele>
        <time>2024-11-05T15:32:34.244Z</time>
      </trkpt>
      <trkpt lat="44.48442" lon="3.30806">
        <ele>644.44</ele>
        <time>2024-11-05T15:32:44.433Z</time>
      </trkpt>
      <trkpt lat="44.48442" lon="3.30825">
        <ele>643.77</ele>
        <time>2024-11-05T15:32:54.624Z</time>
      </trkpt>
      <trkpt lat="44.48443" lon="3.30839">
        <ele>643.15</ele>
        <time>2024-11-05T15:33:04.816Z</time>
      </trkpt>
      <trkpt lat="44.48446" lon="3.30863">
        <ele>642.57</ele>
        <time>2024-11-05T15:33:15.011Z</time>
      </trkpt>
      <trkpt lat="44.48448" lon="3.30881">
        <ele>641.98</ele>
        <time>2024-11-05T15:33:25.208Z</time>
      </trkpt>
      <trkpt lat="44.48449" lon="3.30894">
        <ele>641.39</ele>
        <time>2024-11-05T15:33:35.407Z</time>
      </trkpt>
      <trkpt lat="44.48452" lon="3.30919">
        <ele>640.78</ele>
        <time>2024-11-05T15:33:45.609Z</time>
      </trkpt>
      <trkpt lat="44.48453" lon="3.30931">
        <ele>640.22</ele>
        <time>2024-11-05T15:33:55.812Z</time>
      </trkpt>
      <trkpt lat="44.48456" lon="3.30955">
        <ele>639.63</ele>
        <time>2024-11-05T15:34:06.018Z</time>
      </trkpt>
      <trkpt lat="44.48459" lon="3.30968">
        <ele>639.14</ele>
        <time>2024-11-05T15:34:16.225Z</time>
      </trkpt>
      <trkpt lat="44.48462" lon="3.3098">
        <ele>638.66</ele>
        <time>2024-11-05T15:34:26.434Z</time>
      </trkpt>
      <trkpt lat="44.48463" lon="3.30986">
        <ele>638.2</ele>
        <time>2024-11-05T15:34:36.644Z</time>
      </trkpt>
      <trkpt lat="44.48465" lon="3.30992">
        <ele>637.78</ele>
        <time>2024-11-05T15:34:46.854Z</time>
      </trkpt>
      <trkpt lat="44.48467" lon="3.31004">
        <ele>637.37</ele>
        <time>2024-11-05T15:34:57.066Z</time>
      </trkpt>
      <trkpt lat="44.48468" lon="3.31006">
        <ele>637.01</ele>
        <time>2024-11-05T15:35:07.278Z</time>
      </trkpt>
      <trkpt lat="44.48468" lon="3.31016">
        <ele>636.63</ele>
        <time>2024-11-05T15:35:17.491Z</time>
      </trkpt>
      <trkpt lat="44.48468" lon="3.31021">
        <ele>636.3</ele>
        <time>2024-11-05T15:35:27.705Z</time>
      </trkpt>
      <trkpt lat="44.48463" lon="3.3103">
        <ele>635.93</ele>
        <time>2024-11-05T15:35:37.920Z</time>
      </trkpt>
      <trkpt lat="44.48461" lon="3.31031">
        <ele>635.64</ele>
        <time>2024-11-05T15:35:48.135Z</time>
      </trkpt>
      <trkpt lat="44.48452" lon="3.31038">
        <ele>635.3</ele>
        <time>2024-11-05T15:35:58.352Z</time>
      </trkpt>
      <trkpt lat="44.48452" lon="3.31034">
        <ele>635.08</ele>
        <time>2024-11-05T15:36:08.569Z</time>
      </trkpt>
      <trkpt lat="44.4845" lon="3.31015">
        <ele>634.9</ele>
        <time>2024-11-05T15:36:18.789Z</time>
      </trkpt>
      <trkpt lat="44.48447" lon="3.30991">
        <ele>634.77</ele>
        <time>2024-11-05T15:36:29.011Z</time>
      </trkpt>
      <trkpt lat="44.48445" lon="3.30978">
        <ele>634.66</ele>
        <time>2024-11-05T15:36:39.235Z</time>
      </trkpt>
      <trkpt lat="44.48443" lon="3.3096">
        <ele>634.58</ele>
        <time>2024-11-05T15:36:49.461Z</time>
      </trkpt>
      <trkpt lat="44.48442" lon="3.30947">
        <ele>634.5</ele>
        <time>2024-11-05T15:36:59.688Z</time>
      </trkpt>
      <trkpt lat="44.48437" lon="3.30904">
        <ele>634.48</ele>
        <time>2024-11-05T15:37:09.921Z</time>
      </trkpt>
      <trkpt lat="44.48431" lon="3.30848">
        <ele>634.5</ele>
        <time>2024-11-05T15:37:20.160Z</time>
      </trkpt>
      <trkpt lat="44.48427" lon="3.30811">
        <ele>634.44</ele>
        <time>2024-11-05T15:37:30.403Z</time>
      </trkpt>
      <trkpt lat="44.48426" lon="3.30801">
        <ele>634.41</ele>
        <time>2024-11-05T15:37:40.647Z</time>
      </trkpt>
      <trkpt lat="44.48423" lon="3.30767">
        <ele>634.36</ele>
        <time>2024-11-05T15:37:50.895Z</time>
      </trkpt>
      <trkpt lat="44.4842" lon="3.30724">
        <ele>634.29</ele>
        <time>2024-11-05T15:38:01.148Z</time>
      </trkpt>
      <trkpt lat="44.48416" lon="3.30668">
        <ele>634.26</ele>
        <time>2024-11-05T15:38:11.408Z</time>
      </trkpt>
      <trkpt lat="44.48411" lon="3.30605">
        <ele>634.26</ele>
        <time>2024-11-05T15:38:21.675Z</time>
      </trkpt>
      <trkpt lat="44.4841" lon="3.30594">
        <ele>634.26</ele>
        <time>2024-11-05T15:38:31.943Z</time>
      </trkpt>
      <trkpt lat="44.48409" lon="3.30537">
        <ele>634.23</ele>
        <time>2024-11-05T15:38:42.218Z</time>
      </trkpt>
      <trkpt lat="44.48409" lon="3.30507">
        <ele>634.23</ele>
        <time>2024-11-05T15:38:52.496Z</time>
      </trkpt>
      <trkpt lat="44.4841" lon="3.30493">
        <ele>634.25</ele>
        <time>2024-11-05T15:39:02.776Z</time>
      </trkpt>
      <trkpt lat="44.48412" lon="3.30474">
        <ele>634.33</ele>
        <time>2024-11-05T15:39:13.058Z</time>
      </trkpt>
      <trkpt lat="44.48413" lon="3.3046">
        <ele>634.37</ele>
        <time>2024-11-05T15:39:23.342Z</time>
      </trkpt>
      <trkpt lat="44.48413" lon="3.30465">
        <ele>634.41</ele>
        <time>2024-11-05T15:39:33.626Z</time>
      </trkpt>
      <trkpt lat="44.48409" lon="3.30507">
        <ele>634.23</ele>
        <time>2024-11-05T15:39:43.915Z</time>
      </trkpt>
      <trkpt lat="44.48409" lon="3.30509">
        <ele>634.43</ele>
        <time>2024-11-05T15:39:54.204Z</time>
      </trkpt>
      <trkpt lat="44.4841" lon="3.30578">
        <ele>634.54</ele>
        <time>2024-11-05T15:40:04.501Z</time>
      </trkpt>
      <trkpt lat="44.4841" lon="3.30594">
        <ele>634.26</ele>
        <time>2024-11-05T15:40:14.800Z</time>
      </trkpt>
      <trkpt lat="44.48414" lon="3.3064">
        <ele>634.61</ele>
        <time>2024-11-05T15:40:25.104Z</time>
      </trkpt>
      <trkpt lat="44.48418" lon="3.30696">
        <ele>634.67</ele>
        <time>2024-11-05T15:40:35.415Z</time>
      </trkpt>
      <trkpt lat="44.48421" lon="3.3074">
        <ele>634.75</ele>
        <time>2024-11-05T15:40:45.731Z</time>
      </trkpt>
      <trkpt lat="44.48425" lon="3.30783">
        <ele>634.83</ele>
        <time>2024-11-05T15:40:56.052Z</time>
      </trkpt>
      <trkpt lat="44.48426" lon="3.30801">
        <ele>634.41</ele>
        <time>2024-11-05T15:41:06.375Z</time>
      </trkpt>
      <trkpt lat="44.48428" lon="3.30821">
        <ele>634.92</ele>
        <time>2024-11-05T15:41:16.700Z</time>
      </trkpt>
      <trkpt lat="44.48434" lon="3.30877">
        <ele>634.95</ele>
        <time>2024-11-05T15:41:27.032Z</time>
      </trkpt>
      <trkpt lat="44.48439" lon="3.3092">
        <ele>634.91</ele>
        <time>2024-11-05T15:41:37.369Z</time>
      </trkpt>
      <trkpt lat="44.4844" lon="3.30932">
        <ele>634.93</ele>
        <time>2024-11-05T15:41:47.707Z</time>
      </trkpt>
      <trkpt lat="44.48442" lon="3.30951">
        <ele>634.95</ele>
        <time>2024-11-05T15:41:58.047Z</time>
      </trkpt>
      <trkpt lat="44.48444" lon="3.30963">
        <ele>634.97</ele>
        <time>2024-11-05T15:42:08.389Z</time>
      </trkpt>
      <trkpt lat="44.48447" lon="3.30988">
        <ele>634.96</ele>
        <time>2024-11-05T15:42:18.734Z</time>
      </trkpt>
      <trkpt lat="44.48449" lon="3.31007">
        <ele>634.98</ele>
        <time>2024-11-05T15:42:29.081Z</time>
      </trkpt>
      <trkpt lat="44.48451" lon="3.31025">
        <ele>635.02</ele>
        <time>2024-11-05T15:42:39.430Z</time>
      </trkpt>
      <trkpt lat="44.48452" lon="3.31038">
        <ele>635.3</ele>
        <time>2024-11-05T15:42:49.780Z</time>
      </trkpt>
      <trkpt lat="44.48452" lon="3.3105">
        <ele>635.14</ele>
        <time>2024-11-05T15:43:00.132Z</time>
      </trkpt>
      <trkpt lat="44.48451" lon="3.31063">
        <ele>635.23</ele>
        <time>2024-11-05T15:43:10.485Z</time>
      </trkpt>
      <trkpt lat="44.48448" lon="3.31089">
        <ele>635.35</ele>
        <time>2024-11-05T15:43:20.841Z</time>
      </trkpt>
      <trkpt lat="44.48446" lon="3.31102">
        <ele>635.48</ele>
        <time>2024-11-05T15:43:31.199Z</time>
      </trkpt>
      <trkpt lat="44.48442" lon="3.31112">
        <ele>635.6</ele>
        <time>2024-11-05T15:43:41.558Z</time>
      </trkpt>
      <trkpt lat="44.48436" lon="3.31129">
        <ele>635.74</ele>
        <time>2024-11-05T15:43:51.919Z</time>
      </trkpt>
      <trkpt lat="44.48432" lon="3.3114">
        <ele>635.87</ele>
        <time>2024-11-05T15:44:02.282Z</time>
      </trkpt>
      <trkpt lat="44.48424" lon="3.31155">
        <ele>635.95</ele>
        <time>2024-11-05T15:44:12.647Z</time>
      </trkpt>
      <trkpt lat="44.48413" lon="3.31175">
        <ele>636.06</ele>
        <time>2024-11-05T15:44:23.015Z</time>
      </trkpt>
      <trkpt lat="44.48405" lon="3.31191">
        <ele>636.2</ele>
        <time>2024-11-05T15:44:33.385Z</time>
      </trkpt>
      <trkpt lat="44.484" lon="3.31201">
        <ele>636.33</ele>
        <time>2024-11-05T15:44:43.756Z</time>
      </trkpt>
      <trkpt lat="44.48392" lon="3.31216">
        <ele>636.41</ele>
        <time>2024-11-05T15:44:54.129Z</time>
      </trkpt>
      <trkpt lat="44.48391" lon="3.31217">
        <ele>636.5</ele>
        <time>2024-11-05T15:45:04.503Z</time>
      </trkpt>
      <trkpt lat="44.48387" lon="3.31226">
        <ele>636.62</ele>
        <time>2024-11-05T15:45:14.878Z</time>
      </trkpt>
      <trkpt lat="44.4838" lon="3.31243">
        <ele>636.74</ele>
        <time>2024-11-05T15:45:25.255Z</time>
      </trkpt>
      <trkpt lat="44.48374" lon="3.31259">
        <ele>636.83</ele>
        <time>2024-11-05T15:45:35.634Z</time>
      </trkpt>
      <trkpt lat="44.48367" lon="3.31275">
        <ele>636.89</ele>
        <time>2024-11-05T15:45:46.015Z</time>
      </trkpt>
      <trkpt lat="44.4836" lon="3.31292">
        <ele>636.98</ele>
        <time>2024-11-05T15:45:56.399Z</time>
      </trkpt>
      <trkpt lat="44.48347" lon="3.31324">
        <ele>637.05</ele>
        <time>2024-11-05T15:46:06.787Z</time>
      </trkpt>
      <trkpt lat="44.48345" lon="3.31329">
        <ele>637.12</ele>
        <time>2024-11-05T15:46:17.175Z</time>
      </trkpt>
      <trkpt lat="44.48334" lon="3.3135">
        <ele>637.17</ele>
        <time>2024-11-05T15:46:27.566Z</time>
      </trkpt>
      <trkpt lat="44.48324" lon="3.31371">
        <ele>637.24</ele>
        <time>2024-11-05T15:46:37.960Z</time>
      </trkpt>
      <trkpt lat="44.4832" lon="3.31378">
        <ele>637.29</ele>
        <time>2024-11-05T15:46:48.355Z</time>
      </trkpt>
      <trkpt lat="44.48318" lon="3.31381">
        <ele>637.32</ele>
        <time>2024-11-05T15:46:58.751Z</time>
      </trkpt>
      <trkpt lat="44.48312" lon="3.3139">
        <ele>637.34</ele>
        <time>2024-11-05T15:47:09.148Z</time>
      </trkpt>
      <trkpt lat="44.48308" lon="3.31396">
        <ele>637.35</ele>
        <time>2024-11-05T15:47:19.546Z</time>
      </trkpt>
      <trkpt lat="44.48288" lon="3.3142">
        <ele>637.39</ele>
        <time>2024-11-05T15:47:29.948Z</time>
      </trkpt>
      <trkpt lat="44.48274" lon="3.31433">
        <ele>637.37</ele>
        <time>2024-11-05T15:47:40.353Z</time>
      </trkpt>
      <trkpt lat="44.48262" lon="3.31445">
        <ele>637.36</ele>
        <time>2024-11-05T15:47:50.760Z</time>
      </trkpt>
      <trkpt lat="44.48259" lon="3.31447">
        <ele>637.33</ele>
        <time>2024-11-05T15:48:01.168Z</time>
      </trkpt>
      <trkpt lat="44.48244" lon="3.31459">
        <ele>637.28</ele>
        <time>2024-11-05T15:48:11.579Z</time>
      </trkpt>
      <trkpt lat="44.48224" lon="3.31474">
        <ele>637.24</ele>
        <time>2024-11-05T15:48:21.993Z</time>
      </trkpt>
      <trkpt lat="44.48212" lon="3.31483">
        <ele>637.19</ele>
        <time>2024-11-05T15:48:32.410Z</time>
      </trkpt>
      <trkpt lat="44.48204" lon="3.31489">
        <ele>637.12</ele>
        <time>2024-11-05T15:48:42.828Z</time>
      </trkpt>
      <trkpt lat="44.48196" lon="3.31495">
        <ele>637.04</ele>
        <time>2024-11-05T15:48:53.247Z</time>
      </trkpt>
      <trkpt lat="44.4818" lon="3.31507">
        <ele>636.99</ele>
        <time>2024-11-05T15:49:03.669Z</time>
      </trkpt>
      <trkpt lat="44.48162" lon="3.31524">
        <ele>636.91</ele>
        <time>2024-11-05T15:49:14.095Z</time>
      </trkpt>
      <trkpt lat="44.48153" lon="3.31533">
        <ele>636.81</ele>
        <time>2024-11-05T15:49:24.523Z</time>
      </trkpt>
      <trkpt lat="44.48138" lon="3.31552">
        <ele>636.64</ele>
        <time>2024-11-05T15:49:34.954Z</time>
      </trkpt>
      <trkpt lat="44.48131" lon="3.31561">
        <ele>636.54</ele>
        <time>2024-11-05T15:49:45.386Z</time>
      </trkpt>
      <trkpt lat="44.48112" lon="3.31587">
        <ele>636.4</ele>
        <time>2024-11-05T15:49:55.823Z</time>
      </trkpt>
      <trkpt lat="44.48079" lon="3.31634">
        <ele>636.27</ele>
        <time>2024-11-05T15:50:06.267Z</time>
      </trkpt>
      <trkpt lat="44.48078" lon="3.31637">
        <ele>636.14</ele>
        <time>2024-11-05T15:50:16.712Z</time>
      </trkpt>
      <trkpt lat="44.48072" lon="3.31646">
        <ele>636.04</ele>
        <time>2024-11-05T15:50:27.158Z</time>
      </trkpt>
      <trkpt lat="44.48058" lon="3.3167">
        <ele>635.9</ele>
        <time>2024-11-05T15:50:37.608Z</time>
      </trkpt>
      <trkpt lat="44.48055" lon="3.31675">
        <ele>635.75</ele>
        <time>2024-11-05T15:50:48.058Z</time>
      </trkpt>
      <trkpt lat="44.48052" lon="3.3168">
        <ele>635.6</ele>
        <time>2024-11-05T15:50:58.509Z</time>
      </trkpt>
      <trkpt lat="44.48046" lon="3.3169">
        <ele>635.44</ele>
        <time>2024-11-05T15:51:08.961Z</time>
      </trkpt>
      <trkpt lat="44.48038" lon="3.31704">
        <ele>635.26</ele>
        <time>2024-11-05T15:51:19.416Z</time>
      </trkpt>
      <trkpt lat="44.48026" lon="3.31724">
        <ele>635.05</ele>
        <time>2024-11-05T15:51:29.873Z</time>
      </trkpt>
      <trkpt lat="44.48021" lon="3.31733">
        <ele>634.87</ele>
        <time>2024-11-05T15:51:40.332Z</time>
      </trkpt>
      <trkpt lat="44.48021" lon="3.31734">
        <ele>634.69</ele>
        <time>2024-11-05T15:51:50.791Z</time>
      </trkpt>
      <trkpt lat="44.48014" lon="3.3175">
        <ele>634.51</ele>
        <time>2024-11-05T15:52:01.252Z</time>
      </trkpt>
      <trkpt lat="44.48009" lon="3.31764">
        <ele>634.33</ele>
        <time>2024-11-05T15:52:11.715Z</time>
      </trkpt>
      <trkpt lat="44.48007" lon="3.31773">
        <ele>634.15</ele>
        <time>2024-11-05T15:52:22.179Z</time>
      </trkpt>
      <trkpt lat="44.48" lon="3.31798">
        <ele>633.94</ele>
        <time>2024-11-05T15:52:32.646Z</time>
      </trkpt>
      <trkpt lat="44.47996" lon="3.3182">
        <ele>633.75</ele>
        <time>2024-11-05T15:52:43.116Z</time>
      </trkpt>
      <trkpt lat="44.47992" lon="3.31845">
        <ele>633.54</ele>
        <time>2024-11-05T15:52:53.589Z</time>
      </trkpt>
      <trkpt lat="44.47992" lon="3.31847">
        <ele>633.35</ele>
        <time>2024-11-05T15:53:04.062Z</time>
      </trkpt>
      <trkpt lat="44.4799" lon="3.31876">
        <ele>633.12</ele>
        <time>2024-11-05T15:53:14.538Z</time>
      </trkpt>
      <trkpt lat="44.4799" lon="3.31879">
        <ele>632.94</ele>
        <time>2024-11-05T15:53:25.014Z</time>
      </trkpt>
      <trkpt lat="44.4799" lon="3.31882">
        <ele>632.76</ele>
        <time>2024-11-05T15:53:35.491Z</time>
      </trkpt>
      <trkpt lat="44.4799" lon="3.31895">
        <ele>632.58</ele>
        <time>2024-11-05T15:53:45.969Z</time>
      </trkpt>
      <trkpt lat="44.4799" lon="3.31913">
        <ele>632.39</ele>
        <time>2024-11-05T15:53:56.449Z</time>
      </trkpt>
      <trkpt lat="44.47991" lon="3.3198">
        <ele>632.17</ele>
        <time>2024-11-05T15:54:06.937Z</time>
      </trkpt>
      <trkpt lat="44.47991" lon="3.3201">
        <ele>632.03</ele>
        <time>2024-11-05T15:54:17.428Z</time>
      </trkpt>
      <trkpt lat="44.47991" lon="3.32023">
        <ele>631.9</ele>
        <time>2024-11-05T15:54:27.921Z</time>
      </trkpt>
      <trkpt lat="44.47991" lon="3.32035">
        <ele>631.76</ele>
        <time>2024-11-05T15:54:38.415Z</time>
      </trkpt>
      <trkpt lat="44.47993" lon="3.32078">
        <ele>631.64</ele>
        <time>2024-11-05T15:54:48.914Z</time>
      </trkpt>
      <trkpt lat="44.47993" lon="3.32097">
        <ele>631.5</ele>
        <time>2024-11-05T15:54:59.415Z</time>
      </trkpt>
      <trkpt lat="44.47994" lon="3.32114">
        <ele>631.38</ele>
        <time>2024-11-05T15:55:09.918Z</time>
      </trkpt>
      <trkpt lat="44.47994" lon="3.32116">
        <ele>631.28</ele>
        <time>2024-11-05T15:55:20.422Z</time>
      </trkpt>
      <trkpt lat="44.47995" lon="3.32134">
        <ele>631.18</ele>
        <time>2024-11-05T15:55:30.928Z</time>
      </trkpt>
      <trkpt lat="44.47997" lon="3.32159">
        <ele>631.1</ele>
        <time>2024-11-05T15:55:41.437Z</time>
      </trkpt>
      <trkpt lat="44.47998" lon="3.32178">
        <ele>631.04</ele>
        <time>2024-11-05T15:55:51.948Z</time>
      </trkpt>
      <trkpt lat="44.47997" lon="3.32196">
        <ele>630.98</ele>
        <time>2024-11-05T15:56:02.461Z</time>
      </trkpt>
      <trkpt lat="44.47997" lon="3.32209">
        <ele>630.91</ele>
        <time>2024-11-05T15:56:12.975Z</time>
      </trkpt>
      <trkpt lat="44.47994" lon="3.32227">
        <ele>630.87</ele>
        <time>2024-11-05T15:56:23.491Z</time>
      </trkpt>
      <trkpt lat="44.47992" lon="3.32245">
        <ele>630.84</ele>
        <time>2024-11-05T15:56:34.010Z</time>
      </trkpt>
      <trkpt lat="44.47989" lon="3.32264">
        <ele>630.77</ele>
        <time>2024-11-05T15:56:44.531Z</time>
      </trkpt>
      <trkpt lat="44.47987" lon="3.32276">
        <ele>630.72</ele>
        <time>2024-11-05T15:56:55.053Z</time>
      </trkpt>
      <trkpt lat="44.47982" lon="3.32297">
        <ele>630.69</ele>
        <time>2024-11-05T15:57:05.578Z</time>
      </trkpt>
      <trkpt lat="44.47981" lon="3.323">
        <ele>630.67</ele>
        <time>2024-11-05T15:57:16.103Z</time>
      </trkpt>
      <trkpt lat="44.47972" lon="3.3233">
        <ele>630.68</ele>
        <time>2024-11-05T15:57:26.632Z</time>
      </trkpt>
      <trkpt lat="44.47969" lon="3.3234">
        <ele>630.69</ele>
        <time>2024-11-05T15:57:37.162Z</time>
      </trkpt>
      <trkpt lat="44.47953" lon="3.32385">
        <ele>630.76</ele>
        <time>2024-11-05T15:57:47.698Z</time>
      </trkpt>
      <trkpt lat="44.47947" lon="3.32402">
        <ele>630.75</ele>
        <time>2024-11-05T15:57:58.236Z</time>
      </trkpt>
      <trkpt lat="44.47941" lon="3.32419">
        <ele>630.75</ele>
        <time>2024-11-05T15:58:08.776Z</time>
      </trkpt>
      <trkpt lat="44.47924" lon="3.32469">
        <ele>630.75</ele>
        <time>2024-11-05T15:58:19.323Z</time>
      </trkpt>
      <trkpt lat="44.4792" lon="3.32481">
        <ele>630.78</ele>
        <time>2024-11-05T15:58:29.871Z</time>
      </trkpt>
      <trkpt lat="44.47906" lon="3.3252">
        <ele>630.83</ele>
        <time>2024-11-05T15:58:40.424Z</time>
      </trkpt>
      <trkpt lat="44.47889" lon="3.32571">
        <ele>630.83</ele>
        <time>2024-11-05T15:58:50.983Z</time>
      </trkpt>
      <trkpt lat="44.47879" lon="3.32599">
        <ele>630.88</ele>
        <time>2024-11-05T15:59:01.546Z</time>
      </trkpt>
      <trkpt lat="44.47873" lon="3.32616">
        <ele>630.93</ele>
        <time>2024-11-05T15:59:12.111Z</time>
      </trkpt>
      <trkpt lat="44.47863" lon="3.32644">
        <ele>631</ele>
        <time>2024-11-05T15:59:22.680Z</time>
      </trkpt>
      <trkpt lat="44.47858" lon="3.32661">
        <ele>631.07</ele>
        <time>2024-11-05T15:59:33.251Z</time>
      </trkpt>
      <trkpt lat="44.4785" lon="3.32684">
        <ele>631.08</ele>
        <time>2024-11-05T15:59:43.825Z</time>
      </trkpt>
      <trkpt lat="44.47846" lon="3.32695">
        <ele>631.1</ele>
        <time>2024-11-05T15:59:54.400Z</time>
      </trkpt>
      <trkpt lat="44.47836" lon="3.32723">
        <ele>631.11</ele>
        <time>2024-11-05T16:00:04.979Z</time>
      </trkpt>
      <trkpt lat="44.4782" lon="3.32768">
        <ele>631.06</ele>
        <time>2024-11-05T16:00:15.564Z</time>
      </trkpt>
      <trkpt lat="44.47815" lon="3.32785">
        <ele>631.07</ele>
        <time>2024-11-05T16:00:26.151Z</time>
      </trkpt>
      <trkpt lat="44.47809" lon="3.32802">
        <ele>631.08</ele>
        <time>2024-11-05T16:00:36.740Z</time>
      </trkpt>
      <trkpt lat="44.47809" lon="3.32802">
        <ele>631.11</ele>
        <time>2024-11-05T16:00:47.329Z</time>
      </trkpt>
      <trkpt lat="44.47809" lon="3.32802">
        <ele>631.14</ele>
        <time>2024-11-05T16:00:57.918Z</time>
      </trkpt>
      <trkpt lat="44.47809" lon="3.32802">
        <ele>631.18</ele>
        <time>2024-11-05T16:01:08.507Z</time>
      </trkpt>
      <trkpt lat="44.47809" lon="3.32802">
        <ele>631.22</ele>
        <time>2024-11-05T16:01:19.096Z</time>
      </trkpt>
      <trkpt lat="44.47796" lon="3.3284">
        <ele>631.25</ele>
        <time>2024-11-05T16:01:29.690Z</time>
      </trkpt>
      <trkpt lat="44.47792" lon="3.32851">
        <ele>631.29</ele>
        <time>2024-11-05T16:01:40.285Z</time>
      </trkpt>
      <trkpt lat="44.47786" lon="3.32867">
        <ele>631.33</ele>
        <time>2024-11-05T16:01:50.882Z</time>
      </trkpt>
      <trkpt lat="44.47782" lon="3.32879">
        <ele>631.37</ele>
        <time>2024-11-05T16:02:01.481Z</time>
      </trkpt>
      <trkpt lat="44.47772" lon="3.32905">
        <ele>631.39</ele>
        <time>2024-11-05T16:02:12.083Z</time>
      </trkpt>
      <trkpt lat="44.47768" lon="3.32916">
        <ele>631.43</ele>
        <time>2024-11-05T16:02:22.686Z</time>
      </trkpt>
      <trkpt lat="44.47755" lon="3.32949">
        <ele>631.47</ele>
        <time>2024-11-05T16:02:33.294Z</time>
      </trkpt>
      <trkpt lat="44.4775" lon="3.3296">
        <ele>631.51</ele>
        <time>2024-11-05T16:02:43.903Z</time>
      </trkpt>
      <trkpt lat="44.47748" lon="3.32966">
        <ele>631.54</ele>
        <time>2024-11-05T16:02:54.513Z</time>
      </trkpt>
      <trkpt lat="44.47746" lon="3.3297">
        <ele>631.59</ele>
        <time>2024-11-05T16:03:05.124Z</time>
      </trkpt>
      <trkpt lat="44.47739" lon="3.32986">
        <ele>631.64</ele>
        <time>2024-11-05T16:03:15.737Z</time>
      </trkpt>
      <trkpt lat="44.47729" lon="3.33007">
        <ele>631.69</ele>
        <time>2024-11-05T16:03:26.353Z</time>
      </trkpt>
      <trkpt lat="44.47727" lon="3.33012">
        <ele>631.73</ele>
        <time>2024-11-05T16:03:36.969Z</time>
      </trkpt>
      <trkpt lat="44.4771" lon="3.33041">
        <ele>631.78</ele>
        <time>2024-11-05T16:03:47.590Z</time>
      </trkpt>
      <trkpt lat="44.4769" lon="3.33074">
        <ele>631.85</ele>
        <time>2024-11-05T16:03:58.215Z</time>
      </trkpt>
      <trkpt lat="44.47668" lon="3.33106">
        <ele>631.91</ele>
        <time>2024-11-05T16:04:08.846Z</time>
      </trkpt>
      <trkpt lat="44.47637" lon="3.33147">
        <ele>631.93</ele>
        <time>2024-11-05T16:04:19.483Z</time>
      </trkpt>
      <trkpt lat="44.47634" lon="3.33151">
        <ele>631.94</ele>
        <time>2024-11-05T16:04:30.121Z</time>
      </trkpt>
      <trkpt lat="44.47627" lon="3.33159">
        <ele>631.93</ele>
        <time>2024-11-05T16:04:40.761Z</time>
      </trkpt>
      <trkpt lat="44.47613" lon="3.33174">
        <ele>631.91</ele>
        <time>2024-11-05T16:04:51.403Z</time>
      </trkpt>
      <trkpt lat="44.47603" lon="3.33186">
        <ele>631.92</ele>
        <time>2024-11-05T16:05:02.047Z</time>
      </trkpt>
      <trkpt lat="44.47582" lon="3.33209">
        <ele>631.93</ele>
        <time>2024-11-05T16:05:12.696Z</time>
      </trkpt>
      <trkpt lat="44.47572" lon="3.3322">
        <ele>631.93</ele>
        <time>2024-11-05T16:05:23.347Z</time>
      </trkpt>
      <trkpt lat="44.47562" lon="3.33232">
        <ele>631.92</ele>
        <time>2024-11-05T16:05:34.000Z</time>
      </trkpt>
      <trkpt lat="44.47548" lon="3.33248">
        <ele>631.89</ele>
        <time>2024-11-05T16:05:44.656Z</time>
      </trkpt>
      <trkpt lat="44.47543" lon="3.33253">
        <ele>631.85</ele>
        <time>2024-11-05T16:05:55.313Z</time>
      </trkpt>
      <trkpt lat="44.47518" lon="3.33284">
        <ele>631.79</ele>
        <time>2024-11-05T16:06:05.975Z</time>
      </trkpt>
      <trkpt lat="44.47505" lon="3.33301">
        <ele>631.72</ele>
        <time>2024-11-05T16:06:16.640Z</time>
      </trkpt>
      <trkpt lat="44.47489" lon="3.33322">
        <ele>631.66</ele>
        <time>2024-11-05T16:06:27.308Z</time>
      </trkpt>
      <trkpt lat="44.47476" lon="3.33338">
        <ele>631.59</ele>
        <time>2024-11-05T16:06:37.979Z</time>
      </trkpt>
      <trkpt lat="44.47461" lon="3.33357">
        <ele>631.52</ele>
        <time>2024-11-05T16:06:48.653Z</time>
      </trkpt>
      <trkpt lat="44.47457" lon="3.3336">
        <ele>631.42</ele>
        <time>2024-11-05T16:06:59.328Z</time>
      </trkpt>
      <trkpt lat="44.47449" lon="3.33366">
        <ele>631.32</ele>
        <time>2024-11-05T16:07:10.005Z</time>
      </trkpt>
      <trkpt lat="44.47446" lon="3.33367">
        <ele>631.22</ele>
        <time>2024-11-05T16:07:20.682Z</time>
      </trkpt>
      <trkpt lat="44.47434" lon="3.3337">
        <ele>631.1</ele>
        <time>2024-11-05T16:07:31.361Z</time>
      </trkpt>
      <trkpt lat="44.47425" lon="3.33372">
        <ele>630.98</ele>
        <time>2024-11-05T16:07:42.042Z</time>
      </trkpt>
      <trkpt lat="44.47416" lon="3.33372">
        <ele>630.85</ele>
        <time>2024-11-05T16:07:52.724Z</time>
      </trkpt>
      <trkpt lat="44.4741" lon="3.33374">
        <ele>630.73</ele>
        <time>2024-11-05T16:08:03.407Z</time>
      </trkpt>
      <trkpt lat="44.47401" lon="3.33376">
        <ele>630.6</ele>
        <time>2024-11-05T16:08:14.091Z</time>
      </trkpt>
      <trkpt lat="44.47393" lon="3.33381">
        <ele>630.46</ele>
        <time>2024-11-05T16:08:24.777Z</time>
      </trkpt>
      <trkpt lat="44.47379" lon="3.3339">
        <ele>630.31</ele>
        <time>2024-11-05T16:08:35.465Z</time>
      </trkpt>
      <trkpt lat="44.47377" lon="3.33392">
        <ele>630.17</ele>
        <time>2024-11-05T16:08:46.154Z</time>
      </trkpt>
      <trkpt lat="44.47365" lon="3.33402">
        <ele>630.01</ele>
        <time>2024-11-05T16:08:56.845Z</time>
      </trkpt>
      <trkpt lat="44.47346" lon="3.33418">
        <ele>629.85</ele>
        <time>2024-11-05T16:09:07.539Z</time>
      </trkpt>
      <trkpt lat="44.47339" lon="3.33425">
        <ele>629.71</ele>
        <time>2024-11-05T16:09:18.235Z</time>
      </trkpt>
      <trkpt lat="44.47331" lon="3.33431">
        <ele>629.56</ele>
        <time>2024-11-05T16:09:28.932Z</time>
      </trkpt>
      <trkpt lat="44.47323" lon="3.33438">
        <ele>629.42</ele>
        <time>2024-11-05T16:09:39.631Z</time>
      </trkpt>
      <trkpt lat="44.47301" lon="3.33452">
        <ele>629.29</ele>
        <time>2024-11-05T16:09:50.334Z</time>
      </trkpt>
      <trkpt lat="44.47296" lon="3.33455">
        <ele>629.16</ele>
        <time>2024-11-05T16:10:01.038Z</time>
      </trkpt>
      <trkpt lat="44.47289" lon="3.33459">
        <ele>629.05</ele>
        <time>2024-11-05T16:10:11.743Z</time>
      </trkpt>
      <trkpt lat="44.47269" lon="3.33469">
        <ele>628.94</ele>
        <time>2024-11-05T16:10:22.451Z</time>
      </trkpt>
      <trkpt lat="44.47257" lon="3.33474">
        <ele>628.84</ele>
        <time>2024-11-05T16:10:33.161Z</time>
      </trkpt>
      <trkpt lat="44.4724" lon="3.33482">
        <ele>628.78</ele>
        <time>2024-11-05T16:10:43.874Z</time>
      </trkpt>
      <trkpt lat="44.47211" lon="3.33495">
        <ele>628.74</ele>
        <time>2024-11-05T16:10:54.592Z</time>
      </trkpt>
      <trkpt lat="44.47202" lon="3.33499">
        <ele>628.69</ele>
        <time>2024-11-05T16:11:05.311Z</time>
      </trkpt>
      <trkpt lat="44.47186" lon="3.33508">
        <ele>628.65</ele>
        <time>2024-11-05T16:11:16.033Z</time>
      </trkpt>
      <trkpt lat="44.47173" lon="3.33515">
        <ele>628.62</ele>
        <time>2024-11-05T16:11:26.757Z</time>
      </trkpt>
      <trkpt lat="44.47151" lon="3.33531">
        <ele>628.59</ele>
        <time>2024-11-05T16:11:37.485Z</time>
      </trkpt>
      <trkpt lat="44.4715" lon="3.33533">
        <ele>628.59</ele>
        <time>2024-11-05T16:11:48.214Z</time>
      </trkpt>
      <trkpt lat="44.47136" lon="3.33549">
        <ele>628.59</ele>
        <time>2024-11-05T16:11:58.946Z</time>
      </trkpt>
      <trkpt lat="44.47129" lon="3.33557">
        <ele>628.62</ele>
        <time>2024-11-05T16:12:09.679Z</time>
      </trkpt>
      <trkpt lat="44.47122" lon="3.33549">
        <ele>628.65</ele>
        <time>2024-11-05T16:12:20.413Z</time>
      </trkpt>
      <trkpt lat="44.47114" lon="3.3354">
        <ele>628.7</ele>
        <time>2024-11-05T16:12:31.149Z</time>
      </trkpt>
      <trkpt lat="44.47112" lon="3.3354">
        <ele>628.79</ele>
        <time>2024-11-05T16:12:41.885Z</time>
      </trkpt>
      <trkpt lat="44.47099" lon="3.33542">
        <ele>628.9</ele>
        <time>2024-11-05T16:12:52.623Z</time>
      </trkpt>
      <trkpt lat="44.4709" lon="3.33544">
        <ele>629.04</ele>
        <time>2024-11-05T16:13:03.363Z</time>
      </trkpt>
      <trkpt lat="44.4709" lon="3.33544">
        <ele>629.21</ele>
        <time>2024-11-05T16:13:14.103Z</time>
      </trkpt>
      <trkpt lat="44.47082" lon="3.33536">
        <ele>629.38</ele>
        <time>2024-11-05T16:13:24.845Z</time>
      </trkpt>
      <trkpt lat="44.47074" lon="3.33515">
        <ele>629.59</ele>
        <time>2024-11-05T16:13:35.589Z</time>
      </trkpt>
      <trkpt lat="44.47068" lon="3.33499">
        <ele>629.85</ele>
        <time>2024-11-05T16:13:46.335Z</time>
      </trkpt>
      <trkpt lat="44.47064" lon="3.33487">
        <ele>630.15</ele>
        <time>2024-11-05T16:13:57.083Z</time>
      </trkpt>
      <trkpt lat="44.47064" lon="3.33485">
        <ele>630.45</ele>
        <time>2024-11-05T16:14:07.831Z</time>
      </trkpt>
      <trkpt lat="44.47063" lon="3.33472">
        <ele>630.8</ele>
        <time>2024-11-05T16:14:18.581Z</time>
      </trkpt>
      <trkpt lat="44.47062" lon="3.33467">
        <ele>631.16</ele>
        <time>2024-11-05T16:14:29.331Z</time>
      </trkpt>
      <trkpt lat="44.47057" lon="3.33449">
        <ele>631.59</ele>
        <time>2024-11-05T16:14:40.083Z</time>
      </trkpt>
      <trkpt lat="44.47055" lon="3.33444">
        <ele>632.01</ele>
        <time>2024-11-05T16:14:50.836Z</time>
      </trkpt>
      <trkpt lat="44.4705" lon="3.33433">
        <ele>632.45</ele>
        <time>2024-11-05T16:15:01.590Z</time>
      </trkpt>
      <trkpt lat="44.47049" lon="3.33431">
        <ele>632.9</ele>
        <time>2024-11-05T16:15:12.345Z</time>
      </trkpt>
      <trkpt lat="44.47043" lon="3.33426">
        <ele>633.38</ele>
        <time>2024-11-05T16:15:23.101Z</time>
      </trkpt>
      <trkpt lat="44.47033" lon="3.33419">
        <ele>633.9</ele>
        <time>2024-11-05T16:15:33.859Z</time>
      </trkpt>
      <trkpt lat="44.47023" lon="3.33416">
        <ele>634.44</ele>
        <time>2024-11-05T16:15:44.618Z</time>
      </trkpt>
      <trkpt lat="44.47017" lon="3.33416">
        <ele>634.98</ele>
        <time>2024-11-05T16:15:55.378Z</time>
      </trkpt>
      <trkpt lat="44.4701" lon="3.33417">
        <ele>635.54</ele>
        <time>2024-11-05T16:16:06.139Z</time>
      </trkpt>
      <trkpt lat="44.47008" lon="3.33418">
        <ele>636.08</ele>
        <time>2024-11-05T16:16:16.901Z</time>
      </trkpt>
      <trkpt lat="44.47" lon="3.33421">
        <ele>636.66</ele>
        <time>2024-11-05T16:16:27.664Z</time>
      </trkpt>
      <trkpt lat="44.46982" lon="3.33428">
        <ele>637.28</ele>
        <time>2024-11-05T16:16:38.430Z</time>
      </trkpt>
      <trkpt lat="44.46974" lon="3.33431">
        <ele>637.87</ele>
        <time>2024-11-05T16:16:49.197Z</time>
      </trkpt>
      <trkpt lat="44.46965" lon="3.33435">
        <ele>638.47</ele>
        <time>2024-11-05T16:16:59.966Z</time>
      </trkpt>
      <trkpt lat="44.46957" lon="3.33438">
        <ele>639.06</ele>
        <time>2024-11-05T16:17:10.736Z</time>
      </trkpt>
      <trkpt lat="44.46946" lon="3.33442">
        <ele>639.66</ele>
        <time>2024-11-05T16:17:21.508Z</time>
      </trkpt>
      <trkpt lat="44.46944" lon="3.33443">
        <ele>640.26</ele>
        <time>2024-11-05T16:17:32.280Z</time>
      </trkpt>
      <trkpt lat="44.46935" lon="3.33445">
        <ele>640.88</ele>
        <time>2024-11-05T16:17:43.054Z</time>
      </trkpt>
      <trkpt lat="44.46926" lon="3.33447">
        <ele>641.5</ele>
        <time>2024-11-05T16:17:53.829Z</time>
      </trkpt>
      <trkpt lat="44.46921" lon="3.33448">
        <ele>642.11</ele>
        <time>2024-11-05T16:18:04.605Z</time>
      </trkpt>
      <trkpt lat="44.46913" lon="3.3345">
        <ele>642.73</ele>
        <time>2024-11-05T16:18:15.382Z</time>
      </trkpt>
      <trkpt lat="44.46898" lon="3.33453">
        <ele>643.37</ele>
        <time>2024-11-05T16:18:26.162Z</time>
      </trkpt>
      <trkpt lat="44.46891" lon="3.33456">
        <ele>643.98</ele>
        <time>2024-11-05T16:18:36.943Z</time>
      </trkpt>
      <trkpt lat="44.46883" lon="3.33459">
        <ele>644.62</ele>
        <time>2024-11-05T16:18:47.725Z</time>
      </trkpt>
      <trkpt lat="44.46882" lon="3.3346">
        <ele>645.23</ele>
        <time>2024-11-05T16:18:58.508Z</time>
      </trkpt>
      <trkpt lat="44.46874" lon="3.33465">
        <ele>645.86</ele>
        <time>2024-11-05T16:19:09.292Z</time>
      </trkpt>
      <trkpt lat="44.46865" lon="3.3347">
        <ele>646.5</ele>
        <time>2024-11-05T16:19:20.077Z</time>
      </trkpt>
      <trkpt lat="44.4685" lon="3.33483">
        <ele>647.15</ele>
        <time>2024-11-05T16:19:30.865Z</time>
      </trkpt>
      <trkpt lat="44.46847" lon="3.33487">
        <ele>647.74</ele>
        <time>2024-11-05T16:19:41.654Z</time>
      </trkpt>
      <trkpt lat="44.46834" lon="3.33504">
        <ele>648.33</ele>
        <time>2024-11-05T16:19:52.446Z</time>
      </trkpt>
      <trkpt lat="44.46826" lon="3.33514">
        <ele>648.93</ele>
        <time>2024-11-05T16:20:03.240Z</time>
      </trkpt>
      <trkpt lat="44.46805" lon="3.3356">
        <ele>649.54</ele>
        <time>2024-11-05T16:20:14.040Z</time>
      </trkpt>
      <trkpt lat="44.46801" lon="3.33569">
        <ele>650.11</ele>
        <time>2024-11-05T16:20:24.841Z</time>
      </trkpt>
      <trkpt lat="44.468" lon="3.33571">
        <ele>650.67</ele>
        <time>2024-11-05T16:20:35.642Z</time>
      </trkpt>
      <trkpt lat="44.46792" lon="3.33593">
        <ele>651.34</ele>
        <time>2024-11-05T16:20:46.446Z</time>
      </trkpt>
      <trkpt lat="44.46779" lon="3.33633">
        <ele>652</ele>
        <time>2024-11-05T16:20:57.255Z</time>
      </trkpt>
      <trkpt lat="44.46775" lon="3.33644">
        <ele>652.58</ele>
        <time>2024-11-05T16:21:08.066Z</time>
      </trkpt>
      <trkpt lat="44.46771" lon="3.33655">
        <ele>653.13</ele>
        <time>2024-11-05T16:21:18.878Z</time>
      </trkpt>
      <trkpt lat="44.46766" lon="3.33668">
        <ele>653.68</ele>
        <time>2024-11-05T16:21:29.692Z</time>
      </trkpt>
      <trkpt lat="44.46761" lon="3.33684">
        <ele>654.2</ele>
        <time>2024-11-05T16:21:40.508Z</time>
      </trkpt>
      <trkpt lat="44.46757" lon="3.33695">
        <ele>654.68</ele>
        <time>2024-11-05T16:21:51.325Z</time>
      </trkpt>
      <trkpt lat="44.46752" lon="3.33713">
        <ele>655.06</ele>
        <time>2024-11-05T16:22:02.144Z</time>
      </trkpt>
      <trkpt lat="44.46748" lon="3.33724">
        <ele>655.52</ele>
        <time>2024-11-05T16:22:12.965Z</time>
      </trkpt>
      <trkpt lat="44.46747" lon="3.3373">
        <ele>656.04</ele>
        <time>2024-11-05T16:22:23.786Z</time>
      </trkpt>
      <trkpt lat="44.46745" lon="3.33735">
        <ele>656.54</ele>
        <time>2024-11-05T16:22:34.608Z</time>
      </trkpt>
      <trkpt lat="44.46744" lon="3.33748">
        <ele>657</ele>
        <time>2024-11-05T16:22:45.432Z</time>
      </trkpt>
      <trkpt lat="44.4674" lon="3.33779">
        <ele>657.46</ele>
        <time>2024-11-05T16:22:56.259Z</time>
      </trkpt>
      <trkpt lat="44.46739" lon="3.33792">
        <ele>657.99</ele>
        <time>2024-11-05T16:23:07.088Z</time>
      </trkpt>
      <trkpt lat="44.46737" lon="3.3381">
        <ele>658.47</ele>
        <time>2024-11-05T16:23:17.919Z</time>
      </trkpt>
      <trkpt lat="44.46735" lon="3.33829">
        <ele>658.96</ele>
        <time>2024-11-05T16:23:28.752Z</time>
      </trkpt>
      <trkpt lat="44.46734" lon="3.33841">
        <ele>659.44</ele>
        <time>2024-11-05T16:23:39.586Z</time>
      </trkpt>
      <trkpt lat="44.46731" lon="3.33866">
        <ele>659.91</ele>
        <time>2024-11-05T16:23:50.423Z</time>
      </trkpt>
      <trkpt lat="44.4673" lon="3.33879">
        <ele>660.39</ele>
        <time>2024-11-05T16:24:01.262Z</time>
      </trkpt>
      <trkpt lat="44.46729" lon="3.33885">
        <ele>660.87</ele>
        <time>2024-11-05T16:24:12.101Z</time>
      </trkpt>
      <trkpt lat="44.46728" lon="3.33897">
        <ele>661.39</ele>
        <time>2024-11-05T16:24:22.942Z</time>
      </trkpt>
      <trkpt lat="44.46727" lon="3.33904">
        <ele>661.91</ele>
        <time>2024-11-05T16:24:33.784Z</time>
      </trkpt>
      <trkpt lat="44.46726" lon="3.33916">
        <ele>662.44</ele>
        <time>2024-11-05T16:24:44.627Z</time>
      </trkpt>
      <trkpt lat="44.46725" lon="3.33929">
        <ele>662.98</ele>
        <time>2024-11-05T16:24:55.471Z</time>
      </trkpt>
      <trkpt lat="44.46723" lon="3.33941">
        <ele>663.52</ele>
        <time>2024-11-05T16:25:06.317Z</time>
      </trkpt>
      <trkpt lat="44.46721" lon="3.3396">
        <ele>664.11</ele>
        <time>2024-11-05T16:25:17.165Z</time>
      </trkpt>
      <trkpt lat="44.46719" lon="3.33978">
        <ele>664.71</ele>
        <time>2024-11-05T16:25:28.015Z</time>
      </trkpt>
      <trkpt lat="44.46717" lon="3.33997">
        <ele>665.31</ele>
        <time>2024-11-05T16:25:38.867Z</time>
      </trkpt>
      <trkpt lat="44.46716" lon="3.3401">
        <ele>665.87</ele>
        <time>2024-11-05T16:25:49.721Z</time>
      </trkpt>
      <trkpt lat="44.46713" lon="3.34034">
        <ele>666.46</ele>
        <time>2024-11-05T16:26:00.578Z</time>
      </trkpt>
      <trkpt lat="44.46713" lon="3.34037">
        <ele>667.05</ele>
        <time>2024-11-05T16:26:11.435Z</time>
      </trkpt>
      <trkpt lat="44.46708" lon="3.34044">
        <ele>667.66</ele>
        <time>2024-11-05T16:26:22.293Z</time>
      </trkpt>
      <trkpt lat="44.46694" lon="3.34032">
        <ele>668.33</ele>
        <time>2024-11-05T16:26:33.154Z</time>
      </trkpt>
      <trkpt lat="44.46687" lon="3.34026">
        <ele>668.96</ele>
        <time>2024-11-05T16:26:44.016Z</time>
      </trkpt>
      <trkpt lat="44.4668" lon="3.3402">
        <ele>669.6</ele>
        <time>2024-11-05T16:26:54.879Z</time>
      </trkpt>
      <trkpt lat="44.46672" lon="3.34013">
        <ele>670.24</ele>
        <time>2024-11-05T16:27:05.744Z</time>
      </trkpt>
      <trkpt lat="44.46665" lon="3.34005">
        <ele>670.9</ele>
        <time>2024-11-05T16:27:16.610Z</time>
      </trkpt>
      <trkpt lat="44.46658" lon="3.33998">
        <ele>671.56</ele>
        <time>2024-11-05T16:27:27.478Z</time>
      </trkpt>
      <trkpt lat="44.46657" lon="3.33998">
        <ele>672.21</ele>
        <time>2024-11-05T16:27:38.346Z</time>
      </trkpt>
      <trkpt lat="44.46652" lon="3.3399">
        <ele>672.88</ele>
        <time>2024-11-05T16:27:49.215Z</time>
      </trkpt>
      <trkpt lat="44.46643" lon="3.33976">
        <ele>673.57</ele>
        <time>2024-11-05T16:28:00.086Z</time>
      </trkpt>
      <trkpt lat="44.46641" lon="3.33972">
        <ele>674.25</ele>
        <time>2024-11-05T16:28:10.958Z</time>
      </trkpt>
      <trkpt lat="44.46632" lon="3.33952">
        <ele>674.95</ele>
        <time>2024-11-05T16:28:21.833Z</time>
      </trkpt>
      <trkpt lat="44.46626" lon="3.33933">
        <ele>675.65</ele>
        <time>2024-11-05T16:28:32.710Z</time>
      </trkpt>
      <trkpt lat="44.46608" lon="3.3387">
        <ele>676.47</ele>
        <time>2024-11-05T16:28:43.595Z</time>
      </trkpt>
      <trkpt lat="44.46601" lon="3.33848">
        <ele>677.2</ele>
        <time>2024-11-05T16:28:54.482Z</time>
      </trkpt>
      <trkpt lat="44.46598" lon="3.33835">
        <ele>677.94</ele>
        <time>2024-11-05T16:29:05.371Z</time>
      </trkpt>
      <trkpt lat="44.46594" lon="3.33823">
        <ele>678.69</ele>
        <time>2024-11-05T16:29:16.262Z</time>
      </trkpt>
      <trkpt lat="44.46592" lon="3.33818">
        <ele>679.44</ele>
        <time>2024-11-05T16:29:27.153Z</time>
      </trkpt>
      <trkpt lat="44.46585" lon="3.33797">
        <ele>680.24</ele>
        <time>2024-11-05T16:29:38.047Z</time>
      </trkpt>
      <trkpt lat="44.4657" lon="3.33774">
        <ele>681.04</ele>
        <time>2024-11-05T16:29:48.944Z</time>
      </trkpt>
      <trkpt lat="44.46567" lon="3.33769">
        <ele>681.83</ele>
        <time>2024-11-05T16:29:59.842Z</time>
      </trkpt>
      <trkpt lat="44.4655" lon="3.33753">
        <ele>682.64</ele>
        <time>2024-11-05T16:30:10.743Z</time>
      </trkpt>
      <trkpt lat="44.46549" lon="3.33753">
        <ele>683.43</ele>
        <time>2024-11-05T16:30:21.645Z</time>
      </trkpt>
      <trkpt lat="44.46538" lon="3.33745">
        <ele>684.23</ele>
        <time>2024-11-05T16:30:32.549Z</time>
      </trkpt>
      <trkpt lat="44.46529" lon="3.33739">
        <ele>685.06</ele>
        <time>2024-11-05T16:30:43.454Z</time>
      </trkpt>
      <trkpt lat="44.46505" lon="3.33725">
        <ele>685.96</ele>
        <time>2024-11-05T16:30:54.363Z</time>
      </trkpt>
      <trkpt lat="44.46492" lon="3.33717">
        <ele>686.84</ele>
        <time>2024-11-05T16:31:05.275Z</time>
      </trkpt>
      <trkpt lat="44.46483" lon="3.33712">
        <ele>687.69</ele>
        <time>2024-11-05T16:31:16.188Z</time>
      </trkpt>
      <trkpt lat="44.46471" lon="3.33706">
        <ele>688.55</ele>
        <time>2024-11-05T16:31:27.103Z</time>
      </trkpt>
      <trkpt lat="44.46446" lon="3.33694">
        <ele>689.39</ele>
        <time>2024-11-05T16:31:38.022Z</time>
      </trkpt>
      <trkpt lat="44.4643" lon="3.33686">
        <ele>690.28</ele>
        <time>2024-11-05T16:31:48.944Z</time>
      </trkpt>
      <trkpt lat="44.46413" lon="3.33675">
        <ele>691.2</ele>
        <time>2024-11-05T16:31:59.869Z</time>
      </trkpt>
      <trkpt lat="44.46376" lon="3.33653">
        <ele>692.1</ele>
        <time>2024-11-05T16:32:10.801Z</time>
      </trkpt>
      <trkpt lat="44.46368" lon="3.33648">
        <ele>692.96</ele>
        <time>2024-11-05T16:32:21.734Z</time>
      </trkpt>
      <trkpt lat="44.46349" lon="3.33633">
        <ele>693.85</ele>
        <time>2024-11-05T16:32:32.670Z</time>
      </trkpt>
      <trkpt lat="44.46347" lon="3.33632">
        <ele>694.74</ele>
        <time>2024-11-05T16:32:43.607Z</time>
      </trkpt>
      <trkpt lat="44.46331" lon="3.33616">
        <ele>695.67</ele>
        <time>2024-11-05T16:32:54.547Z</time>
      </trkpt>
      <trkpt lat="44.46302" lon="3.33588">
        <ele>696.6</ele>
        <time>2024-11-05T16:33:05.493Z</time>
      </trkpt>
      <trkpt lat="44.46287" lon="3.33574">
        <ele>697.54</ele>
        <time>2024-11-05T16:33:16.441Z</time>
      </trkpt>
      <trkpt lat="44.46282" lon="3.33569">
        <ele>698.46</ele>
        <time>2024-11-05T16:33:27.390Z</time>
      </trkpt>
      <trkpt lat="44.46276" lon="3.33564">
        <ele>699.38</ele>
        <time>2024-11-05T16:33:38.341Z</time>
      </trkpt>
      <trkpt lat="44.46249" lon="3.33543">
        <ele>700.31</ele>
        <time>2024-11-05T16:33:49.296Z</time>
      </trkpt>
      <trkpt lat="44.46241" lon="3.33537">
        <ele>701.21</ele>
        <time>2024-11-05T16:34:00.253Z</time>
      </trkpt>
      <trkpt lat="44.46237" lon="3.33535">
        <ele>702.12</ele>
        <time>2024-11-05T16:34:11.211Z</time>
      </trkpt>
      <trkpt lat="44.46229" lon="3.33529">
        <ele>703.03</ele>
        <time>2024-11-05T16:34:22.170Z</time>
      </trkpt>
      <trkpt lat="44.46209" lon="3.33516">
        <ele>703.96</ele>
        <time>2024-11-05T16:34:33.133Z</time>
      </trkpt>
      <trkpt lat="44.46193" lon="3.33505">
        <ele>704.92</ele>
        <time>2024-11-05T16:34:44.098Z</time>
      </trkpt>
      <trkpt lat="44.46166" lon="3.33488">
        <ele>705.97</ele>
        <time>2024-11-05T16:34:55.068Z</time>
      </trkpt>
      <trkpt lat="44.4616" lon="3.33485">
        <ele>706.93</ele>
        <time>2024-11-05T16:35:06.039Z</time>
      </trkpt>
      <trkpt lat="44.46147" lon="3.3348">
        <ele>707.91</ele>
        <time>2024-11-05T16:35:17.012Z</time>
      </trkpt>
      <trkpt lat="44.46139" lon="3.33476">
        <ele>708.87</ele>
        <time>2024-11-05T16:35:27.987Z</time>
      </trkpt>
      <trkpt lat="44.46117" lon="3.33467">
        <ele>709.91</ele>
        <time>2024-11-05T16:35:38.965Z</time>
      </trkpt>
      <trkpt lat="44.46109" lon="3.33463">
        <ele>710.89</ele>
        <time>2024-11-05T16:35:49.945Z</time>
      </trkpt>
      <trkpt lat="44.46098" lon="3.33458">
        <ele>711.88</ele>
        <time>2024-11-05T16:36:00.927Z</time>
      </trkpt>
      <trkpt lat="44.46079" lon="3.3345">
        <ele>712.87</ele>
        <time>2024-11-05T16:36:11.912Z</time>
      </trkpt>
      <trkpt lat="44.46053" lon="3.3344">
        <ele>713.88</ele>
        <time>2024-11-05T16:36:22.901Z</time>
      </trkpt>
      <trkpt lat="44.4604" lon="3.33435">
        <ele>714.85</ele>
        <time>2024-11-05T16:36:33.892Z</time>
      </trkpt>
      <trkpt lat="44.45999" lon="3.33419">
        <ele>715.91</ele>
        <time>2024-11-05T16:36:44.890Z</time>
      </trkpt>
      <trkpt lat="44.45988" lon="3.33415">
        <ele>716.89</ele>
        <time>2024-11-05T16:36:55.890Z</time>
      </trkpt>
      <trkpt lat="44.45957" lon="3.33405">
        <ele>717.96</ele>
        <time>2024-11-05T16:37:06.895Z</time>
      </trkpt>
      <trkpt lat="44.45944" lon="3.33401">
        <ele>719</ele>
        <time>2024-11-05T16:37:17.902Z</time>
      </trkpt>
      <trkpt lat="44.45919" lon="3.33407">
        <ele>719.98</ele>
        <time>2024-11-05T16:37:28.913Z</time>
      </trkpt>
      <trkpt lat="44.45897" lon="3.33418">
        <ele>720.89</ele>
        <time>2024-11-05T16:37:39.928Z</time>
      </trkpt>
      <trkpt lat="44.45888" lon="3.33422">
        <ele>721.83</ele>
        <time>2024-11-05T16:37:50.944Z</time>
      </trkpt>
      <trkpt lat="44.4588" lon="3.33427">
        <ele>722.76</ele>
        <time>2024-11-05T16:38:01.962Z</time>
      </trkpt>
      <trkpt lat="44.45872" lon="3.33431">
        <ele>723.7</ele>
        <time>2024-11-05T16:38:12.981Z</time>
      </trkpt>
      <trkpt lat="44.45855" lon="3.33439">
        <ele>724.63</ele>
        <time>2024-11-05T16:38:24.003Z</time>
      </trkpt>
      <trkpt lat="44.45855" lon="3.33439">
        <ele>725.6</ele>
        <time>2024-11-05T16:38:35.025Z</time>
      </trkpt>
      <trkpt lat="44.45846" lon="3.3344">
        <ele>726.62</ele>
        <time>2024-11-05T16:38:46.049Z</time>
      </trkpt>
      <trkpt lat="44.45831" lon="3.33442">
        <ele>727.66</ele>
        <time>2024-11-05T16:38:57.075Z</time>
      </trkpt>
      <trkpt lat="44.45824" lon="3.33439">
        <ele>728.67</ele>
        <time>2024-11-05T16:39:08.102Z</time>
      </trkpt>
      <trkpt lat="44.45811" lon="3.33433">
        <ele>729.69</ele>
        <time>2024-11-05T16:39:19.131Z</time>
      </trkpt>
      <trkpt lat="44.45799" lon="3.33428">
        <ele>730.72</ele>
        <time>2024-11-05T16:39:30.162Z</time>
      </trkpt>
      <trkpt lat="44.45794" lon="3.33425">
        <ele>731.74</ele>
        <time>2024-11-05T16:39:41.194Z</time>
      </trkpt>
      <trkpt lat="44.45782" lon="3.33417">
        <ele>732.78</ele>
        <time>2024-11-05T16:39:52.228Z</time>
      </trkpt>
      <trkpt lat="44.45773" lon="3.33411">
        <ele>733.82</ele>
        <time>2024-11-05T16:40:03.264Z</time>
      </trkpt>
      <trkpt lat="44.45761" lon="3.33405">
        <ele>734.86</ele>
        <time>2024-11-05T16:40:14.302Z</time>
      </trkpt>
      <trkpt lat="44.45736" lon="3.33392">
        <ele>735.88</ele>
        <time>2024-11-05T16:40:25.344Z</time>
      </trkpt>
      <trkpt lat="44.45723" lon="3.33385">
        <ele>736.93</ele>
        <time>2024-11-05T16:40:36.388Z</time>
      </trkpt>
      <trkpt lat="44.45707" lon="3.33376">
        <ele>738.05</ele>
        <time>2024-11-05T16:40:47.435Z</time>
      </trkpt>
      <trkpt lat="44.45685" lon="3.33365">
        <ele>739.22</ele>
        <time>2024-11-05T16:40:58.486Z</time>
      </trkpt>
      <trkpt lat="44.45673" lon="3.3336">
        <ele>740.35</ele>
        <time>2024-11-05T16:41:09.539Z</time>
      </trkpt>
      <trkpt lat="44.45642" lon="3.33349">
        <ele>741.74</ele>
        <time>2024-11-05T16:41:20.597Z</time>
      </trkpt>
      <trkpt lat="44.4564" lon="3.33348">
        <ele>742.91</ele>
        <time>2024-11-05T16:41:31.655Z</time>
      </trkpt>
      <trkpt lat="44.4562" lon="3.33344">
        <ele>744.06</ele>
        <time>2024-11-05T16:41:42.717Z</time>
      </trkpt>
      <trkpt lat="44.45601" lon="3.33339">
        <ele>745.25</ele>
        <time>2024-11-05T16:41:53.782Z</time>
      </trkpt>
      <trkpt lat="44.45598" lon="3.33338">
        <ele>746.43</ele>
        <time>2024-11-05T16:42:04.847Z</time>
      </trkpt>
      <trkpt lat="44.45585" lon="3.33334">
        <ele>747.65</ele>
        <time>2024-11-05T16:42:15.914Z</time>
      </trkpt>
      <trkpt lat="44.45555" lon="3.33325">
        <ele>748.85</ele>
        <time>2024-11-05T16:42:26.986Z</time>
      </trkpt>
      <trkpt lat="44.45542" lon="3.33321">
        <ele>750.06</ele>
        <time>2024-11-05T16:42:38.060Z</time>
      </trkpt>
      <trkpt lat="44.45525" lon="3.33312">
        <ele>751.36</ele>
        <time>2024-11-05T16:42:49.137Z</time>
      </trkpt>
      <trkpt lat="44.45508" lon="3.33304">
        <ele>752.68</ele>
        <time>2024-11-05T16:43:00.217Z</time>
      </trkpt>
      <trkpt lat="44.455" lon="3.33298">
        <ele>753.95</ele>
        <time>2024-11-05T16:43:11.299Z</time>
      </trkpt>
      <trkpt lat="44.45493" lon="3.33292">
        <ele>755.17</ele>
        <time>2024-11-05T16:43:22.382Z</time>
      </trkpt>
      <trkpt lat="44.45489" lon="3.33286">
        <ele>756.41</ele>
        <time>2024-11-05T16:43:33.466Z</time>
      </trkpt>
      <trkpt lat="44.4548" lon="3.33272">
        <ele>757.67</ele>
        <time>2024-11-05T16:43:44.552Z</time>
      </trkpt>
      <trkpt lat="44.4547" lon="3.3323">
        <ele>758.91</ele>
        <time>2024-11-05T16:43:55.643Z</time>
      </trkpt>
      <trkpt lat="44.45469" lon="3.33218">
        <ele>760.13</ele>
        <time>2024-11-05T16:44:06.735Z</time>
      </trkpt>
      <trkpt lat="44.45468" lon="3.33205">
        <ele>761.36</ele>
        <time>2024-11-05T16:44:17.829Z</time>
      </trkpt>
      <trkpt lat="44.45469" lon="3.332">
        <ele>762.55</ele>
        <time>2024-11-05T16:44:28.924Z</time>
      </trkpt>
      <trkpt lat="44.45471" lon="3.33188">
        <ele>763.74</ele>
        <time>2024-11-05T16:44:40.020Z</time>
      </trkpt>
      <trkpt lat="44.45484" lon="3.33106">
        <ele>765.05</ele>
        <time>2024-11-05T16:44:51.126Z</time>
      </trkpt>
      <trkpt lat="44.45483" lon="3.33078">
        <ele>766.27</ele>
        <time>2024-11-05T16:45:02.235Z</time>
      </trkpt>
      <trkpt lat="44.45483" lon="3.33076">
        <ele>767.4</ele>
        <time>2024-11-05T16:45:13.344Z</time>
      </trkpt>
      <trkpt lat="44.4548" lon="3.33058">
        <ele>768.52</ele>
        <time>2024-11-05T16:45:24.455Z</time>
      </trkpt>
      <trkpt lat="44.45468" lon="3.33025">
        <ele>769.65</ele>
        <time>2024-11-05T16:45:35.570Z</time>
      </trkpt>
      <trkpt lat="44.45468" lon="3.33024">
        <ele>770.73</ele>
        <time>2024-11-05T16:45:46.685Z</time>
      </trkpt>
      <trkpt lat="44.45455" lon="3.33006">
        <ele>771.82</ele>
        <time>2024-11-05T16:45:57.803Z</time>
      </trkpt>
      <trkpt lat="44.4545" lon="3.32998">
        <ele>772.88</ele>
        <time>2024-11-05T16:46:08.923Z</time>
      </trkpt>
      <trkpt lat="44.45437" lon="3.32987">
        <ele>773.91</ele>
        <time>2024-11-05T16:46:20.045Z</time>
      </trkpt>
      <trkpt lat="44.45426" lon="3.32978">
        <ele>774.94</ele>
        <time>2024-11-05T16:46:31.169Z</time>
      </trkpt>
      <trkpt lat="44.45419" lon="3.32972">
        <ele>775.94</ele>
        <time>2024-11-05T16:46:42.294Z</time>
      </trkpt>
      <trkpt lat="44.4538" lon="3.32952">
        <ele>777</ele>
        <time>2024-11-05T16:46:53.426Z</time>
      </trkpt>
      <trkpt lat="44.45376" lon="3.3295">
        <ele>777.94</ele>
        <time>2024-11-05T16:47:04.559Z</time>
      </trkpt>
      <trkpt lat="44.45359" lon="3.32939">
        <ele>778.91</ele>
        <time>2024-11-05T16:47:15.695Z</time>
      </trkpt>
      <trkpt lat="44.45354" lon="3.32936">
        <ele>779.79</ele>
        <time>2024-11-05T16:47:26.832Z</time>
      </trkpt>
      <trkpt lat="44.45329" lon="3.32926">
        <ele>780.64</ele>
        <time>2024-11-05T16:47:37.973Z</time>
      </trkpt>
      <trkpt lat="44.45308" lon="3.32918">
        <ele>781.5</ele>
        <time>2024-11-05T16:47:49.117Z</time>
      </trkpt>
      <trkpt lat="44.45299" lon="3.32915">
        <ele>782.34</ele>
        <time>2024-11-05T16:48:00.263Z</time>
      </trkpt>
      <trkpt lat="44.4529" lon="3.32911">
        <ele>783.17</ele>
        <time>2024-11-05T16:48:11.410Z</time>
      </trkpt>
      <trkpt lat="44.45274" lon="3.32901">
        <ele>784</ele>
        <time>2024-11-05T16:48:22.560Z</time>
      </trkpt>
      <trkpt lat="44.45266" lon="3.32896">
        <ele>784.76</ele>
        <time>2024-11-05T16:48:33.711Z</time>
      </trkpt>
      <trkpt lat="44.45263" lon="3.32894">
        <ele>785.5</ele>
        <time>2024-11-05T16:48:44.863Z</time>
      </trkpt>
      <trkpt lat="44.45248" lon="3.32876">
        <ele>786.22</ele>
        <time>2024-11-05T16:48:56.018Z</time>
      </trkpt>
      <trkpt lat="44.45241" lon="3.32867">
        <ele>786.9</ele>
        <time>2024-11-05T16:49:07.175Z</time>
      </trkpt>
      <trkpt lat="44.45229" lon="3.32849">
        <ele>787.55</ele>
        <time>2024-11-05T16:49:18.334Z</time>
      </trkpt>
      <trkpt lat="44.45214" lon="3.32826">
        <ele>788.2</ele>
        <time>2024-11-05T16:49:29.497Z</time>
      </trkpt>
      <trkpt lat="44.45193" lon="3.32794">
        <ele>788.86</ele>
        <time>2024-11-05T16:49:40.665Z</time>
      </trkpt>
      <trkpt lat="44.45177" lon="3.32771">
        <ele>789.53</ele>
        <time>2024-11-05T16:49:51.837Z</time>
      </trkpt>
      <trkpt lat="44.45162" lon="3.32748">
        <ele>790.16</ele>
        <time>2024-11-05T16:50:03.012Z</time>
      </trkpt>
      <trkpt lat="44.45153" lon="3.32734">
        <ele>790.73</ele>
        <time>2024-11-05T16:50:14.189Z</time>
      </trkpt>
      <trkpt lat="44.45141" lon="3.32715">
        <ele>791.31</ele>
        <time>2024-11-05T16:50:25.369Z</time>
      </trkpt>
      <trkpt lat="44.45132" lon="3.32702">
        <ele>791.86</ele>
        <time>2024-11-05T16:50:36.551Z</time>
      </trkpt>
      <trkpt lat="44.45116" lon="3.32679">
        <ele>792.4</ele>
        <time>2024-11-05T16:50:47.737Z</time>
      </trkpt>
      <trkpt lat="44.4511" lon="3.32669">
        <ele>792.91</ele>
        <time>2024-11-05T16:50:58.925Z</time>
      </trkpt>
      <trkpt lat="44.45094" lon="3.32643">
        <ele>793.47</ele>
        <time>2024-11-05T16:51:10.116Z</time>
      </trkpt>
      <trkpt lat="44.45085" lon="3.32629">
        <ele>793.98</ele>
        <time>2024-11-05T16:51:21.310Z</time>
      </trkpt>
      <trkpt lat="44.4507" lon="3.32605">
        <ele>794.45</ele>
        <time>2024-11-05T16:51:32.507Z</time>
      </trkpt>
      <trkpt lat="44.45069" lon="3.32603">
        <ele>794.91</ele>
        <time>2024-11-05T16:51:43.705Z</time>
      </trkpt>
      <trkpt lat="44.45061" lon="3.32564">
        <ele>795.31</ele>
        <time>2024-11-05T16:51:54.907Z</time>
      </trkpt>
      <trkpt lat="44.45059" lon="3.32553">
        <ele>795.74</ele>
        <time>2024-11-05T16:52:06.111Z</time>
      </trkpt>
      <trkpt lat="44.45058" lon="3.3252">
        <ele>796.25</ele>
        <time>2024-11-05T16:52:17.318Z</time>
      </trkpt>
      <trkpt lat="44.45058" lon="3.32509">
        <ele>796.71</ele>
        <time>2024-11-05T16:52:28.527Z</time>
      </trkpt>
      <trkpt lat="44.45055" lon="3.32496">
        <ele>797.15</ele>
        <time>2024-11-05T16:52:39.737Z</time>
      </trkpt>
      <trkpt lat="44.45054" lon="3.3249">
        <ele>797.57</ele>
        <time>2024-11-05T16:52:50.948Z</time>
      </trkpt>
      <trkpt lat="44.45048" lon="3.32473">
        <ele>797.98</ele>
        <time>2024-11-05T16:53:02.161Z</time>
      </trkpt>
      <trkpt lat="44.45047" lon="3.32471">
        <ele>798.38</ele>
        <time>2024-11-05T16:53:13.374Z</time>
      </trkpt>
      <trkpt lat="44.45036" lon="3.32459">
        <ele>798.74</ele>
        <time>2024-11-05T16:53:24.589Z</time>
      </trkpt>
      <trkpt lat="44.45026" lon="3.32451">
        <ele>799.1</ele>
        <time>2024-11-05T16:53:35.806Z</time>
      </trkpt>
      <trkpt lat="44.45017" lon="3.32448">
        <ele>799.49</ele>
        <time>2024-11-05T16:53:47.025Z</time>
      </trkpt>
      <trkpt lat="44.45014" lon="3.32447">
        <ele>799.88</ele>
        <time>2024-11-05T16:53:58.244Z</time>
      </trkpt>
      <trkpt lat="44.45008" lon="3.32447">
        <ele>800.26</ele>
        <time>2024-11-05T16:54:09.464Z</time>
      </trkpt>
      <trkpt lat="44.45002" lon="3.32446">
        <ele>800.65</ele>
        <time>2024-11-05T16:54:20.685Z</time>
      </trkpt>
      <trkpt lat="44.45" lon="3.32447">
        <ele>801.05</ele>
        <time>2024-11-05T16:54:31.907Z</time>
      </trkpt>
      <trkpt lat="44.44991" lon="3.32449">
        <ele>801.5</ele>
        <time>2024-11-05T16:54:43.130Z</time>
      </trkpt>
      <trkpt lat="44.44969" lon="3.32455">
        <ele>801.99</ele>
        <time>2024-11-05T16:54:54.357Z</time>
      </trkpt>
      <trkpt lat="44.44966" lon="3.32456">
        <ele>802.41</ele>
        <time>2024-11-05T16:55:05.584Z</time>
      </trkpt>
      <trkpt lat="44.44918" lon="3.32459">
        <ele>803.02</ele>
        <time>2024-11-05T16:55:16.819Z</time>
      </trkpt>
      <trkpt lat="44.44911" lon="3.32459">
        <ele>803.42</ele>
        <time>2024-11-05T16:55:28.055Z</time>
      </trkpt>
      <trkpt lat="44.44888" lon="3.32459">
        <ele>803.82</ele>
        <time>2024-11-05T16:55:39.295Z</time>
      </trkpt>
      <trkpt lat="44.44875" lon="3.32459">
        <ele>804.24</ele>
        <time>2024-11-05T16:55:50.537Z</time>
      </trkpt>
      <trkpt lat="44.44844" lon="3.32459">
        <ele>804.69</ele>
        <time>2024-11-05T16:56:01.784Z</time>
      </trkpt>
      <trkpt lat="44.44808" lon="3.32458">
        <ele>805.11</ele>
        <time>2024-11-05T16:56:13.036Z</time>
      </trkpt>
      <trkpt lat="44.44785" lon="3.32458">
        <ele>805.49</ele>
        <time>2024-11-05T16:56:24.292Z</time>
      </trkpt>
      <trkpt lat="44.44774" lon="3.32458">
        <ele>805.87</ele>
        <time>2024-11-05T16:56:35.550Z</time>
      </trkpt>
      <trkpt lat="44.44754" lon="3.32455">
        <ele>806.26</ele>
        <time>2024-11-05T16:56:46.811Z</time>
      </trkpt>
      <trkpt lat="44.44751" lon="3.32455">
        <ele>806.65</ele>
        <time>2024-11-05T16:56:58.073Z</time>
      </trkpt>
      <trkpt lat="44.44732" lon="3.32449">
        <ele>807.07</ele>
        <time>2024-11-05T16:57:09.338Z</time>
      </trkpt>
      <trkpt lat="44.44729" lon="3.32448">
        <ele>807.45</ele>
        <time>2024-11-05T16:57:20.603Z</time>
      </trkpt>
      <trkpt lat="44.44703" lon="3.32433">
        <ele>807.89</ele>
        <time>2024-11-05T16:57:31.873Z</time>
      </trkpt>
      <trkpt lat="44.44682" lon="3.32422">
        <ele>808.27</ele>
        <time>2024-11-05T16:57:43.146Z</time>
      </trkpt>
      <trkpt lat="44.44667" lon="3.32413">
        <ele>808.63</ele>
        <time>2024-11-05T16:57:54.422Z</time>
      </trkpt>
      <trkpt lat="44.44661" lon="3.32411">
        <ele>809</ele>
        <time>2024-11-05T16:58:05.699Z</time>
      </trkpt>
      <trkpt lat="44.44652" lon="3.32408">
        <ele>809.36</ele>
        <time>2024-11-05T16:58:16.977Z</time>
      </trkpt>
      <trkpt lat="44.44649" lon="3.32408">
        <ele>809.72</ele>
        <time>2024-11-05T16:58:28.256Z</time>
      </trkpt>
      <trkpt lat="44.44628" lon="3.32407">
        <ele>810.07</ele>
        <time>2024-11-05T16:58:39.538Z</time>
      </trkpt>
      <trkpt lat="44.44619" lon="3.32407">
        <ele>810.43</ele>
        <time>2024-11-05T16:58:50.822Z</time>
      </trkpt>
      <trkpt lat="44.44606" lon="3.32411">
        <ele>810.79</ele>
        <time>2024-11-05T16:59:02.108Z</time>
      </trkpt>
      <trkpt lat="44.44594" lon="3.32414">
        <ele>811.17</ele>
        <time>2024-11-05T16:59:13.396Z</time>
      </trkpt>
      <trkpt lat="44.44584" lon="3.32417">
        <ele>811.54</ele>
        <time>2024-11-05T16:59:24.685Z</time>
      </trkpt>
      <trkpt lat="44.44568" lon="3.32424">
        <ele>811.91</ele>
        <time>2024-11-05T16:59:35.977Z</time>
      </trkpt>
      <trkpt lat="44.4454" lon="3.32435">
        <ele>812.23</ele>
        <time>2024-11-05T16:59:47.274Z</time>
      </trkpt>
      <trkpt lat="44.44538" lon="3.32436">
        <ele>812.54</ele>
        <time>2024-11-05T16:59:58.571Z</time>
      </trkpt>
      <trkpt lat="44.4453" lon="3.32441">
        <ele>812.86</ele>
        <time>2024-11-05T17:00:09.869Z</time>
      </trkpt>
      <trkpt lat="44.44503" lon="3.32455">
        <ele>813.16</ele>
        <time>2024-11-05T17:00:21.172Z</time>
      </trkpt>
      <trkpt lat="44.44493" lon="3.32464">
        <ele>813.47</ele>
        <time>2024-11-05T17:00:32.477Z</time>
      </trkpt>
      <trkpt lat="44.44479" lon="3.32478">
        <ele>813.81</ele>
        <time>2024-11-05T17:00:43.785Z</time>
      </trkpt>
      <trkpt lat="44.44478" lon="3.32479">
        <ele>814.11</ele>
        <time>2024-11-05T17:00:55.093Z</time>
      </trkpt>
      <trkpt lat="44.44472" lon="3.32486">
        <ele>814.41</ele>
        <time>2024-11-05T17:01:06.402Z</time>
      </trkpt>
      <trkpt lat="44.44453" lon="3.32509">
        <ele>814.72</ele>
        <time>2024-11-05T17:01:17.715Z</time>
      </trkpt>
      <trkpt lat="44.44452" lon="3.32511">
        <ele>815.01</ele>
        <time>2024-11-05T17:01:29.028Z</time>
      </trkpt>
      <trkpt lat="44.4444" lon="3.32538">
        <ele>815.32</ele>
        <time>2024-11-05T17:01:40.345Z</time>
      </trkpt>
      <trkpt lat="44.44435" lon="3.32549">
        <ele>815.61</ele>
        <time>2024-11-05T17:01:51.664Z</time>
      </trkpt>
      <trkpt lat="44.4443" lon="3.32565">
        <ele>815.92</ele>
        <time>2024-11-05T17:02:02.985Z</time>
      </trkpt>
      <trkpt lat="44.44423" lon="3.32588">
        <ele>816.2</ele>
        <time>2024-11-05T17:02:14.308Z</time>
      </trkpt>
      <trkpt lat="44.44421" lon="3.32594">
        <ele>816.47</ele>
        <time>2024-11-05T17:02:25.632Z</time>
      </trkpt>
      <trkpt lat="44.44418" lon="3.32619">
        <ele>816.74</ele>
        <time>2024-11-05T17:02:36.959Z</time>
      </trkpt>
      <trkpt lat="44.44417" lon="3.32629">
        <ele>817</ele>
        <time>2024-11-05T17:02:48.287Z</time>
      </trkpt>
      <trkpt lat="44.44417" lon="3.3265">
        <ele>817.28</ele>
        <time>2024-11-05T17:02:59.618Z</time>
      </trkpt>
      <trkpt lat="44.44416" lon="3.32662">
        <ele>817.55</ele>
        <time>2024-11-05T17:03:10.950Z</time>
      </trkpt>
      <trkpt lat="44.44416" lon="3.32678">
        <ele>817.84</ele>
        <time>2024-11-05T17:03:22.284Z</time>
      </trkpt>
      <trkpt lat="44.44416" lon="3.32681">
        <ele>818.13</ele>
        <time>2024-11-05T17:03:33.618Z</time>
      </trkpt>
      <trkpt lat="44.44417" lon="3.32694">
        <ele>818.43</ele>
        <time>2024-11-05T17:03:44.954Z</time>
      </trkpt>
      <trkpt lat="44.44418" lon="3.32712">
        <ele>818.74</ele>
        <time>2024-11-05T17:03:56.292Z</time>
      </trkpt>
      <trkpt lat="44.44419" lon="3.32726">
        <ele>819.04</ele>
        <time>2024-11-05T17:04:07.631Z</time>
      </trkpt>
      <trkpt lat="44.44417" lon="3.32737">
        <ele>819.33</ele>
        <time>2024-11-05T17:04:18.972Z</time>
      </trkpt>
      <trkpt lat="44.44416" lon="3.32745">
        <ele>819.63</ele>
        <time>2024-11-05T17:04:30.314Z</time>
      </trkpt>
      <trkpt lat="44.4441" lon="3.32759">
        <ele>819.92</ele>
        <time>2024-11-05T17:04:41.658Z</time>
      </trkpt>
      <trkpt lat="44.44404" lon="3.32773">
        <ele>820.23</ele>
        <time>2024-11-05T17:04:53.003Z</time>
      </trkpt>
      <trkpt lat="44.44403" lon="3.32775">
        <ele>820.53</ele>
        <time>2024-11-05T17:05:04.349Z</time>
      </trkpt>
      <trkpt lat="44.44396" lon="3.32783">
        <ele>820.84</ele>
        <time>2024-11-05T17:05:15.696Z</time>
      </trkpt>
      <trkpt lat="44.44389" lon="3.32792">
        <ele>821.17</ele>
        <time>2024-11-05T17:05:27.045Z</time>
      </trkpt>
      <trkpt lat="44.4438" lon="3.32803">
        <ele>821.51</ele>
        <time>2024-11-05T17:05:38.396Z</time>
      </trkpt>
      <trkpt lat="44.44379" lon="3.32804">
        <ele>821.82</ele>
        <time>2024-11-05T17:05:49.747Z</time>
      </trkpt>
      <trkpt lat="44.44362" lon="3.32819">
        <ele>822.16</ele>
        <time>2024-11-05T17:06:01.101Z</time>
      </trkpt>
      <trkpt lat="44.4436" lon="3.3282">
        <ele>822.49</ele>
        <time>2024-11-05T17:06:12.455Z</time>
      </trkpt>
      <trkpt lat="44.44347" lon="3.32826">
        <ele>822.84</ele>
        <time>2024-11-05T17:06:23.811Z</time>
      </trkpt>
      <trkpt lat="44.44339" lon="3.32831">
        <ele>823.19</ele>
        <time>2024-11-05T17:06:35.169Z</time>
      </trkpt>
      <trkpt lat="44.44338" lon="3.32831">
        <ele>823.53</ele>
        <time>2024-11-05T17:06:46.527Z</time>
      </trkpt>
      <trkpt lat="44.4433" lon="3.32833">
        <ele>823.88</ele>
        <time>2024-11-05T17:06:57.886Z</time>
      </trkpt>
      <trkpt lat="44.44307" lon="3.32838">
        <ele>824.24</ele>
        <time>2024-11-05T17:07:09.249Z</time>
      </trkpt>
      <trkpt lat="44.443" lon="3.32841">
        <ele>824.6</ele>
        <time>2024-11-05T17:07:20.613Z</time>
      </trkpt>
      <trkpt lat="44.44287" lon="3.32846">
        <ele>824.96</ele>
        <time>2024-11-05T17:07:31.979Z</time>
      </trkpt>
      <trkpt lat="44.44265" lon="3.32854">
        <ele>825.32</ele>
        <time>2024-11-05T17:07:43.349Z</time>
      </trkpt>
      <trkpt lat="44.44257" lon="3.32857">
        <ele>825.68</ele>
        <time>2024-11-05T17:07:54.720Z</time>
      </trkpt>
      <trkpt lat="44.44235" lon="3.32867">
        <ele>826.1</ele>
        <time>2024-11-05T17:08:06.095Z</time>
      </trkpt>
      <trkpt lat="44.4421" lon="3.32879">
        <ele>826.48</ele>
        <time>2024-11-05T17:08:17.474Z</time>
      </trkpt>
      <trkpt lat="44.44206" lon="3.32881">
        <ele>826.84</ele>
        <time>2024-11-05T17:08:28.854Z</time>
      </trkpt>
      <trkpt lat="44.44202" lon="3.32884">
        <ele>827.2</ele>
        <time>2024-11-05T17:08:40.235Z</time>
      </trkpt>
      <trkpt lat="44.4419" lon="3.32893">
        <ele>827.57</ele>
        <time>2024-11-05T17:08:51.618Z</time>
      </trkpt>
      <trkpt lat="44.44182" lon="3.32899">
        <ele>827.94</ele>
        <time>2024-11-05T17:09:03.002Z</time>
      </trkpt>
      <trkpt lat="44.44168" lon="3.32914">
        <ele>828.3</ele>
        <time>2024-11-05T17:09:14.389Z</time>
      </trkpt>
      <trkpt lat="44.44163" lon="3.32918">
        <ele>828.65</ele>
        <time>2024-11-05T17:09:25.777Z</time>
      </trkpt>
      <trkpt lat="44.44161" lon="3.32921">
        <ele>829.01</ele>
        <time>2024-11-05T17:09:37.166Z</time>
      </trkpt>
      <trkpt lat="44.44151" lon="3.32934">
        <ele>829.36</ele>
        <time>2024-11-05T17:09:48.557Z</time>
      </trkpt>
      <trkpt lat="44.44144" lon="3.32943">
        <ele>829.69</ele>
        <time>2024-11-05T17:09:59.949Z</time>
      </trkpt>
      <trkpt lat="44.44136" lon="3.32954">
        <ele>830.02</ele>
        <time>2024-11-05T17:10:11.343Z</time>
      </trkpt>
      <trkpt lat="44.44126" lon="3.32961">
        <ele>830.36</ele>
        <time>2024-11-05T17:10:22.739Z</time>
      </trkpt>
      <trkpt lat="44.44115" lon="3.3297">
        <ele>830.69</ele>
        <time>2024-11-05T17:10:34.137Z</time>
      </trkpt>
      <trkpt lat="44.44109" lon="3.32974">
        <ele>831.01</ele>
        <time>2024-11-05T17:10:45.536Z</time>
      </trkpt>
      <trkpt lat="44.44073" lon="3.32992">
        <ele>831.36</ele>
        <time>2024-11-05T17:10:56.941Z</time>
      </trkpt>
      <trkpt lat="44.44065" lon="3.32997">
        <ele>831.68</ele>
        <time>2024-11-05T17:11:08.347Z</time>
      </trkpt>
      <trkpt lat="44.4406" lon="3.32999">
        <ele>832</ele>
        <time>2024-11-05T17:11:19.754Z</time>
      </trkpt>
      <trkpt lat="44.44023" lon="3.33018">
        <ele>832.37</ele>
        <time>2024-11-05T17:11:31.168Z</time>
      </trkpt>
      <trkpt lat="44.44002" lon="3.33029">
        <ele>832.69</ele>
        <time>2024-11-05T17:11:42.585Z</time>
      </trkpt>
      <trkpt lat="44.43989" lon="3.33035">
        <ele>832.98</ele>
        <time>2024-11-05T17:11:54.004Z</time>
      </trkpt>
      <trkpt lat="44.4398" lon="3.3304">
        <ele>833.26</ele>
        <time>2024-11-05T17:12:05.425Z</time>
      </trkpt>
      <trkpt lat="44.43972" lon="3.33044">
        <ele>833.53</ele>
        <time>2024-11-05T17:12:16.847Z</time>
      </trkpt>
      <trkpt lat="44.43971" lon="3.33044">
        <ele>833.78</ele>
        <time>2024-11-05T17:12:28.269Z</time>
      </trkpt>
      <trkpt lat="44.43963" lon="3.33045">
        <ele>834.05</ele>
        <time>2024-11-05T17:12:39.693Z</time>
      </trkpt>
      <trkpt lat="44.43959" lon="3.33046">
        <ele>834.29</ele>
        <time>2024-11-05T17:12:51.117Z</time>
      </trkpt>
      <trkpt lat="44.43955" lon="3.33047">
        <ele>834.51</ele>
        <time>2024-11-05T17:13:02.542Z</time>
      </trkpt>
      <trkpt lat="44.43946" lon="3.33048">
        <ele>834.74</ele>
        <time>2024-11-05T17:13:13.968Z</time>
      </trkpt>
      <trkpt lat="44.43941" lon="3.33049">
        <ele>834.94</ele>
        <time>2024-11-05T17:13:25.395Z</time>
      </trkpt>
      <trkpt lat="44.43924" lon="3.33049">
        <ele>835.14</ele>
        <time>2024-11-05T17:13:36.825Z</time>
      </trkpt>
      <trkpt lat="44.43915" lon="3.33049">
        <ele>835.32</ele>
        <time>2024-11-05T17:13:48.256Z</time>
      </trkpt>
      <trkpt lat="44.43897" lon="3.33048">
        <ele>835.49</ele>
        <time>2024-11-05T17:13:59.690Z</time>
      </trkpt>
      <trkpt lat="44.43891" lon="3.33048">
        <ele>835.64</ele>
        <time>2024-11-05T17:14:11.125Z</time>
      </trkpt>
      <trkpt lat="44.43888" lon="3.33048">
        <ele>835.77</ele>
        <time>2024-11-05T17:14:22.561Z</time>
      </trkpt>
      <trkpt lat="44.43861" lon="3.33051">
        <ele>835.91</ele>
        <time>2024-11-05T17:14:34.001Z</time>
      </trkpt>
      <trkpt lat="44.43852" lon="3.33052">
        <ele>836.02</ele>
        <time>2024-11-05T17:14:45.442Z</time>
      </trkpt>
      <trkpt lat="44.43844" lon="3.33052">
        <ele>836.11</ele>
        <time>2024-11-05T17:14:56.885Z</time>
      </trkpt>
      <trkpt lat="44.43835" lon="3.33053">
        <ele>836.18</ele>
        <time>2024-11-05T17:15:08.329Z</time>
      </trkpt>
      <trkpt lat="44.43825" lon="3.33054">
        <ele>836.24</ele>
        <time>2024-11-05T17:15:19.775Z</time>
      </trkpt>
      <trkpt lat="44.43816" lon="3.33052">
        <ele>836.28</ele>
        <time>2024-11-05T17:15:31.222Z</time>
      </trkpt>
      <trkpt lat="44.43813" lon="3.33051">
        <ele>836.32</ele>
        <time>2024-11-05T17:15:42.670Z</time>
      </trkpt>
      <trkpt lat="44.438" lon="3.33045">
        <ele>836.34</ele>
        <time>2024-11-05T17:15:54.120Z</time>
      </trkpt>
      <trkpt lat="44.43795" lon="3.33043">
        <ele>836.35</ele>
        <time>2024-11-05T17:16:05.571Z</time>
      </trkpt>
      <trkpt lat="44.43783" lon="3.33036">
        <ele>836.35</ele>
        <time>2024-11-05T17:16:17.024Z</time>
      </trkpt>
      <trkpt lat="44.43771" lon="3.33028">
        <ele>836.34</ele>
        <time>2024-11-05T17:16:28.479Z</time>
      </trkpt>
      <trkpt lat="44.43755" lon="3.33017">
        <ele>836.33</ele>
        <time>2024-11-05T17:16:39.937Z</time>
      </trkpt>
      <trkpt lat="44.43747" lon="3.33012">
        <ele>836.33</ele>
        <time>2024-11-05T17:16:51.396Z</time>
      </trkpt>
      <trkpt lat="44.43727" lon="3.33001">
        <ele>836.36</ele>
        <time>2024-11-05T17:17:02.859Z</time>
      </trkpt>
      <trkpt lat="44.43726" lon="3.33001">
        <ele>836.35</ele>
        <time>2024-11-05T17:17:14.322Z</time>
      </trkpt>
      <trkpt lat="44.43718" lon="3.32999">
        <ele>836.34</ele>
        <time>2024-11-05T17:17:25.786Z</time>
      </trkpt>
      <trkpt lat="44.43712" lon="3.32998">
        <ele>836.34</ele>
        <time>2024-11-05T17:17:37.251Z</time>
      </trkpt>
      <trkpt lat="44.437" lon="3.32999">
        <ele>836.33</ele>
        <time>2024-11-05T17:17:48.718Z</time>
      </trkpt>
      <trkpt lat="44.43694" lon="3.32999">
        <ele>836.32</ele>
        <time>2024-11-05T17:18:00.186Z</time>
      </trkpt>
      <trkpt lat="44.43687" lon="3.33001">
        <ele>836.3</ele>
        <time>2024-11-05T17:18:11.655Z</time>
      </trkpt>
      <trkpt lat="44.43652" lon="3.33012">
        <ele>836.27</ele>
        <time>2024-11-05T17:18:23.130Z</time>
      </trkpt>
      <trkpt lat="44.43633" lon="3.33017">
        <ele>836.24</ele>
        <time>2024-11-05T17:18:34.608Z</time>
      </trkpt>
      <trkpt lat="44.43621" lon="3.33018">
        <ele>836.22</ele>
        <time>2024-11-05T17:18:46.088Z</time>
      </trkpt>
      <trkpt lat="44.43621" lon="3.33018">
        <ele>836.22</ele>
        <time>2024-11-05T17:18:57.568Z</time>
      </trkpt>
      <trkpt lat="44.43608" lon="3.33015">
        <ele>836.21</ele>
        <time>2024-11-05T17:19:09.050Z</time>
      </trkpt>
      <trkpt lat="44.43605" lon="3.33014">
        <ele>836.22</ele>
        <time>2024-11-05T17:19:20.532Z</time>
      </trkpt>
      <trkpt lat="44.43599" lon="3.33011">
        <ele>836.24</ele>
        <time>2024-11-05T17:19:32.015Z</time>
      </trkpt>
      <trkpt lat="44.43587" lon="3.33006">
        <ele>836.28</ele>
        <time>2024-11-05T17:19:43.501Z</time>
      </trkpt>
      <trkpt lat="44.43561" lon="3.32994">
        <ele>836.33</ele>
        <time>2024-11-05T17:19:54.991Z</time>
      </trkpt>
      <trkpt lat="44.43548" lon="3.32988">
        <ele>836.37</ele>
        <time>2024-11-05T17:20:06.483Z</time>
      </trkpt>
      <trkpt lat="44.4354" lon="3.32984">
        <ele>836.42</ele>
        <time>2024-11-05T17:20:17.976Z</time>
      </trkpt>
      <trkpt lat="44.43527" lon="3.32978">
        <ele>836.49</ele>
        <time>2024-11-05T17:20:29.472Z</time>
      </trkpt>
      <trkpt lat="44.43506" lon="3.32968">
        <ele>836.58</ele>
        <time>2024-11-05T17:20:40.971Z</time>
      </trkpt>
      <trkpt lat="44.43497" lon="3.32965">
        <ele>836.69</ele>
        <time>2024-11-05T17:20:52.472Z</time>
      </trkpt>
      <trkpt lat="44.43489" lon="3.32961">
        <ele>836.82</ele>
        <time>2024-11-05T17:21:03.974Z</time>
      </trkpt>
      <trkpt lat="44.43446" lon="3.32941">
        <ele>837.07</ele>
        <time>2024-11-05T17:21:15.483Z</time>
      </trkpt>
      <trkpt lat="44.43399" lon="3.3292">
        <ele>837.21</ele>
        <time>2024-11-05T17:21:27.000Z</time>
      </trkpt>
      <trkpt lat="44.43365" lon="3.32904">
        <ele>837.39</ele>
        <time>2024-11-05T17:21:38.523Z</time>
      </trkpt>
      <trkpt lat="44.43353" lon="3.32898">
        <ele>837.58</ele>
        <time>2024-11-05T17:21:50.048Z</time>
      </trkpt>
      <trkpt lat="44.43344" lon="3.32894">
        <ele>837.77</ele>
        <time>2024-11-05T17:22:01.574Z</time>
      </trkpt>
      <trkpt lat="44.43323" lon="3.32884">
        <ele>838.01</ele>
        <time>2024-11-05T17:22:13.104Z</time>
      </trkpt>
      <trkpt lat="44.43293" lon="3.32871">
        <ele>838.25</ele>
        <time>2024-11-05T17:22:24.639Z</time>
      </trkpt>
      <trkpt lat="44.43276" lon="3.32863">
        <ele>838.5</ele>
        <time>2024-11-05T17:22:36.177Z</time>
      </trkpt>
      <trkpt lat="44.43259" lon="3.32855">
        <ele>838.73</ele>
        <time>2024-11-05T17:22:47.718Z</time>
      </trkpt>
      <trkpt lat="44.43235" lon="3.32844">
        <ele>838.97</ele>
        <time>2024-11-05T17:22:59.263Z</time>
      </trkpt>
      <trkpt lat="44.4322" lon="3.32839">
        <ele>839.24</ele>
        <time>2024-11-05T17:23:10.810Z</time>
      </trkpt>
      <trkpt lat="44.43207" lon="3.32838">
        <ele>839.5</ele>
        <time>2024-11-05T17:23:22.359Z</time>
      </trkpt>
      <trkpt lat="44.43202" lon="3.32837">
        <ele>839.8</ele>
        <time>2024-11-05T17:23:33.909Z</time>
      </trkpt>
      <trkpt lat="44.43165" lon="3.3284">
        <ele>840.1</ele>
        <time>2024-11-05T17:23:45.465Z</time>
      </trkpt>
      <trkpt lat="44.43144" lon="3.32843">
        <ele>840.46</ele>
        <time>2024-11-05T17:23:57.024Z</time>
      </trkpt>
      <trkpt lat="44.43113" lon="3.32846">
        <ele>840.86</ele>
        <time>2024-11-05T17:24:08.588Z</time>
      </trkpt>
      <trkpt lat="44.43082" lon="3.3285">
        <ele>841.23</ele>
        <time>2024-11-05T17:24:20.157Z</time>
      </trkpt>
      <trkpt lat="44.43046" lon="3.32855">
        <ele>841.62</ele>
        <time>2024-11-05T17:24:31.732Z</time>
      </trkpt>
      <trkpt lat="44.43033" lon="3.32856">
        <ele>842.07</ele>
        <time>2024-11-05T17:24:43.309Z</time>
      </trkpt>
      <trkpt lat="44.43006" lon="3.3286">
        <ele>842.52</ele>
        <time>2024-11-05T17:24:54.891Z</time>
      </trkpt>
      <trkpt lat="44.43004" lon="3.3286">
        <ele>843.02</ele>
        <time>2024-11-05T17:25:06.473Z</time>
      </trkpt>
      <trkpt lat="44.42988" lon="3.3286">
        <ele>843.54</ele>
        <time>2024-11-05T17:25:18.057Z</time>
      </trkpt>
      <trkpt lat="44.4298" lon="3.3286">
        <ele>844.1</ele>
        <time>2024-11-05T17:25:29.643Z</time>
      </trkpt>
      <trkpt lat="44.42971" lon="3.32859">
        <ele>844.68</ele>
        <time>2024-11-05T17:25:41.230Z</time>
      </trkpt>
      <trkpt lat="44.42966" lon="3.32859">
        <ele>845.3</ele>
        <time>2024-11-05T17:25:52.818Z</time>
      </trkpt>
      <trkpt lat="44.42957" lon="3.32859">
        <ele>845.95</ele>
        <time>2024-11-05T17:26:04.407Z</time>
      </trkpt>
      <trkpt lat="44.42944" lon="3.32856">
        <ele>846.62</ele>
        <time>2024-11-05T17:26:15.999Z</time>
      </trkpt>
      <trkpt lat="44.42932" lon="3.32854">
        <ele>847.36</ele>
        <time>2024-11-05T17:26:27.593Z</time>
      </trkpt>
      <trkpt lat="44.42931" lon="3.32854">
        <ele>848.1</ele>
        <time>2024-11-05T17:26:39.187Z</time>
      </trkpt>
      <trkpt lat="44.42922" lon="3.32851">
        <ele>848.89</ele>
        <time>2024-11-05T17:26:50.782Z</time>
      </trkpt>
      <trkpt lat="44.42918" lon="3.32849">
        <ele>849.7</ele>
        <time>2024-11-05T17:27:02.378Z</time>
      </trkpt>
      <trkpt lat="44.42909" lon="3.32846">
        <ele>850.56</ele>
        <time>2024-11-05T17:27:13.975Z</time>
      </trkpt>
      <trkpt lat="44.42901" lon="3.32843">
        <ele>851.44</ele>
        <time>2024-11-05T17:27:25.574Z</time>
      </trkpt>
      <trkpt lat="44.42892" lon="3.3284">
        <ele>852.34</ele>
        <time>2024-11-05T17:27:37.174Z</time>
      </trkpt>
      <trkpt lat="44.42888" lon="3.32837">
        <ele>853.26</ele>
        <time>2024-11-05T17:27:48.775Z</time>
      </trkpt>
      <trkpt lat="44.42868" lon="3.32824">
        <ele>854.25</ele>
        <time>2024-11-05T17:28:00.379Z</time>
      </trkpt>
      <trkpt lat="44.42855" lon="3.32816">
        <ele>855.22</ele>
        <time>2024-11-05T17:28:11.986Z</time>
      </trkpt>
      <trkpt lat="44.42841" lon="3.32807">
        <ele>856.2</ele>
        <time>2024-11-05T17:28:23.595Z</time>
      </trkpt>
      <trkpt lat="44.42813" lon="3.32782">
        <ele>857.25</ele>
        <time>2024-11-05T17:28:35.209Z</time>
      </trkpt>
      <trkpt lat="44.42806" lon="3.32774">
        <ele>858.27</ele>
        <time>2024-11-05T17:28:46.825Z</time>
      </trkpt>
      <trkpt lat="44.42796" lon="3.32762">
        <ele>859.33</ele>
        <time>2024-11-05T17:28:58.443Z</time>
      </trkpt>
      <trkpt lat="44.42782" lon="3.32747">
        <ele>860.43</ele>
        <time>2024-11-05T17:29:10.064Z</time>
      </trkpt>
      <trkpt lat="44.42775" lon="3.32739">
        <ele>861.47</ele>
        <time>2024-11-05T17:29:21.686Z</time>
      </trkpt>
      <trkpt lat="44.42765" lon="3.32727">
        <ele>862.54</ele>
        <time>2024-11-05T17:29:33.310Z</time>
      </trkpt>
      <trkpt lat="44.42757" lon="3.32718">
        <ele>863.59</ele>
        <time>2024-11-05T17:29:44.936Z</time>
      </trkpt>
      <trkpt lat="44.42736" lon="3.32698">
        <ele>864.63</ele>
        <time>2024-11-05T17:29:56.566Z</time>
      </trkpt>
      <trkpt lat="44.42726" lon="3.32688">
        <ele>865.64</ele>
        <time>2024-11-05T17:30:08.198Z</time>
      </trkpt>
      <trkpt lat="44.42702" lon="3.3267">
        <ele>866.67</ele>
        <time>2024-11-05T17:30:19.834Z</time>
      </trkpt>
      <trkpt lat="44.42684" lon="3.32662">
        <ele>867.69</ele>
        <time>2024-11-05T17:30:31.473Z</time>
      </trkpt>
      <trkpt lat="44.42667" lon="3.32655">
        <ele>868.67</ele>
        <time>2024-11-05T17:30:43.115Z</time>
      </trkpt>
      <trkpt lat="44.42641" lon="3.32644">
        <ele>869.71</ele>
        <time>2024-11-05T17:30:54.762Z</time>
      </trkpt>
      <trkpt lat="44.42611" lon="3.32631">
        <ele>870.74</ele>
        <time>2024-11-05T17:31:06.414Z</time>
      </trkpt>
      <trkpt lat="44.42586" lon="3.3262">
        <ele>871.67</ele>
        <time>2024-11-05T17:31:18.070Z</time>
      </trkpt>
      <trkpt lat="44.4258" lon="3.32617">
        <ele>872.56</ele>
        <time>2024-11-05T17:31:29.727Z</time>
      </trkpt>
      <trkpt lat="44.42569" lon="3.32611">
        <ele>873.41</ele>
        <time>2024-11-05T17:31:41.386Z</time>
      </trkpt>
      <trkpt lat="44.42549" lon="3.32598">
        <ele>874.25</ele>
        <time>2024-11-05T17:31:53.048Z</time>
      </trkpt>
      <trkpt lat="44.42545" lon="3.32596">
        <ele>875.04</ele>
        <time>2024-11-05T17:32:04.711Z</time>
      </trkpt>
      <trkpt lat="44.42537" lon="3.32589">
        <ele>875.82</ele>
        <time>2024-11-05T17:32:16.375Z</time>
      </trkpt>
      <trkpt lat="44.42526" lon="3.32578">
        <ele>876.56</ele>
        <time>2024-11-05T17:32:28.042Z</time>
      </trkpt>
      <trkpt lat="44.42519" lon="3.32571">
        <ele>877.27</ele>
        <time>2024-11-05T17:32:39.710Z</time>
      </trkpt>
      <trkpt lat="44.42518" lon="3.3257">
        <ele>877.92</ele>
        <time>2024-11-05T17:32:51.378Z</time>
      </trkpt>
      <trkpt lat="44.42513" lon="3.32563">
        <ele>878.55</ele>
        <time>2024-11-05T17:33:03.047Z</time>
      </trkpt>
      <trkpt lat="44.42504" lon="3.32551">
        <ele>879.15</ele>
        <time>2024-11-05T17:33:14.718Z</time>
      </trkpt>
      <trkpt lat="44.42496" lon="3.32541">
        <ele>879.67</ele>
        <time>2024-11-05T17:33:26.391Z</time>
      </trkpt>
      <trkpt lat="44.42491" lon="3.32533">
        <ele>880.15</ele>
        <time>2024-11-05T17:33:38.065Z</time>
      </trkpt>
      <trkpt lat="44.42483" lon="3.32518">
        <ele>880.58</ele>
        <time>2024-11-05T17:33:49.741Z</time>
      </trkpt>
      <trkpt lat="44.42478" lon="3.32508">
        <ele>880.97</ele>
        <time>2024-11-05T17:34:01.419Z</time>
      </trkpt>
      <trkpt lat="44.42472" lon="3.32498">
        <ele>881.32</ele>
        <time>2024-11-05T17:34:13.098Z</time>
      </trkpt>
      <trkpt lat="44.42464" lon="3.32484">
        <ele>881.64</ele>
        <time>2024-11-05T17:34:24.779Z</time>
      </trkpt>
      <trkpt lat="44.42461" lon="3.32479">
        <ele>881.91</ele>
        <time>2024-11-05T17:34:36.461Z</time>
      </trkpt>
      <trkpt lat="44.42455" lon="3.32469">
        <ele>882.15</ele>
        <time>2024-11-05T17:34:48.145Z</time>
      </trkpt>
      <trkpt lat="44.42447" lon="3.32454">
        <ele>882.34</ele>
        <time>2024-11-05T17:34:59.831Z</time>
      </trkpt>
      <trkpt lat="44.42442" lon="3.32445">
        <ele>882.48</ele>
        <time>2024-11-05T17:35:11.518Z</time>
      </trkpt>
      <trkpt lat="44.42441" lon="3.32444">
        <ele>882.56</ele>
        <time>2024-11-05T17:35:23.205Z</time>
      </trkpt>
      <trkpt lat="44.42434" lon="3.32437">
        <ele>882.62</ele>
        <time>2024-11-05T17:35:34.894Z</time>
      </trkpt>
      <trkpt lat="44.42424" lon="3.32426">
        <ele>882.62</ele>
        <time>2024-11-05T17:35:46.585Z</time>
      </trkpt>
      <trkpt lat="44.4242" lon="3.32422">
        <ele>882.58</ele>
        <time>2024-11-05T17:35:58.276Z</time>
      </trkpt>
      <trkpt lat="44.42412" lon="3.32416">
        <ele>882.49</ele>
        <time>2024-11-05T17:36:09.969Z</time>
      </trkpt>
      <trkpt lat="44.42404" lon="3.3241">
        <ele>882.35</ele>
        <time>2024-11-05T17:36:21.663Z</time>
      </trkpt>
      <trkpt lat="44.42402" lon="3.32408">
        <ele>882.19</ele>
        <time>2024-11-05T17:36:33.358Z</time>
      </trkpt>
      <trkpt lat="44.42396" lon="3.32405">
        <ele>881.98</ele>
        <time>2024-11-05T17:36:45.054Z</time>
      </trkpt>
      <trkpt lat="44.42388" lon="3.324">
        <ele>881.74</ele>
        <time>2024-11-05T17:36:56.751Z</time>
      </trkpt>
      <trkpt lat="44.42385" lon="3.32399">
        <ele>881.46</ele>
        <time>2024-11-05T17:37:08.449Z</time>
      </trkpt>
      <trkpt lat="44.42379" lon="3.32398">
        <ele>881.14</ele>
        <time>2024-11-05T17:37:20.148Z</time>
      </trkpt>
      <trkpt lat="44.42375" lon="3.32397">
        <ele>880.79</ele>
        <time>2024-11-05T17:37:31.847Z</time>
      </trkpt>
      <trkpt lat="44.42357" lon="3.32394">
        <ele>880.36</ele>
        <time>2024-11-05T17:37:43.549Z</time>
      </trkpt>
      <trkpt lat="44.42355" lon="3.32394">
        <ele>879.97</ele>
        <time>2024-11-05T17:37:55.251Z</time>
      </trkpt>
      <trkpt lat="44.42339" lon="3.32396">
        <ele>879.49</ele>
        <time>2024-11-05T17:38:06.956Z</time>
      </trkpt>
      <trkpt lat="44.42335" lon="3.32396">
        <ele>879.04</ele>
        <time>2024-11-05T17:38:18.662Z</time>
      </trkpt>
      <trkpt lat="44.42317" lon="3.32401">
        <ele>878.55</ele>
        <time>2024-11-05T17:38:30.371Z</time>
      </trkpt>
      <trkpt lat="44.42307" lon="3.32403">
        <ele>878.05</ele>
        <time>2024-11-05T17:38:42.081Z</time>
      </trkpt>
      <trkpt lat="44.42295" lon="3.32408">
        <ele>877.53</ele>
        <time>2024-11-05T17:38:53.793Z</time>
      </trkpt>
      <trkpt lat="44.42291" lon="3.3241">
        <ele>877.01</ele>
        <time>2024-11-05T17:39:05.506Z</time>
      </trkpt>
      <trkpt lat="44.42282" lon="3.32414">
        <ele>876.46</ele>
        <time>2024-11-05T17:39:17.220Z</time>
      </trkpt>
      <trkpt lat="44.42257" lon="3.32425">
        <ele>875.88</ele>
        <time>2024-11-05T17:39:28.939Z</time>
      </trkpt>
      <trkpt lat="44.42248" lon="3.32429">
        <ele>875.32</ele>
        <time>2024-11-05T17:39:40.659Z</time>
      </trkpt>
      <trkpt lat="44.4224" lon="3.32433">
        <ele>874.77</ele>
        <time>2024-11-05T17:39:52.381Z</time>
      </trkpt>
      <trkpt lat="44.42232" lon="3.32436">
        <ele>874.19</ele>
        <time>2024-11-05T17:40:04.104Z</time>
      </trkpt>
      <trkpt lat="44.42222" lon="3.32438">
        <ele>873.6</ele>
        <time>2024-11-05T17:40:15.828Z</time>
      </trkpt>
      <trkpt lat="44.42196" lon="3.32442">
        <ele>873.01</ele>
        <time>2024-11-05T17:40:27.557Z</time>
      </trkpt>
      <trkpt lat="44.42191" lon="3.32443">
        <ele>872.4</ele>
        <time>2024-11-05T17:40:39.286Z</time>
      </trkpt>
      <trkpt lat="44.42178" lon="3.32442">
        <ele>871.77</ele>
        <time>2024-11-05T17:40:51.018Z</time>
      </trkpt>
      <trkpt lat="44.42167" lon="3.32441">
        <ele>871.14</ele>
        <time>2024-11-05T17:41:02.751Z</time>
      </trkpt>
      <trkpt lat="44.42164" lon="3.3244">
        <ele>870.53</ele>
        <time>2024-11-05T17:41:14.485Z</time>
      </trkpt>
      <trkpt lat="44.42151" lon="3.32436">
        <ele>869.94</ele>
        <time>2024-11-05T17:41:26.221Z</time>
      </trkpt>
      <trkpt lat="44.42143" lon="3.32434">
        <ele>869.33</ele>
        <time>2024-11-05T17:41:37.958Z</time>
      </trkpt>
      <trkpt lat="44.42126" lon="3.32425">
        <ele>868.72</ele>
        <time>2024-11-05T17:41:49.698Z</time>
      </trkpt>
      <trkpt lat="44.42119" lon="3.32421">
        <ele>868.09</ele>
        <time>2024-11-05T17:42:01.439Z</time>
      </trkpt>
      <trkpt lat="44.42109" lon="3.32415">
        <ele>867.46</ele>
        <time>2024-11-05T17:42:13.182Z</time>
      </trkpt>
      <trkpt lat="44.42101" lon="3.32409">
        <ele>866.83</ele>
        <time>2024-11-05T17:42:24.927Z</time>
      </trkpt>
      <trkpt lat="44.42083" lon="3.32392">
        <ele>866.21</ele>
        <time>2024-11-05T17:42:36.675Z</time>
      </trkpt>
      <trkpt lat="44.42071" lon="3.32382">
        <ele>865.6</ele>
        <time>2024-11-05T17:42:48.425Z</time>
      </trkpt>
      <trkpt lat="44.42049" lon="3.32361">
        <ele>864.95</ele>
        <time>2024-11-05T17:43:00.180Z</time>
      </trkpt>
      <trkpt lat="44.42038" lon="3.32351">
        <ele>864.3</ele>
        <time>2024-11-05T17:43:11.937Z</time>
      </trkpt>
      <trkpt lat="44.42026" lon="3.32342">
        <ele>863.64</ele>
        <time>2024-11-05T17:43:23.696Z</time>
      </trkpt>
      <trkpt lat="44.42017" lon="3.32336">
        <ele>862.92</ele>
        <time>2024-11-05T17:43:35.456Z</time>
      </trkpt>
      <trkpt lat="44.42014" lon="3.32334">
        <ele>862.24</ele>
        <time>2024-11-05T17:43:47.217Z</time>
      </trkpt>
      <trkpt lat="44.41992" lon="3.32325">
        <ele>861.49</ele>
        <time>2024-11-05T17:43:58.982Z</time>
      </trkpt>
      <trkpt lat="44.4195" lon="3.32305">
        <ele>860.79</ele>
        <time>2024-11-05T17:44:10.754Z</time>
      </trkpt>
      <trkpt lat="44.41929" lon="3.32295">
        <ele>860.1</ele>
        <time>2024-11-05T17:44:22.529Z</time>
      </trkpt>
      <trkpt lat="44.4189" lon="3.32278">
        <ele>859.34</ele>
        <time>2024-11-05T17:44:34.311Z</time>
      </trkpt>
      <trkpt lat="44.41865" lon="3.32266">
        <ele>858.65</ele>
        <time>2024-11-05T17:44:46.097Z</time>
      </trkpt>
      <trkpt lat="44.41856" lon="3.32262">
        <ele>857.99</ele>
        <time>2024-11-05T17:44:57.884Z</time>
      </trkpt>
      <trkpt lat="44.41844" lon="3.32256">
        <ele>857.32</ele>
        <time>2024-11-05T17:45:09.674Z</time>
      </trkpt>
      <trkpt lat="44.41835" lon="3.32252">
        <ele>856.66</ele>
        <time>2024-11-05T17:45:21.465Z</time>
      </trkpt>
      <trkpt lat="44.4181" lon="3.3224">
        <ele>855.99</ele>
        <time>2024-11-05T17:45:33.260Z</time>
      </trkpt>
      <trkpt lat="44.41801" lon="3.32236">
        <ele>855.35</ele>
        <time>2024-11-05T17:45:45.057Z</time>
      </trkpt>
      <trkpt lat="44.41793" lon="3.32232">
        <ele>854.72</ele>
        <time>2024-11-05T17:45:56.855Z</time>
      </trkpt>
      <trkpt lat="44.41776" lon="3.32225">
        <ele>854.09</ele>
        <time>2024-11-05T17:46:08.656Z</time>
      </trkpt>
      <trkpt lat="44.41754" lon="3.32215">
        <ele>853.49</ele>
        <time>2024-11-05T17:46:20.461Z</time>
      </trkpt>
      <trkpt lat="44.41742" lon="3.32209">
        <ele>852.89</ele>
        <time>2024-11-05T17:46:32.268Z</time>
      </trkpt>
      <trkpt lat="44.41733" lon="3.32205">
        <ele>852.3</ele>
        <time>2024-11-05T17:46:44.076Z</time>
      </trkpt>
      <trkpt lat="44.41712" lon="3.32195">
        <ele>851.73</ele>
        <time>2024-11-05T17:46:55.888Z</time>
      </trkpt>
      <trkpt lat="44.4169" lon="3.32185">
        <ele>851.15</ele>
        <time>2024-11-05T17:47:07.704Z</time>
      </trkpt>
      <trkpt lat="44.41687" lon="3.32183">
        <ele>850.6</ele>
        <time>2024-11-05T17:47:19.520Z</time>
      </trkpt>
      <trkpt lat="44.41661" lon="3.32171">
        <ele>850.05</ele>
        <time>2024-11-05T17:47:31.340Z</time>
      </trkpt>
      <trkpt lat="44.41648" lon="3.32165">
        <ele>849.49</ele>
        <time>2024-11-05T17:47:43.163Z</time>
      </trkpt>
      <trkpt lat="44.41623" lon="3.32153">
        <ele>848.92</ele>
        <time>2024-11-05T17:47:54.990Z</time>
      </trkpt>
      <trkpt lat="44.41614" lon="3.32149">
        <ele>848.41</ele>
        <time>2024-11-05T17:48:06.818Z</time>
      </trkpt>
      <trkpt lat="44.41597" lon="3.3214">
        <ele>847.91</ele>
        <time>2024-11-05T17:48:18.649Z</time>
      </trkpt>
      <trkpt lat="44.41559" lon="3.32122">
        <ele>847.44</ele>
        <time>2024-11-05T17:48:30.487Z</time>
      </trkpt>
      <trkpt lat="44.41517" lon="3.32102">
        <ele>846.99</ele>
        <time>2024-11-05T17:48:42.332Z</time>
      </trkpt>
      <trkpt lat="44.41508" lon="3.32098">
        <ele>846.55</ele>
        <time>2024-11-05T17:48:54.178Z</time>
      </trkpt>
      <trkpt lat="44.41504" lon="3.32096">
        <ele>846.14</ele>
        <time>2024-11-05T17:49:06.025Z</time>
      </trkpt>
      <trkpt lat="44.415" lon="3.32093">
        <ele>845.74</ele>
        <time>2024-11-05T17:49:17.873Z</time>
      </trkpt>
      <trkpt lat="44.41491" lon="3.32089">
        <ele>845.35</ele>
        <time>2024-11-05T17:49:29.722Z</time>
      </trkpt>
      <trkpt lat="44.41444" lon="3.32067">
        <ele>844.95</ele>
        <time>2024-11-05T17:49:41.579Z</time>
      </trkpt>
      <trkpt lat="44.41436" lon="3.32063">
        <ele>844.6</ele>
        <time>2024-11-05T17:49:53.438Z</time>
      </trkpt>
      <trkpt lat="44.41423" lon="3.32057">
        <ele>844.27</ele>
        <time>2024-11-05T17:50:05.299Z</time>
      </trkpt>
      <trkpt lat="44.4141" lon="3.32051">
        <ele>843.95</ele>
        <time>2024-11-05T17:50:17.162Z</time>
      </trkpt>
      <trkpt lat="44.41398" lon="3.32044">
        <ele>843.64</ele>
        <time>2024-11-05T17:50:29.027Z</time>
      </trkpt>
      <trkpt lat="44.41389" lon="3.3204">
        <ele>843.36</ele>
        <time>2024-11-05T17:50:40.893Z</time>
      </trkpt>
      <trkpt lat="44.41368" lon="3.3203">
        <ele>843.08</ele>
        <time>2024-11-05T17:50:52.763Z</time>
      </trkpt>
      <trkpt lat="44.41338" lon="3.32016">
        <ele>842.8</ele>
        <time>2024-11-05T17:51:04.638Z</time>
      </trkpt>
      <trkpt lat="44.413" lon="3.31997">
        <ele>842.55</ele>
        <time>2024-11-05T17:51:16.520Z</time>
      </trkpt>
      <trkpt lat="44.41249" lon="3.31973">
        <ele>842.42</ele>
        <time>2024-11-05T17:51:28.410Z</time>
      </trkpt>
      <trkpt lat="44.41232" lon="3.31965">
        <ele>842.24</ele>
        <time>2024-11-05T17:51:40.303Z</time>
      </trkpt>
      <trkpt lat="44.41224" lon="3.31961">
        <ele>842.05</ele>
        <time>2024-11-05T17:51:52.197Z</time>
      </trkpt>
      <trkpt lat="44.41214" lon="3.31956">
        <ele>841.86</ele>
        <time>2024-11-05T17:52:04.093Z</time>
      </trkpt>
      <trkpt lat="44.41211" lon="3.31954">
        <ele>841.68</ele>
        <time>2024-11-05T17:52:15.990Z</time>
      </trkpt>
      <trkpt lat="44.4119" lon="3.31943">
        <ele>841.5</ele>
        <time>2024-11-05T17:52:27.890Z</time>
      </trkpt>
      <trkpt lat="44.41179" lon="3.31937">
        <ele>841.32</ele>
        <time>2024-11-05T17:52:39.792Z</time>
      </trkpt>
      <trkpt lat="44.41174" lon="3.31934">
        <ele>841.15</ele>
        <time>2024-11-05T17:52:51.695Z</time>
      </trkpt>
      <trkpt lat="44.41149" lon="3.31918">
        <ele>840.92</ele>
        <time>2024-11-05T17:53:03.602Z</time>
      </trkpt>
      <trkpt lat="44.41144" lon="3.31915">
        <ele>840.77</ele>
        <time>2024-11-05T17:53:15.510Z</time>
      </trkpt>
      <trkpt lat="44.41138" lon="3.31909">
        <ele>840.62</ele>
        <time>2024-11-05T17:53:27.419Z</time>
      </trkpt>
      <trkpt lat="44.41115" lon="3.31889">
        <ele>840.42</ele>
        <time>2024-11-05T17:53:39.333Z</time>
      </trkpt>
      <trkpt lat="44.41089" lon="3.31866">
        <ele>840.3</ele>
        <time>2024-11-05T17:53:51.252Z</time>
      </trkpt>
      <trkpt lat="44.41074" lon="3.31852">
        <ele>840.23</ele>
        <time>2024-11-05T17:54:03.174Z</time>
      </trkpt>
      <trkpt lat="44.41062" lon="3.31842">
        <ele>840.17</ele>
        <time>2024-11-05T17:54:15.098Z</time>
      </trkpt>
      <trkpt lat="44.41051" lon="3.31832">
        <ele>840.12</ele>
        <time>2024-11-05T17:54:27.024Z</time>
      </trkpt>
      <trkpt lat="44.4104" lon="3.31822">
        <ele>840.09</ele>
        <time>2024-11-05T17:54:38.952Z</time>
      </trkpt>
      <trkpt lat="44.41025" lon="3.31809">
        <ele>840.07</ele>
        <time>2024-11-05T17:54:50.883Z</time>
      </trkpt>
      <trkpt lat="44.4101" lon="3.31793">
        <ele>840.09</ele>
        <time>2024-11-05T17:55:02.817Z</time>
      </trkpt>
      <trkpt lat="44.40993" lon="3.31773">
        <ele>840.12</ele>
        <time>2024-11-05T17:55:14.754Z</time>
      </trkpt>
      <trkpt lat="44.40984" lon="3.31751">
        <ele>840.14</ele>
        <time>2024-11-05T17:55:26.694Z</time>
      </trkpt>
      <trkpt lat="44.40974" lon="3.31723">
        <ele>840.16</ele>
        <time>2024-11-05T17:55:38.638Z</time>
      </trkpt>
      <trkpt lat="44.4096" lon="3.31688">
        <ele>840.17</ele>
        <time>2024-11-05T17:55:50.586Z</time>
      </trkpt>
      <trkpt lat="44.40956" lon="3.31673">
        <ele>840.24</ele>
        <time>2024-11-05T17:56:02.536Z</time>
      </trkpt>
      <trkpt lat="44.40939" lon="3.31618">
        <ele>840.36</ele>
        <time>2024-11-05T17:56:14.493Z</time>
      </trkpt>
      <trkpt lat="44.40937" lon="3.31603">
        <ele>840.49</ele>
        <time>2024-11-05T17:56:26.452Z</time>
      </trkpt>
      <trkpt lat="44.40932" lon="3.31566">
        <ele>840.62</ele>
        <time>2024-11-05T17:56:38.415Z</time>
      </trkpt>
      <trkpt lat="44.40928" lon="3.31537">
        <ele>840.73</ele>
        <time>2024-11-05T17:56:50.382Z</time>
      </trkpt>
      <trkpt lat="44.40928" lon="3.31522">
        <ele>840.83</ele>
        <time>2024-11-05T17:57:02.350Z</time>
      </trkpt>
      <trkpt lat="44.40927" lon="3.31491">
        <ele>840.93</ele>
        <time>2024-11-05T17:57:14.322Z</time>
      </trkpt>
      <trkpt lat="44.40927" lon="3.31466">
        <ele>841.06</ele>
        <time>2024-11-05T17:57:26.297Z</time>
      </trkpt>
      <trkpt lat="44.40927" lon="3.31453">
        <ele>841.24</ele>
        <time>2024-11-05T17:57:38.273Z</time>
      </trkpt>
      <trkpt lat="44.40926" lon="3.31422">
        <ele>841.42</ele>
        <time>2024-11-05T17:57:50.253Z</time>
      </trkpt>
      <trkpt lat="44.40926" lon="3.31391">
        <ele>841.65</ele>
        <time>2024-11-05T17:58:02.236Z</time>
      </trkpt>
      <trkpt lat="44.40925" lon="3.31334">
        <ele>841.89</ele>
        <time>2024-11-05T17:58:14.226Z</time>
      </trkpt>
      <trkpt lat="44.40924" lon="3.31291">
        <ele>842.06</ele>
        <time>2024-11-05T17:58:26.221Z</time>
      </trkpt>
      <trkpt lat="44.40924" lon="3.31284">
        <ele>842.26</ele>
        <time>2024-11-05T17:58:38.217Z</time>
      </trkpt>
      <trkpt lat="44.40923" lon="3.31259">
        <ele>842.46</ele>
        <time>2024-11-05T17:58:50.216Z</time>
      </trkpt>
      <trkpt lat="44.40922" lon="3.31234">
        <ele>842.69</ele>
        <time>2024-11-05T17:59:02.217Z</time>
      </trkpt>
      <trkpt lat="44.40921" lon="3.31222">
        <ele>842.91</ele>
        <time>2024-11-05T17:59:14.220Z</time>
      </trkpt>
      <trkpt lat="44.40924" lon="3.31194">
        <ele>843.17</ele>
        <time>2024-11-05T17:59:26.226Z</time>
      </trkpt>
      <trkpt lat="44.40932" lon="3.31161">
        <ele>843.41</ele>
        <time>2024-11-05T17:59:38.236Z</time>
      </trkpt>
      <trkpt lat="44.40938" lon="3.31137">
        <ele>843.66</ele>
        <time>2024-11-05T17:59:50.249Z</time>
      </trkpt>
      <trkpt lat="44.40942" lon="3.31113">
        <ele>843.91</ele>
        <time>2024-11-05T18:00:02.265Z</time>
      </trkpt>
      <trkpt lat="44.40942" lon="3.3111">
        <ele>844.11</ele>
        <time>2024-11-05T18:00:14.281Z</time>
      </trkpt>
      <trkpt lat="44.40942" lon="3.311">
        <ele>844.31</ele>
        <time>2024-11-05T18:00:26.298Z</time>
      </trkpt>
      <trkpt lat="44.40942" lon="3.31081">
        <ele>844.51</ele>
        <time>2024-11-05T18:00:38.317Z</time>
      </trkpt>
      <trkpt lat="44.40941" lon="3.31069">
        <ele>844.68</ele>
        <time>2024-11-05T18:00:50.338Z</time>
      </trkpt>
      <trkpt lat="44.40939" lon="3.31054">
        <ele>844.84</ele>
        <time>2024-11-05T18:01:02.361Z</time>
      </trkpt>
      <trkpt lat="44.40933" lon="3.31027">
        <ele>844.98</ele>
        <time>2024-11-05T18:01:14.387Z</time>
      </trkpt>
      <trkpt lat="44.40929" lon="3.31009">
        <ele>845.08</ele>
        <time>2024-11-05T18:01:26.415Z</time>
      </trkpt>
      <trkpt lat="44.40925" lon="3.30991">
        <ele>845.2</ele>
        <time>2024-11-05T18:01:38.445Z</time>
      </trkpt>
      <trkpt lat="44.40919" lon="3.30967">
        <ele>845.25</ele>
        <time>2024-11-05T18:01:50.478Z</time>
      </trkpt>
      <trkpt lat="44.40908" lon="3.30919">
        <ele>845.25</ele>
        <time>2024-11-05T18:02:02.517Z</time>
      </trkpt>
      <trkpt lat="44.40907" lon="3.30913">
        <ele>845.31</ele>
        <time>2024-11-05T18:02:14.557Z</time>
      </trkpt>
      <trkpt lat="44.40903" lon="3.30882">
        <ele>845.34</ele>
        <time>2024-11-05T18:02:26.600Z</time>
      </trkpt>
      <trkpt lat="44.40901" lon="3.30867">
        <ele>845.36</ele>
        <time>2024-11-05T18:02:38.645Z</time>
      </trkpt>
      <trkpt lat="44.40902" lon="3.30849">
        <ele>845.37</ele>
        <time>2024-11-05T18:02:50.692Z</time>
      </trkpt>
      <trkpt lat="44.40907" lon="3.30834">
        <ele>845.36</ele>
        <time>2024-11-05T18:03:02.741Z</time>
      </trkpt>
      <trkpt lat="44.40922" lon="3.30781">
        <ele>845.4</ele>
        <time>2024-11-05T18:03:14.796Z</time>
      </trkpt>
      <trkpt lat="44.40925" lon="3.3077">
        <ele>845.32</ele>
        <time>2024-11-05T18:03:26.853Z</time>
      </trkpt>
      <trkpt lat="44.40927" lon="3.30763">
        <ele>845.25</ele>
        <time>2024-11-05T18:03:38.911Z</time>
      </trkpt>
      <trkpt lat="44.40929" lon="3.30752">
        <ele>845.13</ele>
        <time>2024-11-05T18:03:50.970Z</time>
      </trkpt>
      <trkpt lat="44.40932" lon="3.30738">
        <ele>844.98</ele>
        <time>2024-11-05T18:04:03.031Z</time>
      </trkpt>
      <trkpt lat="44.40933" lon="3.30721">
        <ele>844.83</ele>
        <time>2024-11-05T18:04:15.094Z</time>
      </trkpt>
      <trkpt lat="44.40933" lon="3.30709">
        <ele>844.67</ele>
        <time>2024-11-05T18:04:27.158Z</time>
      </trkpt>
      <trkpt lat="44.40934" lon="3.30693">
        <ele>844.46</ele>
        <time>2024-11-05T18:04:39.224Z</time>
      </trkpt>
      <trkpt lat="44.40926" lon="3.30648">
        <ele>844.29</ele>
        <time>2024-11-05T18:04:51.295Z</time>
      </trkpt>
      <trkpt lat="44.40921" lon="3.30624">
        <ele>844.08</ele>
        <time>2024-11-05T18:05:03.369Z</time>
      </trkpt>
      <trkpt lat="44.4092" lon="3.30618">
        <ele>843.83</ele>
        <time>2024-11-05T18:05:15.444Z</time>
      </trkpt>
      <trkpt lat="44.40912" lon="3.30603">
        <ele>843.58</ele>
        <time>2024-11-05T18:05:27.521Z</time>
      </trkpt>
      <trkpt lat="44.40905" lon="3.3059">
        <ele>843.32</ele>
        <time>2024-11-05T18:05:39.600Z</time>
      </trkpt>
      <trkpt lat="44.40891" lon="3.30571">
        <ele>843.06</ele>
        <time>2024-11-05T18:05:51.682Z</time>
      </trkpt>
      <trkpt lat="44.40884" lon="3.30563">
        <ele>842.74</ele>
        <time>2024-11-05T18:06:03.765Z</time>
      </trkpt>
      <trkpt lat="44.40882" lon="3.3056">
        <ele>842.39</ele>
        <time>2024-11-05T18:06:15.849Z</time>
      </trkpt>
      <trkpt lat="44.40872" lon="3.30544">
        <ele>841.99</ele>
        <time>2024-11-05T18:06:27.935Z</time>
      </trkpt>
      <trkpt lat="44.40854" lon="3.30517">
        <ele>841.52</ele>
        <time>2024-11-05T18:06:40.025Z</time>
      </trkpt>
      <trkpt lat="44.40848" lon="3.30507">
        <ele>841.11</ele>
        <time>2024-11-05T18:06:52.117Z</time>
      </trkpt>
      <trkpt lat="44.40845" lon="3.30502">
        <ele>840.68</ele>
        <time>2024-11-05T18:07:04.210Z</time>
      </trkpt>
      <trkpt lat="44.40844" lon="3.30497">
        <ele>840.23</ele>
        <time>2024-11-05T18:07:16.303Z</time>
      </trkpt>
      <trkpt lat="44.40835" lon="3.30468">
        <ele>839.74</ele>
        <time>2024-11-05T18:07:28.400Z</time>
      </trkpt>
      <trkpt lat="44.40831" lon="3.30456">
        <ele>839.24</ele>
        <time>2024-11-05T18:07:40.498Z</time>
      </trkpt>
      <trkpt lat="44.4083" lon="3.30451">
        <ele>838.73</ele>
        <time>2024-11-05T18:07:52.597Z</time>
      </trkpt>
      <trkpt lat="44.40826" lon="3.30433">
        <ele>838.21</ele>
        <time>2024-11-05T18:08:04.698Z</time>
      </trkpt>
      <trkpt lat="44.40817" lon="3.30391">
        <ele>837.68</ele>
        <time>2024-11-05T18:08:16.804Z</time>
      </trkpt>
      <trkpt lat="44.40813" lon="3.30373">
        <ele>837.11</ele>
        <time>2024-11-05T18:08:28.912Z</time>
      </trkpt>
      <trkpt lat="44.40803" lon="3.30325">
        <ele>836.42</ele>
        <time>2024-11-05T18:08:41.026Z</time>
      </trkpt>
      <trkpt lat="44.40801" lon="3.30317">
        <ele>835.81</ele>
        <time>2024-11-05T18:08:53.141Z</time>
      </trkpt>
      <trkpt lat="44.408" lon="3.30313">
        <ele>835.2</ele>
        <time>2024-11-05T18:09:05.256Z</time>
      </trkpt>
      <trkpt lat="44.40793" lon="3.30289">
        <ele>834.52</ele>
        <time>2024-11-05T18:09:17.374Z</time>
      </trkpt>
      <trkpt lat="44.4078" lon="3.30273">
        <ele>833.86</ele>
        <time>2024-11-05T18:09:29.495Z</time>
      </trkpt>
      <trkpt lat="44.40755" lon="3.3026">
        <ele>833.24</ele>
        <time>2024-11-05T18:09:41.620Z</time>
      </trkpt>
      <trkpt lat="44.40716" lon="3.30246">
        <ele>832.62</ele>
        <time>2024-11-05T18:09:53.752Z</time>
      </trkpt>
      <trkpt lat="44.40699" lon="3.3024">
        <ele>832.02</ele>
        <time>2024-11-05T18:10:05.887Z</time>
      </trkpt>
      <trkpt lat="44.40681" lon="3.30234">
        <ele>831.39</ele>
        <time>2024-11-05T18:10:18.025Z</time>
      </trkpt>
      <trkpt lat="44.40676" lon="3.30232">
        <ele>830.77</ele>
        <time>2024-11-05T18:10:30.164Z</time>
      </trkpt>
      <trkpt lat="44.4066" lon="3.30224">
        <ele>830.14</ele>
        <time>2024-11-05T18:10:42.305Z</time>
      </trkpt>
      <trkpt lat="44.40614" lon="3.302">
        <ele>829.41</ele>
        <time>2024-11-05T18:10:54.454Z</time>
      </trkpt>
      <trkpt lat="44.40593" lon="3.30189">
        <ele>828.72</ele>
        <time>2024-11-05T18:11:06.607Z</time>
      </trkpt>
      <trkpt lat="44.40588" lon="3.30186">
        <ele>828.09</ele>
        <time>2024-11-05T18:11:18.761Z</time>
      </trkpt>
      <trkpt lat="44.40581" lon="3.30181">
        <ele>827.46</ele>
        <time>2024-11-05T18:11:30.916Z</time>
      </trkpt>
      <trkpt lat="44.40573" lon="3.30175">
        <ele>826.81</ele>
        <time>2024-11-05T18:11:43.072Z</time>
      </trkpt>
      <trkpt lat="44.40565" lon="3.3017">
        <ele>826.17</ele>
        <time>2024-11-05T18:11:55.230Z</time>
      </trkpt>
      <trkpt lat="44.40565" lon="3.3017">
        <ele>825.58</ele>
        <time>2024-11-05T18:12:07.388Z</time>
      </trkpt>
      <trkpt lat="44.40554" lon="3.30155">
        <ele>824.92</ele>
        <time>2024-11-05T18:12:19.548Z</time>
      </trkpt>
      <trkpt lat="44.40547" lon="3.30137">
        <ele>824.32</ele>
        <time>2024-11-05T18:12:31.710Z</time>
      </trkpt>
      <trkpt lat="44.40547" lon="3.30122">
        <ele>823.74</ele>
        <time>2024-11-05T18:12:43.874Z</time>
      </trkpt>
      <trkpt lat="44.40547" lon="3.30114">
        <ele>823.19</ele>
        <time>2024-11-05T18:12:56.039Z</time>
      </trkpt>
      <trkpt lat="44.4055" lon="3.30097">
        <ele>822.64</ele>
        <time>2024-11-05T18:13:08.206Z</time>
      </trkpt>
      <trkpt lat="44.40552" lon="3.30079">
        <ele>822.1</ele>
        <time>2024-11-05T18:13:20.375Z</time>
      </trkpt>
      <trkpt lat="44.40555" lon="3.3006">
        <ele>821.61</ele>
        <time>2024-11-05T18:13:32.546Z</time>
      </trkpt>
      <trkpt lat="44.40555" lon="3.30054">
        <ele>821.11</ele>
        <time>2024-11-05T18:13:44.718Z</time>
      </trkpt>
      <trkpt lat="44.40556" lon="3.30033">
        <ele>820.63</ele>
        <time>2024-11-05T18:13:56.893Z</time>
      </trkpt>
      <trkpt lat="44.40555" lon="3.30011">
        <ele>820.14</ele>
        <time>2024-11-05T18:14:09.070Z</time>
      </trkpt>
      <trkpt lat="44.40554" lon="3.29988">
        <ele>819.65</ele>
        <time>2024-11-05T18:14:21.250Z</time>
      </trkpt>
      <trkpt lat="44.40547" lon="3.29963">
        <ele>819.15</ele>
        <time>2024-11-05T18:14:33.433Z</time>
      </trkpt>
      <trkpt lat="44.40539" lon="3.29936">
        <ele>818.63</ele>
        <time>2024-11-05T18:14:45.619Z</time>
      </trkpt>
      <trkpt lat="44.40537" lon="3.29934">
        <ele>818.16</ele>
        <time>2024-11-05T18:14:57.805Z</time>
      </trkpt>
      <trkpt lat="44.4052" lon="3.29914">
        <ele>817.62</ele>
        <time>2024-11-05T18:15:09.995Z</time>
      </trkpt>
      <trkpt lat="44.4051" lon="3.29902">
        <ele>817.15</ele>
        <time>2024-11-05T18:15:22.187Z</time>
      </trkpt>
      <trkpt lat="44.405" lon="3.29891">
        <ele>816.68</ele>
        <time>2024-11-05T18:15:34.381Z</time>
      </trkpt>
      <trkpt lat="44.40499" lon="3.2989">
        <ele>816.24</ele>
        <time>2024-11-05T18:15:46.575Z</time>
      </trkpt>
      <trkpt lat="44.40489" lon="3.29879">
        <ele>815.81</ele>
        <time>2024-11-05T18:15:58.772Z</time>
      </trkpt>
      <trkpt lat="44.40478" lon="3.29868">
        <ele>815.4</ele>
        <time>2024-11-05T18:16:10.971Z</time>
      </trkpt>
      <trkpt lat="44.40465" lon="3.29842">
        <ele>815</ele>
        <time>2024-11-05T18:16:23.173Z</time>
      </trkpt>
      <trkpt lat="44.40463" lon="3.29837">
        <ele>814.57</ele>
        <time>2024-11-05T18:16:35.376Z</time>
      </trkpt>
      <trkpt lat="44.4046" lon="3.29818">
        <ele>814.14</ele>
        <time>2024-11-05T18:16:47.581Z</time>
      </trkpt>
      <trkpt lat="44.40456" lon="3.298">
        <ele>813.72</ele>
        <time>2024-11-05T18:16:59.788Z</time>
      </trkpt>
      <trkpt lat="44.40451" lon="3.2977">
        <ele>813.29</ele>
        <time>2024-11-05T18:17:11.999Z</time>
      </trkpt>
      <trkpt lat="44.40442" lon="3.29721">
        <ele>812.8</ele>
        <time>2024-11-05T18:17:24.216Z</time>
      </trkpt>
      <trkpt lat="44.40436" lon="3.29691">
        <ele>812.34</ele>
        <time>2024-11-05T18:17:36.436Z</time>
      </trkpt>
      <trkpt lat="44.40433" lon="3.29673">
        <ele>811.9</ele>
        <time>2024-11-05T18:17:48.658Z</time>
      </trkpt>
      <trkpt lat="44.40425" lon="3.2963">
        <ele>811.49</ele>
        <time>2024-11-05T18:18:00.885Z</time>
      </trkpt>
      <trkpt lat="44.4042" lon="3.29606">
        <ele>811.02</ele>
        <time>2024-11-05T18:18:13.115Z</time>
      </trkpt>
      <trkpt lat="44.40416" lon="3.29583">
        <ele>810.54</ele>
        <time>2024-11-05T18:18:25.348Z</time>
      </trkpt>
      <trkpt lat="44.40415" lon="3.29576">
        <ele>810.06</ele>
        <time>2024-11-05T18:18:37.582Z</time>
      </trkpt>
      <trkpt lat="44.40409" lon="3.29533">
        <ele>809.52</ele>
        <time>2024-11-05T18:18:49.821Z</time>
      </trkpt>
      <trkpt lat="44.40409" lon="3.29526">
        <ele>809.05</ele>
        <time>2024-11-05T18:19:02.061Z</time>
      </trkpt>
      <trkpt lat="44.40408" lon="3.29514">
        <ele>808.53</ele>
        <time>2024-11-05T18:19:14.302Z</time>
      </trkpt>
      <trkpt lat="44.40405" lon="3.29476">
        <ele>807.99</ele>
        <time>2024-11-05T18:19:26.547Z</time>
      </trkpt>
      <trkpt lat="44.40404" lon="3.29458">
        <ele>807.47</ele>
        <time>2024-11-05T18:19:38.795Z</time>
      </trkpt>
      <trkpt lat="44.40402" lon="3.29433">
        <ele>806.95</ele>
        <time>2024-11-05T18:19:51.045Z</time>
      </trkpt>
      <trkpt lat="44.40401" lon="3.29421">
        <ele>806.46</ele>
        <time>2024-11-05T18:20:03.297Z</time>
      </trkpt>
      <trkpt lat="44.40396" lon="3.29393">
        <ele>805.92</ele>
        <time>2024-11-05T18:20:15.552Z</time>
      </trkpt>
      <trkpt lat="44.40389" lon="3.29367">
        <ele>805.43</ele>
        <time>2024-11-05T18:20:27.810Z</time>
      </trkpt>
      <trkpt lat="44.40372" lon="3.29329">
        <ele>805.02</ele>
        <time>2024-11-05T18:20:40.073Z</time>
      </trkpt>
      <trkpt lat="44.40356" lon="3.29291">
        <ele>804.49</ele>
        <time>2024-11-05T18:20:52.341Z</time>
      </trkpt>
      <trkpt lat="44.40347" lon="3.2927">
        <ele>803.99</ele>
        <time>2024-11-05T18:21:04.612Z</time>
      </trkpt>
      <trkpt lat="44.40337" lon="3.29249">
        <ele>803.43</ele>
        <time>2024-11-05T18:21:16.886Z</time>
      </trkpt>
      <trkpt lat="44.40333" lon="3.29238">
        <ele>802.94</ele>
        <time>2024-11-05T18:21:29.162Z</time>
      </trkpt>
      <trkpt lat="44.40319" lon="3.29206">
        <ele>802.46</ele>
        <time>2024-11-05T18:21:41.442Z</time>
      </trkpt>
      <trkpt lat="44.4031" lon="3.29184">
        <ele>802.02</ele>
        <time>2024-11-05T18:21:53.725Z</time>
      </trkpt>
      <trkpt lat="44.40305" lon="3.29173">
        <ele>801.56</ele>
        <time>2024-11-05T18:22:06.009Z</time>
      </trkpt>
      <trkpt lat="44.40298" lon="3.29157">
        <ele>801.13</ele>
        <time>2024-11-05T18:22:18.295Z</time>
      </trkpt>
      <trkpt lat="44.40286" lon="3.29131">
        <ele>800.72</ele>
        <time>2024-11-05T18:22:30.585Z</time>
      </trkpt>
      <trkpt lat="44.40282" lon="3.29121">
        <ele>800.26</ele>
        <time>2024-11-05T18:22:42.876Z</time>
      </trkpt>
      <trkpt lat="44.40282" lon="3.2912">
        <ele>799.84</ele>
        <time>2024-11-05T18:22:55.167Z</time>
      </trkpt>
      <trkpt lat="44.40276" lon="3.29103">
        <ele>799.39</ele>
        <time>2024-11-05T18:23:07.461Z</time>
      </trkpt>
      <trkpt lat="44.40271" lon="3.29089">
        <ele>798.94</ele>
        <time>2024-11-05T18:23:19.756Z</time>
      </trkpt>
      <trkpt lat="44.40267" lon="3.29091">
        <ele>798.56</ele>
        <time>2024-11-05T18:23:32.052Z</time>
      </trkpt>
      <trkpt lat="44.40264" lon="3.29092">
        <ele>798.2</ele>
        <time>2024-11-05T18:23:44.349Z</time>
      </trkpt>
      <trkpt lat="44.40257" lon="3.29086">
        <ele>797.82</ele>
        <time>2024-11-05T18:23:56.647Z</time>
      </trkpt>
      <trkpt lat="44.40247" lon="3.29092">
        <ele>797.5</ele>
        <time>2024-11-05T18:24:08.947Z</time>
      </trkpt>
      <trkpt lat="44.40238" lon="3.29097">
        <ele>797.18</ele>
        <time>2024-11-05T18:24:21.248Z</time>
      </trkpt>
      <trkpt lat="44.40232" lon="3.291">
        <ele>796.89</ele>
        <time>2024-11-05T18:24:33.550Z</time>
      </trkpt>
      <trkpt lat="44.40211" lon="3.29117">
        <ele>796.65</ele>
        <time>2024-11-05T18:24:45.856Z</time>
      </trkpt>
      <trkpt lat="44.40208" lon="3.29122">
        <ele>796.38</ele>
        <time>2024-11-05T18:24:58.163Z</time>
      </trkpt>
      <trkpt lat="44.40189" lon="3.29148">
        <ele>796.1</ele>
        <time>2024-11-05T18:25:10.474Z</time>
      </trkpt>
      <trkpt lat="44.40182" lon="3.29157">
        <ele>795.83</ele>
        <time>2024-11-05T18:25:22.787Z</time>
      </trkpt>
      <trkpt lat="44.40164" lon="3.29184">
        <ele>795.5</ele>
        <time>2024-11-05T18:25:35.104Z</time>
      </trkpt>
      <trkpt lat="44.40155" lon="3.29198">
        <ele>795.33</ele>
        <time>2024-11-05T18:25:47.423Z</time>
      </trkpt>
      <trkpt lat="44.40149" lon="3.29207">
        <ele>795.17</ele>
        <time>2024-11-05T18:25:59.743Z</time>
      </trkpt>
      <trkpt lat="44.40143" lon="3.29216">
        <ele>795.01</ele>
        <time>2024-11-05T18:26:12.065Z</time>
      </trkpt>
      <trkpt lat="44.40135" lon="3.29229">
        <ele>794.91</ele>
        <time>2024-11-05T18:26:24.389Z</time>
      </trkpt>
      <trkpt lat="44.40131" lon="3.29234">
        <ele>794.84</ele>
        <time>2024-11-05T18:26:36.714Z</time>
      </trkpt>
      <trkpt lat="44.40125" lon="3.29243">
        <ele>794.75</ele>
        <time>2024-11-05T18:26:49.040Z</time>
      </trkpt>
      <trkpt lat="44.40119" lon="3.29252">
        <ele>794.7</ele>
        <time>2024-11-05T18:27:01.367Z</time>
      </trkpt>
      <trkpt lat="44.40112" lon="3.29261">
        <ele>794.67</ele>
        <time>2024-11-05T18:27:13.696Z</time>
      </trkpt>
      <trkpt lat="44.40109" lon="3.29265">
        <ele>794.66</ele>
        <time>2024-11-05T18:27:26.026Z</time>
      </trkpt>
      <trkpt lat="44.40106" lon="3.29269">
        <ele>794.71</ele>
        <time>2024-11-05T18:27:38.356Z</time>
      </trkpt>
      <trkpt lat="44.40098" lon="3.29276">
        <ele>794.78</ele>
        <time>2024-11-05T18:27:50.688Z</time>
      </trkpt>
      <trkpt lat="44.40088" lon="3.29288">
        <ele>794.86</ele>
        <time>2024-11-05T18:28:03.022Z</time>
      </trkpt>
      <trkpt lat="44.40081" lon="3.29295">
        <ele>794.96</ele>
        <time>2024-11-05T18:28:15.357Z</time>
      </trkpt>
      <trkpt lat="44.40079" lon="3.29297">
        <ele>795.13</ele>
        <time>2024-11-05T18:28:27.693Z</time>
      </trkpt>
      <trkpt lat="44.40073" lon="3.29301">
        <ele>795.32</ele>
        <time>2024-11-05T18:28:40.030Z</time>
      </trkpt>
      <trkpt lat="44.40064" lon="3.29305">
        <ele>795.56</ele>
        <time>2024-11-05T18:28:52.368Z</time>
      </trkpt>
      <trkpt lat="44.4006" lon="3.29307">
        <ele>795.83</ele>
        <time>2024-11-05T18:29:04.707Z</time>
      </trkpt>
      <trkpt lat="44.40056" lon="3.2931">
        <ele>796.12</ele>
        <time>2024-11-05T18:29:17.047Z</time>
      </trkpt>
      <trkpt lat="44.40047" lon="3.29314">
        <ele>796.47</ele>
        <time>2024-11-05T18:29:29.388Z</time>
      </trkpt>
      <trkpt lat="44.40046" lon="3.29315">
        <ele>796.83</ele>
        <time>2024-11-05T18:29:41.729Z</time>
      </trkpt>
      <trkpt lat="44.40034" lon="3.29319">
        <ele>797.27</ele>
        <time>2024-11-05T18:29:54.072Z</time>
      </trkpt>
      <trkpt lat="44.40021" lon="3.29323">
        <ele>797.75</ele>
        <time>2024-11-05T18:30:06.417Z</time>
      </trkpt>
      <trkpt lat="44.40008" lon="3.29328">
        <ele>798.24</ele>
        <time>2024-11-05T18:30:18.765Z</time>
      </trkpt>
      <trkpt lat="44.40005" lon="3.29329">
        <ele>798.73</ele>
        <time>2024-11-05T18:30:31.113Z</time>
      </trkpt>
      <trkpt lat="44.39995" lon="3.2933">
        <ele>799.28</ele>
        <time>2024-11-05T18:30:43.463Z</time>
      </trkpt>
      <trkpt lat="44.3999" lon="3.29331">
        <ele>799.83</ele>
        <time>2024-11-05T18:30:55.813Z</time>
      </trkpt>
      <trkpt lat="44.39979" lon="3.29331">
        <ele>800.41</ele>
        <time>2024-11-05T18:31:08.165Z</time>
      </trkpt>
      <trkpt lat="44.39977" lon="3.29331">
        <ele>801.01</ele>
        <time>2024-11-05T18:31:20.518Z</time>
      </trkpt>
      <trkpt lat="44.39957" lon="3.29327">
        <ele>801.64</ele>
        <time>2024-11-05T18:31:32.874Z</time>
      </trkpt>
      <trkpt lat="44.3995" lon="3.29325">
        <ele>802.3</ele>
        <time>2024-11-05T18:31:45.231Z</time>
      </trkpt>
      <trkpt lat="44.39942" lon="3.29322">
        <ele>802.98</ele>
        <time>2024-11-05T18:31:57.589Z</time>
      </trkpt>
      <trkpt lat="44.39924" lon="3.29316">
        <ele>803.73</ele>
        <time>2024-11-05T18:32:09.950Z</time>
      </trkpt>
      <trkpt lat="44.39908" lon="3.2931">
        <ele>804.51</ele>
        <time>2024-11-05T18:32:22.314Z</time>
      </trkpt>
      <trkpt lat="44.39907" lon="3.2931">
        <ele>805.28</ele>
        <time>2024-11-05T18:32:34.678Z</time>
      </trkpt>
      <trkpt lat="44.39893" lon="3.29307">
        <ele>806.12</ele>
        <time>2024-11-05T18:32:47.044Z</time>
      </trkpt>
      <trkpt lat="44.39886" lon="3.29306">
        <ele>806.96</ele>
        <time>2024-11-05T18:32:59.411Z</time>
      </trkpt>
      <trkpt lat="44.39875" lon="3.29306">
        <ele>807.82</ele>
        <time>2024-11-05T18:33:11.780Z</time>
      </trkpt>
      <trkpt lat="44.39857" lon="3.29305">
        <ele>808.73</ele>
        <time>2024-11-05T18:33:24.152Z</time>
      </trkpt>
      <trkpt lat="44.39848" lon="3.29305">
        <ele>809.62</ele>
        <time>2024-11-05T18:33:36.525Z</time>
      </trkpt>
      <trkpt lat="44.39833" lon="3.29304">
        <ele>810.53</ele>
        <time>2024-11-05T18:33:48.901Z</time>
      </trkpt>
      <trkpt lat="44.39804" lon="3.29307">
        <ele>811.46</ele>
        <time>2024-11-05T18:34:01.282Z</time>
      </trkpt>
      <trkpt lat="44.39772" lon="3.2931">
        <ele>812.48</ele>
        <time>2024-11-05T18:34:13.668Z</time>
      </trkpt>
      <trkpt lat="44.39759" lon="3.29311">
        <ele>813.45</ele>
        <time>2024-11-05T18:34:26.056Z</time>
      </trkpt>
      <trkpt lat="44.39753" lon="3.29312">
        <ele>814.4</ele>
        <time>2024-11-05T18:34:38.445Z</time>
      </trkpt>
      <trkpt lat="44.39736" lon="3.29312">
        <ele>815.4</ele>
        <time>2024-11-05T18:34:50.836Z</time>
      </trkpt>
      <trkpt lat="44.39735" lon="3.29312">
        <ele>816.33</ele>
        <time>2024-11-05T18:35:03.228Z</time>
      </trkpt>
      <trkpt lat="44.39714" lon="3.29309">
        <ele>817.31</ele>
        <time>2024-11-05T18:35:15.623Z</time>
      </trkpt>
      <trkpt lat="44.39702" lon="3.29308">
        <ele>818.26</ele>
        <time>2024-11-05T18:35:28.020Z</time>
      </trkpt>
      <trkpt lat="44.39687" lon="3.29304">
        <ele>819.19</ele>
        <time>2024-11-05T18:35:40.419Z</time>
      </trkpt>
      <trkpt lat="44.39665" lon="3.29298">
        <ele>820.14</ele>
        <time>2024-11-05T18:35:52.822Z</time>
      </trkpt>
      <trkpt lat="44.39652" lon="3.29293">
        <ele>821.07</ele>
        <time>2024-11-05T18:36:05.227Z</time>
      </trkpt>
      <trkpt lat="44.3964" lon="3.29285">
        <ele>822</ele>
        <time>2024-11-05T18:36:17.634Z</time>
      </trkpt>
      <trkpt lat="44.39631" lon="3.29279">
        <ele>822.92</ele>
        <time>2024-11-05T18:36:30.043Z</time>
      </trkpt>
      <trkpt lat="44.39613" lon="3.29262">
        <ele>823.86</ele>
        <time>2024-11-05T18:36:42.455Z</time>
      </trkpt>
      <trkpt lat="44.39608" lon="3.29257">
        <ele>824.78</ele>
        <time>2024-11-05T18:36:54.868Z</time>
      </trkpt>
      <trkpt lat="44.39599" lon="3.29246">
        <ele>825.7</ele>
        <time>2024-11-05T18:37:07.283Z</time>
      </trkpt>
      <trkpt lat="44.39586" lon="3.29229">
        <ele>826.64</ele>
        <time>2024-11-05T18:37:19.701Z</time>
      </trkpt>
      <trkpt lat="44.3958" lon="3.29221">
        <ele>827.55</ele>
        <time>2024-11-05T18:37:32.120Z</time>
      </trkpt>
      <trkpt lat="44.3958" lon="3.2922">
        <ele>828.45</ele>
        <time>2024-11-05T18:37:44.539Z</time>
      </trkpt>
      <trkpt lat="44.39562" lon="3.29201">
        <ele>829.38</ele>
        <time>2024-11-05T18:37:56.962Z</time>
      </trkpt>
      <trkpt lat="44.39558" lon="3.29198">
        <ele>830.27</ele>
        <time>2024-11-05T18:38:09.386Z</time>
      </trkpt>
      <trkpt lat="44.39544" lon="3.29186">
        <ele>831.18</ele>
        <time>2024-11-05T18:38:21.812Z</time>
      </trkpt>
      <trkpt lat="44.39534" lon="3.29181">
        <ele>832.07</ele>
        <time>2024-11-05T18:38:34.240Z</time>
      </trkpt>
      <trkpt lat="44.39524" lon="3.29175">
        <ele>832.95</ele>
        <time>2024-11-05T18:38:46.670Z</time>
      </trkpt>
      <trkpt lat="44.39522" lon="3.29174">
        <ele>833.81</ele>
        <time>2024-11-05T18:38:59.100Z</time>
      </trkpt>
      <trkpt lat="44.39503" lon="3.29168">
        <ele>834.71</ele>
        <time>2024-11-05T18:39:11.533Z</time>
      </trkpt>
      <trkpt lat="44.39495" lon="3.29167">
        <ele>835.57</ele>
        <time>2024-11-05T18:39:23.968Z</time>
      </trkpt>
      <trkpt lat="44.39477" lon="3.29163">
        <ele>836.44</ele>
        <time>2024-11-05T18:39:36.406Z</time>
      </trkpt>
      <trkpt lat="44.39469" lon="3.29163">
        <ele>837.28</ele>
        <time>2024-11-05T18:39:48.845Z</time>
      </trkpt>
      <trkpt lat="44.39455" lon="3.29162">
        <ele>838.15</ele>
        <time>2024-11-05T18:40:01.286Z</time>
      </trkpt>
      <trkpt lat="44.39446" lon="3.29162">
        <ele>838.98</ele>
        <time>2024-11-05T18:40:13.728Z</time>
      </trkpt>
      <trkpt lat="44.39438" lon="3.29162">
        <ele>839.8</ele>
        <time>2024-11-05T18:40:26.172Z</time>
      </trkpt>
      <trkpt lat="44.39429" lon="3.29161">
        <ele>840.6</ele>
        <time>2024-11-05T18:40:38.617Z</time>
      </trkpt>
      <trkpt lat="44.39422" lon="3.29161">
        <ele>841.39</ele>
        <time>2024-11-05T18:40:51.063Z</time>
      </trkpt>
      <trkpt lat="44.3942" lon="3.29161">
        <ele>842.15</ele>
        <time>2024-11-05T18:41:03.510Z</time>
      </trkpt>
      <trkpt lat="44.39411" lon="3.29159">
        <ele>842.92</ele>
        <time>2024-11-05T18:41:15.958Z</time>
      </trkpt>
      <trkpt lat="44.39406" lon="3.29158">
        <ele>843.66</ele>
        <time>2024-11-05T18:41:28.407Z</time>
      </trkpt>
      <trkpt lat="44.39397" lon="3.29157">
        <ele>844.4</ele>
        <time>2024-11-05T18:41:40.857Z</time>
      </trkpt>
      <trkpt lat="44.39382" lon="3.29154">
        <ele>845.14</ele>
        <time>2024-11-05T18:41:53.310Z</time>
      </trkpt>
      <trkpt lat="44.39367" lon="3.29147">
        <ele>845.87</ele>
        <time>2024-11-05T18:42:05.765Z</time>
      </trkpt>
      <trkpt lat="44.3936" lon="3.29144">
        <ele>846.59</ele>
        <time>2024-11-05T18:42:18.221Z</time>
      </trkpt>
      <trkpt lat="44.39346" lon="3.29136">
        <ele>847.31</ele>
        <time>2024-11-05T18:42:30.680Z</time>
      </trkpt>
      <trkpt lat="44.39343" lon="3.29134">
        <ele>848.02</ele>
        <time>2024-11-05T18:42:43.139Z</time>
      </trkpt>
      <trkpt lat="44.3933" lon="3.29125">
        <ele>848.74</ele>
        <time>2024-11-05T18:42:55.601Z</time>
      </trkpt>
      <trkpt lat="44.39298" lon="3.29103">
        <ele>849.54</ele>
        <time>2024-11-05T18:43:08.068Z</time>
      </trkpt>
      <trkpt lat="44.39278" lon="3.2909">
        <ele>850.29</ele>
        <time>2024-11-05T18:43:20.539Z</time>
      </trkpt>
      <trkpt lat="44.39268" lon="3.29083">
        <ele>851.02</ele>
        <time>2024-11-05T18:43:33.012Z</time>
      </trkpt>
      <trkpt lat="44.39262" lon="3.29079">
        <ele>851.73</ele>
        <time>2024-11-05T18:43:45.486Z</time>
      </trkpt>
      <trkpt lat="44.39239" lon="3.29065">
        <ele>852.46</ele>
        <time>2024-11-05T18:43:57.964Z</time>
      </trkpt>
      <trkpt lat="44.39233" lon="3.29063">
        <ele>853.16</ele>
        <time>2024-11-05T18:44:10.443Z</time>
      </trkpt>
      <trkpt lat="44.39215" lon="3.29056">
        <ele>853.88</ele>
        <time>2024-11-05T18:44:22.925Z</time>
      </trkpt>
      <trkpt lat="44.39181" lon="3.29043">
        <ele>854.56</ele>
        <time>2024-11-05T18:44:35.413Z</time>
      </trkpt>
      <trkpt lat="44.39174" lon="3.29041">
        <ele>855.26</ele>
        <time>2024-11-05T18:44:47.902Z</time>
      </trkpt>
      <trkpt lat="44.39151" lon="3.29037">
        <ele>856</ele>
        <time>2024-11-05T18:45:00.394Z</time>
      </trkpt>
      <trkpt lat="44.3914" lon="3.2904">
        <ele>856.72</ele>
        <time>2024-11-05T18:45:12.888Z</time>
      </trkpt>
      <trkpt lat="44.3913" lon="3.29045">
        <ele>857.46</ele>
        <time>2024-11-05T18:45:25.384Z</time>
      </trkpt>
      <trkpt lat="44.39121" lon="3.29054">
        <ele>858.22</ele>
        <time>2024-11-05T18:45:37.882Z</time>
      </trkpt>
      <trkpt lat="44.39114" lon="3.29062">
        <ele>858.99</ele>
        <time>2024-11-05T18:45:50.381Z</time>
      </trkpt>
      <trkpt lat="44.39109" lon="3.29072">
        <ele>859.79</ele>
        <time>2024-11-05T18:46:02.881Z</time>
      </trkpt>
      <trkpt lat="44.39101" lon="3.29087">
        <ele>860.6</ele>
        <time>2024-11-05T18:46:15.384Z</time>
      </trkpt>
      <trkpt lat="44.39095" lon="3.29097">
        <ele>861.41</ele>
        <time>2024-11-05T18:46:27.888Z</time>
      </trkpt>
      <trkpt lat="44.3909" lon="3.29107">
        <ele>862.25</ele>
        <time>2024-11-05T18:46:40.393Z</time>
      </trkpt>
      <trkpt lat="44.39085" lon="3.29117">
        <ele>863.1</ele>
        <time>2024-11-05T18:46:52.900Z</time>
      </trkpt>
      <trkpt lat="44.39079" lon="3.29127">
        <ele>863.97</ele>
        <time>2024-11-05T18:47:05.408Z</time>
      </trkpt>
      <trkpt lat="44.39078" lon="3.2913">
        <ele>864.83</ele>
        <time>2024-11-05T18:47:17.917Z</time>
      </trkpt>
      <trkpt lat="44.39073" lon="3.29136">
        <ele>865.73</ele>
        <time>2024-11-05T18:47:30.427Z</time>
      </trkpt>
      <trkpt lat="44.39065" lon="3.29144">
        <ele>866.65</ele>
        <time>2024-11-05T18:47:42.938Z</time>
      </trkpt>
      <trkpt lat="44.39057" lon="3.29149">
        <ele>867.58</ele>
        <time>2024-11-05T18:47:55.451Z</time>
      </trkpt>
      <trkpt lat="44.39042" lon="3.29154">
        <ele>868.54</ele>
        <time>2024-11-05T18:48:07.966Z</time>
      </trkpt>
      <trkpt lat="44.39032" lon="3.29155">
        <ele>869.52</ele>
        <time>2024-11-05T18:48:20.483Z</time>
      </trkpt>
      <trkpt lat="44.39022" lon="3.29153">
        <ele>870.52</ele>
        <time>2024-11-05T18:48:33.001Z</time>
      </trkpt>
      <trkpt lat="44.39012" lon="3.2915">
        <ele>871.5</ele>
        <time>2024-11-05T18:48:45.521Z</time>
      </trkpt>
      <trkpt lat="44.39003" lon="3.29146">
        <ele>872.51</ele>
        <time>2024-11-05T18:48:58.043Z</time>
      </trkpt>
      <trkpt lat="44.38994" lon="3.29138">
        <ele>873.56</ele>
        <time>2024-11-05T18:49:10.566Z</time>
      </trkpt>
      <trkpt lat="44.38986" lon="3.29127">
        <ele>874.64</ele>
        <time>2024-11-05T18:49:23.091Z</time>
      </trkpt>
      <trkpt lat="44.3898" lon="3.29118">
        <ele>875.73</ele>
        <time>2024-11-05T18:49:35.618Z</time>
      </trkpt>
      <trkpt lat="44.38978" lon="3.29116">
        <ele>876.81</ele>
        <time>2024-11-05T18:49:48.145Z</time>
      </trkpt>
      <trkpt lat="44.3897" lon="3.29097">
        <ele>877.99</ele>
        <time>2024-11-05T18:50:00.674Z</time>
      </trkpt>
      <trkpt lat="44.38958" lon="3.29071">
        <ele>879.2</ele>
        <time>2024-11-05T18:50:13.207Z</time>
      </trkpt>
      <trkpt lat="44.38955" lon="3.29065">
        <ele>880.33</ele>
        <time>2024-11-05T18:50:25.741Z</time>
      </trkpt>
      <trkpt lat="44.38946" lon="3.29044">
        <ele>881.5</ele>
        <time>2024-11-05T18:50:38.278Z</time>
      </trkpt>
      <trkpt lat="44.38937" lon="3.29024">
        <ele>882.68</ele>
        <time>2024-11-05T18:50:50.817Z</time>
      </trkpt>
      <trkpt lat="44.38936" lon="3.29023">
        <ele>883.8</ele>
        <time>2024-11-05T18:51:03.356Z</time>
      </trkpt>
      <trkpt lat="44.38921" lon="3.28999">
        <ele>885</ele>
        <time>2024-11-05T18:51:15.899Z</time>
      </trkpt>
      <trkpt lat="44.38914" lon="3.28993">
        <ele>886.13</ele>
        <time>2024-11-05T18:51:28.444Z</time>
      </trkpt>
      <trkpt lat="44.38904" lon="3.28983">
        <ele>887.3</ele>
        <time>2024-11-05T18:51:40.990Z</time>
      </trkpt>
      <trkpt lat="44.38899" lon="3.2898">
        <ele>888.42</ele>
        <time>2024-11-05T18:51:53.537Z</time>
      </trkpt>
      <trkpt lat="44.38884" lon="3.28972">
        <ele>889.54</ele>
        <time>2024-11-05T18:52:06.087Z</time>
      </trkpt>
      <trkpt lat="44.38882" lon="3.28972">
        <ele>890.63</ele>
        <time>2024-11-05T18:52:18.637Z</time>
      </trkpt>
      <trkpt lat="44.38864" lon="3.28968">
        <ele>891.74</ele>
        <time>2024-11-05T18:52:31.190Z</time>
      </trkpt>
      <trkpt lat="44.38851" lon="3.28966">
        <ele>892.86</ele>
        <time>2024-11-05T18:52:43.745Z</time>
      </trkpt>
      <trkpt lat="44.38842" lon="3.28964">
        <ele>893.96</ele>
        <time>2024-11-05T18:52:56.302Z</time>
      </trkpt>
      <trkpt lat="44.38829" lon="3.28959">
        <ele>895.08</ele>
        <time>2024-11-05T18:53:08.861Z</time>
      </trkpt>
      <trkpt lat="44.38821" lon="3.28956">
        <ele>896.13</ele>
        <time>2024-11-05T18:53:21.421Z</time>
      </trkpt>
      <trkpt lat="44.38813" lon="3.2895">
        <ele>897.17</ele>
        <time>2024-11-05T18:53:33.983Z</time>
      </trkpt>
      <trkpt lat="44.388" lon="3.28942">
        <ele>898.22</ele>
        <time>2024-11-05T18:53:46.547Z</time>
      </trkpt>
      <trkpt lat="44.38797" lon="3.28939">
        <ele>899.15</ele>
        <time>2024-11-05T18:53:59.112Z</time>
      </trkpt>
      <trkpt lat="44.38782" lon="3.28923">
        <ele>900.07</ele>
        <time>2024-11-05T18:54:11.680Z</time>
      </trkpt>
      <trkpt lat="44.3878" lon="3.28919">
        <ele>900.91</ele>
        <time>2024-11-05T18:54:24.248Z</time>
      </trkpt>
      <trkpt lat="44.38774" lon="3.28909">
        <ele>901.73</ele>
        <time>2024-11-05T18:54:36.818Z</time>
      </trkpt>
      <trkpt lat="44.38766" lon="3.28894">
        <ele>902.52</ele>
        <time>2024-11-05T18:54:49.390Z</time>
      </trkpt>
      <trkpt lat="44.38766" lon="3.28894">
        <ele>903.23</ele>
        <time>2024-11-05T18:55:01.962Z</time>
      </trkpt>
      <trkpt lat="44.38762" lon="3.28883">
        <ele>903.92</ele>
        <time>2024-11-05T18:55:14.535Z</time>
      </trkpt>
      <trkpt lat="44.3876" lon="3.28877">
        <ele>904.55</ele>
        <time>2024-11-05T18:55:27.109Z</time>
      </trkpt>
      <trkpt lat="44.38759" lon="3.28875">
        <ele>905.13</ele>
        <time>2024-11-05T18:55:39.683Z</time>
      </trkpt>
      <trkpt lat="44.38757" lon="3.28866">
        <ele>905.67</ele>
        <time>2024-11-05T18:55:52.258Z</time>
      </trkpt>
      <trkpt lat="44.38755" lon="3.2886">
        <ele>906.18</ele>
        <time>2024-11-05T18:56:04.834Z</time>
      </trkpt>
      <trkpt lat="44.38752" lon="3.28848">
        <ele>906.63</ele>
        <time>2024-11-05T18:56:17.411Z</time>
      </trkpt>
      <trkpt lat="44.3875" lon="3.28842">
        <ele>907.03</ele>
        <time>2024-11-05T18:56:29.989Z</time>
      </trkpt>
      <trkpt lat="44.38749" lon="3.28836">
        <ele>907.39</ele>
        <time>2024-11-05T18:56:42.568Z</time>
      </trkpt>
      <trkpt lat="44.38745" lon="3.28825">
        <ele>907.71</ele>
        <time>2024-11-05T18:56:55.148Z</time>
      </trkpt>
      <trkpt lat="44.38744" lon="3.28819">
        <ele>907.99</ele>
        <time>2024-11-05T18:57:07.729Z</time>
      </trkpt>
      <trkpt lat="44.38741" lon="3.28807">
        <ele>908.24</ele>
        <time>2024-11-05T18:57:20.311Z</time>
      </trkpt>
      <trkpt lat="44.38739" lon="3.28801">
        <ele>908.45</ele>
        <time>2024-11-05T18:57:32.894Z</time>
      </trkpt>
      <trkpt lat="44.38736" lon="3.2879">
        <ele>908.61</ele>
        <time>2024-11-05T18:57:45.479Z</time>
      </trkpt>
      <trkpt lat="44.38733" lon="3.28778">
        <ele>908.73</ele>
        <time>2024-11-05T18:57:58.065Z</time>
      </trkpt>
      <trkpt lat="44.38731" lon="3.28772">
        <ele>908.82</ele>
        <time>2024-11-05T18:58:10.652Z</time>
      </trkpt>
      <trkpt lat="44.38728" lon="3.2876">
        <ele>908.9</ele>
        <time>2024-11-05T18:58:23.240Z</time>
      </trkpt>
      <trkpt lat="44.38721" lon="3.28737">
        <ele>908.94</ele>
        <time>2024-11-05T18:58:35.831Z</time>
      </trkpt>
      <trkpt lat="44.38717" lon="3.2872">
        <ele>908.94</ele>
        <time>2024-11-05T18:58:48.424Z</time>
      </trkpt>
      <trkpt lat="44.38713" lon="3.28706">
        <ele>908.92</ele>
        <time>2024-11-05T18:59:01.019Z</time>
      </trkpt>
      <trkpt lat="44.38707" lon="3.28692">
        <ele>908.88</ele>
        <time>2024-11-05T18:59:13.616Z</time>
      </trkpt>
      <trkpt lat="44.38699" lon="3.28672">
        <ele>908.79</ele>
        <time>2024-11-05T18:59:26.215Z</time>
      </trkpt>
      <trkpt lat="44.38695" lon="3.28666">
        <ele>908.7</ele>
        <time>2024-11-05T18:59:38.815Z</time>
      </trkpt>
      <trkpt lat="44.38691" lon="3.28659">
        <ele>908.6</ele>
        <time>2024-11-05T18:59:51.416Z</time>
      </trkpt>
      <trkpt lat="44.38686" lon="3.28652">
        <ele>908.49</ele>
        <time>2024-11-05T19:00:04.018Z</time>
      </trkpt>
      <trkpt lat="44.38667" lon="3.28627">
        <ele>908.32</ele>
        <time>2024-11-05T19:00:16.625Z</time>
      </trkpt>
      <trkpt lat="44.38654" lon="3.2861">
        <ele>908.17</ele>
        <time>2024-11-05T19:00:29.235Z</time>
      </trkpt>
      <trkpt lat="44.38634" lon="3.28583">
        <ele>908</ele>
        <time>2024-11-05T19:00:41.849Z</time>
      </trkpt>
      <trkpt lat="44.38632" lon="3.28579">
        <ele>907.87</ele>
        <time>2024-11-05T19:00:54.464Z</time>
      </trkpt>
      <trkpt lat="44.3861" lon="3.28543">
        <ele>907.73</ele>
        <time>2024-11-05T19:01:07.084Z</time>
      </trkpt>
      <trkpt lat="44.38601" lon="3.28519">
        <ele>907.62</ele>
        <time>2024-11-05T19:01:19.707Z</time>
      </trkpt>
      <trkpt lat="44.38594" lon="3.28502">
        <ele>907.5</ele>
        <time>2024-11-05T19:01:32.332Z</time>
      </trkpt>
      <trkpt lat="44.38591" lon="3.28491">
        <ele>907.39</ele>
        <time>2024-11-05T19:01:44.959Z</time>
      </trkpt>
      <trkpt lat="44.38588" lon="3.2848">
        <ele>907.27</ele>
        <time>2024-11-05T19:01:57.587Z</time>
      </trkpt>
      <trkpt lat="44.38585" lon="3.28468">
        <ele>907.17</ele>
        <time>2024-11-05T19:02:10.216Z</time>
      </trkpt>
      <trkpt lat="44.38582" lon="3.28456">
        <ele>907.06</ele>
        <time>2024-11-05T19:02:22.847Z</time>
      </trkpt>
      <trkpt lat="44.38578" lon="3.28439">
        <ele>906.96</ele>
        <time>2024-11-05T19:02:35.480Z</time>
      </trkpt>
      <trkpt lat="44.38575" lon="3.28427">
        <ele>906.88</ele>
        <time>2024-11-05T19:02:48.114Z</time>
      </trkpt>
      <trkpt lat="44.38574" lon="3.28425">
        <ele>906.82</ele>
        <time>2024-11-05T19:03:00.749Z</time>
      </trkpt>
      <trkpt lat="44.3857" lon="3.28416">
        <ele>906.77</ele>
        <time>2024-11-05T19:03:13.385Z</time>
      </trkpt>
      <trkpt lat="44.38565" lon="3.28406">
        <ele>906.73</ele>
        <time>2024-11-05T19:03:26.022Z</time>
      </trkpt>
      <trkpt lat="44.38561" lon="3.28395">
        <ele>906.71</ele>
        <time>2024-11-05T19:03:38.661Z</time>
      </trkpt>
      <trkpt lat="44.38557" lon="3.28387">
        <ele>906.71</ele>
        <time>2024-11-05T19:03:51.301Z</time>
      </trkpt>
      <trkpt lat="44.38556" lon="3.28385">
        <ele>906.73</ele>
        <time>2024-11-05T19:04:03.941Z</time>
      </trkpt>
      <trkpt lat="44.3855" lon="3.28375">
        <ele>906.75</ele>
        <time>2024-11-05T19:04:16.583Z</time>
      </trkpt>
      <trkpt lat="44.38548" lon="3.28371">
        <ele>906.79</ele>
        <time>2024-11-05T19:04:29.225Z</time>
      </trkpt>
      <trkpt lat="44.38547" lon="3.2837">
        <ele>906.85</ele>
        <time>2024-11-05T19:04:41.867Z</time>
      </trkpt>
      <trkpt lat="44.38541" lon="3.28361">
        <ele>906.92</ele>
        <time>2024-11-05T19:04:54.511Z</time>
      </trkpt>
      <trkpt lat="44.38532" lon="3.28347">
        <ele>907.01</ele>
        <time>2024-11-05T19:05:07.157Z</time>
      </trkpt>
      <trkpt lat="44.3853" lon="3.28345">
        <ele>907.09</ele>
        <time>2024-11-05T19:05:19.803Z</time>
      </trkpt>
      <trkpt lat="44.38521" lon="3.28336">
        <ele>907.2</ele>
        <time>2024-11-05T19:05:32.451Z</time>
      </trkpt>
      <trkpt lat="44.38503" lon="3.28317">
        <ele>907.33</ele>
        <time>2024-11-05T19:05:45.103Z</time>
      </trkpt>
      <trkpt lat="44.38488" lon="3.28302">
        <ele>907.44</ele>
        <time>2024-11-05T19:05:57.758Z</time>
      </trkpt>
      <trkpt lat="44.38477" lon="3.28291">
        <ele>907.56</ele>
        <time>2024-11-05T19:06:10.415Z</time>
      </trkpt>
      <trkpt lat="44.38441" lon="3.28254">
        <ele>907.77</ele>
        <time>2024-11-05T19:06:23.079Z</time>
      </trkpt>
      <trkpt lat="44.38434" lon="3.28247">
        <ele>907.88</ele>
        <time>2024-11-05T19:06:35.744Z</time>
      </trkpt>
      <trkpt lat="44.38427" lon="3.2824">
        <ele>907.96</ele>
        <time>2024-11-05T19:06:48.411Z</time>
      </trkpt>
      <trkpt lat="44.3842" lon="3.28232">
        <ele>908.03</ele>
        <time>2024-11-05T19:07:01.079Z</time>
      </trkpt>
      <trkpt lat="44.38412" lon="3.28225">
        <ele>908.09</ele>
        <time>2024-11-05T19:07:13.749Z</time>
      </trkpt>
      <trkpt lat="44.38405" lon="3.28217">
        <ele>908.13</ele>
        <time>2024-11-05T19:07:26.420Z</time>
      </trkpt>
      <trkpt lat="44.38398" lon="3.2821">
        <ele>908.12</ele>
        <time>2024-11-05T19:07:39.093Z</time>
      </trkpt>
      <trkpt lat="44.38394" lon="3.28206">
        <ele>908.1</ele>
        <time>2024-11-05T19:07:51.766Z</time>
      </trkpt>
      <trkpt lat="44.38387" lon="3.28199">
        <ele>908.04</ele>
        <time>2024-11-05T19:08:04.441Z</time>
      </trkpt>
      <trkpt lat="44.38383" lon="3.28195">
        <ele>907.97</ele>
        <time>2024-11-05T19:08:17.116Z</time>
      </trkpt>
      <trkpt lat="44.3838" lon="3.28191">
        <ele>907.87</ele>
        <time>2024-11-05T19:08:29.792Z</time>
      </trkpt>
      <trkpt lat="44.38372" lon="3.28184">
        <ele>907.73</ele>
        <time>2024-11-05T19:08:42.470Z</time>
      </trkpt>
      <trkpt lat="44.38362" lon="3.28173">
        <ele>907.56</ele>
        <time>2024-11-05T19:08:55.150Z</time>
      </trkpt>
      <trkpt lat="44.38351" lon="3.28162">
        <ele>907.34</ele>
        <time>2024-11-05T19:09:07.832Z</time>
      </trkpt>
      <trkpt lat="44.38348" lon="3.28159">
        <ele>907.1</ele>
        <time>2024-11-05T19:09:20.514Z</time>
      </trkpt>
      <trkpt lat="44.38332" lon="3.28145">
        <ele>906.79</ele>
        <time>2024-11-05T19:09:33.200Z</time>
      </trkpt>
      <trkpt lat="44.38324" lon="3.28139">
        <ele>906.48</ele>
        <time>2024-11-05T19:09:45.887Z</time>
      </trkpt>
      <trkpt lat="44.38287" lon="3.28115">
        <ele>906.13</ele>
        <time>2024-11-05T19:09:58.580Z</time>
      </trkpt>
      <trkpt lat="44.38273" lon="3.28105">
        <ele>905.74</ele>
        <time>2024-11-05T19:10:11.276Z</time>
      </trkpt>
      <trkpt lat="44.38243" lon="3.28085">
        <ele>905.27</ele>
        <time>2024-11-05T19:10:23.977Z</time>
      </trkpt>
      <trkpt lat="44.38233" lon="3.28078">
        <ele>904.78</ele>
        <time>2024-11-05T19:10:36.680Z</time>
      </trkpt>
      <trkpt lat="44.38231" lon="3.28076">
        <ele>904.28</ele>
        <time>2024-11-05T19:10:49.383Z</time>
      </trkpt>
      <trkpt lat="44.38219" lon="3.28068">
        <ele>903.73</ele>
        <time>2024-11-05T19:11:02.089Z</time>
      </trkpt>
      <trkpt lat="44.38211" lon="3.28062">
        <ele>903.15</ele>
        <time>2024-11-05T19:11:14.796Z</time>
      </trkpt>
      <trkpt lat="44.38203" lon="3.28057">
        <ele>902.52</ele>
        <time>2024-11-05T19:11:27.505Z</time>
      </trkpt>
      <trkpt lat="44.38195" lon="3.28051">
        <ele>901.86</ele>
        <time>2024-11-05T19:11:40.215Z</time>
      </trkpt>
      <trkpt lat="44.38189" lon="3.28047">
        <ele>901.15</ele>
        <time>2024-11-05T19:11:52.926Z</time>
      </trkpt>
      <trkpt lat="44.38187" lon="3.28045">
        <ele>900.41</ele>
        <time>2024-11-05T19:12:05.637Z</time>
      </trkpt>
      <trkpt lat="44.3818" lon="3.28037">
        <ele>899.63</ele>
        <time>2024-11-05T19:12:18.350Z</time>
      </trkpt>
      <trkpt lat="44.38176" lon="3.28033">
        <ele>898.81</ele>
        <time>2024-11-05T19:12:31.064Z</time>
      </trkpt>
      <trkpt lat="44.3817" lon="3.28025">
        <ele>897.96</ele>
        <time>2024-11-05T19:12:43.779Z</time>
      </trkpt>
      <trkpt lat="44.38164" lon="3.28016">
        <ele>897.06</ele>
        <time>2024-11-05T19:12:56.495Z</time>
      </trkpt>
      <trkpt lat="44.38159" lon="3.28009">
        <ele>896.12</ele>
        <time>2024-11-05T19:13:09.212Z</time>
      </trkpt>
      <trkpt lat="44.38155" lon="3.28002">
        <ele>895.15</ele>
        <time>2024-11-05T19:13:21.931Z</time>
      </trkpt>
      <trkpt lat="44.38145" lon="3.27984">
        <ele>894.11</ele>
        <time>2024-11-05T19:13:34.652Z</time>
      </trkpt>
      <trkpt lat="44.38118" lon="3.27888">
        <ele>892.96</ele>
        <time>2024-11-05T19:13:47.385Z</time>
      </trkpt>
      <trkpt lat="44.38111" lon="3.27864">
        <ele>891.86</ele>
        <time>2024-11-05T19:14:00.121Z</time>
      </trkpt>
      <trkpt lat="44.38101" lon="3.27837">
        <ele>890.71</ele>
        <time>2024-11-05T19:14:12.860Z</time>
      </trkpt>
      <trkpt lat="44.38098" lon="3.27828">
        <ele>889.58</ele>
        <time>2024-11-05T19:14:25.601Z</time>
      </trkpt>
      <trkpt lat="44.38088" lon="3.27812">
        <ele>888.4</ele>
        <time>2024-11-05T19:14:38.344Z</time>
      </trkpt>
      <trkpt lat="44.38086" lon="3.27808">
        <ele>887.24</ele>
        <time>2024-11-05T19:14:51.088Z</time>
      </trkpt>
      <trkpt lat="44.38078" lon="3.278">
        <ele>886.03</ele>
        <time>2024-11-05T19:15:03.833Z</time>
      </trkpt>
      <trkpt lat="44.38071" lon="3.27793">
        <ele>884.83</ele>
        <time>2024-11-05T19:15:16.580Z</time>
      </trkpt>
      <trkpt lat="44.38041" lon="3.27763">
        <ele>883.54</ele>
        <time>2024-11-05T19:15:29.332Z</time>
      </trkpt>
      <trkpt lat="44.3803" lon="3.27752">
        <ele>882.3</ele>
        <time>2024-11-05T19:15:42.087Z</time>
      </trkpt>
      <trkpt lat="44.38021" lon="3.2774">
        <ele>881.05</ele>
        <time>2024-11-05T19:15:54.844Z</time>
      </trkpt>
      <trkpt lat="44.38014" lon="3.27726">
        <ele>879.8</ele>
        <time>2024-11-05T19:16:07.603Z</time>
      </trkpt>
      <trkpt lat="44.38013" lon="3.27724">
        <ele>878.58</ele>
        <time>2024-11-05T19:16:20.362Z</time>
      </trkpt>
      <trkpt lat="44.38009" lon="3.27713">
        <ele>877.34</ele>
        <time>2024-11-05T19:16:33.122Z</time>
      </trkpt>
      <trkpt lat="44.38005" lon="3.277">
        <ele>876.07</ele>
        <time>2024-11-05T19:16:45.884Z</time>
      </trkpt>
      <trkpt lat="44.38003" lon="3.27683">
        <ele>874.83</ele>
        <time>2024-11-05T19:16:58.648Z</time>
      </trkpt>
      <trkpt lat="44.38001" lon="3.27671">
        <ele>873.58</ele>
        <time>2024-11-05T19:17:11.413Z</time>
      </trkpt>
      <trkpt lat="44.37997" lon="3.27634">
        <ele>872.27</ele>
        <time>2024-11-05T19:17:24.183Z</time>
      </trkpt>
      <trkpt lat="44.37996" lon="3.27626">
        <ele>871.05</ele>
        <time>2024-11-05T19:17:36.953Z</time>
      </trkpt>
      <trkpt lat="44.37993" lon="3.27616">
        <ele>869.83</ele>
        <time>2024-11-05T19:17:49.725Z</time>
      </trkpt>
      <trkpt lat="44.37989" lon="3.27603">
        <ele>868.61</ele>
        <time>2024-11-05T19:18:02.498Z</time>
      </trkpt>
      <trkpt lat="44.37987" lon="3.27599">
        <ele>867.4</ele>
        <time>2024-11-05T19:18:15.272Z</time>
      </trkpt>
      <trkpt lat="44.37984" lon="3.27592">
        <ele>866.19</ele>
        <time>2024-11-05T19:18:28.047Z</time>
      </trkpt>
      <trkpt lat="44.37979" lon="3.27584">
        <ele>864.97</ele>
        <time>2024-11-05T19:18:40.823Z</time>
      </trkpt>
      <trkpt lat="44.3797" lon="3.2757">
        <ele>863.74</ele>
        <time>2024-11-05T19:18:53.601Z</time>
      </trkpt>
      <trkpt lat="44.37962" lon="3.27561">
        <ele>862.54</ele>
        <time>2024-11-05T19:19:06.381Z</time>
      </trkpt>
      <trkpt lat="44.37955" lon="3.27556">
        <ele>861.36</ele>
        <time>2024-11-05T19:19:19.162Z</time>
      </trkpt>
      <trkpt lat="44.3794" lon="3.27543">
        <ele>860.15</ele>
        <time>2024-11-05T19:19:31.946Z</time>
      </trkpt>
      <trkpt lat="44.37929" lon="3.27533">
        <ele>858.98</ele>
        <time>2024-11-05T19:19:44.732Z</time>
      </trkpt>
      <trkpt lat="44.37921" lon="3.27527">
        <ele>857.87</ele>
        <time>2024-11-05T19:19:57.519Z</time>
      </trkpt>
      <trkpt lat="44.37919" lon="3.27525">
        <ele>856.81</ele>
        <time>2024-11-05T19:20:10.307Z</time>
      </trkpt>
      <trkpt lat="44.37901" lon="3.27502">
        <ele>855.71</ele>
        <time>2024-11-05T19:20:23.099Z</time>
      </trkpt>
      <trkpt lat="44.37896" lon="3.27496">
        <ele>854.69</ele>
        <time>2024-11-05T19:20:35.892Z</time>
      </trkpt>
      <trkpt lat="44.37883" lon="3.27474">
        <ele>853.7</ele>
        <time>2024-11-05T19:20:48.688Z</time>
      </trkpt>
      <trkpt lat="44.37878" lon="3.27466">
        <ele>852.77</ele>
        <time>2024-11-05T19:21:01.485Z</time>
      </trkpt>
      <trkpt lat="44.37871" lon="3.27454">
        <ele>851.83</ele>
        <time>2024-11-05T19:21:14.284Z</time>
      </trkpt>
      <trkpt lat="44.37863" lon="3.27443">
        <ele>850.93</ele>
        <time>2024-11-05T19:21:27.085Z</time>
      </trkpt>
      <trkpt lat="44.37856" lon="3.27433">
        <ele>850.06</ele>
        <time>2024-11-05T19:21:39.887Z</time>
      </trkpt>
      <trkpt lat="44.3785" lon="3.27427">
        <ele>849.24</ele>
        <time>2024-11-05T19:21:52.691Z</time>
      </trkpt>
      <trkpt lat="44.37842" lon="3.27419">
        <ele>848.45</ele>
        <time>2024-11-05T19:22:05.496Z</time>
      </trkpt>
      <trkpt lat="44.3784" lon="3.27417">
        <ele>847.72</ele>
        <time>2024-11-05T19:22:18.302Z</time>
      </trkpt>
      <trkpt lat="44.37839" lon="3.27416">
        <ele>847.03</ele>
        <time>2024-11-05T19:22:31.108Z</time>
      </trkpt>
      <trkpt lat="44.37824" lon="3.27405">
        <ele>846.32</ele>
        <time>2024-11-05T19:22:43.917Z</time>
      </trkpt>
      <trkpt lat="44.37815" lon="3.274">
        <ele>845.67</ele>
        <time>2024-11-05T19:22:56.727Z</time>
      </trkpt>
      <trkpt lat="44.37807" lon="3.27396">
        <ele>845.07</ele>
        <time>2024-11-05T19:23:09.538Z</time>
      </trkpt>
      <trkpt lat="44.37799" lon="3.27393">
        <ele>844.51</ele>
        <time>2024-11-05T19:23:22.351Z</time>
      </trkpt>
      <trkpt lat="44.37788" lon="3.27387">
        <ele>843.98</ele>
        <time>2024-11-05T19:23:35.166Z</time>
      </trkpt>
      <trkpt lat="44.37778" lon="3.27382">
        <ele>843.49</ele>
        <time>2024-11-05T19:23:47.982Z</time>
      </trkpt>
      <trkpt lat="44.37775" lon="3.2738">
        <ele>843.08</ele>
        <time>2024-11-05T19:24:00.799Z</time>
      </trkpt>
      <trkpt lat="44.37768" lon="3.27373">
        <ele>842.7</ele>
        <time>2024-11-05T19:24:13.617Z</time>
      </trkpt>
      <trkpt lat="44.3776" lon="3.27366">
        <ele>842.35</ele>
        <time>2024-11-05T19:24:26.437Z</time>
      </trkpt>
      <trkpt lat="44.37756" lon="3.27363">
        <ele>842.06</ele>
        <time>2024-11-05T19:24:39.257Z</time>
      </trkpt>
      <trkpt lat="44.37753" lon="3.27359">
        <ele>841.8</ele>
        <time>2024-11-05T19:24:52.078Z</time>
      </trkpt>
      <trkpt lat="44.37749" lon="3.27356">
        <ele>841.58</ele>
        <time>2024-11-05T19:25:04.900Z</time>
      </trkpt>
      <trkpt lat="44.37745" lon="3.27352">
        <ele>841.41</ele>
        <time>2024-11-05T19:25:17.723Z</time>
      </trkpt>
      <trkpt lat="44.37741" lon="3.27349">
        <ele>841.27</ele>
        <time>2024-11-05T19:25:30.546Z</time>
      </trkpt>
      <trkpt lat="44.3774" lon="3.27348">
        <ele>841.16</ele>
        <time>2024-11-05T19:25:43.370Z</time>
      </trkpt>
      <trkpt lat="44.37734" lon="3.27341">
        <ele>841.09</ele>
        <time>2024-11-05T19:25:56.195Z</time>
      </trkpt>
      <trkpt lat="44.37731" lon="3.27337">
        <ele>841.05</ele>
        <time>2024-11-05T19:26:09.020Z</time>
      </trkpt>
      <trkpt lat="44.37724" lon="3.27329">
        <ele>841.03</ele>
        <time>2024-11-05T19:26:21.847Z</time>
      </trkpt>
      <trkpt lat="44.37718" lon="3.2732">
        <ele>841.05</ele>
        <time>2024-11-05T19:26:34.675Z</time>
      </trkpt>
      <trkpt lat="44.37711" lon="3.27312">
        <ele>841.09</ele>
        <time>2024-11-05T19:26:47.505Z</time>
      </trkpt>
      <trkpt lat="44.37707" lon="3.27308">
        <ele>841.15</ele>
        <time>2024-11-05T19:27:00.336Z</time>
      </trkpt>
      <trkpt lat="44.37706" lon="3.27306">
        <ele>841.23</ele>
        <time>2024-11-05T19:27:13.167Z</time>
      </trkpt>
      <trkpt lat="44.37701" lon="3.27299">
        <ele>841.33</ele>
        <time>2024-11-05T19:27:25.999Z</time>
      </trkpt>
      <trkpt lat="44.37698" lon="3.27295">
        <ele>841.45</ele>
        <time>2024-11-05T19:27:38.832Z</time>
      </trkpt>
      <trkpt lat="44.37691" lon="3.27286">
        <ele>841.59</ele>
        <time>2024-11-05T19:27:51.666Z</time>
      </trkpt>
      <trkpt lat="44.37685" lon="3.27278">
        <ele>841.76</ele>
        <time>2024-11-05T19:28:04.502Z</time>
      </trkpt>
      <trkpt lat="44.37672" lon="3.2726">
        <ele>841.94</ele>
        <time>2024-11-05T19:28:17.340Z</time>
      </trkpt>
      <trkpt lat="44.37665" lon="3.27252">
        <ele>842.09</ele>
        <time>2024-11-05T19:28:30.180Z</time>
      </trkpt>
      <trkpt lat="44.37659" lon="3.27243">
        <ele>842.27</ele>
        <time>2024-11-05T19:28:43.021Z</time>
      </trkpt>
      <trkpt lat="44.37655" lon="3.27238">
        <ele>842.42</ele>
        <time>2024-11-05T19:28:55.863Z</time>
      </trkpt>
      <trkpt lat="44.3765" lon="3.27228">
        <ele>842.59</ele>
        <time>2024-11-05T19:29:08.707Z</time>
      </trkpt>
      <trkpt lat="44.37648" lon="3.27223">
        <ele>842.73</ele>
        <time>2024-11-05T19:29:21.551Z</time>
      </trkpt>
      <trkpt lat="44.37642" lon="3.27213">
        <ele>842.88</ele>
        <time>2024-11-05T19:29:34.397Z</time>
      </trkpt>
      <trkpt lat="44.3764" lon="3.27208">
        <ele>843.01</ele>
        <time>2024-11-05T19:29:47.243Z</time>
      </trkpt>
      <trkpt lat="44.37638" lon="3.27204">
        <ele>843.12</ele>
        <time>2024-11-05T19:30:00.090Z</time>
      </trkpt>
      <trkpt lat="44.37636" lon="3.27197">
        <ele>843.22</ele>
        <time>2024-11-05T19:30:12.938Z</time>
      </trkpt>
      <trkpt lat="44.37632" lon="3.27185">
        <ele>843.32</ele>
        <time>2024-11-05T19:30:25.787Z</time>
      </trkpt>
      <trkpt lat="44.37627" lon="3.27168">
        <ele>843.39</ele>
        <time>2024-11-05T19:30:38.638Z</time>
      </trkpt>
      <trkpt lat="44.37623" lon="3.27156">
        <ele>843.45</ele>
        <time>2024-11-05T19:30:51.491Z</time>
      </trkpt>
      <trkpt lat="44.3762" lon="3.27145">
        <ele>843.49</ele>
        <time>2024-11-05T19:31:04.345Z</time>
      </trkpt>
      <trkpt lat="44.37617" lon="3.27135">
        <ele>843.52</ele>
        <time>2024-11-05T19:31:17.200Z</time>
      </trkpt>
      <trkpt lat="44.37607" lon="3.27119">
        <ele>843.55</ele>
        <time>2024-11-05T19:31:30.058Z</time>
      </trkpt>
      <trkpt lat="44.37599" lon="3.27105">
        <ele>843.56</ele>
        <time>2024-11-05T19:31:42.918Z</time>
      </trkpt>
      <trkpt lat="44.37593" lon="3.27095">
        <ele>843.51</ele>
        <time>2024-11-05T19:31:55.779Z</time>
      </trkpt>
      <trkpt lat="44.37587" lon="3.27086">
        <ele>843.43</ele>
        <time>2024-11-05T19:32:08.642Z</time>
      </trkpt>
      <trkpt lat="44.37572" lon="3.27062">
        <ele>843.32</ele>
        <time>2024-11-05T19:32:21.509Z</time>
      </trkpt>
      <trkpt lat="44.37552" lon="3.27029">
        <ele>843.14</ele>
        <time>2024-11-05T19:32:34.381Z</time>
      </trkpt>
      <trkpt lat="44.37546" lon="3.27019">
        <ele>842.98</ele>
        <time>2024-11-05T19:32:47.254Z</time>
      </trkpt>
      <trkpt lat="44.37531" lon="3.26995">
        <ele>842.75</ele>
        <time>2024-11-05T19:33:00.131Z</time>
      </trkpt>
      <trkpt lat="44.37523" lon="3.26981">
        <ele>842.54</ele>
        <time>2024-11-05T19:33:13.010Z</time>
      </trkpt>
      <trkpt lat="44.37517" lon="3.26971">
        <ele>842.34</ele>
        <time>2024-11-05T19:33:25.890Z</time>
      </trkpt>
      <trkpt lat="44.37508" lon="3.26957">
        <ele>842.13</ele>
        <time>2024-11-05T19:33:38.772Z</time>
      </trkpt>
      <trkpt lat="44.37508" lon="3.26957">
        <ele>841.95</ele>
        <time>2024-11-05T19:33:51.654Z</time>
      </trkpt>
      <trkpt lat="44.375" lon="3.26934">
        <ele>841.72</ele>
        <time>2024-11-05T19:34:04.539Z</time>
      </trkpt>
      <trkpt lat="44.37499" lon="3.26928">
        <ele>841.52</ele>
        <time>2024-11-05T19:34:17.425Z</time>
      </trkpt>
      <trkpt lat="44.37498" lon="3.26915">
        <ele>841.33</ele>
        <time>2024-11-05T19:34:30.312Z</time>
      </trkpt>
      <trkpt lat="44.37481" lon="3.26918">
        <ele>841.12</ele>
        <time>2024-11-05T19:34:43.202Z</time>
      </trkpt>
      <trkpt lat="44.37462" lon="3.26921">
        <ele>840.94</ele>
        <time>2024-11-05T19:34:56.095Z</time>
      </trkpt>
      <trkpt lat="44.37455" lon="3.26924">
        <ele>840.77</ele>
        <time>2024-11-05T19:35:08.990Z</time>
      </trkpt>
      <trkpt lat="44.37447" lon="3.26927">
        <ele>840.58</ele>
        <time>2024-11-05T19:35:21.886Z</time>
      </trkpt>
      <trkpt lat="44.37441" lon="3.26931">
        <ele>840.39</ele>
        <time>2024-11-05T19:35:34.783Z</time>
      </trkpt>
      <trkpt lat="44.37435" lon="3.26938">
        <ele>840.19</ele>
        <time>2024-11-05T19:35:47.681Z</time>
      </trkpt>
      <trkpt lat="44.37431" lon="3.26942">
        <ele>840.02</ele>
        <time>2024-11-05T19:36:00.580Z</time>
      </trkpt>
      <trkpt lat="44.37429" lon="3.26946">
        <ele>839.85</ele>
        <time>2024-11-05T19:36:13.479Z</time>
      </trkpt>
      <trkpt lat="44.37423" lon="3.26956">
        <ele>839.67</ele>
        <time>2024-11-05T19:36:26.380Z</time>
      </trkpt>
      <trkpt lat="44.37422" lon="3.26958">
        <ele>839.52</ele>
        <time>2024-11-05T19:36:39.281Z</time>
      </trkpt>
      <trkpt lat="44.37419" lon="3.26967">
        <ele>839.37</ele>
        <time>2024-11-05T19:36:52.183Z</time>
      </trkpt>
      <trkpt lat="44.37413" lon="3.2699">
        <ele>839.23</ele>
        <time>2024-11-05T19:37:05.088Z</time>
      </trkpt>
      <trkpt lat="44.37412" lon="3.26993">
        <ele>839.13</ele>
        <time>2024-11-05T19:37:17.994Z</time>
      </trkpt>
      <trkpt lat="44.37406" lon="3.2702">
        <ele>839.06</ele>
        <time>2024-11-05T19:37:30.903Z</time>
      </trkpt>
      <trkpt lat="44.37404" lon="3.27032">
        <ele>839.01</ele>
        <time>2024-11-05T19:37:43.813Z</time>
      </trkpt>
      <trkpt lat="44.37401" lon="3.27044">
        <ele>838.97</ele>
        <time>2024-11-05T19:37:56.725Z</time>
      </trkpt>
      <trkpt lat="44.374" lon="3.2705">
        <ele>838.92</ele>
        <time>2024-11-05T19:38:09.637Z</time>
      </trkpt>
      <trkpt lat="44.37398" lon="3.27056">
        <ele>838.91</ele>
        <time>2024-11-05T19:38:22.550Z</time>
      </trkpt>
      <trkpt lat="44.37397" lon="3.27062">
        <ele>838.92</ele>
        <time>2024-11-05T19:38:35.464Z</time>
      </trkpt>
      <trkpt lat="44.37396" lon="3.27068">
        <ele>838.94</ele>
        <time>2024-11-05T19:38:48.378Z</time>
      </trkpt>
      <trkpt lat="44.37395" lon="3.27074">
        <ele>838.97</ele>
        <time>2024-11-05T19:39:01.293Z</time>
      </trkpt>
      <trkpt lat="44.37392" lon="3.27086">
        <ele>839.04</ele>
        <time>2024-11-05T19:39:14.210Z</time>
      </trkpt>
      <trkpt lat="44.37388" lon="3.27104">
        <ele>839.11</ele>
        <time>2024-11-05T19:39:27.129Z</time>
      </trkpt>
      <trkpt lat="44.37387" lon="3.2711">
        <ele>839.21</ele>
        <time>2024-11-05T19:39:40.048Z</time>
      </trkpt>
      <trkpt lat="44.37385" lon="3.27122">
        <ele>839.32</ele>
        <time>2024-11-05T19:39:52.969Z</time>
      </trkpt>
      <trkpt lat="44.37383" lon="3.27134">
        <ele>839.46</ele>
        <time>2024-11-05T19:40:05.891Z</time>
      </trkpt>
      <trkpt lat="44.37383" lon="3.27135">
        <ele>839.62</ele>
        <time>2024-11-05T19:40:18.813Z</time>
      </trkpt>
      <trkpt lat="44.37383" lon="3.27146">
        <ele>839.82</ele>
        <time>2024-11-05T19:40:31.737Z</time>
      </trkpt>
      <trkpt lat="44.37382" lon="3.27153">
        <ele>840.03</ele>
        <time>2024-11-05T19:40:44.662Z</time>
      </trkpt>
      <trkpt lat="44.37382" lon="3.27159">
        <ele>840.25</ele>
        <time>2024-11-05T19:40:57.587Z</time>
      </trkpt>
      <trkpt lat="44.37382" lon="3.27164">
        <ele>840.49</ele>
        <time>2024-11-05T19:41:10.513Z</time>
      </trkpt>
      <trkpt lat="44.37382" lon="3.27165">
        <ele>840.75</ele>
        <time>2024-11-05T19:41:23.439Z</time>
      </trkpt>
      <trkpt lat="44.37381" lon="3.27171">
        <ele>841.04</ele>
        <time>2024-11-05T19:41:36.366Z</time>
      </trkpt>
      <trkpt lat="44.3738" lon="3.27177">
        <ele>841.34</ele>
        <time>2024-11-05T19:41:49.293Z</time>
      </trkpt>
      <trkpt lat="44.37379" lon="3.27183">
        <ele>841.67</ele>
        <time>2024-11-05T19:42:02.221Z</time>
      </trkpt>
      <trkpt lat="44.37377" lon="3.27195">
        <ele>842.04</ele>
        <time>2024-11-05T19:42:15.151Z</time>
      </trkpt>
      <trkpt lat="44.37377" lon="3.27198">
        <ele>842.39</ele>
        <time>2024-11-05T19:42:28.081Z</time>
      </trkpt>
      <trkpt lat="44.37373" lon="3.27206">
        <ele>842.78</ele>
        <time>2024-11-05T19:42:41.012Z</time>
      </trkpt>
      <trkpt lat="44.37369" lon="3.27217">
        <ele>843.17</ele>
        <time>2024-11-05T19:42:53.944Z</time>
      </trkpt>
      <trkpt lat="44.37364" lon="3.27228">
        <ele>843.57</ele>
        <time>2024-11-05T19:43:06.878Z</time>
      </trkpt>
      <trkpt lat="44.37363" lon="3.2723">
        <ele>843.98</ele>
        <time>2024-11-05T19:43:19.812Z</time>
      </trkpt>
      <trkpt lat="44.37359" lon="3.27245">
        <ele>844.41</ele>
        <time>2024-11-05T19:43:32.748Z</time>
      </trkpt>
      <trkpt lat="44.37356" lon="3.27253">
        <ele>844.84</ele>
        <time>2024-11-05T19:43:45.685Z</time>
      </trkpt>
      <trkpt lat="44.37356" lon="3.27256">
        <ele>845.29</ele>
        <time>2024-11-05T19:43:58.622Z</time>
      </trkpt>
      <trkpt lat="44.37355" lon="3.27262">
        <ele>845.75</ele>
        <time>2024-11-05T19:44:11.560Z</time>
      </trkpt>
      <trkpt lat="44.37354" lon="3.27269">
        <ele>846.22</ele>
        <time>2024-11-05T19:44:24.499Z</time>
      </trkpt>
      <trkpt lat="44.37352" lon="3.2728">
        <ele>846.69</ele>
        <time>2024-11-05T19:44:37.439Z</time>
      </trkpt>
      <trkpt lat="44.37352" lon="3.27287">
        <ele>847.19</ele>
        <time>2024-11-05T19:44:50.380Z</time>
      </trkpt>
      <trkpt lat="44.37352" lon="3.27299">
        <ele>847.71</ele>
        <time>2024-11-05T19:45:03.322Z</time>
      </trkpt>
      <trkpt lat="44.37352" lon="3.27301">
        <ele>848.23</ele>
        <time>2024-11-05T19:45:16.265Z</time>
      </trkpt>
      <trkpt lat="44.37349" lon="3.27312">
        <ele>848.78</ele>
        <time>2024-11-05T19:45:29.209Z</time>
      </trkpt>
      <trkpt lat="44.37344" lon="3.2732">
        <ele>849.34</ele>
        <time>2024-11-05T19:45:42.154Z</time>
      </trkpt>
      <trkpt lat="44.37344" lon="3.2732">
        <ele>849.89</ele>
        <time>2024-11-05T19:45:55.099Z</time>
      </trkpt>
      <trkpt lat="44.37336" lon="3.27327">
        <ele>850.46</ele>
        <time>2024-11-05T19:46:08.046Z</time>
      </trkpt>
      <trkpt lat="44.37333" lon="3.2733">
        <ele>851.03</ele>
        <time>2024-11-05T19:46:20.993Z</time>
      </trkpt>
      <trkpt lat="44.37328" lon="3.27332">
        <ele>851.63</ele>
        <time>2024-11-05T19:46:33.941Z</time>
      </trkpt>
      <trkpt lat="44.37319" lon="3.27337">
        <ele>852.25</ele>
        <time>2024-11-05T19:46:46.891Z</time>
      </trkpt>
      <trkpt lat="44.37292" lon="3.27333">
        <ele>852.84</ele>
        <time>2024-11-05T19:46:59.845Z</time>
      </trkpt>
      <trkpt lat="44.3728" lon="3.27334">
        <ele>853.46</ele>
        <time>2024-11-05T19:47:12.801Z</time>
      </trkpt>
      <trkpt lat="44.37276" lon="3.27334">
        <ele>854.1</ele>
        <time>2024-11-05T19:47:25.758Z</time>
      </trkpt>
      <trkpt lat="44.3726" lon="3.27345">
        <ele>854.78</ele>
        <time>2024-11-05T19:47:38.717Z</time>
      </trkpt>
      <trkpt lat="44.37247" lon="3.27354">
        <ele>855.44</ele>
        <time>2024-11-05T19:47:51.679Z</time>
      </trkpt>
      <trkpt lat="44.37237" lon="3.27365">
        <ele>856.13</ele>
        <time>2024-11-05T19:48:04.643Z</time>
      </trkpt>
      <trkpt lat="44.37231" lon="3.27372">
        <ele>856.79</ele>
        <time>2024-11-05T19:48:17.608Z</time>
      </trkpt>
      <trkpt lat="44.37231" lon="3.27373">
        <ele>857.45</ele>
        <time>2024-11-05T19:48:30.573Z</time>
      </trkpt>
      <trkpt lat="44.37222" lon="3.27388">
        <ele>858.13</ele>
        <time>2024-11-05T19:48:43.540Z</time>
      </trkpt>
      <trkpt lat="44.37219" lon="3.27394">
        <ele>858.79</ele>
        <time>2024-11-05T19:48:56.508Z</time>
      </trkpt>
      <trkpt lat="44.37211" lon="3.27414">
        <ele>859.52</ele>
        <time>2024-11-05T19:49:09.479Z</time>
      </trkpt>
      <trkpt lat="44.37206" lon="3.27425">
        <ele>860.23</ele>
        <time>2024-11-05T19:49:22.451Z</time>
      </trkpt>
      <trkpt lat="44.37204" lon="3.2743">
        <ele>860.9</ele>
        <time>2024-11-05T19:49:35.424Z</time>
      </trkpt>
      <trkpt lat="44.37196" lon="3.27446">
        <ele>861.59</ele>
        <time>2024-11-05T19:49:48.399Z</time>
      </trkpt>
      <trkpt lat="44.37191" lon="3.27456">
        <ele>862.26</ele>
        <time>2024-11-05T19:50:01.375Z</time>
      </trkpt>
      <trkpt lat="44.37181" lon="3.27477">
        <ele>862.99</ele>
        <time>2024-11-05T19:50:14.354Z</time>
      </trkpt>
      <trkpt lat="44.37173" lon="3.27491">
        <ele>863.66</ele>
        <time>2024-11-05T19:50:27.335Z</time>
      </trkpt>
      <trkpt lat="44.37156" lon="3.27519">
        <ele>864.36</ele>
        <time>2024-11-05T19:50:40.321Z</time>
      </trkpt>
      <trkpt lat="44.37147" lon="3.27533">
        <ele>865.01</ele>
        <time>2024-11-05T19:50:53.309Z</time>
      </trkpt>
      <trkpt lat="44.37142" lon="3.27543">
        <ele>865.62</ele>
        <time>2024-11-05T19:51:06.298Z</time>
      </trkpt>
      <trkpt lat="44.37141" lon="3.27544">
        <ele>866.21</ele>
        <time>2024-11-05T19:51:19.287Z</time>
      </trkpt>
      <trkpt lat="44.37134" lon="3.27558">
        <ele>866.79</ele>
        <time>2024-11-05T19:51:32.278Z</time>
      </trkpt>
      <trkpt lat="44.37128" lon="3.27568">
        <ele>867.36</ele>
        <time>2024-11-05T19:51:45.271Z</time>
      </trkpt>
      <trkpt lat="44.37118" lon="3.27587">
        <ele>867.93</ele>
        <time>2024-11-05T19:51:58.267Z</time>
      </trkpt>
      <trkpt lat="44.37112" lon="3.27597">
        <ele>868.45</ele>
        <time>2024-11-05T19:52:11.264Z</time>
      </trkpt>
      <trkpt lat="44.37107" lon="3.27607">
        <ele>868.95</ele>
        <time>2024-11-05T19:52:24.262Z</time>
      </trkpt>
      <trkpt lat="44.37102" lon="3.27617">
        <ele>869.47</ele>
        <time>2024-11-05T19:52:37.262Z</time>
      </trkpt>
      <trkpt lat="44.37091" lon="3.27637">
        <ele>869.96</ele>
        <time>2024-11-05T19:52:50.265Z</time>
      </trkpt>
      <trkpt lat="44.37087" lon="3.27647">
        <ele>870.42</ele>
        <time>2024-11-05T19:53:03.269Z</time>
      </trkpt>
      <trkpt lat="44.37082" lon="3.27658">
        <ele>870.84</ele>
        <time>2024-11-05T19:53:16.275Z</time>
      </trkpt>
      <trkpt lat="44.37078" lon="3.27669">
        <ele>871.26</ele>
        <time>2024-11-05T19:53:29.282Z</time>
      </trkpt>
      <trkpt lat="44.37076" lon="3.27674">
        <ele>871.65</ele>
        <time>2024-11-05T19:53:42.290Z</time>
      </trkpt>
      <trkpt lat="44.37071" lon="3.27685">
        <ele>872.04</ele>
        <time>2024-11-05T19:53:55.299Z</time>
      </trkpt>
      <trkpt lat="44.3706" lon="3.27712">
        <ele>872.39</ele>
        <time>2024-11-05T19:54:08.312Z</time>
      </trkpt>
      <trkpt lat="44.3705" lon="3.27736">
        <ele>872.68</ele>
        <time>2024-11-05T19:54:21.328Z</time>
      </trkpt>
      <trkpt lat="44.37039" lon="3.27759">
        <ele>873.02</ele>
        <time>2024-11-05T19:54:34.347Z</time>
      </trkpt>
      <trkpt lat="44.37034" lon="3.2777">
        <ele>873.3</ele>
        <time>2024-11-05T19:54:47.368Z</time>
      </trkpt>
      <trkpt lat="44.37032" lon="3.27775">
        <ele>873.56</ele>
        <time>2024-11-05T19:55:00.389Z</time>
      </trkpt>
      <trkpt lat="44.37022" lon="3.27795">
        <ele>873.78</ele>
        <time>2024-11-05T19:55:13.413Z</time>
      </trkpt>
      <trkpt lat="44.37011" lon="3.27819">
        <ele>873.95</ele>
        <time>2024-11-05T19:55:26.440Z</time>
      </trkpt>
      <trkpt lat="44.37006" lon="3.27827">
        <ele>874.12</ele>
        <time>2024-11-05T19:55:39.469Z</time>
      </trkpt>
      <trkpt lat="44.37" lon="3.27833">
        <ele>874.3</ele>
        <time>2024-11-05T19:55:52.499Z</time>
      </trkpt>
      <trkpt lat="44.36999" lon="3.27833">
        <ele>874.49</ele>
        <time>2024-11-05T19:56:05.529Z</time>
      </trkpt>
      <trkpt lat="44.36994" lon="3.27836">
        <ele>874.66</ele>
        <time>2024-11-05T19:56:18.560Z</time>
      </trkpt>
      <trkpt lat="44.36985" lon="3.27837">
        <ele>874.82</ele>
        <time>2024-11-05T19:56:31.592Z</time>
      </trkpt>
      <trkpt lat="44.36978" lon="3.27834">
        <ele>875</ele>
        <time>2024-11-05T19:56:44.625Z</time>
      </trkpt>
      <trkpt lat="44.36974" lon="3.27832">
        <ele>875.17</ele>
        <time>2024-11-05T19:56:57.659Z</time>
      </trkpt>
      <trkpt lat="44.3697" lon="3.27829">
        <ele>875.34</ele>
        <time>2024-11-05T19:57:10.694Z</time>
      </trkpt>
      <trkpt lat="44.36964" lon="3.27824">
        <ele>875.51</ele>
        <time>2024-11-05T19:57:23.730Z</time>
      </trkpt>
      <trkpt lat="44.36962" lon="3.27822">
        <ele>875.68</ele>
        <time>2024-11-05T19:57:36.766Z</time>
      </trkpt>
      <trkpt lat="44.36955" lon="3.27812">
        <ele>875.87</ele>
        <time>2024-11-05T19:57:49.804Z</time>
      </trkpt>
      <trkpt lat="44.36953" lon="3.27808">
        <ele>876.05</ele>
        <time>2024-11-05T19:58:02.842Z</time>
      </trkpt>
      <trkpt lat="44.36947" lon="3.27799">
        <ele>876.25</ele>
        <time>2024-11-05T19:58:15.882Z</time>
      </trkpt>
      <trkpt lat="44.36938" lon="3.27784">
        <ele>876.42</ele>
        <time>2024-11-05T19:58:28.924Z</time>
      </trkpt>
      <trkpt lat="44.36927" lon="3.27765">
        <ele>876.6</ele>
        <time>2024-11-05T19:58:41.969Z</time>
      </trkpt>
      <trkpt lat="44.36921" lon="3.27756">
        <ele>876.77</ele>
        <time>2024-11-05T19:58:55.015Z</time>
      </trkpt>
      <trkpt lat="44.36918" lon="3.27751">
        <ele>876.94</ele>
        <time>2024-11-05T19:59:08.062Z</time>
      </trkpt>
      <trkpt lat="44.36912" lon="3.27741">
        <ele>877.11</ele>
        <time>2024-11-05T19:59:21.111Z</time>
      </trkpt>
      <trkpt lat="44.36906" lon="3.27732">
        <ele>877.3</ele>
        <time>2024-11-05T19:59:34.161Z</time>
      </trkpt>
      <trkpt lat="44.36903" lon="3.27728">
        <ele>877.49</ele>
        <time>2024-11-05T19:59:47.212Z</time>
      </trkpt>
      <trkpt lat="44.36903" lon="3.27728">
        <ele>877.68</ele>
        <time>2024-11-05T20:00:00.263Z</time>
      </trkpt>
      <trkpt lat="44.36899" lon="3.27724">
        <ele>877.88</ele>
        <time>2024-11-05T20:00:13.314Z</time>
      </trkpt>
      <trkpt lat="44.36896" lon="3.27721">
        <ele>878.09</ele>
        <time>2024-11-05T20:00:26.366Z</time>
      </trkpt>
      <trkpt lat="44.36892" lon="3.27717">
        <ele>878.31</ele>
        <time>2024-11-05T20:00:39.419Z</time>
      </trkpt>
      <trkpt lat="44.36891" lon="3.27716">
        <ele>878.54</ele>
        <time>2024-11-05T20:00:52.472Z</time>
      </trkpt>
      <trkpt lat="44.36884" lon="3.27711">
        <ele>878.76</ele>
        <time>2024-11-05T20:01:05.526Z</time>
      </trkpt>
      <trkpt lat="44.3688" lon="3.27708">
        <ele>879</ele>
        <time>2024-11-05T20:01:18.581Z</time>
      </trkpt>
      <trkpt lat="44.36872" lon="3.27702">
        <ele>879.26</ele>
        <time>2024-11-05T20:01:31.637Z</time>
      </trkpt>
      <trkpt lat="44.36868" lon="3.27699">
        <ele>879.53</ele>
        <time>2024-11-05T20:01:44.694Z</time>
      </trkpt>
      <trkpt lat="44.36865" lon="3.27696">
        <ele>879.81</ele>
        <time>2024-11-05T20:01:57.752Z</time>
      </trkpt>
      <trkpt lat="44.3686" lon="3.27694">
        <ele>880.11</ele>
        <time>2024-11-05T20:02:10.811Z</time>
      </trkpt>
      <trkpt lat="44.36839" lon="3.27684">
        <ele>880.49</ele>
        <time>2024-11-05T20:02:23.873Z</time>
      </trkpt>
      <trkpt lat="44.3683" lon="3.27683">
        <ele>880.85</ele>
        <time>2024-11-05T20:02:36.937Z</time>
      </trkpt>
      <trkpt lat="44.3683" lon="3.27683">
        <ele>881.19</ele>
        <time>2024-11-05T20:02:50.001Z</time>
      </trkpt>
      <trkpt lat="44.36821" lon="3.27684">
        <ele>881.57</ele>
        <time>2024-11-05T20:03:03.066Z</time>
      </trkpt>
      <trkpt lat="44.36813" lon="3.27687">
        <ele>881.96</ele>
        <time>2024-11-05T20:03:16.132Z</time>
      </trkpt>
      <trkpt lat="44.36812" lon="3.27687">
        <ele>882.33</ele>
        <time>2024-11-05T20:03:29.198Z</time>
      </trkpt>
      <trkpt lat="44.36798" lon="3.27699">
        <ele>882.75</ele>
        <time>2024-11-05T20:03:42.267Z</time>
      </trkpt>
      <trkpt lat="44.36797" lon="3.277">
        <ele>883.13</ele>
        <time>2024-11-05T20:03:55.336Z</time>
      </trkpt>
      <trkpt lat="44.3679" lon="3.27708">
        <ele>883.54</ele>
        <time>2024-11-05T20:04:08.407Z</time>
      </trkpt>
      <trkpt lat="44.36783" lon="3.27716">
        <ele>883.97</ele>
        <time>2024-11-05T20:04:21.479Z</time>
      </trkpt>
      <trkpt lat="44.36763" lon="3.2774">
        <ele>884.44</ele>
        <time>2024-11-05T20:04:34.555Z</time>
      </trkpt>
      <trkpt lat="44.36757" lon="3.27747">
        <ele>884.88</ele>
        <time>2024-11-05T20:04:47.633Z</time>
      </trkpt>
      <trkpt lat="44.36743" lon="3.27767">
        <ele>885.36</ele>
        <time>2024-11-05T20:05:00.714Z</time>
      </trkpt>
      <trkpt lat="44.36739" lon="3.27773">
        <ele>885.79</ele>
        <time>2024-11-05T20:05:13.796Z</time>
      </trkpt>
      <trkpt lat="44.36738" lon="3.27776">
        <ele>886.22</ele>
        <time>2024-11-05T20:05:26.878Z</time>
      </trkpt>
      <trkpt lat="44.36733" lon="3.27787">
        <ele>886.67</ele>
        <time>2024-11-05T20:05:39.962Z</time>
      </trkpt>
      <trkpt lat="44.36731" lon="3.27792">
        <ele>887.11</ele>
        <time>2024-11-05T20:05:53.046Z</time>
      </trkpt>
      <trkpt lat="44.36729" lon="3.27798">
        <ele>887.55</ele>
        <time>2024-11-05T20:06:06.131Z</time>
      </trkpt>
      <trkpt lat="44.36727" lon="3.27804">
        <ele>888</ele>
        <time>2024-11-05T20:06:19.217Z</time>
      </trkpt>
      <trkpt lat="44.36723" lon="3.27815">
        <ele>888.46</ele>
        <time>2024-11-05T20:06:32.304Z</time>
      </trkpt>
      <trkpt lat="44.36717" lon="3.27832">
        <ele>888.94</ele>
        <time>2024-11-05T20:06:45.393Z</time>
      </trkpt>
      <trkpt lat="44.36711" lon="3.27849">
        <ele>889.39</ele>
        <time>2024-11-05T20:06:58.485Z</time>
      </trkpt>
      <trkpt lat="44.36711" lon="3.2785">
        <ele>889.83</ele>
        <time>2024-11-05T20:07:11.577Z</time>
      </trkpt>
      <trkpt lat="44.36708" lon="3.27861">
        <ele>890.29</ele>
        <time>2024-11-05T20:07:24.670Z</time>
      </trkpt>
      <trkpt lat="44.36707" lon="3.27866">
        <ele>890.74</ele>
        <time>2024-11-05T20:07:37.764Z</time>
      </trkpt>
      <trkpt lat="44.36705" lon="3.27872">
        <ele>891.19</ele>
        <time>2024-11-05T20:07:50.858Z</time>
      </trkpt>
      <trkpt lat="44.36704" lon="3.27878">
        <ele>891.64</ele>
        <time>2024-11-05T20:08:03.953Z</time>
      </trkpt>
      <trkpt lat="44.36702" lon="3.27884">
        <ele>892.09</ele>
        <time>2024-11-05T20:08:17.049Z</time>
      </trkpt>
      <trkpt lat="44.36701" lon="3.2789">
        <ele>892.53</ele>
        <time>2024-11-05T20:08:30.146Z</time>
      </trkpt>
      <trkpt lat="44.36698" lon="3.279">
        <ele>892.96</ele>
        <time>2024-11-05T20:08:43.244Z</time>
      </trkpt>
      <trkpt lat="44.36697" lon="3.27901">
        <ele>893.42</ele>
        <time>2024-11-05T20:08:56.342Z</time>
      </trkpt>
      <trkpt lat="44.36693" lon="3.27909">
        <ele>893.87</ele>
        <time>2024-11-05T20:09:09.441Z</time>
      </trkpt>
      <trkpt lat="44.36684" lon="3.27918">
        <ele>894.31</ele>
        <time>2024-11-05T20:09:22.542Z</time>
      </trkpt>
      <trkpt lat="44.36681" lon="3.27922">
        <ele>894.77</ele>
        <time>2024-11-05T20:09:35.644Z</time>
      </trkpt>
      <trkpt lat="44.36679" lon="3.27924">
        <ele>895.23</ele>
        <time>2024-11-05T20:09:48.746Z</time>
      </trkpt>
      <trkpt lat="44.36677" lon="3.27925">
        <ele>895.71</ele>
        <time>2024-11-05T20:10:01.848Z</time>
      </trkpt>
      <trkpt lat="44.36672" lon="3.27926">
        <ele>896.21</ele>
        <time>2024-11-05T20:10:14.951Z</time>
      </trkpt>
      <trkpt lat="44.36668" lon="3.27928">
        <ele>896.71</ele>
        <time>2024-11-05T20:10:28.055Z</time>
      </trkpt>
      <trkpt lat="44.36664" lon="3.2793">
        <ele>897.22</ele>
        <time>2024-11-05T20:10:41.159Z</time>
      </trkpt>
      <trkpt lat="44.3666" lon="3.27931">
        <ele>897.72</ele>
        <time>2024-11-05T20:10:54.264Z</time>
      </trkpt>
      <trkpt lat="44.36659" lon="3.27931">
        <ele>898.22</ele>
        <time>2024-11-05T20:11:07.369Z</time>
      </trkpt>
      <trkpt lat="44.36655" lon="3.27932">
        <ele>898.74</ele>
        <time>2024-11-05T20:11:20.475Z</time>
      </trkpt>
      <trkpt lat="44.36651" lon="3.27933">
        <ele>899.26</ele>
        <time>2024-11-05T20:11:33.582Z</time>
      </trkpt>
      <trkpt lat="44.36647" lon="3.27933">
        <ele>899.78</ele>
        <time>2024-11-05T20:11:46.689Z</time>
      </trkpt>
      <trkpt lat="44.36642" lon="3.27933">
        <ele>900.31</ele>
        <time>2024-11-05T20:11:59.797Z</time>
      </trkpt>
      <trkpt lat="44.36628" lon="3.27932">
        <ele>900.86</ele>
        <time>2024-11-05T20:12:12.907Z</time>
      </trkpt>
      <trkpt lat="44.3661" lon="3.27931">
        <ele>901.45</ele>
        <time>2024-11-05T20:12:26.020Z</time>
      </trkpt>
      <trkpt lat="44.36603" lon="3.2793">
        <ele>901.97</ele>
        <time>2024-11-05T20:12:39.134Z</time>
      </trkpt>
      <trkpt lat="44.36601" lon="3.2793">
        <ele>902.48</ele>
        <time>2024-11-05T20:12:52.249Z</time>
      </trkpt>
      <trkpt lat="44.36597" lon="3.27931">
        <ele>902.98</ele>
        <time>2024-11-05T20:13:05.364Z</time>
      </trkpt>
      <trkpt lat="44.36593" lon="3.27931">
        <ele>903.49</ele>
        <time>2024-11-05T20:13:18.480Z</time>
      </trkpt>
      <trkpt lat="44.36588" lon="3.27933">
        <ele>903.99</ele>
        <time>2024-11-05T20:13:31.597Z</time>
      </trkpt>
      <trkpt lat="44.36582" lon="3.27935">
        <ele>904.49</ele>
        <time>2024-11-05T20:13:44.715Z</time>
      </trkpt>
      <trkpt lat="44.3658" lon="3.27937">
        <ele>904.98</ele>
        <time>2024-11-05T20:13:57.833Z</time>
      </trkpt>
      <trkpt lat="44.36572" lon="3.27943">
        <ele>905.46</ele>
        <time>2024-11-05T20:14:10.953Z</time>
      </trkpt>
      <trkpt lat="44.36569" lon="3.27945">
        <ele>905.92</ele>
        <time>2024-11-05T20:14:24.073Z</time>
      </trkpt>
      <trkpt lat="44.36564" lon="3.2795">
        <ele>906.38</ele>
        <time>2024-11-05T20:14:37.194Z</time>
      </trkpt>
      <trkpt lat="44.3655" lon="3.27965">
        <ele>906.86</ele>
        <time>2024-11-05T20:14:50.318Z</time>
      </trkpt>
      <trkpt lat="44.36543" lon="3.27972">
        <ele>907.3</ele>
        <time>2024-11-05T20:15:03.443Z</time>
      </trkpt>
      <trkpt lat="44.36535" lon="3.2798">
        <ele>907.72</ele>
        <time>2024-11-05T20:15:16.570Z</time>
      </trkpt>
      <trkpt lat="44.36528" lon="3.27987">
        <ele>908.13</ele>
        <time>2024-11-05T20:15:29.698Z</time>
      </trkpt>
      <trkpt lat="44.36525" lon="3.27991">
        <ele>908.52</ele>
        <time>2024-11-05T20:15:42.827Z</time>
      </trkpt>
      <trkpt lat="44.36517" lon="3.27998">
        <ele>908.93</ele>
        <time>2024-11-05T20:15:55.957Z</time>
      </trkpt>
      <trkpt lat="44.36496" lon="3.2802">
        <ele>909.36</ele>
        <time>2024-11-05T20:16:09.092Z</time>
      </trkpt>
      <trkpt lat="44.36485" lon="3.28032">
        <ele>909.73</ele>
        <time>2024-11-05T20:16:22.229Z</time>
      </trkpt>
      <trkpt lat="44.36478" lon="3.28039">
        <ele>910.09</ele>
        <time>2024-11-05T20:16:35.367Z</time>
      </trkpt>
      <trkpt lat="44.36471" lon="3.28046">
        <ele>910.42</ele>
        <time>2024-11-05T20:16:48.507Z</time>
      </trkpt>
      <trkpt lat="44.36471" lon="3.28046">
        <ele>910.71</ele>
        <time>2024-11-05T20:17:01.647Z</time>
      </trkpt>
      <trkpt lat="44.36463" lon="3.28053">
        <ele>911</ele>
        <time>2024-11-05T20:17:14.788Z</time>
      </trkpt>
      <trkpt lat="44.36459" lon="3.28056">
        <ele>911.25</ele>
        <time>2024-11-05T20:17:27.930Z</time>
      </trkpt>
      <trkpt lat="44.36457" lon="3.28057">
        <ele>911.47</ele>
        <time>2024-11-05T20:17:41.072Z</time>
      </trkpt>
      <trkpt lat="44.3645" lon="3.28059">
        <ele>911.67</ele>
        <time>2024-11-05T20:17:54.215Z</time>
      </trkpt>
      <trkpt lat="44.36448" lon="3.2806">
        <ele>911.85</ele>
        <time>2024-11-05T20:18:07.359Z</time>
      </trkpt>
      <trkpt lat="44.36441" lon="3.2806">
        <ele>912.02</ele>
        <time>2024-11-05T20:18:20.504Z</time>
      </trkpt>
      <trkpt lat="44.36438" lon="3.2806">
        <ele>912.14</ele>
        <time>2024-11-05T20:18:33.649Z</time>
      </trkpt>
      <trkpt lat="44.36428" lon="3.28058">
        <ele>912.25</ele>
        <time>2024-11-05T20:18:46.796Z</time>
      </trkpt>
      <trkpt lat="44.36419" lon="3.28057">
        <ele>912.32</ele>
        <time>2024-11-05T20:18:59.944Z</time>
      </trkpt>
      <trkpt lat="44.36413" lon="3.28056">
        <ele>912.37</ele>
        <time>2024-11-05T20:19:13.093Z</time>
      </trkpt>
      <trkpt lat="44.3641" lon="3.28056">
        <ele>912.37</ele>
        <time>2024-11-05T20:19:26.243Z</time>
      </trkpt>
      <trkpt lat="44.36406" lon="3.28056">
        <ele>912.35</ele>
        <time>2024-11-05T20:19:39.393Z</time>
      </trkpt>
      <trkpt lat="44.36401" lon="3.28056">
        <ele>912.3</ele>
        <time>2024-11-05T20:19:52.544Z</time>
      </trkpt>
      <trkpt lat="44.36397" lon="3.28056">
        <ele>912.23</ele>
        <time>2024-11-05T20:20:05.696Z</time>
      </trkpt>
      <trkpt lat="44.36392" lon="3.28055">
        <ele>912.13</ele>
        <time>2024-11-05T20:20:18.849Z</time>
      </trkpt>
      <trkpt lat="44.36388" lon="3.28055">
        <ele>912.01</ele>
        <time>2024-11-05T20:20:32.002Z</time>
      </trkpt>
      <trkpt lat="44.36383" lon="3.28055">
        <ele>911.86</ele>
        <time>2024-11-05T20:20:45.156Z</time>
      </trkpt>
      <trkpt lat="44.36379" lon="3.28055">
        <ele>911.69</ele>
        <time>2024-11-05T20:20:58.311Z</time>
      </trkpt>
      <trkpt lat="44.36379" lon="3.28055">
        <ele>911.5</ele>
        <time>2024-11-05T20:21:11.466Z</time>
      </trkpt>
      <trkpt lat="44.36361" lon="3.28052">
        <ele>911.28</ele>
        <time>2024-11-05T20:21:24.624Z</time>
      </trkpt>
      <trkpt lat="44.3636" lon="3.28052">
        <ele>911.05</ele>
        <time>2024-11-05T20:21:37.782Z</time>
      </trkpt>
      <trkpt lat="44.36353" lon="3.28048">
        <ele>910.78</ele>
        <time>2024-11-05T20:21:50.941Z</time>
      </trkpt>
      <trkpt lat="44.36349" lon="3.28046">
        <ele>910.51</ele>
        <time>2024-11-05T20:22:04.101Z</time>
      </trkpt>
      <trkpt lat="44.36345" lon="3.28043">
        <ele>910.22</ele>
        <time>2024-11-05T20:22:17.261Z</time>
      </trkpt>
      <trkpt lat="44.36341" lon="3.2804">
        <ele>909.93</ele>
        <time>2024-11-05T20:22:30.422Z</time>
      </trkpt>
      <trkpt lat="44.36333" lon="3.28033">
        <ele>909.61</ele>
        <time>2024-11-05T20:22:43.585Z</time>
      </trkpt>
      <trkpt lat="44.36313" lon="3.28018">
        <ele>909.27</ele>
        <time>2024-11-05T20:22:56.751Z</time>
      </trkpt>
      <trkpt lat="44.36311" lon="3.28016">
        <ele>908.96</ele>
        <time>2024-11-05T20:23:09.918Z</time>
      </trkpt>
      <trkpt lat="44.36309" lon="3.28015">
        <ele>908.65</ele>
        <time>2024-11-05T20:23:23.085Z</time>
      </trkpt>
      <trkpt lat="44.3629" lon="3.28008">
        <ele>908.35</ele>
        <time>2024-11-05T20:23:36.255Z</time>
      </trkpt>
      <trkpt lat="44.36283" lon="3.2801">
        <ele>908.02</ele>
        <time>2024-11-05T20:23:49.426Z</time>
      </trkpt>
      <trkpt lat="44.36274" lon="3.28013">
        <ele>907.69</ele>
        <time>2024-11-05T20:24:02.599Z</time>
      </trkpt>
      <trkpt lat="44.36264" lon="3.28019">
        <ele>907.38</ele>
        <time>2024-11-05T20:24:15.773Z</time>
      </trkpt>
      <trkpt lat="44.36251" lon="3.2803">
        <ele>907.06</ele>
        <time>2024-11-05T20:24:28.950Z</time>
      </trkpt>
      <trkpt lat="44.36239" lon="3.28039">
        <ele>906.75</ele>
        <time>2024-11-05T20:24:42.129Z</time>
      </trkpt>
      <trkpt lat="44.36234" lon="3.28043">
        <ele>906.46</ele>
        <time>2024-11-05T20:24:55.309Z</time>
      </trkpt>
      <trkpt lat="44.36231" lon="3.28046">
        <ele>906.19</ele>
        <time>2024-11-05T20:25:08.489Z</time>
      </trkpt>
      <trkpt lat="44.36215" lon="3.28062">
        <ele>905.88</ele>
        <time>2024-11-05T20:25:21.673Z</time>
      </trkpt>
      <trkpt lat="44.36213" lon="3.28064">
        <ele>905.65</ele>
        <time>2024-11-05T20:25:34.857Z</time>
      </trkpt>
      <trkpt lat="44.36206" lon="3.28072">
        <ele>905.42</ele>
        <time>2024-11-05T20:25:48.043Z</time>
      </trkpt>
      <trkpt lat="44.36189" lon="3.28092">
        <ele>905.23</ele>
        <time>2024-11-05T20:26:01.232Z</time>
      </trkpt>
      <trkpt lat="44.3618" lon="3.28102">
        <ele>905.07</ele>
        <time>2024-11-05T20:26:14.423Z</time>
      </trkpt>
      <trkpt lat="44.36171" lon="3.2811">
        <ele>904.94</ele>
        <time>2024-11-05T20:26:27.616Z</time>
      </trkpt>
      <trkpt lat="44.3616" lon="3.28121">
        <ele>904.84</ele>
        <time>2024-11-05T20:26:40.811Z</time>
      </trkpt>
      <trkpt lat="44.36153" lon="3.28128">
        <ele>904.76</ele>
        <time>2024-11-05T20:26:54.007Z</time>
      </trkpt>
      <trkpt lat="44.36149" lon="3.28132">
        <ele>904.71</ele>
        <time>2024-11-05T20:27:07.204Z</time>
      </trkpt>
      <trkpt lat="44.36145" lon="3.28135">
        <ele>904.69</ele>
        <time>2024-11-05T20:27:20.402Z</time>
      </trkpt>
      <trkpt lat="44.36134" lon="3.28146">
        <ele>904.71</ele>
        <time>2024-11-05T20:27:33.602Z</time>
      </trkpt>
      <trkpt lat="44.36123" lon="3.28156">
        <ele>904.76</ele>
        <time>2024-11-05T20:27:46.804Z</time>
      </trkpt>
      <trkpt lat="44.36115" lon="3.28163">
        <ele>904.83</ele>
        <time>2024-11-05T20:28:00.007Z</time>
      </trkpt>
      <trkpt lat="44.36108" lon="3.2817">
        <ele>904.95</ele>
        <time>2024-11-05T20:28:13.212Z</time>
      </trkpt>
      <trkpt lat="44.36106" lon="3.28172">
        <ele>905.1</ele>
        <time>2024-11-05T20:28:26.417Z</time>
      </trkpt>
      <trkpt lat="44.36101" lon="3.28177">
        <ele>905.29</ele>
        <time>2024-11-05T20:28:39.623Z</time>
      </trkpt>
      <trkpt lat="44.36097" lon="3.28181">
        <ele>905.5</ele>
        <time>2024-11-05T20:28:52.830Z</time>
      </trkpt>
      <trkpt lat="44.36093" lon="3.28185">
        <ele>905.75</ele>
        <time>2024-11-05T20:29:06.038Z</time>
      </trkpt>
      <trkpt lat="44.36086" lon="3.28192">
        <ele>906.04</ele>
        <time>2024-11-05T20:29:19.247Z</time>
      </trkpt>
      <trkpt lat="44.36079" lon="3.28199">
        <ele>906.36</ele>
        <time>2024-11-05T20:29:32.458Z</time>
      </trkpt>
      <trkpt lat="44.36068" lon="3.2821">
        <ele>906.73</ele>
        <time>2024-11-05T20:29:45.671Z</time>
      </trkpt>
      <trkpt lat="44.36062" lon="3.28216">
        <ele>907.08</ele>
        <time>2024-11-05T20:29:58.885Z</time>
      </trkpt>
      <trkpt lat="44.3606" lon="3.28217">
        <ele>907.46</ele>
        <time>2024-11-05T20:30:12.099Z</time>
      </trkpt>
      <trkpt lat="44.36052" lon="3.28222">
        <ele>907.87</ele>
        <time>2024-11-05T20:30:25.315Z</time>
      </trkpt>
      <trkpt lat="44.36049" lon="3.28224">
        <ele>908.31</ele>
        <time>2024-11-05T20:30:38.531Z</time>
      </trkpt>
      <trkpt lat="44.36044" lon="3.28226">
        <ele>908.77</ele>
        <time>2024-11-05T20:30:51.748Z</time>
      </trkpt>
      <trkpt lat="44.36032" lon="3.28231">
        <ele>909.29</ele>
        <time>2024-11-05T20:31:04.967Z</time>
      </trkpt>
      <trkpt lat="44.36023" lon="3.28233">
        <ele>909.8</ele>
        <time>2024-11-05T20:31:18.188Z</time>
      </trkpt>
      <trkpt lat="44.36022" lon="3.28233">
        <ele>910.3</ele>
        <time>2024-11-05T20:31:31.409Z</time>
      </trkpt>
      <trkpt lat="44.36013" lon="3.28233">
        <ele>910.83</ele>
        <time>2024-11-05T20:31:44.631Z</time>
      </trkpt>
      <trkpt lat="44.36" lon="3.28233">
        <ele>911.37</ele>
        <time>2024-11-05T20:31:57.855Z</time>
      </trkpt>
      <trkpt lat="44.35995" lon="3.28232">
        <ele>911.92</ele>
        <time>2024-11-05T20:32:11.080Z</time>
      </trkpt>
      <trkpt lat="44.35991" lon="3.28231">
        <ele>912.47</ele>
        <time>2024-11-05T20:32:24.306Z</time>
      </trkpt>
      <trkpt lat="44.35981" lon="3.28229">
        <ele>913.02</ele>
        <time>2024-11-05T20:32:37.533Z</time>
      </trkpt>
      <trkpt lat="44.35974" lon="3.28225">
        <ele>913.61</ele>
        <time>2024-11-05T20:32:50.762Z</time>
      </trkpt>
      <trkpt lat="44.35961" lon="3.28218">
        <ele>914.21</ele>
        <time>2024-11-05T20:33:03.993Z</time>
      </trkpt>
      <trkpt lat="44.35957" lon="3.28215">
        <ele>914.8</ele>
        <time>2024-11-05T20:33:17.224Z</time>
      </trkpt>
      <trkpt lat="44.35953" lon="3.28213">
        <ele>915.39</ele>
        <time>2024-11-05T20:33:30.456Z</time>
      </trkpt>
      <trkpt lat="44.3595" lon="3.28211">
        <ele>915.99</ele>
        <time>2024-11-05T20:33:43.689Z</time>
      </trkpt>
      <trkpt lat="44.35945" lon="3.28207">
        <ele>916.58</ele>
        <time>2024-11-05T20:33:56.923Z</time>
      </trkpt>
      <trkpt lat="44.35941" lon="3.28204">
        <ele>917.18</ele>
        <time>2024-11-05T20:34:10.157Z</time>
      </trkpt>
      <trkpt lat="44.35933" lon="3.28198">
        <ele>917.78</ele>
        <time>2024-11-05T20:34:23.393Z</time>
      </trkpt>
      <trkpt lat="44.35925" lon="3.28192">
        <ele>918.38</ele>
        <time>2024-11-05T20:34:36.630Z</time>
      </trkpt>
      <trkpt lat="44.35914" lon="3.28183">
        <ele>918.97</ele>
        <time>2024-11-05T20:34:49.869Z</time>
      </trkpt>
      <trkpt lat="44.35894" lon="3.28167">
        <ele>919.57</ele>
        <time>2024-11-05T20:35:03.112Z</time>
      </trkpt>
      <trkpt lat="44.35886" lon="3.28161">
        <ele>920.15</ele>
        <time>2024-11-05T20:35:16.356Z</time>
      </trkpt>
      <trkpt lat="44.35878" lon="3.28156">
        <ele>920.71</ele>
        <time>2024-11-05T20:35:29.602Z</time>
      </trkpt>
      <trkpt lat="44.35874" lon="3.28154">
        <ele>921.25</ele>
        <time>2024-11-05T20:35:42.848Z</time>
      </trkpt>
      <trkpt lat="44.35865" lon="3.28152">
        <ele>921.78</ele>
        <time>2024-11-05T20:35:56.096Z</time>
      </trkpt>
      <trkpt lat="44.35859" lon="3.2815">
        <ele>922.29</ele>
        <time>2024-11-05T20:36:09.345Z</time>
      </trkpt>
      <trkpt lat="44.35838" lon="3.28151">
        <ele>922.75</ele>
        <time>2024-11-05T20:36:22.597Z</time>
      </trkpt>
      <trkpt lat="44.35834" lon="3.28151">
        <ele>923.21</ele>
        <time>2024-11-05T20:36:35.850Z</time>
      </trkpt>
      <trkpt lat="44.35825" lon="3.28151">
        <ele>923.66</ele>
        <time>2024-11-05T20:36:49.104Z</time>
      </trkpt>
      <trkpt lat="44.35807" lon="3.28152">
        <ele>924.16</ele>
        <time>2024-11-05T20:37:02.361Z</time>
      </trkpt>
      <trkpt lat="44.35798" lon="3.28152">
        <ele>924.6</ele>
        <time>2024-11-05T20:37:15.620Z</time>
      </trkpt>
      <trkpt lat="44.35793" lon="3.28152">
        <ele>925</ele>
        <time>2024-11-05T20:37:28.879Z</time>
      </trkpt>
      <trkpt lat="44.35789" lon="3.28153">
        <ele>925.37</ele>
        <time>2024-11-05T20:37:42.139Z</time>
      </trkpt>
      <trkpt lat="44.35776" lon="3.28153">
        <ele>925.76</ele>
        <time>2024-11-05T20:37:55.401Z</time>
      </trkpt>
      <trkpt lat="44.35762" lon="3.28154">
        <ele>926.07</ele>
        <time>2024-11-05T20:38:08.665Z</time>
      </trkpt>
      <trkpt lat="44.35753" lon="3.28154">
        <ele>926.35</ele>
        <time>2024-11-05T20:38:21.931Z</time>
      </trkpt>
      <trkpt lat="44.3575" lon="3.28154">
        <ele>926.58</ele>
        <time>2024-11-05T20:38:35.197Z</time>
      </trkpt>
      <trkpt lat="44.35744" lon="3.28156">
        <ele>926.8</ele>
        <time>2024-11-05T20:38:48.464Z</time>
      </trkpt>
      <trkpt lat="44.35736" lon="3.28159">
        <ele>926.97</ele>
        <time>2024-11-05T20:39:01.733Z</time>
      </trkpt>
      <trkpt lat="44.3571" lon="3.28167">
        <ele>927.11</ele>
        <time>2024-11-05T20:39:15.006Z</time>
      </trkpt>
      <trkpt lat="44.35701" lon="3.2817">
        <ele>927.19</ele>
        <time>2024-11-05T20:39:28.280Z</time>
      </trkpt>
      <trkpt lat="44.35692" lon="3.28171">
        <ele>927.23</ele>
        <time>2024-11-05T20:39:41.556Z</time>
      </trkpt>
      <trkpt lat="44.3569" lon="3.28171">
        <ele>927.25</ele>
        <time>2024-11-05T20:39:54.832Z</time>
      </trkpt>
      <trkpt lat="44.35683" lon="3.2817">
        <ele>927.22</ele>
        <time>2024-11-05T20:40:08.109Z</time>
      </trkpt>
      <trkpt lat="44.35674" lon="3.28168">
        <ele>927.14</ele>
        <time>2024-11-05T20:40:21.388Z</time>
      </trkpt>
      <trkpt lat="44.3567" lon="3.28167">
        <ele>927.05</ele>
        <time>2024-11-05T20:40:34.667Z</time>
      </trkpt>
      <trkpt lat="44.35666" lon="3.28166">
        <ele>926.91</ele>
        <time>2024-11-05T20:40:47.947Z</time>
      </trkpt>
      <trkpt lat="44.35665" lon="3.28166">
        <ele>926.76</ele>
        <time>2024-11-05T20:41:01.227Z</time>
      </trkpt>
      <trkpt lat="44.35657" lon="3.28162">
        <ele>926.55</ele>
        <time>2024-11-05T20:41:14.509Z</time>
      </trkpt>
      <trkpt lat="44.35644" lon="3.28157">
        <ele>926.33</ele>
        <time>2024-11-05T20:41:27.793Z</time>
      </trkpt>
      <trkpt lat="44.35632" lon="3.28149">
        <ele>926.07</ele>
        <time>2024-11-05T20:41:41.079Z</time>
      </trkpt>
      <trkpt lat="44.35628" lon="3.28146">
        <ele>925.79</ele>
        <time>2024-11-05T20:41:54.366Z</time>
      </trkpt>
      <trkpt lat="44.35612" lon="3.28133">
        <ele>925.47</ele>
        <time>2024-11-05T20:42:07.656Z</time>
      </trkpt>
      <trkpt lat="44.35593" lon="3.28117">
        <ele>925.08</ele>
        <time>2024-11-05T20:42:20.949Z</time>
      </trkpt>
      <trkpt lat="44.35585" lon="3.28111">
        <ele>924.68</ele>
        <time>2024-11-05T20:42:34.244Z</time>
      </trkpt>
      <trkpt lat="44.35583" lon="3.28109">
        <ele>924.27</ele>
        <time>2024-11-05T20:42:47.539Z</time>
      </trkpt>
      <trkpt lat="44.35577" lon="3.28105">
        <ele>923.82</ele>
        <time>2024-11-05T20:43:00.835Z</time>
      </trkpt>
      <trkpt lat="44.35573" lon="3.28102">
        <ele>923.35</ele>
        <time>2024-11-05T20:43:14.132Z</time>
      </trkpt>
      <trkpt lat="44.35569" lon="3.281">
        <ele>922.85</ele>
        <time>2024-11-05T20:43:27.429Z</time>
      </trkpt>
      <trkpt lat="44.35567" lon="3.28098">
        <ele>922.33</ele>
        <time>2024-11-05T20:43:40.727Z</time>
      </trkpt>
      <trkpt lat="44.35552" lon="3.28091">
        <ele>921.76</ele>
        <time>2024-11-05T20:43:54.027Z</time>
      </trkpt>
      <trkpt lat="44.35548" lon="3.28089">
        <ele>921.18</ele>
        <time>2024-11-05T20:44:07.328Z</time>
      </trkpt>
      <trkpt lat="44.3554" lon="3.28084">
        <ele>920.56</ele>
        <time>2024-11-05T20:44:20.630Z</time>
      </trkpt>
      <trkpt lat="44.35531" lon="3.2808">
        <ele>919.92</ele>
        <time>2024-11-05T20:44:33.934Z</time>
      </trkpt>
      <trkpt lat="44.35527" lon="3.28078">
        <ele>919.28</ele>
        <time>2024-11-05T20:44:47.239Z</time>
      </trkpt>
      <trkpt lat="44.35519" lon="3.28073">
        <ele>918.6</ele>
        <time>2024-11-05T20:45:00.545Z</time>
      </trkpt>
      <trkpt lat="44.35503" lon="3.28064">
        <ele>917.86</ele>
        <time>2024-11-05T20:45:13.854Z</time>
      </trkpt>
      <trkpt lat="44.35478" lon="3.28049">
        <ele>917.09</ele>
        <time>2024-11-05T20:45:27.167Z</time>
      </trkpt>
      <trkpt lat="44.35465" lon="3.28042">
        <ele>916.38</ele>
        <time>2024-11-05T20:45:40.482Z</time>
      </trkpt>
      <trkpt lat="44.35457" lon="3.28038">
        <ele>915.67</ele>
        <time>2024-11-05T20:45:53.799Z</time>
      </trkpt>
      <trkpt lat="44.35449" lon="3.28033">
        <ele>914.95</ele>
        <time>2024-11-05T20:46:07.117Z</time>
      </trkpt>
      <trkpt lat="44.35445" lon="3.2803">
        <ele>914.22</ele>
        <time>2024-11-05T20:46:20.436Z</time>
      </trkpt>
      <trkpt lat="44.35436" lon="3.28026">
        <ele>913.48</ele>
        <time>2024-11-05T20:46:33.756Z</time>
      </trkpt>
      <trkpt lat="44.35428" lon="3.28021">
        <ele>912.73</ele>
        <time>2024-11-05T20:46:47.078Z</time>
      </trkpt>
      <trkpt lat="44.3542" lon="3.28016">
        <ele>911.97</ele>
        <time>2024-11-05T20:47:00.401Z</time>
      </trkpt>
      <trkpt lat="44.35409" lon="3.2801">
        <ele>911.21</ele>
        <time>2024-11-05T20:47:13.726Z</time>
      </trkpt>
      <trkpt lat="44.35402" lon="3.28008">
        <ele>910.43</ele>
        <time>2024-11-05T20:47:27.052Z</time>
      </trkpt>
      <trkpt lat="44.35399" lon="3.28008">
        <ele>909.63</ele>
        <time>2024-11-05T20:47:40.379Z</time>
      </trkpt>
      <trkpt lat="44.3539" lon="3.28009">
        <ele>908.79</ele>
        <time>2024-11-05T20:47:53.707Z</time>
      </trkpt>
      <trkpt lat="44.35387" lon="3.28009">
        <ele>907.97</ele>
        <time>2024-11-05T20:48:07.036Z</time>
      </trkpt>
      <trkpt lat="44.35381" lon="3.28012">
        <ele>907.15</ele>
        <time>2024-11-05T20:48:20.366Z</time>
      </trkpt>
      <trkpt lat="44.35373" lon="3.28017">
        <ele>906.33</ele>
        <time>2024-11-05T20:48:33.697Z</time>
      </trkpt>
      <trkpt lat="44.35363" lon="3.2803">
        <ele>905.45</ele>
        <time>2024-11-05T20:48:47.030Z</time>
      </trkpt>
      <trkpt lat="44.35361" lon="3.28036">
        <ele>904.57</ele>
        <time>2024-11-05T20:49:00.364Z</time>
      </trkpt>
      <trkpt lat="44.35354" lon="3.28052">
        <ele>903.64</ele>
        <time>2024-11-05T20:49:13.700Z</time>
      </trkpt>
      <trkpt lat="44.35349" lon="3.28066">
        <ele>902.83</ele>
        <time>2024-11-05T20:49:27.038Z</time>
      </trkpt>
      <trkpt lat="44.35348" lon="3.28068">
        <ele>901.99</ele>
        <time>2024-11-05T20:49:40.376Z</time>
      </trkpt>
      <trkpt lat="44.35337" lon="3.28088">
        <ele>901.12</ele>
        <time>2024-11-05T20:49:53.717Z</time>
      </trkpt>
      <trkpt lat="44.35309" lon="3.28124">
        <ele>900.19</ele>
        <time>2024-11-05T20:50:07.064Z</time>
      </trkpt>
      <trkpt lat="44.35308" lon="3.28126">
        <ele>899.33</ele>
        <time>2024-11-05T20:50:20.412Z</time>
      </trkpt>
      <trkpt lat="44.35299" lon="3.28141">
        <ele>898.44</ele>
        <time>2024-11-05T20:50:33.762Z</time>
      </trkpt>
      <trkpt lat="44.3529" lon="3.28155">
        <ele>897.56</ele>
        <time>2024-11-05T20:50:47.114Z</time>
      </trkpt>
      <trkpt lat="44.35275" lon="3.28178">
        <ele>896.61</ele>
        <time>2024-11-05T20:51:00.469Z</time>
      </trkpt>
      <trkpt lat="44.35272" lon="3.28183">
        <ele>895.74</ele>
        <time>2024-11-05T20:51:13.825Z</time>
      </trkpt>
      <trkpt lat="44.35268" lon="3.28186">
        <ele>894.9</ele>
        <time>2024-11-05T20:51:27.182Z</time>
      </trkpt>
      <trkpt lat="44.35261" lon="3.28193">
        <ele>894.08</ele>
        <time>2024-11-05T20:51:40.540Z</time>
      </trkpt>
      <trkpt lat="44.35253" lon="3.28199">
        <ele>893.26</ele>
        <time>2024-11-05T20:51:53.900Z</time>
      </trkpt>
      <trkpt lat="44.35245" lon="3.28206">
        <ele>892.43</ele>
        <time>2024-11-05T20:52:07.261Z</time>
      </trkpt>
      <trkpt lat="44.35236" lon="3.28223">
        <ele>891.61</ele>
        <time>2024-11-05T20:52:20.625Z</time>
      </trkpt>
      <trkpt lat="44.35235" lon="3.28226">
        <ele>890.81</ele>
        <time>2024-11-05T20:52:33.989Z</time>
      </trkpt>
      <trkpt lat="44.3523" lon="3.28243">
        <ele>890.01</ele>
        <time>2024-11-05T20:52:47.355Z</time>
      </trkpt>
      <trkpt lat="44.35229" lon="3.28256">
        <ele>889.21</ele>
        <time>2024-11-05T20:53:00.723Z</time>
      </trkpt>
      <trkpt lat="44.35229" lon="3.28265">
        <ele>888.42</ele>
        <time>2024-11-05T20:53:14.092Z</time>
      </trkpt>
      <trkpt lat="44.35232" lon="3.28299">
        <ele>887.58</ele>
        <time>2024-11-05T20:53:27.465Z</time>
      </trkpt>
      <trkpt lat="44.35233" lon="3.28312">
        <ele>886.82</ele>
        <time>2024-11-05T20:53:40.839Z</time>
      </trkpt>
      <trkpt lat="44.35234" lon="3.2833">
        <ele>886.04</ele>
        <time>2024-11-05T20:53:54.215Z</time>
      </trkpt>
      <trkpt lat="44.35235" lon="3.28343">
        <ele>885.31</ele>
        <time>2024-11-05T20:54:07.593Z</time>
      </trkpt>
      <trkpt lat="44.35236" lon="3.28355">
        <ele>884.59</ele>
        <time>2024-11-05T20:54:20.972Z</time>
      </trkpt>
      <trkpt lat="44.35239" lon="3.2838">
        <ele>883.81</ele>
        <time>2024-11-05T20:54:34.354Z</time>
      </trkpt>
      <trkpt lat="44.3524" lon="3.28392">
        <ele>883.12</ele>
        <time>2024-11-05T20:54:47.737Z</time>
      </trkpt>
      <trkpt lat="44.3524" lon="3.28398">
        <ele>882.47</ele>
        <time>2024-11-05T20:55:01.121Z</time>
      </trkpt>
      <trkpt lat="44.35239" lon="3.28405">
        <ele>881.85</ele>
        <time>2024-11-05T20:55:14.506Z</time>
      </trkpt>
      <trkpt lat="44.35236" lon="3.28417">
        <ele>881.22</ele>
        <time>2024-11-05T20:55:27.892Z</time>
      </trkpt>
      <trkpt lat="44.35234" lon="3.28429">
        <ele>880.62</ele>
        <time>2024-11-05T20:55:41.280Z</time>
      </trkpt>
      <trkpt lat="44.35233" lon="3.28433">
        <ele>880.06</ele>
        <time>2024-11-05T20:55:54.668Z</time>
      </trkpt>
      <trkpt lat="44.35229" lon="3.28439">
        <ele>879.52</ele>
        <time>2024-11-05T20:56:08.057Z</time>
      </trkpt>
      <trkpt lat="44.35224" lon="3.28447">
        <ele>879.02</ele>
        <time>2024-11-05T20:56:21.447Z</time>
      </trkpt>
      <trkpt lat="44.3521" lon="3.28458">
        <ele>878.53</ele>
        <time>2024-11-05T20:56:34.840Z</time>
      </trkpt>
      <trkpt lat="44.35207" lon="3.28459">
        <ele>878.07</ele>
        <time>2024-11-05T20:56:48.233Z</time>
      </trkpt>
      <trkpt lat="44.35198" lon="3.28462">
        <ele>877.63</ele>
        <time>2024-11-05T20:57:01.628Z</time>
      </trkpt>
      <trkpt lat="44.3519" lon="3.28465">
        <ele>877.2</ele>
        <time>2024-11-05T20:57:15.024Z</time>
      </trkpt>
      <trkpt lat="44.35181" lon="3.28468">
        <ele>876.78</ele>
        <time>2024-11-05T20:57:28.422Z</time>
      </trkpt>
      <trkpt lat="44.35179" lon="3.28469">
        <ele>876.39</ele>
        <time>2024-11-05T20:57:41.820Z</time>
      </trkpt>
      <trkpt lat="44.35177" lon="3.2847">
        <ele>876.02</ele>
        <time>2024-11-05T20:57:55.218Z</time>
      </trkpt>
      <trkpt lat="44.3517" lon="3.28474">
        <ele>875.66</ele>
        <time>2024-11-05T20:58:08.618Z</time>
      </trkpt>
      <trkpt lat="44.35169" lon="3.28475">
        <ele>875.32</ele>
        <time>2024-11-05T20:58:22.018Z</time>
      </trkpt>
      <trkpt lat="44.35161" lon="3.28481">
        <ele>874.98</ele>
        <time>2024-11-05T20:58:35.419Z</time>
      </trkpt>
      <trkpt lat="44.35157" lon="3.28485">
        <ele>874.66</ele>
        <time>2024-11-05T20:58:48.821Z</time>
      </trkpt>
      <trkpt lat="44.35153" lon="3.28488">
        <ele>874.35</ele>
        <time>2024-11-05T20:59:02.224Z</time>
      </trkpt>
      <trkpt lat="44.35145" lon="3.28494">
        <ele>874.06</ele>
        <time>2024-11-05T20:59:15.628Z</time>
      </trkpt>
      <trkpt lat="44.35138" lon="3.285">
        <ele>873.79</ele>
        <time>2024-11-05T20:59:29.034Z</time>
      </trkpt>
      <trkpt lat="44.35133" lon="3.28502">
        <ele>873.52</ele>
        <time>2024-11-05T20:59:42.440Z</time>
      </trkpt>
      <trkpt lat="44.3513" lon="3.28503">
        <ele>873.25</ele>
        <time>2024-11-05T20:59:55.847Z</time>
      </trkpt>
      <trkpt lat="44.35116" lon="3.28506">
        <ele>872.95</ele>
        <time>2024-11-05T21:00:09.256Z</time>
      </trkpt>
      <trkpt lat="44.35107" lon="3.28507">
        <ele>872.67</ele>
        <time>2024-11-05T21:00:22.667Z</time>
      </trkpt>
      <trkpt lat="44.35094" lon="3.28509">
        <ele>872.4</ele>
        <time>2024-11-05T21:00:36.080Z</time>
      </trkpt>
      <trkpt lat="44.3508" lon="3.28512">
        <ele>872.14</ele>
        <time>2024-11-05T21:00:49.495Z</time>
      </trkpt>
      <trkpt lat="44.35079" lon="3.28512">
        <ele>871.87</ele>
        <time>2024-11-05T21:01:02.910Z</time>
      </trkpt>
      <trkpt lat="44.35072" lon="3.28515">
        <ele>871.61</ele>
        <time>2024-11-05T21:01:16.326Z</time>
      </trkpt>
      <trkpt lat="44.3505" lon="3.28524">
        <ele>871.35</ele>
        <time>2024-11-05T21:01:29.746Z</time>
      </trkpt>
      <trkpt lat="44.35038" lon="3.28529">
        <ele>871.08</ele>
        <time>2024-11-05T21:01:43.168Z</time>
      </trkpt>
      <trkpt lat="44.35035" lon="3.2853">
        <ele>870.78</ele>
        <time>2024-11-05T21:01:56.590Z</time>
      </trkpt>
      <trkpt lat="44.35025" lon="3.28536">
        <ele>870.47</ele>
        <time>2024-11-05T21:02:10.014Z</time>
      </trkpt>
      <trkpt lat="44.35016" lon="3.28542">
        <ele>870.17</ele>
        <time>2024-11-05T21:02:23.440Z</time>
      </trkpt>
      <trkpt lat="44.35013" lon="3.28544">
        <ele>869.83</ele>
        <time>2024-11-05T21:02:36.866Z</time>
      </trkpt>
      <trkpt lat="44.35006" lon="3.28551">
        <ele>869.46</ele>
        <time>2024-11-05T21:02:50.294Z</time>
      </trkpt>
      <trkpt lat="44.34998" lon="3.28557">
        <ele>869.09</ele>
        <time>2024-11-05T21:03:03.723Z</time>
      </trkpt>
      <trkpt lat="44.34975" lon="3.28577">
        <ele>868.67</ele>
        <time>2024-11-05T21:03:17.156Z</time>
      </trkpt>
      <trkpt lat="44.34965" lon="3.28585">
        <ele>868.26</ele>
        <time>2024-11-05T21:03:30.591Z</time>
      </trkpt>
      <trkpt lat="44.34945" lon="3.28604">
        <ele>867.76</ele>
        <time>2024-11-05T21:03:44.030Z</time>
      </trkpt>
      <trkpt lat="44.34928" lon="3.28621">
        <ele>867.26</ele>
        <time>2024-11-05T21:03:57.473Z</time>
      </trkpt>
      <trkpt lat="44.34918" lon="3.28636">
        <ele>866.81</ele>
        <time>2024-11-05T21:04:10.918Z</time>
      </trkpt>
      <trkpt lat="44.34915" lon="3.2864">
        <ele>866.35</ele>
        <time>2024-11-05T21:04:24.364Z</time>
      </trkpt>
      <trkpt lat="44.3491" lon="3.28651">
        <ele>865.86</ele>
        <time>2024-11-05T21:04:37.811Z</time>
      </trkpt>
      <trkpt lat="44.34903" lon="3.28663">
        <ele>865.35</ele>
        <time>2024-11-05T21:04:51.260Z</time>
      </trkpt>
      <trkpt lat="44.34902" lon="3.28666">
        <ele>864.83</ele>
        <time>2024-11-05T21:05:04.709Z</time>
      </trkpt>
      <trkpt lat="44.3489" lon="3.28699">
        <ele>864.3</ele>
        <time>2024-11-05T21:05:18.162Z</time>
      </trkpt>
      <trkpt lat="44.34882" lon="3.28721">
        <ele>863.78</ele>
        <time>2024-11-05T21:05:31.618Z</time>
      </trkpt>
      <trkpt lat="44.34876" lon="3.28731">
        <ele>863.23</ele>
        <time>2024-11-05T21:05:45.076Z</time>
      </trkpt>
      <trkpt lat="44.34865" lon="3.28741">
        <ele>862.66</ele>
        <time>2024-11-05T21:05:58.536Z</time>
      </trkpt>
      <trkpt lat="44.34865" lon="3.28741">
        <ele>862.07</ele>
        <time>2024-11-05T21:06:11.996Z</time>
      </trkpt>
      <trkpt lat="44.34857" lon="3.28744">
        <ele>861.45</ele>
        <time>2024-11-05T21:06:25.457Z</time>
      </trkpt>
      <trkpt lat="44.34852" lon="3.28744">
        <ele>860.79</ele>
        <time>2024-11-05T21:06:38.919Z</time>
      </trkpt>
      <trkpt lat="44.34849" lon="3.28744">
        <ele>860.14</ele>
        <time>2024-11-05T21:06:52.381Z</time>
      </trkpt>
      <trkpt lat="44.34832" lon="3.28739">
        <ele>859.36</ele>
        <time>2024-11-05T21:07:05.846Z</time>
      </trkpt>
      <trkpt lat="44.34821" lon="3.28734">
        <ele>858.64</ele>
        <time>2024-11-05T21:07:19.313Z</time>
      </trkpt>
      <trkpt lat="44.34818" lon="3.28732">
        <ele>857.96</ele>
        <time>2024-11-05T21:07:32.781Z</time>
      </trkpt>
      <trkpt lat="44.34805" lon="3.28723">
        <ele>857.2</ele>
        <time>2024-11-05T21:07:46.251Z</time>
      </trkpt>
      <trkpt lat="44.34797" lon="3.28717">
        <ele>856.49</ele>
        <time>2024-11-05T21:07:59.722Z</time>
      </trkpt>
      <trkpt lat="44.34796" lon="3.28716">
        <ele>855.8</ele>
        <time>2024-11-05T21:08:13.194Z</time>
      </trkpt>
      <trkpt lat="44.34775" lon="3.28698">
        <ele>855.07</ele>
        <time>2024-11-05T21:08:26.670Z</time>
      </trkpt>
      <trkpt lat="44.34763" lon="3.28688">
        <ele>854.32</ele>
        <time>2024-11-05T21:08:40.148Z</time>
      </trkpt>
      <trkpt lat="44.34756" lon="3.28682">
        <ele>853.59</ele>
        <time>2024-11-05T21:08:53.627Z</time>
      </trkpt>
      <trkpt lat="44.34741" lon="3.28667">
        <ele>852.81</ele>
        <time>2024-11-05T21:09:07.109Z</time>
      </trkpt>
      <trkpt lat="44.34735" lon="3.28661">
        <ele>852.07</ele>
        <time>2024-11-05T21:09:20.592Z</time>
      </trkpt>
      <trkpt lat="44.3473" lon="3.28658">
        <ele>851.36</ele>
        <time>2024-11-05T21:09:34.076Z</time>
      </trkpt>
      <trkpt lat="44.34722" lon="3.28652">
        <ele>850.65</ele>
        <time>2024-11-05T21:09:47.562Z</time>
      </trkpt>
      <trkpt lat="44.34712" lon="3.28645">
        <ele>849.94</ele>
        <time>2024-11-05T21:10:01.049Z</time>
      </trkpt>
      <trkpt lat="44.34706" lon="3.28643">
        <ele>849.23</ele>
        <time>2024-11-05T21:10:14.537Z</time>
      </trkpt>
      <trkpt lat="44.347" lon="3.28641">
        <ele>848.53</ele>
        <time>2024-11-05T21:10:28.026Z</time>
      </trkpt>
      <trkpt lat="44.34697" lon="3.28642">
        <ele>847.83</ele>
        <time>2024-11-05T21:10:41.516Z</time>
      </trkpt>
      <trkpt lat="44.34688" lon="3.28643">
        <ele>847.15</ele>
        <time>2024-11-05T21:10:55.007Z</time>
      </trkpt>
      <trkpt lat="44.3468" lon="3.28645">
        <ele>846.47</ele>
        <time>2024-11-05T21:11:08.500Z</time>
      </trkpt>
      <trkpt lat="44.34671" lon="3.28646">
        <ele>845.78</ele>
        <time>2024-11-05T21:11:21.994Z</time>
      </trkpt>
      <trkpt lat="44.34666" lon="3.28647">
        <ele>845.09</ele>
        <time>2024-11-05T21:11:35.489Z</time>
      </trkpt>
      <trkpt lat="44.34661" lon="3.28646">
        <ele>844.4</ele>
        <time>2024-11-05T21:11:48.985Z</time>
      </trkpt>
      <trkpt lat="44.34658" lon="3.28644">
        <ele>843.72</ele>
        <time>2024-11-05T21:12:02.481Z</time>
      </trkpt>
      <trkpt lat="44.34649" lon="3.2864">
        <ele>843.04</ele>
        <time>2024-11-05T21:12:15.979Z</time>
      </trkpt>
      <trkpt lat="44.34646" lon="3.28636">
        <ele>842.37</ele>
        <time>2024-11-05T21:12:29.477Z</time>
      </trkpt>
      <trkpt lat="44.3464" lon="3.28628">
        <ele>841.7</ele>
        <time>2024-11-05T21:12:42.977Z</time>
      </trkpt>
      <trkpt lat="44.34634" lon="3.28621">
        <ele>841.04</ele>
        <time>2024-11-05T21:12:56.478Z</time>
      </trkpt>
      <trkpt lat="44.34616" lon="3.28606">
        <ele>840.35</ele>
        <time>2024-11-05T21:13:09.982Z</time>
      </trkpt>
      <trkpt lat="44.34609" lon="3.28603">
        <ele>839.71</ele>
        <time>2024-11-05T21:13:23.487Z</time>
      </trkpt>
      <trkpt lat="44.34606" lon="3.28601">
        <ele>839.09</ele>
        <time>2024-11-05T21:13:36.993Z</time>
      </trkpt>
      <trkpt lat="44.34574" lon="3.28592">
        <ele>838.37</ele>
        <time>2024-11-05T21:13:50.504Z</time>
      </trkpt>
      <trkpt lat="44.34563" lon="3.28585">
        <ele>837.73</ele>
        <time>2024-11-05T21:14:04.017Z</time>
      </trkpt>
      <trkpt lat="44.34543" lon="3.28571">
        <ele>837.08</ele>
        <time>2024-11-05T21:14:17.534Z</time>
      </trkpt>
      <trkpt lat="44.34533" lon="3.28564">
        <ele>836.48</ele>
        <time>2024-11-05T21:14:31.052Z</time>
      </trkpt>
      <trkpt lat="44.34532" lon="3.28563">
        <ele>835.94</ele>
        <time>2024-11-05T21:14:44.571Z</time>
      </trkpt>
      <trkpt lat="44.34519" lon="3.28557">
        <ele>835.39</ele>
        <time>2024-11-05T21:14:58.092Z</time>
      </trkpt>
      <trkpt lat="44.34511" lon="3.28553">
        <ele>834.89</ele>
        <time>2024-11-05T21:15:11.614Z</time>
      </trkpt>
      <trkpt lat="44.34503" lon="3.28549">
        <ele>834.4</ele>
        <time>2024-11-05T21:15:25.138Z</time>
      </trkpt>
      <trkpt lat="44.34495" lon="3.28544">
        <ele>833.93</ele>
        <time>2024-11-05T21:15:38.663Z</time>
      </trkpt>
      <trkpt lat="44.3449" lon="3.28542">
        <ele>833.5</ele>
        <time>2024-11-05T21:15:52.189Z</time>
      </trkpt>
      <trkpt lat="44.34486" lon="3.28541">
        <ele>833.09</ele>
        <time>2024-11-05T21:16:05.715Z</time>
      </trkpt>
      <trkpt lat="44.34478" lon="3.28538">
        <ele>832.68</ele>
        <time>2024-11-05T21:16:19.243Z</time>
      </trkpt>
      <trkpt lat="44.34469" lon="3.28535">
        <ele>832.31</ele>
        <time>2024-11-05T21:16:32.772Z</time>
      </trkpt>
      <trkpt lat="44.34463" lon="3.28533">
        <ele>831.96</ele>
        <time>2024-11-05T21:16:46.302Z</time>
      </trkpt>
      <trkpt lat="44.34461" lon="3.28533">
        <ele>831.64</ele>
        <time>2024-11-05T21:16:59.833Z</time>
      </trkpt>
      <trkpt lat="44.3445" lon="3.28531">
        <ele>831.33</ele>
        <time>2024-11-05T21:17:13.365Z</time>
      </trkpt>
      <trkpt lat="44.34443" lon="3.28531">
        <ele>831.05</ele>
        <time>2024-11-05T21:17:26.898Z</time>
      </trkpt>
      <trkpt lat="44.34434" lon="3.2853">
        <ele>830.79</ele>
        <time>2024-11-05T21:17:40.433Z</time>
      </trkpt>
      <trkpt lat="44.34426" lon="3.2853">
        <ele>830.56</ele>
        <time>2024-11-05T21:17:53.969Z</time>
      </trkpt>
      <trkpt lat="44.34421" lon="3.28531">
        <ele>830.34</ele>
        <time>2024-11-05T21:18:07.506Z</time>
      </trkpt>
      <trkpt lat="44.34418" lon="3.28532">
        <ele>830.14</ele>
        <time>2024-11-05T21:18:21.043Z</time>
      </trkpt>
      <trkpt lat="44.34413" lon="3.28535">
        <ele>829.96</ele>
        <time>2024-11-05T21:18:34.581Z</time>
      </trkpt>
      <trkpt lat="44.34404" lon="3.28539">
        <ele>829.8</ele>
        <time>2024-11-05T21:18:48.121Z</time>
      </trkpt>
      <trkpt lat="44.34398" lon="3.28546">
        <ele>829.64</ele>
        <time>2024-11-05T21:19:01.662Z</time>
      </trkpt>
      <trkpt lat="44.34391" lon="3.28554">
        <ele>829.5</ele>
        <time>2024-11-05T21:19:15.205Z</time>
      </trkpt>
      <trkpt lat="44.34384" lon="3.28562">
        <ele>829.37</ele>
        <time>2024-11-05T21:19:28.749Z</time>
      </trkpt>
      <trkpt lat="44.34378" lon="3.28569">
        <ele>829.26</ele>
        <time>2024-11-05T21:19:42.294Z</time>
      </trkpt>
      <trkpt lat="44.34374" lon="3.28574">
        <ele>829.16</ele>
        <time>2024-11-05T21:19:55.840Z</time>
      </trkpt>
      <trkpt lat="44.34356" lon="3.28592">
        <ele>829.09</ele>
        <time>2024-11-05T21:20:09.390Z</time>
      </trkpt>
      <trkpt lat="44.34332" lon="3.28618">
        <ele>829.1</ele>
        <time>2024-11-05T21:20:22.945Z</time>
      </trkpt>
      <trkpt lat="44.34325" lon="3.28625">
        <ele>829.05</ele>
        <time>2024-11-05T21:20:36.501Z</time>
      </trkpt>
      <trkpt lat="44.34313" lon="3.28636">
        <ele>828.97</ele>
        <time>2024-11-05T21:20:50.059Z</time>
      </trkpt>
      <trkpt lat="44.3431" lon="3.28638">
        <ele>828.9</ele>
        <time>2024-11-05T21:21:03.618Z</time>
      </trkpt>
      <trkpt lat="44.34305" lon="3.28641">
        <ele>828.83</ele>
        <time>2024-11-05T21:21:17.178Z</time>
      </trkpt>
      <trkpt lat="44.34301" lon="3.28644">
        <ele>828.75</ele>
        <time>2024-11-05T21:21:30.738Z</time>
      </trkpt>
      <trkpt lat="44.34297" lon="3.28646">
        <ele>828.66</ele>
        <time>2024-11-05T21:21:44.299Z</time>
      </trkpt>
      <trkpt lat="44.34293" lon="3.28649">
        <ele>828.57</ele>
        <time>2024-11-05T21:21:57.861Z</time>
      </trkpt>
      <trkpt lat="44.34289" lon="3.28652">
        <ele>828.48</ele>
        <time>2024-11-05T21:22:11.423Z</time>
      </trkpt>
      <trkpt lat="44.34284" lon="3.28654">
        <ele>828.38</ele>
        <time>2024-11-05T21:22:24.986Z</time>
      </trkpt>
      <trkpt lat="44.34276" lon="3.28659">
        <ele>828.26</ele>
        <time>2024-11-05T21:22:38.551Z</time>
      </trkpt>
      <trkpt lat="44.34268" lon="3.28665">
        <ele>828.16</ele>
        <time>2024-11-05T21:22:52.117Z</time>
      </trkpt>
      <trkpt lat="44.34261" lon="3.28669">
        <ele>828.05</ele>
        <time>2024-11-05T21:23:05.684Z</time>
      </trkpt>
      <trkpt lat="44.34249" lon="3.2868">
        <ele>827.92</ele>
        <time>2024-11-05T21:23:19.254Z</time>
      </trkpt>
      <trkpt lat="44.34247" lon="3.28682">
        <ele>827.81</ele>
        <time>2024-11-05T21:23:32.824Z</time>
      </trkpt>
      <trkpt lat="44.34236" lon="3.28698">
        <ele>827.72</ele>
        <time>2024-11-05T21:23:46.397Z</time>
      </trkpt>
      <trkpt lat="44.34235" lon="3.287">
        <ele>827.61</ele>
        <time>2024-11-05T21:23:59.970Z</time>
      </trkpt>
      <trkpt lat="44.34228" lon="3.28714">
        <ele>827.51</ele>
        <time>2024-11-05T21:24:13.545Z</time>
      </trkpt>
      <trkpt lat="44.3422" lon="3.28729">
        <ele>827.41</ele>
        <time>2024-11-05T21:24:27.122Z</time>
      </trkpt>
      <trkpt lat="44.34215" lon="3.28739">
        <ele>827.29</ele>
        <time>2024-11-05T21:24:40.700Z</time>
      </trkpt>
      <trkpt lat="44.34209" lon="3.28751">
        <ele>827.15</ele>
        <time>2024-11-05T21:24:54.280Z</time>
      </trkpt>
      <trkpt lat="44.34203" lon="3.2876">
        <ele>827.01</ele>
        <time>2024-11-05T21:25:07.861Z</time>
      </trkpt>
      <trkpt lat="44.34197" lon="3.28766">
        <ele>826.85</ele>
        <time>2024-11-05T21:25:21.444Z</time>
      </trkpt>
      <trkpt lat="44.34185" lon="3.28778">
        <ele>826.67</ele>
        <time>2024-11-05T21:25:35.029Z</time>
      </trkpt>
      <trkpt lat="44.34178" lon="3.28783">
        <ele>826.5</ele>
        <time>2024-11-05T21:25:48.615Z</time>
      </trkpt>
      <trkpt lat="44.34161" lon="3.28793">
        <ele>826.31</ele>
        <time>2024-11-05T21:26:02.204Z</time>
      </trkpt>
      <trkpt lat="44.34157" lon="3.28796">
        <ele>826.18</ele>
        <time>2024-11-05T21:26:15.794Z</time>
      </trkpt>
      <trkpt lat="44.34144" lon="3.28801">
        <ele>826</ele>
        <time>2024-11-05T21:26:29.386Z</time>
      </trkpt>
      <trkpt lat="44.3414" lon="3.28803">
        <ele>825.86</ele>
        <time>2024-11-05T21:26:42.979Z</time>
      </trkpt>
      <trkpt lat="44.34123" lon="3.2881">
        <ele>825.72</ele>
        <time>2024-11-05T21:26:56.575Z</time>
      </trkpt>
      <trkpt lat="44.3411" lon="3.28815">
        <ele>825.57</ele>
        <time>2024-11-05T21:27:10.173Z</time>
      </trkpt>
      <trkpt lat="44.34105" lon="3.28817">
        <ele>825.45</ele>
        <time>2024-11-05T21:27:23.772Z</time>
      </trkpt>
      <trkpt lat="44.34097" lon="3.2882">
        <ele>825.33</ele>
        <time>2024-11-05T21:27:37.372Z</time>
      </trkpt>
      <trkpt lat="44.34095" lon="3.28821">
        <ele>825.24</ele>
        <time>2024-11-05T21:27:50.972Z</time>
      </trkpt>
      <trkpt lat="44.34085" lon="3.28828">
        <ele>825.11</ele>
        <time>2024-11-05T21:28:04.574Z</time>
      </trkpt>
      <trkpt lat="44.34083" lon="3.28829">
        <ele>825.04</ele>
        <time>2024-11-05T21:28:18.176Z</time>
      </trkpt>
      <trkpt lat="44.34077" lon="3.28835">
        <ele>824.98</ele>
        <time>2024-11-05T21:28:31.780Z</time>
      </trkpt>
      <trkpt lat="44.34073" lon="3.28838">
        <ele>824.94</ele>
        <time>2024-11-05T21:28:45.384Z</time>
      </trkpt>
      <trkpt lat="44.34066" lon="3.28845">
        <ele>824.92</ele>
        <time>2024-11-05T21:28:58.990Z</time>
      </trkpt>
      <trkpt lat="44.3406" lon="3.28851">
        <ele>824.9</ele>
        <time>2024-11-05T21:29:12.597Z</time>
      </trkpt>
      <trkpt lat="44.34059" lon="3.28853">
        <ele>824.9</ele>
        <time>2024-11-05T21:29:26.204Z</time>
      </trkpt>
      <trkpt lat="44.34052" lon="3.28861">
        <ele>824.92</ele>
        <time>2024-11-05T21:29:39.813Z</time>
      </trkpt>
      <trkpt lat="44.34049" lon="3.28866">
        <ele>824.96</ele>
        <time>2024-11-05T21:29:53.422Z</time>
      </trkpt>
      <trkpt lat="44.34047" lon="3.28868">
        <ele>825.02</ele>
        <time>2024-11-05T21:30:07.032Z</time>
      </trkpt>
      <trkpt lat="44.34043" lon="3.28875">
        <ele>825.1</ele>
        <time>2024-11-05T21:30:20.643Z</time>
      </trkpt>
      <trkpt lat="44.3404" lon="3.2888">
        <ele>825.2</ele>
        <time>2024-11-05T21:30:34.254Z</time>
      </trkpt>
      <trkpt lat="44.34035" lon="3.28889">
        <ele>825.31</ele>
        <time>2024-11-05T21:30:47.867Z</time>
      </trkpt>
      <trkpt lat="44.34035" lon="3.2889">
        <ele>825.41</ele>
        <time>2024-11-05T21:31:01.480Z</time>
      </trkpt>
      <trkpt lat="44.34032" lon="3.28902">
        <ele>825.53</ele>
        <time>2024-11-05T21:31:15.094Z</time>
      </trkpt>
      <trkpt lat="44.3403" lon="3.28914">
        <ele>825.66</ele>
        <time>2024-11-05T21:31:28.710Z</time>
      </trkpt>
      <trkpt lat="44.34029" lon="3.28917">
        <ele>825.78</ele>
        <time>2024-11-05T21:31:42.326Z</time>
      </trkpt>
      <trkpt lat="44.34028" lon="3.28927">
        <ele>825.9</ele>
        <time>2024-11-05T21:31:55.943Z</time>
      </trkpt>
      <trkpt lat="44.34026" lon="3.28945">
        <ele>826.02</ele>
        <time>2024-11-05T21:32:09.562Z</time>
      </trkpt>
      <trkpt lat="44.34024" lon="3.28964">
        <ele>826.14</ele>
        <time>2024-11-05T21:32:23.184Z</time>
      </trkpt>
      <trkpt lat="44.34023" lon="3.2897">
        <ele>826.28</ele>
        <time>2024-11-05T21:32:36.806Z</time>
      </trkpt>
      <trkpt lat="44.34023" lon="3.28973">
        <ele>826.41</ele>
        <time>2024-11-05T21:32:50.429Z</time>
      </trkpt>
      <trkpt lat="44.34022" lon="3.28976">
        <ele>826.54</ele>
        <time>2024-11-05T21:33:04.052Z</time>
      </trkpt>
      <trkpt lat="44.3402" lon="3.28982">
        <ele>826.68</ele>
        <time>2024-11-05T21:33:17.676Z</time>
      </trkpt>
      <trkpt lat="44.34018" lon="3.28987">
        <ele>826.81</ele>
        <time>2024-11-05T21:33:31.300Z</time>
      </trkpt>
      <trkpt lat="44.34016" lon="3.28994">
        <ele>826.92</ele>
        <time>2024-11-05T21:33:44.925Z</time>
      </trkpt>
      <trkpt lat="44.34014" lon="3.28998">
        <ele>827.03</ele>
        <time>2024-11-05T21:33:58.551Z</time>
      </trkpt>
      <trkpt lat="44.34005" lon="3.29013">
        <ele>827.15</ele>
        <time>2024-11-05T21:34:12.179Z</time>
      </trkpt>
      <trkpt lat="44.34" lon="3.29021">
        <ele>827.23</ele>
        <time>2024-11-05T21:34:25.808Z</time>
      </trkpt>
      <trkpt lat="44.33996" lon="3.29026">
        <ele>827.31</ele>
        <time>2024-11-05T21:34:39.438Z</time>
      </trkpt>
      <trkpt lat="44.33989" lon="3.29034">
        <ele>827.36</ele>
        <time>2024-11-05T21:34:53.070Z</time>
      </trkpt>
      <trkpt lat="44.33982" lon="3.29042">
        <ele>827.39</ele>
        <time>2024-11-05T21:35:06.703Z</time>
      </trkpt>
      <trkpt lat="44.33978" lon="3.29047">
        <ele>827.4</ele>
        <time>2024-11-05T21:35:20.337Z</time>
      </trkpt>
      <trkpt lat="44.33971" lon="3.29053">
        <ele>827.38</ele>
        <time>2024-11-05T21:35:33.972Z</time>
      </trkpt>
      <trkpt lat="44.33964" lon="3.2906">
        <ele>827.36</ele>
        <time>2024-11-05T21:35:47.609Z</time>
      </trkpt>
      <trkpt lat="44.33957" lon="3.29066">
        <ele>827.33</ele>
        <time>2024-11-05T21:36:01.247Z</time>
      </trkpt>
      <trkpt lat="44.33956" lon="3.29066">
        <ele>827.26</ele>
        <time>2024-11-05T21:36:14.885Z</time>
      </trkpt>
      <trkpt lat="44.33949" lon="3.29072">
        <ele>827.18</ele>
        <time>2024-11-05T21:36:28.524Z</time>
      </trkpt>
      <trkpt lat="44.33941" lon="3.29078">
        <ele>827.08</ele>
        <time>2024-11-05T21:36:42.165Z</time>
      </trkpt>
      <trkpt lat="44.33937" lon="3.29081">
        <ele>826.95</ele>
        <time>2024-11-05T21:36:55.807Z</time>
      </trkpt>
      <trkpt lat="44.33929" lon="3.29087">
        <ele>826.8</ele>
        <time>2024-11-05T21:37:09.450Z</time>
      </trkpt>
      <trkpt lat="44.33921" lon="3.29093">
        <ele>826.62</ele>
        <time>2024-11-05T21:37:23.094Z</time>
      </trkpt>
      <trkpt lat="44.33917" lon="3.29096">
        <ele>826.4</ele>
        <time>2024-11-05T21:37:36.739Z</time>
      </trkpt>
      <trkpt lat="44.33913" lon="3.29099">
        <ele>826.15</ele>
        <time>2024-11-05T21:37:50.385Z</time>
      </trkpt>
      <trkpt lat="44.33906" lon="3.29106">
        <ele>825.88</ele>
        <time>2024-11-05T21:38:04.032Z</time>
      </trkpt>
      <trkpt lat="44.33904" lon="3.29108">
        <ele>825.58</ele>
        <time>2024-11-05T21:38:17.680Z</time>
      </trkpt>
      <trkpt lat="44.33895" lon="3.29118">
        <ele>825.26</ele>
        <time>2024-11-05T21:38:31.329Z</time>
      </trkpt>
      <trkpt lat="44.33875" lon="3.2914">
        <ele>824.82</ele>
        <time>2024-11-05T21:38:44.983Z</time>
      </trkpt>
      <trkpt lat="44.33863" lon="3.2915">
        <ele>824.39</ele>
        <time>2024-11-05T21:38:58.639Z</time>
      </trkpt>
      <trkpt lat="44.33856" lon="3.29155">
        <ele>823.95</ele>
        <time>2024-11-05T21:39:12.296Z</time>
      </trkpt>
      <trkpt lat="44.33855" lon="3.29156">
        <ele>823.51</ele>
        <time>2024-11-05T21:39:25.953Z</time>
      </trkpt>
      <trkpt lat="44.33825" lon="3.29171">
        <ele>822.95</ele>
        <time>2024-11-05T21:39:39.615Z</time>
      </trkpt>
      <trkpt lat="44.33822" lon="3.29173">
        <ele>822.47</ele>
        <time>2024-11-05T21:39:53.278Z</time>
      </trkpt>
      <trkpt lat="44.33822" lon="3.29173">
        <ele>821.97</ele>
        <time>2024-11-05T21:40:06.941Z</time>
      </trkpt>
      <trkpt lat="44.33821" lon="3.29173">
        <ele>821.44</ele>
        <time>2024-11-05T21:40:20.604Z</time>
      </trkpt>
      <trkpt lat="44.33821" lon="3.29173">
        <ele>820.9</ele>
        <time>2024-11-05T21:40:34.267Z</time>
      </trkpt>
      <trkpt lat="44.33821" lon="3.29173">
        <ele>820.33</ele>
        <time>2024-11-05T21:40:47.930Z</time>
      </trkpt>
      <trkpt lat="44.33788" lon="3.29192">
        <ele>819.7</ele>
        <time>2024-11-05T21:41:01.599Z</time>
      </trkpt>
      <trkpt lat="44.33784" lon="3.29195">
        <ele>819.1</ele>
        <time>2024-11-05T21:41:15.269Z</time>
      </trkpt>
      <trkpt lat="44.3378" lon="3.29198">
        <ele>818.47</ele>
        <time>2024-11-05T21:41:28.939Z</time>
      </trkpt>
      <trkpt lat="44.33773" lon="3.29205">
        <ele>817.79</ele>
        <time>2024-11-05T21:41:42.611Z</time>
      </trkpt>
      <trkpt lat="44.33769" lon="3.29208">
        <ele>817.14</ele>
        <time>2024-11-05T21:41:56.283Z</time>
      </trkpt>
      <trkpt lat="44.33761" lon="3.29223">
        <ele>816.43</ele>
        <time>2024-11-05T21:42:09.957Z</time>
      </trkpt>
      <trkpt lat="44.33755" lon="3.29232">
        <ele>815.73</ele>
        <time>2024-11-05T21:42:23.633Z</time>
      </trkpt>
      <trkpt lat="44.3375" lon="3.29249">
        <ele>814.99</ele>
        <time>2024-11-05T21:42:37.311Z</time>
      </trkpt>
      <trkpt lat="44.33739" lon="3.29284">
        <ele>814.27</ele>
        <time>2024-11-05T21:42:50.993Z</time>
      </trkpt>
      <trkpt lat="44.33738" lon="3.29287">
        <ele>813.56</ele>
        <time>2024-11-05T21:43:04.676Z</time>
      </trkpt>
      <trkpt lat="44.33722" lon="3.29318">
        <ele>812.78</ele>
        <time>2024-11-05T21:43:18.363Z</time>
      </trkpt>
      <trkpt lat="44.33718" lon="3.29324">
        <ele>812.04</ele>
        <time>2024-11-05T21:43:32.051Z</time>
      </trkpt>
      <trkpt lat="44.33708" lon="3.29337">
        <ele>811.28</ele>
        <time>2024-11-05T21:43:45.741Z</time>
      </trkpt>
      <trkpt lat="44.33706" lon="3.29339">
        <ele>810.54</ele>
        <time>2024-11-05T21:43:59.432Z</time>
      </trkpt>
      <trkpt lat="44.33697" lon="3.29348">
        <ele>809.77</ele>
        <time>2024-11-05T21:44:13.124Z</time>
      </trkpt>
      <trkpt lat="44.33691" lon="3.29354">
        <ele>808.99</ele>
        <time>2024-11-05T21:44:26.818Z</time>
      </trkpt>
      <trkpt lat="44.33678" lon="3.29362">
        <ele>808.23</ele>
        <time>2024-11-05T21:44:40.514Z</time>
      </trkpt>
      <trkpt lat="44.33669" lon="3.29367">
        <ele>807.47</ele>
        <time>2024-11-05T21:44:54.211Z</time>
      </trkpt>
      <trkpt lat="44.33661" lon="3.29372">
        <ele>806.69</ele>
        <time>2024-11-05T21:45:07.910Z</time>
      </trkpt>
      <trkpt lat="44.33657" lon="3.29375">
        <ele>805.96</ele>
        <time>2024-11-05T21:45:21.610Z</time>
      </trkpt>
      <trkpt lat="44.33644" lon="3.29386">
        <ele>805.19</ele>
        <time>2024-11-05T21:45:35.312Z</time>
      </trkpt>
      <trkpt lat="44.33642" lon="3.29389">
        <ele>804.45</ele>
        <time>2024-11-05T21:45:49.014Z</time>
      </trkpt>
      <trkpt lat="44.33637" lon="3.29398">
        <ele>803.7</ele>
        <time>2024-11-05T21:46:02.718Z</time>
      </trkpt>
      <trkpt lat="44.33637" lon="3.29398">
        <ele>802.97</ele>
        <time>2024-11-05T21:46:16.422Z</time>
      </trkpt>
      <trkpt lat="44.33632" lon="3.29411">
        <ele>802.23</ele>
        <time>2024-11-05T21:46:30.127Z</time>
      </trkpt>
      <trkpt lat="44.33624" lon="3.29438">
        <ele>801.49</ele>
        <time>2024-11-05T21:46:43.836Z</time>
      </trkpt>
      <trkpt lat="44.33621" lon="3.29447">
        <ele>800.78</ele>
        <time>2024-11-05T21:46:57.546Z</time>
      </trkpt>
      <trkpt lat="44.3361" lon="3.2947">
        <ele>800.05</ele>
        <time>2024-11-05T21:47:11.259Z</time>
      </trkpt>
      <trkpt lat="44.33604" lon="3.2948">
        <ele>799.33</ele>
        <time>2024-11-05T21:47:24.974Z</time>
      </trkpt>
      <trkpt lat="44.33602" lon="3.29483">
        <ele>798.64</ele>
        <time>2024-11-05T21:47:38.689Z</time>
      </trkpt>
      <trkpt lat="44.33586" lon="3.29503">
        <ele>797.94</ele>
        <time>2024-11-05T21:47:52.408Z</time>
      </trkpt>
      <trkpt lat="44.3358" lon="3.29508">
        <ele>797.26</ele>
        <time>2024-11-05T21:48:06.128Z</time>
      </trkpt>
      <trkpt lat="44.33569" lon="3.29517">
        <ele>796.61</ele>
        <time>2024-11-05T21:48:19.850Z</time>
      </trkpt>
      <trkpt lat="44.33561" lon="3.29524">
        <ele>795.97</ele>
        <time>2024-11-05T21:48:33.573Z</time>
      </trkpt>
      <trkpt lat="44.33551" lon="3.29536">
        <ele>795.31</ele>
        <time>2024-11-05T21:48:47.298Z</time>
      </trkpt>
      <trkpt lat="44.33544" lon="3.29545">
        <ele>794.66</ele>
        <time>2024-11-05T21:49:01.025Z</time>
      </trkpt>
      <trkpt lat="44.3354" lon="3.2955">
        <ele>794.04</ele>
        <time>2024-11-05T21:49:14.753Z</time>
      </trkpt>
      <trkpt lat="44.33532" lon="3.29563">
        <ele>793.4</ele>
        <time>2024-11-05T21:49:28.483Z</time>
      </trkpt>
      <trkpt lat="44.33518" lon="3.29585">
        <ele>792.75</ele>
        <time>2024-11-05T21:49:42.216Z</time>
      </trkpt>
      <trkpt lat="44.33489" lon="3.29627">
        <ele>792.12</ele>
        <time>2024-11-05T21:49:55.956Z</time>
      </trkpt>
      <trkpt lat="44.33485" lon="3.29637">
        <ele>791.51</ele>
        <time>2024-11-05T21:50:09.697Z</time>
      </trkpt>
      <trkpt lat="44.33478" lon="3.29653">
        <ele>790.92</ele>
        <time>2024-11-05T21:50:23.440Z</time>
      </trkpt>
      <trkpt lat="44.33463" lon="3.29691">
        <ele>790.31</ele>
        <time>2024-11-05T21:50:37.188Z</time>
      </trkpt>
      <trkpt lat="44.33459" lon="3.29702">
        <ele>789.72</ele>
        <time>2024-11-05T21:50:50.938Z</time>
      </trkpt>
      <trkpt lat="44.33455" lon="3.29713">
        <ele>789.16</ele>
        <time>2024-11-05T21:51:04.689Z</time>
      </trkpt>
      <trkpt lat="44.33452" lon="3.29719">
        <ele>788.63</ele>
        <time>2024-11-05T21:51:18.441Z</time>
      </trkpt>
      <trkpt lat="44.33451" lon="3.29724">
        <ele>788.12</ele>
        <time>2024-11-05T21:51:32.193Z</time>
      </trkpt>
      <trkpt lat="44.33449" lon="3.29732">
        <ele>787.62</ele>
        <time>2024-11-05T21:51:45.946Z</time>
      </trkpt>
      <trkpt lat="44.33449" lon="3.29736">
        <ele>787.13</ele>
        <time>2024-11-05T21:51:59.700Z</time>
      </trkpt>
      <trkpt lat="44.3345" lon="3.29753">
        <ele>786.64</ele>
        <time>2024-11-05T21:52:13.456Z</time>
      </trkpt>
      <trkpt lat="44.33453" lon="3.29766">
        <ele>786.19</ele>
        <time>2024-11-05T21:52:27.213Z</time>
      </trkpt>
      <trkpt lat="44.33456" lon="3.29778">
        <ele>785.74</ele>
        <time>2024-11-05T21:52:40.972Z</time>
      </trkpt>
      <trkpt lat="44.33459" lon="3.2979">
        <ele>785.28</ele>
        <time>2024-11-05T21:52:54.732Z</time>
      </trkpt>
      <trkpt lat="44.33466" lon="3.29819">
        <ele>784.83</ele>
        <time>2024-11-05T21:53:08.496Z</time>
      </trkpt>
      <trkpt lat="44.33474" lon="3.29849">
        <ele>784.39</ele>
        <time>2024-11-05T21:53:22.263Z</time>
      </trkpt>
      <trkpt lat="44.33475" lon="3.29855">
        <ele>783.97</ele>
        <time>2024-11-05T21:53:36.031Z</time>
      </trkpt>
      <trkpt lat="44.33476" lon="3.29867">
        <ele>783.57</ele>
        <time>2024-11-05T21:53:49.801Z</time>
      </trkpt>
      <trkpt lat="44.33478" lon="3.2988">
        <ele>783.19</ele>
        <time>2024-11-05T21:54:03.572Z</time>
      </trkpt>
      <trkpt lat="44.33479" lon="3.29892">
        <ele>782.81</ele>
        <time>2024-11-05T21:54:17.345Z</time>
      </trkpt>
      <trkpt lat="44.33481" lon="3.29911">
        <ele>782.41</ele>
        <time>2024-11-05T21:54:31.120Z</time>
      </trkpt>
      <trkpt lat="44.33483" lon="3.29936">
        <ele>782.06</ele>
        <time>2024-11-05T21:54:44.898Z</time>
      </trkpt>
      <trkpt lat="44.33485" lon="3.29948">
        <ele>781.69</ele>
        <time>2024-11-05T21:54:58.677Z</time>
      </trkpt>
      <trkpt lat="44.33485" lon="3.29952">
        <ele>781.35</ele>
        <time>2024-11-05T21:55:12.456Z</time>
      </trkpt>
      <trkpt lat="44.33484" lon="3.2996">
        <ele>781.03</ele>
        <time>2024-11-05T21:55:26.236Z</time>
      </trkpt>
      <trkpt lat="44.3348" lon="3.2998">
        <ele>780.69</ele>
        <time>2024-11-05T21:55:40.019Z</time>
      </trkpt>
      <trkpt lat="44.33474" lon="3.29995">
        <ele>780.37</ele>
        <time>2024-11-05T21:55:53.804Z</time>
      </trkpt>
      <trkpt lat="44.33469" lon="3.30006">
        <ele>780.07</ele>
        <time>2024-11-05T21:56:07.590Z</time>
      </trkpt>
      <trkpt lat="44.33465" lon="3.30016">
        <ele>779.8</ele>
        <time>2024-11-05T21:56:21.378Z</time>
      </trkpt>
      <trkpt lat="44.33462" lon="3.30023">
        <ele>779.53</ele>
        <time>2024-11-05T21:56:35.167Z</time>
      </trkpt>
      <trkpt lat="44.33459" lon="3.30046">
        <ele>779.27</ele>
        <time>2024-11-05T21:56:48.958Z</time>
      </trkpt>
      <trkpt lat="44.33458" lon="3.30071">
        <ele>778.99</ele>
        <time>2024-11-05T21:57:02.752Z</time>
      </trkpt>
      <trkpt lat="44.33458" lon="3.30076">
        <ele>778.75</ele>
        <time>2024-11-05T21:57:16.547Z</time>
      </trkpt>
      <trkpt lat="44.33461" lon="3.30096">
        <ele>778.5</ele>
        <time>2024-11-05T21:57:30.344Z</time>
      </trkpt>
      <trkpt lat="44.33466" lon="3.30139">
        <ele>778.24</ele>
        <time>2024-11-05T21:57:44.146Z</time>
      </trkpt>
      <trkpt lat="44.33468" lon="3.30151">
        <ele>778.02</ele>
        <time>2024-11-05T21:57:57.949Z</time>
      </trkpt>
      <trkpt lat="44.33473" lon="3.30189">
        <ele>777.87</ele>
        <time>2024-11-05T21:58:11.757Z</time>
      </trkpt>
      <trkpt lat="44.33473" lon="3.30195">
        <ele>777.68</ele>
        <time>2024-11-05T21:58:25.565Z</time>
      </trkpt>
      <trkpt lat="44.33473" lon="3.30207">
        <ele>777.48</ele>
        <time>2024-11-05T21:58:39.375Z</time>
      </trkpt>
      <trkpt lat="44.33473" lon="3.30226">
        <ele>777.3</ele>
        <time>2024-11-05T21:58:53.187Z</time>
      </trkpt>
      <trkpt lat="44.33473" lon="3.30249">
        <ele>777.11</ele>
        <time>2024-11-05T21:59:07.002Z</time>
      </trkpt>
      <trkpt lat="44.33472" lon="3.30257">
        <ele>776.96</ele>
        <time>2024-11-05T21:59:20.818Z</time>
      </trkpt>
      <trkpt lat="44.33468" lon="3.30294">
        <ele>776.79</ele>
        <time>2024-11-05T21:59:34.638Z</time>
      </trkpt>
      <trkpt lat="44.33467" lon="3.30313">
        <ele>776.63</ele>
        <time>2024-11-05T21:59:48.460Z</time>
      </trkpt>
      <trkpt lat="44.33464" lon="3.30338">
        <ele>776.48</ele>
        <time>2024-11-05T22:00:02.285Z</time>
      </trkpt>
      <trkpt lat="44.33463" lon="3.30344">
        <ele>776.36</ele>
        <time>2024-11-05T22:00:16.111Z</time>
      </trkpt>
      <trkpt lat="44.33461" lon="3.30356">
        <ele>776.25</ele>
        <time>2024-11-05T22:00:29.938Z</time>
      </trkpt>
      <trkpt lat="44.33459" lon="3.30368">
        <ele>776.15</ele>
        <time>2024-11-05T22:00:43.767Z</time>
      </trkpt>
      <trkpt lat="44.33452" lon="3.30405">
        <ele>776.04</ele>
        <time>2024-11-05T22:00:57.600Z</time>
      </trkpt>
      <trkpt lat="44.33451" lon="3.3041">
        <ele>775.94</ele>
        <time>2024-11-05T22:01:11.434Z</time>
      </trkpt>
      <trkpt lat="44.33445" lon="3.30435">
        <ele>775.84</ele>
        <time>2024-11-05T22:01:25.271Z</time>
      </trkpt>
      <trkpt lat="44.33442" lon="3.30446">
        <ele>775.77</ele>
        <time>2024-11-05T22:01:39.109Z</time>
      </trkpt>
      <trkpt lat="44.33441" lon="3.30452">
        <ele>775.72</ele>
        <time>2024-11-05T22:01:52.948Z</time>
      </trkpt>
      <trkpt lat="44.33435" lon="3.30476">
        <ele>775.68</ele>
        <time>2024-11-05T22:02:06.790Z</time>
      </trkpt>
      <trkpt lat="44.33433" lon="3.30488">
        <ele>775.66</ele>
        <time>2024-11-05T22:02:20.633Z</time>
      </trkpt>
      <trkpt lat="44.3343" lon="3.30499">
        <ele>775.64</ele>
        <time>2024-11-05T22:02:34.477Z</time>
      </trkpt>
      <trkpt lat="44.3343" lon="3.305">
        <ele>775.61</ele>
        <time>2024-11-05T22:02:48.321Z</time>
      </trkpt>
      <trkpt lat="44.33423" lon="3.30519">
        <ele>775.62</ele>
        <time>2024-11-05T22:03:02.168Z</time>
      </trkpt>
      <trkpt lat="44.33419" lon="3.30528">
        <ele>775.61</ele>
        <time>2024-11-05T22:03:16.016Z</time>
      </trkpt>
      <trkpt lat="44.33415" lon="3.30538">
        <ele>775.59</ele>
        <time>2024-11-05T22:03:29.865Z</time>
      </trkpt>
      <trkpt lat="44.33411" lon="3.30547">
        <ele>775.57</ele>
        <time>2024-11-05T22:03:43.716Z</time>
      </trkpt>
      <trkpt lat="44.33405" lon="3.30559">
        <ele>775.55</ele>
        <time>2024-11-05T22:03:57.568Z</time>
      </trkpt>
      <trkpt lat="44.33396" lon="3.30575">
        <ele>775.53</ele>
        <time>2024-11-05T22:04:11.423Z</time>
      </trkpt>
      <trkpt lat="44.33393" lon="3.30578">
        <ele>775.52</ele>
        <time>2024-11-05T22:04:25.278Z</time>
      </trkpt>
      <trkpt lat="44.33384" lon="3.3059">
        <ele>775.47</ele>
        <time>2024-11-05T22:04:39.135Z</time>
      </trkpt>
      <trkpt lat="44.33379" lon="3.30594">
        <ele>775.45</ele>
        <time>2024-11-05T22:04:52.993Z</time>
      </trkpt>
      <trkpt lat="44.33376" lon="3.30596">
        <ele>775.42</ele>
        <time>2024-11-05T22:05:06.852Z</time>
      </trkpt>
      <trkpt lat="44.33358" lon="3.30604">
        <ele>775.37</ele>
        <time>2024-11-05T22:05:20.714Z</time>
      </trkpt>
      <trkpt lat="44.33332" lon="3.30615">
        <ele>775.33</ele>
        <time>2024-11-05T22:05:34.580Z</time>
      </trkpt>
      <trkpt lat="44.33308" lon="3.30632">
        <ele>775.28</ele>
        <time>2024-11-05T22:05:48.450Z</time>
      </trkpt>
      <trkpt lat="44.33302" lon="3.30636">
        <ele>775.23</ele>
        <time>2024-11-05T22:06:02.321Z</time>
      </trkpt>
      <trkpt lat="44.33279" lon="3.30659">
        <ele>775.18</ele>
        <time>2024-11-05T22:06:16.197Z</time>
      </trkpt>
      <trkpt lat="44.33269" lon="3.30673">
        <ele>775.13</ele>
        <time>2024-11-05T22:06:30.075Z</time>
      </trkpt>
      <trkpt lat="44.33246" lon="3.30703">
        <ele>775.04</ele>
        <time>2024-11-05T22:06:43.958Z</time>
      </trkpt>
      <trkpt lat="44.33232" lon="3.3072">
        <ele>774.97</ele>
        <time>2024-11-05T22:06:57.844Z</time>
      </trkpt>
      <trkpt lat="44.33229" lon="3.30724">
        <ele>774.87</ele>
        <time>2024-11-05T22:07:11.731Z</time>
      </trkpt>
      <trkpt lat="44.33208" lon="3.30757">
        <ele>774.77</ele>
        <time>2024-11-05T22:07:25.623Z</time>
      </trkpt>
      <trkpt lat="44.33185" lon="3.30786">
        <ele>774.67</ele>
        <time>2024-11-05T22:07:39.520Z</time>
      </trkpt>
      <trkpt lat="44.33178" lon="3.30795">
        <ele>774.54</ele>
        <time>2024-11-05T22:07:53.418Z</time>
      </trkpt>
      <trkpt lat="44.33173" lon="3.30801">
        <ele>774.37</ele>
        <time>2024-11-05T22:08:07.318Z</time>
      </trkpt>
      <trkpt lat="44.33167" lon="3.30806">
        <ele>774.19</ele>
        <time>2024-11-05T22:08:21.219Z</time>
      </trkpt>
      <trkpt lat="44.33159" lon="3.30812">
        <ele>773.96</ele>
        <time>2024-11-05T22:08:35.121Z</time>
      </trkpt>
      <trkpt lat="44.3314" lon="3.30827">
        <ele>773.68</ele>
        <time>2024-11-05T22:08:49.027Z</time>
      </trkpt>
      <trkpt lat="44.33128" lon="3.30836">
        <ele>773.42</ele>
        <time>2024-11-05T22:09:02.935Z</time>
      </trkpt>
      <trkpt lat="44.3312" lon="3.30842">
        <ele>773.15</ele>
        <time>2024-11-05T22:09:16.844Z</time>
      </trkpt>
      <trkpt lat="44.331" lon="3.30858">
        <ele>772.78</ele>
        <time>2024-11-05T22:09:30.757Z</time>
      </trkpt>
      <trkpt lat="44.33093" lon="3.30865">
        <ele>772.46</ele>
        <time>2024-11-05T22:09:44.671Z</time>
      </trkpt>
      <trkpt lat="44.33086" lon="3.30873">
        <ele>772.09</ele>
        <time>2024-11-05T22:09:58.587Z</time>
      </trkpt>
      <trkpt lat="44.33075" lon="3.30886">
        <ele>771.67</ele>
        <time>2024-11-05T22:10:12.505Z</time>
      </trkpt>
      <trkpt lat="44.3307" lon="3.30895">
        <ele>771.25</ele>
        <time>2024-11-05T22:10:26.424Z</time>
      </trkpt>
      <trkpt lat="44.33065" lon="3.30905">
        <ele>770.79</ele>
        <time>2024-11-05T22:10:40.345Z</time>
      </trkpt>
      <trkpt lat="44.33059" lon="3.30915">
        <ele>770.29</ele>
        <time>2024-11-05T22:10:54.267Z</time>
      </trkpt>
      <trkpt lat="44.33053" lon="3.30932">
        <ele>769.78</ele>
        <time>2024-11-05T22:11:08.191Z</time>
      </trkpt>
      <trkpt lat="44.33041" lon="3.30965">
        <ele>769.2</ele>
        <time>2024-11-05T22:11:22.120Z</time>
      </trkpt>
      <trkpt lat="44.33033" lon="3.30988">
        <ele>768.58</ele>
        <time>2024-11-05T22:11:36.052Z</time>
      </trkpt>
      <trkpt lat="44.33022" lon="3.31022">
        <ele>767.87</ele>
        <time>2024-11-05T22:11:49.988Z</time>
      </trkpt>
      <trkpt lat="44.33012" lon="3.3105">
        <ele>767.26</ele>
        <time>2024-11-05T22:12:03.928Z</time>
      </trkpt>
      <trkpt lat="44.33" lon="3.31084">
        <ele>766.67</ele>
        <time>2024-11-05T22:12:17.872Z</time>
      </trkpt>
      <trkpt lat="44.32997" lon="3.31092">
        <ele>766.02</ele>
        <time>2024-11-05T22:12:31.817Z</time>
      </trkpt>
      <trkpt lat="44.32995" lon="3.31098">
        <ele>765.36</ele>
        <time>2024-11-05T22:12:45.763Z</time>
      </trkpt>
      <trkpt lat="44.32976" lon="3.31142">
        <ele>764.62</ele>
        <time>2024-11-05T22:12:59.715Z</time>
      </trkpt>
      <trkpt lat="44.32952" lon="3.31207">
        <ele>763.8</ele>
        <time>2024-11-05T22:13:13.675Z</time>
      </trkpt>
      <trkpt lat="44.32951" lon="3.3121">
        <ele>763.08</ele>
        <time>2024-11-05T22:13:27.635Z</time>
      </trkpt>
      <trkpt lat="44.32947" lon="3.31218">
        <ele>762.31</ele>
        <time>2024-11-05T22:13:41.596Z</time>
      </trkpt>
      <trkpt lat="44.32942" lon="3.31228">
        <ele>761.55</ele>
        <time>2024-11-05T22:13:55.559Z</time>
      </trkpt>
      <trkpt lat="44.3293" lon="3.31254">
        <ele>760.8</ele>
        <time>2024-11-05T22:14:09.525Z</time>
      </trkpt>
      <trkpt lat="44.32918" lon="3.3128">
        <ele>760.02</ele>
        <time>2024-11-05T22:14:23.495Z</time>
      </trkpt>
      <trkpt lat="44.32914" lon="3.31287">
        <ele>759.21</ele>
        <time>2024-11-05T22:14:37.466Z</time>
      </trkpt>
      <trkpt lat="44.32903" lon="3.31312">
        <ele>758.41</ele>
        <time>2024-11-05T22:14:51.440Z</time>
      </trkpt>
      <trkpt lat="44.32896" lon="3.31328">
        <ele>757.56</ele>
        <time>2024-11-05T22:15:05.416Z</time>
      </trkpt>
      <trkpt lat="44.32893" lon="3.31332">
        <ele>756.74</ele>
        <time>2024-11-05T22:15:19.393Z</time>
      </trkpt>
      <trkpt lat="44.32876" lon="3.31353">
        <ele>755.87</ele>
        <time>2024-11-05T22:15:33.374Z</time>
      </trkpt>
      <trkpt lat="44.32872" lon="3.31356">
        <ele>755</ele>
        <time>2024-11-05T22:15:47.355Z</time>
      </trkpt>
      <trkpt lat="44.3286" lon="3.31365">
        <ele>754.11</ele>
        <time>2024-11-05T22:16:01.339Z</time>
      </trkpt>
      <trkpt lat="44.32856" lon="3.31368">
        <ele>753.21</ele>
        <time>2024-11-05T22:16:15.323Z</time>
      </trkpt>
      <trkpt lat="44.32848" lon="3.31371">
        <ele>752.3</ele>
        <time>2024-11-05T22:16:29.309Z</time>
      </trkpt>
      <trkpt lat="44.32835" lon="3.31376">
        <ele>751.35</ele>
        <time>2024-11-05T22:16:43.297Z</time>
      </trkpt>
      <trkpt lat="44.32808" lon="3.31382">
        <ele>750.37</ele>
        <time>2024-11-05T22:16:57.289Z</time>
      </trkpt>
      <trkpt lat="44.32806" lon="3.31382">
        <ele>749.46</ele>
        <time>2024-11-05T22:17:11.282Z</time>
      </trkpt>
      <trkpt lat="44.32799" lon="3.31382">
        <ele>748.53</ele>
        <time>2024-11-05T22:17:25.276Z</time>
      </trkpt>
      <trkpt lat="44.32776" lon="3.31384">
        <ele>747.58</ele>
        <time>2024-11-05T22:17:39.273Z</time>
      </trkpt>
      <trkpt lat="44.32767" lon="3.31384">
        <ele>746.63</ele>
        <time>2024-11-05T22:17:53.272Z</time>
      </trkpt>
      <trkpt lat="44.32745" lon="3.31386">
        <ele>745.66</ele>
        <time>2024-11-05T22:18:07.274Z</time>
      </trkpt>
      <trkpt lat="44.32736" lon="3.31386">
        <ele>744.69</ele>
        <time>2024-11-05T22:18:21.278Z</time>
      </trkpt>
      <trkpt lat="44.32727" lon="3.31387">
        <ele>743.72</ele>
        <time>2024-11-05T22:18:35.283Z</time>
      </trkpt>
      <trkpt lat="44.32718" lon="3.31387">
        <ele>742.75</ele>
        <time>2024-11-05T22:18:49.290Z</time>
      </trkpt>
      <trkpt lat="44.32704" lon="3.31388">
        <ele>741.78</ele>
        <time>2024-11-05T22:19:03.299Z</time>
      </trkpt>
      <trkpt lat="44.32674" lon="3.3138">
        <ele>740.76</ele>
        <time>2024-11-05T22:19:17.313Z</time>
      </trkpt>
      <trkpt lat="44.32661" lon="3.31376">
        <ele>739.8</ele>
        <time>2024-11-05T22:19:31.329Z</time>
      </trkpt>
      <trkpt lat="44.32648" lon="3.31372">
        <ele>738.86</ele>
        <time>2024-11-05T22:19:45.347Z</time>
      </trkpt>
      <trkpt lat="44.32639" lon="3.3137">
        <ele>737.92</ele>
        <time>2024-11-05T22:19:59.367Z</time>
      </trkpt>
      <trkpt lat="44.32617" lon="3.31364">
        <ele>736.93</ele>
        <time>2024-11-05T22:20:13.390Z</time>
      </trkpt>
      <trkpt lat="44.3259" lon="3.31357">
        <ele>735.93</ele>
        <time>2024-11-05T22:20:27.417Z</time>
      </trkpt>
      <trkpt lat="44.32585" lon="3.31355">
        <ele>734.98</ele>
        <time>2024-11-05T22:20:41.445Z</time>
      </trkpt>
      <trkpt lat="44.32559" lon="3.31353">
        <ele>733.99</ele>
        <time>2024-11-05T22:20:55.477Z</time>
      </trkpt>
      <trkpt lat="44.32546" lon="3.31352">
        <ele>733.02</ele>
        <time>2024-11-05T22:21:09.512Z</time>
      </trkpt>
      <trkpt lat="44.32544" lon="3.31352">
        <ele>732.08</ele>
        <time>2024-11-05T22:21:23.547Z</time>
      </trkpt>
      <trkpt lat="44.32533" lon="3.31355">
        <ele>731.07</ele>
        <time>2024-11-05T22:21:37.584Z</time>
      </trkpt>
      <trkpt lat="44.32526" lon="3.31357">
        <ele>730.11</ele>
        <time>2024-11-05T22:21:51.622Z</time>
      </trkpt>
      <trkpt lat="44.32524" lon="3.31358">
        <ele>729.18</ele>
        <time>2024-11-05T22:22:05.660Z</time>
      </trkpt>
      <trkpt lat="44.32515" lon="3.31359">
        <ele>728.24</ele>
        <time>2024-11-05T22:22:19.700Z</time>
      </trkpt>
      <trkpt lat="44.32484" lon="3.31366">
        <ele>727.26</ele>
        <time>2024-11-05T22:22:33.745Z</time>
      </trkpt>
      <trkpt lat="44.32475" lon="3.31368">
        <ele>726.35</ele>
        <time>2024-11-05T22:22:47.791Z</time>
      </trkpt>
      <trkpt lat="44.32466" lon="3.3137">
        <ele>725.44</ele>
        <time>2024-11-05T22:23:01.839Z</time>
      </trkpt>
      <trkpt lat="44.32453" lon="3.31372">
        <ele>724.52</ele>
        <time>2024-11-05T22:23:15.889Z</time>
      </trkpt>
      <trkpt lat="44.32435" lon="3.31376">
        <ele>723.58</ele>
        <time>2024-11-05T22:23:29.942Z</time>
      </trkpt>
      <trkpt lat="44.32426" lon="3.31378">
        <ele>722.67</ele>
        <time>2024-11-05T22:23:43.996Z</time>
      </trkpt>
      <trkpt lat="44.32413" lon="3.31381">
        <ele>721.76</ele>
        <time>2024-11-05T22:23:58.052Z</time>
      </trkpt>
      <trkpt lat="44.32404" lon="3.31383">
        <ele>720.85</ele>
        <time>2024-11-05T22:24:12.110Z</time>
      </trkpt>
      <trkpt lat="44.32386" lon="3.31386">
        <ele>719.94</ele>
        <time>2024-11-05T22:24:26.170Z</time>
      </trkpt>
      <trkpt lat="44.32364" lon="3.31391">
        <ele>719.03</ele>
        <time>2024-11-05T22:24:40.234Z</time>
      </trkpt>
      <trkpt lat="44.32341" lon="3.31396">
        <ele>718.14</ele>
        <time>2024-11-05T22:24:54.302Z</time>
      </trkpt>
      <trkpt lat="44.32333" lon="3.31397">
        <ele>717.29</ele>
        <time>2024-11-05T22:25:08.371Z</time>
      </trkpt>
      <trkpt lat="44.32324" lon="3.31398">
        <ele>716.45</ele>
        <time>2024-11-05T22:25:22.441Z</time>
      </trkpt>
      <trkpt lat="44.32306" lon="3.314">
        <ele>715.62</ele>
        <time>2024-11-05T22:25:36.514Z</time>
      </trkpt>
      <trkpt lat="44.32275" lon="3.31404">
        <ele>714.76</ele>
        <time>2024-11-05T22:25:50.592Z</time>
      </trkpt>
      <trkpt lat="44.32262" lon="3.31406">
        <ele>713.93</ele>
        <time>2024-11-05T22:26:04.672Z</time>
      </trkpt>
      <trkpt lat="44.3226" lon="3.31406">
        <ele>713.13</ele>
        <time>2024-11-05T22:26:18.753Z</time>
      </trkpt>
      <trkpt lat="44.32232" lon="3.31418">
        <ele>712.27</ele>
        <time>2024-11-05T22:26:32.839Z</time>
      </trkpt>
      <trkpt lat="44.32219" lon="3.31423">
        <ele>711.47</ele>
        <time>2024-11-05T22:26:46.927Z</time>
      </trkpt>
      <trkpt lat="44.32212" lon="3.31426">
        <ele>710.68</ele>
        <time>2024-11-05T22:27:01.016Z</time>
      </trkpt>
      <trkpt lat="44.3221" lon="3.31427">
        <ele>709.91</ele>
        <time>2024-11-05T22:27:15.105Z</time>
      </trkpt>
      <trkpt lat="44.32202" lon="3.31432">
        <ele>709.12</ele>
        <time>2024-11-05T22:27:29.196Z</time>
      </trkpt>
      <trkpt lat="44.32189" lon="3.31439">
        <ele>708.32</ele>
        <time>2024-11-05T22:27:43.289Z</time>
      </trkpt>
      <trkpt lat="44.32183" lon="3.31442">
        <ele>707.54</ele>
        <time>2024-11-05T22:27:57.383Z</time>
      </trkpt>
      <trkpt lat="44.32181" lon="3.31442">
        <ele>706.79</ele>
        <time>2024-11-05T22:28:11.477Z</time>
      </trkpt>
      <trkpt lat="44.32172" lon="3.31443">
        <ele>706.01</ele>
        <time>2024-11-05T22:28:25.573Z</time>
      </trkpt>
      <trkpt lat="44.32163" lon="3.31439">
        <ele>705.21</ele>
        <time>2024-11-05T22:28:39.670Z</time>
      </trkpt>
      <trkpt lat="44.32159" lon="3.31436">
        <ele>704.48</ele>
        <time>2024-11-05T22:28:53.768Z</time>
      </trkpt>
      <trkpt lat="44.32155" lon="3.31432">
        <ele>703.75</ele>
        <time>2024-11-05T22:29:07.867Z</time>
      </trkpt>
      <trkpt lat="44.32149" lon="3.31424">
        <ele>703.02</ele>
        <time>2024-11-05T22:29:21.967Z</time>
      </trkpt>
      <trkpt lat="44.32143" lon="3.31415">
        <ele>702.3</ele>
        <time>2024-11-05T22:29:36.068Z</time>
      </trkpt>
      <trkpt lat="44.32133" lon="3.31401">
        <ele>701.59</ele>
        <time>2024-11-05T22:29:50.172Z</time>
      </trkpt>
      <trkpt lat="44.3213" lon="3.31398">
        <ele>700.88</ele>
        <time>2024-11-05T22:30:04.276Z</time>
      </trkpt>
      <trkpt lat="44.32123" lon="3.31392">
        <ele>700.16</ele>
        <time>2024-11-05T22:30:18.381Z</time>
      </trkpt>
      <trkpt lat="44.32114" lon="3.31388">
        <ele>699.43</ele>
        <time>2024-11-05T22:30:32.488Z</time>
      </trkpt>
      <trkpt lat="44.32096" lon="3.31392">
        <ele>698.65</ele>
        <time>2024-11-05T22:30:46.598Z</time>
      </trkpt>
      <trkpt lat="44.32088" lon="3.31397">
        <ele>697.9</ele>
        <time>2024-11-05T22:31:00.709Z</time>
      </trkpt>
      <trkpt lat="44.32071" lon="3.31407">
        <ele>697.18</ele>
        <time>2024-11-05T22:31:14.823Z</time>
      </trkpt>
      <trkpt lat="44.32057" lon="3.31415">
        <ele>696.42</ele>
        <time>2024-11-05T22:31:28.940Z</time>
      </trkpt>
      <trkpt lat="44.32037" lon="3.31424">
        <ele>695.71</ele>
        <time>2024-11-05T22:31:43.060Z</time>
      </trkpt>
      <trkpt lat="44.32016" lon="3.31434">
        <ele>694.96</ele>
        <time>2024-11-05T22:31:57.184Z</time>
      </trkpt>
      <trkpt lat="44.32007" lon="3.31438">
        <ele>694.22</ele>
        <time>2024-11-05T22:32:11.309Z</time>
      </trkpt>
      <trkpt lat="44.31999" lon="3.31442">
        <ele>693.49</ele>
        <time>2024-11-05T22:32:25.435Z</time>
      </trkpt>
      <trkpt lat="44.31978" lon="3.31451">
        <ele>692.76</ele>
        <time>2024-11-05T22:32:39.565Z</time>
      </trkpt>
      <trkpt lat="44.31965" lon="3.31457">
        <ele>692.04</ele>
        <time>2024-11-05T22:32:53.697Z</time>
      </trkpt>
      <trkpt lat="44.31956" lon="3.31461">
        <ele>691.31</ele>
        <time>2024-11-05T22:33:07.831Z</time>
      </trkpt>
      <trkpt lat="44.31943" lon="3.31467">
        <ele>690.52</ele>
        <time>2024-11-05T22:33:21.967Z</time>
      </trkpt>
      <trkpt lat="44.31921" lon="3.31477">
        <ele>689.73</ele>
        <time>2024-11-05T22:33:36.107Z</time>
      </trkpt>
      <trkpt lat="44.31918" lon="3.31477">
        <ele>688.96</ele>
        <time>2024-11-05T22:33:50.247Z</time>
      </trkpt>
      <trkpt lat="44.31895" lon="3.3148">
        <ele>688.2</ele>
        <time>2024-11-05T22:34:04.391Z</time>
      </trkpt>
      <trkpt lat="44.31886" lon="3.31481">
        <ele>687.37</ele>
        <time>2024-11-05T22:34:18.536Z</time>
      </trkpt>
      <trkpt lat="44.31851" lon="3.31485">
        <ele>686.49</ele>
        <time>2024-11-05T22:34:32.687Z</time>
      </trkpt>
      <trkpt lat="44.31837" lon="3.31487">
        <ele>685.65</ele>
        <time>2024-11-05T22:34:46.840Z</time>
      </trkpt>
      <trkpt lat="44.31828" lon="3.31488">
        <ele>684.83</ele>
        <time>2024-11-05T22:35:00.994Z</time>
      </trkpt>
      <trkpt lat="44.31812" lon="3.3149">
        <ele>683.97</ele>
        <time>2024-11-05T22:35:15.151Z</time>
      </trkpt>
      <trkpt lat="44.31811" lon="3.3149">
        <ele>683.15</ele>
        <time>2024-11-05T22:35:29.308Z</time>
      </trkpt>
      <trkpt lat="44.31784" lon="3.31491">
        <ele>682.24</ele>
        <time>2024-11-05T22:35:43.470Z</time>
      </trkpt>
      <trkpt lat="44.31766" lon="3.31492">
        <ele>681.34</ele>
        <time>2024-11-05T22:35:57.634Z</time>
      </trkpt>
      <trkpt lat="44.31751" lon="3.31495">
        <ele>680.49</ele>
        <time>2024-11-05T22:36:11.801Z</time>
      </trkpt>
      <trkpt lat="44.31735" lon="3.31501">
        <ele>679.63</ele>
        <time>2024-11-05T22:36:25.971Z</time>
      </trkpt>
      <trkpt lat="44.31726" lon="3.31504">
        <ele>678.76</ele>
        <time>2024-11-05T22:36:40.142Z</time>
      </trkpt>
      <trkpt lat="44.31705" lon="3.31512">
        <ele>677.84</ele>
        <time>2024-11-05T22:36:54.317Z</time>
      </trkpt>
      <trkpt lat="44.31679" lon="3.31521">
        <ele>676.92</ele>
        <time>2024-11-05T22:37:08.496Z</time>
      </trkpt>
      <trkpt lat="44.31657" lon="3.31529">
        <ele>676.02</ele>
        <time>2024-11-05T22:37:22.678Z</time>
      </trkpt>
      <trkpt lat="44.31654" lon="3.3153">
        <ele>675.11</ele>
        <time>2024-11-05T22:37:36.861Z</time>
      </trkpt>
      <trkpt lat="44.31611" lon="3.31543">
        <ele>674.18</ele>
        <time>2024-11-05T22:37:51.051Z</time>
      </trkpt>
      <trkpt lat="44.31595" lon="3.31547">
        <ele>673.23</ele>
        <time>2024-11-05T22:38:05.243Z</time>
      </trkpt>
      <trkpt lat="44.31587" lon="3.31549">
        <ele>672.26</ele>
        <time>2024-11-05T22:38:19.437Z</time>
      </trkpt>
      <trkpt lat="44.31584" lon="3.31549">
        <ele>671.29</ele>
        <time>2024-11-05T22:38:33.631Z</time>
      </trkpt>
      <trkpt lat="44.31558" lon="3.31566">
        <ele>670.29</ele>
        <time>2024-11-05T22:38:47.830Z</time>
      </trkpt>
      <trkpt lat="44.31549" lon="3.31571">
        <ele>669.27</ele>
        <time>2024-11-05T22:39:02.030Z</time>
      </trkpt>
      <trkpt lat="44.31542" lon="3.31578">
        <ele>668.22</ele>
        <time>2024-11-05T22:39:16.232Z</time>
      </trkpt>
      <trkpt lat="44.31535" lon="3.31585">
        <ele>667.18</ele>
        <time>2024-11-05T22:39:30.435Z</time>
      </trkpt>
      <trkpt lat="44.31529" lon="3.3159">
        <ele>666.14</ele>
        <time>2024-11-05T22:39:44.639Z</time>
      </trkpt>
      <trkpt lat="44.31514" lon="3.31593">
        <ele>665.01</ele>
        <time>2024-11-05T22:39:58.846Z</time>
      </trkpt>
      <trkpt lat="44.31503" lon="3.31595">
        <ele>663.91</ele>
        <time>2024-11-05T22:40:13.055Z</time>
      </trkpt>
      <trkpt lat="44.31478" lon="3.3159">
        <ele>662.73</ele>
        <time>2024-11-05T22:40:27.268Z</time>
      </trkpt>
      <trkpt lat="44.31452" lon="3.31585">
        <ele>661.6</ele>
        <time>2024-11-05T22:40:41.485Z</time>
      </trkpt>
      <trkpt lat="44.31436" lon="3.31571">
        <ele>660.47</ele>
        <time>2024-11-05T22:40:55.705Z</time>
      </trkpt>
      <trkpt lat="44.31433" lon="3.31568">
        <ele>659.38</ele>
        <time>2024-11-05T22:41:09.925Z</time>
      </trkpt>
      <trkpt lat="44.31426" lon="3.31544">
        <ele>658.21</ele>
        <time>2024-11-05T22:41:24.148Z</time>
      </trkpt>
      <trkpt lat="44.31422" lon="3.31533">
        <ele>657.06</ele>
        <time>2024-11-05T22:41:38.373Z</time>
      </trkpt>
      <trkpt lat="44.31419" lon="3.31521">
        <ele>655.93</ele>
        <time>2024-11-05T22:41:52.599Z</time>
      </trkpt>
      <trkpt lat="44.31418" lon="3.31518">
        <ele>654.81</ele>
        <time>2024-11-05T22:42:06.826Z</time>
      </trkpt>
      <trkpt lat="44.31415" lon="3.3151">
        <ele>653.66</ele>
        <time>2024-11-05T22:42:21.054Z</time>
      </trkpt>
      <trkpt lat="44.31413" lon="3.31505">
        <ele>652.53</ele>
        <time>2024-11-05T22:42:35.282Z</time>
      </trkpt>
      <trkpt lat="44.31408" lon="3.31494">
        <ele>651.35</ele>
        <time>2024-11-05T22:42:49.512Z</time>
      </trkpt>
      <trkpt lat="44.31407" lon="3.31491">
        <ele>650.22</ele>
        <time>2024-11-05T22:43:03.742Z</time>
      </trkpt>
      <trkpt lat="44.31401" lon="3.31488">
        <ele>649.05</ele>
        <time>2024-11-05T22:43:17.973Z</time>
      </trkpt>
      <trkpt lat="44.31397" lon="3.31485">
        <ele>647.89</ele>
        <time>2024-11-05T22:43:32.205Z</time>
      </trkpt>
      <trkpt lat="44.31392" lon="3.31483">
        <ele>646.73</ele>
        <time>2024-11-05T22:43:46.438Z</time>
      </trkpt>
      <trkpt lat="44.31375" lon="3.31489">
        <ele>645.53</ele>
        <time>2024-11-05T22:44:00.674Z</time>
      </trkpt>
      <trkpt lat="44.31374" lon="3.31489">
        <ele>644.39</ele>
        <time>2024-11-05T22:44:14.910Z</time>
      </trkpt>
      <trkpt lat="44.31361" lon="3.31506">
        <ele>643.25</ele>
        <time>2024-11-05T22:44:29.149Z</time>
      </trkpt>
      <trkpt lat="44.31359" lon="3.3151">
        <ele>642.11</ele>
        <time>2024-11-05T22:44:43.388Z</time>
      </trkpt>
      <trkpt lat="44.31353" lon="3.31527">
        <ele>640.97</ele>
        <time>2024-11-05T22:44:57.629Z</time>
      </trkpt>
      <trkpt lat="44.31348" lon="3.31537">
        <ele>639.86</ele>
        <time>2024-11-05T22:45:11.872Z</time>
      </trkpt>
      <trkpt lat="44.31344" lon="3.31548">
        <ele>638.75</ele>
        <time>2024-11-05T22:45:26.116Z</time>
      </trkpt>
      <trkpt lat="44.3134" lon="3.31559">
        <ele>637.65</ele>
        <time>2024-11-05T22:45:40.362Z</time>
      </trkpt>
      <trkpt lat="44.31338" lon="3.31563">
        <ele>636.52</ele>
        <time>2024-11-05T22:45:54.608Z</time>
      </trkpt>
      <trkpt lat="44.31329" lon="3.31569">
        <ele>635.35</ele>
        <time>2024-11-05T22:46:08.856Z</time>
      </trkpt>
      <trkpt lat="44.31322" lon="3.31574">
        <ele>634.18</ele>
        <time>2024-11-05T22:46:23.105Z</time>
      </trkpt>
      <trkpt lat="44.31299" lon="3.31578">
        <ele>632.9</ele>
        <time>2024-11-05T22:46:37.358Z</time>
      </trkpt>
      <trkpt lat="44.31295" lon="3.31577">
        <ele>631.71</ele>
        <time>2024-11-05T22:46:51.611Z</time>
      </trkpt>
      <trkpt lat="44.31265" lon="3.31566">
        <ele>630.28</ele>
        <time>2024-11-05T22:47:05.869Z</time>
      </trkpt>
      <trkpt lat="44.31252" lon="3.31561">
        <ele>629.05</ele>
        <time>2024-11-05T22:47:20.129Z</time>
      </trkpt>
      <trkpt lat="44.31244" lon="3.31558">
        <ele>627.85</ele>
        <time>2024-11-05T22:47:34.391Z</time>
      </trkpt>
      <trkpt lat="44.31242" lon="3.31557">
        <ele>626.71</ele>
        <time>2024-11-05T22:47:48.653Z</time>
      </trkpt>
      <trkpt lat="44.31235" lon="3.31557">
        <ele>625.55</ele>
        <time>2024-11-05T22:48:02.916Z</time>
      </trkpt>
      <trkpt lat="44.3123" lon="3.31557">
        <ele>624.41</ele>
        <time>2024-11-05T22:48:17.180Z</time>
      </trkpt>
      <trkpt lat="44.31216" lon="3.31562">
        <ele>623.19</ele>
        <time>2024-11-05T22:48:31.446Z</time>
      </trkpt>
      <trkpt lat="44.31203" lon="3.31578">
        <ele>622</ele>
        <time>2024-11-05T22:48:45.715Z</time>
      </trkpt>
      <trkpt lat="44.31202" lon="3.31582">
        <ele>620.95</ele>
        <time>2024-11-05T22:48:59.985Z</time>
      </trkpt>
      <trkpt lat="44.31198" lon="3.31593">
        <ele>619.92</ele>
        <time>2024-11-05T22:49:14.256Z</time>
      </trkpt>
      <trkpt lat="44.31197" lon="3.31596">
        <ele>618.89</ele>
        <time>2024-11-05T22:49:28.527Z</time>
      </trkpt>
      <trkpt lat="44.31193" lon="3.31617">
        <ele>617.92</ele>
        <time>2024-11-05T22:49:42.801Z</time>
      </trkpt>
      <trkpt lat="44.31187" lon="3.31647">
        <ele>617.06</ele>
        <time>2024-11-05T22:49:57.078Z</time>
      </trkpt>
      <trkpt lat="44.31185" lon="3.31655">
        <ele>616.15</ele>
        <time>2024-11-05T22:50:11.356Z</time>
      </trkpt>
      <trkpt lat="44.31174" lon="3.31681">
        <ele>615.22</ele>
        <time>2024-11-05T22:50:25.638Z</time>
      </trkpt>
      <trkpt lat="44.31171" lon="3.31683">
        <ele>614.28</ele>
        <time>2024-11-05T22:50:39.920Z</time>
      </trkpt>
      <trkpt lat="44.31159" lon="3.31691">
        <ele>613.28</ele>
        <time>2024-11-05T22:50:54.205Z</time>
      </trkpt>
      <trkpt lat="44.31155" lon="3.31693">
        <ele>612.41</ele>
        <time>2024-11-05T22:51:08.490Z</time>
      </trkpt>
      <trkpt lat="44.31137" lon="3.31697">
        <ele>611.44</ele>
        <time>2024-11-05T22:51:22.778Z</time>
      </trkpt>
      <trkpt lat="44.31129" lon="3.31698">
        <ele>610.62</ele>
        <time>2024-11-05T22:51:37.067Z</time>
      </trkpt>
      <trkpt lat="44.3112" lon="3.317">
        <ele>609.85</ele>
        <time>2024-11-05T22:51:51.358Z</time>
      </trkpt>
      <trkpt lat="44.3112" lon="3.317">
        <ele>609.1</ele>
        <time>2024-11-05T22:52:05.649Z</time>
      </trkpt>
      <trkpt lat="44.31107" lon="3.31697">
        <ele>608.3</ele>
        <time>2024-11-05T22:52:19.942Z</time>
      </trkpt>
      <trkpt lat="44.31098" lon="3.31694">
        <ele>607.58</ele>
        <time>2024-11-05T22:52:34.236Z</time>
      </trkpt>
      <trkpt lat="44.31067" lon="3.31686">
        <ele>606.77</ele>
        <time>2024-11-05T22:52:48.535Z</time>
      </trkpt>
      <trkpt lat="44.31066" lon="3.31686">
        <ele>606.12</ele>
        <time>2024-11-05T22:53:02.835Z</time>
      </trkpt>
      <trkpt lat="44.31053" lon="3.31687">
        <ele>605.41</ele>
        <time>2024-11-05T22:53:17.137Z</time>
      </trkpt>
      <trkpt lat="44.31042" lon="3.31695">
        <ele>604.78</ele>
        <time>2024-11-05T22:53:31.441Z</time>
      </trkpt>
      <trkpt lat="44.31041" lon="3.31695">
        <ele>604.23</ele>
        <time>2024-11-05T22:53:45.745Z</time>
      </trkpt>
      <trkpt lat="44.31033" lon="3.31696">
        <ele>603.65</ele>
        <time>2024-11-05T22:54:00.050Z</time>
      </trkpt>
      <trkpt lat="44.3103" lon="3.31697">
        <ele>603.14</ele>
        <time>2024-11-05T22:54:14.356Z</time>
      </trkpt>
      <trkpt lat="44.31027" lon="3.3169">
        <ele>602.58</ele>
        <time>2024-11-05T22:54:28.663Z</time>
      </trkpt>
      <trkpt lat="44.31028" lon="3.31681">
        <ele>602.14</ele>
        <time>2024-11-05T22:54:42.971Z</time>
      </trkpt>
      <trkpt lat="44.31036" lon="3.31675">
        <ele>601.81</ele>
        <time>2024-11-05T22:54:57.280Z</time>
      </trkpt>
      <trkpt lat="44.31051" lon="3.31672">
        <ele>601.53</ele>
        <time>2024-11-05T22:55:11.592Z</time>
      </trkpt>
      <trkpt lat="44.3106" lon="3.3167">
        <ele>601.23</ele>
        <time>2024-11-05T22:55:25.905Z</time>
      </trkpt>
      <trkpt lat="44.31065" lon="3.31669">
        <ele>600.9</ele>
        <time>2024-11-05T22:55:40.219Z</time>
      </trkpt>
      <trkpt lat="44.31069" lon="3.31668">
        <ele>600.59</ele>
        <time>2024-11-05T22:55:54.533Z</time>
      </trkpt>
      <trkpt lat="44.31073" lon="3.31667">
        <ele>600.29</ele>
        <time>2024-11-05T22:56:08.848Z</time>
      </trkpt>
      <trkpt lat="44.31078" lon="3.31666">
        <ele>600</ele>
        <time>2024-11-05T22:56:23.164Z</time>
      </trkpt>
      <trkpt lat="44.31082" lon="3.31665">
        <ele>599.71</ele>
        <time>2024-11-05T22:56:37.481Z</time>
      </trkpt>
      <trkpt lat="44.31088" lon="3.31664">
        <ele>599.44</ele>
        <time>2024-11-05T22:56:51.799Z</time>
      </trkpt>
      <trkpt lat="44.31095" lon="3.31665">
        <ele>599.2</ele>
        <time>2024-11-05T22:57:06.118Z</time>
      </trkpt>
      <trkpt lat="44.311" lon="3.31666">
        <ele>598.94</ele>
        <time>2024-11-05T22:57:20.437Z</time>
      </trkpt>
      <trkpt lat="44.31104" lon="3.31667">
        <ele>598.69</ele>
        <time>2024-11-05T22:57:34.757Z</time>
      </trkpt>
      <trkpt lat="44.31105" lon="3.31667">
        <ele>598.43</ele>
        <time>2024-11-05T22:57:49.077Z</time>
      </trkpt>
      <trkpt lat="44.31107" lon="3.31663">
        <ele>598.13</ele>
        <time>2024-11-05T22:58:03.398Z</time>
      </trkpt>
      <trkpt lat="44.31109" lon="3.31658">
        <ele>597.84</ele>
        <time>2024-11-05T22:58:17.720Z</time>
      </trkpt>
      <trkpt lat="44.3111" lon="3.31656">
        <ele>597.55</ele>
        <time>2024-11-05T22:58:32.042Z</time>
      </trkpt>
      <trkpt lat="44.31108" lon="3.31653">
        <ele>597.23</ele>
        <time>2024-11-05T22:58:46.364Z</time>
      </trkpt>
      <trkpt lat="44.31106" lon="3.3165">
        <ele>596.91</ele>
        <time>2024-11-05T22:59:00.687Z</time>
      </trkpt>
      <trkpt lat="44.31104" lon="3.3165">
        <ele>596.58</ele>
        <time>2024-11-05T22:59:15.010Z</time>
      </trkpt>
      <trkpt lat="44.31082" lon="3.31646">
        <ele>596.2</ele>
        <time>2024-11-05T22:59:29.337Z</time>
      </trkpt>
      <trkpt lat="44.31074" lon="3.31644">
        <ele>595.81</ele>
        <time>2024-11-05T22:59:43.665Z</time>
      </trkpt>
      <trkpt lat="44.31074" lon="3.31644">
        <ele>595.43</ele>
        <time>2024-11-05T22:59:57.993Z</time>
      </trkpt>
      <trkpt lat="44.3106" lon="3.31644">
        <ele>594.98</ele>
        <time>2024-11-05T23:00:12.323Z</time>
      </trkpt>
      <trkpt lat="44.31042" lon="3.31645">
        <ele>594.5</ele>
        <time>2024-11-05T23:00:26.656Z</time>
      </trkpt>
      <trkpt lat="44.31033" lon="3.31645">
        <ele>594.03</ele>
        <time>2024-11-05T23:00:40.990Z</time>
      </trkpt>
      <trkpt lat="44.31011" lon="3.31646">
        <ele>593.49</ele>
        <time>2024-11-05T23:00:55.328Z</time>
      </trkpt>
      <trkpt lat="44.31002" lon="3.31646">
        <ele>593</ele>
        <time>2024-11-05T23:01:09.667Z</time>
      </trkpt>
      <trkpt lat="44.30999" lon="3.31646">
        <ele>592.49</ele>
        <time>2024-11-05T23:01:24.007Z</time>
      </trkpt>
      <trkpt lat="44.30998" lon="3.31647">
        <ele>591.97</ele>
        <time>2024-11-05T23:01:38.347Z</time>
      </trkpt>
      <trkpt lat="44.30993" lon="3.31648">
        <ele>591.42</ele>
        <time>2024-11-05T23:01:52.688Z</time>
      </trkpt>
      <trkpt lat="44.30988" lon="3.3165">
        <ele>590.88</ele>
        <time>2024-11-05T23:02:07.030Z</time>
      </trkpt>
      <trkpt lat="44.30982" lon="3.31659">
        <ele>590.25</ele>
        <time>2024-11-05T23:02:21.373Z</time>
      </trkpt>
      <trkpt lat="44.30978" lon="3.31673">
        <ele>589.64</ele>
        <time>2024-11-05T23:02:35.718Z</time>
      </trkpt>
      <trkpt lat="44.30978" lon="3.31676">
        <ele>589</ele>
        <time>2024-11-05T23:02:50.063Z</time>
      </trkpt>
      <trkpt lat="44.30978" lon="3.31688">
        <ele>588.28</ele>
        <time>2024-11-05T23:03:04.410Z</time>
      </trkpt>
      <trkpt lat="44.30978" lon="3.31701">
        <ele>587.63</ele>
        <time>2024-11-05T23:03:18.758Z</time>
      </trkpt>
      <trkpt lat="44.30978" lon="3.31717">
        <ele>586.92</ele>
        <time>2024-11-05T23:03:33.108Z</time>
      </trkpt>
      <trkpt lat="44.30977" lon="3.31719">
        <ele>586.2</ele>
        <time>2024-11-05T23:03:47.458Z</time>
      </trkpt>
      <trkpt lat="44.30974" lon="3.31728">
        <ele>585.45</ele>
        <time>2024-11-05T23:04:01.809Z</time>
      </trkpt>
      <trkpt lat="44.3097" lon="3.31735">
        <ele>584.63</ele>
        <time>2024-11-05T23:04:16.161Z</time>
      </trkpt>
      <trkpt lat="44.30953" lon="3.31764">
        <ele>583.79</ele>
        <time>2024-11-05T23:04:30.518Z</time>
      </trkpt>
      <trkpt lat="44.30947" lon="3.31774">
        <ele>582.93</ele>
        <time>2024-11-05T23:04:44.876Z</time>
      </trkpt>
      <trkpt lat="44.30945" lon="3.31777">
        <ele>582.08</ele>
        <time>2024-11-05T23:04:59.235Z</time>
      </trkpt>
      <trkpt lat="44.30945" lon="3.31779">
        <ele>581.21</ele>
        <time>2024-11-05T23:05:13.594Z</time>
      </trkpt>
      <trkpt lat="44.30944" lon="3.31791">
        <ele>580.29</ele>
        <time>2024-11-05T23:05:27.954Z</time>
      </trkpt>
      <trkpt lat="44.30944" lon="3.31792">
        <ele>579.36</ele>
        <time>2024-11-05T23:05:42.314Z</time>
      </trkpt>
      <trkpt lat="44.30946" lon="3.31804">
        <ele>578.42</ele>
        <time>2024-11-05T23:05:56.676Z</time>
      </trkpt>
      <trkpt lat="44.30947" lon="3.31816">
        <ele>577.46</ele>
        <time>2024-11-05T23:06:11.039Z</time>
      </trkpt>
      <trkpt lat="44.30949" lon="3.31828">
        <ele>576.45</ele>
        <time>2024-11-05T23:06:25.404Z</time>
      </trkpt>
      <trkpt lat="44.30947" lon="3.31847">
        <ele>575.41</ele>
        <time>2024-11-05T23:06:39.771Z</time>
      </trkpt>
      <trkpt lat="44.30947" lon="3.31851">
        <ele>574.35</ele>
        <time>2024-11-05T23:06:54.138Z</time>
      </trkpt>
      <trkpt lat="44.30944" lon="3.31859">
        <ele>573.25</ele>
        <time>2024-11-05T23:07:08.506Z</time>
      </trkpt>
      <trkpt lat="44.30939" lon="3.31876">
        <ele>572.09</ele>
        <time>2024-11-05T23:07:22.876Z</time>
      </trkpt>
      <trkpt lat="44.30932" lon="3.31895">
        <ele>570.94</ele>
        <time>2024-11-05T23:07:37.249Z</time>
      </trkpt>
      <trkpt lat="44.30922" lon="3.31913">
        <ele>569.71</ele>
        <time>2024-11-05T23:07:51.624Z</time>
      </trkpt>
      <trkpt lat="44.30918" lon="3.31919">
        <ele>568.61</ele>
        <time>2024-11-05T23:08:06.000Z</time>
      </trkpt>
      <trkpt lat="44.30904" lon="3.31931">
        <ele>567.46</ele>
        <time>2024-11-05T23:08:20.379Z</time>
      </trkpt>
      <trkpt lat="44.30899" lon="3.31932">
        <ele>566.26</ele>
        <time>2024-11-05T23:08:34.759Z</time>
      </trkpt>
      <trkpt lat="44.3089" lon="3.31934">
        <ele>565.01</ele>
        <time>2024-11-05T23:08:49.140Z</time>
      </trkpt>
      <trkpt lat="44.30889" lon="3.31934">
        <ele>563.81</ele>
        <time>2024-11-05T23:09:03.521Z</time>
      </trkpt>
      <trkpt lat="44.30881" lon="3.31934">
        <ele>562.55</ele>
        <time>2024-11-05T23:09:17.904Z</time>
      </trkpt>
      <trkpt lat="44.3085" lon="3.31935">
        <ele>561.16</ele>
        <time>2024-11-05T23:09:32.292Z</time>
      </trkpt>
      <trkpt lat="44.30849" lon="3.31935">
        <ele>559.95</ele>
        <time>2024-11-05T23:09:46.680Z</time>
      </trkpt>
      <trkpt lat="44.30837" lon="3.3193">
        <ele>558.68</ele>
        <time>2024-11-05T23:10:01.070Z</time>
      </trkpt>
      <trkpt lat="44.30832" lon="3.31928">
        <ele>557.43</ele>
        <time>2024-11-05T23:10:15.461Z</time>
      </trkpt>
      <trkpt lat="44.3082" lon="3.31914">
        <ele>556.1</ele>
        <time>2024-11-05T23:10:29.854Z</time>
      </trkpt>
      <trkpt lat="44.30819" lon="3.31912">
        <ele>554.87</ele>
        <time>2024-11-05T23:10:44.247Z</time>
      </trkpt>
      <trkpt lat="44.30806" lon="3.31892">
        <ele>553.58</ele>
        <time>2024-11-05T23:10:58.644Z</time>
      </trkpt>
      <trkpt lat="44.30803" lon="3.31891">
        <ele>552.36</ele>
        <time>2024-11-05T23:11:13.041Z</time>
      </trkpt>
      <trkpt lat="44.30785" lon="3.31887">
        <ele>550.99</ele>
        <time>2024-11-05T23:11:27.441Z</time>
      </trkpt>
      <trkpt lat="44.30779" lon="3.31885">
        <ele>549.72</ele>
        <time>2024-11-05T23:11:41.842Z</time>
      </trkpt>
      <trkpt lat="44.30777" lon="3.31885">
        <ele>548.51</ele>
        <time>2024-11-05T23:11:56.243Z</time>
      </trkpt>
      <trkpt lat="44.30768" lon="3.31884">
        <ele>547.29</ele>
        <time>2024-11-05T23:12:10.646Z</time>
      </trkpt>
      <trkpt lat="44.30753" lon="3.31883">
        <ele>546.14</ele>
        <time>2024-11-05T23:12:25.051Z</time>
      </trkpt>
      <trkpt lat="44.30741" lon="3.31888">
        <ele>544.98</ele>
        <time>2024-11-05T23:12:39.458Z</time>
      </trkpt>
      <trkpt lat="44.30737" lon="3.31889">
        <ele>543.82</ele>
        <time>2024-11-05T23:12:53.866Z</time>
      </trkpt>
      <trkpt lat="44.30728" lon="3.31893">
        <ele>542.66</ele>
        <time>2024-11-05T23:13:08.275Z</time>
      </trkpt>
      <trkpt lat="44.30724" lon="3.31895">
        <ele>541.51</ele>
        <time>2024-11-05T23:13:22.685Z</time>
      </trkpt>
      <trkpt lat="44.3072" lon="3.31896">
        <ele>540.37</ele>
        <time>2024-11-05T23:13:37.096Z</time>
      </trkpt>
      <trkpt lat="44.30719" lon="3.31896">
        <ele>539.26</ele>
        <time>2024-11-05T23:13:51.507Z</time>
      </trkpt>
      <trkpt lat="44.30715" lon="3.31897">
        <ele>538.14</ele>
        <time>2024-11-05T23:14:05.918Z</time>
      </trkpt>
      <trkpt lat="44.30706" lon="3.31898">
        <ele>537.02</ele>
        <time>2024-11-05T23:14:20.331Z</time>
      </trkpt>
      <trkpt lat="44.30693" lon="3.31901">
        <ele>535.87</ele>
        <time>2024-11-05T23:14:34.746Z</time>
      </trkpt>
      <trkpt lat="44.30685" lon="3.31902">
        <ele>534.75</ele>
        <time>2024-11-05T23:14:49.162Z</time>
      </trkpt>
      <trkpt lat="44.3067" lon="3.31911">
        <ele>533.53</ele>
        <time>2024-11-05T23:15:03.581Z</time>
      </trkpt>
      <trkpt lat="44.30667" lon="3.31911">
        <ele>532.45</ele>
        <time>2024-11-05T23:15:18.000Z</time>
      </trkpt>
      <trkpt lat="44.30661" lon="3.31911">
        <ele>531.35</ele>
        <time>2024-11-05T23:15:32.420Z</time>
      </trkpt>
      <trkpt lat="44.30658" lon="3.3191">
        <ele>530.29</ele>
        <time>2024-11-05T23:15:46.841Z</time>
      </trkpt>
      <trkpt lat="44.30654" lon="3.31908">
        <ele>529.23</ele>
        <time>2024-11-05T23:16:01.262Z</time>
      </trkpt>
      <trkpt lat="44.3065" lon="3.31905">
        <ele>528.18</ele>
        <time>2024-11-05T23:16:15.684Z</time>
      </trkpt>
      <trkpt lat="44.30641" lon="3.31901">
        <ele>527.11</ele>
        <time>2024-11-05T23:16:30.108Z</time>
      </trkpt>
      <trkpt lat="44.30637" lon="3.31902">
        <ele>526.03</ele>
        <time>2024-11-05T23:16:44.532Z</time>
      </trkpt>
      <trkpt lat="44.30633" lon="3.31903">
        <ele>524.95</ele>
        <time>2024-11-05T23:16:58.957Z</time>
      </trkpt>
      <trkpt lat="44.30629" lon="3.31907">
        <ele>523.88</ele>
        <time>2024-11-05T23:17:13.383Z</time>
      </trkpt>
      <trkpt lat="44.30625" lon="3.31912">
        <ele>522.79</ele>
        <time>2024-11-05T23:17:27.810Z</time>
      </trkpt>
      <trkpt lat="44.30622" lon="3.31921">
        <ele>521.72</ele>
        <time>2024-11-05T23:17:42.238Z</time>
      </trkpt>
      <trkpt lat="44.30621" lon="3.3193">
        <ele>520.62</ele>
        <time>2024-11-05T23:17:56.667Z</time>
      </trkpt>
      <trkpt lat="44.30624" lon="3.31941">
        <ele>519.49</ele>
        <time>2024-11-05T23:18:11.097Z</time>
      </trkpt>
      <trkpt lat="44.30625" lon="3.31947">
        <ele>518.41</ele>
        <time>2024-11-05T23:18:25.528Z</time>
      </trkpt>
      <trkpt lat="44.30627" lon="3.31953">
        <ele>517.32</ele>
        <time>2024-11-05T23:18:39.960Z</time>
      </trkpt>
      <trkpt lat="44.30626" lon="3.31959">
        <ele>516.22</ele>
        <time>2024-11-05T23:18:54.392Z</time>
      </trkpt>
      <trkpt lat="44.30626" lon="3.31961">
        <ele>515.08</ele>
        <time>2024-11-05T23:19:08.825Z</time>
      </trkpt>
      <trkpt lat="44.30624" lon="3.31964">
        <ele>513.92</ele>
        <time>2024-11-05T23:19:23.258Z</time>
      </trkpt>
      <trkpt lat="44.30621" lon="3.31968">
        <ele>512.74</ele>
        <time>2024-11-05T23:19:37.692Z</time>
      </trkpt>
      <trkpt lat="44.30613" lon="3.31974">
        <ele>511.54</ele>
        <time>2024-11-05T23:19:52.127Z</time>
      </trkpt>
      <trkpt lat="44.30607" lon="3.31978">
        <ele>510.29</ele>
        <time>2024-11-05T23:20:06.563Z</time>
      </trkpt>
      <trkpt lat="44.30605" lon="3.3198">
        <ele>509.06</ele>
        <time>2024-11-05T23:20:21.000Z</time>
      </trkpt>
      <trkpt lat="44.30599" lon="3.3199">
        <ele>507.79</ele>
        <time>2024-11-05T23:20:35.438Z</time>
      </trkpt>
      <trkpt lat="44.30594" lon="3.31998">
        <ele>506.47</ele>
        <time>2024-11-05T23:20:49.877Z</time>
      </trkpt>
      <trkpt lat="44.30593" lon="3.31999">
        <ele>505.18</ele>
        <time>2024-11-05T23:21:04.316Z</time>
      </trkpt>
      <trkpt lat="44.30585" lon="3.32004">
        <ele>503.82</ele>
        <time>2024-11-05T23:21:18.757Z</time>
      </trkpt>
      <trkpt lat="44.30581" lon="3.32006">
        <ele>502.46</ele>
        <time>2024-11-05T23:21:33.199Z</time>
      </trkpt>
      <trkpt lat="44.30576" lon="3.32008">
        <ele>501.07</ele>
        <time>2024-11-05T23:21:47.641Z</time>
      </trkpt>
      <trkpt lat="44.30572" lon="3.3201">
        <ele>499.66</ele>
        <time>2024-11-05T23:22:02.084Z</time>
      </trkpt>
      <trkpt lat="44.30564" lon="3.32013">
        <ele>498.18</ele>
        <time>2024-11-05T23:22:16.528Z</time>
      </trkpt>
      <trkpt lat="44.30559" lon="3.32015">
        <ele>496.75</ele>
        <time>2024-11-05T23:22:30.973Z</time>
      </trkpt>
      <trkpt lat="44.30549" lon="3.32017">
        <ele>495.25</ele>
        <time>2024-11-05T23:22:45.420Z</time>
      </trkpt>
      <trkpt lat="44.30537" lon="3.32017">
        <ele>493.76</ele>
        <time>2024-11-05T23:22:59.869Z</time>
      </trkpt>
      <trkpt lat="44.30503" lon="3.32016">
        <ele>492.19</ele>
        <time>2024-11-05T23:23:14.323Z</time>
      </trkpt>
      <trkpt lat="44.30501" lon="3.32017">
        <ele>490.75</ele>
        <time>2024-11-05T23:23:28.778Z</time>
      </trkpt>
      <trkpt lat="44.3049" lon="3.32021">
        <ele>489.28</ele>
        <time>2024-11-05T23:23:43.234Z</time>
      </trkpt>
      <trkpt lat="44.30478" lon="3.32025">
        <ele>487.79</ele>
        <time>2024-11-05T23:23:57.692Z</time>
      </trkpt>
      <trkpt lat="44.30448" lon="3.32035">
        <ele>486.22</ele>
        <time>2024-11-05T23:24:12.155Z</time>
      </trkpt>
      <trkpt lat="44.30441" lon="3.32038">
        <ele>484.75</ele>
        <time>2024-11-05T23:24:26.619Z</time>
      </trkpt>
      <trkpt lat="44.30426" lon="3.32038">
        <ele>483.24</ele>
        <time>2024-11-05T23:24:41.086Z</time>
      </trkpt>
      <trkpt lat="44.30421" lon="3.32038">
        <ele>481.78</ele>
        <time>2024-11-05T23:24:55.554Z</time>
      </trkpt>
      <trkpt lat="44.30414" lon="3.32039">
        <ele>480.32</ele>
        <time>2024-11-05T23:25:10.023Z</time>
      </trkpt>
      <trkpt lat="44.30411" lon="3.32039">
        <ele>478.88</ele>
        <time>2024-11-05T23:25:24.492Z</time>
      </trkpt>
      <trkpt lat="44.30406" lon="3.32035">
        <ele>477.41</ele>
        <time>2024-11-05T23:25:38.962Z</time>
      </trkpt>
      <trkpt lat="44.30393" lon="3.32027">
        <ele>475.91</ele>
        <time>2024-11-05T23:25:53.434Z</time>
      </trkpt>
      <trkpt lat="44.30379" lon="3.32014">
        <ele>474.41</ele>
        <time>2024-11-05T23:26:07.909Z</time>
      </trkpt>
      <trkpt lat="44.30368" lon="3.32003">
        <ele>472.96</ele>
        <time>2024-11-05T23:26:22.386Z</time>
      </trkpt>
      <trkpt lat="44.30348" lon="3.31991">
        <ele>471.55</ele>
        <time>2024-11-05T23:26:36.867Z</time>
      </trkpt>
      <trkpt lat="44.30335" lon="3.31983">
        <ele>470.19</ele>
        <time>2024-11-05T23:26:51.350Z</time>
      </trkpt>
      <trkpt lat="44.30332" lon="3.31982">
        <ele>468.86</ele>
        <time>2024-11-05T23:27:05.834Z</time>
      </trkpt>
      <trkpt lat="44.30327" lon="3.3198">
        <ele>467.54</ele>
        <time>2024-11-05T23:27:20.318Z</time>
      </trkpt>
      <trkpt lat="44.30311" lon="3.31977">
        <ele>466.29</ele>
        <time>2024-11-05T23:27:34.805Z</time>
      </trkpt>
      <trkpt lat="44.30308" lon="3.31977">
        <ele>465.03</ele>
        <time>2024-11-05T23:27:49.292Z</time>
      </trkpt>
      <trkpt lat="44.30281" lon="3.31982">
        <ele>463.73</ele>
        <time>2024-11-05T23:28:03.784Z</time>
      </trkpt>
      <trkpt lat="44.30276" lon="3.31985">
        <ele>462.49</ele>
        <time>2024-11-05T23:28:18.277Z</time>
      </trkpt>
      <trkpt lat="44.30268" lon="3.31989">
        <ele>461.28</ele>
        <time>2024-11-05T23:28:32.771Z</time>
      </trkpt>
      <trkpt lat="44.30251" lon="3.31998">
        <ele>460</ele>
        <time>2024-11-05T23:28:47.268Z</time>
      </trkpt>
      <trkpt lat="44.30239" lon="3.32005">
        <ele>458.86</ele>
        <time>2024-11-05T23:29:01.767Z</time>
      </trkpt>
      <trkpt lat="44.30233" lon="3.32008">
        <ele>457.78</ele>
        <time>2024-11-05T23:29:16.267Z</time>
      </trkpt>
      <trkpt lat="44.30226" lon="3.3201">
        <ele>456.73</ele>
        <time>2024-11-05T23:29:30.768Z</time>
      </trkpt>
      <trkpt lat="44.30219" lon="3.32012">
        <ele>455.71</ele>
        <time>2024-11-05T23:29:45.270Z</time>
      </trkpt>
      <trkpt lat="44.30196" lon="3.32016">
        <ele>454.71</ele>
        <time>2024-11-05T23:29:59.776Z</time>
      </trkpt>
      <trkpt lat="44.30191" lon="3.32017">
        <ele>453.81</ele>
        <time>2024-11-05T23:30:14.283Z</time>
      </trkpt>
      <trkpt lat="44.30187" lon="3.32018">
        <ele>452.96</ele>
        <time>2024-11-05T23:30:28.790Z</time>
      </trkpt>
      <trkpt lat="44.30179" lon="3.32019">
        <ele>452.13</ele>
        <time>2024-11-05T23:30:43.299Z</time>
      </trkpt>
      <trkpt lat="44.3017" lon="3.3202">
        <ele>451.35</ele>
        <time>2024-11-05T23:30:57.809Z</time>
      </trkpt>
      <trkpt lat="44.30148" lon="3.32022">
        <ele>450.57</ele>
        <time>2024-11-05T23:31:12.323Z</time>
      </trkpt>
      <trkpt lat="44.30136" lon="3.32024">
        <ele>449.88</ele>
        <time>2024-11-05T23:31:26.839Z</time>
      </trkpt>
      <trkpt lat="44.30131" lon="3.32024">
        <ele>449.29</ele>
        <time>2024-11-05T23:31:41.355Z</time>
      </trkpt>
      <trkpt lat="44.30123" lon="3.32028">
        <ele>448.73</ele>
        <time>2024-11-05T23:31:55.873Z</time>
      </trkpt>
      <trkpt lat="44.30118" lon="3.3203">
        <ele>448.26</ele>
        <time>2024-11-05T23:32:10.392Z</time>
      </trkpt>
      <trkpt lat="44.30114" lon="3.32032">
        <ele>447.84</ele>
        <time>2024-11-05T23:32:24.911Z</time>
      </trkpt>
      <trkpt lat="44.30106" lon="3.32035">
        <ele>447.46</ele>
        <time>2024-11-05T23:32:39.432Z</time>
      </trkpt>
      <trkpt lat="44.30093" lon="3.32041">
        <ele>447.15</ele>
        <time>2024-11-05T23:32:53.955Z</time>
      </trkpt>
      <trkpt lat="44.30088" lon="3.32043">
        <ele>446.92</ele>
        <time>2024-11-05T23:33:08.479Z</time>
      </trkpt>
      <trkpt lat="44.30081" lon="3.32048">
        <ele>446.73</ele>
        <time>2024-11-05T23:33:23.004Z</time>
      </trkpt>
      <trkpt lat="44.30073" lon="3.32054">
        <ele>446.61</ele>
        <time>2024-11-05T23:33:37.530Z</time>
      </trkpt>
      <trkpt lat="44.30049" lon="3.32071">
        <ele>446.53</ele>
        <time>2024-11-05T23:33:52.061Z</time>
      </trkpt>
      <trkpt lat="44.30021" lon="3.3209">
        <ele>446.8</ele>
        <time>2024-11-05T23:34:06.597Z</time>
      </trkpt>
      <trkpt lat="44.30017" lon="3.32093">
        <ele>446.95</ele>
        <time>2024-11-05T23:34:21.133Z</time>
      </trkpt>
      <trkpt lat="44.30016" lon="3.32094">
        <ele>447.1</ele>
        <time>2024-11-05T23:34:35.670Z</time>
      </trkpt>
      <trkpt lat="44.30013" lon="3.32099">
        <ele>447.38</ele>
        <time>2024-11-05T23:34:50.207Z</time>
      </trkpt>
      <trkpt lat="44.30013" lon="3.3211">
        <ele>447.72</ele>
        <time>2024-11-05T23:35:04.746Z</time>
      </trkpt>
      <trkpt lat="44.30016" lon="3.32123">
        <ele>448.06</ele>
        <time>2024-11-05T23:35:19.286Z</time>
      </trkpt>
      <trkpt lat="44.30018" lon="3.3213">
        <ele>448.42</ele>
        <time>2024-11-05T23:35:33.827Z</time>
      </trkpt>
      <trkpt lat="44.3002" lon="3.32134">
        <ele>448.8</ele>
        <time>2024-11-05T23:35:48.369Z</time>
      </trkpt>
      <trkpt lat="44.30022" lon="3.32139">
        <ele>449.21</ele>
        <time>2024-11-05T23:36:02.911Z</time>
      </trkpt>
      <trkpt lat="44.30026" lon="3.3215">
        <ele>449.65</ele>
        <time>2024-11-05T23:36:17.455Z</time>
      </trkpt>
      <trkpt lat="44.30037" lon="3.32177">
        <ele>450.06</ele>
        <time>2024-11-05T23:36:32.002Z</time>
      </trkpt>
      <trkpt lat="44.30042" lon="3.32188">
        <ele>450.57</ele>
        <time>2024-11-05T23:36:46.551Z</time>
      </trkpt>
      <trkpt lat="44.30044" lon="3.32194">
        <ele>451.13</ele>
        <time>2024-11-05T23:37:01.100Z</time>
      </trkpt>
      <trkpt lat="44.30046" lon="3.32199">
        <ele>451.74</ele>
        <time>2024-11-05T23:37:15.650Z</time>
      </trkpt>
      <trkpt lat="44.30048" lon="3.32204">
        <ele>452.37</ele>
        <time>2024-11-05T23:37:30.201Z</time>
      </trkpt>
      <trkpt lat="44.3005" lon="3.3221">
        <ele>453.04</ele>
        <time>2024-11-05T23:37:44.753Z</time>
      </trkpt>
      <trkpt lat="44.30061" lon="3.32237">
        <ele>453.75</ele>
        <time>2024-11-05T23:37:59.308Z</time>
      </trkpt>
      <trkpt lat="44.30072" lon="3.32263">
        <ele>454.53</ele>
        <time>2024-11-05T23:38:13.867Z</time>
      </trkpt>
      <trkpt lat="44.30083" lon="3.32291">
        <ele>455.36</ele>
        <time>2024-11-05T23:38:28.429Z</time>
      </trkpt>
      <trkpt lat="44.30084" lon="3.32302">
        <ele>456.26</ele>
        <time>2024-11-05T23:38:42.993Z</time>
      </trkpt>
      <trkpt lat="44.30087" lon="3.32323">
        <ele>457.45</ele>
        <time>2024-11-05T23:38:57.559Z</time>
      </trkpt>
      <trkpt lat="44.30088" lon="3.32326">
        <ele>458.35</ele>
        <time>2024-11-05T23:39:12.125Z</time>
      </trkpt>
      <trkpt lat="44.30092" lon="3.32338">
        <ele>459.31</ele>
        <time>2024-11-05T23:39:26.693Z</time>
      </trkpt>
      <trkpt lat="44.30091" lon="3.32343">
        <ele>460.31</ele>
        <time>2024-11-05T23:39:41.262Z</time>
      </trkpt>
      <trkpt lat="44.3009" lon="3.32345">
        <ele>461.26</ele>
        <time>2024-11-05T23:39:55.831Z</time>
      </trkpt>
      <trkpt lat="44.30087" lon="3.32344">
        <ele>462.24</ele>
        <time>2024-11-05T23:40:10.400Z</time>
      </trkpt>
      <trkpt lat="44.30085" lon="3.32344">
        <ele>463.21</ele>
        <time>2024-11-05T23:40:24.970Z</time>
      </trkpt>
      <trkpt lat="44.30083" lon="3.32341">
        <ele>464.16</ele>
        <time>2024-11-05T23:40:39.540Z</time>
      </trkpt>
      <trkpt lat="44.30082" lon="3.32336">
        <ele>465.05</ele>
        <time>2024-11-05T23:40:54.111Z</time>
      </trkpt>
      <trkpt lat="44.30077" lon="3.32313">
        <ele>465.68</ele>
        <time>2024-11-05T23:41:08.684Z</time>
      </trkpt>
      <trkpt lat="44.30077" lon="3.32312">
        <ele>466.65</ele>
        <time>2024-11-05T23:41:23.258Z</time>
      </trkpt>
      <trkpt lat="44.30063" lon="3.32281">
        <ele>467.52</ele>
        <time>2024-11-05T23:41:37.836Z</time>
      </trkpt>
      <trkpt lat="44.3006" lon="3.32276">
        <ele>468.52</ele>
        <time>2024-11-05T23:41:52.415Z</time>
      </trkpt>
      <trkpt lat="44.30056" lon="3.32265">
        <ele>469.52</ele>
        <time>2024-11-05T23:42:06.995Z</time>
      </trkpt>
      <trkpt lat="44.30051" lon="3.32255">
        <ele>470.53</ele>
        <time>2024-11-05T23:42:21.576Z</time>
      </trkpt>
      <trkpt lat="44.30046" lon="3.32244">
        <ele>471.57</ele>
        <time>2024-11-05T23:42:36.159Z</time>
      </trkpt>
      <trkpt lat="44.30041" lon="3.32234">
        <ele>472.64</ele>
        <time>2024-11-05T23:42:50.743Z</time>
      </trkpt>
      <trkpt lat="44.30038" lon="3.32226">
        <ele>473.72</ele>
        <time>2024-11-05T23:43:05.328Z</time>
      </trkpt>
      <trkpt lat="44.30036" lon="3.32225">
        <ele>474.83</ele>
        <time>2024-11-05T23:43:19.914Z</time>
      </trkpt>
      <trkpt lat="44.30035" lon="3.32224">
        <ele>475.92</ele>
        <time>2024-11-05T23:43:34.500Z</time>
      </trkpt>
      <trkpt lat="44.30032" lon="3.32225">
        <ele>477.09</ele>
        <time>2024-11-05T23:43:49.086Z</time>
      </trkpt>
      <trkpt lat="44.30032" lon="3.3223">
        <ele>478.22</ele>
        <time>2024-11-05T23:44:03.673Z</time>
      </trkpt>
      <trkpt lat="44.30035" lon="3.32237">
        <ele>479.31</ele>
        <time>2024-11-05T23:44:18.261Z</time>
      </trkpt>
      <trkpt lat="44.30038" lon="3.32249">
        <ele>480.41</ele>
        <time>2024-11-05T23:44:32.850Z</time>
      </trkpt>
      <trkpt lat="44.3004" lon="3.32254">
        <ele>481.51</ele>
        <time>2024-11-05T23:44:47.440Z</time>
      </trkpt>
      <trkpt lat="44.30044" lon="3.32266">
        <ele>482.63</ele>
        <time>2024-11-05T23:45:02.031Z</time>
      </trkpt>
      <trkpt lat="44.30053" lon="3.32291">
        <ele>483.8</ele>
        <time>2024-11-05T23:45:16.626Z</time>
      </trkpt>
      <trkpt lat="44.30053" lon="3.32294">
        <ele>484.93</ele>
        <time>2024-11-05T23:45:31.221Z</time>
      </trkpt>
      <trkpt lat="44.30053" lon="3.32302">
        <ele>486.13</ele>
        <time>2024-11-05T23:45:45.817Z</time>
      </trkpt>
      <trkpt lat="44.30052" lon="3.32306">
        <ele>487.28</ele>
        <time>2024-11-05T23:46:00.413Z</time>
      </trkpt>
      <trkpt lat="44.30049" lon="3.32321">
        <ele>488.6</ele>
        <time>2024-11-05T23:46:15.011Z</time>
      </trkpt>
      <trkpt lat="44.3005" lon="3.32337">
        <ele>489.79</ele>
        <time>2024-11-05T23:46:29.611Z</time>
      </trkpt>
      <trkpt lat="44.3005" lon="3.3234">
        <ele>490.84</ele>
        <time>2024-11-05T23:46:44.211Z</time>
      </trkpt>
      <trkpt lat="44.30053" lon="3.32355">
        <ele>491.92</ele>
        <time>2024-11-05T23:46:58.813Z</time>
      </trkpt>
      <trkpt lat="44.30054" lon="3.32358">
        <ele>492.91</ele>
        <time>2024-11-05T23:47:13.415Z</time>
      </trkpt>
      <trkpt lat="44.30054" lon="3.32365">
        <ele>493.93</ele>
        <time>2024-11-05T23:47:28.018Z</time>
      </trkpt>
      <trkpt lat="44.30053" lon="3.32367">
        <ele>494.88</ele>
        <time>2024-11-05T23:47:42.622Z</time>
      </trkpt>
      <trkpt lat="44.30052" lon="3.32368">
        <ele>495.79</ele>
        <time>2024-11-05T23:47:57.226Z</time>
      </trkpt>
      <trkpt lat="44.30048" lon="3.32368">
        <ele>496.7</ele>
        <time>2024-11-05T23:48:11.830Z</time>
      </trkpt>
      <trkpt lat="44.30041" lon="3.32355">
        <ele>497.5</ele>
        <time>2024-11-05T23:48:26.436Z</time>
      </trkpt>
      <trkpt lat="44.3004" lon="3.32347">
        <ele>498.31</ele>
        <time>2024-11-05T23:48:41.043Z</time>
      </trkpt>
      <trkpt lat="44.30038" lon="3.32335">
        <ele>499.02</ele>
        <time>2024-11-05T23:48:55.652Z</time>
      </trkpt>
      <trkpt lat="44.30038" lon="3.32332">
        <ele>499.77</ele>
        <time>2024-11-05T23:49:10.261Z</time>
      </trkpt>
      <trkpt lat="44.30039" lon="3.32329">
        <ele>500.48</ele>
        <time>2024-11-05T23:49:24.870Z</time>
      </trkpt>
      <trkpt lat="44.30041" lon="3.32311">
        <ele>500.98</ele>
        <time>2024-11-05T23:49:39.481Z</time>
      </trkpt>
      <trkpt lat="44.30041" lon="3.32311">
        <ele>501.68</ele>
        <time>2024-11-05T23:49:54.092Z</time>
      </trkpt>
      <trkpt lat="44.3004" lon="3.32305">
        <ele>502.29</ele>
        <time>2024-11-05T23:50:08.704Z</time>
      </trkpt>
      <trkpt lat="44.30038" lon="3.32305">
        <ele>502.99</ele>
        <time>2024-11-05T23:50:23.316Z</time>
      </trkpt>
      <trkpt lat="44.30035" lon="3.32308">
        <ele>503.73</ele>
        <time>2024-11-05T23:50:37.929Z</time>
      </trkpt>
      <trkpt lat="44.30032" lon="3.32331">
        <ele>504.57</ele>
        <time>2024-11-05T23:50:52.545Z</time>
      </trkpt>
      <trkpt lat="44.30029" lon="3.32358">
        <ele>505.34</ele>
        <time>2024-11-05T23:51:07.164Z</time>
      </trkpt>
      <trkpt lat="44.30036" lon="3.3238">
        <ele>506.01</ele>
        <time>2024-11-05T23:51:21.786Z</time>
      </trkpt>
      <trkpt lat="44.30041" lon="3.32386">
        <ele>506.58</ele>
        <time>2024-11-05T23:51:36.409Z</time>
      </trkpt>
      <trkpt lat="44.30047" lon="3.3239">
        <ele>507.13</ele>
        <time>2024-11-05T23:51:51.033Z</time>
      </trkpt>
      <trkpt lat="44.30055" lon="3.32389">
        <ele>507.61</ele>
        <time>2024-11-05T23:52:05.658Z</time>
      </trkpt>
      <trkpt lat="44.30059" lon="3.32388">
        <ele>508.08</ele>
        <time>2024-11-05T23:52:20.284Z</time>
      </trkpt>
      <trkpt lat="44.30067" lon="3.32387">
        <ele>508.51</ele>
        <time>2024-11-05T23:52:34.911Z</time>
      </trkpt>
      <trkpt lat="44.30068" lon="3.32388">
        <ele>509</ele>
        <time>2024-11-05T23:52:49.538Z</time>
      </trkpt>
      <trkpt lat="44.30077" lon="3.32392">
        <ele>509.49</ele>
        <time>2024-11-05T23:53:04.167Z</time>
      </trkpt>
      <trkpt lat="44.30085" lon="3.32396">
        <ele>509.89</ele>
        <time>2024-11-05T23:53:18.797Z</time>
      </trkpt>
      <trkpt lat="44.30092" lon="3.32397">
        <ele>510.25</ele>
        <time>2024-11-05T23:53:33.428Z</time>
      </trkpt>
      <trkpt lat="44.30097" lon="3.32401">
        <ele>510.7</ele>
        <time>2024-11-05T23:53:48.060Z</time>
      </trkpt>
      <trkpt lat="44.30097" lon="3.32402">
        <ele>511.17</ele>
        <time>2024-11-05T23:54:02.692Z</time>
      </trkpt>
      <trkpt lat="44.30098" lon="3.32406">
        <ele>511.71</ele>
        <time>2024-11-05T23:54:17.325Z</time>
      </trkpt>
      <trkpt lat="44.30095" lon="3.3241">
        <ele>512.3</ele>
        <time>2024-11-05T23:54:31.958Z</time>
      </trkpt>
      <trkpt lat="44.30094" lon="3.3241">
        <ele>512.8</ele>
        <time>2024-11-05T23:54:46.592Z</time>
      </trkpt>
      <trkpt lat="44.30085" lon="3.32407">
        <ele>513.39</ele>
        <time>2024-11-05T23:55:01.227Z</time>
      </trkpt>
      <trkpt lat="44.30076" lon="3.32404">
        <ele>513.98</ele>
        <time>2024-11-05T23:55:15.863Z</time>
      </trkpt>
      <trkpt lat="44.30072" lon="3.32403">
        <ele>514.48</ele>
        <time>2024-11-05T23:55:30.500Z</time>
      </trkpt>
      <trkpt lat="44.30067" lon="3.32403">
        <ele>515</ele>
        <time>2024-11-05T23:55:45.138Z</time>
      </trkpt>
      <trkpt lat="44.3006" lon="3.32402">
        <ele>515.51</ele>
        <time>2024-11-05T23:55:59.777Z</time>
      </trkpt>
      <trkpt lat="44.30059" lon="3.32403">
        <ele>516.01</ele>
        <time>2024-11-05T23:56:14.416Z</time>
      </trkpt>
      <trkpt lat="44.30052" lon="3.32405">
        <ele>516.56</ele>
        <time>2024-11-05T23:56:29.056Z</time>
      </trkpt>
      <trkpt lat="44.3005" lon="3.32406">
        <ele>517.08</ele>
        <time>2024-11-05T23:56:43.697Z</time>
      </trkpt>
      <trkpt lat="44.3004" lon="3.32414">
        <ele>517.74</ele>
        <time>2024-11-05T23:56:58.340Z</time>
      </trkpt>
      <trkpt lat="44.30033" lon="3.32417">
        <ele>518.35</ele>
        <time>2024-11-05T23:57:12.984Z</time>
      </trkpt>
      <trkpt lat="44.30021" lon="3.32416">
        <ele>518.92</ele>
        <time>2024-11-05T23:57:27.630Z</time>
      </trkpt>
      <trkpt lat="44.30014" lon="3.32416">
        <ele>519.45</ele>
        <time>2024-11-05T23:57:42.277Z</time>
      </trkpt>
      <trkpt lat="44.30012" lon="3.32415">
        <ele>519.96</ele>
        <time>2024-11-05T23:57:56.924Z</time>
      </trkpt>
      <trkpt lat="44.30007" lon="3.32413">
        <ele>520.46</ele>
        <time>2024-11-05T23:58:11.572Z</time>
      </trkpt>
      <trkpt lat="44.29988" lon="3.32399">
        <ele>520.96</ele>
        <time>2024-11-05T23:58:26.223Z</time>
      </trkpt>
      <trkpt lat="44.29986" lon="3.32397">
        <ele>521.5</ele>
        <time>2024-11-05T23:58:40.875Z</time>
      </trkpt>
      <trkpt lat="44.29979" lon="3.32386">
        <ele>522</ele>
        <time>2024-11-05T23:58:55.528Z</time>
      </trkpt>
      <trkpt lat="44.29975" lon="3.32376">
        <ele>522.57</ele>
        <time>2024-11-05T23:59:10.183Z</time>
      </trkpt>
      <trkpt lat="44.29973" lon="3.32364">
        <ele>523.15</ele>
        <time>2024-11-05T23:59:24.839Z</time>
      </trkpt>
      <trkpt lat="44.29978" lon="3.32339">
        <ele>523.71</ele>
        <time>2024-11-05T23:59:39.498Z</time>
      </trkpt>
      <trkpt lat="44.29987" lon="3.32324">
        <ele>524.17</ele>
        <time>2024-11-05T23:59:54.159Z</time>
      </trkpt>
      <trkpt lat="44.29998" lon="3.32306">
        <ele>524.59</ele>
        <time>2024-11-06T00:00:08.823Z</time>
      </trkpt>
      <trkpt lat="44.3" lon="3.32298">
        <ele>525.14</ele>
        <time>2024-11-06T00:00:23.488Z</time>
      </trkpt>
      <trkpt lat="44.29997" lon="3.32295">
        <ele>525.82</ele>
        <time>2024-11-06T00:00:38.154Z</time>
      </trkpt>
      <trkpt lat="44.29994" lon="3.32293">
        <ele>526.52</ele>
        <time>2024-11-06T00:00:52.820Z</time>
      </trkpt>
      <trkpt lat="44.29991" lon="3.32297">
        <ele>527.25</ele>
        <time>2024-11-06T00:01:07.487Z</time>
      </trkpt>
      <trkpt lat="44.29988" lon="3.32303">
        <ele>527.98</ele>
        <time>2024-11-06T00:01:22.155Z</time>
      </trkpt>
      <trkpt lat="44.29984" lon="3.3231">
        <ele>528.75</ele>
        <time>2024-11-06T00:01:36.824Z</time>
      </trkpt>
      <trkpt lat="44.29972" lon="3.32325">
        <ele>529.61</ele>
        <time>2024-11-06T00:01:51.495Z</time>
      </trkpt>
      <trkpt lat="44.29962" lon="3.32337">
        <ele>530.44</ele>
        <time>2024-11-06T00:02:06.168Z</time>
      </trkpt>
      <trkpt lat="44.2996" lon="3.3234">
        <ele>531.22</ele>
        <time>2024-11-06T00:02:20.842Z</time>
      </trkpt>
      <trkpt lat="44.29951" lon="3.32355">
        <ele>532.05</ele>
        <time>2024-11-06T00:02:35.518Z</time>
      </trkpt>
      <trkpt lat="44.29945" lon="3.32365">
        <ele>532.91</ele>
        <time>2024-11-06T00:02:50.196Z</time>
      </trkpt>
      <trkpt lat="44.29942" lon="3.32379">
        <ele>533.72</ele>
        <time>2024-11-06T00:03:04.875Z</time>
      </trkpt>
      <trkpt lat="44.29942" lon="3.32383">
        <ele>534.52</ele>
        <time>2024-11-06T00:03:19.555Z</time>
      </trkpt>
      <trkpt lat="44.29941" lon="3.32396">
        <ele>535.38</ele>
        <time>2024-11-06T00:03:34.236Z</time>
      </trkpt>
      <trkpt lat="44.29943" lon="3.32408">
        <ele>536.22</ele>
        <time>2024-11-06T00:03:48.919Z</time>
      </trkpt>
      <trkpt lat="44.29944" lon="3.32415">
        <ele>537.09</ele>
        <time>2024-11-06T00:04:03.603Z</time>
      </trkpt>
      <trkpt lat="44.29948" lon="3.32427">
        <ele>537.97</ele>
        <time>2024-11-06T00:04:18.288Z</time>
      </trkpt>
      <trkpt lat="44.2995" lon="3.3243">
        <ele>538.84</ele>
        <time>2024-11-06T00:04:32.974Z</time>
      </trkpt>
      <trkpt lat="44.29955" lon="3.32438">
        <ele>539.72</ele>
        <time>2024-11-06T00:04:47.661Z</time>
      </trkpt>
      <trkpt lat="44.29962" lon="3.32445">
        <ele>540.63</ele>
        <time>2024-11-06T00:05:02.349Z</time>
      </trkpt>
      <trkpt lat="44.29971" lon="3.32447">
        <ele>541.53</ele>
        <time>2024-11-06T00:05:17.039Z</time>
      </trkpt>
      <trkpt lat="44.29988" lon="3.32446">
        <ele>542.37</ele>
        <time>2024-11-06T00:05:31.731Z</time>
      </trkpt>
      <trkpt lat="44.29991" lon="3.32447">
        <ele>543.31</ele>
        <time>2024-11-06T00:05:46.424Z</time>
      </trkpt>
      <trkpt lat="44.29996" lon="3.32448">
        <ele>544.26</ele>
        <time>2024-11-06T00:06:01.118Z</time>
      </trkpt>
      <trkpt lat="44.30004" lon="3.32452">
        <ele>545.3</ele>
        <time>2024-11-06T00:06:15.813Z</time>
      </trkpt>
      <trkpt lat="44.30012" lon="3.32457">
        <ele>546.36</ele>
        <time>2024-11-06T00:06:30.509Z</time>
      </trkpt>
      <trkpt lat="44.3003" lon="3.32468">
        <ele>547.5</ele>
        <time>2024-11-06T00:06:45.208Z</time>
      </trkpt>
      <trkpt lat="44.30033" lon="3.32468">
        <ele>548.5</ele>
        <time>2024-11-06T00:06:59.908Z</time>
      </trkpt>
      <trkpt lat="44.30058" lon="3.32472">
        <ele>549.44</ele>
        <time>2024-11-06T00:07:14.612Z</time>
      </trkpt>
      <trkpt lat="44.30059" lon="3.32473">
        <ele>550.47</ele>
        <time>2024-11-06T00:07:29.316Z</time>
      </trkpt>
      <trkpt lat="44.30081" lon="3.32483">
        <ele>551.46</ele>
        <time>2024-11-06T00:07:44.024Z</time>
      </trkpt>
      <trkpt lat="44.30083" lon="3.32486">
        <ele>552.52</ele>
        <time>2024-11-06T00:07:58.732Z</time>
      </trkpt>
      <trkpt lat="44.30081" lon="3.32492">
        <ele>553.67</ele>
        <time>2024-11-06T00:08:13.441Z</time>
      </trkpt>
      <trkpt lat="44.3008" lon="3.32492">
        <ele>554.76</ele>
        <time>2024-11-06T00:08:28.150Z</time>
      </trkpt>
      <trkpt lat="44.30076" lon="3.32493">
        <ele>555.89</ele>
        <time>2024-11-06T00:08:42.860Z</time>
      </trkpt>
      <trkpt lat="44.30063" lon="3.32487">
        <ele>557.02</ele>
        <time>2024-11-06T00:08:57.572Z</time>
      </trkpt>
      <trkpt lat="44.30057" lon="3.32485">
        <ele>558.13</ele>
        <time>2024-11-06T00:09:12.285Z</time>
      </trkpt>
      <trkpt lat="44.30041" lon="3.32486">
        <ele>559.33</ele>
        <time>2024-11-06T00:09:27.001Z</time>
      </trkpt>
      <trkpt lat="44.30032" lon="3.32487">
        <ele>560.51</ele>
        <time>2024-11-06T00:09:41.718Z</time>
      </trkpt>
      <trkpt lat="44.30018" lon="3.32487">
        <ele>561.67</ele>
        <time>2024-11-06T00:09:56.437Z</time>
      </trkpt>
      <trkpt lat="44.30001" lon="3.32486">
        <ele>562.76</ele>
        <time>2024-11-06T00:10:11.159Z</time>
      </trkpt>
      <trkpt lat="44.29992" lon="3.32487">
        <ele>563.88</ele>
        <time>2024-11-06T00:10:25.883Z</time>
      </trkpt>
      <trkpt lat="44.29987" lon="3.3249">
        <ele>565.02</ele>
        <time>2024-11-06T00:10:40.607Z</time>
      </trkpt>
      <trkpt lat="44.29979" lon="3.32494">
        <ele>566.21</ele>
        <time>2024-11-06T00:10:55.333Z</time>
      </trkpt>
      <trkpt lat="44.2995" lon="3.3251">
        <ele>567.64</ele>
        <time>2024-11-06T00:11:10.064Z</time>
      </trkpt>
      <trkpt lat="44.29944" lon="3.32513">
        <ele>568.77</ele>
        <time>2024-11-06T00:11:24.796Z</time>
      </trkpt>
      <trkpt lat="44.29941" lon="3.32513">
        <ele>569.84</ele>
        <time>2024-11-06T00:11:39.528Z</time>
      </trkpt>
      <trkpt lat="44.29936" lon="3.32514">
        <ele>570.91</ele>
        <time>2024-11-06T00:11:54.261Z</time>
      </trkpt>
      <trkpt lat="44.29929" lon="3.32512">
        <ele>571.96</ele>
        <time>2024-11-06T00:12:08.995Z</time>
      </trkpt>
      <trkpt lat="44.29924" lon="3.32507">
        <ele>572.94</ele>
        <time>2024-11-06T00:12:23.730Z</time>
      </trkpt>
      <trkpt lat="44.29922" lon="3.32505">
        <ele>573.92</ele>
        <time>2024-11-06T00:12:38.466Z</time>
      </trkpt>
      <trkpt lat="44.29913" lon="3.32488">
        <ele>574.76</ele>
        <time>2024-11-06T00:12:53.204Z</time>
      </trkpt>
      <trkpt lat="44.2991" lon="3.32482">
        <ele>575.71</ele>
        <time>2024-11-06T00:13:07.943Z</time>
      </trkpt>
      <trkpt lat="44.29907" lon="3.32479">
        <ele>576.68</ele>
        <time>2024-11-06T00:13:22.682Z</time>
      </trkpt>
      <trkpt lat="44.29901" lon="3.32471">
        <ele>577.66</ele>
        <time>2024-11-06T00:13:37.423Z</time>
      </trkpt>
      <trkpt lat="44.299" lon="3.3247">
        <ele>578.59</ele>
        <time>2024-11-06T00:13:52.164Z</time>
      </trkpt>
      <trkpt lat="44.29882" lon="3.32452">
        <ele>579.67</ele>
        <time>2024-11-06T00:14:06.908Z</time>
      </trkpt>
      <trkpt lat="44.29864" lon="3.32433">
        <ele>580.66</ele>
        <time>2024-11-06T00:14:21.656Z</time>
      </trkpt>
      <trkpt lat="44.29863" lon="3.32432">
        <ele>581.53</ele>
        <time>2024-11-06T00:14:36.404Z</time>
      </trkpt>
      <trkpt lat="44.29856" lon="3.32419">
        <ele>582.37</ele>
        <time>2024-11-06T00:14:51.154Z</time>
      </trkpt>
      <trkpt lat="44.29856" lon="3.32419">
        <ele>583.2</ele>
        <time>2024-11-06T00:15:05.904Z</time>
      </trkpt>
      <trkpt lat="44.2985" lon="3.32401">
        <ele>584.05</ele>
        <time>2024-11-06T00:15:20.656Z</time>
      </trkpt>
      <trkpt lat="44.29847" lon="3.32391">
        <ele>584.9</ele>
        <time>2024-11-06T00:15:35.410Z</time>
      </trkpt>
      <trkpt lat="44.29846" lon="3.32391">
        <ele>585.68</ele>
        <time>2024-11-06T00:15:50.164Z</time>
      </trkpt>
      <trkpt lat="44.29841" lon="3.32393">
        <ele>586.54</ele>
        <time>2024-11-06T00:16:04.919Z</time>
      </trkpt>
      <trkpt lat="44.29841" lon="3.32398">
        <ele>587.29</ele>
        <time>2024-11-06T00:16:19.674Z</time>
      </trkpt>
      <trkpt lat="44.29847" lon="3.32414">
        <ele>587.93</ele>
        <time>2024-11-06T00:16:34.431Z</time>
      </trkpt>
      <trkpt lat="44.29848" lon="3.32417">
        <ele>588.63</ele>
        <time>2024-11-06T00:16:49.189Z</time>
      </trkpt>
      <trkpt lat="44.29848" lon="3.32419">
        <ele>589.32</ele>
        <time>2024-11-06T00:17:03.947Z</time>
      </trkpt>
      <trkpt lat="44.29851" lon="3.32431">
        <ele>590.03</ele>
        <time>2024-11-06T00:17:18.706Z</time>
      </trkpt>
      <trkpt lat="44.29853" lon="3.32442">
        <ele>590.7</ele>
        <time>2024-11-06T00:17:33.467Z</time>
      </trkpt>
      <trkpt lat="44.29856" lon="3.32454">
        <ele>591.34</ele>
        <time>2024-11-06T00:17:48.229Z</time>
      </trkpt>
      <trkpt lat="44.29859" lon="3.32459">
        <ele>591.96</ele>
        <time>2024-11-06T00:18:02.992Z</time>
      </trkpt>
      <trkpt lat="44.29866" lon="3.32472">
        <ele>592.56</ele>
        <time>2024-11-06T00:18:17.757Z</time>
      </trkpt>
      <trkpt lat="44.29867" lon="3.32474">
        <ele>593.16</ele>
        <time>2024-11-06T00:18:32.522Z</time>
      </trkpt>
      <trkpt lat="44.2988" lon="3.32492">
        <ele>593.73</ele>
        <time>2024-11-06T00:18:47.290Z</time>
      </trkpt>
      <trkpt lat="44.29883" lon="3.32496">
        <ele>594.3</ele>
        <time>2024-11-06T00:19:02.059Z</time>
      </trkpt>
      <trkpt lat="44.29889" lon="3.32507">
        <ele>594.85</ele>
        <time>2024-11-06T00:19:16.829Z</time>
      </trkpt>
      <trkpt lat="44.29892" lon="3.32524">
        <ele>595.45</ele>
        <time>2024-11-06T00:19:31.601Z</time>
      </trkpt>
      <trkpt lat="44.29895" lon="3.32538">
        <ele>596.12</ele>
        <time>2024-11-06T00:19:46.375Z</time>
      </trkpt>
      <trkpt lat="44.29896" lon="3.32542">
        <ele>596.68</ele>
        <time>2024-11-06T00:20:01.149Z</time>
      </trkpt>
      <trkpt lat="44.299" lon="3.32553">
        <ele>597.31</ele>
        <time>2024-11-06T00:20:15.925Z</time>
      </trkpt>
      <trkpt lat="44.299" lon="3.32555">
        <ele>597.86</ele>
        <time>2024-11-06T00:20:30.701Z</time>
      </trkpt>
      <trkpt lat="44.29902" lon="3.32559">
        <ele>598.42</ele>
        <time>2024-11-06T00:20:45.478Z</time>
      </trkpt>
      <trkpt lat="44.29905" lon="3.32566">
        <ele>599.02</ele>
        <time>2024-11-06T00:21:00.256Z</time>
      </trkpt>
      <trkpt lat="44.29908" lon="3.32568">
        <ele>599.53</ele>
        <time>2024-11-06T00:21:15.034Z</time>
      </trkpt>
      <trkpt lat="44.29912" lon="3.32571">
        <ele>600.04</ele>
        <time>2024-11-06T00:21:29.813Z</time>
      </trkpt>
      <trkpt lat="44.2992" lon="3.32574">
        <ele>600.59</ele>
        <time>2024-11-06T00:21:44.593Z</time>
      </trkpt>
      <trkpt lat="44.29932" lon="3.32574">
        <ele>601.09</ele>
        <time>2024-11-06T00:21:59.375Z</time>
      </trkpt>
      <trkpt lat="44.29938" lon="3.32573">
        <ele>601.56</ele>
        <time>2024-11-06T00:22:14.158Z</time>
      </trkpt>
      <trkpt lat="44.29949" lon="3.32572">
        <ele>602.04</ele>
        <time>2024-11-06T00:22:28.943Z</time>
      </trkpt>
      <trkpt lat="44.29956" lon="3.3257">
        <ele>602.49</ele>
        <time>2024-11-06T00:22:43.729Z</time>
      </trkpt>
      <trkpt lat="44.29969" lon="3.32565">
        <ele>602.91</ele>
        <time>2024-11-06T00:22:58.517Z</time>
      </trkpt>
      <trkpt lat="44.29982" lon="3.32561">
        <ele>603.3</ele>
        <time>2024-11-06T00:23:13.307Z</time>
      </trkpt>
      <trkpt lat="44.29991" lon="3.32559">
        <ele>603.76</ele>
        <time>2024-11-06T00:23:28.099Z</time>
      </trkpt>
      <trkpt lat="44.29993" lon="3.32559">
        <ele>604.25</ele>
        <time>2024-11-06T00:23:42.891Z</time>
      </trkpt>
      <trkpt lat="44.3" lon="3.32561">
        <ele>604.75</ele>
        <time>2024-11-06T00:23:57.684Z</time>
      </trkpt>
      <trkpt lat="44.30013" lon="3.32565">
        <ele>605.24</ele>
        <time>2024-11-06T00:24:12.479Z</time>
      </trkpt>
      <trkpt lat="44.30023" lon="3.32572">
        <ele>605.81</ele>
        <time>2024-11-06T00:24:27.276Z</time>
      </trkpt>
      <trkpt lat="44.30029" lon="3.3258">
        <ele>606.39</ele>
        <time>2024-11-06T00:24:42.074Z</time>
      </trkpt>
      <trkpt lat="44.30033" lon="3.32588">
        <ele>607.01</ele>
        <time>2024-11-06T00:24:56.874Z</time>
      </trkpt>
      <trkpt lat="44.30047" lon="3.32614">
        <ele>607.76</ele>
        <time>2024-11-06T00:25:11.677Z</time>
      </trkpt>
      <trkpt lat="44.30052" lon="3.32624">
        <ele>608.43</ele>
        <time>2024-11-06T00:25:26.482Z</time>
      </trkpt>
      <trkpt lat="44.30057" lon="3.32634">
        <ele>609.11</ele>
        <time>2024-11-06T00:25:41.288Z</time>
      </trkpt>
      <trkpt lat="44.30058" lon="3.32636">
        <ele>609.74</ele>
        <time>2024-11-06T00:25:56.094Z</time>
      </trkpt>
      <trkpt lat="44.30066" lon="3.32644">
        <ele>610.38</ele>
        <time>2024-11-06T00:26:10.902Z</time>
      </trkpt>
      <trkpt lat="44.30076" lon="3.3265">
        <ele>610.97</ele>
        <time>2024-11-06T00:26:25.712Z</time>
      </trkpt>
      <trkpt lat="44.3009" lon="3.32657">
        <ele>611.56</ele>
        <time>2024-11-06T00:26:40.524Z</time>
      </trkpt>
      <trkpt lat="44.30093" lon="3.32659">
        <ele>612.23</ele>
        <time>2024-11-06T00:26:55.336Z</time>
      </trkpt>
      <trkpt lat="44.30119" lon="3.32683">
        <ele>612.86</ele>
        <time>2024-11-06T00:27:10.154Z</time>
      </trkpt>
      <trkpt lat="44.30121" lon="3.32684">
        <ele>613.58</ele>
        <time>2024-11-06T00:27:24.972Z</time>
      </trkpt>
      <trkpt lat="44.3013" lon="3.32695">
        <ele>614.31</ele>
        <time>2024-11-06T00:27:39.792Z</time>
      </trkpt>
      <trkpt lat="44.3013" lon="3.32699">
        <ele>615.11</ele>
        <time>2024-11-06T00:27:54.612Z</time>
      </trkpt>
      <trkpt lat="44.30129" lon="3.327">
        <ele>615.92</ele>
        <time>2024-11-06T00:28:09.432Z</time>
      </trkpt>
      <trkpt lat="44.30127" lon="3.32701">
        <ele>616.77</ele>
        <time>2024-11-06T00:28:24.253Z</time>
      </trkpt>
      <trkpt lat="44.30125" lon="3.327">
        <ele>617.62</ele>
        <time>2024-11-06T00:28:39.074Z</time>
      </trkpt>
      <trkpt lat="44.30123" lon="3.327">
        <ele>618.5</ele>
        <time>2024-11-06T00:28:53.895Z</time>
      </trkpt>
      <trkpt lat="44.30121" lon="3.32698">
        <ele>619.39</ele>
        <time>2024-11-06T00:29:08.717Z</time>
      </trkpt>
      <trkpt lat="44.30108" lon="3.32686">
        <ele>620.34</ele>
        <time>2024-11-06T00:29:23.541Z</time>
      </trkpt>
      <trkpt lat="44.30101" lon="3.32683">
        <ele>621.31</ele>
        <time>2024-11-06T00:29:38.366Z</time>
      </trkpt>
      <trkpt lat="44.30087" lon="3.32675">
        <ele>622.35</ele>
        <time>2024-11-06T00:29:53.194Z</time>
      </trkpt>
      <trkpt lat="44.30085" lon="3.32674">
        <ele>623.35</ele>
        <time>2024-11-06T00:30:08.022Z</time>
      </trkpt>
      <trkpt lat="44.30076" lon="3.32672">
        <ele>624.42</ele>
        <time>2024-11-06T00:30:22.852Z</time>
      </trkpt>
      <trkpt lat="44.30058" lon="3.32666">
        <ele>625.59</ele>
        <time>2024-11-06T00:30:37.685Z</time>
      </trkpt>
      <trkpt lat="44.30046" lon="3.3266">
        <ele>626.69</ele>
        <time>2024-11-06T00:30:52.520Z</time>
      </trkpt>
      <trkpt lat="44.30036" lon="3.32651">
        <ele>627.72</ele>
        <time>2024-11-06T00:31:07.357Z</time>
      </trkpt>
      <trkpt lat="44.30017" lon="3.32629">
        <ele>628.66</ele>
        <time>2024-11-06T00:31:22.197Z</time>
      </trkpt>
      <trkpt lat="44.3001" lon="3.32621">
        <ele>629.7</ele>
        <time>2024-11-06T00:31:37.039Z</time>
      </trkpt>
      <trkpt lat="44.30006" lon="3.32616">
        <ele>630.78</ele>
        <time>2024-11-06T00:31:51.882Z</time>
      </trkpt>
      <trkpt lat="44.29998" lon="3.3261">
        <ele>631.89</ele>
        <time>2024-11-06T00:32:06.726Z</time>
      </trkpt>
      <trkpt lat="44.29993" lon="3.32609">
        <ele>633.07</ele>
        <time>2024-11-06T00:32:21.571Z</time>
      </trkpt>
      <trkpt lat="44.2999" lon="3.3261">
        <ele>634.25</ele>
        <time>2024-11-06T00:32:36.417Z</time>
      </trkpt>
      <trkpt lat="44.29976" lon="3.32612">
        <ele>635.54</ele>
        <time>2024-11-06T00:32:51.265Z</time>
      </trkpt>
      <trkpt lat="44.2996" lon="3.32619">
        <ele>636.94</ele>
        <time>2024-11-06T00:33:06.116Z</time>
      </trkpt>
      <trkpt lat="44.29951" lon="3.32623">
        <ele>638.22</ele>
        <time>2024-11-06T00:33:20.968Z</time>
      </trkpt>
      <trkpt lat="44.29945" lon="3.32626">
        <ele>639.49</ele>
        <time>2024-11-06T00:33:35.821Z</time>
      </trkpt>
      <trkpt lat="44.29939" lon="3.3263">
        <ele>640.78</ele>
        <time>2024-11-06T00:33:50.675Z</time>
      </trkpt>
      <trkpt lat="44.29922" lon="3.3264">
        <ele>642.11</ele>
        <time>2024-11-06T00:34:05.532Z</time>
      </trkpt>
      <trkpt lat="44.29919" lon="3.32642">
        <ele>643.34</ele>
        <time>2024-11-06T00:34:20.390Z</time>
      </trkpt>
      <trkpt lat="44.29903" lon="3.32656">
        <ele>644.8</ele>
        <time>2024-11-06T00:34:35.251Z</time>
      </trkpt>
      <trkpt lat="44.299" lon="3.32659">
        <ele>646.05</ele>
        <time>2024-11-06T00:34:50.112Z</time>
      </trkpt>
      <trkpt lat="44.29894" lon="3.32661">
        <ele>647.28</ele>
        <time>2024-11-06T00:35:04.974Z</time>
      </trkpt>
      <trkpt lat="44.29884" lon="3.32661">
        <ele>648.46</ele>
        <time>2024-11-06T00:35:19.838Z</time>
      </trkpt>
      <trkpt lat="44.29873" lon="3.32659">
        <ele>649.71</ele>
        <time>2024-11-06T00:35:34.704Z</time>
      </trkpt>
      <trkpt lat="44.29857" lon="3.32655">
        <ele>651</ele>
        <time>2024-11-06T00:35:49.572Z</time>
      </trkpt>
      <trkpt lat="44.2985" lon="3.3265">
        <ele>652.16</ele>
        <time>2024-11-06T00:36:04.441Z</time>
      </trkpt>
      <trkpt lat="44.29844" lon="3.32643">
        <ele>653.28</ele>
        <time>2024-11-06T00:36:19.312Z</time>
      </trkpt>
      <trkpt lat="44.2984" lon="3.32632">
        <ele>654.29</ele>
        <time>2024-11-06T00:36:34.184Z</time>
      </trkpt>
      <trkpt lat="44.29836" lon="3.32622">
        <ele>655.28</ele>
        <time>2024-11-06T00:36:49.057Z</time>
      </trkpt>
      <trkpt lat="44.29832" lon="3.32618">
        <ele>656.36</ele>
        <time>2024-11-06T00:37:03.931Z</time>
      </trkpt>
      <trkpt lat="44.29827" lon="3.32616">
        <ele>657.46</ele>
        <time>2024-11-06T00:37:18.806Z</time>
      </trkpt>
      <trkpt lat="44.29825" lon="3.32615">
        <ele>658.55</ele>
        <time>2024-11-06T00:37:33.681Z</time>
      </trkpt>
      <trkpt lat="44.29814" lon="3.32614">
        <ele>659.73</ele>
        <time>2024-11-06T00:37:48.558Z</time>
      </trkpt>
      <trkpt lat="44.29799" lon="3.32613">
        <ele>660.93</ele>
        <time>2024-11-06T00:38:03.438Z</time>
      </trkpt>
      <trkpt lat="44.29792" lon="3.32608">
        <ele>662.01</ele>
        <time>2024-11-06T00:38:18.319Z</time>
      </trkpt>
      <trkpt lat="44.2979" lon="3.32606">
        <ele>663.04</ele>
        <time>2024-11-06T00:38:33.200Z</time>
      </trkpt>
      <trkpt lat="44.29778" lon="3.32593">
        <ele>664.1</ele>
        <time>2024-11-06T00:38:48.084Z</time>
      </trkpt>
      <trkpt lat="44.29769" lon="3.32553">
        <ele>664.9</ele>
        <time>2024-11-06T00:39:02.972Z</time>
      </trkpt>
      <trkpt lat="44.29758" lon="3.32526">
        <ele>665.97</ele>
        <time>2024-11-06T00:39:17.864Z</time>
      </trkpt>
      <trkpt lat="44.29749" lon="3.32504">
        <ele>666.97</ele>
        <time>2024-11-06T00:39:32.759Z</time>
      </trkpt>
      <trkpt lat="44.29745" lon="3.32494">
        <ele>667.93</ele>
        <time>2024-11-06T00:39:47.655Z</time>
      </trkpt>
      <trkpt lat="44.29736" lon="3.32472">
        <ele>668.9</ele>
        <time>2024-11-06T00:40:02.554Z</time>
      </trkpt>
      <trkpt lat="44.29734" lon="3.32467">
        <ele>669.82</ele>
        <time>2024-11-06T00:40:17.454Z</time>
      </trkpt>
      <trkpt lat="44.29716" lon="3.32447">
        <ele>671.03</ele>
        <time>2024-11-06T00:40:32.357Z</time>
      </trkpt>
      <trkpt lat="44.29712" lon="3.32443">
        <ele>671.98</ele>
        <time>2024-11-06T00:40:47.261Z</time>
      </trkpt>
      <trkpt lat="44.29706" lon="3.32434">
        <ele>672.94</ele>
        <time>2024-11-06T00:41:02.167Z</time>
      </trkpt>
      <trkpt lat="44.29701" lon="3.32426">
        <ele>673.89</ele>
        <time>2024-11-06T00:41:17.074Z</time>
      </trkpt>
      <trkpt lat="44.29702" lon="3.32412">
        <ele>674.62</ele>
        <time>2024-11-06T00:41:31.983Z</time>
      </trkpt>
      <trkpt lat="44.29702" lon="3.32402">
        <ele>675.41</ele>
        <time>2024-11-06T00:41:46.893Z</time>
      </trkpt>
      <trkpt lat="44.29699" lon="3.32394">
        <ele>676.29</ele>
        <time>2024-11-06T00:42:01.804Z</time>
      </trkpt>
      <trkpt lat="44.29697" lon="3.32389">
        <ele>677.15</ele>
        <time>2024-11-06T00:42:16.715Z</time>
      </trkpt>
      <trkpt lat="44.29696" lon="3.32387">
        <ele>677.97</ele>
        <time>2024-11-06T00:42:31.627Z</time>
      </trkpt>
      <trkpt lat="44.29691" lon="3.3238">
        <ele>678.9</ele>
        <time>2024-11-06T00:42:46.540Z</time>
      </trkpt>
      <trkpt lat="44.29689" lon="3.32378">
        <ele>679.72</ele>
        <time>2024-11-06T00:43:01.453Z</time>
      </trkpt>
      <trkpt lat="44.29684" lon="3.32367">
        <ele>680.64</ele>
        <time>2024-11-06T00:43:16.368Z</time>
      </trkpt>
      <trkpt lat="44.29684" lon="3.32358">
        <ele>681.44</ele>
        <time>2024-11-06T00:43:31.284Z</time>
      </trkpt>
      <trkpt lat="44.29684" lon="3.32354">
        <ele>682.22</ele>
        <time>2024-11-06T00:43:46.200Z</time>
      </trkpt>
      <trkpt lat="44.29685" lon="3.32352">
        <ele>682.98</ele>
        <time>2024-11-06T00:44:01.116Z</time>
      </trkpt>
      <trkpt lat="44.2969" lon="3.32342">
        <ele>683.68</ele>
        <time>2024-11-06T00:44:16.034Z</time>
      </trkpt>
      <trkpt lat="44.29696" lon="3.32332">
        <ele>684.37</ele>
        <time>2024-11-06T00:44:30.953Z</time>
      </trkpt>
      <trkpt lat="44.29697" lon="3.32329">
        <ele>685.12</ele>
        <time>2024-11-06T00:44:45.873Z</time>
      </trkpt>
      <trkpt lat="44.29701" lon="3.32309">
        <ele>685.96</ele>
        <time>2024-11-06T00:45:00.795Z</time>
      </trkpt>
      <trkpt lat="44.29712" lon="3.32288">
        <ele>686.65</ele>
        <time>2024-11-06T00:45:15.720Z</time>
      </trkpt>
      <trkpt lat="44.29718" lon="3.32279">
        <ele>687.45</ele>
        <time>2024-11-06T00:45:30.646Z</time>
      </trkpt>
      <trkpt lat="44.29723" lon="3.32269">
        <ele>688.26</ele>
        <time>2024-11-06T00:45:45.574Z</time>
      </trkpt>
      <trkpt lat="44.29729" lon="3.32259">
        <ele>689.07</ele>
        <time>2024-11-06T00:46:00.503Z</time>
      </trkpt>
      <trkpt lat="44.29734" lon="3.32249">
        <ele>689.9</ele>
        <time>2024-11-06T00:46:15.434Z</time>
      </trkpt>
      <trkpt lat="44.29746" lon="3.32227">
        <ele>690.61</ele>
        <time>2024-11-06T00:46:30.368Z</time>
      </trkpt>
      <trkpt lat="44.29747" lon="3.32223">
        <ele>691.5</ele>
        <time>2024-11-06T00:46:45.302Z</time>
      </trkpt>
      <trkpt lat="44.29751" lon="3.32212">
        <ele>692.35</ele>
        <time>2024-11-06T00:47:00.238Z</time>
      </trkpt>
      <trkpt lat="44.29752" lon="3.32209">
        <ele>693.28</ele>
        <time>2024-11-06T00:47:15.174Z</time>
      </trkpt>
      <trkpt lat="44.29748" lon="3.32203">
        <ele>694.32</ele>
        <time>2024-11-06T00:47:30.111Z</time>
      </trkpt>
      <trkpt lat="44.29745" lon="3.32204">
        <ele>695.42</ele>
        <time>2024-11-06T00:47:45.049Z</time>
      </trkpt>
      <trkpt lat="44.29742" lon="3.32208">
        <ele>696.58</ele>
        <time>2024-11-06T00:47:59.987Z</time>
      </trkpt>
      <trkpt lat="44.29735" lon="3.32229">
        <ele>697.85</ele>
        <time>2024-11-06T00:48:14.928Z</time>
      </trkpt>
      <trkpt lat="44.29731" lon="3.32235">
        <ele>699.04</ele>
        <time>2024-11-06T00:48:29.870Z</time>
      </trkpt>
      <trkpt lat="44.29726" lon="3.32241">
        <ele>700.29</ele>
        <time>2024-11-06T00:48:44.813Z</time>
      </trkpt>
      <trkpt lat="44.29708" lon="3.32262">
        <ele>701.66</ele>
        <time>2024-11-06T00:48:59.760Z</time>
      </trkpt>
      <trkpt lat="44.29689" lon="3.32287">
        <ele>703.09</ele>
        <time>2024-11-06T00:49:14.711Z</time>
      </trkpt>
      <trkpt lat="44.29682" lon="3.32295">
        <ele>704.38</ele>
        <time>2024-11-06T00:49:29.663Z</time>
      </trkpt>
      <trkpt lat="44.29661" lon="3.32323">
        <ele>705.82</ele>
        <time>2024-11-06T00:49:44.620Z</time>
      </trkpt>
      <trkpt lat="44.29642" lon="3.32339">
        <ele>707.43</ele>
        <time>2024-11-06T00:49:59.581Z</time>
      </trkpt>
      <trkpt lat="44.29638" lon="3.32347">
        <ele>708.75</ele>
        <time>2024-11-06T00:50:14.543Z</time>
      </trkpt>
      <trkpt lat="44.29635" lon="3.32354">
        <ele>710.06</ele>
        <time>2024-11-06T00:50:29.506Z</time>
      </trkpt>
      <trkpt lat="44.29635" lon="3.32358">
        <ele>711.31</ele>
        <time>2024-11-06T00:50:44.469Z</time>
      </trkpt>
      <trkpt lat="44.29634" lon="3.32366">
        <ele>712.54</ele>
        <time>2024-11-06T00:50:59.433Z</time>
      </trkpt>
      <trkpt lat="44.29635" lon="3.32371">
        <ele>713.76</ele>
        <time>2024-11-06T00:51:14.398Z</time>
      </trkpt>
      <trkpt lat="44.29636" lon="3.32382">
        <ele>714.93</ele>
        <time>2024-11-06T00:51:29.364Z</time>
      </trkpt>
      <trkpt lat="44.2964" lon="3.32394">
        <ele>716.05</ele>
        <time>2024-11-06T00:51:44.331Z</time>
      </trkpt>
      <trkpt lat="44.29644" lon="3.32405">
        <ele>717.19</ele>
        <time>2024-11-06T00:51:59.300Z</time>
      </trkpt>
      <trkpt lat="44.29645" lon="3.32407">
        <ele>718.43</ele>
        <time>2024-11-06T00:52:14.269Z</time>
      </trkpt>
      <trkpt lat="44.29644" lon="3.32418">
        <ele>719.73</ele>
        <time>2024-11-06T00:52:29.239Z</time>
      </trkpt>
      <trkpt lat="44.29635" lon="3.32436">
        <ele>721.28</ele>
        <time>2024-11-06T00:52:44.212Z</time>
      </trkpt>
      <trkpt lat="44.29636" lon="3.32445">
        <ele>722.58</ele>
        <time>2024-11-06T00:52:59.186Z</time>
      </trkpt>
      <trkpt lat="44.29636" lon="3.32451">
        <ele>723.88</ele>
        <time>2024-11-06T00:53:14.161Z</time>
      </trkpt>
      <trkpt lat="44.2964" lon="3.32462">
        <ele>725.13</ele>
        <time>2024-11-06T00:53:29.137Z</time>
      </trkpt>
      <trkpt lat="44.29644" lon="3.32471">
        <ele>726.38</ele>
        <time>2024-11-06T00:53:44.114Z</time>
      </trkpt>
      <trkpt lat="44.29654" lon="3.32487">
        <ele>727.57</ele>
        <time>2024-11-06T00:53:59.094Z</time>
      </trkpt>
      <trkpt lat="44.29668" lon="3.32512">
        <ele>728.69</ele>
        <time>2024-11-06T00:54:14.077Z</time>
      </trkpt>
      <trkpt lat="44.29673" lon="3.3252">
        <ele>729.89</ele>
        <time>2024-11-06T00:54:29.062Z</time>
      </trkpt>
      <trkpt lat="44.29676" lon="3.32533">
        <ele>731.14</ele>
        <time>2024-11-06T00:54:44.048Z</time>
      </trkpt>
      <trkpt lat="44.29677" lon="3.32537">
        <ele>732.39</ele>
        <time>2024-11-06T00:54:59.035Z</time>
      </trkpt>
      <trkpt lat="44.29677" lon="3.32546">
        <ele>733.67</ele>
        <time>2024-11-06T00:55:14.023Z</time>
      </trkpt>
      <trkpt lat="44.29677" lon="3.32557">
        <ele>734.95</ele>
        <time>2024-11-06T00:55:29.012Z</time>
      </trkpt>
      <trkpt lat="44.29675" lon="3.3257">
        <ele>736.27</ele>
        <time>2024-11-06T00:55:44.002Z</time>
      </trkpt>
      <trkpt lat="44.2967" lon="3.32607">
        <ele>737.77</ele>
        <time>2024-11-06T00:55:58.997Z</time>
      </trkpt>
      <trkpt lat="44.29669" lon="3.32617">
        <ele>739.08</ele>
        <time>2024-11-06T00:56:13.993Z</time>
      </trkpt>
      <trkpt lat="44.29669" lon="3.32645">
        <ele>740.44</ele>
        <time>2024-11-06T00:56:28.992Z</time>
      </trkpt>
      <trkpt lat="44.29669" lon="3.32677">
        <ele>741.81</ele>
        <time>2024-11-06T00:56:43.995Z</time>
      </trkpt>
      <trkpt lat="44.29671" lon="3.32688">
        <ele>743.07</ele>
        <time>2024-11-06T00:56:58.999Z</time>
      </trkpt>
      <trkpt lat="44.29673" lon="3.32697">
        <ele>744.35</ele>
        <time>2024-11-06T00:57:14.004Z</time>
      </trkpt>
      <trkpt lat="44.29674" lon="3.327">
        <ele>745.54</ele>
        <time>2024-11-06T00:57:29.010Z</time>
      </trkpt>
      <trkpt lat="44.29682" lon="3.32714">
        <ele>746.75</ele>
        <time>2024-11-06T00:57:44.018Z</time>
      </trkpt>
      <trkpt lat="44.29694" lon="3.32726">
        <ele>747.91</ele>
        <time>2024-11-06T00:57:59.028Z</time>
      </trkpt>
      <trkpt lat="44.29705" lon="3.32737">
        <ele>749.1</ele>
        <time>2024-11-06T00:58:14.040Z</time>
      </trkpt>
      <trkpt lat="44.29711" lon="3.32743">
        <ele>750.26</ele>
        <time>2024-11-06T00:58:29.053Z</time>
      </trkpt>
      <trkpt lat="44.29718" lon="3.32761">
        <ele>751.53</ele>
        <time>2024-11-06T00:58:44.069Z</time>
      </trkpt>
      <trkpt lat="44.29719" lon="3.32763">
        <ele>752.66</ele>
        <time>2024-11-06T00:58:59.085Z</time>
      </trkpt>
      <trkpt lat="44.29725" lon="3.32769">
        <ele>753.76</ele>
        <time>2024-11-06T00:59:14.102Z</time>
      </trkpt>
      <trkpt lat="44.29726" lon="3.3277">
        <ele>754.85</ele>
        <time>2024-11-06T00:59:29.119Z</time>
      </trkpt>
      <trkpt lat="44.29744" lon="3.32778">
        <ele>755.76</ele>
        <time>2024-11-06T00:59:44.139Z</time>
      </trkpt>
      <trkpt lat="44.29749" lon="3.32784">
        <ele>756.85</ele>
        <time>2024-11-06T00:59:59.160Z</time>
      </trkpt>
      <trkpt lat="44.29751" lon="3.32787">
        <ele>757.94</ele>
        <time>2024-11-06T01:00:14.182Z</time>
      </trkpt>
      <trkpt lat="44.29754" lon="3.32794">
        <ele>759.07</ele>
        <time>2024-11-06T01:00:29.205Z</time>
      </trkpt>
      <trkpt lat="44.29758" lon="3.32805">
        <ele>760.22</ele>
        <time>2024-11-06T01:00:44.229Z</time>
      </trkpt>
      <trkpt lat="44.29763" lon="3.32816">
        <ele>761.4</ele>
        <time>2024-11-06T01:00:59.255Z</time>
      </trkpt>
      <trkpt lat="44.29774" lon="3.32826">
        <ele>762.46</ele>
        <time>2024-11-06T01:01:14.283Z</time>
      </trkpt>
      <trkpt lat="44.29777" lon="3.32828">
        <ele>763.55</ele>
        <time>2024-11-06T01:01:29.311Z</time>
      </trkpt>
      <trkpt lat="44.29799" lon="3.32843">
        <ele>764.56</ele>
        <time>2024-11-06T01:01:44.343Z</time>
      </trkpt>
      <trkpt lat="44.29806" lon="3.32848">
        <ele>765.69</ele>
        <time>2024-11-06T01:01:59.377Z</time>
      </trkpt>
      <trkpt lat="44.29825" lon="3.32864">
        <ele>766.97</ele>
        <time>2024-11-06T01:02:14.414Z</time>
      </trkpt>
      <trkpt lat="44.29828" lon="3.32866">
        <ele>768.13</ele>
        <time>2024-11-06T01:02:29.452Z</time>
      </trkpt>
      <trkpt lat="44.29832" lon="3.32871">
        <ele>769.33</ele>
        <time>2024-11-06T01:02:44.490Z</time>
      </trkpt>
      <trkpt lat="44.29835" lon="3.32875">
        <ele>770.53</ele>
        <time>2024-11-06T01:02:59.529Z</time>
      </trkpt>
      <trkpt lat="44.29848" lon="3.32891">
        <ele>771.91</ele>
        <time>2024-11-06T01:03:14.571Z</time>
      </trkpt>
      <trkpt lat="44.29853" lon="3.32894">
        <ele>773.08</ele>
        <time>2024-11-06T01:03:29.614Z</time>
      </trkpt>
      <trkpt lat="44.29861" lon="3.32899">
        <ele>774.3</ele>
        <time>2024-11-06T01:03:44.658Z</time>
      </trkpt>
      <trkpt lat="44.29862" lon="3.329">
        <ele>775.46</ele>
        <time>2024-11-06T01:03:59.702Z</time>
      </trkpt>
      <trkpt lat="44.29869" lon="3.32901">
        <ele>776.62</ele>
        <time>2024-11-06T01:04:14.748Z</time>
      </trkpt>
      <trkpt lat="44.29884" lon="3.32902">
        <ele>777.79</ele>
        <time>2024-11-06T01:04:29.796Z</time>
      </trkpt>
      <trkpt lat="44.299" lon="3.32901">
        <ele>778.82</ele>
        <time>2024-11-06T01:04:44.847Z</time>
      </trkpt>
      <trkpt lat="44.29941" lon="3.32898">
        <ele>779.77</ele>
        <time>2024-11-06T01:04:59.904Z</time>
      </trkpt>
      <trkpt lat="44.29951" lon="3.329">
        <ele>780.86</ele>
        <time>2024-11-06T01:05:14.963Z</time>
      </trkpt>
      <trkpt lat="44.29953" lon="3.32903">
        <ele>782.07</ele>
        <time>2024-11-06T01:05:30.022Z</time>
      </trkpt>
      <trkpt lat="44.29958" lon="3.32908">
        <ele>783.3</ele>
        <time>2024-11-06T01:05:45.082Z</time>
      </trkpt>
      <trkpt lat="44.29959" lon="3.32911">
        <ele>784.54</ele>
        <time>2024-11-06T01:06:00.143Z</time>
      </trkpt>
      <trkpt lat="44.29963" lon="3.32919">
        <ele>785.78</ele>
        <time>2024-11-06T01:06:15.205Z</time>
      </trkpt>
      <trkpt lat="44.29965" lon="3.32931">
        <ele>787.06</ele>
        <time>2024-11-06T01:06:30.268Z</time>
      </trkpt>
      <trkpt lat="44.29965" lon="3.32934">
        <ele>788.31</ele>
        <time>2024-11-06T01:06:45.331Z</time>
      </trkpt>
      <trkpt lat="44.29964" lon="3.32956">
        <ele>789.71</ele>
        <time>2024-11-06T01:07:00.397Z</time>
      </trkpt>
      <trkpt lat="44.29962" lon="3.32965">
        <ele>791.03</ele>
        <time>2024-11-06T01:07:15.464Z</time>
      </trkpt>
      <trkpt lat="44.29955" lon="3.33008">
        <ele>792.5</ele>
        <time>2024-11-06T01:07:30.536Z</time>
      </trkpt>
      <trkpt lat="44.29954" lon="3.3301">
        <ele>793.72</ele>
        <time>2024-11-06T01:07:45.608Z</time>
      </trkpt>
      <trkpt lat="44.29943" lon="3.3305">
        <ele>795.06</ele>
        <time>2024-11-06T01:08:00.685Z</time>
      </trkpt>
      <trkpt lat="44.29943" lon="3.33061">
        <ele>796.25</ele>
        <time>2024-11-06T01:08:15.763Z</time>
      </trkpt>
      <trkpt lat="44.29943" lon="3.33066">
        <ele>797.44</ele>
        <time>2024-11-06T01:08:30.842Z</time>
      </trkpt>
      <trkpt lat="44.29948" lon="3.33104">
        <ele>798.63</ele>
        <time>2024-11-06T01:08:45.926Z</time>
      </trkpt>
      <trkpt lat="44.29949" lon="3.3311">
        <ele>799.78</ele>
        <time>2024-11-06T01:09:01.010Z</time>
      </trkpt>
      <trkpt lat="44.2995" lon="3.33129">
        <ele>800.98</ele>
        <time>2024-11-06T01:09:16.096Z</time>
      </trkpt>
      <trkpt lat="44.29952" lon="3.3316">
        <ele>802.19</ele>
        <time>2024-11-06T01:09:31.186Z</time>
      </trkpt>
      <trkpt lat="44.29953" lon="3.33185">
        <ele>803.34</ele>
        <time>2024-11-06T01:09:46.279Z</time>
      </trkpt>
      <trkpt lat="44.29953" lon="3.3319">
        <ele>804.38</ele>
        <time>2024-11-06T01:10:01.372Z</time>
      </trkpt>
      <trkpt lat="44.29957" lon="3.33222">
        <ele>805.45</ele>
        <time>2024-11-06T01:10:16.469Z</time>
      </trkpt>
      <trkpt lat="44.29962" lon="3.33252">
        <ele>806.46</ele>
        <time>2024-11-06T01:10:31.570Z</time>
      </trkpt>
      <trkpt lat="44.29965" lon="3.33276">
        <ele>807.4</ele>
        <time>2024-11-06T01:10:46.674Z</time>
      </trkpt>
      <trkpt lat="44.29965" lon="3.33277">
        <ele>808.27</ele>
        <time>2024-11-06T01:11:01.778Z</time>
      </trkpt>
      <trkpt lat="44.29963" lon="3.33291">
        <ele>809.14</ele>
        <time>2024-11-06T01:11:16.883Z</time>
      </trkpt>
      <trkpt lat="44.29962" lon="3.33295">
        <ele>809.93</ele>
        <time>2024-11-06T01:11:31.989Z</time>
      </trkpt>
      <trkpt lat="44.29958" lon="3.33306">
        <ele>810.7</ele>
        <time>2024-11-06T01:11:47.096Z</time>
      </trkpt>
      <trkpt lat="44.29952" lon="3.33323">
        <ele>811.44</ele>
        <time>2024-11-06T01:12:02.205Z</time>
      </trkpt>
      <trkpt lat="44.29951" lon="3.33327">
        <ele>812.07</ele>
        <time>2024-11-06T01:12:17.315Z</time>
      </trkpt>
      <trkpt lat="44.29948" lon="3.33334">
        <ele>812.66</ele>
        <time>2024-11-06T01:12:32.426Z</time>
      </trkpt>
      <trkpt lat="44.29946" lon="3.3334">
        <ele>813.2</ele>
        <time>2024-11-06T01:12:47.538Z</time>
      </trkpt>
      <trkpt lat="44.29944" lon="3.33345">
        <ele>813.67</ele>
        <time>2024-11-06T01:13:02.650Z</time>
      </trkpt>
      <trkpt lat="44.29941" lon="3.33351">
        <ele>814.1</ele>
        <time>2024-11-06T01:13:17.763Z</time>
      </trkpt>
      <trkpt lat="44.29937" lon="3.33361">
        <ele>814.48</ele>
        <time>2024-11-06T01:13:32.877Z</time>
      </trkpt>
      <trkpt lat="44.29935" lon="3.33367">
        <ele>814.82</ele>
        <time>2024-11-06T01:13:47.992Z</time>
      </trkpt>
      <trkpt lat="44.29932" lon="3.33372">
        <ele>815.1</ele>
        <time>2024-11-06T01:14:03.108Z</time>
      </trkpt>
      <trkpt lat="44.29926" lon="3.33389">
        <ele>815.34</ele>
        <time>2024-11-06T01:14:18.226Z</time>
      </trkpt>
      <trkpt lat="44.29921" lon="3.33399">
        <ele>815.52</ele>
        <time>2024-11-06T01:14:33.345Z</time>
      </trkpt>
      <trkpt lat="44.29917" lon="3.3341">
        <ele>815.63</ele>
        <time>2024-11-06T01:14:48.466Z</time>
      </trkpt>
      <trkpt lat="44.29912" lon="3.33421">
        <ele>815.71</ele>
        <time>2024-11-06T01:15:03.588Z</time>
      </trkpt>
      <trkpt lat="44.29908" lon="3.33432">
        <ele>815.75</ele>
        <time>2024-11-06T01:15:18.712Z</time>
      </trkpt>
      <trkpt lat="44.29901" lon="3.33448">
        <ele>815.76</ele>
        <time>2024-11-06T01:15:33.838Z</time>
      </trkpt>
      <trkpt lat="44.29892" lon="3.3347">
        <ele>815.7</ele>
        <time>2024-11-06T01:15:48.967Z</time>
      </trkpt>
      <trkpt lat="44.29888" lon="3.33481">
        <ele>815.61</ele>
        <time>2024-11-06T01:16:04.097Z</time>
      </trkpt>
      <trkpt lat="44.29881" lon="3.33497">
        <ele>815.47</ele>
        <time>2024-11-06T01:16:19.229Z</time>
      </trkpt>
      <trkpt lat="44.29874" lon="3.33513">
        <ele>815.33</ele>
        <time>2024-11-06T01:16:34.363Z</time>
      </trkpt>
      <trkpt lat="44.29871" lon="3.33521">
        <ele>815.16</ele>
        <time>2024-11-06T01:16:49.499Z</time>
      </trkpt>
      <trkpt lat="44.29867" lon="3.33529">
        <ele>814.98</ele>
        <time>2024-11-06T01:17:04.636Z</time>
      </trkpt>
      <trkpt lat="44.29849" lon="3.3356">
        <ele>814.73</ele>
        <time>2024-11-06T01:17:19.777Z</time>
      </trkpt>
      <trkpt lat="44.29844" lon="3.33567">
        <ele>814.5</ele>
        <time>2024-11-06T01:17:34.919Z</time>
      </trkpt>
      <trkpt lat="44.29838" lon="3.33577">
        <ele>814.23</ele>
        <time>2024-11-06T01:17:50.063Z</time>
      </trkpt>
      <trkpt lat="44.29832" lon="3.33586">
        <ele>813.97</ele>
        <time>2024-11-06T01:18:05.208Z</time>
      </trkpt>
      <trkpt lat="44.2982" lon="3.33605">
        <ele>813.67</ele>
        <time>2024-11-06T01:18:20.356Z</time>
      </trkpt>
      <trkpt lat="44.29814" lon="3.33614">
        <ele>813.39</ele>
        <time>2024-11-06T01:18:35.506Z</time>
      </trkpt>
      <trkpt lat="44.29808" lon="3.33623">
        <ele>813.09</ele>
        <time>2024-11-06T01:18:50.657Z</time>
      </trkpt>
      <trkpt lat="44.29802" lon="3.33632">
        <ele>812.78</ele>
        <time>2024-11-06T01:19:05.809Z</time>
      </trkpt>
      <trkpt lat="44.29793" lon="3.33646">
        <ele>812.47</ele>
        <time>2024-11-06T01:19:20.964Z</time>
      </trkpt>
      <trkpt lat="44.29787" lon="3.33656">
        <ele>812.17</ele>
        <time>2024-11-06T01:19:36.120Z</time>
      </trkpt>
      <trkpt lat="44.29778" lon="3.3367">
        <ele>811.86</ele>
        <time>2024-11-06T01:19:51.278Z</time>
      </trkpt>
      <trkpt lat="44.29763" lon="3.33693">
        <ele>811.53</ele>
        <time>2024-11-06T01:20:06.440Z</time>
      </trkpt>
      <trkpt lat="44.29748" lon="3.33716">
        <ele>811.24</ele>
        <time>2024-11-06T01:20:21.605Z</time>
      </trkpt>
      <trkpt lat="44.29718" lon="3.33762">
        <ele>810.91</ele>
        <time>2024-11-06T01:20:36.778Z</time>
      </trkpt>
      <trkpt lat="44.29703" lon="3.33786">
        <ele>810.58</ele>
        <time>2024-11-06T01:20:51.954Z</time>
      </trkpt>
      <trkpt lat="44.29676" lon="3.33827">
        <ele>810.3</ele>
        <time>2024-11-06T01:21:07.137Z</time>
      </trkpt>
      <trkpt lat="44.29664" lon="3.33846">
        <ele>810.02</ele>
        <time>2024-11-06T01:21:22.322Z</time>
      </trkpt>
      <trkpt lat="44.29649" lon="3.33869">
        <ele>809.75</ele>
        <time>2024-11-06T01:21:37.511Z</time>
      </trkpt>
      <trkpt lat="44.2964" lon="3.33883">
        <ele>809.48</ele>
        <time>2024-11-06T01:21:52.702Z</time>
      </trkpt>
      <trkpt lat="44.29607" lon="3.33934">
        <ele>809.19</ele>
        <time>2024-11-06T01:22:07.901Z</time>
      </trkpt>
      <trkpt lat="44.29586" lon="3.33967">
        <ele>808.95</ele>
        <time>2024-11-06T01:22:23.105Z</time>
      </trkpt>
      <trkpt lat="44.29574" lon="3.33985">
        <ele>808.73</ele>
        <time>2024-11-06T01:22:38.312Z</time>
      </trkpt>
      <trkpt lat="44.29562" lon="3.34004">
        <ele>808.5</ele>
        <time>2024-11-06T01:22:53.522Z</time>
      </trkpt>
      <trkpt lat="44.2955" lon="3.34022">
        <ele>808.28</ele>
        <time>2024-11-06T01:23:08.735Z</time>
      </trkpt>
      <trkpt lat="44.29544" lon="3.34032">
        <ele>808.06</ele>
        <time>2024-11-06T01:23:23.949Z</time>
      </trkpt>
      <trkpt lat="44.29537" lon="3.34039">
        <ele>807.84</ele>
        <time>2024-11-06T01:23:39.165Z</time>
      </trkpt>
      <trkpt lat="44.2953" lon="3.34046">
        <ele>807.64</ele>
        <time>2024-11-06T01:23:54.382Z</time>
      </trkpt>
      <trkpt lat="44.29527" lon="3.34048">
        <ele>807.45</ele>
        <time>2024-11-06T01:24:09.599Z</time>
      </trkpt>
      <trkpt lat="44.29517" lon="3.34054">
        <ele>807.28</ele>
        <time>2024-11-06T01:24:24.818Z</time>
      </trkpt>
      <trkpt lat="44.29505" lon="3.34062">
        <ele>807.12</ele>
        <time>2024-11-06T01:24:40.039Z</time>
      </trkpt>
      <trkpt lat="44.29485" lon="3.34074">
        <ele>806.97</ele>
        <time>2024-11-06T01:24:55.264Z</time>
      </trkpt>
      <trkpt lat="44.29468" lon="3.34084">
        <ele>806.79</ele>
        <time>2024-11-06T01:25:10.492Z</time>
      </trkpt>
      <trkpt lat="44.29444" lon="3.34099">
        <ele>806.66</ele>
        <time>2024-11-06T01:25:25.724Z</time>
      </trkpt>
      <trkpt lat="44.29419" lon="3.34115">
        <ele>806.52</ele>
        <time>2024-11-06T01:25:40.960Z</time>
      </trkpt>
      <trkpt lat="44.29395" lon="3.3413">
        <ele>806.38</ele>
        <time>2024-11-06T01:25:56.201Z</time>
      </trkpt>
      <trkpt lat="44.29391" lon="3.34132">
        <ele>806.23</ele>
        <time>2024-11-06T01:26:11.442Z</time>
      </trkpt>
      <trkpt lat="44.29391" lon="3.34132">
        <ele>806.09</ele>
        <time>2024-11-06T01:26:26.683Z</time>
      </trkpt>
      <trkpt lat="44.29383" lon="3.34138">
        <ele>805.96</ele>
        <time>2024-11-06T01:26:41.926Z</time>
      </trkpt>
      <trkpt lat="44.2938" lon="3.3414">
        <ele>805.82</ele>
        <time>2024-11-06T01:26:57.169Z</time>
      </trkpt>
      <trkpt lat="44.29379" lon="3.34142">
        <ele>805.69</ele>
        <time>2024-11-06T01:27:12.413Z</time>
      </trkpt>
      <trkpt lat="44.29374" lon="3.34152">
        <ele>805.55</ele>
        <time>2024-11-06T01:27:27.658Z</time>
      </trkpt>
      <trkpt lat="44.29371" lon="3.34157">
        <ele>805.42</ele>
        <time>2024-11-06T01:27:42.904Z</time>
      </trkpt>
      <trkpt lat="44.29369" lon="3.34162">
        <ele>805.28</ele>
        <time>2024-11-06T01:27:58.150Z</time>
      </trkpt>
      <trkpt lat="44.29367" lon="3.34168">
        <ele>805.16</ele>
        <time>2024-11-06T01:28:13.397Z</time>
      </trkpt>
      <trkpt lat="44.29365" lon="3.34174">
        <ele>805.03</ele>
        <time>2024-11-06T01:28:28.645Z</time>
      </trkpt>
      <trkpt lat="44.29357" lon="3.34197">
        <ele>804.89</ele>
        <time>2024-11-06T01:28:43.896Z</time>
      </trkpt>
      <trkpt lat="44.29346" lon="3.34231">
        <ele>804.72</ele>
        <time>2024-11-06T01:28:59.151Z</time>
      </trkpt>
      <trkpt lat="44.29342" lon="3.34242">
        <ele>804.61</ele>
        <time>2024-11-06T01:29:14.407Z</time>
      </trkpt>
      <trkpt lat="44.29333" lon="3.3427">
        <ele>804.48</ele>
        <time>2024-11-06T01:29:29.667Z</time>
      </trkpt>
      <trkpt lat="44.29329" lon="3.34282">
        <ele>804.35</ele>
        <time>2024-11-06T01:29:44.929Z</time>
      </trkpt>
      <trkpt lat="44.29327" lon="3.34287">
        <ele>804.24</ele>
        <time>2024-11-06T01:30:00.191Z</time>
      </trkpt>
      <trkpt lat="44.29325" lon="3.34293">
        <ele>804.13</ele>
        <time>2024-11-06T01:30:15.454Z</time>
      </trkpt>
      <trkpt lat="44.29322" lon="3.34298">
        <ele>804.02</ele>
        <time>2024-11-06T01:30:30.718Z</time>
      </trkpt>
      <trkpt lat="44.2932" lon="3.34303">
        <ele>803.91</ele>
        <time>2024-11-06T01:30:45.982Z</time>
      </trkpt>
      <trkpt lat="44.29315" lon="3.34314">
        <ele>803.8</ele>
        <time>2024-11-06T01:31:01.248Z</time>
      </trkpt>
      <trkpt lat="44.29314" lon="3.34315">
        <ele>803.7</ele>
        <time>2024-11-06T01:31:16.514Z</time>
      </trkpt>
      <trkpt lat="44.29309" lon="3.34323">
        <ele>803.6</ele>
        <time>2024-11-06T01:31:31.781Z</time>
      </trkpt>
      <trkpt lat="44.29303" lon="3.34333">
        <ele>803.51</ele>
        <time>2024-11-06T01:31:47.050Z</time>
      </trkpt>
      <trkpt lat="44.29301" lon="3.34338">
        <ele>803.43</ele>
        <time>2024-11-06T01:32:02.319Z</time>
      </trkpt>
      <trkpt lat="44.29295" lon="3.34348">
        <ele>803.36</ele>
        <time>2024-11-06T01:32:17.590Z</time>
      </trkpt>
      <trkpt lat="44.29286" lon="3.34362">
        <ele>803.29</ele>
        <time>2024-11-06T01:32:32.863Z</time>
      </trkpt>
      <trkpt lat="44.29238" lon="3.34444">
        <ele>803.26</ele>
        <time>2024-11-06T01:32:48.148Z</time>
      </trkpt>
      <trkpt lat="44.29232" lon="3.34454">
        <ele>803.2</ele>
        <time>2024-11-06T01:33:03.435Z</time>
      </trkpt>
      <trkpt lat="44.29215" lon="3.34483">
        <ele>803.14</ele>
        <time>2024-11-06T01:33:18.726Z</time>
      </trkpt>
      <trkpt lat="44.29203" lon="3.34503">
        <ele>803.09</ele>
        <time>2024-11-06T01:33:34.020Z</time>
      </trkpt>
      <trkpt lat="44.29197" lon="3.34511">
        <ele>803.07</ele>
        <time>2024-11-06T01:33:49.315Z</time>
      </trkpt>
      <trkpt lat="44.29182" lon="3.34534">
        <ele>803.05</ele>
        <time>2024-11-06T01:34:04.614Z</time>
      </trkpt>
      <trkpt lat="44.29166" lon="3.34556">
        <ele>803.05</ele>
        <time>2024-11-06T01:34:19.917Z</time>
      </trkpt>
      <trkpt lat="44.2916" lon="3.34565">
        <ele>803.04</ele>
        <time>2024-11-06T01:34:35.221Z</time>
      </trkpt>
      <trkpt lat="44.29155" lon="3.34572">
        <ele>803.04</ele>
        <time>2024-11-06T01:34:50.526Z</time>
      </trkpt>
      <trkpt lat="44.29138" lon="3.34597">
        <ele>803.07</ele>
        <time>2024-11-06T01:35:05.835Z</time>
      </trkpt>
      <trkpt lat="44.29126" lon="3.34615">
        <ele>803.13</ele>
        <time>2024-11-06T01:35:21.147Z</time>
      </trkpt>
      <trkpt lat="44.2911" lon="3.34638">
        <ele>803.22</ele>
        <time>2024-11-06T01:35:36.462Z</time>
      </trkpt>
      <trkpt lat="44.29095" lon="3.34661">
        <ele>803.27</ele>
        <time>2024-11-06T01:35:51.781Z</time>
      </trkpt>
      <trkpt lat="44.29076" lon="3.34688">
        <ele>803.27</ele>
        <time>2024-11-06T01:36:07.104Z</time>
      </trkpt>
      <trkpt lat="44.29067" lon="3.34702">
        <ele>803.31</ele>
        <time>2024-11-06T01:36:22.430Z</time>
      </trkpt>
      <trkpt lat="44.29052" lon="3.34724">
        <ele>803.38</ele>
        <time>2024-11-06T01:36:37.759Z</time>
      </trkpt>
      <trkpt lat="44.29027" lon="3.3476">
        <ele>803.46</ele>
        <time>2024-11-06T01:36:53.094Z</time>
      </trkpt>
      <trkpt lat="44.29021" lon="3.34769">
        <ele>803.56</ele>
        <time>2024-11-06T01:37:08.430Z</time>
      </trkpt>
      <trkpt lat="44.29009" lon="3.34787">
        <ele>803.67</ele>
        <time>2024-11-06T01:37:23.769Z</time>
      </trkpt>
      <trkpt lat="44.29003" lon="3.34797">
        <ele>803.78</ele>
        <time>2024-11-06T01:37:39.110Z</time>
      </trkpt>
      <trkpt lat="44.28991" lon="3.34815">
        <ele>803.91</ele>
        <time>2024-11-06T01:37:54.453Z</time>
      </trkpt>
      <trkpt lat="44.28966" lon="3.34851">
        <ele>804.08</ele>
        <time>2024-11-06T01:38:09.802Z</time>
      </trkpt>
      <trkpt lat="44.28964" lon="3.34854">
        <ele>804.22</ele>
        <time>2024-11-06T01:38:25.152Z</time>
      </trkpt>
      <trkpt lat="44.28958" lon="3.34865">
        <ele>804.37</ele>
        <time>2024-11-06T01:38:40.503Z</time>
      </trkpt>
      <trkpt lat="44.2895" lon="3.3488">
        <ele>804.55</ele>
        <time>2024-11-06T01:38:55.856Z</time>
      </trkpt>
      <trkpt lat="44.28926" lon="3.34922">
        <ele>804.74</ele>
        <time>2024-11-06T01:39:11.216Z</time>
      </trkpt>
      <trkpt lat="44.28924" lon="3.34925">
        <ele>804.93</ele>
        <time>2024-11-06T01:39:26.576Z</time>
      </trkpt>
      <trkpt lat="44.28915" lon="3.34941">
        <ele>805.15</ele>
        <time>2024-11-06T01:39:41.938Z</time>
      </trkpt>
      <trkpt lat="44.28909" lon="3.34951">
        <ele>805.37</ele>
        <time>2024-11-06T01:39:57.302Z</time>
      </trkpt>
      <trkpt lat="44.28903" lon="3.3496">
        <ele>805.6</ele>
        <time>2024-11-06T01:40:12.667Z</time>
      </trkpt>
      <trkpt lat="44.2889" lon="3.34983">
        <ele>805.83</ele>
        <time>2024-11-06T01:40:28.036Z</time>
      </trkpt>
      <trkpt lat="44.2887" lon="3.35016">
        <ele>806.1</ele>
        <time>2024-11-06T01:40:43.410Z</time>
      </trkpt>
      <trkpt lat="44.28865" lon="3.35025">
        <ele>806.34</ele>
        <time>2024-11-06T01:40:58.785Z</time>
      </trkpt>
      <trkpt lat="44.28857" lon="3.35041">
        <ele>806.61</ele>
        <time>2024-11-06T01:41:14.162Z</time>
      </trkpt>
      <trkpt lat="44.28855" lon="3.35044">
        <ele>806.87</ele>
        <time>2024-11-06T01:41:29.540Z</time>
      </trkpt>
      <trkpt lat="44.28851" lon="3.35057">
        <ele>807.14</ele>
        <time>2024-11-06T01:41:44.919Z</time>
      </trkpt>
      <trkpt lat="44.28837" lon="3.35097">
        <ele>807.4</ele>
        <time>2024-11-06T01:42:00.303Z</time>
      </trkpt>
      <trkpt lat="44.2883" lon="3.3512">
        <ele>807.68</ele>
        <time>2024-11-06T01:42:15.690Z</time>
      </trkpt>
      <trkpt lat="44.28824" lon="3.35137">
        <ele>807.96</ele>
        <time>2024-11-06T01:42:31.079Z</time>
      </trkpt>
      <trkpt lat="44.28819" lon="3.35154">
        <ele>808.24</ele>
        <time>2024-11-06T01:42:46.470Z</time>
      </trkpt>
      <trkpt lat="44.28811" lon="3.35177">
        <ele>808.52</ele>
        <time>2024-11-06T01:43:01.864Z</time>
      </trkpt>
      <trkpt lat="44.28808" lon="3.35188">
        <ele>808.83</ele>
        <time>2024-11-06T01:43:17.260Z</time>
      </trkpt>
      <trkpt lat="44.28799" lon="3.35217">
        <ele>809.16</ele>
        <time>2024-11-06T01:43:32.659Z</time>
      </trkpt>
      <trkpt lat="44.28793" lon="3.35234">
        <ele>809.49</ele>
        <time>2024-11-06T01:43:48.061Z</time>
      </trkpt>
      <trkpt lat="44.28789" lon="3.35246">
        <ele>809.82</ele>
        <time>2024-11-06T01:44:03.464Z</time>
      </trkpt>
      <trkpt lat="44.2878" lon="3.35274">
        <ele>810.19</ele>
        <time>2024-11-06T01:44:18.871Z</time>
      </trkpt>
      <trkpt lat="44.28775" lon="3.35292">
        <ele>810.54</ele>
        <time>2024-11-06T01:44:34.280Z</time>
      </trkpt>
      <trkpt lat="44.28758" lon="3.35343">
        <ele>810.81</ele>
        <time>2024-11-06T01:44:49.695Z</time>
      </trkpt>
      <trkpt lat="44.28747" lon="3.35378">
        <ele>811.11</ele>
        <time>2024-11-06T01:45:05.115Z</time>
      </trkpt>
      <trkpt lat="44.28724" lon="3.35452">
        <ele>811.51</ele>
        <time>2024-11-06T01:45:20.544Z</time>
      </trkpt>
      <trkpt lat="44.28716" lon="3.35475">
        <ele>811.87</ele>
        <time>2024-11-06T01:45:35.976Z</time>
      </trkpt>
      <trkpt lat="44.28705" lon="3.3551">
        <ele>812.2</ele>
        <time>2024-11-06T01:45:51.412Z</time>
      </trkpt>
      <trkpt lat="44.28693" lon="3.3555">
        <ele>812.56</ele>
        <time>2024-11-06T01:46:06.853Z</time>
      </trkpt>
      <trkpt lat="44.28682" lon="3.35584">
        <ele>812.91</ele>
        <time>2024-11-06T01:46:22.299Z</time>
      </trkpt>
      <trkpt lat="44.28665" lon="3.35636">
        <ele>813.3</ele>
        <time>2024-11-06T01:46:37.751Z</time>
      </trkpt>
      <trkpt lat="44.2866" lon="3.35652">
        <ele>813.63</ele>
        <time>2024-11-06T01:46:53.205Z</time>
      </trkpt>
      <trkpt lat="44.28651" lon="3.35675">
        <ele>813.94</ele>
        <time>2024-11-06T01:47:08.662Z</time>
      </trkpt>
      <trkpt lat="44.28622" lon="3.35746">
        <ele>814.26</ele>
        <time>2024-11-06T01:47:24.128Z</time>
      </trkpt>
      <trkpt lat="44.28608" lon="3.35778">
        <ele>814.63</ele>
        <time>2024-11-06T01:47:39.599Z</time>
      </trkpt>
      <trkpt lat="44.286" lon="3.358">
        <ele>814.99</ele>
        <time>2024-11-06T01:47:55.073Z</time>
      </trkpt>
      <trkpt lat="44.28593" lon="3.35817">
        <ele>815.33</ele>
        <time>2024-11-06T01:48:10.549Z</time>
      </trkpt>
      <trkpt lat="44.28588" lon="3.35827">
        <ele>815.68</ele>
        <time>2024-11-06T01:48:26.026Z</time>
      </trkpt>
      <trkpt lat="44.28584" lon="3.35838">
        <ele>816.01</ele>
        <time>2024-11-06T01:48:41.505Z</time>
      </trkpt>
      <trkpt lat="44.28559" lon="3.35898">
        <ele>816.41</ele>
        <time>2024-11-06T01:48:56.992Z</time>
      </trkpt>
      <trkpt lat="44.28551" lon="3.35919">
        <ele>816.73</ele>
        <time>2024-11-06T01:49:12.481Z</time>
      </trkpt>
      <trkpt lat="44.28544" lon="3.3593">
        <ele>817.04</ele>
        <time>2024-11-06T01:49:27.972Z</time>
      </trkpt>
      <trkpt lat="44.28531" lon="3.35945">
        <ele>817.36</ele>
        <time>2024-11-06T01:49:43.466Z</time>
      </trkpt>
      <trkpt lat="44.28528" lon="3.35948">
        <ele>817.68</ele>
        <time>2024-11-06T01:49:58.960Z</time>
      </trkpt>
      <trkpt lat="44.28522" lon="3.35953">
        <ele>817.99</ele>
        <time>2024-11-06T01:50:14.455Z</time>
      </trkpt>
      <trkpt lat="44.28489" lon="3.35984">
        <ele>818.3</ele>
        <time>2024-11-06T01:50:29.957Z</time>
      </trkpt>
      <trkpt lat="44.28482" lon="3.3599">
        <ele>818.61</ele>
        <time>2024-11-06T01:50:45.460Z</time>
      </trkpt>
      <trkpt lat="44.28477" lon="3.35999">
        <ele>818.91</ele>
        <time>2024-11-06T01:51:00.964Z</time>
      </trkpt>
      <trkpt lat="44.28477" lon="3.36001">
        <ele>819.23</ele>
        <time>2024-11-06T01:51:16.469Z</time>
      </trkpt>
      <trkpt lat="44.28476" lon="3.36005">
        <ele>819.55</ele>
        <time>2024-11-06T01:51:31.974Z</time>
      </trkpt>
      <trkpt lat="44.28466" lon="3.36008">
        <ele>819.86</ele>
        <time>2024-11-06T01:51:47.481Z</time>
      </trkpt>
      <trkpt lat="44.28459" lon="3.3601">
        <ele>820.2</ele>
        <time>2024-11-06T01:52:02.989Z</time>
      </trkpt>
      <trkpt lat="44.28445" lon="3.36019">
        <ele>820.53</ele>
        <time>2024-11-06T01:52:18.499Z</time>
      </trkpt>
      <trkpt lat="44.28416" lon="3.36036">
        <ele>820.93</ele>
        <time>2024-11-06T01:52:34.014Z</time>
      </trkpt>
      <trkpt lat="44.28408" lon="3.36041">
        <ele>821.26</ele>
        <time>2024-11-06T01:52:49.531Z</time>
      </trkpt>
      <trkpt lat="44.28392" lon="3.36051">
        <ele>821.61</ele>
        <time>2024-11-06T01:53:05.051Z</time>
      </trkpt>
      <trkpt lat="44.28371" lon="3.36064">
        <ele>821.95</ele>
        <time>2024-11-06T01:53:20.574Z</time>
      </trkpt>
      <trkpt lat="44.28351" lon="3.36076">
        <ele>822.31</ele>
        <time>2024-11-06T01:53:36.101Z</time>
      </trkpt>
      <trkpt lat="44.28338" lon="3.36084">
        <ele>822.66</ele>
        <time>2024-11-06T01:53:51.630Z</time>
      </trkpt>
      <trkpt lat="44.28331" lon="3.36089">
        <ele>823.03</ele>
        <time>2024-11-06T01:54:07.160Z</time>
      </trkpt>
      <trkpt lat="44.28302" lon="3.36107">
        <ele>823.47</ele>
        <time>2024-11-06T01:54:22.695Z</time>
      </trkpt>
      <trkpt lat="44.2827" lon="3.36128">
        <ele>823.95</ele>
        <time>2024-11-06T01:54:38.236Z</time>
      </trkpt>
      <trkpt lat="44.28238" lon="3.36149">
        <ele>824.33</ele>
        <time>2024-11-06T01:54:53.783Z</time>
      </trkpt>
      <trkpt lat="44.28229" lon="3.36154">
        <ele>824.73</ele>
        <time>2024-11-06T01:55:09.331Z</time>
      </trkpt>
      <trkpt lat="44.282" lon="3.36169">
        <ele>825.12</ele>
        <time>2024-11-06T01:55:24.884Z</time>
      </trkpt>
      <trkpt lat="44.28159" lon="3.36191">
        <ele>825.62</ele>
        <time>2024-11-06T01:55:40.444Z</time>
      </trkpt>
      <trkpt lat="44.28126" lon="3.36209">
        <ele>826.15</ele>
        <time>2024-11-06T01:55:56.010Z</time>
      </trkpt>
      <trkpt lat="44.28117" lon="3.36213">
        <ele>826.61</ele>
        <time>2024-11-06T01:56:11.577Z</time>
      </trkpt>
      <trkpt lat="44.28101" lon="3.36222">
        <ele>827.08</ele>
        <time>2024-11-06T01:56:27.147Z</time>
      </trkpt>
      <trkpt lat="44.28088" lon="3.36228">
        <ele>827.56</ele>
        <time>2024-11-06T01:56:42.719Z</time>
      </trkpt>
      <trkpt lat="44.28085" lon="3.3623">
        <ele>828.04</ele>
        <time>2024-11-06T01:56:58.292Z</time>
      </trkpt>
      <trkpt lat="44.28075" lon="3.36232">
        <ele>828.52</ele>
        <time>2024-11-06T01:57:13.867Z</time>
      </trkpt>
      <trkpt lat="44.28049" lon="3.36236">
        <ele>829.02</ele>
        <time>2024-11-06T01:57:29.446Z</time>
      </trkpt>
      <trkpt lat="44.28044" lon="3.36237">
        <ele>829.53</ele>
        <time>2024-11-06T01:57:45.026Z</time>
      </trkpt>
      <trkpt lat="44.27991" lon="3.36236">
        <ele>830.08</ele>
        <time>2024-11-06T01:58:00.614Z</time>
      </trkpt>
      <trkpt lat="44.27964" lon="3.36236">
        <ele>830.59</ele>
        <time>2024-11-06T01:58:16.206Z</time>
      </trkpt>
      <trkpt lat="44.27947" lon="3.36235">
        <ele>831.14</ele>
        <time>2024-11-06T01:58:31.801Z</time>
      </trkpt>
      <trkpt lat="44.2794" lon="3.36235">
        <ele>831.69</ele>
        <time>2024-11-06T01:58:47.397Z</time>
      </trkpt>
      <trkpt lat="44.2792" lon="3.36231">
        <ele>832.25</ele>
        <time>2024-11-06T01:59:02.996Z</time>
      </trkpt>
      <trkpt lat="44.27918" lon="3.3623">
        <ele>832.81</ele>
        <time>2024-11-06T01:59:18.596Z</time>
      </trkpt>
      <trkpt lat="44.27902" lon="3.36222">
        <ele>833.4</ele>
        <time>2024-11-06T01:59:34.199Z</time>
      </trkpt>
      <trkpt lat="44.27896" lon="3.36217">
        <ele>834</ele>
        <time>2024-11-06T01:59:49.803Z</time>
      </trkpt>
      <trkpt lat="44.27877" lon="3.36202">
        <ele>834.63</ele>
        <time>2024-11-06T02:00:05.410Z</time>
      </trkpt>
      <trkpt lat="44.27873" lon="3.362">
        <ele>835.24</ele>
        <time>2024-11-06T02:00:21.018Z</time>
      </trkpt>
      <trkpt lat="44.27854" lon="3.36192">
        <ele>835.87</ele>
        <time>2024-11-06T02:00:36.629Z</time>
      </trkpt>
      <trkpt lat="44.27837" lon="3.36189">
        <ele>836.51</ele>
        <time>2024-11-06T02:00:52.243Z</time>
      </trkpt>
      <trkpt lat="44.27835" lon="3.36189">
        <ele>837.15</ele>
        <time>2024-11-06T02:01:07.857Z</time>
      </trkpt>
      <trkpt lat="44.27817" lon="3.3619">
        <ele>837.83</ele>
        <time>2024-11-06T02:01:23.474Z</time>
      </trkpt>
      <trkpt lat="44.27815" lon="3.3619">
        <ele>838.5</ele>
        <time>2024-11-06T02:01:39.091Z</time>
      </trkpt>
      <trkpt lat="44.27804" lon="3.36195">
        <ele>839.2</ele>
        <time>2024-11-06T02:01:54.710Z</time>
      </trkpt>
      <trkpt lat="44.27803" lon="3.36195">
        <ele>839.89</ele>
        <time>2024-11-06T02:02:10.329Z</time>
      </trkpt>
      <trkpt lat="44.27783" lon="3.36205">
        <ele>840.61</ele>
        <time>2024-11-06T02:02:25.952Z</time>
      </trkpt>
      <trkpt lat="44.27775" lon="3.3621">
        <ele>841.32</ele>
        <time>2024-11-06T02:02:41.576Z</time>
      </trkpt>
      <trkpt lat="44.27744" lon="3.36226">
        <ele>842.09</ele>
        <time>2024-11-06T02:02:57.205Z</time>
      </trkpt>
      <trkpt lat="44.27729" lon="3.36233">
        <ele>842.9</ele>
        <time>2024-11-06T02:03:12.837Z</time>
      </trkpt>
      <trkpt lat="44.27716" lon="3.36239">
        <ele>843.68</ele>
        <time>2024-11-06T02:03:28.471Z</time>
      </trkpt>
      <trkpt lat="44.27698" lon="3.36248">
        <ele>844.49</ele>
        <time>2024-11-06T02:03:44.108Z</time>
      </trkpt>
      <trkpt lat="44.2769" lon="3.36251">
        <ele>845.28</ele>
        <time>2024-11-06T02:03:59.746Z</time>
      </trkpt>
      <trkpt lat="44.27674" lon="3.36256">
        <ele>846.1</ele>
        <time>2024-11-06T02:04:15.387Z</time>
      </trkpt>
      <trkpt lat="44.27651" lon="3.36257">
        <ele>846.91</ele>
        <time>2024-11-06T02:04:31.032Z</time>
      </trkpt>
      <trkpt lat="44.27646" lon="3.36256">
        <ele>847.7</ele>
        <time>2024-11-06T02:04:46.678Z</time>
      </trkpt>
      <trkpt lat="44.27584" lon="3.36247">
        <ele>848.56</ele>
        <time>2024-11-06T02:05:02.334Z</time>
      </trkpt>
      <trkpt lat="44.27562" lon="3.36244">
        <ele>849.41</ele>
        <time>2024-11-06T02:05:17.993Z</time>
      </trkpt>
      <trkpt lat="44.2756" lon="3.36244">
        <ele>850.22</ele>
        <time>2024-11-06T02:05:33.652Z</time>
      </trkpt>
      <trkpt lat="44.27544" lon="3.36244">
        <ele>851.06</ele>
        <time>2024-11-06T02:05:49.314Z</time>
      </trkpt>
      <trkpt lat="44.27521" lon="3.36243">
        <ele>851.9</ele>
        <time>2024-11-06T02:06:04.980Z</time>
      </trkpt>
      <trkpt lat="44.27508" lon="3.36243">
        <ele>852.73</ele>
        <time>2024-11-06T02:06:20.648Z</time>
      </trkpt>
      <trkpt lat="44.27481" lon="3.36242">
        <ele>853.58</ele>
        <time>2024-11-06T02:06:36.320Z</time>
      </trkpt>
      <trkpt lat="44.27472" lon="3.36242">
        <ele>854.41</ele>
        <time>2024-11-06T02:06:51.993Z</time>
      </trkpt>
      <trkpt lat="44.27455" lon="3.36237">
        <ele>855.26</ele>
        <time>2024-11-06T02:07:07.669Z</time>
      </trkpt>
      <trkpt lat="44.27444" lon="3.36234">
        <ele>856.1</ele>
        <time>2024-11-06T02:07:23.347Z</time>
      </trkpt>
      <trkpt lat="44.2742" lon="3.36224">
        <ele>856.94</ele>
        <time>2024-11-06T02:07:39.029Z</time>
      </trkpt>
      <trkpt lat="44.27395" lon="3.36211">
        <ele>857.79</ele>
        <time>2024-11-06T02:07:54.715Z</time>
      </trkpt>
      <trkpt lat="44.27379" lon="3.36203">
        <ele>858.62</ele>
        <time>2024-11-06T02:08:10.404Z</time>
      </trkpt>
      <trkpt lat="44.27367" lon="3.36193">
        <ele>859.47</ele>
        <time>2024-11-06T02:08:26.095Z</time>
      </trkpt>
      <trkpt lat="44.27351" lon="3.36181">
        <ele>860.32</ele>
        <time>2024-11-06T02:08:41.789Z</time>
      </trkpt>
      <trkpt lat="44.27311" lon="3.3614">
        <ele>861.23</ele>
        <time>2024-11-06T02:08:57.491Z</time>
      </trkpt>
      <trkpt lat="44.27309" lon="3.36138">
        <ele>862.05</ele>
        <time>2024-11-06T02:09:13.194Z</time>
      </trkpt>
      <trkpt lat="44.27303" lon="3.36128">
        <ele>862.88</ele>
        <time>2024-11-06T02:09:28.898Z</time>
      </trkpt>
      <trkpt lat="44.27294" lon="3.36115">
        <ele>863.7</ele>
        <time>2024-11-06T02:09:44.604Z</time>
      </trkpt>
      <trkpt lat="44.27282" lon="3.36091">
        <ele>864.53</ele>
        <time>2024-11-06T02:10:00.313Z</time>
      </trkpt>
      <trkpt lat="44.27275" lon="3.36077">
        <ele>865.35</ele>
        <time>2024-11-06T02:10:16.024Z</time>
      </trkpt>
      <trkpt lat="44.27265" lon="3.36057">
        <ele>866.18</ele>
        <time>2024-11-06T02:10:31.738Z</time>
      </trkpt>
      <trkpt lat="44.27241" lon="3.36009">
        <ele>867.03</ele>
        <time>2024-11-06T02:10:47.459Z</time>
      </trkpt>
      <trkpt lat="44.2724" lon="3.36006">
        <ele>867.84</ele>
        <time>2024-11-06T02:11:03.180Z</time>
      </trkpt>
      <trkpt lat="44.27235" lon="3.35999">
        <ele>868.67</ele>
        <time>2024-11-06T02:11:18.902Z</time>
      </trkpt>
      <trkpt lat="44.27232" lon="3.35994">
        <ele>869.49</ele>
        <time>2024-11-06T02:11:34.625Z</time>
      </trkpt>
      <trkpt lat="44.27227" lon="3.35986">
        <ele>870.31</ele>
        <time>2024-11-06T02:11:50.349Z</time>
      </trkpt>
      <trkpt lat="44.27218" lon="3.35975">
        <ele>871.14</ele>
        <time>2024-11-06T02:12:06.075Z</time>
      </trkpt>
      <trkpt lat="44.27216" lon="3.35973">
        <ele>871.95</ele>
        <time>2024-11-06T02:12:21.802Z</time>
      </trkpt>
      <trkpt lat="44.27201" lon="3.35959">
        <ele>872.8</ele>
        <time>2024-11-06T02:12:37.532Z</time>
      </trkpt>
      <trkpt lat="44.27182" lon="3.35942">
        <ele>873.66</ele>
        <time>2024-11-06T02:12:53.265Z</time>
      </trkpt>
      <trkpt lat="44.27136" lon="3.359">
        <ele>874.48</ele>
        <time>2024-11-06T02:13:09.007Z</time>
      </trkpt>
      <trkpt lat="44.2713" lon="3.35893">
        <ele>875.29</ele>
        <time>2024-11-06T02:13:24.750Z</time>
      </trkpt>
      <trkpt lat="44.27111" lon="3.35867">
        <ele>876.13</ele>
        <time>2024-11-06T02:13:40.498Z</time>
      </trkpt>
      <trkpt lat="44.27105" lon="3.3586">
        <ele>876.93</ele>
        <time>2024-11-06T02:13:56.247Z</time>
      </trkpt>
      <trkpt lat="44.27092" lon="3.3585">
        <ele>877.74</ele>
        <time>2024-11-06T02:14:11.998Z</time>
      </trkpt>
      <trkpt lat="44.27088" lon="3.35847">
        <ele>878.53</ele>
        <time>2024-11-06T02:14:27.750Z</time>
      </trkpt>
      <trkpt lat="44.27075" lon="3.35842">
        <ele>879.3</ele>
        <time>2024-11-06T02:14:43.504Z</time>
      </trkpt>
      <trkpt lat="44.27068" lon="3.3584">
        <ele>880.09</ele>
        <time>2024-11-06T02:14:59.259Z</time>
      </trkpt>
      <trkpt lat="44.27044" lon="3.35838">
        <ele>880.88</ele>
        <time>2024-11-06T02:15:15.018Z</time>
      </trkpt>
      <trkpt lat="44.27008" lon="3.35835">
        <ele>881.72</ele>
        <time>2024-11-06T02:15:30.783Z</time>
      </trkpt>
      <trkpt lat="44.26963" lon="3.35831">
        <ele>882.61</ele>
        <time>2024-11-06T02:15:46.555Z</time>
      </trkpt>
      <trkpt lat="44.26958" lon="3.35831">
        <ele>883.37</ele>
        <time>2024-11-06T02:16:02.328Z</time>
      </trkpt>
      <trkpt lat="44.26954" lon="3.3583">
        <ele>884.13</ele>
        <time>2024-11-06T02:16:18.101Z</time>
      </trkpt>
      <trkpt lat="44.26945" lon="3.35827">
        <ele>884.89</ele>
        <time>2024-11-06T02:16:33.876Z</time>
      </trkpt>
      <trkpt lat="44.26931" lon="3.3582">
        <ele>885.66</ele>
        <time>2024-11-06T02:16:49.653Z</time>
      </trkpt>
      <trkpt lat="44.26909" lon="3.35804">
        <ele>886.44</ele>
        <time>2024-11-06T02:17:05.434Z</time>
      </trkpt>
      <trkpt lat="44.26903" lon="3.35799">
        <ele>887.14</ele>
        <time>2024-11-06T02:17:21.216Z</time>
      </trkpt>
      <trkpt lat="44.26883" lon="3.35774">
        <ele>887.86</ele>
        <time>2024-11-06T02:17:37.003Z</time>
      </trkpt>
      <trkpt lat="44.26879" lon="3.35767">
        <ele>888.55</ele>
        <time>2024-11-06T02:17:52.791Z</time>
      </trkpt>
      <trkpt lat="44.26852" lon="3.35725">
        <ele>889.25</ele>
        <time>2024-11-06T02:18:08.585Z</time>
      </trkpt>
      <trkpt lat="44.26823" lon="3.35679">
        <ele>889.88</ele>
        <time>2024-11-06T02:18:24.386Z</time>
      </trkpt>
      <trkpt lat="44.26814" lon="3.35665">
        <ele>890.51</ele>
        <time>2024-11-06T02:18:40.189Z</time>
      </trkpt>
      <trkpt lat="44.26808" lon="3.35655">
        <ele>891.15</ele>
        <time>2024-11-06T02:18:55.994Z</time>
      </trkpt>
      <trkpt lat="44.26789" lon="3.35621">
        <ele>891.81</ele>
        <time>2024-11-06T02:19:11.804Z</time>
      </trkpt>
      <trkpt lat="44.26788" lon="3.35618">
        <ele>892.41</ele>
        <time>2024-11-06T02:19:27.614Z</time>
      </trkpt>
      <trkpt lat="44.26784" lon="3.35611">
        <ele>892.99</ele>
        <time>2024-11-06T02:19:43.425Z</time>
      </trkpt>
      <trkpt lat="44.26776" lon="3.35598">
        <ele>893.57</ele>
        <time>2024-11-06T02:19:59.238Z</time>
      </trkpt>
      <trkpt lat="44.26775" lon="3.35597">
        <ele>894.12</ele>
        <time>2024-11-06T02:20:15.051Z</time>
      </trkpt>
      <trkpt lat="44.26768" lon="3.3559">
        <ele>894.67</ele>
        <time>2024-11-06T02:20:30.866Z</time>
      </trkpt>
      <trkpt lat="44.26764" lon="3.35588">
        <ele>895.2</ele>
        <time>2024-11-06T02:20:46.682Z</time>
      </trkpt>
      <trkpt lat="44.2675" lon="3.3558">
        <ele>895.72</ele>
        <time>2024-11-06T02:21:02.500Z</time>
      </trkpt>
      <trkpt lat="44.26739" lon="3.35577">
        <ele>896.25</ele>
        <time>2024-11-06T02:21:18.320Z</time>
      </trkpt>
      <trkpt lat="44.26732" lon="3.35575">
        <ele>896.77</ele>
        <time>2024-11-06T02:21:34.141Z</time>
      </trkpt>
      <trkpt lat="44.26708" lon="3.35577">
        <ele>897.3</ele>
        <time>2024-11-06T02:21:49.966Z</time>
      </trkpt>
      <trkpt lat="44.26695" lon="3.35579">
        <ele>897.83</ele>
        <time>2024-11-06T02:22:05.793Z</time>
      </trkpt>
      <trkpt lat="44.26683" lon="3.3558">
        <ele>898.34</ele>
        <time>2024-11-06T02:22:21.622Z</time>
      </trkpt>
      <trkpt lat="44.26671" lon="3.35579">
        <ele>898.84</ele>
        <time>2024-11-06T02:22:37.453Z</time>
      </trkpt>
      <trkpt lat="44.26664" lon="3.35577">
        <ele>899.32</ele>
        <time>2024-11-06T02:22:53.285Z</time>
      </trkpt>
      <trkpt lat="44.26661" lon="3.35576">
        <ele>899.8</ele>
        <time>2024-11-06T02:23:09.117Z</time>
      </trkpt>
      <trkpt lat="44.26656" lon="3.35574">
        <ele>900.26</ele>
        <time>2024-11-06T02:23:24.950Z</time>
      </trkpt>
      <trkpt lat="44.26643" lon="3.35568">
        <ele>900.72</ele>
        <time>2024-11-06T02:23:40.785Z</time>
      </trkpt>
      <trkpt lat="44.26635" lon="3.35564">
        <ele>901.18</ele>
        <time>2024-11-06T02:23:56.622Z</time>
      </trkpt>
      <trkpt lat="44.26622" lon="3.35558">
        <ele>901.66</ele>
        <time>2024-11-06T02:24:12.461Z</time>
      </trkpt>
      <trkpt lat="44.26609" lon="3.35552">
        <ele>902.13</ele>
        <time>2024-11-06T02:24:28.302Z</time>
      </trkpt>
      <trkpt lat="44.26597" lon="3.35546">
        <ele>902.64</ele>
        <time>2024-11-06T02:24:44.145Z</time>
      </trkpt>
      <trkpt lat="44.26581" lon="3.35539">
        <ele>903.17</ele>
        <time>2024-11-06T02:24:59.991Z</time>
      </trkpt>
      <trkpt lat="44.26579" lon="3.35538">
        <ele>903.66</ele>
        <time>2024-11-06T02:25:15.837Z</time>
      </trkpt>
      <trkpt lat="44.2656" lon="3.35528">
        <ele>904.18</ele>
        <time>2024-11-06T02:25:31.686Z</time>
      </trkpt>
      <trkpt lat="44.2655" lon="3.35522">
        <ele>904.68</ele>
        <time>2024-11-06T02:25:47.537Z</time>
      </trkpt>
      <trkpt lat="44.26531" lon="3.35507">
        <ele>905.17</ele>
        <time>2024-11-06T02:26:03.392Z</time>
      </trkpt>
      <trkpt lat="44.26529" lon="3.35504">
        <ele>905.67</ele>
        <time>2024-11-06T02:26:19.247Z</time>
      </trkpt>
      <trkpt lat="44.26502" lon="3.35471">
        <ele>906.21</ele>
        <time>2024-11-06T02:26:35.108Z</time>
      </trkpt>
      <trkpt lat="44.26488" lon="3.35453">
        <ele>906.76</ele>
        <time>2024-11-06T02:26:50.972Z</time>
      </trkpt>
      <trkpt lat="44.2645" lon="3.35421">
        <ele>907.28</ele>
        <time>2024-11-06T02:27:06.843Z</time>
      </trkpt>
      <trkpt lat="44.26435" lon="3.35408">
        <ele>907.82</ele>
        <time>2024-11-06T02:27:22.717Z</time>
      </trkpt>
      <trkpt lat="44.26417" lon="3.35393">
        <ele>908.41</ele>
        <time>2024-11-06T02:27:38.594Z</time>
      </trkpt>
      <trkpt lat="44.26389" lon="3.35369">
        <ele>909.04</ele>
        <time>2024-11-06T02:27:54.476Z</time>
      </trkpt>
      <trkpt lat="44.26373" lon="3.35356">
        <ele>909.64</ele>
        <time>2024-11-06T02:28:10.361Z</time>
      </trkpt>
      <trkpt lat="44.26367" lon="3.35351">
        <ele>910.22</ele>
        <time>2024-11-06T02:28:26.248Z</time>
      </trkpt>
      <trkpt lat="44.26349" lon="3.35341">
        <ele>910.83</ele>
        <time>2024-11-06T02:28:42.138Z</time>
      </trkpt>
      <trkpt lat="44.26339" lon="3.35336">
        <ele>911.45</ele>
        <time>2024-11-06T02:28:58.029Z</time>
      </trkpt>
      <trkpt lat="44.26336" lon="3.35335">
        <ele>912.06</ele>
        <time>2024-11-06T02:29:13.921Z</time>
      </trkpt>
      <trkpt lat="44.26323" lon="3.35333">
        <ele>912.7</ele>
        <time>2024-11-06T02:29:29.815Z</time>
      </trkpt>
      <trkpt lat="44.2632" lon="3.35332">
        <ele>913.33</ele>
        <time>2024-11-06T02:29:45.709Z</time>
      </trkpt>
      <trkpt lat="44.26309" lon="3.35332">
        <ele>913.98</ele>
        <time>2024-11-06T02:30:01.605Z</time>
      </trkpt>
      <trkpt lat="44.26294" lon="3.35332">
        <ele>914.67</ele>
        <time>2024-11-06T02:30:17.504Z</time>
      </trkpt>
      <trkpt lat="44.26287" lon="3.35334">
        <ele>915.34</ele>
        <time>2024-11-06T02:30:33.404Z</time>
      </trkpt>
      <trkpt lat="44.26274" lon="3.35338">
        <ele>916.05</ele>
        <time>2024-11-06T02:30:49.306Z</time>
      </trkpt>
      <trkpt lat="44.26265" lon="3.3534">
        <ele>916.74</ele>
        <time>2024-11-06T02:31:05.209Z</time>
      </trkpt>
      <trkpt lat="44.26232" lon="3.35349">
        <ele>917.46</ele>
        <time>2024-11-06T02:31:21.118Z</time>
      </trkpt>
      <trkpt lat="44.26225" lon="3.3535">
        <ele>918.2</ele>
        <time>2024-11-06T02:31:37.028Z</time>
      </trkpt>
      <trkpt lat="44.26222" lon="3.3535">
        <ele>918.95</ele>
        <time>2024-11-06T02:31:52.938Z</time>
      </trkpt>
      <trkpt lat="44.26189" lon="3.35348">
        <ele>919.79</ele>
        <time>2024-11-06T02:32:08.853Z</time>
      </trkpt>
      <trkpt lat="44.26171" lon="3.35347">
        <ele>920.59</ele>
        <time>2024-11-06T02:32:24.771Z</time>
      </trkpt>
      <trkpt lat="44.2614" lon="3.35344">
        <ele>921.43</ele>
        <time>2024-11-06T02:32:40.694Z</time>
      </trkpt>
      <trkpt lat="44.26122" lon="3.35343">
        <ele>922.3</ele>
        <time>2024-11-06T02:32:56.620Z</time>
      </trkpt>
      <trkpt lat="44.26113" lon="3.35342">
        <ele>923.16</ele>
        <time>2024-11-06T02:33:12.548Z</time>
      </trkpt>
      <trkpt lat="44.261" lon="3.35342">
        <ele>924.05</ele>
        <time>2024-11-06T02:33:28.478Z</time>
      </trkpt>
      <trkpt lat="44.26064" lon="3.35339">
        <ele>924.99</ele>
        <time>2024-11-06T02:33:44.414Z</time>
      </trkpt>
      <trkpt lat="44.2605" lon="3.35338">
        <ele>925.92</ele>
        <time>2024-11-06T02:34:00.352Z</time>
      </trkpt>
      <trkpt lat="44.26037" lon="3.35339">
        <ele>926.87</ele>
        <time>2024-11-06T02:34:16.292Z</time>
      </trkpt>
      <trkpt lat="44.26031" lon="3.3534">
        <ele>927.81</ele>
        <time>2024-11-06T02:34:32.233Z</time>
      </trkpt>
      <trkpt lat="44.26023" lon="3.35343">
        <ele>928.75</ele>
        <time>2024-11-06T02:34:48.175Z</time>
      </trkpt>
      <trkpt lat="44.26007" lon="3.35352">
        <ele>929.73</ele>
        <time>2024-11-06T02:35:04.120Z</time>
      </trkpt>
      <trkpt lat="44.26006" lon="3.35353">
        <ele>930.7</ele>
        <time>2024-11-06T02:35:20.065Z</time>
      </trkpt>
      <trkpt lat="44.25997" lon="3.35364">
        <ele>931.69</ele>
        <time>2024-11-06T02:35:36.012Z</time>
      </trkpt>
      <trkpt lat="44.25982" lon="3.35379">
        <ele>932.69</ele>
        <time>2024-11-06T02:35:51.962Z</time>
      </trkpt>
      <trkpt lat="44.25975" lon="3.35387">
        <ele>933.7</ele>
        <time>2024-11-06T02:36:07.913Z</time>
      </trkpt>
      <trkpt lat="44.25961" lon="3.35402">
        <ele>934.74</ele>
        <time>2024-11-06T02:36:23.867Z</time>
      </trkpt>
      <trkpt lat="44.25949" lon="3.35416">
        <ele>935.8</ele>
        <time>2024-11-06T02:36:39.824Z</time>
      </trkpt>
      <trkpt lat="44.25943" lon="3.35421">
        <ele>936.87</ele>
        <time>2024-11-06T02:36:55.782Z</time>
      </trkpt>
      <trkpt lat="44.25928" lon="3.35435">
        <ele>937.98</ele>
        <time>2024-11-06T02:37:11.743Z</time>
      </trkpt>
      <trkpt lat="44.25918" lon="3.3544">
        <ele>939.1</ele>
        <time>2024-11-06T02:37:27.706Z</time>
      </trkpt>
      <trkpt lat="44.25916" lon="3.3544">
        <ele>940.22</ele>
        <time>2024-11-06T02:37:43.669Z</time>
      </trkpt>
      <trkpt lat="44.25907" lon="3.35442">
        <ele>941.36</ele>
        <time>2024-11-06T02:37:59.633Z</time>
      </trkpt>
      <trkpt lat="44.25905" lon="3.35442">
        <ele>942.5</ele>
        <time>2024-11-06T02:38:15.598Z</time>
      </trkpt>
      <trkpt lat="44.25898" lon="3.35444">
        <ele>943.66</ele>
        <time>2024-11-06T02:38:31.564Z</time>
      </trkpt>
      <trkpt lat="44.25881" lon="3.35443">
        <ele>944.86</ele>
        <time>2024-11-06T02:38:47.533Z</time>
      </trkpt>
      <trkpt lat="44.25872" lon="3.35443">
        <ele>946.03</ele>
        <time>2024-11-06T02:39:03.503Z</time>
      </trkpt>
      <trkpt lat="44.25827" lon="3.3544">
        <ele>947.31</ele>
        <time>2024-11-06T02:39:19.480Z</time>
      </trkpt>
      <trkpt lat="44.25808" lon="3.35439">
        <ele>948.54</ele>
        <time>2024-11-06T02:39:35.460Z</time>
      </trkpt>
      <trkpt lat="44.25774" lon="3.3544">
        <ele>949.83</ele>
        <time>2024-11-06T02:39:51.446Z</time>
      </trkpt>
      <trkpt lat="44.2575" lon="3.35449">
        <ele>951.06</ele>
        <time>2024-11-06T02:40:07.436Z</time>
      </trkpt>
      <trkpt lat="44.25738" lon="3.35456">
        <ele>952.27</ele>
        <time>2024-11-06T02:40:23.428Z</time>
      </trkpt>
      <trkpt lat="44.25715" lon="3.35472">
        <ele>953.51</ele>
        <time>2024-11-06T02:40:39.424Z</time>
      </trkpt>
      <trkpt lat="44.25691" lon="3.35489">
        <ele>954.73</ele>
        <time>2024-11-06T02:40:55.424Z</time>
      </trkpt>
      <trkpt lat="44.25675" lon="3.35501">
        <ele>955.96</ele>
        <time>2024-11-06T02:41:11.427Z</time>
      </trkpt>
      <trkpt lat="44.25651" lon="3.35517">
        <ele>957.22</ele>
        <time>2024-11-06T02:41:27.434Z</time>
      </trkpt>
      <trkpt lat="44.25603" lon="3.35551">
        <ele>958.54</ele>
        <time>2024-11-06T02:41:43.450Z</time>
      </trkpt>
      <trkpt lat="44.25579" lon="3.35568">
        <ele>959.72</ele>
        <time>2024-11-06T02:41:59.470Z</time>
      </trkpt>
      <trkpt lat="44.25576" lon="3.3557">
        <ele>960.82</ele>
        <time>2024-11-06T02:42:15.491Z</time>
      </trkpt>
      <trkpt lat="44.25551" lon="3.35589">
        <ele>961.92</ele>
        <time>2024-11-06T02:42:31.516Z</time>
      </trkpt>
      <trkpt lat="44.25528" lon="3.35607">
        <ele>962.98</ele>
        <time>2024-11-06T02:42:47.546Z</time>
      </trkpt>
      <trkpt lat="44.25498" lon="3.35629">
        <ele>964.06</ele>
        <time>2024-11-06T02:43:03.581Z</time>
      </trkpt>
      <trkpt lat="44.25492" lon="3.35632">
        <ele>965.08</ele>
        <time>2024-11-06T02:43:19.617Z</time>
      </trkpt>
      <trkpt lat="44.25486" lon="3.35635">
        <ele>966.06</ele>
        <time>2024-11-06T02:43:35.654Z</time>
      </trkpt>
      <trkpt lat="44.2547" lon="3.3564">
        <ele>967.03</ele>
        <time>2024-11-06T02:43:51.694Z</time>
      </trkpt>
      <trkpt lat="44.25467" lon="3.35641">
        <ele>967.95</ele>
        <time>2024-11-06T02:44:07.734Z</time>
      </trkpt>
      <trkpt lat="44.25449" lon="3.35641">
        <ele>968.87</ele>
        <time>2024-11-06T02:44:23.777Z</time>
      </trkpt>
      <trkpt lat="44.25445" lon="3.3564">
        <ele>969.72</ele>
        <time>2024-11-06T02:44:39.821Z</time>
      </trkpt>
      <trkpt lat="44.25439" lon="3.35638">
        <ele>970.55</ele>
        <time>2024-11-06T02:44:55.866Z</time>
      </trkpt>
      <trkpt lat="44.25437" lon="3.35637">
        <ele>971.33</ele>
        <time>2024-11-06T02:45:11.911Z</time>
      </trkpt>
      <trkpt lat="44.25429" lon="3.35632">
        <ele>972.08</ele>
        <time>2024-11-06T02:45:27.957Z</time>
      </trkpt>
      <trkpt lat="44.25426" lon="3.3563">
        <ele>972.79</ele>
        <time>2024-11-06T02:45:44.004Z</time>
      </trkpt>
      <trkpt lat="44.25418" lon="3.35623">
        <ele>973.47</ele>
        <time>2024-11-06T02:46:00.052Z</time>
      </trkpt>
      <trkpt lat="44.2541" lon="3.35617">
        <ele>974.12</ele>
        <time>2024-11-06T02:46:16.102Z</time>
      </trkpt>
      <trkpt lat="44.25409" lon="3.35616">
        <ele>974.72</ele>
        <time>2024-11-06T02:46:32.152Z</time>
      </trkpt>
      <trkpt lat="44.25403" lon="3.3561">
        <ele>975.27</ele>
        <time>2024-11-06T02:46:48.203Z</time>
      </trkpt>
      <trkpt lat="44.25401" lon="3.35607">
        <ele>975.8</ele>
        <time>2024-11-06T02:47:04.255Z</time>
      </trkpt>
      <trkpt lat="44.25398" lon="3.35601">
        <ele>976.29</ele>
        <time>2024-11-06T02:47:20.308Z</time>
      </trkpt>
      <trkpt lat="44.25396" lon="3.35597">
        <ele>976.75</ele>
        <time>2024-11-06T02:47:36.361Z</time>
      </trkpt>
      <trkpt lat="44.25392" lon="3.35584">
        <ele>977.19</ele>
        <time>2024-11-06T02:47:52.416Z</time>
      </trkpt>
      <trkpt lat="44.25386" lon="3.35563">
        <ele>977.59</ele>
        <time>2024-11-06T02:48:08.473Z</time>
      </trkpt>
      <trkpt lat="44.25384" lon="3.35548">
        <ele>977.97</ele>
        <time>2024-11-06T02:48:24.532Z</time>
      </trkpt>
      <trkpt lat="44.25382" lon="3.35536">
        <ele>978.32</ele>
        <time>2024-11-06T02:48:40.592Z</time>
      </trkpt>
      <trkpt lat="44.25382" lon="3.35534">
        <ele>978.64</ele>
        <time>2024-11-06T02:48:56.653Z</time>
      </trkpt>
      <trkpt lat="44.25383" lon="3.35492">
        <ele>978.99</ele>
        <time>2024-11-06T02:49:12.719Z</time>
      </trkpt>
      <trkpt lat="44.25385" lon="3.35461">
        <ele>979.28</ele>
        <time>2024-11-06T02:49:28.788Z</time>
      </trkpt>
      <trkpt lat="44.25385" lon="3.35446">
        <ele>979.52</ele>
        <time>2024-11-06T02:49:44.859Z</time>
      </trkpt>
      <trkpt lat="44.25385" lon="3.35442">
        <ele>979.73</ele>
        <time>2024-11-06T02:50:00.930Z</time>
      </trkpt>
      <trkpt lat="44.25383" lon="3.35417">
        <ele>979.94</ele>
        <time>2024-11-06T02:50:17.004Z</time>
      </trkpt>
      <trkpt lat="44.25383" lon="3.35417">
        <ele>980.1</ele>
        <time>2024-11-06T02:50:33.078Z</time>
      </trkpt>
      <trkpt lat="44.25381" lon="3.35405">
        <ele>980.25</ele>
        <time>2024-11-06T02:50:49.154Z</time>
      </trkpt>
      <trkpt lat="44.2538" lon="3.35402">
        <ele>980.38</ele>
        <time>2024-11-06T02:51:05.230Z</time>
      </trkpt>
      <trkpt lat="44.2537" lon="3.35376">
        <ele>980.5</ele>
        <time>2024-11-06T02:51:21.309Z</time>
      </trkpt>
      <trkpt lat="44.25362" lon="3.35362">
        <ele>980.61</ele>
        <time>2024-11-06T02:51:37.390Z</time>
      </trkpt>
      <trkpt lat="44.25342" lon="3.35336">
        <ele>980.7</ele>
        <time>2024-11-06T02:51:53.476Z</time>
      </trkpt>
      <trkpt lat="44.25319" lon="3.35317">
        <ele>980.73</ele>
        <time>2024-11-06T02:52:09.566Z</time>
      </trkpt>
      <trkpt lat="44.25315" lon="3.35316">
        <ele>980.75</ele>
        <time>2024-11-06T02:52:25.657Z</time>
      </trkpt>
      <trkpt lat="44.25301" lon="3.35311">
        <ele>980.74</ele>
        <time>2024-11-06T02:52:41.750Z</time>
      </trkpt>
      <trkpt lat="44.25288" lon="3.35311">
        <ele>980.73</ele>
        <time>2024-11-06T02:52:57.845Z</time>
      </trkpt>
      <trkpt lat="44.25281" lon="3.35311">
        <ele>980.71</ele>
        <time>2024-11-06T02:53:13.941Z</time>
      </trkpt>
      <trkpt lat="44.2527" lon="3.35313">
        <ele>980.67</ele>
        <time>2024-11-06T02:53:30.039Z</time>
      </trkpt>
      <trkpt lat="44.25244" lon="3.35318">
        <ele>980.63</ele>
        <time>2024-11-06T02:53:46.141Z</time>
      </trkpt>
      <trkpt lat="44.25238" lon="3.35319">
        <ele>980.57</ele>
        <time>2024-11-06T02:54:02.244Z</time>
      </trkpt>
      <trkpt lat="44.25235" lon="3.35319">
        <ele>980.51</ele>
        <time>2024-11-06T02:54:18.348Z</time>
      </trkpt>
      <trkpt lat="44.25225" lon="3.3532">
        <ele>980.43</ele>
        <time>2024-11-06T02:54:34.453Z</time>
      </trkpt>
      <trkpt lat="44.25203" lon="3.35319">
        <ele>980.38</ele>
        <time>2024-11-06T02:54:50.562Z</time>
      </trkpt>
      <trkpt lat="44.25195" lon="3.35318">
        <ele>980.3</ele>
        <time>2024-11-06T02:55:06.672Z</time>
      </trkpt>
      <trkpt lat="44.25186" lon="3.35318">
        <ele>980.22</ele>
        <time>2024-11-06T02:55:22.784Z</time>
      </trkpt>
      <trkpt lat="44.25177" lon="3.35317">
        <ele>980.12</ele>
        <time>2024-11-06T02:55:38.897Z</time>
      </trkpt>
      <trkpt lat="44.2515" lon="3.35315">
        <ele>980.04</ele>
        <time>2024-11-06T02:55:55.014Z</time>
      </trkpt>
      <trkpt lat="44.25147" lon="3.35315">
        <ele>979.93</ele>
        <time>2024-11-06T02:56:11.132Z</time>
      </trkpt>
      <trkpt lat="44.25127" lon="3.35317">
        <ele>979.81</ele>
        <time>2024-11-06T02:56:27.253Z</time>
      </trkpt>
      <trkpt lat="44.251" lon="3.35319">
        <ele>979.64</ele>
        <time>2024-11-06T02:56:43.378Z</time>
      </trkpt>
      <trkpt lat="44.25091" lon="3.35319">
        <ele>979.52</ele>
        <time>2024-11-06T02:56:59.505Z</time>
      </trkpt>
      <trkpt lat="44.25083" lon="3.3532">
        <ele>979.39</ele>
        <time>2024-11-06T02:57:15.633Z</time>
      </trkpt>
      <trkpt lat="44.25056" lon="3.35323">
        <ele>979.29</ele>
        <time>2024-11-06T02:57:31.765Z</time>
      </trkpt>
      <trkpt lat="44.25047" lon="3.35324">
        <ele>979.19</ele>
        <time>2024-11-06T02:57:47.899Z</time>
      </trkpt>
      <trkpt lat="44.25038" lon="3.35325">
        <ele>979.09</ele>
        <time>2024-11-06T02:58:04.034Z</time>
      </trkpt>
      <trkpt lat="44.2502" lon="3.35327">
        <ele>979.01</ele>
        <time>2024-11-06T02:58:20.172Z</time>
      </trkpt>
      <trkpt lat="44.25011" lon="3.35328">
        <ele>978.9</ele>
        <time>2024-11-06T02:58:36.312Z</time>
      </trkpt>
      <trkpt lat="44.24975" lon="3.35331">
        <ele>978.74</ele>
        <time>2024-11-06T02:58:52.457Z</time>
      </trkpt>
      <trkpt lat="44.24966" lon="3.35332">
        <ele>978.62</ele>
        <time>2024-11-06T02:59:08.604Z</time>
      </trkpt>
      <trkpt lat="44.24957" lon="3.35333">
        <ele>978.53</ele>
        <time>2024-11-06T02:59:24.752Z</time>
      </trkpt>
      <trkpt lat="44.24949" lon="3.35334">
        <ele>978.44</ele>
        <time>2024-11-06T02:59:40.902Z</time>
      </trkpt>
      <trkpt lat="44.24939" lon="3.35334">
        <ele>978.36</ele>
        <time>2024-11-06T02:59:57.053Z</time>
      </trkpt>
      <trkpt lat="44.24926" lon="3.35333">
        <ele>978.26</ele>
        <time>2024-11-06T03:00:13.206Z</time>
      </trkpt>
      <trkpt lat="44.24923" lon="3.35333">
        <ele>978.18</ele>
        <time>2024-11-06T03:00:29.360Z</time>
      </trkpt>
      <trkpt lat="44.24916" lon="3.35331">
        <ele>978.11</ele>
        <time>2024-11-06T03:00:45.515Z</time>
      </trkpt>
      <trkpt lat="44.24901" lon="3.35327">
        <ele>978.05</ele>
        <time>2024-11-06T03:01:01.672Z</time>
      </trkpt>
      <trkpt lat="44.24894" lon="3.35324">
        <ele>977.99</ele>
        <time>2024-11-06T03:01:17.830Z</time>
      </trkpt>
      <trkpt lat="44.24886" lon="3.3532">
        <ele>977.94</ele>
        <time>2024-11-06T03:01:33.990Z</time>
      </trkpt>
      <trkpt lat="44.24882" lon="3.35318">
        <ele>977.91</ele>
        <time>2024-11-06T03:01:50.151Z</time>
      </trkpt>
      <trkpt lat="44.24878" lon="3.35316">
        <ele>977.89</ele>
        <time>2024-11-06T03:02:06.312Z</time>
      </trkpt>
      <trkpt lat="44.24873" lon="3.35313">
        <ele>977.87</ele>
        <time>2024-11-06T03:02:22.474Z</time>
      </trkpt>
      <trkpt lat="44.24861" lon="3.35305">
        <ele>977.86</ele>
        <time>2024-11-06T03:02:38.638Z</time>
      </trkpt>
      <trkpt lat="44.24853" lon="3.35299">
        <ele>977.88</ele>
        <time>2024-11-06T03:02:54.804Z</time>
      </trkpt>
      <trkpt lat="44.24849" lon="3.35296">
        <ele>977.9</ele>
        <time>2024-11-06T03:03:10.970Z</time>
      </trkpt>
      <trkpt lat="44.24844" lon="3.35293">
        <ele>977.94</ele>
        <time>2024-11-06T03:03:27.137Z</time>
      </trkpt>
      <trkpt lat="44.24841" lon="3.35291">
        <ele>977.98</ele>
        <time>2024-11-06T03:03:43.305Z</time>
      </trkpt>
      <trkpt lat="44.24832" lon="3.35287">
        <ele>978.04</ele>
        <time>2024-11-06T03:03:59.474Z</time>
      </trkpt>
      <trkpt lat="44.2482" lon="3.35281">
        <ele>978.1</ele>
        <time>2024-11-06T03:04:15.645Z</time>
      </trkpt>
      <trkpt lat="44.24808" lon="3.35275">
        <ele>978.18</ele>
        <time>2024-11-06T03:04:31.818Z</time>
      </trkpt>
      <trkpt lat="44.24807" lon="3.35275">
        <ele>978.26</ele>
        <time>2024-11-06T03:04:47.991Z</time>
      </trkpt>
      <trkpt lat="44.24794" lon="3.35271">
        <ele>978.35</ele>
        <time>2024-11-06T03:05:04.167Z</time>
      </trkpt>
      <trkpt lat="44.24786" lon="3.35268">
        <ele>978.46</ele>
        <time>2024-11-06T03:05:20.344Z</time>
      </trkpt>
      <trkpt lat="44.24785" lon="3.35268">
        <ele>978.57</ele>
        <time>2024-11-06T03:05:36.521Z</time>
      </trkpt>
      <trkpt lat="44.24781" lon="3.35267">
        <ele>978.68</ele>
        <time>2024-11-06T03:05:52.699Z</time>
      </trkpt>
      <trkpt lat="44.24772" lon="3.35265">
        <ele>978.81</ele>
        <time>2024-11-06T03:06:08.878Z</time>
      </trkpt>
      <trkpt lat="44.24759" lon="3.35262">
        <ele>978.95</ele>
        <time>2024-11-06T03:06:25.059Z</time>
      </trkpt>
      <trkpt lat="44.24732" lon="3.35256">
        <ele>979.15</ele>
        <time>2024-11-06T03:06:41.245Z</time>
      </trkpt>
      <trkpt lat="44.24723" lon="3.35253">
        <ele>979.32</ele>
        <time>2024-11-06T03:06:57.432Z</time>
      </trkpt>
      <trkpt lat="44.24704" lon="3.35249">
        <ele>979.52</ele>
        <time>2024-11-06T03:07:13.622Z</time>
      </trkpt>
      <trkpt lat="44.24697" lon="3.35249">
        <ele>979.7</ele>
        <time>2024-11-06T03:07:29.813Z</time>
      </trkpt>
      <trkpt lat="44.24688" lon="3.35248">
        <ele>979.89</ele>
        <time>2024-11-06T03:07:46.006Z</time>
      </trkpt>
      <trkpt lat="44.24679" lon="3.35248">
        <ele>980.06</ele>
        <time>2024-11-06T03:08:02.200Z</time>
      </trkpt>
      <trkpt lat="44.2467" lon="3.35247">
        <ele>980.24</ele>
        <time>2024-11-06T03:08:18.396Z</time>
      </trkpt>
      <trkpt lat="44.2467" lon="3.35247">
        <ele>980.42</ele>
        <time>2024-11-06T03:08:34.592Z</time>
      </trkpt>
      <trkpt lat="44.24661" lon="3.35249">
        <ele>980.6</ele>
        <time>2024-11-06T03:08:50.789Z</time>
      </trkpt>
      <trkpt lat="44.24658" lon="3.3525">
        <ele>980.79</ele>
        <time>2024-11-06T03:09:06.987Z</time>
      </trkpt>
      <trkpt lat="44.24657" lon="3.35251">
        <ele>980.99</ele>
        <time>2024-11-06T03:09:23.185Z</time>
      </trkpt>
      <trkpt lat="44.24648" lon="3.35255">
        <ele>981.19</ele>
        <time>2024-11-06T03:09:39.384Z</time>
      </trkpt>
      <trkpt lat="44.24639" lon="3.3526">
        <ele>981.4</ele>
        <time>2024-11-06T03:09:55.585Z</time>
      </trkpt>
      <trkpt lat="44.24636" lon="3.35263">
        <ele>981.61</ele>
        <time>2024-11-06T03:10:11.786Z</time>
      </trkpt>
      <trkpt lat="44.24625" lon="3.35274">
        <ele>981.84</ele>
        <time>2024-11-06T03:10:27.990Z</time>
      </trkpt>
      <trkpt lat="44.24617" lon="3.35281">
        <ele>982.05</ele>
        <time>2024-11-06T03:10:44.195Z</time>
      </trkpt>
      <trkpt lat="44.24614" lon="3.35284">
        <ele>982.27</ele>
        <time>2024-11-06T03:11:00.401Z</time>
      </trkpt>
      <trkpt lat="44.2461" lon="3.35288">
        <ele>982.5</ele>
        <time>2024-11-06T03:11:16.608Z</time>
      </trkpt>
      <trkpt lat="44.246" lon="3.35301">
        <ele>982.74</ele>
        <time>2024-11-06T03:11:32.817Z</time>
      </trkpt>
      <trkpt lat="44.24597" lon="3.35305">
        <ele>982.96</ele>
        <time>2024-11-06T03:11:49.026Z</time>
      </trkpt>
      <trkpt lat="44.2459" lon="3.35313">
        <ele>983.17</ele>
        <time>2024-11-06T03:12:05.237Z</time>
      </trkpt>
      <trkpt lat="44.24569" lon="3.35337">
        <ele>983.44</ele>
        <time>2024-11-06T03:12:21.452Z</time>
      </trkpt>
      <trkpt lat="44.24559" lon="3.35349">
        <ele>983.68</ele>
        <time>2024-11-06T03:12:37.669Z</time>
      </trkpt>
      <trkpt lat="44.24554" lon="3.35355">
        <ele>983.91</ele>
        <time>2024-11-06T03:12:53.887Z</time>
      </trkpt>
      <trkpt lat="44.24549" lon="3.35362">
        <ele>984.15</ele>
        <time>2024-11-06T03:13:10.106Z</time>
      </trkpt>
      <trkpt lat="44.24537" lon="3.3538">
        <ele>984.36</ele>
        <time>2024-11-06T03:13:26.328Z</time>
      </trkpt>
      <trkpt lat="44.24535" lon="3.35383">
        <ele>984.63</ele>
        <time>2024-11-06T03:13:42.551Z</time>
      </trkpt>
      <trkpt lat="44.24526" lon="3.35406">
        <ele>984.88</ele>
        <time>2024-11-06T03:13:58.777Z</time>
      </trkpt>
      <trkpt lat="44.2452" lon="3.35421">
        <ele>985.18</ele>
        <time>2024-11-06T03:14:15.005Z</time>
      </trkpt>
      <trkpt lat="44.24517" lon="3.3544">
        <ele>985.48</ele>
        <time>2024-11-06T03:14:31.235Z</time>
      </trkpt>
      <trkpt lat="44.24514" lon="3.35451">
        <ele>985.79</ele>
        <time>2024-11-06T03:14:47.466Z</time>
      </trkpt>
      <trkpt lat="44.24512" lon="3.35463">
        <ele>986.12</ele>
        <time>2024-11-06T03:15:03.699Z</time>
      </trkpt>
      <trkpt lat="44.2451" lon="3.35475">
        <ele>986.44</ele>
        <time>2024-11-06T03:15:19.933Z</time>
      </trkpt>
      <trkpt lat="44.24508" lon="3.35486">
        <ele>986.77</ele>
        <time>2024-11-06T03:15:36.169Z</time>
      </trkpt>
      <trkpt lat="44.24504" lon="3.3551">
        <ele>987.12</ele>
        <time>2024-11-06T03:15:52.407Z</time>
      </trkpt>
      <trkpt lat="44.24488" lon="3.35595">
        <ele>987.49</ele>
        <time>2024-11-06T03:16:08.655Z</time>
      </trkpt>
      <trkpt lat="44.24483" lon="3.35621">
        <ele>987.83</ele>
        <time>2024-11-06T03:16:24.907Z</time>
      </trkpt>
      <trkpt lat="44.24479" lon="3.35636">
        <ele>988.18</ele>
        <time>2024-11-06T03:16:41.160Z</time>
      </trkpt>
      <trkpt lat="44.24475" lon="3.35648">
        <ele>988.55</ele>
        <time>2024-11-06T03:16:57.415Z</time>
      </trkpt>
      <trkpt lat="44.24472" lon="3.35659">
        <ele>988.93</ele>
        <time>2024-11-06T03:17:13.671Z</time>
      </trkpt>
      <trkpt lat="44.24469" lon="3.35669">
        <ele>989.29</ele>
        <time>2024-11-06T03:17:29.928Z</time>
      </trkpt>
      <trkpt lat="44.24459" lon="3.35692">
        <ele>989.68</ele>
        <time>2024-11-06T03:17:46.189Z</time>
      </trkpt>
      <trkpt lat="44.24458" lon="3.35695">
        <ele>990.03</ele>
        <time>2024-11-06T03:18:02.450Z</time>
      </trkpt>
      <trkpt lat="44.24452" lon="3.35708">
        <ele>990.38</ele>
        <time>2024-11-06T03:18:18.713Z</time>
      </trkpt>
      <trkpt lat="44.24444" lon="3.35723">
        <ele>990.71</ele>
        <time>2024-11-06T03:18:34.978Z</time>
      </trkpt>
      <trkpt lat="44.24428" lon="3.35753">
        <ele>991.06</ele>
        <time>2024-11-06T03:18:51.247Z</time>
      </trkpt>
      <trkpt lat="44.2442" lon="3.35768">
        <ele>991.39</ele>
        <time>2024-11-06T03:19:07.518Z</time>
      </trkpt>
      <trkpt lat="44.24412" lon="3.35784">
        <ele>991.72</ele>
        <time>2024-11-06T03:19:23.791Z</time>
      </trkpt>
      <trkpt lat="44.24407" lon="3.35794">
        <ele>992.03</ele>
        <time>2024-11-06T03:19:40.066Z</time>
      </trkpt>
      <trkpt lat="44.24401" lon="3.35803">
        <ele>992.32</ele>
        <time>2024-11-06T03:19:56.342Z</time>
      </trkpt>
      <trkpt lat="44.24392" lon="3.35816">
        <ele>992.61</ele>
        <time>2024-11-06T03:20:12.620Z</time>
      </trkpt>
      <trkpt lat="44.2439" lon="3.35819">
        <ele>992.86</ele>
        <time>2024-11-06T03:20:28.899Z</time>
      </trkpt>
      <trkpt lat="44.24385" lon="3.35824">
        <ele>993.07</ele>
        <time>2024-11-06T03:20:45.179Z</time>
      </trkpt>
      <trkpt lat="44.24365" lon="3.3584">
        <ele>993.27</ele>
        <time>2024-11-06T03:21:01.463Z</time>
      </trkpt>
      <trkpt lat="44.2436" lon="3.35844">
        <ele>993.46</ele>
        <time>2024-11-06T03:21:17.748Z</time>
      </trkpt>
      <trkpt lat="44.24342" lon="3.35857">
        <ele>993.63</ele>
        <time>2024-11-06T03:21:34.036Z</time>
      </trkpt>
      <trkpt lat="44.24306" lon="3.35883">
        <ele>993.78</ele>
        <time>2024-11-06T03:21:50.330Z</time>
      </trkpt>
      <trkpt lat="44.24282" lon="3.35901">
        <ele>993.91</ele>
        <time>2024-11-06T03:22:06.629Z</time>
      </trkpt>
      <trkpt lat="44.24266" lon="3.35912">
        <ele>994.04</ele>
        <time>2024-11-06T03:22:22.930Z</time>
      </trkpt>
      <trkpt lat="44.24246" lon="3.35926">
        <ele>994.14</ele>
        <time>2024-11-06T03:22:39.235Z</time>
      </trkpt>
      <trkpt lat="44.2424" lon="3.35931">
        <ele>994.2</ele>
        <time>2024-11-06T03:22:55.541Z</time>
      </trkpt>
      <trkpt lat="44.24239" lon="3.35932">
        <ele>994.24</ele>
        <time>2024-11-06T03:23:11.847Z</time>
      </trkpt>
      <trkpt lat="44.24227" lon="3.35943">
        <ele>994.25</ele>
        <time>2024-11-06T03:23:28.156Z</time>
      </trkpt>
      <trkpt lat="44.2422" lon="3.3595">
        <ele>994.24</ele>
        <time>2024-11-06T03:23:44.466Z</time>
      </trkpt>
      <trkpt lat="44.24216" lon="3.35953">
        <ele>994.21</ele>
        <time>2024-11-06T03:24:00.777Z</time>
      </trkpt>
      <trkpt lat="44.24205" lon="3.35964">
        <ele>994.16</ele>
        <time>2024-11-06T03:24:17.090Z</time>
      </trkpt>
      <trkpt lat="44.24193" lon="3.35974">
        <ele>994.06</ele>
        <time>2024-11-06T03:24:33.405Z</time>
      </trkpt>
      <trkpt lat="44.24182" lon="3.35984">
        <ele>993.94</ele>
        <time>2024-11-06T03:24:49.722Z</time>
      </trkpt>
      <trkpt lat="44.24163" lon="3.36001">
        <ele>993.79</ele>
        <time>2024-11-06T03:25:06.043Z</time>
      </trkpt>
      <trkpt lat="44.24152" lon="3.36012">
        <ele>993.61</ele>
        <time>2024-11-06T03:25:22.366Z</time>
      </trkpt>
      <trkpt lat="44.24133" lon="3.36029">
        <ele>993.4</ele>
        <time>2024-11-06T03:25:38.693Z</time>
      </trkpt>
      <trkpt lat="44.24126" lon="3.36036">
        <ele>993.17</ele>
        <time>2024-11-06T03:25:55.021Z</time>
      </trkpt>
      <trkpt lat="44.24096" lon="3.36064">
        <ele>992.91</ele>
        <time>2024-11-06T03:26:11.355Z</time>
      </trkpt>
      <trkpt lat="44.24081" lon="3.36077">
        <ele>992.64</ele>
        <time>2024-11-06T03:26:27.692Z</time>
      </trkpt>
      <trkpt lat="44.24066" lon="3.36091">
        <ele>992.34</ele>
        <time>2024-11-06T03:26:44.032Z</time>
      </trkpt>
      <trkpt lat="44.24047" lon="3.36108">
        <ele>992</ele>
        <time>2024-11-06T03:27:00.375Z</time>
      </trkpt>
      <trkpt lat="44.24036" lon="3.36119">
        <ele>991.66</ele>
        <time>2024-11-06T03:27:16.720Z</time>
      </trkpt>
      <trkpt lat="44.24021" lon="3.36132">
        <ele>991.28</ele>
        <time>2024-11-06T03:27:33.068Z</time>
      </trkpt>
      <trkpt lat="44.24006" lon="3.36146">
        <ele>990.91</ele>
        <time>2024-11-06T03:27:49.419Z</time>
      </trkpt>
      <trkpt lat="44.23995" lon="3.36157">
        <ele>990.51</ele>
        <time>2024-11-06T03:28:05.772Z</time>
      </trkpt>
      <trkpt lat="44.23983" lon="3.36167">
        <ele>990.11</ele>
        <time>2024-11-06T03:28:22.127Z</time>
      </trkpt>
      <trkpt lat="44.23976" lon="3.36174">
        <ele>989.69</ele>
        <time>2024-11-06T03:28:38.484Z</time>
      </trkpt>
      <trkpt lat="44.23957" lon="3.36191">
        <ele>989.23</ele>
        <time>2024-11-06T03:28:54.844Z</time>
      </trkpt>
      <trkpt lat="44.23938" lon="3.36208">
        <ele>988.74</ele>
        <time>2024-11-06T03:29:11.208Z</time>
      </trkpt>
      <trkpt lat="44.23931" lon="3.36215">
        <ele>988.25</ele>
        <time>2024-11-06T03:29:27.573Z</time>
      </trkpt>
      <trkpt lat="44.23908" lon="3.36236">
        <ele>987.68</ele>
        <time>2024-11-06T03:29:43.943Z</time>
      </trkpt>
      <trkpt lat="44.23874" lon="3.36267">
        <ele>987.12</ele>
        <time>2024-11-06T03:30:00.319Z</time>
      </trkpt>
      <trkpt lat="44.23856" lon="3.36284">
        <ele>986.64</ele>
        <time>2024-11-06T03:30:16.699Z</time>
      </trkpt>
      <trkpt lat="44.23833" lon="3.36305">
        <ele>986.13</ele>
        <time>2024-11-06T03:30:33.083Z</time>
      </trkpt>
      <trkpt lat="44.23799" lon="3.36336">
        <ele>985.49</ele>
        <time>2024-11-06T03:30:49.474Z</time>
      </trkpt>
      <trkpt lat="44.23781" lon="3.36353">
        <ele>984.86</ele>
        <time>2024-11-06T03:31:05.868Z</time>
      </trkpt>
      <trkpt lat="44.23762" lon="3.3637">
        <ele>984.25</ele>
        <time>2024-11-06T03:31:22.266Z</time>
      </trkpt>
      <trkpt lat="44.23754" lon="3.36377">
        <ele>983.69</ele>
        <time>2024-11-06T03:31:38.665Z</time>
      </trkpt>
      <trkpt lat="44.23672" lon="3.36453">
        <ele>983.09</ele>
        <time>2024-11-06T03:31:55.080Z</time>
      </trkpt>
      <trkpt lat="44.23664" lon="3.3646">
        <ele>982.5</ele>
        <time>2024-11-06T03:32:11.497Z</time>
      </trkpt>
      <trkpt lat="44.23653" lon="3.3647">
        <ele>981.9</ele>
        <time>2024-11-06T03:32:27.916Z</time>
      </trkpt>
      <trkpt lat="44.23645" lon="3.36477">
        <ele>981.33</ele>
        <time>2024-11-06T03:32:44.336Z</time>
      </trkpt>
      <trkpt lat="44.23634" lon="3.36488">
        <ele>980.74</ele>
        <time>2024-11-06T03:33:00.758Z</time>
      </trkpt>
      <trkpt lat="44.2363" lon="3.36491">
        <ele>980.18</ele>
        <time>2024-11-06T03:33:17.181Z</time>
      </trkpt>
      <trkpt lat="44.23619" lon="3.36501">
        <ele>979.65</ele>
        <time>2024-11-06T03:33:33.606Z</time>
      </trkpt>
      <trkpt lat="44.23604" lon="3.36515">
        <ele>979.09</ele>
        <time>2024-11-06T03:33:50.034Z</time>
      </trkpt>
      <trkpt lat="44.23597" lon="3.36522">
        <ele>978.54</ele>
        <time>2024-11-06T03:34:06.464Z</time>
      </trkpt>
      <trkpt lat="44.23567" lon="3.3655">
        <ele>978.02</ele>
        <time>2024-11-06T03:34:22.899Z</time>
      </trkpt>
      <trkpt lat="44.23555" lon="3.3656">
        <ele>977.48</ele>
        <time>2024-11-06T03:34:39.336Z</time>
      </trkpt>
      <trkpt lat="44.23548" lon="3.36567">
        <ele>976.94</ele>
        <time>2024-11-06T03:34:55.775Z</time>
      </trkpt>
      <trkpt lat="44.2354" lon="3.36574">
        <ele>976.41</ele>
        <time>2024-11-06T03:35:12.215Z</time>
      </trkpt>
      <trkpt lat="44.23533" lon="3.36581">
        <ele>975.89</ele>
        <time>2024-11-06T03:35:28.657Z</time>
      </trkpt>
      <trkpt lat="44.23525" lon="3.36588">
        <ele>975.37</ele>
        <time>2024-11-06T03:35:45.100Z</time>
      </trkpt>
      <trkpt lat="44.23503" lon="3.36608">
        <ele>974.84</ele>
        <time>2024-11-06T03:36:01.547Z</time>
      </trkpt>
      <trkpt lat="44.2347" lon="3.3663">
        <ele>974.33</ele>
        <time>2024-11-06T03:36:18.000Z</time>
      </trkpt>
      <trkpt lat="44.23465" lon="3.36633">
        <ele>973.84</ele>
        <time>2024-11-06T03:36:34.454Z</time>
      </trkpt>
      <trkpt lat="44.23441" lon="3.36646">
        <ele>973.33</ele>
        <time>2024-11-06T03:36:50.912Z</time>
      </trkpt>
      <trkpt lat="44.23429" lon="3.36653">
        <ele>972.85</ele>
        <time>2024-11-06T03:37:07.372Z</time>
      </trkpt>
      <trkpt lat="44.23419" lon="3.36658">
        <ele>972.36</ele>
        <time>2024-11-06T03:37:23.834Z</time>
      </trkpt>
      <trkpt lat="44.23408" lon="3.36664">
        <ele>971.88</ele>
        <time>2024-11-06T03:37:40.298Z</time>
      </trkpt>
      <trkpt lat="44.23395" lon="3.3667">
        <ele>971.43</ele>
        <time>2024-11-06T03:37:56.764Z</time>
      </trkpt>
      <trkpt lat="44.2337" lon="3.36683">
        <ele>970.96</ele>
        <time>2024-11-06T03:38:13.235Z</time>
      </trkpt>
      <trkpt lat="44.23349" lon="3.36694">
        <ele>970.49</ele>
        <time>2024-11-06T03:38:29.709Z</time>
      </trkpt>
      <trkpt lat="44.23315" lon="3.36712">
        <ele>970.02</ele>
        <time>2024-11-06T03:38:46.189Z</time>
      </trkpt>
      <trkpt lat="44.2329" lon="3.36725">
        <ele>969.56</ele>
        <time>2024-11-06T03:39:02.673Z</time>
      </trkpt>
      <trkpt lat="44.23281" lon="3.36729">
        <ele>969.11</ele>
        <time>2024-11-06T03:39:19.159Z</time>
      </trkpt>
      <trkpt lat="44.23273" lon="3.36733">
        <ele>968.68</ele>
        <time>2024-11-06T03:39:35.646Z</time>
      </trkpt>
      <trkpt lat="44.23256" lon="3.36742">
        <ele>968.24</ele>
        <time>2024-11-06T03:39:52.136Z</time>
      </trkpt>
      <trkpt lat="44.23235" lon="3.36753">
        <ele>967.78</ele>
        <time>2024-11-06T03:40:08.629Z</time>
      </trkpt>
      <trkpt lat="44.23222" lon="3.36759">
        <ele>967.32</ele>
        <time>2024-11-06T03:40:25.125Z</time>
      </trkpt>
      <trkpt lat="44.23217" lon="3.36762">
        <ele>966.88</ele>
        <time>2024-11-06T03:40:41.622Z</time>
      </trkpt>
      <trkpt lat="44.23214" lon="3.36764">
        <ele>966.43</ele>
        <time>2024-11-06T03:40:58.119Z</time>
      </trkpt>
      <trkpt lat="44.23197" lon="3.36773">
        <ele>965.95</ele>
        <time>2024-11-06T03:41:14.619Z</time>
      </trkpt>
      <trkpt lat="44.23176" lon="3.36784">
        <ele>965.49</ele>
        <time>2024-11-06T03:41:31.123Z</time>
      </trkpt>
      <trkpt lat="44.23138" lon="3.36804">
        <ele>965.03</ele>
        <time>2024-11-06T03:41:47.633Z</time>
      </trkpt>
      <trkpt lat="44.2313" lon="3.36808">
        <ele>964.58</ele>
        <time>2024-11-06T03:42:04.144Z</time>
      </trkpt>
      <trkpt lat="44.23113" lon="3.36817">
        <ele>964.12</ele>
        <time>2024-11-06T03:42:20.658Z</time>
      </trkpt>
      <trkpt lat="44.23088" lon="3.3683">
        <ele>963.68</ele>
        <time>2024-11-06T03:42:37.177Z</time>
      </trkpt>
      <trkpt lat="44.23075" lon="3.36837">
        <ele>963.24</ele>
        <time>2024-11-06T03:42:53.698Z</time>
      </trkpt>
      <trkpt lat="44.23063" lon="3.36844">
        <ele>962.79</ele>
        <time>2024-11-06T03:43:10.221Z</time>
      </trkpt>
      <trkpt lat="44.2305" lon="3.3685">
        <ele>962.35</ele>
        <time>2024-11-06T03:43:26.746Z</time>
      </trkpt>
      <trkpt lat="44.23033" lon="3.36859">
        <ele>961.88</ele>
        <time>2024-11-06T03:43:43.274Z</time>
      </trkpt>
      <trkpt lat="44.23013" lon="3.3687">
        <ele>961.42</ele>
        <time>2024-11-06T03:43:59.805Z</time>
      </trkpt>
      <trkpt lat="44.23012" lon="3.3687">
        <ele>960.98</ele>
        <time>2024-11-06T03:44:16.337Z</time>
      </trkpt>
      <trkpt lat="44.23004" lon="3.36876">
        <ele>960.53</ele>
        <time>2024-11-06T03:44:32.870Z</time>
      </trkpt>
      <trkpt lat="44.22964" lon="3.36904">
        <ele>960.07</ele>
        <time>2024-11-06T03:44:49.410Z</time>
      </trkpt>
      <trkpt lat="44.22957" lon="3.36909">
        <ele>959.63</ele>
        <time>2024-11-06T03:45:05.952Z</time>
      </trkpt>
      <trkpt lat="44.22945" lon="3.3692">
        <ele>959.18</ele>
        <time>2024-11-06T03:45:22.496Z</time>
      </trkpt>
      <trkpt lat="44.22934" lon="3.3693">
        <ele>958.7</ele>
        <time>2024-11-06T03:45:39.042Z</time>
      </trkpt>
      <trkpt lat="44.22911" lon="3.36951">
        <ele>958.21</ele>
        <time>2024-11-06T03:45:55.592Z</time>
      </trkpt>
      <trkpt lat="44.22893" lon="3.36968">
        <ele>957.72</ele>
        <time>2024-11-06T03:46:12.146Z</time>
      </trkpt>
      <trkpt lat="44.22874" lon="3.36985">
        <ele>957.27</ele>
        <time>2024-11-06T03:46:28.703Z</time>
      </trkpt>
      <trkpt lat="44.22867" lon="3.36992">
        <ele>956.83</ele>
        <time>2024-11-06T03:46:45.262Z</time>
      </trkpt>
      <trkpt lat="44.22859" lon="3.36999">
        <ele>956.39</ele>
        <time>2024-11-06T03:47:01.822Z</time>
      </trkpt>
      <trkpt lat="44.22852" lon="3.37006">
        <ele>955.96</ele>
        <time>2024-11-06T03:47:18.384Z</time>
      </trkpt>
      <trkpt lat="44.22825" lon="3.3703">
        <ele>955.54</ele>
        <time>2024-11-06T03:47:34.951Z</time>
      </trkpt>
      <trkpt lat="44.22814" lon="3.3704">
        <ele>955.09</ele>
        <time>2024-11-06T03:47:51.520Z</time>
      </trkpt>
      <trkpt lat="44.22796" lon="3.37057">
        <ele>954.63</ele>
        <time>2024-11-06T03:48:08.092Z</time>
      </trkpt>
      <trkpt lat="44.22781" lon="3.37071">
        <ele>954.18</ele>
        <time>2024-11-06T03:48:24.667Z</time>
      </trkpt>
      <trkpt lat="44.22769" lon="3.37081">
        <ele>953.74</ele>
        <time>2024-11-06T03:48:41.244Z</time>
      </trkpt>
      <trkpt lat="44.22741" lon="3.37108">
        <ele>953.31</ele>
        <time>2024-11-06T03:48:57.827Z</time>
      </trkpt>
      <trkpt lat="44.22738" lon="3.3711">
        <ele>952.89</ele>
        <time>2024-11-06T03:49:14.410Z</time>
      </trkpt>
      <trkpt lat="44.227" lon="3.37145">
        <ele>952.46</ele>
        <time>2024-11-06T03:49:31.001Z</time>
      </trkpt>
      <trkpt lat="44.22689" lon="3.37155">
        <ele>952.03</ele>
        <time>2024-11-06T03:49:47.594Z</time>
      </trkpt>
      <trkpt lat="44.22682" lon="3.37162">
        <ele>951.61</ele>
        <time>2024-11-06T03:50:04.188Z</time>
      </trkpt>
      <trkpt lat="44.22656" lon="3.37186">
        <ele>951.17</ele>
        <time>2024-11-06T03:50:20.787Z</time>
      </trkpt>
      <trkpt lat="44.22648" lon="3.37192">
        <ele>950.75</ele>
        <time>2024-11-06T03:50:37.388Z</time>
      </trkpt>
      <trkpt lat="44.2263" lon="3.37209">
        <ele>950.34</ele>
        <time>2024-11-06T03:50:53.992Z</time>
      </trkpt>
      <trkpt lat="44.22615" lon="3.37223">
        <ele>949.93</ele>
        <time>2024-11-06T03:51:10.599Z</time>
      </trkpt>
      <trkpt lat="44.22589" lon="3.37247">
        <ele>949.53</ele>
        <time>2024-11-06T03:51:27.211Z</time>
      </trkpt>
      <trkpt lat="44.22571" lon="3.37264">
        <ele>949.13</ele>
        <time>2024-11-06T03:51:43.827Z</time>
      </trkpt>
      <trkpt lat="44.22563" lon="3.3727">
        <ele>948.76</ele>
        <time>2024-11-06T03:52:00.444Z</time>
      </trkpt>
      <trkpt lat="44.22552" lon="3.3728">
        <ele>948.38</ele>
        <time>2024-11-06T03:52:17.063Z</time>
      </trkpt>
      <trkpt lat="44.22537" lon="3.37294">
        <ele>948.03</ele>
        <time>2024-11-06T03:52:33.685Z</time>
      </trkpt>
      <trkpt lat="44.22526" lon="3.37304">
        <ele>947.72</ele>
        <time>2024-11-06T03:52:50.309Z</time>
      </trkpt>
      <trkpt lat="44.22519" lon="3.37311">
        <ele>947.41</ele>
        <time>2024-11-06T03:53:06.935Z</time>
      </trkpt>
      <trkpt lat="44.22511" lon="3.37318">
        <ele>947.13</ele>
        <time>2024-11-06T03:53:23.562Z</time>
      </trkpt>
      <trkpt lat="44.22504" lon="3.37325">
        <ele>946.84</ele>
        <time>2024-11-06T03:53:40.190Z</time>
      </trkpt>
      <trkpt lat="44.22493" lon="3.37335">
        <ele>946.56</ele>
        <time>2024-11-06T03:53:56.820Z</time>
      </trkpt>
      <trkpt lat="44.22485" lon="3.37342">
        <ele>946.3</ele>
        <time>2024-11-06T03:54:13.452Z</time>
      </trkpt>
      <trkpt lat="44.22478" lon="3.37348">
        <ele>946.06</ele>
        <time>2024-11-06T03:54:30.085Z</time>
      </trkpt>
      <trkpt lat="44.22456" lon="3.37369">
        <ele>945.85</ele>
        <time>2024-11-06T03:54:46.723Z</time>
      </trkpt>
      <trkpt lat="44.22448" lon="3.37376">
        <ele>945.66</ele>
        <time>2024-11-06T03:55:03.362Z</time>
      </trkpt>
      <trkpt lat="44.22437" lon="3.37386">
        <ele>945.49</ele>
        <time>2024-11-06T03:55:20.003Z</time>
      </trkpt>
      <trkpt lat="44.22422" lon="3.374">
        <ele>945.36</ele>
        <time>2024-11-06T03:55:36.647Z</time>
      </trkpt>
      <trkpt lat="44.22415" lon="3.37407">
        <ele>945.21</ele>
        <time>2024-11-06T03:55:53.292Z</time>
      </trkpt>
      <trkpt lat="44.22381" lon="3.37437">
        <ele>945.07</ele>
        <time>2024-11-06T03:56:09.944Z</time>
      </trkpt>
      <trkpt lat="44.22351" lon="3.37465">
        <ele>944.9</ele>
        <time>2024-11-06T03:56:26.602Z</time>
      </trkpt>
      <trkpt lat="44.2234" lon="3.37475">
        <ele>944.79</ele>
        <time>2024-11-06T03:56:43.262Z</time>
      </trkpt>
      <trkpt lat="44.22325" lon="3.37489">
        <ele>944.71</ele>
        <time>2024-11-06T03:56:59.925Z</time>
      </trkpt>
      <trkpt lat="44.22299" lon="3.37513">
        <ele>944.65</ele>
        <time>2024-11-06T03:57:16.593Z</time>
      </trkpt>
      <trkpt lat="44.2228" lon="3.3753">
        <ele>944.64</ele>
        <time>2024-11-06T03:57:33.264Z</time>
      </trkpt>
      <trkpt lat="44.22265" lon="3.37543">
        <ele>944.66</ele>
        <time>2024-11-06T03:57:49.938Z</time>
      </trkpt>
      <trkpt lat="44.22243" lon="3.37564">
        <ele>944.69</ele>
        <time>2024-11-06T03:58:06.616Z</time>
      </trkpt>
      <trkpt lat="44.22221" lon="3.37584">
        <ele>944.69</ele>
        <time>2024-11-06T03:58:23.299Z</time>
      </trkpt>
      <trkpt lat="44.22198" lon="3.37605">
        <ele>944.69</ele>
        <time>2024-11-06T03:58:39.986Z</time>
      </trkpt>
      <trkpt lat="44.22191" lon="3.37612">
        <ele>944.76</ele>
        <time>2024-11-06T03:58:56.674Z</time>
      </trkpt>
      <trkpt lat="44.22186" lon="3.37616">
        <ele>944.88</ele>
        <time>2024-11-06T03:59:13.363Z</time>
      </trkpt>
      <trkpt lat="44.2218" lon="3.37622">
        <ele>945.02</ele>
        <time>2024-11-06T03:59:30.054Z</time>
      </trkpt>
      <trkpt lat="44.22172" lon="3.37629">
        <ele>945.2</ele>
        <time>2024-11-06T03:59:46.746Z</time>
      </trkpt>
      <trkpt lat="44.22161" lon="3.3764">
        <ele>945.42</ele>
        <time>2024-11-06T04:00:03.440Z</time>
      </trkpt>
      <trkpt lat="44.22154" lon="3.37647">
        <ele>945.67</ele>
        <time>2024-11-06T04:00:20.136Z</time>
      </trkpt>
      <trkpt lat="44.22147" lon="3.37654">
        <ele>945.94</ele>
        <time>2024-11-06T04:00:36.833Z</time>
      </trkpt>
      <trkpt lat="44.22143" lon="3.37657">
        <ele>946.23</ele>
        <time>2024-11-06T04:00:53.531Z</time>
      </trkpt>
      <trkpt lat="44.22135" lon="3.37665">
        <ele>946.56</ele>
        <time>2024-11-06T04:01:10.230Z</time>
      </trkpt>
      <trkpt lat="44.22119" lon="3.37685">
        <ele>946.95</ele>
        <time>2024-11-06T04:01:26.933Z</time>
      </trkpt>
      <trkpt lat="44.22109" lon="3.37697">
        <ele>947.34</ele>
        <time>2024-11-06T04:01:43.638Z</time>
      </trkpt>
      <trkpt lat="44.22092" lon="3.37718">
        <ele>947.78</ele>
        <time>2024-11-06T04:02:00.346Z</time>
      </trkpt>
      <trkpt lat="44.22082" lon="3.3773">
        <ele>948.2</ele>
        <time>2024-11-06T04:02:17.057Z</time>
      </trkpt>
      <trkpt lat="44.22072" lon="3.37742">
        <ele>948.64</ele>
        <time>2024-11-06T04:02:33.770Z</time>
      </trkpt>
      <trkpt lat="44.22068" lon="3.37748">
        <ele>949.11</ele>
        <time>2024-11-06T04:02:50.484Z</time>
      </trkpt>
      <trkpt lat="44.22058" lon="3.3776">
        <ele>949.58</ele>
        <time>2024-11-06T04:03:07.200Z</time>
      </trkpt>
      <trkpt lat="44.22041" lon="3.37781">
        <ele>950.08</ele>
        <time>2024-11-06T04:03:23.919Z</time>
      </trkpt>
      <trkpt lat="44.22003" lon="3.37826">
        <ele>950.67</ele>
        <time>2024-11-06T04:03:40.646Z</time>
      </trkpt>
      <trkpt lat="44.21983" lon="3.37851">
        <ele>951.22</ele>
        <time>2024-11-06T04:03:57.378Z</time>
      </trkpt>
      <trkpt lat="44.21956" lon="3.37884">
        <ele>951.79</ele>
        <time>2024-11-06T04:04:14.115Z</time>
      </trkpt>
      <trkpt lat="44.21956" lon="3.37884">
        <ele>952.37</ele>
        <time>2024-11-06T04:04:30.852Z</time>
      </trkpt>
      <trkpt lat="44.21956" lon="3.37884">
        <ele>952.96</ele>
        <time>2024-11-06T04:04:47.589Z</time>
      </trkpt>
      <trkpt lat="44.21956" lon="3.37884">
        <ele>953.56</ele>
        <time>2024-11-06T04:05:04.326Z</time>
      </trkpt>
      <trkpt lat="44.21956" lon="3.37884">
        <ele>954.18</ele>
        <time>2024-11-06T04:05:21.063Z</time>
      </trkpt>
      <trkpt lat="44.21932" lon="3.37913">
        <ele>954.86</ele>
        <time>2024-11-06T04:05:37.805Z</time>
      </trkpt>
      <trkpt lat="44.21909" lon="3.37942">
        <ele>955.6</ele>
        <time>2024-11-06T04:05:54.552Z</time>
      </trkpt>
      <trkpt lat="44.21885" lon="3.37971">
        <ele>956.32</ele>
        <time>2024-11-06T04:06:11.304Z</time>
      </trkpt>
      <trkpt lat="44.21862" lon="3.38">
        <ele>956.99</ele>
        <time>2024-11-06T04:06:28.062Z</time>
      </trkpt>
      <trkpt lat="44.21838" lon="3.38029">
        <ele>957.64</ele>
        <time>2024-11-06T04:06:44.825Z</time>
      </trkpt>
      <trkpt lat="44.21814" lon="3.38058">
        <ele>958.28</ele>
        <time>2024-11-06T04:07:01.593Z</time>
      </trkpt>
      <trkpt lat="44.21791" lon="3.38087">
        <ele>958.96</ele>
        <time>2024-11-06T04:07:18.366Z</time>
      </trkpt>
      <trkpt lat="44.21785" lon="3.38094">
        <ele>959.57</ele>
        <time>2024-11-06T04:07:35.140Z</time>
      </trkpt>
      <trkpt lat="44.21763" lon="3.38125">
        <ele>960.17</ele>
        <time>2024-11-06T04:07:51.919Z</time>
      </trkpt>
      <trkpt lat="44.21755" lon="3.38136">
        <ele>960.77</ele>
        <time>2024-11-06T04:08:08.700Z</time>
      </trkpt>
      <trkpt lat="44.21735" lon="3.3817">
        <ele>961.39</ele>
        <time>2024-11-06T04:08:25.486Z</time>
      </trkpt>
      <trkpt lat="44.21735" lon="3.38171">
        <ele>961.97</ele>
        <time>2024-11-06T04:08:42.272Z</time>
      </trkpt>
      <trkpt lat="44.21717" lon="3.38207">
        <ele>962.57</ele>
        <time>2024-11-06T04:08:59.063Z</time>
      </trkpt>
      <trkpt lat="44.21699" lon="3.38243">
        <ele>963.13</ele>
        <time>2024-11-06T04:09:15.859Z</time>
      </trkpt>
      <trkpt lat="44.21685" lon="3.38271">
        <ele>963.69</ele>
        <time>2024-11-06T04:09:32.659Z</time>
      </trkpt>
      <trkpt lat="44.21668" lon="3.38308">
        <ele>964.2</ele>
        <time>2024-11-06T04:09:49.464Z</time>
      </trkpt>
      <trkpt lat="44.21651" lon="3.38344">
        <ele>964.72</ele>
        <time>2024-11-06T04:10:06.274Z</time>
      </trkpt>
      <trkpt lat="44.21645" lon="3.38356">
        <ele>965.18</ele>
        <time>2024-11-06T04:10:23.086Z</time>
      </trkpt>
      <trkpt lat="44.21627" lon="3.38392">
        <ele>965.63</ele>
        <time>2024-11-06T04:10:39.903Z</time>
      </trkpt>
      <trkpt lat="44.21622" lon="3.38401">
        <ele>966.08</ele>
        <time>2024-11-06T04:10:56.721Z</time>
      </trkpt>
      <trkpt lat="44.21607" lon="3.38422">
        <ele>966.5</ele>
        <time>2024-11-06T04:11:13.542Z</time>
      </trkpt>
      <trkpt lat="44.21586" lon="3.38449">
        <ele>966.87</ele>
        <time>2024-11-06T04:11:30.368Z</time>
      </trkpt>
      <trkpt lat="44.2157" lon="3.38464">
        <ele>967.23</ele>
        <time>2024-11-06T04:11:47.197Z</time>
      </trkpt>
      <trkpt lat="44.21542" lon="3.38484">
        <ele>967.57</ele>
        <time>2024-11-06T04:12:04.031Z</time>
      </trkpt>
      <trkpt lat="44.21514" lon="3.38504">
        <ele>967.9</ele>
        <time>2024-11-06T04:12:20.870Z</time>
      </trkpt>
      <trkpt lat="44.21513" lon="3.38505">
        <ele>968.18</ele>
        <time>2024-11-06T04:12:37.709Z</time>
      </trkpt>
      <trkpt lat="44.21491" lon="3.38516">
        <ele>968.46</ele>
        <time>2024-11-06T04:12:54.552Z</time>
      </trkpt>
      <trkpt lat="44.21462" lon="3.38524">
        <ele>968.67</ele>
        <time>2024-11-06T04:13:11.400Z</time>
      </trkpt>
      <trkpt lat="44.21446" lon="3.38524">
        <ele>968.82</ele>
        <time>2024-11-06T04:13:28.250Z</time>
      </trkpt>
      <trkpt lat="44.2142" lon="3.38519">
        <ele>968.92</ele>
        <time>2024-11-06T04:13:45.104Z</time>
      </trkpt>
      <trkpt lat="44.21389" lon="3.3851">
        <ele>969.05</ele>
        <time>2024-11-06T04:14:01.963Z</time>
      </trkpt>
      <trkpt lat="44.21358" lon="3.385">
        <ele>969.19</ele>
        <time>2024-11-06T04:14:18.828Z</time>
      </trkpt>
      <trkpt lat="44.21328" lon="3.38491">
        <ele>969.31</ele>
        <time>2024-11-06T04:14:35.698Z</time>
      </trkpt>
      <trkpt lat="44.21297" lon="3.38482">
        <ele>969.39</ele>
        <time>2024-11-06T04:14:52.573Z</time>
      </trkpt>
      <trkpt lat="44.21266" lon="3.38472">
        <ele>969.37</ele>
        <time>2024-11-06T04:15:09.453Z</time>
      </trkpt>
      <trkpt lat="44.21265" lon="3.38472">
        <ele>969.33</ele>
        <time>2024-11-06T04:15:26.333Z</time>
      </trkpt>
      <trkpt lat="44.21234" lon="3.38463">
        <ele>969.24</ele>
        <time>2024-11-06T04:15:43.218Z</time>
      </trkpt>
      <trkpt lat="44.21203" lon="3.38454">
        <ele>969.13</ele>
        <time>2024-11-06T04:16:00.108Z</time>
      </trkpt>
      <trkpt lat="44.21173" lon="3.38445">
        <ele>968.99</ele>
        <time>2024-11-06T04:16:17.003Z</time>
      </trkpt>
      <trkpt lat="44.21142" lon="3.38436">
        <ele>968.82</ele>
        <time>2024-11-06T04:16:33.903Z</time>
      </trkpt>
      <trkpt lat="44.21139" lon="3.38435">
        <ele>968.6</ele>
        <time>2024-11-06T04:16:50.803Z</time>
      </trkpt>
      <trkpt lat="44.21108" lon="3.38425">
        <ele>968.38</ele>
        <time>2024-11-06T04:17:07.708Z</time>
      </trkpt>
      <trkpt lat="44.21078" lon="3.38415">
        <ele>968.13</ele>
        <time>2024-11-06T04:17:24.619Z</time>
      </trkpt>
      <trkpt lat="44.21064" lon="3.3841">
        <ele>967.84</ele>
        <time>2024-11-06T04:17:41.532Z</time>
      </trkpt>
      <trkpt lat="44.21054" lon="3.38408">
        <ele>967.5</ele>
        <time>2024-11-06T04:17:58.446Z</time>
      </trkpt>
      <trkpt lat="44.21036" lon="3.38407">
        <ele>967.13</ele>
        <time>2024-11-06T04:18:15.363Z</time>
      </trkpt>
      <trkpt lat="44.21019" lon="3.38412">
        <ele>966.73</ele>
        <time>2024-11-06T04:18:32.283Z</time>
      </trkpt>
      <trkpt lat="44.20991" lon="3.38432">
        <ele>966.28</ele>
        <time>2024-11-06T04:18:49.208Z</time>
      </trkpt>
      <trkpt lat="44.20976" lon="3.38443">
        <ele>965.8</ele>
        <time>2024-11-06T04:19:06.136Z</time>
      </trkpt>
      <trkpt lat="44.20948" lon="3.38463">
        <ele>965.26</ele>
        <time>2024-11-06T04:19:23.069Z</time>
      </trkpt>
      <trkpt lat="44.2092" lon="3.38484">
        <ele>964.72</ele>
        <time>2024-11-06T04:19:40.007Z</time>
      </trkpt>
      <trkpt lat="44.20903" lon="3.38496">
        <ele>964.2</ele>
        <time>2024-11-06T04:19:56.948Z</time>
      </trkpt>
      <trkpt lat="44.20875" lon="3.38515">
        <ele>963.63</ele>
        <time>2024-11-06T04:20:13.894Z</time>
      </trkpt>
      <trkpt lat="44.20846" lon="3.38534">
        <ele>963.01</ele>
        <time>2024-11-06T04:20:30.845Z</time>
      </trkpt>
      <trkpt lat="44.20842" lon="3.38537">
        <ele>962.44</ele>
        <time>2024-11-06T04:20:47.797Z</time>
      </trkpt>
      <trkpt lat="44.20812" lon="3.38551">
        <ele>961.88</ele>
        <time>2024-11-06T04:21:04.754Z</time>
      </trkpt>
      <trkpt lat="44.20809" lon="3.38552">
        <ele>961.31</ele>
        <time>2024-11-06T04:21:21.711Z</time>
      </trkpt>
      <trkpt lat="44.20778" lon="3.38557">
        <ele>960.74</ele>
        <time>2024-11-06T04:21:38.673Z</time>
      </trkpt>
      <trkpt lat="44.20746" lon="3.38561">
        <ele>960.11</ele>
        <time>2024-11-06T04:21:55.640Z</time>
      </trkpt>
      <trkpt lat="44.20735" lon="3.38563">
        <ele>959.5</ele>
        <time>2024-11-06T04:22:12.609Z</time>
      </trkpt>
      <trkpt lat="44.20704" lon="3.38567">
        <ele>958.84</ele>
        <time>2024-11-06T04:22:29.583Z</time>
      </trkpt>
      <trkpt lat="44.20701" lon="3.38567">
        <ele>958.26</ele>
        <time>2024-11-06T04:22:46.558Z</time>
      </trkpt>
      <trkpt lat="44.2067" lon="3.38575">
        <ele>957.66</ele>
        <time>2024-11-06T04:23:03.538Z</time>
      </trkpt>
      <trkpt lat="44.20648" lon="3.3858">
        <ele>957.09</ele>
        <time>2024-11-06T04:23:20.521Z</time>
      </trkpt>
      <trkpt lat="44.20618" lon="3.38591">
        <ele>956.57</ele>
        <time>2024-11-06T04:23:37.509Z</time>
      </trkpt>
      <trkpt lat="44.20613" lon="3.38593">
        <ele>956.05</ele>
        <time>2024-11-06T04:23:54.498Z</time>
      </trkpt>
      <trkpt lat="44.20584" lon="3.3861">
        <ele>955.55</ele>
        <time>2024-11-06T04:24:11.492Z</time>
      </trkpt>
      <trkpt lat="44.20583" lon="3.38611">
        <ele>955.07</ele>
        <time>2024-11-06T04:24:28.486Z</time>
      </trkpt>
      <trkpt lat="44.2056" lon="3.38628">
        <ele>954.57</ele>
        <time>2024-11-06T04:24:45.485Z</time>
      </trkpt>
      <trkpt lat="44.20538" lon="3.38652">
        <ele>954.14</ele>
        <time>2024-11-06T04:25:02.488Z</time>
      </trkpt>
      <trkpt lat="44.2052" lon="3.38684">
        <ele>953.69</ele>
        <time>2024-11-06T04:25:19.496Z</time>
      </trkpt>
      <trkpt lat="44.20507" lon="3.38724">
        <ele>953.27</ele>
        <time>2024-11-06T04:25:36.509Z</time>
      </trkpt>
      <trkpt lat="44.20505" lon="3.38729">
        <ele>952.95</ele>
        <time>2024-11-06T04:25:53.522Z</time>
      </trkpt>
      <trkpt lat="44.205" lon="3.3877">
        <ele>952.63</ele>
        <time>2024-11-06T04:26:10.540Z</time>
      </trkpt>
      <trkpt lat="44.20503" lon="3.38814">
        <ele>952.37</ele>
        <time>2024-11-06T04:26:27.563Z</time>
      </trkpt>
      <trkpt lat="44.20504" lon="3.38822">
        <ele>952.2</ele>
        <time>2024-11-06T04:26:44.587Z</time>
      </trkpt>
      <trkpt lat="44.20512" lon="3.38864">
        <ele>952.13</ele>
        <time>2024-11-06T04:27:01.616Z</time>
      </trkpt>
      <trkpt lat="44.20519" lon="3.389">
        <ele>952.05</ele>
        <time>2024-11-06T04:27:18.650Z</time>
      </trkpt>
      <trkpt lat="44.20527" lon="3.38943">
        <ele>952.02</ele>
        <time>2024-11-06T04:27:35.689Z</time>
      </trkpt>
      <trkpt lat="44.20529" lon="3.38956">
        <ele>952.05</ele>
        <time>2024-11-06T04:27:52.729Z</time>
      </trkpt>
      <trkpt lat="44.20533" lon="3.39">
        <ele>952.11</ele>
        <time>2024-11-06T04:28:09.774Z</time>
      </trkpt>
      <trkpt lat="44.20534" lon="3.39016">
        <ele>952.24</ele>
        <time>2024-11-06T04:28:26.821Z</time>
      </trkpt>
      <trkpt lat="44.20532" lon="3.39038">
        <ele>952.38</ele>
        <time>2024-11-06T04:28:43.871Z</time>
      </trkpt>
      <trkpt lat="44.20526" lon="3.39057">
        <ele>952.55</ele>
        <time>2024-11-06T04:29:00.923Z</time>
      </trkpt>
      <trkpt lat="44.20516" lon="3.39072">
        <ele>952.79</ele>
        <time>2024-11-06T04:29:17.977Z</time>
      </trkpt>
      <trkpt lat="44.20499" lon="3.39084">
        <ele>953.09</ele>
        <time>2024-11-06T04:29:35.034Z</time>
      </trkpt>
      <trkpt lat="44.20476" lon="3.39091">
        <ele>953.41</ele>
        <time>2024-11-06T04:29:52.095Z</time>
      </trkpt>
      <trkpt lat="44.20472" lon="3.39101">
        <ele>953.9</ele>
        <time>2024-11-06T04:30:09.158Z</time>
      </trkpt>
      <trkpt lat="44.20461" lon="3.39107">
        <ele>954.38</ele>
        <time>2024-11-06T04:30:26.222Z</time>
      </trkpt>
      <trkpt lat="44.20445" lon="3.39113">
        <ele>954.89</ele>
        <time>2024-11-06T04:30:43.289Z</time>
      </trkpt>
      <trkpt lat="44.20431" lon="3.39121">
        <ele>955.49</ele>
        <time>2024-11-06T04:31:00.358Z</time>
      </trkpt>
      <trkpt lat="44.20418" lon="3.39131">
        <ele>956.17</ele>
        <time>2024-11-06T04:31:17.430Z</time>
      </trkpt>
      <trkpt lat="44.20418" lon="3.39131">
        <ele>956.82</ele>
        <time>2024-11-06T04:31:34.502Z</time>
      </trkpt>
      <trkpt lat="44.20418" lon="3.39131">
        <ele>957.52</ele>
        <time>2024-11-06T04:31:51.574Z</time>
      </trkpt>
      <trkpt lat="44.20418" lon="3.39131">
        <ele>958.25</ele>
        <time>2024-11-06T04:32:08.646Z</time>
      </trkpt>
      <trkpt lat="44.20399" lon="3.3915">
        <ele>959.09</ele>
        <time>2024-11-06T04:32:25.722Z</time>
      </trkpt>
      <trkpt lat="44.20379" lon="3.39184">
        <ele>960</ele>
        <time>2024-11-06T04:32:42.803Z</time>
      </trkpt>
      <trkpt lat="44.20376" lon="3.39188">
        <ele>960.83</ele>
        <time>2024-11-06T04:32:59.884Z</time>
      </trkpt>
      <trkpt lat="44.20369" lon="3.39205">
        <ele>961.69</ele>
        <time>2024-11-06T04:33:16.968Z</time>
      </trkpt>
      <trkpt lat="44.20362" lon="3.39234">
        <ele>962.57</ele>
        <time>2024-11-06T04:33:34.055Z</time>
      </trkpt>
      <trkpt lat="44.20358" lon="3.39278">
        <ele>963.5</ele>
        <time>2024-11-06T04:33:51.147Z</time>
      </trkpt>
      <trkpt lat="44.20358" lon="3.3928">
        <ele>964.4</ele>
        <time>2024-11-06T04:34:08.239Z</time>
      </trkpt>
      <trkpt lat="44.2036" lon="3.39309">
        <ele>965.32</ele>
        <time>2024-11-06T04:34:25.335Z</time>
      </trkpt>
      <trkpt lat="44.20367" lon="3.39352">
        <ele>966.32</ele>
        <time>2024-11-06T04:34:42.436Z</time>
      </trkpt>
      <trkpt lat="44.20367" lon="3.39355">
        <ele>967.23</ele>
        <time>2024-11-06T04:34:59.537Z</time>
      </trkpt>
      <trkpt lat="44.20379" lon="3.39395">
        <ele>968.22</ele>
        <time>2024-11-06T04:35:16.643Z</time>
      </trkpt>
      <trkpt lat="44.20389" lon="3.39427">
        <ele>969.16</ele>
        <time>2024-11-06T04:35:33.753Z</time>
      </trkpt>
      <trkpt lat="44.20404" lon="3.39465">
        <ele>970.07</ele>
        <time>2024-11-06T04:35:50.868Z</time>
      </trkpt>
      <trkpt lat="44.20415" lon="3.39492">
        <ele>970.99</ele>
        <time>2024-11-06T04:36:07.987Z</time>
      </trkpt>
      <trkpt lat="44.2043" lon="3.3953">
        <ele>971.93</ele>
        <time>2024-11-06T04:36:25.111Z</time>
      </trkpt>
      <trkpt lat="44.20438" lon="3.3955">
        <ele>972.79</ele>
        <time>2024-11-06T04:36:42.237Z</time>
      </trkpt>
      <trkpt lat="44.20447" lon="3.39592">
        <ele>973.65</ele>
        <time>2024-11-06T04:36:59.368Z</time>
      </trkpt>
      <trkpt lat="44.2045" lon="3.39607">
        <ele>974.44</ele>
        <time>2024-11-06T04:37:16.501Z</time>
      </trkpt>
      <trkpt lat="44.20456" lon="3.3965">
        <ele>975.23</ele>
        <time>2024-11-06T04:37:33.639Z</time>
      </trkpt>
      <trkpt lat="44.20458" lon="3.39661">
        <ele>975.91</ele>
        <time>2024-11-06T04:37:50.779Z</time>
      </trkpt>
      <trkpt lat="44.20466" lon="3.39698">
        <ele>976.58</ele>
        <time>2024-11-06T04:38:07.923Z</time>
      </trkpt>
      <trkpt lat="44.20478" lon="3.39714">
        <ele>977.16</ele>
        <time>2024-11-06T04:38:25.070Z</time>
      </trkpt>
      <trkpt lat="44.2049" lon="3.39723">
        <ele>977.69</ele>
        <time>2024-11-06T04:38:42.219Z</time>
      </trkpt>
      <trkpt lat="44.20501" lon="3.39728">
        <ele>978.15</ele>
        <time>2024-11-06T04:38:59.370Z</time>
      </trkpt>
      <trkpt lat="44.20517" lon="3.39731">
        <ele>978.54</ele>
        <time>2024-11-06T04:39:16.523Z</time>
      </trkpt>
      <trkpt lat="44.20548" lon="3.39726">
        <ele>978.82</ele>
        <time>2024-11-06T04:39:33.681Z</time>
      </trkpt>
      <trkpt lat="44.20558" lon="3.39724">
        <ele>979.11</ele>
        <time>2024-11-06T04:39:50.841Z</time>
      </trkpt>
      <trkpt lat="44.20573" lon="3.39725">
        <ele>979.34</ele>
        <time>2024-11-06T04:40:08.003Z</time>
      </trkpt>
      <trkpt lat="44.20588" lon="3.3973">
        <ele>979.53</ele>
        <time>2024-11-06T04:40:25.168Z</time>
      </trkpt>
      <trkpt lat="44.20607" lon="3.39741">
        <ele>979.66</ele>
        <time>2024-11-06T04:40:42.336Z</time>
      </trkpt>
      <trkpt lat="44.20636" lon="3.39759">
        <ele>979.74</ele>
        <time>2024-11-06T04:40:59.509Z</time>
      </trkpt>
      <trkpt lat="44.2064" lon="3.39761">
        <ele>979.8</ele>
        <time>2024-11-06T04:41:16.683Z</time>
      </trkpt>
      <trkpt lat="44.20664" lon="3.39789">
        <ele>979.77</ele>
        <time>2024-11-06T04:41:33.862Z</time>
      </trkpt>
      <trkpt lat="44.20681" lon="3.39813">
        <ele>979.71</ele>
        <time>2024-11-06T04:41:51.045Z</time>
      </trkpt>
      <trkpt lat="44.20699" lon="3.39847">
        <ele>979.6</ele>
        <time>2024-11-06T04:42:08.233Z</time>
      </trkpt>
      <trkpt lat="44.20711" lon="3.39887">
        <ele>979.44</ele>
        <time>2024-11-06T04:42:25.426Z</time>
      </trkpt>
      <trkpt lat="44.20712" lon="3.39889">
        <ele>979.28</ele>
        <time>2024-11-06T04:42:42.619Z</time>
      </trkpt>
      <trkpt lat="44.2072" lon="3.39916">
        <ele>979.03</ele>
        <time>2024-11-06T04:42:59.815Z</time>
      </trkpt>
      <trkpt lat="44.2073" lon="3.39937">
        <ele>978.75</ele>
        <time>2024-11-06T04:43:17.014Z</time>
      </trkpt>
      <trkpt lat="44.20752" lon="3.39969">
        <ele>978.43</ele>
        <time>2024-11-06T04:43:34.218Z</time>
      </trkpt>
      <trkpt lat="44.20761" lon="3.39982">
        <ele>978.11</ele>
        <time>2024-11-06T04:43:51.424Z</time>
      </trkpt>
      <trkpt lat="44.20782" lon="3.40009">
        <ele>977.79</ele>
        <time>2024-11-06T04:44:08.635Z</time>
      </trkpt>
      <trkpt lat="44.20803" lon="3.40042">
        <ele>977.45</ele>
        <time>2024-11-06T04:44:25.851Z</time>
      </trkpt>
      <trkpt lat="44.20807" lon="3.40048">
        <ele>977.05</ele>
        <time>2024-11-06T04:44:43.068Z</time>
      </trkpt>
      <trkpt lat="44.2081" lon="3.40069">
        <ele>976.61</ele>
        <time>2024-11-06T04:45:00.287Z</time>
      </trkpt>
      <trkpt lat="44.20808" lon="3.40093">
        <ele>976.12</ele>
        <time>2024-11-06T04:45:17.509Z</time>
      </trkpt>
      <trkpt lat="44.20798" lon="3.40135">
        <ele>975.59</ele>
        <time>2024-11-06T04:45:34.736Z</time>
      </trkpt>
      <trkpt lat="44.20797" lon="3.40141">
        <ele>975.07</ele>
        <time>2024-11-06T04:45:51.964Z</time>
      </trkpt>
      <trkpt lat="44.20787" lon="3.40183">
        <ele>974.51</ele>
        <time>2024-11-06T04:46:09.197Z</time>
      </trkpt>
      <trkpt lat="44.20781" lon="3.4021">
        <ele>973.93</ele>
        <time>2024-11-06T04:46:26.433Z</time>
      </trkpt>
      <trkpt lat="44.20771" lon="3.40252">
        <ele>973.31</ele>
        <time>2024-11-06T04:46:43.674Z</time>
      </trkpt>
      <trkpt lat="44.20764" lon="3.4028">
        <ele>972.71</ele>
        <time>2024-11-06T04:47:00.919Z</time>
      </trkpt>
      <trkpt lat="44.20759" lon="3.40305">
        <ele>972.08</ele>
        <time>2024-11-06T04:47:18.167Z</time>
      </trkpt>
      <trkpt lat="44.20758" lon="3.40329">
        <ele>971.43</ele>
        <time>2024-11-06T04:47:35.418Z</time>
      </trkpt>
      <trkpt lat="44.20758" lon="3.40347">
        <ele>970.73</ele>
        <time>2024-11-06T04:47:52.671Z</time>
      </trkpt>
      <trkpt lat="44.20763" lon="3.4037">
        <ele>970.02</ele>
        <time>2024-11-06T04:48:09.926Z</time>
      </trkpt>
      <trkpt lat="44.20772" lon="3.40395">
        <ele>969.32</ele>
        <time>2024-11-06T04:48:27.185Z</time>
      </trkpt>
      <trkpt lat="44.20782" lon="3.40412">
        <ele>968.66</ele>
        <time>2024-11-06T04:48:44.446Z</time>
      </trkpt>
      <trkpt lat="44.20802" lon="3.40446">
        <ele>968.02</ele>
        <time>2024-11-06T04:49:01.712Z</time>
      </trkpt>
      <trkpt lat="44.2081" lon="3.4046">
        <ele>967.31</ele>
        <time>2024-11-06T04:49:18.980Z</time>
      </trkpt>
      <trkpt lat="44.20817" lon="3.40479">
        <ele>966.59</ele>
        <time>2024-11-06T04:49:36.251Z</time>
      </trkpt>
      <trkpt lat="44.2082" lon="3.40498">
        <ele>965.83</ele>
        <time>2024-11-06T04:49:53.524Z</time>
      </trkpt>
      <trkpt lat="44.20823" lon="3.4053">
        <ele>965.05</ele>
        <time>2024-11-06T04:50:10.801Z</time>
      </trkpt>
      <trkpt lat="44.20828" lon="3.40573">
        <ele>964.28</ele>
        <time>2024-11-06T04:50:28.083Z</time>
      </trkpt>
      <trkpt lat="44.20829" lon="3.4058">
        <ele>963.53</ele>
        <time>2024-11-06T04:50:45.365Z</time>
      </trkpt>
      <trkpt lat="44.20837" lon="3.40622">
        <ele>962.77</ele>
        <time>2024-11-06T04:51:02.652Z</time>
      </trkpt>
      <trkpt lat="44.20841" lon="3.40641">
        <ele>962</ele>
        <time>2024-11-06T04:51:19.942Z</time>
      </trkpt>
      <trkpt lat="44.20856" lon="3.40679">
        <ele>961.23</ele>
        <time>2024-11-06T04:51:37.237Z</time>
      </trkpt>
      <trkpt lat="44.20867" lon="3.40706">
        <ele>960.49</ele>
        <time>2024-11-06T04:51:54.535Z</time>
      </trkpt>
      <trkpt lat="44.20873" lon="3.40733">
        <ele>959.74</ele>
        <time>2024-11-06T04:52:11.837Z</time>
      </trkpt>
      <trkpt lat="44.20874" lon="3.40765">
        <ele>958.94</ele>
        <time>2024-11-06T04:52:29.142Z</time>
      </trkpt>
      <trkpt lat="44.20876" lon="3.40809">
        <ele>958.16</ele>
        <time>2024-11-06T04:52:46.452Z</time>
      </trkpt>
      <trkpt lat="44.20877" lon="3.40837">
        <ele>957.36</ele>
        <time>2024-11-06T04:53:03.766Z</time>
      </trkpt>
      <trkpt lat="44.20887" lon="3.40878">
        <ele>956.56</ele>
        <time>2024-11-06T04:53:21.085Z</time>
      </trkpt>
      <trkpt lat="44.20889" lon="3.40885">
        <ele>955.76</ele>
        <time>2024-11-06T04:53:38.404Z</time>
      </trkpt>
      <trkpt lat="44.20896" lon="3.40918">
        <ele>954.92</ele>
        <time>2024-11-06T04:53:55.727Z</time>
      </trkpt>
      <trkpt lat="44.20903" lon="3.40933">
        <ele>954.11</ele>
        <time>2024-11-06T04:54:13.052Z</time>
      </trkpt>
      <trkpt lat="44.20917" lon="3.40965">
        <ele>953.31</ele>
        <time>2024-11-06T04:54:30.382Z</time>
      </trkpt>
      <trkpt lat="44.20921" lon="3.40987">
        <ele>952.47</ele>
        <time>2024-11-06T04:54:47.714Z</time>
      </trkpt>
      <trkpt lat="44.20921" lon="3.41031">
        <ele>951.58</ele>
        <time>2024-11-06T04:55:05.051Z</time>
      </trkpt>
      <trkpt lat="44.20921" lon="3.4104">
        <ele>950.75</ele>
        <time>2024-11-06T04:55:22.389Z</time>
      </trkpt>
      <trkpt lat="44.20919" lon="3.41053">
        <ele>949.9</ele>
        <time>2024-11-06T04:55:39.729Z</time>
      </trkpt>
      <trkpt lat="44.20915" lon="3.41075">
        <ele>949.04</ele>
        <time>2024-11-06T04:55:57.072Z</time>
      </trkpt>
      <trkpt lat="44.20914" lon="3.41114">
        <ele>948.22</ele>
        <time>2024-11-06T04:56:14.419Z</time>
      </trkpt>
      <trkpt lat="44.20919" lon="3.41157">
        <ele>947.42</ele>
        <time>2024-11-06T04:56:31.771Z</time>
      </trkpt>
      <trkpt lat="44.20921" lon="3.4117">
        <ele>946.61</ele>
        <time>2024-11-06T04:56:49.125Z</time>
      </trkpt>
      <trkpt lat="44.20929" lon="3.41212">
        <ele>945.75</ele>
        <time>2024-11-06T04:57:06.484Z</time>
      </trkpt>
      <trkpt lat="44.2093" lon="3.41218">
        <ele>944.95</ele>
        <time>2024-11-06T04:57:23.843Z</time>
      </trkpt>
      <trkpt lat="44.20941" lon="3.41259">
        <ele>944.13</ele>
        <time>2024-11-06T04:57:41.207Z</time>
      </trkpt>
      <trkpt lat="44.20952" lon="3.413">
        <ele>943.33</ele>
        <time>2024-11-06T04:57:58.576Z</time>
      </trkpt>
      <trkpt lat="44.20962" lon="3.41342">
        <ele>942.5</ele>
        <time>2024-11-06T04:58:15.950Z</time>
      </trkpt>
      <trkpt lat="44.20972" lon="3.41379">
        <ele>941.7</ele>
        <time>2024-11-06T04:58:33.329Z</time>
      </trkpt>
      <trkpt lat="44.2098" lon="3.41421">
        <ele>940.88</ele>
        <time>2024-11-06T04:58:50.713Z</time>
      </trkpt>
      <trkpt lat="44.2098" lon="3.41422">
        <ele>940.19</ele>
        <time>2024-11-06T04:59:08.097Z</time>
      </trkpt>
      <trkpt lat="44.20977" lon="3.41457">
        <ele>939.42</ele>
        <time>2024-11-06T04:59:25.485Z</time>
      </trkpt>
      <trkpt lat="44.2097" lon="3.415">
        <ele>938.69</ele>
        <time>2024-11-06T04:59:42.878Z</time>
      </trkpt>
      <trkpt lat="44.20969" lon="3.41506">
        <ele>938.07</ele>
        <time>2024-11-06T05:00:00.272Z</time>
      </trkpt>
      <trkpt lat="44.20959" lon="3.41548">
        <ele>937.46</ele>
        <time>2024-11-06T05:00:17.671Z</time>
      </trkpt>
      <trkpt lat="44.2095" lon="3.41587">
        <ele>936.92</ele>
        <time>2024-11-06T05:00:35.075Z</time>
      </trkpt>
      <trkpt lat="44.20939" lon="3.41628">
        <ele>936.4</ele>
        <time>2024-11-06T05:00:52.484Z</time>
      </trkpt>
      <trkpt lat="44.20934" lon="3.41647">
        <ele>935.91</ele>
        <time>2024-11-06T05:01:09.895Z</time>
      </trkpt>
      <trkpt lat="44.20922" lon="3.41678">
        <ele>935.47</ele>
        <time>2024-11-06T05:01:27.310Z</time>
      </trkpt>
      <trkpt lat="44.20903" lon="3.41713">
        <ele>935.02</ele>
        <time>2024-11-06T05:01:44.730Z</time>
      </trkpt>
      <trkpt lat="44.20893" lon="3.41731">
        <ele>934.64</ele>
        <time>2024-11-06T05:02:02.153Z</time>
      </trkpt>
      <trkpt lat="44.20878" lon="3.41759">
        <ele>934.29</ele>
        <time>2024-11-06T05:02:19.580Z</time>
      </trkpt>
      <trkpt lat="44.20866" lon="3.4179">
        <ele>933.98</ele>
        <time>2024-11-06T05:02:37.011Z</time>
      </trkpt>
      <trkpt lat="44.2086" lon="3.41827">
        <ele>933.75</ele>
        <time>2024-11-06T05:02:54.446Z</time>
      </trkpt>
      <trkpt lat="44.20857" lon="3.41852">
        <ele>933.55</ele>
        <time>2024-11-06T05:03:11.884Z</time>
      </trkpt>
      <trkpt lat="44.20851" lon="3.41895">
        <ele>933.4</ele>
        <time>2024-11-06T05:03:29.327Z</time>
      </trkpt>
      <trkpt lat="44.20847" lon="3.41929">
        <ele>933.26</ele>
        <time>2024-11-06T05:03:46.774Z</time>
      </trkpt>
      <trkpt lat="44.2084" lon="3.41972">
        <ele>933.23</ele>
        <time>2024-11-06T05:04:04.226Z</time>
      </trkpt>
      <trkpt lat="44.20833" lon="3.42015">
        <ele>933.2</ele>
        <time>2024-11-06T05:04:21.683Z</time>
      </trkpt>
      <trkpt lat="44.20827" lon="3.42057">
        <ele>933.19</ele>
        <time>2024-11-06T05:04:39.145Z</time>
      </trkpt>
      <trkpt lat="44.20825" lon="3.42067">
        <ele>933.23</ele>
        <time>2024-11-06T05:04:56.608Z</time>
      </trkpt>
      <trkpt lat="44.20815" lon="3.42109">
        <ele>933.35</ele>
        <time>2024-11-06T05:05:14.077Z</time>
      </trkpt>
      <trkpt lat="44.20807" lon="3.42145">
        <ele>933.46</ele>
        <time>2024-11-06T05:05:31.550Z</time>
      </trkpt>
      <trkpt lat="44.20794" lon="3.42185">
        <ele>933.57</ele>
        <time>2024-11-06T05:05:49.028Z</time>
      </trkpt>
      <trkpt lat="44.20788" lon="3.42203">
        <ele>933.7</ele>
        <time>2024-11-06T05:06:06.508Z</time>
      </trkpt>
      <trkpt lat="44.20773" lon="3.4224">
        <ele>933.84</ele>
        <time>2024-11-06T05:06:23.993Z</time>
      </trkpt>
      <trkpt lat="44.20757" lon="3.42277">
        <ele>934.07</ele>
        <time>2024-11-06T05:06:41.483Z</time>
      </trkpt>
      <trkpt lat="44.20747" lon="3.42299">
        <ele>934.29</ele>
        <time>2024-11-06T05:06:58.976Z</time>
      </trkpt>
      <trkpt lat="44.20736" lon="3.42331">
        <ele>934.57</ele>
        <time>2024-11-06T05:07:16.473Z</time>
      </trkpt>
      <trkpt lat="44.20731" lon="3.42374">
        <ele>934.93</ele>
        <time>2024-11-06T05:07:33.975Z</time>
      </trkpt>
      <trkpt lat="44.2073" lon="3.42385">
        <ele>935.24</ele>
        <time>2024-11-06T05:07:51.478Z</time>
      </trkpt>
      <trkpt lat="44.20729" lon="3.42415">
        <ele>935.57</ele>
        <time>2024-11-06T05:08:08.985Z</time>
      </trkpt>
      <trkpt lat="44.20731" lon="3.42437">
        <ele>935.88</ele>
        <time>2024-11-06T05:08:26.494Z</time>
      </trkpt>
      <trkpt lat="44.20736" lon="3.42459">
        <ele>936.21</ele>
        <time>2024-11-06T05:08:44.006Z</time>
      </trkpt>
      <trkpt lat="44.20745" lon="3.42501">
        <ele>936.6</ele>
        <time>2024-11-06T05:09:01.523Z</time>
      </trkpt>
      <trkpt lat="44.20748" lon="3.42514">
        <ele>936.98</ele>
        <time>2024-11-06T05:09:19.042Z</time>
      </trkpt>
      <trkpt lat="44.20757" lon="3.42556">
        <ele>937.37</ele>
        <time>2024-11-06T05:09:36.566Z</time>
      </trkpt>
      <trkpt lat="44.2076" lon="3.4257">
        <ele>937.77</ele>
        <time>2024-11-06T05:09:54.091Z</time>
      </trkpt>
      <trkpt lat="44.2076" lon="3.4259">
        <ele>938.21</ele>
        <time>2024-11-06T05:10:11.619Z</time>
      </trkpt>
      <trkpt lat="44.20757" lon="3.4261">
        <ele>938.65</ele>
        <time>2024-11-06T05:10:29.149Z</time>
      </trkpt>
      <trkpt lat="44.20748" lon="3.42652">
        <ele>939.09</ele>
        <time>2024-11-06T05:10:46.684Z</time>
      </trkpt>
      <trkpt lat="44.20741" lon="3.42686">
        <ele>939.52</ele>
        <time>2024-11-06T05:11:04.223Z</time>
      </trkpt>
      <trkpt lat="44.20731" lon="3.42728">
        <ele>939.95</ele>
        <time>2024-11-06T05:11:21.767Z</time>
      </trkpt>
      <trkpt lat="44.20726" lon="3.42751">
        <ele>940.42</ele>
        <time>2024-11-06T05:11:39.314Z</time>
      </trkpt>
      <trkpt lat="44.20718" lon="3.42779">
        <ele>940.89</ele>
        <time>2024-11-06T05:11:56.865Z</time>
      </trkpt>
      <trkpt lat="44.20701" lon="3.42816">
        <ele>941.4</ele>
        <time>2024-11-06T05:12:14.421Z</time>
      </trkpt>
      <trkpt lat="44.207" lon="3.42817">
        <ele>941.88</ele>
        <time>2024-11-06T05:12:31.977Z</time>
      </trkpt>
      <trkpt lat="44.20686" lon="3.42845">
        <ele>942.39</ele>
        <time>2024-11-06T05:12:49.537Z</time>
      </trkpt>
      <trkpt lat="44.20664" lon="3.42877">
        <ele>942.92</ele>
        <time>2024-11-06T05:13:07.102Z</time>
      </trkpt>
      <trkpt lat="44.20662" lon="3.4288">
        <ele>943.41</ele>
        <time>2024-11-06T05:13:24.667Z</time>
      </trkpt>
      <trkpt lat="44.20649" lon="3.42892">
        <ele>943.93</ele>
        <time>2024-11-06T05:13:42.235Z</time>
      </trkpt>
      <trkpt lat="44.20635" lon="3.429">
        <ele>944.44</ele>
        <time>2024-11-06T05:13:59.805Z</time>
      </trkpt>
      <trkpt lat="44.20604" lon="3.42909">
        <ele>944.97</ele>
        <time>2024-11-06T05:14:17.380Z</time>
      </trkpt>
      <trkpt lat="44.20588" lon="3.42913">
        <ele>945.49</ele>
        <time>2024-11-06T05:14:34.958Z</time>
      </trkpt>
      <trkpt lat="44.20557" lon="3.4292">
        <ele>946.01</ele>
        <time>2024-11-06T05:14:52.541Z</time>
      </trkpt>
      <trkpt lat="44.20543" lon="3.42923">
        <ele>946.53</ele>
        <time>2024-11-06T05:15:10.126Z</time>
      </trkpt>
      <trkpt lat="44.20512" lon="3.4292">
        <ele>947.09</ele>
        <time>2024-11-06T05:15:27.716Z</time>
      </trkpt>
      <trkpt lat="44.20506" lon="3.4292">
        <ele>947.62</ele>
        <time>2024-11-06T05:15:45.307Z</time>
      </trkpt>
      <trkpt lat="44.20475" lon="3.42922">
        <ele>948.19</ele>
        <time>2024-11-06T05:16:02.903Z</time>
      </trkpt>
      <trkpt lat="44.20457" lon="3.42925">
        <ele>948.74</ele>
        <time>2024-11-06T05:16:20.502Z</time>
      </trkpt>
      <trkpt lat="44.20439" lon="3.42929">
        <ele>949.3</ele>
        <time>2024-11-06T05:16:38.104Z</time>
      </trkpt>
      <trkpt lat="44.20417" lon="3.42939">
        <ele>949.85</ele>
        <time>2024-11-06T05:16:55.710Z</time>
      </trkpt>
      <trkpt lat="44.20404" lon="3.42951">
        <ele>950.4</ele>
        <time>2024-11-06T05:17:13.318Z</time>
      </trkpt>
      <trkpt lat="44.20387" lon="3.4297">
        <ele>950.97</ele>
        <time>2024-11-06T05:17:30.930Z</time>
      </trkpt>
      <trkpt lat="44.20375" lon="3.42989">
        <ele>951.54</ele>
        <time>2024-11-06T05:17:48.544Z</time>
      </trkpt>
      <trkpt lat="44.20369" lon="3.43002">
        <ele>952.13</ele>
        <time>2024-11-06T05:18:06.160Z</time>
      </trkpt>
      <trkpt lat="44.20368" lon="3.43015">
        <ele>952.73</ele>
        <time>2024-11-06T05:18:23.778Z</time>
      </trkpt>
      <trkpt lat="44.2037" lon="3.43031">
        <ele>953.34</ele>
        <time>2024-11-06T05:18:41.398Z</time>
      </trkpt>
      <trkpt lat="44.20382" lon="3.43071">
        <ele>953.93</ele>
        <time>2024-11-06T05:18:59.023Z</time>
      </trkpt>
      <trkpt lat="44.20391" lon="3.431">
        <ele>954.58</ele>
        <time>2024-11-06T05:19:16.651Z</time>
      </trkpt>
      <trkpt lat="44.20402" lon="3.43141">
        <ele>955.27</ele>
        <time>2024-11-06T05:19:34.284Z</time>
      </trkpt>
      <trkpt lat="44.20404" lon="3.43147">
        <ele>955.99</ele>
        <time>2024-11-06T05:19:51.918Z</time>
      </trkpt>
      <trkpt lat="44.20409" lon="3.43164">
        <ele>956.74</ele>
        <time>2024-11-06T05:20:09.554Z</time>
      </trkpt>
      <trkpt lat="44.20417" lon="3.4316">
        <ele>957.48</ele>
        <time>2024-11-06T05:20:27.192Z</time>
      </trkpt>
      <trkpt lat="44.20417" lon="3.4316">
        <ele>958.27</ele>
        <time>2024-11-06T05:20:44.830Z</time>
      </trkpt>
      <trkpt lat="44.20417" lon="3.4316">
        <ele>959.08</ele>
        <time>2024-11-06T05:21:02.468Z</time>
      </trkpt>
      <trkpt lat="44.20417" lon="3.4316">
        <ele>959.92</ele>
        <time>2024-11-06T05:21:20.106Z</time>
      </trkpt>
      <trkpt lat="44.20409" lon="3.43164">
        <ele>956.74</ele>
        <time>2024-11-06T05:21:37.745Z</time>
      </trkpt>
      <trkpt lat="44.20421" lon="3.43204">
        <ele>961.79</ele>
        <time>2024-11-06T05:21:55.389Z</time>
      </trkpt>
      <trkpt lat="44.20434" lon="3.43244">
        <ele>962.83</ele>
        <time>2024-11-06T05:22:13.038Z</time>
      </trkpt>
      <trkpt lat="44.20446" lon="3.43285">
        <ele>963.86</ele>
        <time>2024-11-06T05:22:30.692Z</time>
      </trkpt>
      <trkpt lat="44.20448" lon="3.4329">
        <ele>964.84</ele>
        <time>2024-11-06T05:22:48.347Z</time>
      </trkpt>
      <trkpt lat="44.20449" lon="3.4331">
        <ele>965.87</ele>
        <time>2024-11-06T05:23:06.004Z</time>
      </trkpt>
      <trkpt lat="44.20444" lon="3.4333">
        <ele>966.94</ele>
        <time>2024-11-06T05:23:23.664Z</time>
      </trkpt>
      <trkpt lat="44.20436" lon="3.4334">
        <ele>968</ele>
        <time>2024-11-06T05:23:41.325Z</time>
      </trkpt>
      <trkpt lat="44.20412" lon="3.43359">
        <ele>969.13</ele>
        <time>2024-11-06T05:23:58.991Z</time>
      </trkpt>
      <trkpt lat="44.20386" lon="3.43384">
        <ele>970.27</ele>
        <time>2024-11-06T05:24:16.662Z</time>
      </trkpt>
      <trkpt lat="44.20383" lon="3.43387">
        <ele>971.36</ele>
        <time>2024-11-06T05:24:34.333Z</time>
      </trkpt>
      <trkpt lat="44.20368" lon="3.43402">
        <ele>972.5</ele>
        <time>2024-11-06T05:24:52.007Z</time>
      </trkpt>
      <trkpt lat="44.20345" lon="3.43431">
        <ele>973.7</ele>
        <time>2024-11-06T05:25:09.686Z</time>
      </trkpt>
      <trkpt lat="44.20341" lon="3.43436">
        <ele>974.84</ele>
        <time>2024-11-06T05:25:27.366Z</time>
      </trkpt>
      <trkpt lat="44.20318" lon="3.43466">
        <ele>976.08</ele>
        <time>2024-11-06T05:25:45.051Z</time>
      </trkpt>
      <trkpt lat="44.20312" lon="3.43473">
        <ele>977.25</ele>
        <time>2024-11-06T05:26:02.737Z</time>
      </trkpt>
      <trkpt lat="44.20288" lon="3.43501">
        <ele>978.47</ele>
        <time>2024-11-06T05:26:20.428Z</time>
      </trkpt>
      <trkpt lat="44.20279" lon="3.43512">
        <ele>979.64</ele>
        <time>2024-11-06T05:26:38.121Z</time>
      </trkpt>
      <trkpt lat="44.20267" lon="3.43537">
        <ele>980.88</ele>
        <time>2024-11-06T05:26:55.818Z</time>
      </trkpt>
      <trkpt lat="44.20253" lon="3.43555">
        <ele>982.1</ele>
        <time>2024-11-06T05:27:13.518Z</time>
      </trkpt>
      <trkpt lat="44.20247" lon="3.43559">
        <ele>983.29</ele>
        <time>2024-11-06T05:27:31.219Z</time>
      </trkpt>
      <trkpt lat="44.20239" lon="3.43561">
        <ele>984.47</ele>
        <time>2024-11-06T05:27:48.921Z</time>
      </trkpt>
      <trkpt lat="44.2022" lon="3.43562">
        <ele>985.65</ele>
        <time>2024-11-06T05:28:06.626Z</time>
      </trkpt>
      <trkpt lat="44.20189" lon="3.43558">
        <ele>986.86</ele>
        <time>2024-11-06T05:28:24.336Z</time>
      </trkpt>
      <trkpt lat="44.20181" lon="3.43557">
        <ele>988.04</ele>
        <time>2024-11-06T05:28:42.048Z</time>
      </trkpt>
      <trkpt lat="44.20156" lon="3.43543">
        <ele>989.21</ele>
        <time>2024-11-06T05:28:59.764Z</time>
      </trkpt>
      <trkpt lat="44.20145" lon="3.43535">
        <ele>990.39</ele>
        <time>2024-11-06T05:29:17.482Z</time>
      </trkpt>
      <trkpt lat="44.20128" lon="3.4353">
        <ele>991.6</ele>
        <time>2024-11-06T05:29:35.203Z</time>
      </trkpt>
      <trkpt lat="44.20118" lon="3.43529">
        <ele>992.79</ele>
        <time>2024-11-06T05:29:52.925Z</time>
      </trkpt>
      <trkpt lat="44.20112" lon="3.43531">
        <ele>993.97</ele>
        <time>2024-11-06T05:30:10.648Z</time>
      </trkpt>
      <trkpt lat="44.20102" lon="3.43539">
        <ele>995.15</ele>
        <time>2024-11-06T05:30:28.373Z</time>
      </trkpt>
      <trkpt lat="44.20097" lon="3.43549">
        <ele>996.29</ele>
        <time>2024-11-06T05:30:46.099Z</time>
      </trkpt>
      <trkpt lat="44.20094" lon="3.43571">
        <ele>997.44</ele>
        <time>2024-11-06T05:31:03.828Z</time>
      </trkpt>
      <trkpt lat="44.2009" lon="3.4361">
        <ele>998.59</ele>
        <time>2024-11-06T05:31:21.562Z</time>
      </trkpt>
      <trkpt lat="44.20084" lon="3.43645">
        <ele>999.78</ele>
        <time>2024-11-06T05:31:39.300Z</time>
      </trkpt>
      <trkpt lat="44.20076" lon="3.4368">
        <ele>1000.91</ele>
        <time>2024-11-06T05:31:57.042Z</time>
      </trkpt>
      <trkpt lat="44.20071" lon="3.43723">
        <ele>1002.02</ele>
        <time>2024-11-06T05:32:14.789Z</time>
      </trkpt>
      <trkpt lat="44.20068" lon="3.43754">
        <ele>1003.04</ele>
        <time>2024-11-06T05:32:32.540Z</time>
      </trkpt>
      <trkpt lat="44.20067" lon="3.43798">
        <ele>1004.14</ele>
        <time>2024-11-06T05:32:50.296Z</time>
      </trkpt>
      <trkpt lat="44.20066" lon="3.43817">
        <ele>1005.17</ele>
        <time>2024-11-06T05:33:08.054Z</time>
      </trkpt>
      <trkpt lat="44.20069" lon="3.43857">
        <ele>1006.14</ele>
        <time>2024-11-06T05:33:25.816Z</time>
      </trkpt>
      <trkpt lat="44.20073" lon="3.43867">
        <ele>1007.07</ele>
        <time>2024-11-06T05:33:43.580Z</time>
      </trkpt>
      <trkpt lat="44.2008" lon="3.43872">
        <ele>1007.99</ele>
        <time>2024-11-06T05:34:01.345Z</time>
      </trkpt>
      <trkpt lat="44.20086" lon="3.43873">
        <ele>1008.9</ele>
        <time>2024-11-06T05:34:19.111Z</time>
      </trkpt>
      <trkpt lat="44.20103" lon="3.43871">
        <ele>1009.8</ele>
        <time>2024-11-06T05:34:36.880Z</time>
      </trkpt>
      <trkpt lat="44.2012" lon="3.43866">
        <ele>1010.72</ele>
        <time>2024-11-06T05:34:54.651Z</time>
      </trkpt>
      <trkpt lat="44.2013" lon="3.4386">
        <ele>1011.59</ele>
        <time>2024-11-06T05:35:12.424Z</time>
      </trkpt>
      <trkpt lat="44.20146" lon="3.43841">
        <ele>1012.43</ele>
        <time>2024-11-06T05:35:30.201Z</time>
      </trkpt>
      <trkpt lat="44.20156" lon="3.43834">
        <ele>1013.23</ele>
        <time>2024-11-06T05:35:47.979Z</time>
      </trkpt>
      <trkpt lat="44.20168" lon="3.43831">
        <ele>1014.01</ele>
        <time>2024-11-06T05:36:05.759Z</time>
      </trkpt>
      <trkpt lat="44.20185" lon="3.43835">
        <ele>1014.79</ele>
        <time>2024-11-06T05:36:23.542Z</time>
      </trkpt>
      <trkpt lat="44.20213" lon="3.43855">
        <ele>1015.61</ele>
        <time>2024-11-06T05:36:41.330Z</time>
      </trkpt>
      <trkpt lat="44.20233" lon="3.4387">
        <ele>1016.37</ele>
        <time>2024-11-06T05:36:59.122Z</time>
      </trkpt>
      <trkpt lat="44.20261" lon="3.43891">
        <ele>1017.13</ele>
        <time>2024-11-06T05:37:16.919Z</time>
      </trkpt>
      <trkpt lat="44.20288" lon="3.43912">
        <ele>1017.82</ele>
        <time>2024-11-06T05:37:34.721Z</time>
      </trkpt>
      <trkpt lat="44.20293" lon="3.43916">
        <ele>1018.47</ele>
        <time>2024-11-06T05:37:52.524Z</time>
      </trkpt>
      <trkpt lat="44.20315" lon="3.43935">
        <ele>1019.09</ele>
        <time>2024-11-06T05:38:10.331Z</time>
      </trkpt>
      <trkpt lat="44.2034" lon="3.43962">
        <ele>1019.72</ele>
        <time>2024-11-06T05:38:28.143Z</time>
      </trkpt>
      <trkpt lat="44.2034" lon="3.43962">
        <ele>1020.34</ele>
        <time>2024-11-06T05:38:45.955Z</time>
      </trkpt>
      <trkpt lat="44.20365" lon="3.4399">
        <ele>1021</ele>
        <time>2024-11-06T05:39:03.772Z</time>
      </trkpt>
      <trkpt lat="44.20382" lon="3.44009">
        <ele>1021.66</ele>
        <time>2024-11-06T05:39:21.593Z</time>
      </trkpt>
      <trkpt lat="44.20406" lon="3.44037">
        <ele>1022.35</ele>
        <time>2024-11-06T05:39:39.419Z</time>
      </trkpt>
      <trkpt lat="44.20415" lon="3.44048">
        <ele>1022.94</ele>
        <time>2024-11-06T05:39:57.247Z</time>
      </trkpt>
      <trkpt lat="44.20436" lon="3.4408">
        <ele>1023.5</ele>
        <time>2024-11-06T05:40:15.080Z</time>
      </trkpt>
      <trkpt lat="44.20447" lon="3.44096">
        <ele>1024.05</ele>
        <time>2024-11-06T05:40:32.915Z</time>
      </trkpt>
      <trkpt lat="44.20451" lon="3.4411">
        <ele>1024.59</ele>
        <time>2024-11-06T05:40:50.752Z</time>
      </trkpt>
      <trkpt lat="44.20457" lon="3.44143">
        <ele>1025.15</ele>
        <time>2024-11-06T05:41:08.593Z</time>
      </trkpt>
      <trkpt lat="44.20463" lon="3.44186">
        <ele>1025.69</ele>
        <time>2024-11-06T05:41:26.439Z</time>
      </trkpt>
      <trkpt lat="44.2047" lon="3.44229">
        <ele>1026.24</ele>
        <time>2024-11-06T05:41:44.290Z</time>
      </trkpt>
      <trkpt lat="44.20472" lon="3.44243">
        <ele>1026.81</ele>
        <time>2024-11-06T05:42:02.142Z</time>
      </trkpt>
      <trkpt lat="44.20475" lon="3.44287">
        <ele>1027.43</ele>
        <time>2024-11-06T05:42:19.999Z</time>
      </trkpt>
      <trkpt lat="44.20476" lon="3.44299">
        <ele>1028.03</ele>
        <time>2024-11-06T05:42:37.858Z</time>
      </trkpt>
      <trkpt lat="44.20475" lon="3.44328">
        <ele>1028.64</ele>
        <time>2024-11-06T05:42:55.720Z</time>
      </trkpt>
      <trkpt lat="44.2047" lon="3.44371">
        <ele>1029.21</ele>
        <time>2024-11-06T05:43:13.587Z</time>
      </trkpt>
      <trkpt lat="44.20465" lon="3.44414">
        <ele>1029.81</ele>
        <time>2024-11-06T05:43:31.459Z</time>
      </trkpt>
      <trkpt lat="44.20464" lon="3.44419">
        <ele>1030.47</ele>
        <time>2024-11-06T05:43:49.332Z</time>
      </trkpt>
      <trkpt lat="44.20462" lon="3.44438">
        <ele>1031.18</ele>
        <time>2024-11-06T05:44:07.207Z</time>
      </trkpt>
      <trkpt lat="44.20457" lon="3.4446">
        <ele>1031.9</ele>
        <time>2024-11-06T05:44:25.085Z</time>
      </trkpt>
      <trkpt lat="44.2045" lon="3.44473">
        <ele>1032.65</ele>
        <time>2024-11-06T05:44:42.965Z</time>
      </trkpt>
      <trkpt lat="44.20427" lon="3.445">
        <ele>1033.38</ele>
        <time>2024-11-06T05:45:00.849Z</time>
      </trkpt>
      <trkpt lat="44.20416" lon="3.44513">
        <ele>1034.12</ele>
        <time>2024-11-06T05:45:18.736Z</time>
      </trkpt>
      <trkpt lat="44.20404" lon="3.44538">
        <ele>1034.91</ele>
        <time>2024-11-06T05:45:36.626Z</time>
      </trkpt>
      <trkpt lat="44.20396" lon="3.44561">
        <ele>1035.75</ele>
        <time>2024-11-06T05:45:54.519Z</time>
      </trkpt>
      <trkpt lat="44.2039" lon="3.44584">
        <ele>1036.62</ele>
        <time>2024-11-06T05:46:12.415Z</time>
      </trkpt>
      <trkpt lat="44.20386" lon="3.44622">
        <ele>1037.6</ele>
        <time>2024-11-06T05:46:30.315Z</time>
      </trkpt>
      <trkpt lat="44.2039" lon="3.44658">
        <ele>1038.54</ele>
        <time>2024-11-06T05:46:48.220Z</time>
      </trkpt>
      <trkpt lat="44.20397" lon="3.44701">
        <ele>1039.43</ele>
        <time>2024-11-06T05:47:06.130Z</time>
      </trkpt>
      <trkpt lat="44.20398" lon="3.44707">
        <ele>1040.3</ele>
        <time>2024-11-06T05:47:24.040Z</time>
      </trkpt>
      <trkpt lat="44.20401" lon="3.44731">
        <ele>1041.17</ele>
        <time>2024-11-06T05:47:41.953Z</time>
      </trkpt>
      <trkpt lat="44.20402" lon="3.44775">
        <ele>1042.04</ele>
        <time>2024-11-06T05:47:59.871Z</time>
      </trkpt>
      <trkpt lat="44.20403" lon="3.44819">
        <ele>1042.92</ele>
        <time>2024-11-06T05:48:17.794Z</time>
      </trkpt>
      <trkpt lat="44.20404" lon="3.44849">
        <ele>1043.83</ele>
        <time>2024-11-06T05:48:35.721Z</time>
      </trkpt>
      <trkpt lat="44.20407" lon="3.44893">
        <ele>1044.82</ele>
        <time>2024-11-06T05:48:53.653Z</time>
      </trkpt>
      <trkpt lat="44.20408" lon="3.44907">
        <ele>1045.81</ele>
        <time>2024-11-06T05:49:11.586Z</time>
      </trkpt>
      <trkpt lat="44.20413" lon="3.4494">
        <ele>1046.83</ele>
        <time>2024-11-06T05:49:29.523Z</time>
      </trkpt>
      <trkpt lat="44.20426" lon="3.44978">
        <ele>1047.86</ele>
        <time>2024-11-06T05:49:47.465Z</time>
      </trkpt>
      <trkpt lat="44.2044" lon="3.45018">
        <ele>1048.95</ele>
        <time>2024-11-06T05:50:05.412Z</time>
      </trkpt>
      <trkpt lat="44.20453" lon="3.45057">
        <ele>1050.09</ele>
        <time>2024-11-06T05:50:23.364Z</time>
      </trkpt>
      <trkpt lat="44.20457" lon="3.45068">
        <ele>1051.11</ele>
        <time>2024-11-06T05:50:41.318Z</time>
      </trkpt>
      <trkpt lat="44.2047" lon="3.45108">
        <ele>1052.17</ele>
        <time>2024-11-06T05:50:59.277Z</time>
      </trkpt>
      <trkpt lat="44.20479" lon="3.45137">
        <ele>1053.16</ele>
        <time>2024-11-06T05:51:17.239Z</time>
      </trkpt>
      <trkpt lat="44.20487" lon="3.45167">
        <ele>1054.2</ele>
        <time>2024-11-06T05:51:35.205Z</time>
      </trkpt>
      <trkpt lat="44.20487" lon="3.45185">
        <ele>1055.23</ele>
        <time>2024-11-06T05:51:53.173Z</time>
      </trkpt>
      <trkpt lat="44.2048" lon="3.45228">
        <ele>1056.32</ele>
        <time>2024-11-06T05:52:11.146Z</time>
      </trkpt>
      <trkpt lat="44.20479" lon="3.45234">
        <ele>1057.38</ele>
        <time>2024-11-06T05:52:29.120Z</time>
      </trkpt>
      <trkpt lat="44.20473" lon="3.45258">
        <ele>1058.44</ele>
        <time>2024-11-06T05:52:47.097Z</time>
      </trkpt>
      <trkpt lat="44.20457" lon="3.45283">
        <ele>1059.55</ele>
        <time>2024-11-06T05:53:05.078Z</time>
      </trkpt>
      <trkpt lat="44.20438" lon="3.4531">
        <ele>1060.61</ele>
        <time>2024-11-06T05:53:23.063Z</time>
      </trkpt>
      <trkpt lat="44.20419" lon="3.45345">
        <ele>1061.57</ele>
        <time>2024-11-06T05:53:41.053Z</time>
      </trkpt>
      <trkpt lat="44.20415" lon="3.45352">
        <ele>1062.6</ele>
        <time>2024-11-06T05:53:59.044Z</time>
      </trkpt>
      <trkpt lat="44.20405" lon="3.45376">
        <ele>1063.65</ele>
        <time>2024-11-06T05:54:17.038Z</time>
      </trkpt>
      <trkpt lat="44.20388" lon="3.45413">
        <ele>1064.71</ele>
        <time>2024-11-06T05:54:35.037Z</time>
      </trkpt>
      <trkpt lat="44.20383" lon="3.45423">
        <ele>1065.73</ele>
        <time>2024-11-06T05:54:53.038Z</time>
      </trkpt>
      <trkpt lat="44.20367" lon="3.45461">
        <ele>1066.74</ele>
        <time>2024-11-06T05:55:11.044Z</time>
      </trkpt>
      <trkpt lat="44.20363" lon="3.45471">
        <ele>1067.77</ele>
        <time>2024-11-06T05:55:29.051Z</time>
      </trkpt>
      <trkpt lat="44.20351" lon="3.45512">
        <ele>1068.85</ele>
        <time>2024-11-06T05:55:47.063Z</time>
      </trkpt>
      <trkpt lat="44.20347" lon="3.45525">
        <ele>1069.82</ele>
        <time>2024-11-06T05:56:05.077Z</time>
      </trkpt>
      <trkpt lat="44.20345" lon="3.45555">
        <ele>1070.74</ele>
        <time>2024-11-06T05:56:23.094Z</time>
      </trkpt>
      <trkpt lat="44.20348" lon="3.45576">
        <ele>1071.66</ele>
        <time>2024-11-06T05:56:41.114Z</time>
      </trkpt>
      <trkpt lat="44.20356" lon="3.45619">
        <ele>1072.6</ele>
        <time>2024-11-06T05:56:59.139Z</time>
      </trkpt>
      <trkpt lat="44.20363" lon="3.45661">
        <ele>1073.52</ele>
        <time>2024-11-06T05:57:17.169Z</time>
      </trkpt>
      <trkpt lat="44.20371" lon="3.45703">
        <ele>1074.51</ele>
        <time>2024-11-06T05:57:35.204Z</time>
      </trkpt>
      <trkpt lat="44.20376" lon="3.45732">
        <ele>1075.43</ele>
        <time>2024-11-06T05:57:53.242Z</time>
      </trkpt>
      <trkpt lat="44.20385" lon="3.45774">
        <ele>1076.25</ele>
        <time>2024-11-06T05:58:11.285Z</time>
      </trkpt>
      <trkpt lat="44.20388" lon="3.45786">
        <ele>1077.07</ele>
        <time>2024-11-06T05:58:29.330Z</time>
      </trkpt>
      <trkpt lat="44.20401" lon="3.45826">
        <ele>1077.88</ele>
        <time>2024-11-06T05:58:47.380Z</time>
      </trkpt>
      <trkpt lat="44.2041" lon="3.45855">
        <ele>1078.59</ele>
        <time>2024-11-06T05:59:05.433Z</time>
      </trkpt>
      <trkpt lat="44.20425" lon="3.45894">
        <ele>1079.24</ele>
        <time>2024-11-06T05:59:23.492Z</time>
      </trkpt>
      <trkpt lat="44.20437" lon="3.45925">
        <ele>1080.02</ele>
        <time>2024-11-06T05:59:41.555Z</time>
      </trkpt>
      <trkpt lat="44.20437" lon="3.45925">
        <ele>1080.62</ele>
        <time>2024-11-06T05:59:59.618Z</time>
      </trkpt>
      <trkpt lat="44.20437" lon="3.45925">
        <ele>1081.19</ele>
        <time>2024-11-06T06:00:17.681Z</time>
      </trkpt>
      <trkpt lat="44.20437" lon="3.45925">
        <ele>1081.7</ele>
        <time>2024-11-06T06:00:35.744Z</time>
      </trkpt>
      <trkpt lat="44.2045" lon="3.45965">
        <ele>1082.25</ele>
        <time>2024-11-06T06:00:53.812Z</time>
      </trkpt>
      <trkpt lat="44.20459" lon="3.4599">
        <ele>1082.77</ele>
        <time>2024-11-06T06:01:11.883Z</time>
      </trkpt>
      <trkpt lat="44.20472" lon="3.4603">
        <ele>1083.28</ele>
        <time>2024-11-06T06:01:29.959Z</time>
      </trkpt>
      <trkpt lat="44.20479" lon="3.46052">
        <ele>1083.61</ele>
        <time>2024-11-06T06:01:48.038Z</time>
      </trkpt>
      <trkpt lat="44.20487" lon="3.46094">
        <ele>1083.86</ele>
        <time>2024-11-06T06:02:06.122Z</time>
      </trkpt>
      <trkpt lat="44.20492" lon="3.46117">
        <ele>1084.02</ele>
        <time>2024-11-06T06:02:24.208Z</time>
      </trkpt>
      <trkpt lat="44.20498" lon="3.46149">
        <ele>1084.1</ele>
        <time>2024-11-06T06:02:42.298Z</time>
      </trkpt>
      <trkpt lat="44.20506" lon="3.46175">
        <ele>1084.15</ele>
        <time>2024-11-06T06:03:00.392Z</time>
      </trkpt>
      <trkpt lat="44.2052" lon="3.46214">
        <ele>1084.12</ele>
        <time>2024-11-06T06:03:18.491Z</time>
      </trkpt>
      <trkpt lat="44.20529" lon="3.4624">
        <ele>1084.07</ele>
        <time>2024-11-06T06:03:36.593Z</time>
      </trkpt>
      <trkpt lat="44.20539" lon="3.46265">
        <ele>1083.93</ele>
        <time>2024-11-06T06:03:54.698Z</time>
      </trkpt>
      <trkpt lat="44.20555" lon="3.46295">
        <ele>1083.69</ele>
        <time>2024-11-06T06:04:12.807Z</time>
      </trkpt>
      <trkpt lat="44.20576" lon="3.46327">
        <ele>1083.36</ele>
        <time>2024-11-06T06:04:30.922Z</time>
      </trkpt>
      <trkpt lat="44.20598" lon="3.46359">
        <ele>1082.99</ele>
        <time>2024-11-06T06:04:49.042Z</time>
      </trkpt>
      <trkpt lat="44.20619" lon="3.46391">
        <ele>1082.58</ele>
        <time>2024-11-06T06:05:07.167Z</time>
      </trkpt>
      <trkpt lat="44.20629" lon="3.46406">
        <ele>1082.13</ele>
        <time>2024-11-06T06:05:25.294Z</time>
      </trkpt>
      <trkpt lat="44.20646" lon="3.46443">
        <ele>1081.55</ele>
        <time>2024-11-06T06:05:43.426Z</time>
      </trkpt>
      <trkpt lat="44.20661" lon="3.46473">
        <ele>1080.89</ele>
        <time>2024-11-06T06:06:01.562Z</time>
      </trkpt>
      <trkpt lat="44.20675" lon="3.46509">
        <ele>1080.14</ele>
        <time>2024-11-06T06:06:19.703Z</time>
      </trkpt>
      <trkpt lat="44.20684" lon="3.46532">
        <ele>1079.43</ele>
        <time>2024-11-06T06:06:37.847Z</time>
      </trkpt>
      <trkpt lat="44.20689" lon="3.46539">
        <ele>1078.73</ele>
        <time>2024-11-06T06:06:55.992Z</time>
      </trkpt>
      <trkpt lat="44.20703" lon="3.46555">
        <ele>1077.97</ele>
        <time>2024-11-06T06:07:14.140Z</time>
      </trkpt>
      <trkpt lat="44.20716" lon="3.46572">
        <ele>1077.2</ele>
        <time>2024-11-06T06:07:32.291Z</time>
      </trkpt>
      <trkpt lat="44.20729" lon="3.46589">
        <ele>1076.41</ele>
        <time>2024-11-06T06:07:50.445Z</time>
      </trkpt>
      <trkpt lat="44.20747" lon="3.46625">
        <ele>1075.57</ele>
        <time>2024-11-06T06:08:08.604Z</time>
      </trkpt>
      <trkpt lat="44.20751" lon="3.46633">
        <ele>1074.65</ele>
        <time>2024-11-06T06:08:26.764Z</time>
      </trkpt>
      <trkpt lat="44.20769" lon="3.46669">
        <ele>1073.7</ele>
        <time>2024-11-06T06:08:44.929Z</time>
      </trkpt>
      <trkpt lat="44.2077" lon="3.46672">
        <ele>1072.71</ele>
        <time>2024-11-06T06:09:03.094Z</time>
      </trkpt>
      <trkpt lat="44.20786" lon="3.46696">
        <ele>1071.67</ele>
        <time>2024-11-06T06:09:21.263Z</time>
      </trkpt>
      <trkpt lat="44.208" lon="3.46706">
        <ele>1070.64</ele>
        <time>2024-11-06T06:09:39.434Z</time>
      </trkpt>
      <trkpt lat="44.20818" lon="3.46715">
        <ele>1069.56</ele>
        <time>2024-11-06T06:09:57.609Z</time>
      </trkpt>
      <trkpt lat="44.20847" lon="3.46733">
        <ele>1068.45</ele>
        <time>2024-11-06T06:10:15.789Z</time>
      </trkpt>
      <trkpt lat="44.2086" lon="3.46741">
        <ele>1067.32</ele>
        <time>2024-11-06T06:10:33.971Z</time>
      </trkpt>
      <trkpt lat="44.2088" lon="3.46751">
        <ele>1066.16</ele>
        <time>2024-11-06T06:10:52.156Z</time>
      </trkpt>
      <trkpt lat="44.20907" lon="3.46759">
        <ele>1064.92</ele>
        <time>2024-11-06T06:11:10.346Z</time>
      </trkpt>
      <trkpt lat="44.20921" lon="3.46759">
        <ele>1063.77</ele>
        <time>2024-11-06T06:11:28.538Z</time>
      </trkpt>
      <trkpt lat="44.20935" lon="3.46753">
        <ele>1062.64</ele>
        <time>2024-11-06T06:11:46.732Z</time>
      </trkpt>
      <trkpt lat="44.20946" lon="3.46753">
        <ele>1061.47</ele>
        <time>2024-11-06T06:12:04.928Z</time>
      </trkpt>
      <trkpt lat="44.2096" lon="3.4676">
        <ele>1060.25</ele>
        <time>2024-11-06T06:12:23.126Z</time>
      </trkpt>
      <trkpt lat="44.20971" lon="3.4677">
        <ele>1059.03</ele>
        <time>2024-11-06T06:12:41.327Z</time>
      </trkpt>
      <trkpt lat="44.20984" lon="3.46784">
        <ele>1057.79</ele>
        <time>2024-11-06T06:12:59.530Z</time>
      </trkpt>
      <trkpt lat="44.21005" lon="3.46816">
        <ele>1056.49</ele>
        <time>2024-11-06T06:13:17.738Z</time>
      </trkpt>
      <trkpt lat="44.21009" lon="3.46822">
        <ele>1055.34</ele>
        <time>2024-11-06T06:13:35.947Z</time>
      </trkpt>
      <trkpt lat="44.21029" lon="3.46855">
        <ele>1054.18</ele>
        <time>2024-11-06T06:13:54.161Z</time>
      </trkpt>
      <trkpt lat="44.21034" lon="3.46863">
        <ele>1053.08</ele>
        <time>2024-11-06T06:14:12.376Z</time>
      </trkpt>
      <trkpt lat="44.21055" lon="3.46896">
        <ele>1051.98</ele>
        <time>2024-11-06T06:14:30.596Z</time>
      </trkpt>
      <trkpt lat="44.21065" lon="3.46913">
        <ele>1050.89</ele>
        <time>2024-11-06T06:14:48.819Z</time>
      </trkpt>
      <trkpt lat="44.21086" lon="3.46946">
        <ele>1049.85</ele>
        <time>2024-11-06T06:15:07.047Z</time>
      </trkpt>
      <trkpt lat="44.21102" lon="3.46971">
        <ele>1048.87</ele>
        <time>2024-11-06T06:15:25.279Z</time>
      </trkpt>
      <trkpt lat="44.2112" lon="3.47007">
        <ele>1047.85</ele>
        <time>2024-11-06T06:15:43.516Z</time>
      </trkpt>
      <trkpt lat="44.21128" lon="3.47025">
        <ele>1046.89</ele>
        <time>2024-11-06T06:16:01.755Z</time>
      </trkpt>
      <trkpt lat="44.21142" lon="3.4706">
        <ele>1045.96</ele>
        <time>2024-11-06T06:16:19.999Z</time>
      </trkpt>
      <trkpt lat="44.21159" lon="3.47097">
        <ele>1045.08</ele>
        <time>2024-11-06T06:16:38.248Z</time>
      </trkpt>
      <trkpt lat="44.21168" lon="3.47117">
        <ele>1044.27</ele>
        <time>2024-11-06T06:16:56.500Z</time>
      </trkpt>
      <trkpt lat="44.21169" lon="3.47161">
        <ele>1043.54</ele>
        <time>2024-11-06T06:17:14.757Z</time>
      </trkpt>
      <trkpt lat="44.2117" lon="3.4718">
        <ele>1042.85</ele>
        <time>2024-11-06T06:17:33.016Z</time>
      </trkpt>
      <trkpt lat="44.21174" lon="3.47223">
        <ele>1042.22</ele>
        <time>2024-11-06T06:17:51.280Z</time>
      </trkpt>
      <trkpt lat="44.21176" lon="3.47245">
        <ele>1041.61</ele>
        <time>2024-11-06T06:18:09.546Z</time>
      </trkpt>
      <trkpt lat="44.21178" lon="3.47289">
        <ele>1041.02</ele>
        <time>2024-11-06T06:18:27.818Z</time>
      </trkpt>
      <trkpt lat="44.21178" lon="3.47291">
        <ele>1040.46</ele>
        <time>2024-11-06T06:18:46.090Z</time>
      </trkpt>
      <trkpt lat="44.21177" lon="3.47317">
        <ele>1039.93</ele>
        <time>2024-11-06T06:19:04.365Z</time>
      </trkpt>
      <trkpt lat="44.21178" lon="3.47361">
        <ele>1039.43</ele>
        <time>2024-11-06T06:19:22.645Z</time>
      </trkpt>
      <trkpt lat="44.21179" lon="3.47381">
        <ele>1039</ele>
        <time>2024-11-06T06:19:40.927Z</time>
      </trkpt>
      <trkpt lat="44.21177" lon="3.47414">
        <ele>1038.59</ele>
        <time>2024-11-06T06:19:59.213Z</time>
      </trkpt>
      <trkpt lat="44.21165" lon="3.47441">
        <ele>1038.19</ele>
        <time>2024-11-06T06:20:17.503Z</time>
      </trkpt>
      <trkpt lat="44.21153" lon="3.4746">
        <ele>1037.88</ele>
        <time>2024-11-06T06:20:35.796Z</time>
      </trkpt>
      <trkpt lat="44.21132" lon="3.47482">
        <ele>1037.66</ele>
        <time>2024-11-06T06:20:54.093Z</time>
      </trkpt>
      <trkpt lat="44.21106" lon="3.47506">
        <ele>1037.53</ele>
        <time>2024-11-06T06:21:12.395Z</time>
      </trkpt>
      <trkpt lat="44.21083" lon="3.47527">
        <ele>1037.35</ele>
        <time>2024-11-06T06:21:30.701Z</time>
      </trkpt>
      <trkpt lat="44.21056" lon="3.47549">
        <ele>1037.15</ele>
        <time>2024-11-06T06:21:49.012Z</time>
      </trkpt>
      <trkpt lat="44.21036" lon="3.47564">
        <ele>1036.96</ele>
        <time>2024-11-06T06:22:07.327Z</time>
      </trkpt>
      <trkpt lat="44.21022" lon="3.47578">
        <ele>1036.8</ele>
        <time>2024-11-06T06:22:25.645Z</time>
      </trkpt>
      <trkpt lat="44.21009" lon="3.47595">
        <ele>1036.66</ele>
        <time>2024-11-06T06:22:43.965Z</time>
      </trkpt>
      <trkpt lat="44.20991" lon="3.47631">
        <ele>1036.61</ele>
        <time>2024-11-06T06:23:02.290Z</time>
      </trkpt>
      <trkpt lat="44.20989" lon="3.47636">
        <ele>1036.62</ele>
        <time>2024-11-06T06:23:20.616Z</time>
      </trkpt>
      <trkpt lat="44.20972" lon="3.47673">
        <ele>1036.67</ele>
        <time>2024-11-06T06:23:38.947Z</time>
      </trkpt>
      <trkpt lat="44.20968" lon="3.47682">
        <ele>1036.75</ele>
        <time>2024-11-06T06:23:57.279Z</time>
      </trkpt>
      <trkpt lat="44.20953" lon="3.47721">
        <ele>1036.95</ele>
        <time>2024-11-06T06:24:15.616Z</time>
      </trkpt>
      <trkpt lat="44.20938" lon="3.47759">
        <ele>1037.16</ele>
        <time>2024-11-06T06:24:33.958Z</time>
      </trkpt>
      <trkpt lat="44.20923" lon="3.47798">
        <ele>1037.27</ele>
        <time>2024-11-06T06:24:52.305Z</time>
      </trkpt>
      <trkpt lat="44.20918" lon="3.47811">
        <ele>1037.4</ele>
        <time>2024-11-06T06:25:10.654Z</time>
      </trkpt>
      <trkpt lat="44.20911" lon="3.47827">
        <ele>1037.57</ele>
        <time>2024-11-06T06:25:29.005Z</time>
      </trkpt>
      <trkpt lat="44.20908" lon="3.47843">
        <ele>1037.76</ele>
        <time>2024-11-06T06:25:47.358Z</time>
      </trkpt>
      <trkpt lat="44.20909" lon="3.47858">
        <ele>1037.97</ele>
        <time>2024-11-06T06:26:05.713Z</time>
      </trkpt>
      <trkpt lat="44.20918" lon="3.47895">
        <ele>1038.24</ele>
        <time>2024-11-06T06:26:24.072Z</time>
      </trkpt>
      <trkpt lat="44.20928" lon="3.47928">
        <ele>1038.49</ele>
        <time>2024-11-06T06:26:42.436Z</time>
      </trkpt>
      <trkpt lat="44.20937" lon="3.4795">
        <ele>1038.7</ele>
        <time>2024-11-06T06:27:00.803Z</time>
      </trkpt>
      <trkpt lat="44.20948" lon="3.4799">
        <ele>1038.92</ele>
        <time>2024-11-06T06:27:19.174Z</time>
      </trkpt>
      <trkpt lat="44.20951" lon="3.48019">
        <ele>1039.17</ele>
        <time>2024-11-06T06:27:37.549Z</time>
      </trkpt>
      <trkpt lat="44.20951" lon="3.4804">
        <ele>1039.41</ele>
        <time>2024-11-06T06:27:55.926Z</time>
      </trkpt>
      <trkpt lat="44.20947" lon="3.48063">
        <ele>1039.67</ele>
        <time>2024-11-06T06:28:14.306Z</time>
      </trkpt>
      <trkpt lat="44.20946" lon="3.48088">
        <ele>1039.93</ele>
        <time>2024-11-06T06:28:32.689Z</time>
      </trkpt>
      <trkpt lat="44.20949" lon="3.4812">
        <ele>1040.19</ele>
        <time>2024-11-06T06:28:51.076Z</time>
      </trkpt>
      <trkpt lat="44.20948" lon="3.48137">
        <ele>1040.41</ele>
        <time>2024-11-06T06:29:09.465Z</time>
      </trkpt>
      <trkpt lat="44.20943" lon="3.48156">
        <ele>1040.64</ele>
        <time>2024-11-06T06:29:27.856Z</time>
      </trkpt>
      <trkpt lat="44.20933" lon="3.48174">
        <ele>1040.86</ele>
        <time>2024-11-06T06:29:46.249Z</time>
      </trkpt>
      <trkpt lat="44.20908" lon="3.48201">
        <ele>1041.06</ele>
        <time>2024-11-06T06:30:04.648Z</time>
      </trkpt>
      <trkpt lat="44.20897" lon="3.48213">
        <ele>1041.33</ele>
        <time>2024-11-06T06:30:23.049Z</time>
      </trkpt>
      <trkpt lat="44.20883" lon="3.48233">
        <ele>1041.6</ele>
        <time>2024-11-06T06:30:41.453Z</time>
      </trkpt>
      <trkpt lat="44.20877" lon="3.4824">
        <ele>1041.85</ele>
        <time>2024-11-06T06:30:59.858Z</time>
      </trkpt>
      <trkpt lat="44.20864" lon="3.48247">
        <ele>1042.08</ele>
        <time>2024-11-06T06:31:18.265Z</time>
      </trkpt>
      <trkpt lat="44.20855" lon="3.48252">
        <ele>1042.32</ele>
        <time>2024-11-06T06:31:36.674Z</time>
      </trkpt>
      <trkpt lat="44.2085" lon="3.48259">
        <ele>1042.56</ele>
        <time>2024-11-06T06:31:55.084Z</time>
      </trkpt>
      <trkpt lat="44.20846" lon="3.48274">
        <ele>1042.8</ele>
        <time>2024-11-06T06:32:13.496Z</time>
      </trkpt>
      <trkpt lat="44.20853" lon="3.48304">
        <ele>1043.04</ele>
        <time>2024-11-06T06:32:31.912Z</time>
      </trkpt>
      <trkpt lat="44.20855" lon="3.48329">
        <ele>1043.36</ele>
        <time>2024-11-06T06:32:50.331Z</time>
      </trkpt>
      <trkpt lat="44.20854" lon="3.48373">
        <ele>1043.67</ele>
        <time>2024-11-06T06:33:08.755Z</time>
      </trkpt>
      <trkpt lat="44.20854" lon="3.48398">
        <ele>1043.99</ele>
        <time>2024-11-06T06:33:27.181Z</time>
      </trkpt>
      <trkpt lat="44.20856" lon="3.48442">
        <ele>1044.35</ele>
        <time>2024-11-06T06:33:45.613Z</time>
      </trkpt>
      <trkpt lat="44.20858" lon="3.48485">
        <ele>1044.71</ele>
        <time>2024-11-06T06:34:04.050Z</time>
      </trkpt>
      <trkpt lat="44.20859" lon="3.48502">
        <ele>1045.04</ele>
        <time>2024-11-06T06:34:22.488Z</time>
      </trkpt>
      <trkpt lat="44.20855" lon="3.48545">
        <ele>1045.42</ele>
        <time>2024-11-06T06:34:40.932Z</time>
      </trkpt>
      <trkpt lat="44.20854" lon="3.48552">
        <ele>1045.74</ele>
        <time>2024-11-06T06:34:59.376Z</time>
      </trkpt>
      <trkpt lat="44.20842" lon="3.48571">
        <ele>1046.01</ele>
        <time>2024-11-06T06:35:17.823Z</time>
      </trkpt>
      <trkpt lat="44.20829" lon="3.48597">
        <ele>1046.28</ele>
        <time>2024-11-06T06:35:36.274Z</time>
      </trkpt>
      <trkpt lat="44.20825" lon="3.48626">
        <ele>1046.59</ele>
        <time>2024-11-06T06:35:54.728Z</time>
      </trkpt>
      <trkpt lat="44.20828" lon="3.48656">
        <ele>1046.94</ele>
        <time>2024-11-06T06:36:13.186Z</time>
      </trkpt>
      <trkpt lat="44.20822" lon="3.48691">
        <ele>1047.31</ele>
        <time>2024-11-06T06:36:31.648Z</time>
      </trkpt>
      <trkpt lat="44.2081" lon="3.48732">
        <ele>1047.73</ele>
        <time>2024-11-06T06:36:50.115Z</time>
      </trkpt>
      <trkpt lat="44.20799" lon="3.48772">
        <ele>1048.16</ele>
        <time>2024-11-06T06:37:08.587Z</time>
      </trkpt>
      <trkpt lat="44.20787" lon="3.48813">
        <ele>1048.6</ele>
        <time>2024-11-06T06:37:27.064Z</time>
      </trkpt>
      <trkpt lat="44.20783" lon="3.48828">
        <ele>1049.05</ele>
        <time>2024-11-06T06:37:45.543Z</time>
      </trkpt>
      <trkpt lat="44.20773" lon="3.48869">
        <ele>1049.52</ele>
        <time>2024-11-06T06:38:04.027Z</time>
      </trkpt>
      <trkpt lat="44.20762" lon="3.48911">
        <ele>1049.98</ele>
        <time>2024-11-06T06:38:22.516Z</time>
      </trkpt>
      <trkpt lat="44.20759" lon="3.48924">
        <ele>1050.46</ele>
        <time>2024-11-06T06:38:41.007Z</time>
      </trkpt>
      <trkpt lat="44.20747" lon="3.48964">
        <ele>1050.96</ele>
        <time>2024-11-06T06:38:59.503Z</time>
      </trkpt>
      <trkpt lat="44.20745" lon="3.48969">
        <ele>1051.47</ele>
        <time>2024-11-06T06:39:17.999Z</time>
      </trkpt>
      <trkpt lat="44.20737" lon="3.49011">
        <ele>1052.01</ele>
        <time>2024-11-06T06:39:36.500Z</time>
      </trkpt>
      <trkpt lat="44.20736" lon="3.49017">
        <ele>1052.55</ele>
        <time>2024-11-06T06:39:55.002Z</time>
      </trkpt>
      <trkpt lat="44.20731" lon="3.4906">
        <ele>1053.11</ele>
        <time>2024-11-06T06:40:13.509Z</time>
      </trkpt>
      <trkpt lat="44.20728" lon="3.4908">
        <ele>1053.68</ele>
        <time>2024-11-06T06:40:32.018Z</time>
      </trkpt>
      <trkpt lat="44.20725" lon="3.49124">
        <ele>1054.27</ele>
        <time>2024-11-06T06:40:50.532Z</time>
      </trkpt>
      <trkpt lat="44.20724" lon="3.49141">
        <ele>1054.85</ele>
        <time>2024-11-06T06:41:09.048Z</time>
      </trkpt>
      <trkpt lat="44.20725" lon="3.49166">
        <ele>1055.44</ele>
        <time>2024-11-06T06:41:27.567Z</time>
      </trkpt>
      <trkpt lat="44.2073" lon="3.49209">
        <ele>1056.03</ele>
        <time>2024-11-06T06:41:46.091Z</time>
      </trkpt>
      <trkpt lat="44.20731" lon="3.49221">
        <ele>1056.6</ele>
        <time>2024-11-06T06:42:04.617Z</time>
      </trkpt>
      <trkpt lat="44.20739" lon="3.49262">
        <ele>1057.29</ele>
        <time>2024-11-06T06:42:23.147Z</time>
      </trkpt>
      <trkpt lat="44.20747" lon="3.49287">
        <ele>1057.93</ele>
        <time>2024-11-06T06:42:41.681Z</time>
      </trkpt>
      <trkpt lat="44.20754" lon="3.49317">
        <ele>1058.51</ele>
        <time>2024-11-06T06:43:00.218Z</time>
      </trkpt>
      <trkpt lat="44.20757" lon="3.49341">
        <ele>1059.03</ele>
        <time>2024-11-06T06:43:18.758Z</time>
      </trkpt>
      <trkpt lat="44.20759" lon="3.49359">
        <ele>1059.52</ele>
        <time>2024-11-06T06:43:37.300Z</time>
      </trkpt>
      <trkpt lat="44.2076" lon="3.49403">
        <ele>1060</ele>
        <time>2024-11-06T06:43:55.847Z</time>
      </trkpt>
      <trkpt lat="44.2076" lon="3.49424">
        <ele>1060.47</ele>
        <time>2024-11-06T06:44:14.397Z</time>
      </trkpt>
      <trkpt lat="44.20763" lon="3.49468">
        <ele>1060.93</ele>
        <time>2024-11-06T06:44:32.952Z</time>
      </trkpt>
      <trkpt lat="44.20763" lon="3.49476">
        <ele>1061.37</ele>
        <time>2024-11-06T06:44:51.508Z</time>
      </trkpt>
      <trkpt lat="44.20768" lon="3.49519">
        <ele>1061.82</ele>
        <time>2024-11-06T06:45:10.069Z</time>
      </trkpt>
      <trkpt lat="44.20771" lon="3.49549">
        <ele>1062.25</ele>
        <time>2024-11-06T06:45:28.633Z</time>
      </trkpt>
      <trkpt lat="44.20774" lon="3.49593">
        <ele>1062.67</ele>
        <time>2024-11-06T06:45:47.202Z</time>
      </trkpt>
      <trkpt lat="44.20775" lon="3.49615">
        <ele>1063.03</ele>
        <time>2024-11-06T06:46:05.774Z</time>
      </trkpt>
      <trkpt lat="44.20775" lon="3.49658">
        <ele>1063.34</ele>
        <time>2024-11-06T06:46:24.351Z</time>
      </trkpt>
      <trkpt lat="44.2077" lon="3.49701">
        <ele>1063.63</ele>
        <time>2024-11-06T06:46:42.933Z</time>
      </trkpt>
      <trkpt lat="44.20765" lon="3.49738">
        <ele>1063.94</ele>
        <time>2024-11-06T06:47:01.519Z</time>
      </trkpt>
      <trkpt lat="44.20766" lon="3.49782">
        <ele>1064.23</ele>
        <time>2024-11-06T06:47:20.110Z</time>
      </trkpt>
      <trkpt lat="44.20766" lon="3.49782">
        <ele>1064.49</ele>
        <time>2024-11-06T06:47:38.701Z</time>
      </trkpt>
      <trkpt lat="44.20768" lon="3.49807">
        <ele>1064.76</ele>
        <time>2024-11-06T06:47:57.295Z</time>
      </trkpt>
      <trkpt lat="44.20772" lon="3.49851">
        <ele>1065.06</ele>
        <time>2024-11-06T06:48:15.894Z</time>
      </trkpt>
      <trkpt lat="44.20775" lon="3.49894">
        <ele>1065.29</ele>
        <time>2024-11-06T06:48:34.498Z</time>
      </trkpt>
      <trkpt lat="44.20778" lon="3.49931">
        <ele>1065.43</ele>
        <time>2024-11-06T06:48:53.106Z</time>
      </trkpt>
      <trkpt lat="44.20784" lon="3.49974">
        <ele>1065.52</ele>
        <time>2024-11-06T06:49:11.719Z</time>
      </trkpt>
      <trkpt lat="44.2079" lon="3.50017">
        <ele>1065.57</ele>
        <time>2024-11-06T06:49:30.337Z</time>
      </trkpt>
      <trkpt lat="44.20792" lon="3.50032">
        <ele>1065.65</ele>
        <time>2024-11-06T06:49:48.957Z</time>
      </trkpt>
      <trkpt lat="44.20793" lon="3.50076">
        <ele>1065.72</ele>
        <time>2024-11-06T06:50:07.582Z</time>
      </trkpt>
      <trkpt lat="44.20793" lon="3.5012">
        <ele>1065.8</ele>
        <time>2024-11-06T06:50:26.212Z</time>
      </trkpt>
      <trkpt lat="44.20793" lon="3.50125">
        <ele>1065.84</ele>
        <time>2024-11-06T06:50:44.843Z</time>
      </trkpt>
      <trkpt lat="44.20796" lon="3.50169">
        <ele>1065.86</ele>
        <time>2024-11-06T06:51:03.479Z</time>
      </trkpt>
      <trkpt lat="44.20797" lon="3.50178">
        <ele>1065.87</ele>
        <time>2024-11-06T06:51:22.116Z</time>
      </trkpt>
      <trkpt lat="44.20805" lon="3.50221">
        <ele>1065.87</ele>
        <time>2024-11-06T06:51:40.758Z</time>
      </trkpt>
      <trkpt lat="44.20811" lon="3.50256">
        <ele>1065.87</ele>
        <time>2024-11-06T06:51:59.404Z</time>
      </trkpt>
      <trkpt lat="44.20814" lon="3.50271">
        <ele>1065.82</ele>
        <time>2024-11-06T06:52:18.052Z</time>
      </trkpt>
      <trkpt lat="44.20831" lon="3.50264">
        <ele>1065.75</ele>
        <time>2024-11-06T06:52:36.703Z</time>
      </trkpt>
      <trkpt lat="44.20861" lon="3.50251">
        <ele>1065.61</ele>
        <time>2024-11-06T06:52:55.359Z</time>
      </trkpt>
      <trkpt lat="44.20888" lon="3.50239">
        <ele>1065.5</ele>
        <time>2024-11-06T06:53:14.019Z</time>
      </trkpt>
      <trkpt lat="44.20918" lon="3.50226">
        <ele>1065.4</ele>
        <time>2024-11-06T06:53:32.685Z</time>
      </trkpt>
      <trkpt lat="44.20926" lon="3.50223">
        <ele>1065.33</ele>
        <time>2024-11-06T06:53:51.352Z</time>
      </trkpt>
      <trkpt lat="44.20956" lon="3.5021">
        <ele>1065.24</ele>
        <time>2024-11-06T06:54:10.024Z</time>
      </trkpt>
      <trkpt lat="44.20957" lon="3.5021">
        <ele>1065.17</ele>
        <time>2024-11-06T06:54:28.696Z</time>
      </trkpt>
      <trkpt lat="44.2096" lon="3.5021">
        <ele>1065.11</ele>
        <time>2024-11-06T06:54:47.368Z</time>
      </trkpt>
      <trkpt lat="44.20963" lon="3.50214">
        <ele>1065.06</ele>
        <time>2024-11-06T06:55:06.041Z</time>
      </trkpt>
      <trkpt lat="44.20965" lon="3.50223">
        <ele>1065.02</ele>
        <time>2024-11-06T06:55:24.715Z</time>
      </trkpt>
      <trkpt lat="44.2097" lon="3.50266">
        <ele>1065</ele>
        <time>2024-11-06T06:55:43.394Z</time>
      </trkpt>
      <trkpt lat="44.20973" lon="3.50297">
        <ele>1064.96</ele>
        <time>2024-11-06T06:56:02.077Z</time>
      </trkpt>
      <trkpt lat="44.2098" lon="3.50335">
        <ele>1064.93</ele>
        <time>2024-11-06T06:56:20.764Z</time>
      </trkpt>
      <trkpt lat="44.20986" lon="3.50362">
        <ele>1064.93</ele>
        <time>2024-11-06T06:56:39.455Z</time>
      </trkpt>
      <trkpt lat="44.20996" lon="3.50399">
        <ele>1064.96</ele>
        <time>2024-11-06T06:56:58.150Z</time>
      </trkpt>
      <trkpt lat="44.21004" lon="3.5042">
        <ele>1064.98</ele>
        <time>2024-11-06T06:57:16.848Z</time>
      </trkpt>
      <trkpt lat="44.21019" lon="3.50459">
        <ele>1064.97</ele>
        <time>2024-11-06T06:57:35.551Z</time>
      </trkpt>
      <trkpt lat="44.21021" lon="3.50464">
        <ele>1064.98</ele>
        <time>2024-11-06T06:57:54.255Z</time>
      </trkpt>
      <trkpt lat="44.2103" lon="3.50489">
        <ele>1065.01</ele>
        <time>2024-11-06T06:58:12.962Z</time>
      </trkpt>
      <trkpt lat="44.21041" lon="3.5053">
        <ele>1065.07</ele>
        <time>2024-11-06T06:58:31.674Z</time>
      </trkpt>
      <trkpt lat="44.21043" lon="3.50536">
        <ele>1065.13</ele>
        <time>2024-11-06T06:58:50.387Z</time>
      </trkpt>
      <trkpt lat="44.21053" lon="3.50578">
        <ele>1065.21</ele>
        <time>2024-11-06T06:59:09.105Z</time>
      </trkpt>
      <trkpt lat="44.21059" lon="3.50603">
        <ele>1065.35</ele>
        <time>2024-11-06T06:59:27.826Z</time>
      </trkpt>
      <trkpt lat="44.21065" lon="3.50632">
        <ele>1065.5</ele>
        <time>2024-11-06T06:59:46.550Z</time>
      </trkpt>
      <trkpt lat="44.21077" lon="3.50673">
        <ele>1065.62</ele>
        <time>2024-11-06T07:00:05.279Z</time>
      </trkpt>
      <trkpt lat="44.21081" lon="3.50686">
        <ele>1065.75</ele>
        <time>2024-11-06T07:00:24.010Z</time>
      </trkpt>
      <trkpt lat="44.21092" lon="3.50725">
        <ele>1065.85</ele>
        <time>2024-11-06T07:00:42.746Z</time>
      </trkpt>
      <trkpt lat="44.21115" lon="3.50711">
        <ele>1066.07</ele>
        <time>2024-11-06T07:01:01.486Z</time>
      </trkpt>
      <trkpt lat="44.2114" lon="3.50697">
        <ele>1066.33</ele>
        <time>2024-11-06T07:01:20.230Z</time>
      </trkpt>
      <trkpt lat="44.21143" lon="3.50697">
        <ele>1066.53</ele>
        <time>2024-11-06T07:01:38.975Z</time>
      </trkpt>
      <trkpt lat="44.21151" lon="3.50702">
        <ele>1066.75</ele>
        <time>2024-11-06T07:01:57.721Z</time>
      </trkpt>
      <trkpt lat="44.2115" lon="3.50703">
        <ele>1066.98</ele>
        <time>2024-11-06T07:02:16.467Z</time>
      </trkpt>
      <trkpt lat="44.2115" lon="3.50703">
        <ele>1067.24</ele>
        <time>2024-11-06T07:02:35.213Z</time>
      </trkpt>
      <trkpt lat="44.2115" lon="3.50703">
        <ele>1067.51</ele>
        <time>2024-11-06T07:02:53.959Z</time>
      </trkpt>
      <trkpt lat="44.2115" lon="3.50703">
        <ele>1067.79</ele>
        <time>2024-11-06T07:03:12.705Z</time>
      </trkpt>
      <trkpt lat="44.21152" lon="3.50704">
        <ele>1068.1</ele>
        <time>2024-11-06T07:03:31.451Z</time>
      </trkpt>
      <trkpt lat="44.2116" lon="3.50715">
        <ele>1068.43</ele>
        <time>2024-11-06T07:03:50.199Z</time>
      </trkpt>
      <trkpt lat="44.21167" lon="3.50725">
        <ele>1068.78</ele>
        <time>2024-11-06T07:04:08.949Z</time>
      </trkpt>
      <trkpt lat="44.2117" lon="3.50728">
        <ele>1069.15</ele>
        <time>2024-11-06T07:04:27.699Z</time>
      </trkpt>
      <trkpt lat="44.21181" lon="3.50738">
        <ele>1069.54</ele>
        <time>2024-11-06T07:04:46.452Z</time>
      </trkpt>
      <trkpt lat="44.21181" lon="3.50738">
        <ele>1069.93</ele>
        <time>2024-11-06T07:05:05.205Z</time>
      </trkpt>
      <trkpt lat="44.21194" lon="3.50744">
        <ele>1070.37</ele>
        <time>2024-11-06T07:05:23.960Z</time>
      </trkpt>
      <trkpt lat="44.21208" lon="3.50751">
        <ele>1070.81</ele>
        <time>2024-11-06T07:05:42.717Z</time>
      </trkpt>
      <trkpt lat="44.21219" lon="3.50758">
        <ele>1071.23</ele>
        <time>2024-11-06T07:06:01.476Z</time>
      </trkpt>
      <trkpt lat="44.21235" lon="3.50768">
        <ele>1071.66</ele>
        <time>2024-11-06T07:06:20.238Z</time>
      </trkpt>
      <trkpt lat="44.21248" lon="3.50774">
        <ele>1072.15</ele>
        <time>2024-11-06T07:06:39.002Z</time>
      </trkpt>
      <trkpt lat="44.21257" lon="3.50777">
        <ele>1072.64</ele>
        <time>2024-11-06T07:06:57.768Z</time>
      </trkpt>
      <trkpt lat="44.21282" lon="3.50788">
        <ele>1073.2</ele>
        <time>2024-11-06T07:07:16.538Z</time>
      </trkpt>
      <trkpt lat="44.2129" lon="3.50794">
        <ele>1073.65</ele>
        <time>2024-11-06T07:07:35.309Z</time>
      </trkpt>
      <trkpt lat="44.21305" lon="3.5081">
        <ele>1074.1</ele>
        <time>2024-11-06T07:07:54.083Z</time>
      </trkpt>
      <trkpt lat="44.21312" lon="3.50821">
        <ele>1074.52</ele>
        <time>2024-11-06T07:08:12.859Z</time>
      </trkpt>
      <trkpt lat="44.21323" lon="3.50845">
        <ele>1074.94</ele>
        <time>2024-11-06T07:08:31.638Z</time>
      </trkpt>
      <trkpt lat="44.21327" lon="3.50855">
        <ele>1075.38</ele>
        <time>2024-11-06T07:08:50.419Z</time>
      </trkpt>
      <trkpt lat="44.21331" lon="3.50863">
        <ele>1075.84</ele>
        <time>2024-11-06T07:09:09.201Z</time>
      </trkpt>
      <trkpt lat="44.21343" lon="3.50878">
        <ele>1076.31</ele>
        <time>2024-11-06T07:09:27.985Z</time>
      </trkpt>
      <trkpt lat="44.21346" lon="3.50882">
        <ele>1076.78</ele>
        <time>2024-11-06T07:09:46.770Z</time>
      </trkpt>
      <trkpt lat="44.21356" lon="3.5089">
        <ele>1077.27</ele>
        <time>2024-11-06T07:10:05.557Z</time>
      </trkpt>
      <trkpt lat="44.21362" lon="3.50893">
        <ele>1077.75</ele>
        <time>2024-11-06T07:10:24.345Z</time>
      </trkpt>
      <trkpt lat="44.21367" lon="3.50895">
        <ele>1078.23</ele>
        <time>2024-11-06T07:10:43.134Z</time>
      </trkpt>
      <trkpt lat="44.21379" lon="3.50897">
        <ele>1078.72</ele>
        <time>2024-11-06T07:11:01.925Z</time>
      </trkpt>
      <trkpt lat="44.21416" lon="3.50904">
        <ele>1079.26</ele>
        <time>2024-11-06T07:11:20.722Z</time>
      </trkpt>
      <trkpt lat="44.21423" lon="3.5091">
        <ele>1079.71</ele>
        <time>2024-11-06T07:11:39.520Z</time>
      </trkpt>
      <trkpt lat="44.21434" lon="3.50919">
        <ele>1080.17</ele>
        <time>2024-11-06T07:11:58.320Z</time>
      </trkpt>
      <trkpt lat="44.2145" lon="3.50932">
        <ele>1080.6</ele>
        <time>2024-11-06T07:12:17.123Z</time>
      </trkpt>
      <trkpt lat="44.21457" lon="3.50938">
        <ele>1081</ele>
        <time>2024-11-06T07:12:35.927Z</time>
      </trkpt>
      <trkpt lat="44.21478" lon="3.50955">
        <ele>1081.38</ele>
        <time>2024-11-06T07:12:54.735Z</time>
      </trkpt>
      <trkpt lat="44.21483" lon="3.50962">
        <ele>1081.74</ele>
        <time>2024-11-06T07:13:13.544Z</time>
      </trkpt>
      <trkpt lat="44.21485" lon="3.50964">
        <ele>1082.08</ele>
        <time>2024-11-06T07:13:32.354Z</time>
      </trkpt>
      <trkpt lat="44.21489" lon="3.50972">
        <ele>1082.41</ele>
        <time>2024-11-06T07:13:51.165Z</time>
      </trkpt>
      <trkpt lat="44.21501" lon="3.50998">
        <ele>1082.74</ele>
        <time>2024-11-06T07:14:09.979Z</time>
      </trkpt>
      <trkpt lat="44.21502" lon="3.50999">
        <ele>1083.05</ele>
        <time>2024-11-06T07:14:28.793Z</time>
      </trkpt>
      <trkpt lat="44.2151" lon="3.51012">
        <ele>1083.36</ele>
        <time>2024-11-06T07:14:47.609Z</time>
      </trkpt>
      <trkpt lat="44.21515" lon="3.51022">
        <ele>1083.65</ele>
        <time>2024-11-06T07:15:06.427Z</time>
      </trkpt>
      <trkpt lat="44.21521" lon="3.51032">
        <ele>1083.91</ele>
        <time>2024-11-06T07:15:25.246Z</time>
      </trkpt>
      <trkpt lat="44.21526" lon="3.51042">
        <ele>1084.16</ele>
        <time>2024-11-06T07:15:44.067Z</time>
      </trkpt>
      <trkpt lat="44.21532" lon="3.51052">
        <ele>1084.4</ele>
        <time>2024-11-06T07:16:02.889Z</time>
      </trkpt>
      <trkpt lat="44.21537" lon="3.51062">
        <ele>1084.62</ele>
        <time>2024-11-06T07:16:21.713Z</time>
      </trkpt>
      <trkpt lat="44.21548" lon="3.51081">
        <ele>1084.82</ele>
        <time>2024-11-06T07:16:40.539Z</time>
      </trkpt>
      <trkpt lat="44.2155" lon="3.51084">
        <ele>1085.01</ele>
        <time>2024-11-06T07:16:59.366Z</time>
      </trkpt>
      <trkpt lat="44.21554" lon="3.51091">
        <ele>1085.18</ele>
        <time>2024-11-06T07:17:18.194Z</time>
      </trkpt>
      <trkpt lat="44.21559" lon="3.51102">
        <ele>1085.34</ele>
        <time>2024-11-06T07:17:37.023Z</time>
      </trkpt>
      <trkpt lat="44.21574" lon="3.51133">
        <ele>1085.5</ele>
        <time>2024-11-06T07:17:55.857Z</time>
      </trkpt>
      <trkpt lat="44.21581" lon="3.51148">
        <ele>1085.64</ele>
        <time>2024-11-06T07:18:14.693Z</time>
      </trkpt>
      <trkpt lat="44.21589" lon="3.51163">
        <ele>1085.77</ele>
        <time>2024-11-06T07:18:33.531Z</time>
      </trkpt>
      <trkpt lat="44.21594" lon="3.51174">
        <ele>1085.88</ele>
        <time>2024-11-06T07:18:52.370Z</time>
      </trkpt>
      <trkpt lat="44.21599" lon="3.51184">
        <ele>1085.98</ele>
        <time>2024-11-06T07:19:11.211Z</time>
      </trkpt>
      <trkpt lat="44.21617" lon="3.51221">
        <ele>1086.05</ele>
        <time>2024-11-06T07:19:30.057Z</time>
      </trkpt>
      <trkpt lat="44.21623" lon="3.51229">
        <ele>1086.12</ele>
        <time>2024-11-06T07:19:48.904Z</time>
      </trkpt>
      <trkpt lat="44.2163" lon="3.51237">
        <ele>1086.18</ele>
        <time>2024-11-06T07:20:07.753Z</time>
      </trkpt>
      <trkpt lat="44.21646" lon="3.51251">
        <ele>1086.21</ele>
        <time>2024-11-06T07:20:26.605Z</time>
      </trkpt>
      <trkpt lat="44.21649" lon="3.51253">
        <ele>1086.24</ele>
        <time>2024-11-06T07:20:45.457Z</time>
      </trkpt>
      <trkpt lat="44.21669" lon="3.51268">
        <ele>1086.25</ele>
        <time>2024-11-06T07:21:04.313Z</time>
      </trkpt>
      <trkpt lat="44.21676" lon="3.51274">
        <ele>1086.25</ele>
        <time>2024-11-06T07:21:23.170Z</time>
      </trkpt>
      <trkpt lat="44.21684" lon="3.5128">
        <ele>1086.26</ele>
        <time>2024-11-06T07:21:42.029Z</time>
      </trkpt>
      <trkpt lat="44.21696" lon="3.51289">
        <ele>1086.26</ele>
        <time>2024-11-06T07:22:00.890Z</time>
      </trkpt>
      <trkpt lat="44.21743" lon="3.51325">
        <ele>1086.3</ele>
        <time>2024-11-06T07:22:19.759Z</time>
      </trkpt>
      <trkpt lat="44.21755" lon="3.51334">
        <ele>1086.29</ele>
        <time>2024-11-06T07:22:38.631Z</time>
      </trkpt>
      <trkpt lat="44.21763" lon="3.5134">
        <ele>1086.26</ele>
        <time>2024-11-06T07:22:57.504Z</time>
      </trkpt>
      <trkpt lat="44.21768" lon="3.51344">
        <ele>1086.21</ele>
        <time>2024-11-06T07:23:16.378Z</time>
      </trkpt>
      <trkpt lat="44.2177" lon="3.51347">
        <ele>1086.16</ele>
        <time>2024-11-06T07:23:35.252Z</time>
      </trkpt>
      <trkpt lat="44.21777" lon="3.51354">
        <ele>1086.09</ele>
        <time>2024-11-06T07:23:54.128Z</time>
      </trkpt>
      <trkpt lat="44.21781" lon="3.51358">
        <ele>1086.01</ele>
        <time>2024-11-06T07:24:13.005Z</time>
      </trkpt>
      <trkpt lat="44.21784" lon="3.51362">
        <ele>1085.93</ele>
        <time>2024-11-06T07:24:31.882Z</time>
      </trkpt>
      <trkpt lat="44.2182" lon="3.51402">
        <ele>1085.81</ele>
        <time>2024-11-06T07:24:50.767Z</time>
      </trkpt>
      <trkpt lat="44.21827" lon="3.51409">
        <ele>1085.73</ele>
        <time>2024-11-06T07:25:09.653Z</time>
      </trkpt>
      <trkpt lat="44.21838" lon="3.51419">
        <ele>1085.64</ele>
        <time>2024-11-06T07:25:28.541Z</time>
      </trkpt>
      <trkpt lat="44.21838" lon="3.51419">
        <ele>1085.55</ele>
        <time>2024-11-06T07:25:47.429Z</time>
      </trkpt>
      <trkpt lat="44.2185" lon="3.51428">
        <ele>1085.45</ele>
        <time>2024-11-06T07:26:06.319Z</time>
      </trkpt>
      <trkpt lat="44.21856" lon="3.51433">
        <ele>1085.34</ele>
        <time>2024-11-06T07:26:25.210Z</time>
      </trkpt>
      <trkpt lat="44.21858" lon="3.51434">
        <ele>1085.21</ele>
        <time>2024-11-06T07:26:44.102Z</time>
      </trkpt>
      <trkpt lat="44.21865" lon="3.51437">
        <ele>1085.07</ele>
        <time>2024-11-06T07:27:02.995Z</time>
      </trkpt>
      <trkpt lat="44.21871" lon="3.51437">
        <ele>1084.91</ele>
        <time>2024-11-06T07:27:21.889Z</time>
      </trkpt>
      <trkpt lat="44.21889" lon="3.51438">
        <ele>1084.74</ele>
        <time>2024-11-06T07:27:40.786Z</time>
      </trkpt>
      <trkpt lat="44.21898" lon="3.51438">
        <ele>1084.56</ele>
        <time>2024-11-06T07:27:59.684Z</time>
      </trkpt>
      <trkpt lat="44.21914" lon="3.51438">
        <ele>1084.35</ele>
        <time>2024-11-06T07:28:18.585Z</time>
      </trkpt>
      <trkpt lat="44.21925" lon="3.51439">
        <ele>1084.14</ele>
        <time>2024-11-06T07:28:37.488Z</time>
      </trkpt>
      <trkpt lat="44.21934" lon="3.5144">
        <ele>1083.92</ele>
        <time>2024-11-06T07:28:56.392Z</time>
      </trkpt>
      <trkpt lat="44.21941" lon="3.51441">
        <ele>1083.71</ele>
        <time>2024-11-06T07:29:15.297Z</time>
      </trkpt>
      <trkpt lat="44.21952" lon="3.51444">
        <ele>1083.48</ele>
        <time>2024-11-06T07:29:34.204Z</time>
      </trkpt>
      <trkpt lat="44.21983" lon="3.51451">
        <ele>1083.25</ele>
        <time>2024-11-06T07:29:53.116Z</time>
      </trkpt>
      <trkpt lat="44.21996" lon="3.51454">
        <ele>1082.98</ele>
        <time>2024-11-06T07:30:12.030Z</time>
      </trkpt>
      <trkpt lat="44.22023" lon="3.5146">
        <ele>1082.68</ele>
        <time>2024-11-06T07:30:30.948Z</time>
      </trkpt>
      <trkpt lat="44.2204" lon="3.51464">
        <ele>1082.36</ele>
        <time>2024-11-06T07:30:49.869Z</time>
      </trkpt>
      <trkpt lat="44.22057" lon="3.51468">
        <ele>1081.99</ele>
        <time>2024-11-06T07:31:08.793Z</time>
      </trkpt>
      <trkpt lat="44.22058" lon="3.51468">
        <ele>1081.63</ele>
        <time>2024-11-06T07:31:27.717Z</time>
      </trkpt>
      <trkpt lat="44.22067" lon="3.51471">
        <ele>1081.23</ele>
        <time>2024-11-06T07:31:46.643Z</time>
      </trkpt>
      <trkpt lat="44.22072" lon="3.51473">
        <ele>1080.82</ele>
        <time>2024-11-06T07:32:05.569Z</time>
      </trkpt>
      <trkpt lat="44.22075" lon="3.51471">
        <ele>1080.38</ele>
        <time>2024-11-06T07:32:24.496Z</time>
      </trkpt>
      <trkpt lat="44.22083" lon="3.51465">
        <ele>1079.93</ele>
        <time>2024-11-06T07:32:43.424Z</time>
      </trkpt>
      <trkpt lat="44.22091" lon="3.51459">
        <ele>1079.45</ele>
        <time>2024-11-06T07:33:02.354Z</time>
      </trkpt>
      <trkpt lat="44.22099" lon="3.51454">
        <ele>1078.95</ele>
        <time>2024-11-06T07:33:21.285Z</time>
      </trkpt>
      <trkpt lat="44.22103" lon="3.51451">
        <ele>1078.43</ele>
        <time>2024-11-06T07:33:40.217Z</time>
      </trkpt>
      <trkpt lat="44.22104" lon="3.5145">
        <ele>1077.9</ele>
        <time>2024-11-06T07:33:59.149Z</time>
      </trkpt>
      <trkpt lat="44.22112" lon="3.51449">
        <ele>1077.32</ele>
        <time>2024-11-06T07:34:18.082Z</time>
      </trkpt>
      <trkpt lat="44.22119" lon="3.51447">
        <ele>1076.72</ele>
        <time>2024-11-06T07:34:37.017Z</time>
      </trkpt>
      <trkpt lat="44.2212" lon="3.51447">
        <ele>1076.15</ele>
        <time>2024-11-06T07:34:55.952Z</time>
      </trkpt>
      <trkpt lat="44.22125" lon="3.51447">
        <ele>1075.54</ele>
        <time>2024-11-06T07:35:14.888Z</time>
      </trkpt>
      <trkpt lat="44.22134" lon="3.51448">
        <ele>1074.91</ele>
        <time>2024-11-06T07:35:33.825Z</time>
      </trkpt>
      <trkpt lat="44.22138" lon="3.51448">
        <ele>1074.31</ele>
        <time>2024-11-06T07:35:52.763Z</time>
      </trkpt>
      <trkpt lat="44.22156" lon="3.51451">
        <ele>1073.67</ele>
        <time>2024-11-06T07:36:11.704Z</time>
      </trkpt>
      <trkpt lat="44.22165" lon="3.51453">
        <ele>1073.07</ele>
        <time>2024-11-06T07:36:30.646Z</time>
      </trkpt>
      <trkpt lat="44.22174" lon="3.51454">
        <ele>1072.47</ele>
        <time>2024-11-06T07:36:49.589Z</time>
      </trkpt>
      <trkpt lat="44.22207" lon="3.5146">
        <ele>1071.83</ele>
        <time>2024-11-06T07:37:08.538Z</time>
      </trkpt>
      <trkpt lat="44.22209" lon="3.5146">
        <ele>1071.29</ele>
        <time>2024-11-06T07:37:27.487Z</time>
      </trkpt>
      <trkpt lat="44.22218" lon="3.51461">
        <ele>1070.74</ele>
        <time>2024-11-06T07:37:46.438Z</time>
      </trkpt>
      <trkpt lat="44.22246" lon="3.51464">
        <ele>1070.18</ele>
        <time>2024-11-06T07:38:05.393Z</time>
      </trkpt>
      <trkpt lat="44.22249" lon="3.51464">
        <ele>1069.72</ele>
        <time>2024-11-06T07:38:24.348Z</time>
      </trkpt>
      <trkpt lat="44.22258" lon="3.51463">
        <ele>1069.27</ele>
        <time>2024-11-06T07:38:43.305Z</time>
      </trkpt>
      <trkpt lat="44.22267" lon="3.51463">
        <ele>1068.86</ele>
        <time>2024-11-06T07:39:02.263Z</time>
      </trkpt>
      <trkpt lat="44.22271" lon="3.51463">
        <ele>1068.5</ele>
        <time>2024-11-06T07:39:21.222Z</time>
      </trkpt>
      <trkpt lat="44.22276" lon="3.51462">
        <ele>1068.17</ele>
        <time>2024-11-06T07:39:40.182Z</time>
      </trkpt>
      <trkpt lat="44.22285" lon="3.51462">
        <ele>1067.88</ele>
        <time>2024-11-06T07:39:59.143Z</time>
      </trkpt>
      <trkpt lat="44.22289" lon="3.51462">
        <ele>1067.61</ele>
        <time>2024-11-06T07:40:18.105Z</time>
      </trkpt>
      <trkpt lat="44.22293" lon="3.51461">
        <ele>1067.38</ele>
        <time>2024-11-06T07:40:37.068Z</time>
      </trkpt>
      <trkpt lat="44.223" lon="3.51461">
        <ele>1067.18</ele>
        <time>2024-11-06T07:40:56.032Z</time>
      </trkpt>
      <trkpt lat="44.22302" lon="3.5146">
        <ele>1067.01</ele>
        <time>2024-11-06T07:41:14.996Z</time>
      </trkpt>
      <trkpt lat="44.22315" lon="3.51457">
        <ele>1066.87</ele>
        <time>2024-11-06T07:41:33.962Z</time>
      </trkpt>
      <trkpt lat="44.22315" lon="3.51457">
        <ele>1066.78</ele>
        <time>2024-11-06T07:41:52.928Z</time>
      </trkpt>
      <trkpt lat="44.22323" lon="3.51451">
        <ele>1066.73</ele>
        <time>2024-11-06T07:42:11.896Z</time>
      </trkpt>
      <trkpt lat="44.22331" lon="3.51445">
        <ele>1066.73</ele>
        <time>2024-11-06T07:42:30.865Z</time>
      </trkpt>
      <trkpt lat="44.22335" lon="3.51442">
        <ele>1066.77</ele>
        <time>2024-11-06T07:42:49.835Z</time>
      </trkpt>
      <trkpt lat="44.22343" lon="3.51436">
        <ele>1066.87</ele>
        <time>2024-11-06T07:43:08.806Z</time>
      </trkpt>
      <trkpt lat="44.22351" lon="3.51431">
        <ele>1066.98</ele>
        <time>2024-11-06T07:43:27.779Z</time>
      </trkpt>
      <trkpt lat="44.22353" lon="3.51429">
        <ele>1067.15</ele>
        <time>2024-11-06T07:43:46.752Z</time>
      </trkpt>
      <trkpt lat="44.22359" lon="3.51425">
        <ele>1067.36</ele>
        <time>2024-11-06T07:44:05.726Z</time>
      </trkpt>
      <trkpt lat="44.22367" lon="3.5142">
        <ele>1067.63</ele>
        <time>2024-11-06T07:44:24.701Z</time>
      </trkpt>
      <trkpt lat="44.22377" lon="3.51414">
        <ele>1067.93</ele>
        <time>2024-11-06T07:44:43.678Z</time>
      </trkpt>
      <trkpt lat="44.22384" lon="3.51412">
        <ele>1068.22</ele>
        <time>2024-11-06T07:45:02.656Z</time>
      </trkpt>
      <trkpt lat="44.22392" lon="3.51408">
        <ele>1068.53</ele>
        <time>2024-11-06T07:45:21.636Z</time>
      </trkpt>
      <trkpt lat="44.22405" lon="3.51403">
        <ele>1068.86</ele>
        <time>2024-11-06T07:45:40.618Z</time>
      </trkpt>
      <trkpt lat="44.22427" lon="3.51395">
        <ele>1069.19</ele>
        <time>2024-11-06T07:45:59.603Z</time>
      </trkpt>
      <trkpt lat="44.22439" lon="3.5139">
        <ele>1069.49</ele>
        <time>2024-11-06T07:46:18.591Z</time>
      </trkpt>
      <trkpt lat="44.22452" lon="3.51385">
        <ele>1069.76</ele>
        <time>2024-11-06T07:46:37.581Z</time>
      </trkpt>
      <trkpt lat="44.22461" lon="3.51382">
        <ele>1070.03</ele>
        <time>2024-11-06T07:46:56.572Z</time>
      </trkpt>
      <trkpt lat="44.22469" lon="3.51378">
        <ele>1070.28</ele>
        <time>2024-11-06T07:47:15.565Z</time>
      </trkpt>
      <trkpt lat="44.22496" lon="3.51368">
        <ele>1070.56</ele>
        <time>2024-11-06T07:47:34.562Z</time>
      </trkpt>
    </trkseg>
  </trk>
  <trk>
    <name><![CDATA[Road trip 2025 J3 V2]]></name>
    <extensions>
      <line xmlns="http://www.topografix.com/GPX/gpx_style/0/2">
        <color>FF00FF</color>
        <width>4</width>
      </line>
    </extensions>
    <trkseg>
      <trkpt lat="44.22529" lon="3.51368">
        <ele>1080.03</ele>
        <time>2024-11-05T10:10:12.000Z</time>
      </trkpt>
      <trkpt lat="44.225" lon="3.51366">
        <ele>1076.38</ele>
        <time>2024-11-05T10:10:12.005Z</time>
      </trkpt>
      <trkpt lat="44.22457" lon="3.51383">
        <ele>1073.09</ele>
        <time>2024-11-05T10:10:12.017Z</time>
      </trkpt>
      <trkpt lat="44.22436" lon="3.51391">
        <ele>1071.73</ele>
        <time>2024-11-05T10:10:12.032Z</time>
      </trkpt>
      <trkpt lat="44.22389" lon="3.51409">
        <ele>1069.3</ele>
        <time>2024-11-05T10:10:12.055Z</time>
      </trkpt>
      <trkpt lat="44.22377" lon="3.51414">
        <ele>1068.82</ele>
        <time>2024-11-05T10:10:12.080Z</time>
      </trkpt>
      <trkpt lat="44.22364" lon="3.51422">
        <ele>1068.32</ele>
        <time>2024-11-05T10:10:12.107Z</time>
      </trkpt>
      <trkpt lat="44.2234" lon="3.51439">
        <ele>1067.69</ele>
        <time>2024-11-05T10:10:12.139Z</time>
      </trkpt>
      <trkpt lat="44.2232" lon="3.51453">
        <ele>1067.55</ele>
        <time>2024-11-05T10:10:12.174Z</time>
      </trkpt>
      <trkpt lat="44.22312" lon="3.51458">
        <ele>1067.6</ele>
        <time>2024-11-05T10:10:12.211Z</time>
      </trkpt>
      <trkpt lat="44.223" lon="3.51461">
        <ele>1067.76</ele>
        <time>2024-11-05T10:10:12.250Z</time>
      </trkpt>
      <trkpt lat="44.22281" lon="3.51462">
        <ele>1068.19</ele>
        <time>2024-11-05T10:10:12.292Z</time>
      </trkpt>
      <trkpt lat="44.22263" lon="3.51463">
        <ele>1068.88</ele>
        <time>2024-11-05T10:10:12.336Z</time>
      </trkpt>
      <trkpt lat="44.22246" lon="3.51464">
        <ele>1069.88</ele>
        <time>2024-11-05T10:10:12.383Z</time>
      </trkpt>
      <trkpt lat="44.22207" lon="3.5146">
        <ele>1072.51</ele>
        <time>2024-11-05T10:10:12.437Z</time>
      </trkpt>
      <trkpt lat="44.22161" lon="3.51452">
        <ele>1076.11</ele>
        <time>2024-11-05T10:10:12.498Z</time>
      </trkpt>
      <trkpt lat="44.22138" lon="3.51448">
        <ele>1077.64</ele>
        <time>2024-11-05T10:10:12.563Z</time>
      </trkpt>
      <trkpt lat="44.22119" lon="3.51447">
        <ele>1078.8</ele>
        <time>2024-11-05T10:10:12.631Z</time>
      </trkpt>
      <trkpt lat="44.22104" lon="3.5145">
        <ele>1079.59</ele>
        <time>2024-11-05T10:10:12.701Z</time>
      </trkpt>
      <trkpt lat="44.22072" lon="3.51473">
        <ele>1080.94</ele>
        <time>2024-11-05T10:10:12.777Z</time>
      </trkpt>
      <trkpt lat="44.22037" lon="3.51463">
        <ele>1081.54</ele>
        <time>2024-11-05T10:10:12.859Z</time>
      </trkpt>
      <trkpt lat="44.21979" lon="3.5145">
        <ele>1082.07</ele>
        <time>2024-11-05T10:10:12.950Z</time>
      </trkpt>
      <trkpt lat="44.21941" lon="3.51441">
        <ele>1082.75</ele>
        <time>2024-11-05T10:10:13.047Z</time>
      </trkpt>
      <trkpt lat="44.21914" lon="3.51438">
        <ele>1083.17</ele>
        <time>2024-11-05T10:10:13.148Z</time>
      </trkpt>
      <trkpt lat="44.21865" lon="3.51437">
        <ele>1083.57</ele>
        <time>2024-11-05T10:10:13.257Z</time>
      </trkpt>
      <trkpt lat="44.21856" lon="3.51433">
        <ele>1083.66</ele>
        <time>2024-11-05T10:10:13.368Z</time>
      </trkpt>
      <trkpt lat="44.21838" lon="3.51419">
        <ele>1083.96</ele>
        <time>2024-11-05T10:10:13.482Z</time>
      </trkpt>
      <trkpt lat="44.2182" lon="3.51402">
        <ele>1084.38</ele>
        <time>2024-11-05T10:10:13.600Z</time>
      </trkpt>
      <trkpt lat="44.21782" lon="3.51359">
        <ele>1085.51</ele>
        <time>2024-11-05T10:10:13.725Z</time>
      </trkpt>
      <trkpt lat="44.21768" lon="3.51344">
        <ele>1085.74</ele>
        <time>2024-11-05T10:10:13.853Z</time>
      </trkpt>
      <trkpt lat="44.21752" lon="3.51332">
        <ele>1085.72</ele>
        <time>2024-11-05T10:10:13.984Z</time>
      </trkpt>
      <trkpt lat="44.21693" lon="3.51287">
        <ele>1084.9</ele>
        <time>2024-11-05T10:10:14.126Z</time>
      </trkpt>
      <trkpt lat="44.21673" lon="3.51272">
        <ele>1084.77</ele>
        <time>2024-11-05T10:10:14.272Z</time>
      </trkpt>
      <trkpt lat="44.2163" lon="3.51237">
        <ele>1085.1</ele>
        <time>2024-11-05T10:10:14.426Z</time>
      </trkpt>
      <trkpt lat="44.21617" lon="3.51221">
        <ele>1085.11</ele>
        <time>2024-11-05T10:10:14.582Z</time>
      </trkpt>
      <trkpt lat="44.21587" lon="3.51159">
        <ele>1084.67</ele>
        <time>2024-11-05T10:10:14.747Z</time>
      </trkpt>
      <trkpt lat="44.2155" lon="3.51084">
        <ele>1084.59</ele>
        <time>2024-11-05T10:10:14.922Z</time>
      </trkpt>
      <trkpt lat="44.21524" lon="3.51038">
        <ele>1084.21</ele>
        <time>2024-11-05T10:10:15.104Z</time>
      </trkpt>
      <trkpt lat="44.21507" lon="3.51009">
        <ele>1083.49</ele>
        <time>2024-11-05T10:10:15.290Z</time>
      </trkpt>
      <trkpt lat="44.21485" lon="3.50964">
        <ele>1081.93</ele>
        <time>2024-11-05T10:10:15.483Z</time>
      </trkpt>
      <trkpt lat="44.21478" lon="3.50955">
        <ele>1081.59</ele>
        <time>2024-11-05T10:10:15.677Z</time>
      </trkpt>
      <trkpt lat="44.21454" lon="3.50936">
        <ele>1080.7</ele>
        <time>2024-11-05T10:10:15.876Z</time>
      </trkpt>
      <trkpt lat="44.21416" lon="3.50904">
        <ele>1078.85</ele>
        <time>2024-11-05T10:10:16.082Z</time>
      </trkpt>
      <trkpt lat="44.21367" lon="3.50895">
        <ele>1077.19</ele>
        <time>2024-11-05T10:10:16.296Z</time>
      </trkpt>
      <trkpt lat="44.21356" lon="3.5089">
        <ele>1076.81</ele>
        <time>2024-11-05T10:10:16.512Z</time>
      </trkpt>
      <trkpt lat="44.21346" lon="3.50882">
        <ele>1076.4</ele>
        <time>2024-11-05T10:10:16.729Z</time>
      </trkpt>
      <trkpt lat="44.21331" lon="3.50863">
        <ele>1075.61</ele>
        <time>2024-11-05T10:10:16.950Z</time>
      </trkpt>
      <trkpt lat="44.21312" lon="3.50821">
        <ele>1074.28</ele>
        <time>2024-11-05T10:10:17.176Z</time>
      </trkpt>
      <trkpt lat="44.21305" lon="3.5081">
        <ele>1073.92</ele>
        <time>2024-11-05T10:10:17.404Z</time>
      </trkpt>
      <trkpt lat="44.2129" lon="3.50794">
        <ele>1073.28</ele>
        <time>2024-11-05T10:10:17.635Z</time>
      </trkpt>
      <trkpt lat="44.21282" lon="3.50788">
        <ele>1072.97</ele>
        <time>2024-11-05T10:10:17.867Z</time>
      </trkpt>
      <trkpt lat="44.21235" lon="3.50768">
        <ele>1071.17</ele>
        <time>2024-11-05T10:10:18.107Z</time>
      </trkpt>
      <trkpt lat="44.21208" lon="3.50751">
        <ele>1069.97</ele>
        <time>2024-11-05T10:10:18.352Z</time>
      </trkpt>
      <trkpt lat="44.21181" lon="3.50738">
        <ele>1068.99</ele>
        <time>2024-11-05T10:10:18.602Z</time>
      </trkpt>
      <trkpt lat="44.21167" lon="3.50725">
        <ele>1068.6</ele>
        <time>2024-11-05T10:10:18.854Z</time>
      </trkpt>
      <trkpt lat="44.21152" lon="3.50704">
        <ele>1068.28</ele>
        <time>2024-11-05T10:10:19.110Z</time>
      </trkpt>
      <trkpt lat="44.21142" lon="3.50698">
        <ele>1068.05</ele>
        <time>2024-11-05T10:10:19.368Z</time>
      </trkpt>
      <trkpt lat="44.21136" lon="3.50698">
        <ele>1067.88</ele>
        <time>2024-11-05T10:10:19.626Z</time>
      </trkpt>
      <trkpt lat="44.2106" lon="3.50745">
        <ele>1065.69</ele>
        <time>2024-11-05T10:10:19.898Z</time>
      </trkpt>
      <trkpt lat="44.21023" lon="3.50768">
        <ele>1065.09</ele>
        <time>2024-11-05T10:10:20.176Z</time>
      </trkpt>
      <trkpt lat="44.20983" lon="3.50808">
        <ele>1065.02</ele>
        <time>2024-11-05T10:10:20.462Z</time>
      </trkpt>
      <trkpt lat="44.20962" lon="3.5083">
        <ele>1065.17</ele>
        <time>2024-11-05T10:10:20.752Z</time>
      </trkpt>
      <trkpt lat="44.20901" lon="3.50894">
        <ele>1066.15</ele>
        <time>2024-11-05T10:10:21.055Z</time>
      </trkpt>
      <trkpt lat="44.20869" lon="3.50928">
        <ele>1067.2</ele>
        <time>2024-11-05T10:10:21.364Z</time>
      </trkpt>
      <trkpt lat="44.20842" lon="3.50953">
        <ele>1068.38</ele>
        <time>2024-11-05T10:10:21.678Z</time>
      </trkpt>
      <trkpt lat="44.20824" lon="3.50962">
        <ele>1069</ele>
        <time>2024-11-05T10:10:21.995Z</time>
      </trkpt>
      <trkpt lat="44.20813" lon="3.50963">
        <ele>1069.36</ele>
        <time>2024-11-05T10:10:22.314Z</time>
      </trkpt>
      <trkpt lat="44.20788" lon="3.50986">
        <ele>1068.32</ele>
        <time>2024-11-05T10:10:22.638Z</time>
      </trkpt>
      <trkpt lat="44.20761" lon="3.5101">
        <ele>1066.46</ele>
        <time>2024-11-05T10:10:22.967Z</time>
      </trkpt>
      <trkpt lat="44.2074" lon="3.51024">
        <ele>1064.93</ele>
        <time>2024-11-05T10:10:23.300Z</time>
      </trkpt>
      <trkpt lat="44.20693" lon="3.51036">
        <ele>1061.88</ele>
        <time>2024-11-05T10:10:23.640Z</time>
      </trkpt>
      <trkpt lat="44.20647" lon="3.51043">
        <ele>1058.45</ele>
        <time>2024-11-05T10:10:23.988Z</time>
      </trkpt>
      <trkpt lat="44.20631" lon="3.51052">
        <ele>1057.18</ele>
        <time>2024-11-05T10:10:24.339Z</time>
      </trkpt>
      <trkpt lat="44.20613" lon="3.51071">
        <ele>1055.49</ele>
        <time>2024-11-05T10:10:24.693Z</time>
      </trkpt>
      <trkpt lat="44.20584" lon="3.5112">
        <ele>1052.35</ele>
        <time>2024-11-05T10:10:25.054Z</time>
      </trkpt>
      <trkpt lat="44.20569" lon="3.51158">
        <ele>1050.04</ele>
        <time>2024-11-05T10:10:25.420Z</time>
      </trkpt>
      <trkpt lat="44.20539" lon="3.51248">
        <ele>1045.37</ele>
        <time>2024-11-05T10:10:25.798Z</time>
      </trkpt>
      <trkpt lat="44.20532" lon="3.51282">
        <ele>1043.51</ele>
        <time>2024-11-05T10:10:26.180Z</time>
      </trkpt>
      <trkpt lat="44.20523" lon="3.51328">
        <ele>1040.67</ele>
        <time>2024-11-05T10:10:26.567Z</time>
      </trkpt>
      <trkpt lat="44.20498" lon="3.51391">
        <ele>1036.29</ele>
        <time>2024-11-05T10:10:26.963Z</time>
      </trkpt>
      <trkpt lat="44.20489" lon="3.51406">
        <ele>1035.04</ele>
        <time>2024-11-05T10:10:27.361Z</time>
      </trkpt>
      <trkpt lat="44.20472" lon="3.51425">
        <ele>1033.02</ele>
        <time>2024-11-05T10:10:27.762Z</time>
      </trkpt>
      <trkpt lat="44.20452" lon="3.51445">
        <ele>1030.99</ele>
        <time>2024-11-05T10:10:28.167Z</time>
      </trkpt>
      <trkpt lat="44.20442" lon="3.51449">
        <ele>1030.23</ele>
        <time>2024-11-05T10:10:28.574Z</time>
      </trkpt>
      <trkpt lat="44.20443" lon="3.51463">
        <ele>1030.22</ele>
        <time>2024-11-05T10:10:28.983Z</time>
      </trkpt>
      <trkpt lat="44.20446" lon="3.51489">
        <ele>1029.35</ele>
        <time>2024-11-05T10:10:29.395Z</time>
      </trkpt>
      <trkpt lat="44.20463" lon="3.51568">
        <ele>1025.56</ele>
        <time>2024-11-05T10:10:29.816Z</time>
      </trkpt>
      <trkpt lat="44.20467" lon="3.5158">
        <ele>1024.94</ele>
        <time>2024-11-05T10:10:30.239Z</time>
      </trkpt>
      <trkpt lat="44.20472" lon="3.51588">
        <ele>1024.43</ele>
        <time>2024-11-05T10:10:30.663Z</time>
      </trkpt>
      <trkpt lat="44.20483" lon="3.51597">
        <ele>1023.51</ele>
        <time>2024-11-05T10:10:31.089Z</time>
      </trkpt>
      <trkpt lat="44.20497" lon="3.51598">
        <ele>1022.26</ele>
        <time>2024-11-05T10:10:31.517Z</time>
      </trkpt>
      <trkpt lat="44.20528" lon="3.51587">
        <ele>1019.25</ele>
        <time>2024-11-05T10:10:31.950Z</time>
      </trkpt>
      <trkpt lat="44.20557" lon="3.51576">
        <ele>1016.7</ele>
        <time>2024-11-05T10:10:32.388Z</time>
      </trkpt>
      <trkpt lat="44.20605" lon="3.51557">
        <ele>1013.22</ele>
        <time>2024-11-05T10:10:32.834Z</time>
      </trkpt>
      <trkpt lat="44.20649" lon="3.51527">
        <ele>1008.91</ele>
        <time>2024-11-05T10:10:33.288Z</time>
      </trkpt>
      <trkpt lat="44.20722" lon="3.51475">
        <ele>1003.23</ele>
        <time>2024-11-05T10:10:33.755Z</time>
      </trkpt>
      <trkpt lat="44.20801" lon="3.51455">
        <ele>997.08</ele>
        <time>2024-11-05T10:10:34.235Z</time>
      </trkpt>
      <trkpt lat="44.20839" lon="3.51447">
        <ele>993.87</ele>
        <time>2024-11-05T10:10:34.721Z</time>
      </trkpt>
      <trkpt lat="44.20857" lon="3.51445">
        <ele>992.49</ele>
        <time>2024-11-05T10:10:35.210Z</time>
      </trkpt>
      <trkpt lat="44.20871" lon="3.51447">
        <ele>991.49</ele>
        <time>2024-11-05T10:10:35.701Z</time>
      </trkpt>
      <trkpt lat="44.20881" lon="3.51452">
        <ele>990.61</ele>
        <time>2024-11-05T10:10:36.194Z</time>
      </trkpt>
      <trkpt lat="44.20934" lon="3.51496">
        <ele>985.6</ele>
        <time>2024-11-05T10:10:36.697Z</time>
      </trkpt>
      <trkpt lat="44.20964" lon="3.51528">
        <ele>982.72</ele>
        <time>2024-11-05T10:10:37.206Z</time>
      </trkpt>
      <trkpt lat="44.2098" lon="3.51536">
        <ele>981.43</ele>
        <time>2024-11-05T10:10:37.718Z</time>
      </trkpt>
      <trkpt lat="44.20992" lon="3.51539">
        <ele>980.49</ele>
        <time>2024-11-05T10:10:38.232Z</time>
      </trkpt>
      <trkpt lat="44.21004" lon="3.51539">
        <ele>979.43</ele>
        <time>2024-11-05T10:10:38.747Z</time>
      </trkpt>
      <trkpt lat="44.2104" lon="3.51533">
        <ele>976.23</ele>
        <time>2024-11-05T10:10:39.268Z</time>
      </trkpt>
      <trkpt lat="44.2109" lon="3.51526">
        <ele>972.81</ele>
        <time>2024-11-05T10:10:39.797Z</time>
      </trkpt>
      <trkpt lat="44.21117" lon="3.51531">
        <ele>970.76</ele>
        <time>2024-11-05T10:10:40.331Z</time>
      </trkpt>
      <trkpt lat="44.21159" lon="3.51553">
        <ele>966.84</ele>
        <time>2024-11-05T10:10:40.872Z</time>
      </trkpt>
      <trkpt lat="44.21179" lon="3.51575">
        <ele>964.89</ele>
        <time>2024-11-05T10:10:41.417Z</time>
      </trkpt>
      <trkpt lat="44.21189" lon="3.51593">
        <ele>964.01</ele>
        <time>2024-11-05T10:10:41.965Z</time>
      </trkpt>
      <trkpt lat="44.21197" lon="3.51613">
        <ele>963.23</ele>
        <time>2024-11-05T10:10:42.515Z</time>
      </trkpt>
      <trkpt lat="44.21204" lon="3.51654">
        <ele>961.83</ele>
        <time>2024-11-05T10:10:43.070Z</time>
      </trkpt>
      <trkpt lat="44.21208" lon="3.51666">
        <ele>961.33</ele>
        <time>2024-11-05T10:10:43.627Z</time>
      </trkpt>
      <trkpt lat="44.21214" lon="3.51675">
        <ele>960.84</ele>
        <time>2024-11-05T10:10:44.185Z</time>
      </trkpt>
      <trkpt lat="44.21234" lon="3.51685">
        <ele>959.69</ele>
        <time>2024-11-05T10:10:44.746Z</time>
      </trkpt>
      <trkpt lat="44.21262" lon="3.51696">
        <ele>958.42</ele>
        <time>2024-11-05T10:10:45.312Z</time>
      </trkpt>
      <trkpt lat="44.21278" lon="3.51711">
        <ele>957.57</ele>
        <time>2024-11-05T10:10:45.881Z</time>
      </trkpt>
      <trkpt lat="44.21293" lon="3.51735">
        <ele>956.44</ele>
        <time>2024-11-05T10:10:46.454Z</time>
      </trkpt>
      <trkpt lat="44.21297" lon="3.51754">
        <ele>955.7</ele>
        <time>2024-11-05T10:10:47.029Z</time>
      </trkpt>
      <trkpt lat="44.21297" lon="3.51772">
        <ele>955.06</ele>
        <time>2024-11-05T10:10:47.606Z</time>
      </trkpt>
      <trkpt lat="44.21294" lon="3.51795">
        <ele>954.36</ele>
        <time>2024-11-05T10:10:48.186Z</time>
      </trkpt>
      <trkpt lat="44.21278" lon="3.51842">
        <ele>953.01</ele>
        <time>2024-11-05T10:10:48.772Z</time>
      </trkpt>
      <trkpt lat="44.21241" lon="3.51939">
        <ele>950.59</ele>
        <time>2024-11-05T10:10:49.370Z</time>
      </trkpt>
      <trkpt lat="44.21234" lon="3.51956">
        <ele>949.86</ele>
        <time>2024-11-05T10:10:49.971Z</time>
      </trkpt>
      <trkpt lat="44.21234" lon="3.51968">
        <ele>949.37</ele>
        <time>2024-11-05T10:10:50.573Z</time>
      </trkpt>
      <trkpt lat="44.21237" lon="3.5198">
        <ele>948.82</ele>
        <time>2024-11-05T10:10:51.176Z</time>
      </trkpt>
      <trkpt lat="44.2125" lon="3.52003">
        <ele>947.61</ele>
        <time>2024-11-05T10:10:51.783Z</time>
      </trkpt>
      <trkpt lat="44.21254" lon="3.52013">
        <ele>947.14</ele>
        <time>2024-11-05T10:10:52.391Z</time>
      </trkpt>
      <trkpt lat="44.21256" lon="3.52026">
        <ele>946.55</ele>
        <time>2024-11-05T10:10:53.001Z</time>
      </trkpt>
      <trkpt lat="44.21256" lon="3.52055">
        <ele>945</ele>
        <time>2024-11-05T10:10:53.614Z</time>
      </trkpt>
      <trkpt lat="44.21251" lon="3.52084">
        <ele>943.31</ele>
        <time>2024-11-05T10:10:54.230Z</time>
      </trkpt>
      <trkpt lat="44.21242" lon="3.52114">
        <ele>941.46</ele>
        <time>2024-11-05T10:10:54.850Z</time>
      </trkpt>
      <trkpt lat="44.2122" lon="3.52167">
        <ele>937.81</ele>
        <time>2024-11-05T10:10:55.477Z</time>
      </trkpt>
      <trkpt lat="44.21213" lon="3.52181">
        <ele>936.66</ele>
        <time>2024-11-05T10:10:56.106Z</time>
      </trkpt>
      <trkpt lat="44.21198" lon="3.52201">
        <ele>934.76</ele>
        <time>2024-11-05T10:10:56.739Z</time>
      </trkpt>
      <trkpt lat="44.21168" lon="3.52232">
        <ele>931.43</ele>
        <time>2024-11-05T10:10:57.378Z</time>
      </trkpt>
      <trkpt lat="44.21146" lon="3.52249">
        <ele>929.17</ele>
        <time>2024-11-05T10:10:58.021Z</time>
      </trkpt>
      <trkpt lat="44.21092" lon="3.52281">
        <ele>923.79</ele>
        <time>2024-11-05T10:10:58.673Z</time>
      </trkpt>
      <trkpt lat="44.21068" lon="3.52308">
        <ele>920.7</ele>
        <time>2024-11-05T10:10:59.330Z</time>
      </trkpt>
      <trkpt lat="44.21058" lon="3.52329">
        <ele>918.8</ele>
        <time>2024-11-05T10:10:59.990Z</time>
      </trkpt>
      <trkpt lat="44.21045" lon="3.52366">
        <ele>915.9</ele>
        <time>2024-11-05T10:11:00.655Z</time>
      </trkpt>
      <trkpt lat="44.21038" lon="3.52401">
        <ele>913.5</ele>
        <time>2024-11-05T10:11:01.324Z</time>
      </trkpt>
      <trkpt lat="44.21029" lon="3.52431">
        <ele>911.52</ele>
        <time>2024-11-05T10:11:01.996Z</time>
      </trkpt>
      <trkpt lat="44.20995" lon="3.52488">
        <ele>907.52</ele>
        <time>2024-11-05T10:11:02.677Z</time>
      </trkpt>
      <trkpt lat="44.20974" lon="3.52527">
        <ele>904.83</ele>
        <time>2024-11-05T10:11:03.364Z</time>
      </trkpt>
      <trkpt lat="44.20954" lon="3.52599">
        <ele>900.75</ele>
        <time>2024-11-05T10:11:04.059Z</time>
      </trkpt>
      <trkpt lat="44.20945" lon="3.5263">
        <ele>898.7</ele>
        <time>2024-11-05T10:11:04.758Z</time>
      </trkpt>
      <trkpt lat="44.20928" lon="3.52725">
        <ele>892.01</ele>
        <time>2024-11-05T10:11:05.469Z</time>
      </trkpt>
      <trkpt lat="44.2092" lon="3.52768">
        <ele>889.34</ele>
        <time>2024-11-05T10:11:06.185Z</time>
      </trkpt>
      <trkpt lat="44.20915" lon="3.52809">
        <ele>886.85</ele>
        <time>2024-11-05T10:11:06.905Z</time>
      </trkpt>
      <trkpt lat="44.2091" lon="3.52882">
        <ele>882.27</ele>
        <time>2024-11-05T10:11:07.634Z</time>
      </trkpt>
      <trkpt lat="44.20911" lon="3.52922">
        <ele>879.94</ele>
        <time>2024-11-05T10:11:08.368Z</time>
      </trkpt>
      <trkpt lat="44.20914" lon="3.52953">
        <ele>878.13</ele>
        <time>2024-11-05T10:11:09.105Z</time>
      </trkpt>
      <trkpt lat="44.20925" lon="3.53008">
        <ele>874.7</ele>
        <time>2024-11-05T10:11:09.849Z</time>
      </trkpt>
      <trkpt lat="44.20939" lon="3.53049">
        <ele>871.94</ele>
        <time>2024-11-05T10:11:10.598Z</time>
      </trkpt>
      <trkpt lat="44.20958" lon="3.53074">
        <ele>869.96</ele>
        <time>2024-11-05T10:11:11.351Z</time>
      </trkpt>
      <trkpt lat="44.20987" lon="3.53113">
        <ele>867.18</ele>
        <time>2024-11-05T10:11:12.111Z</time>
      </trkpt>
      <trkpt lat="44.20999" lon="3.53123">
        <ele>865.84</ele>
        <time>2024-11-05T10:11:12.873Z</time>
      </trkpt>
      <trkpt lat="44.21013" lon="3.53125">
        <ele>864.51</ele>
        <time>2024-11-05T10:11:13.637Z</time>
      </trkpt>
      <trkpt lat="44.21028" lon="3.53122">
        <ele>863.16</ele>
        <time>2024-11-05T10:11:14.403Z</time>
      </trkpt>
      <trkpt lat="44.21077" lon="3.53105">
        <ele>858.97</ele>
        <time>2024-11-05T10:11:15.178Z</time>
      </trkpt>
      <trkpt lat="44.21126" lon="3.53089">
        <ele>855.74</ele>
        <time>2024-11-05T10:11:15.961Z</time>
      </trkpt>
      <trkpt lat="44.21145" lon="3.53087">
        <ele>854.62</ele>
        <time>2024-11-05T10:11:16.747Z</time>
      </trkpt>
      <trkpt lat="44.2116" lon="3.5309">
        <ele>853.61</ele>
        <time>2024-11-05T10:11:17.535Z</time>
      </trkpt>
      <trkpt lat="44.21172" lon="3.53095">
        <ele>852.73</ele>
        <time>2024-11-05T10:11:18.325Z</time>
      </trkpt>
      <trkpt lat="44.21187" lon="3.53105">
        <ele>851.56</ele>
        <time>2024-11-05T10:11:19.118Z</time>
      </trkpt>
      <trkpt lat="44.21209" lon="3.53123">
        <ele>849.79</ele>
        <time>2024-11-05T10:11:19.915Z</time>
      </trkpt>
      <trkpt lat="44.21226" lon="3.53145">
        <ele>848.42</ele>
        <time>2024-11-05T10:11:20.716Z</time>
      </trkpt>
      <trkpt lat="44.21235" lon="3.53161">
        <ele>847.58</ele>
        <time>2024-11-05T10:11:21.519Z</time>
      </trkpt>
      <trkpt lat="44.21241" lon="3.53177">
        <ele>846.81</ele>
        <time>2024-11-05T10:11:22.324Z</time>
      </trkpt>
      <trkpt lat="44.21247" lon="3.53186">
        <ele>846.32</ele>
        <time>2024-11-05T10:11:23.130Z</time>
      </trkpt>
      <trkpt lat="44.21256" lon="3.5319">
        <ele>845.57</ele>
        <time>2024-11-05T10:11:23.938Z</time>
      </trkpt>
      <trkpt lat="44.21264" lon="3.53185">
        <ele>844.87</ele>
        <time>2024-11-05T10:11:24.747Z</time>
      </trkpt>
      <trkpt lat="44.21269" lon="3.53174">
        <ele>844.1</ele>
        <time>2024-11-05T10:11:25.558Z</time>
      </trkpt>
      <trkpt lat="44.21276" lon="3.53108">
        <ele>840.62</ele>
        <time>2024-11-05T10:11:26.376Z</time>
      </trkpt>
      <trkpt lat="44.21287" lon="3.53062">
        <ele>838.4</ele>
        <time>2024-11-05T10:11:27.200Z</time>
      </trkpt>
      <trkpt lat="44.21301" lon="3.53029">
        <ele>836.66</ele>
        <time>2024-11-05T10:11:28.028Z</time>
      </trkpt>
      <trkpt lat="44.21319" lon="3.52984">
        <ele>834.07</ele>
        <time>2024-11-05T10:11:28.862Z</time>
      </trkpt>
      <trkpt lat="44.21342" lon="3.52906">
        <ele>829.7</ele>
        <time>2024-11-05T10:11:29.706Z</time>
      </trkpt>
      <trkpt lat="44.21348" lon="3.52858">
        <ele>827.38</ele>
        <time>2024-11-05T10:11:30.556Z</time>
      </trkpt>
      <trkpt lat="44.21354" lon="3.52837">
        <ele>826.29</ele>
        <time>2024-11-05T10:11:31.408Z</time>
      </trkpt>
      <trkpt lat="44.21365" lon="3.52807">
        <ele>824.8</ele>
        <time>2024-11-05T10:11:32.264Z</time>
      </trkpt>
      <trkpt lat="44.21378" lon="3.52778">
        <ele>823.23</ele>
        <time>2024-11-05T10:11:33.124Z</time>
      </trkpt>
      <trkpt lat="44.21402" lon="3.52743">
        <ele>820.44</ele>
        <time>2024-11-05T10:11:33.990Z</time>
      </trkpt>
      <trkpt lat="44.21431" lon="3.52704">
        <ele>817.87</ele>
        <time>2024-11-05T10:11:34.862Z</time>
      </trkpt>
      <trkpt lat="44.21447" lon="3.52679">
        <ele>816.82</ele>
        <time>2024-11-05T10:11:35.738Z</time>
      </trkpt>
      <trkpt lat="44.21457" lon="3.52654">
        <ele>815.94</ele>
        <time>2024-11-05T10:11:36.617Z</time>
      </trkpt>
      <trkpt lat="44.21467" lon="3.5263">
        <ele>814.79</ele>
        <time>2024-11-05T10:11:37.499Z</time>
      </trkpt>
      <trkpt lat="44.2148" lon="3.52609">
        <ele>813.48</ele>
        <time>2024-11-05T10:11:38.385Z</time>
      </trkpt>
      <trkpt lat="44.21495" lon="3.52598">
        <ele>812.49</ele>
        <time>2024-11-05T10:11:39.273Z</time>
      </trkpt>
      <trkpt lat="44.21518" lon="3.52593">
        <ele>811.3</ele>
        <time>2024-11-05T10:11:40.165Z</time>
      </trkpt>
      <trkpt lat="44.21532" lon="3.52601">
        <ele>811.27</ele>
        <time>2024-11-05T10:11:41.059Z</time>
      </trkpt>
      <trkpt lat="44.21549" lon="3.52623">
        <ele>809.92</ele>
        <time>2024-11-05T10:11:41.957Z</time>
      </trkpt>
      <trkpt lat="44.21569" lon="3.52673">
        <ele>807.32</ele>
        <time>2024-11-05T10:11:42.862Z</time>
      </trkpt>
      <trkpt lat="44.21577" lon="3.52707">
        <ele>805.45</ele>
        <time>2024-11-05T10:11:43.771Z</time>
      </trkpt>
      <trkpt lat="44.2159" lon="3.52767">
        <ele>801.82</ele>
        <time>2024-11-05T10:11:44.687Z</time>
      </trkpt>
      <trkpt lat="44.21592" lon="3.52789">
        <ele>800.56</ele>
        <time>2024-11-05T10:11:45.606Z</time>
      </trkpt>
      <trkpt lat="44.21589" lon="3.5281">
        <ele>799.4</ele>
        <time>2024-11-05T10:11:46.527Z</time>
      </trkpt>
      <trkpt lat="44.21588" lon="3.52821">
        <ele>798.86</ele>
        <time>2024-11-05T10:11:47.449Z</time>
      </trkpt>
      <trkpt lat="44.21577" lon="3.52856">
        <ele>797.2</ele>
        <time>2024-11-05T10:11:48.376Z</time>
      </trkpt>
      <trkpt lat="44.21575" lon="3.52875">
        <ele>796.37</ele>
        <time>2024-11-05T10:11:49.305Z</time>
      </trkpt>
      <trkpt lat="44.21576" lon="3.52895">
        <ele>795.47</ele>
        <time>2024-11-05T10:11:50.236Z</time>
      </trkpt>
      <trkpt lat="44.21583" lon="3.52921">
        <ele>794.19</ele>
        <time>2024-11-05T10:11:51.170Z</time>
      </trkpt>
      <trkpt lat="44.21599" lon="3.52943">
        <ele>792.81</ele>
        <time>2024-11-05T10:11:52.108Z</time>
      </trkpt>
      <trkpt lat="44.21602" lon="3.52951">
        <ele>792.36</ele>
        <time>2024-11-05T10:11:53.047Z</time>
      </trkpt>
      <trkpt lat="44.21599" lon="3.52972">
        <ele>791.06</ele>
        <time>2024-11-05T10:11:53.989Z</time>
      </trkpt>
      <trkpt lat="44.21585" lon="3.53009">
        <ele>788.42</ele>
        <time>2024-11-05T10:11:54.935Z</time>
      </trkpt>
      <trkpt lat="44.21572" lon="3.53045">
        <ele>786.16</ele>
        <time>2024-11-05T10:11:55.886Z</time>
      </trkpt>
      <trkpt lat="44.21571" lon="3.53056">
        <ele>785.52</ele>
        <time>2024-11-05T10:11:56.838Z</time>
      </trkpt>
      <trkpt lat="44.21573" lon="3.53092">
        <ele>783.45</ele>
        <time>2024-11-05T10:11:57.794Z</time>
      </trkpt>
      <trkpt lat="44.21575" lon="3.53118">
        <ele>782.14</ele>
        <time>2024-11-05T10:11:58.753Z</time>
      </trkpt>
      <trkpt lat="44.21584" lon="3.53188">
        <ele>779.09</ele>
        <time>2024-11-05T10:11:59.721Z</time>
      </trkpt>
      <trkpt lat="44.21581" lon="3.53247">
        <ele>776.31</ele>
        <time>2024-11-05T10:12:00.695Z</time>
      </trkpt>
      <trkpt lat="44.2158" lon="3.53276">
        <ele>774.6</ele>
        <time>2024-11-05T10:12:01.673Z</time>
      </trkpt>
      <trkpt lat="44.21589" lon="3.53297">
        <ele>773.01</ele>
        <time>2024-11-05T10:12:02.654Z</time>
      </trkpt>
      <trkpt lat="44.21606" lon="3.53319">
        <ele>771.28</ele>
        <time>2024-11-05T10:12:03.638Z</time>
      </trkpt>
      <trkpt lat="44.21608" lon="3.53329">
        <ele>770.77</ele>
        <time>2024-11-05T10:12:04.624Z</time>
      </trkpt>
      <trkpt lat="44.21608" lon="3.53342">
        <ele>770.14</ele>
        <time>2024-11-05T10:12:05.611Z</time>
      </trkpt>
      <trkpt lat="44.21604" lon="3.5336">
        <ele>769.24</ele>
        <time>2024-11-05T10:12:06.600Z</time>
      </trkpt>
      <trkpt lat="44.21597" lon="3.53374">
        <ele>768.43</ele>
        <time>2024-11-05T10:12:07.591Z</time>
      </trkpt>
      <trkpt lat="44.21576" lon="3.53405">
        <ele>766.34</ele>
        <time>2024-11-05T10:12:08.587Z</time>
      </trkpt>
      <trkpt lat="44.21568" lon="3.53428">
        <ele>764.95</ele>
        <time>2024-11-05T10:12:09.586Z</time>
      </trkpt>
      <trkpt lat="44.21566" lon="3.53481">
        <ele>762.21</ele>
        <time>2024-11-05T10:12:10.591Z</time>
      </trkpt>
      <trkpt lat="44.21573" lon="3.53515">
        <ele>760.5</ele>
        <time>2024-11-05T10:12:11.600Z</time>
      </trkpt>
      <trkpt lat="44.21574" lon="3.53535">
        <ele>759.69</ele>
        <time>2024-11-05T10:12:12.611Z</time>
      </trkpt>
      <trkpt lat="44.2157" lon="3.53553">
        <ele>758.96</ele>
        <time>2024-11-05T10:12:13.625Z</time>
      </trkpt>
      <trkpt lat="44.21561" lon="3.53577">
        <ele>757.61</ele>
        <time>2024-11-05T10:12:14.642Z</time>
      </trkpt>
      <trkpt lat="44.2156" lon="3.53587">
        <ele>757.03</ele>
        <time>2024-11-05T10:12:15.660Z</time>
      </trkpt>
      <trkpt lat="44.21563" lon="3.53622">
        <ele>754.89</ele>
        <time>2024-11-05T10:12:16.682Z</time>
      </trkpt>
      <trkpt lat="44.21567" lon="3.53657">
        <ele>753.21</ele>
        <time>2024-11-05T10:12:17.708Z</time>
      </trkpt>
      <trkpt lat="44.21562" lon="3.53732">
        <ele>750.52</ele>
        <time>2024-11-05T10:12:18.743Z</time>
      </trkpt>
      <trkpt lat="44.2156" lon="3.53739">
        <ele>750.2</ele>
        <time>2024-11-05T10:12:19.779Z</time>
      </trkpt>
      <trkpt lat="44.21556" lon="3.53748">
        <ele>749.59</ele>
        <time>2024-11-05T10:12:20.816Z</time>
      </trkpt>
      <trkpt lat="44.21551" lon="3.53749">
        <ele>748.99</ele>
        <time>2024-11-05T10:12:21.854Z</time>
      </trkpt>
      <trkpt lat="44.21546" lon="3.53737">
        <ele>747.82</ele>
        <time>2024-11-05T10:12:22.893Z</time>
      </trkpt>
      <trkpt lat="44.21545" lon="3.53712">
        <ele>745.62</ele>
        <time>2024-11-05T10:12:23.935Z</time>
      </trkpt>
      <trkpt lat="44.21543" lon="3.53688">
        <ele>743.82</ele>
        <time>2024-11-05T10:12:24.980Z</time>
      </trkpt>
      <trkpt lat="44.21539" lon="3.53663">
        <ele>742.49</ele>
        <time>2024-11-05T10:12:26.028Z</time>
      </trkpt>
      <trkpt lat="44.21536" lon="3.53645">
        <ele>741.8</ele>
        <time>2024-11-05T10:12:27.078Z</time>
      </trkpt>
      <trkpt lat="44.2153" lon="3.53621">
        <ele>741.3</ele>
        <time>2024-11-05T10:12:28.131Z</time>
      </trkpt>
      <trkpt lat="44.21522" lon="3.53592">
        <ele>740.93</ele>
        <time>2024-11-05T10:12:29.187Z</time>
      </trkpt>
      <trkpt lat="44.21518" lon="3.53588">
        <ele>740.73</ele>
        <time>2024-11-05T10:12:30.244Z</time>
      </trkpt>
      <trkpt lat="44.21515" lon="3.53588">
        <ele>740.52</ele>
        <time>2024-11-05T10:12:31.302Z</time>
      </trkpt>
      <trkpt lat="44.21512" lon="3.53591">
        <ele>740.25</ele>
        <time>2024-11-05T10:12:32.360Z</time>
      </trkpt>
      <trkpt lat="44.21511" lon="3.53603">
        <ele>739.46</ele>
        <time>2024-11-05T10:12:33.420Z</time>
      </trkpt>
      <trkpt lat="44.21525" lon="3.53648">
        <ele>736.36</ele>
        <time>2024-11-05T10:12:34.485Z</time>
      </trkpt>
      <trkpt lat="44.21526" lon="3.53691">
        <ele>733.96</ele>
        <time>2024-11-05T10:12:35.555Z</time>
      </trkpt>
      <trkpt lat="44.21515" lon="3.53757">
        <ele>730.53</ele>
        <time>2024-11-05T10:12:36.633Z</time>
      </trkpt>
      <trkpt lat="44.21508" lon="3.53793">
        <ele>728.13</ele>
        <time>2024-11-05T10:12:37.715Z</time>
      </trkpt>
      <trkpt lat="44.21505" lon="3.53817">
        <ele>726.25</ele>
        <time>2024-11-05T10:12:38.800Z</time>
      </trkpt>
      <trkpt lat="44.21502" lon="3.53855">
        <ele>722.9</ele>
        <time>2024-11-05T10:12:39.890Z</time>
      </trkpt>
      <trkpt lat="44.21497" lon="3.53904">
        <ele>719.54</ele>
        <time>2024-11-05T10:12:40.985Z</time>
      </trkpt>
      <trkpt lat="44.21494" lon="3.5394">
        <ele>719.46</ele>
        <time>2024-11-05T10:12:42.084Z</time>
      </trkpt>
      <trkpt lat="44.21495" lon="3.53945">
        <ele>719.43</ele>
        <time>2024-11-05T10:12:43.184Z</time>
      </trkpt>
      <trkpt lat="44.21501" lon="3.53952">
        <ele>719.08</ele>
        <time>2024-11-05T10:12:44.285Z</time>
      </trkpt>
      <trkpt lat="44.21523" lon="3.53962">
        <ele>718.16</ele>
        <time>2024-11-05T10:12:45.390Z</time>
      </trkpt>
      <trkpt lat="44.21545" lon="3.5397">
        <ele>717.61</ele>
        <time>2024-11-05T10:12:46.499Z</time>
      </trkpt>
      <trkpt lat="44.21556" lon="3.53972">
        <ele>717.39</ele>
        <time>2024-11-05T10:12:47.609Z</time>
      </trkpt>
      <trkpt lat="44.21567" lon="3.53974">
        <ele>717.29</ele>
        <time>2024-11-05T10:12:48.721Z</time>
      </trkpt>
      <trkpt lat="44.21578" lon="3.53979">
        <ele>717.25</ele>
        <time>2024-11-05T10:12:49.835Z</time>
      </trkpt>
      <trkpt lat="44.216" lon="3.54027">
        <ele>717.68</ele>
        <time>2024-11-05T10:12:50.956Z</time>
      </trkpt>
      <trkpt lat="44.21614" lon="3.54044">
        <ele>718.13</ele>
        <time>2024-11-05T10:12:52.080Z</time>
      </trkpt>
      <trkpt lat="44.21636" lon="3.54061">
        <ele>719.01</ele>
        <time>2024-11-05T10:12:53.208Z</time>
      </trkpt>
      <trkpt lat="44.21648" lon="3.54073">
        <ele>719.58</ele>
        <time>2024-11-05T10:12:54.338Z</time>
      </trkpt>
      <trkpt lat="44.21661" lon="3.5409">
        <ele>720.23</ele>
        <time>2024-11-05T10:12:55.471Z</time>
      </trkpt>
      <trkpt lat="44.21695" lon="3.54129">
        <ele>721.78</ele>
        <time>2024-11-05T10:12:56.611Z</time>
      </trkpt>
      <trkpt lat="44.21723" lon="3.5416">
        <ele>722.36</ele>
        <time>2024-11-05T10:12:57.757Z</time>
      </trkpt>
      <trkpt lat="44.2173" lon="3.54174">
        <ele>722.3</ele>
        <time>2024-11-05T10:12:58.905Z</time>
      </trkpt>
      <trkpt lat="44.21751" lon="3.54246">
        <ele>721.5</ele>
        <time>2024-11-05T10:13:00.062Z</time>
      </trkpt>
      <trkpt lat="44.21758" lon="3.54282">
        <ele>720.65</ele>
        <time>2024-11-05T10:13:01.223Z</time>
      </trkpt>
      <trkpt lat="44.21754" lon="3.54355">
        <ele>719.02</ele>
        <time>2024-11-05T10:13:02.392Z</time>
      </trkpt>
      <trkpt lat="44.21756" lon="3.5439">
        <ele>718.6</ele>
        <time>2024-11-05T10:13:03.565Z</time>
      </trkpt>
      <trkpt lat="44.21767" lon="3.54426">
        <ele>718.61</ele>
        <time>2024-11-05T10:13:04.743Z</time>
      </trkpt>
      <trkpt lat="44.2179" lon="3.5448">
        <ele>719.19</ele>
        <time>2024-11-05T10:13:05.928Z</time>
      </trkpt>
      <trkpt lat="44.21799" lon="3.54509">
        <ele>719.19</ele>
        <time>2024-11-05T10:13:07.117Z</time>
      </trkpt>
      <trkpt lat="44.21804" lon="3.54526">
        <ele>718.97</ele>
        <time>2024-11-05T10:13:08.308Z</time>
      </trkpt>
      <trkpt lat="44.2181" lon="3.54547">
        <ele>718.46</ele>
        <time>2024-11-05T10:13:09.501Z</time>
      </trkpt>
      <trkpt lat="44.21819" lon="3.54596">
        <ele>717.16</ele>
        <time>2024-11-05T10:13:10.700Z</time>
      </trkpt>
      <trkpt lat="44.21826" lon="3.54613">
        <ele>716.79</ele>
        <time>2024-11-05T10:13:11.901Z</time>
      </trkpt>
      <trkpt lat="44.21837" lon="3.54643">
        <ele>716.43</ele>
        <time>2024-11-05T10:13:13.106Z</time>
      </trkpt>
      <trkpt lat="44.21852" lon="3.54699">
        <ele>715.97</ele>
        <time>2024-11-05T10:13:14.318Z</time>
      </trkpt>
      <trkpt lat="44.21871" lon="3.54733">
        <ele>715.33</ele>
        <time>2024-11-05T10:13:15.535Z</time>
      </trkpt>
      <trkpt lat="44.21879" lon="3.54748">
        <ele>714.82</ele>
        <time>2024-11-05T10:13:16.754Z</time>
      </trkpt>
      <trkpt lat="44.21932" lon="3.54842">
        <ele>710.09</ele>
        <time>2024-11-05T10:13:17.987Z</time>
      </trkpt>
      <trkpt lat="44.21966" lon="3.54929">
        <ele>705.41</ele>
        <time>2024-11-05T10:13:19.231Z</time>
      </trkpt>
      <trkpt lat="44.21977" lon="3.54958">
        <ele>704.24</ele>
        <time>2024-11-05T10:13:20.479Z</time>
      </trkpt>
      <trkpt lat="44.21987" lon="3.54975">
        <ele>703.64</ele>
        <time>2024-11-05T10:13:21.730Z</time>
      </trkpt>
      <trkpt lat="44.21992" lon="3.5498">
        <ele>703.48</ele>
        <time>2024-11-05T10:13:22.982Z</time>
      </trkpt>
      <trkpt lat="44.21999" lon="3.54982">
        <ele>703.18</ele>
        <time>2024-11-05T10:13:24.235Z</time>
      </trkpt>
      <trkpt lat="44.22018" lon="3.54978">
        <ele>702.76</ele>
        <time>2024-11-05T10:13:25.491Z</time>
      </trkpt>
      <trkpt lat="44.22025" lon="3.54978">
        <ele>702.75</ele>
        <time>2024-11-05T10:13:26.748Z</time>
      </trkpt>
      <trkpt lat="44.22033" lon="3.54981">
        <ele>702.83</ele>
        <time>2024-11-05T10:13:28.006Z</time>
      </trkpt>
      <trkpt lat="44.22064" lon="3.55015">
        <ele>703.79</ele>
        <time>2024-11-05T10:13:29.271Z</time>
      </trkpt>
      <trkpt lat="44.22079" lon="3.55041">
        <ele>704.33</ele>
        <time>2024-11-05T10:13:30.540Z</time>
      </trkpt>
      <trkpt lat="44.22085" lon="3.55048">
        <ele>704.47</ele>
        <time>2024-11-05T10:13:31.810Z</time>
      </trkpt>
      <trkpt lat="44.22095" lon="3.55055">
        <ele>704.63</ele>
        <time>2024-11-05T10:13:33.082Z</time>
      </trkpt>
      <trkpt lat="44.22137" lon="3.55102">
        <ele>705.1</ele>
        <time>2024-11-05T10:13:34.362Z</time>
      </trkpt>
      <trkpt lat="44.22144" lon="3.55116">
        <ele>705.26</ele>
        <time>2024-11-05T10:13:35.644Z</time>
      </trkpt>
      <trkpt lat="44.22148" lon="3.55132">
        <ele>705.32</ele>
        <time>2024-11-05T10:13:36.928Z</time>
      </trkpt>
      <trkpt lat="44.22146" lon="3.55193">
        <ele>705.06</ele>
        <time>2024-11-05T10:13:38.219Z</time>
      </trkpt>
      <trkpt lat="44.2215" lon="3.55222">
        <ele>704.61</ele>
        <time>2024-11-05T10:13:39.514Z</time>
      </trkpt>
      <trkpt lat="44.22163" lon="3.55268">
        <ele>703.22</ele>
        <time>2024-11-05T10:13:40.814Z</time>
      </trkpt>
      <trkpt lat="44.22175" lon="3.55312">
        <ele>700.9</ele>
        <time>2024-11-05T10:13:42.120Z</time>
      </trkpt>
      <trkpt lat="44.22181" lon="3.55325">
        <ele>700.06</ele>
        <time>2024-11-05T10:13:43.427Z</time>
      </trkpt>
      <trkpt lat="44.2219" lon="3.55339">
        <ele>699.1</ele>
        <time>2024-11-05T10:13:44.737Z</time>
      </trkpt>
      <trkpt lat="44.2223" lon="3.55378">
        <ele>695.97</ele>
        <time>2024-11-05T10:13:46.054Z</time>
      </trkpt>
      <trkpt lat="44.22244" lon="3.55392">
        <ele>695.47</ele>
        <time>2024-11-05T10:13:47.374Z</time>
      </trkpt>
      <trkpt lat="44.22257" lon="3.55418">
        <ele>695.14</ele>
        <time>2024-11-05T10:13:48.698Z</time>
      </trkpt>
      <trkpt lat="44.22266" lon="3.55435">
        <ele>695.08</ele>
        <time>2024-11-05T10:13:50.024Z</time>
      </trkpt>
      <trkpt lat="44.22273" lon="3.55468">
        <ele>694.95</ele>
        <time>2024-11-05T10:13:51.354Z</time>
      </trkpt>
      <trkpt lat="44.2228" lon="3.55498">
        <ele>694.43</ele>
        <time>2024-11-05T10:13:52.688Z</time>
      </trkpt>
      <trkpt lat="44.22286" lon="3.55528">
        <ele>693.31</ele>
        <time>2024-11-05T10:13:54.025Z</time>
      </trkpt>
      <trkpt lat="44.223" lon="3.55593">
        <ele>690.1</ele>
        <time>2024-11-05T10:13:55.370Z</time>
      </trkpt>
      <trkpt lat="44.22308" lon="3.55629">
        <ele>688.93</ele>
        <time>2024-11-05T10:13:56.720Z</time>
      </trkpt>
      <trkpt lat="44.22313" lon="3.55653">
        <ele>688.47</ele>
        <time>2024-11-05T10:13:58.072Z</time>
      </trkpt>
      <trkpt lat="44.22321" lon="3.55695">
        <ele>688.2</ele>
        <time>2024-11-05T10:13:59.429Z</time>
      </trkpt>
      <trkpt lat="44.22336" lon="3.55773">
        <ele>688.67</ele>
        <time>2024-11-05T10:14:00.796Z</time>
      </trkpt>
      <trkpt lat="44.22348" lon="3.55825">
        <ele>688.5</ele>
        <time>2024-11-05T10:14:02.169Z</time>
      </trkpt>
      <trkpt lat="44.22372" lon="3.55879">
        <ele>688.04</ele>
        <time>2024-11-05T10:14:03.549Z</time>
      </trkpt>
      <trkpt lat="44.22385" lon="3.55919">
        <ele>687.71</ele>
        <time>2024-11-05T10:14:04.934Z</time>
      </trkpt>
      <trkpt lat="44.22392" lon="3.55968">
        <ele>687.12</ele>
        <time>2024-11-05T10:14:06.325Z</time>
      </trkpt>
      <trkpt lat="44.22392" lon="3.55999">
        <ele>686.82</ele>
        <time>2024-11-05T10:14:07.720Z</time>
      </trkpt>
      <trkpt lat="44.22391" lon="3.56046">
        <ele>686.67</ele>
        <time>2024-11-05T10:14:09.120Z</time>
      </trkpt>
      <trkpt lat="44.22394" lon="3.56078">
        <ele>686.61</ele>
        <time>2024-11-05T10:14:10.524Z</time>
      </trkpt>
      <trkpt lat="44.22408" lon="3.56111">
        <ele>686.57</ele>
        <time>2024-11-05T10:14:11.932Z</time>
      </trkpt>
      <trkpt lat="44.22417" lon="3.56123">
        <ele>686.54</ele>
        <time>2024-11-05T10:14:13.342Z</time>
      </trkpt>
      <trkpt lat="44.22476" lon="3.56184">
        <ele>686.27</ele>
        <time>2024-11-05T10:14:14.764Z</time>
      </trkpt>
      <trkpt lat="44.22494" lon="3.56206">
        <ele>685.96</ele>
        <time>2024-11-05T10:14:16.190Z</time>
      </trkpt>
      <trkpt lat="44.22506" lon="3.56228">
        <ele>685.63</ele>
        <time>2024-11-05T10:14:17.619Z</time>
      </trkpt>
      <trkpt lat="44.22521" lon="3.56272">
        <ele>685</ele>
        <time>2024-11-05T10:14:19.054Z</time>
      </trkpt>
      <trkpt lat="44.22525" lon="3.56292">
        <ele>684.69</ele>
        <time>2024-11-05T10:14:20.491Z</time>
      </trkpt>
      <trkpt lat="44.22528" lon="3.56328">
        <ele>684.26</ele>
        <time>2024-11-05T10:14:21.932Z</time>
      </trkpt>
      <trkpt lat="44.2252" lon="3.56396">
        <ele>683.97</ele>
        <time>2024-11-05T10:14:23.381Z</time>
      </trkpt>
      <trkpt lat="44.2252" lon="3.56416">
        <ele>683.94</ele>
        <time>2024-11-05T10:14:24.832Z</time>
      </trkpt>
      <trkpt lat="44.22523" lon="3.56449">
        <ele>683.87</ele>
        <time>2024-11-05T10:14:26.287Z</time>
      </trkpt>
      <trkpt lat="44.22535" lon="3.56505">
        <ele>683.65</ele>
        <time>2024-11-05T10:14:27.749Z</time>
      </trkpt>
      <trkpt lat="44.22553" lon="3.56559">
        <ele>683.38</ele>
        <time>2024-11-05T10:14:29.218Z</time>
      </trkpt>
      <trkpt lat="44.22566" lon="3.56615">
        <ele>683.12</ele>
        <time>2024-11-05T10:14:30.693Z</time>
      </trkpt>
      <trkpt lat="44.2257" lon="3.56626">
        <ele>683.08</ele>
        <time>2024-11-05T10:14:32.170Z</time>
      </trkpt>
      <trkpt lat="44.22583" lon="3.56641">
        <ele>682.96</ele>
        <time>2024-11-05T10:14:33.650Z</time>
      </trkpt>
      <trkpt lat="44.22638" lon="3.56668">
        <ele>682.52</ele>
        <time>2024-11-05T10:14:35.139Z</time>
      </trkpt>
      <trkpt lat="44.22654" lon="3.56679">
        <ele>682.34</ele>
        <time>2024-11-05T10:14:36.631Z</time>
      </trkpt>
      <trkpt lat="44.2267" lon="3.56699">
        <ele>682.16</ele>
        <time>2024-11-05T10:14:38.126Z</time>
      </trkpt>
      <trkpt lat="44.22678" lon="3.56718">
        <ele>682.07</ele>
        <time>2024-11-05T10:14:39.624Z</time>
      </trkpt>
      <trkpt lat="44.22692" lon="3.56783">
        <ele>681.61</ele>
        <time>2024-11-05T10:14:41.130Z</time>
      </trkpt>
      <trkpt lat="44.22698" lon="3.56826">
        <ele>681.22</ele>
        <time>2024-11-05T10:14:42.641Z</time>
      </trkpt>
      <trkpt lat="44.22699" lon="3.56848">
        <ele>680.95</ele>
        <time>2024-11-05T10:14:44.154Z</time>
      </trkpt>
      <trkpt lat="44.22697" lon="3.5691">
        <ele>680.26</ele>
        <time>2024-11-05T10:14:45.674Z</time>
      </trkpt>
      <trkpt lat="44.227" lon="3.56947">
        <ele>679.78</ele>
        <time>2024-11-05T10:14:47.199Z</time>
      </trkpt>
      <trkpt lat="44.22704" lon="3.56984">
        <ele>679.23</ele>
        <time>2024-11-05T10:14:48.728Z</time>
      </trkpt>
      <trkpt lat="44.22715" lon="3.57022">
        <ele>678.59</ele>
        <time>2024-11-05T10:14:50.262Z</time>
      </trkpt>
      <trkpt lat="44.22732" lon="3.57056">
        <ele>677.98</ele>
        <time>2024-11-05T10:14:51.800Z</time>
      </trkpt>
      <trkpt lat="44.22774" lon="3.57117">
        <ele>676.41</ele>
        <time>2024-11-05T10:14:53.348Z</time>
      </trkpt>
      <trkpt lat="44.22785" lon="3.57139">
        <ele>675.83</ele>
        <time>2024-11-05T10:14:54.899Z</time>
      </trkpt>
      <trkpt lat="44.22804" lon="3.57212">
        <ele>674.19</ele>
        <time>2024-11-05T10:14:56.459Z</time>
      </trkpt>
      <trkpt lat="44.22819" lon="3.57248">
        <ele>673.34</ele>
        <time>2024-11-05T10:14:58.024Z</time>
      </trkpt>
      <trkpt lat="44.2284" lon="3.57285">
        <ele>672.45</ele>
        <time>2024-11-05T10:14:59.594Z</time>
      </trkpt>
      <trkpt lat="44.22871" lon="3.57324">
        <ele>671.29</ele>
        <time>2024-11-05T10:15:01.171Z</time>
      </trkpt>
      <trkpt lat="44.22893" lon="3.5736">
        <ele>670.47</ele>
        <time>2024-11-05T10:15:02.753Z</time>
      </trkpt>
      <trkpt lat="44.22905" lon="3.57402">
        <ele>670.07</ele>
        <time>2024-11-05T10:15:04.341Z</time>
      </trkpt>
      <trkpt lat="44.2291" lon="3.57441">
        <ele>669.85</ele>
        <time>2024-11-05T10:15:05.933Z</time>
      </trkpt>
      <trkpt lat="44.22909" lon="3.5746">
        <ele>669.82</ele>
        <time>2024-11-05T10:15:07.527Z</time>
      </trkpt>
      <trkpt lat="44.22906" lon="3.57474">
        <ele>669.86</ele>
        <time>2024-11-05T10:15:09.123Z</time>
      </trkpt>
      <trkpt lat="44.22892" lon="3.57497">
        <ele>670.12</ele>
        <time>2024-11-05T10:15:10.723Z</time>
      </trkpt>
      <trkpt lat="44.22868" lon="3.57515">
        <ele>670.72</ele>
        <time>2024-11-05T10:15:12.327Z</time>
      </trkpt>
      <trkpt lat="44.22857" lon="3.57528">
        <ele>670.93</ele>
        <time>2024-11-05T10:15:13.933Z</time>
      </trkpt>
      <trkpt lat="44.22848" lon="3.57544">
        <ele>670.9</ele>
        <time>2024-11-05T10:15:15.542Z</time>
      </trkpt>
      <trkpt lat="44.22842" lon="3.57572">
        <ele>670.46</ele>
        <time>2024-11-05T10:15:17.154Z</time>
      </trkpt>
      <trkpt lat="44.22839" lon="3.57584">
        <ele>670.15</ele>
        <time>2024-11-05T10:15:18.767Z</time>
      </trkpt>
      <trkpt lat="44.22838" lon="3.57608">
        <ele>669.33</ele>
        <time>2024-11-05T10:15:20.383Z</time>
      </trkpt>
      <trkpt lat="44.22842" lon="3.57646">
        <ele>668.11</ele>
        <time>2024-11-05T10:15:22.004Z</time>
      </trkpt>
      <trkpt lat="44.22846" lon="3.5766">
        <ele>667.6</ele>
        <time>2024-11-05T10:15:23.626Z</time>
      </trkpt>
      <trkpt lat="44.2286" lon="3.57683">
        <ele>666.45</ele>
        <time>2024-11-05T10:15:25.252Z</time>
      </trkpt>
      <trkpt lat="44.22882" lon="3.57698">
        <ele>665.26</ele>
        <time>2024-11-05T10:15:26.882Z</time>
      </trkpt>
      <trkpt lat="44.22892" lon="3.57701">
        <ele>664.96</ele>
        <time>2024-11-05T10:15:28.513Z</time>
      </trkpt>
      <trkpt lat="44.22901" lon="3.57703">
        <ele>664.8</ele>
        <time>2024-11-05T10:15:30.146Z</time>
      </trkpt>
      <trkpt lat="44.22918" lon="3.5771">
        <ele>665.04</ele>
        <time>2024-11-05T10:15:31.782Z</time>
      </trkpt>
      <trkpt lat="44.22931" lon="3.57712">
        <ele>665.24</ele>
        <time>2024-11-05T10:15:33.420Z</time>
      </trkpt>
      <trkpt lat="44.2294" lon="3.57711">
        <ele>665.38</ele>
        <time>2024-11-05T10:15:35.059Z</time>
      </trkpt>
      <trkpt lat="44.22955" lon="3.57705">
        <ele>665.59</ele>
        <time>2024-11-05T10:15:36.701Z</time>
      </trkpt>
      <trkpt lat="44.22995" lon="3.57688">
        <ele>664.96</ele>
        <time>2024-11-05T10:15:38.349Z</time>
      </trkpt>
      <trkpt lat="44.23028" lon="3.57676">
        <ele>664.31</ele>
        <time>2024-11-05T10:15:40.003Z</time>
      </trkpt>
      <trkpt lat="44.23042" lon="3.57671">
        <ele>664.21</ele>
        <time>2024-11-05T10:15:41.659Z</time>
      </trkpt>
      <trkpt lat="44.23054" lon="3.57668">
        <ele>664.28</ele>
        <time>2024-11-05T10:15:43.317Z</time>
      </trkpt>
      <trkpt lat="44.23079" lon="3.57663">
        <ele>664.74</ele>
        <time>2024-11-05T10:15:44.979Z</time>
      </trkpt>
      <trkpt lat="44.2309" lon="3.57662">
        <ele>665.03</ele>
        <time>2024-11-05T10:15:46.643Z</time>
      </trkpt>
      <trkpt lat="44.23121" lon="3.57663">
        <ele>666.2</ele>
        <time>2024-11-05T10:15:48.312Z</time>
      </trkpt>
      <trkpt lat="44.23173" lon="3.57679">
        <ele>668.46</ele>
        <time>2024-11-05T10:15:49.989Z</time>
      </trkpt>
      <trkpt lat="44.23208" lon="3.57701">
        <ele>669.76</ele>
        <time>2024-11-05T10:15:51.673Z</time>
      </trkpt>
      <trkpt lat="44.23224" lon="3.57718">
        <ele>670.4</ele>
        <time>2024-11-05T10:15:53.360Z</time>
      </trkpt>
      <trkpt lat="44.23238" lon="3.57743">
        <ele>670.71</ele>
        <time>2024-11-05T10:15:55.050Z</time>
      </trkpt>
      <trkpt lat="44.23246" lon="3.57758">
        <ele>670.59</ele>
        <time>2024-11-05T10:15:56.743Z</time>
      </trkpt>
      <trkpt lat="44.23254" lon="3.57773">
        <ele>670.2</ele>
        <time>2024-11-05T10:15:58.438Z</time>
      </trkpt>
      <trkpt lat="44.23262" lon="3.57788">
        <ele>669.71</ele>
        <time>2024-11-05T10:16:00.135Z</time>
      </trkpt>
      <trkpt lat="44.23297" lon="3.57871">
        <ele>667.54</ele>
        <time>2024-11-05T10:16:01.843Z</time>
      </trkpt>
      <trkpt lat="44.2331" lon="3.57885">
        <ele>667.08</ele>
        <time>2024-11-05T10:16:03.554Z</time>
      </trkpt>
      <trkpt lat="44.23319" lon="3.57892">
        <ele>666.8</ele>
        <time>2024-11-05T10:16:05.266Z</time>
      </trkpt>
      <trkpt lat="44.23328" lon="3.57895">
        <ele>666.53</ele>
        <time>2024-11-05T10:16:06.980Z</time>
      </trkpt>
      <trkpt lat="44.23336" lon="3.57895">
        <ele>666.29</ele>
        <time>2024-11-05T10:16:08.695Z</time>
      </trkpt>
      <trkpt lat="44.23343" lon="3.57892">
        <ele>666.07</ele>
        <time>2024-11-05T10:16:10.411Z</time>
      </trkpt>
      <trkpt lat="44.23353" lon="3.57883">
        <ele>665.74</ele>
        <time>2024-11-05T10:16:12.129Z</time>
      </trkpt>
      <trkpt lat="44.23361" lon="3.5787">
        <ele>665.4</ele>
        <time>2024-11-05T10:16:13.849Z</time>
      </trkpt>
      <trkpt lat="44.23371" lon="3.57845">
        <ele>665.11</ele>
        <time>2024-11-05T10:16:15.572Z</time>
      </trkpt>
      <trkpt lat="44.23375" lon="3.57829">
        <ele>664.96</ele>
        <time>2024-11-05T10:16:17.297Z</time>
      </trkpt>
      <trkpt lat="44.23381" lon="3.5779">
        <ele>664.23</ele>
        <time>2024-11-05T10:16:19.027Z</time>
      </trkpt>
      <trkpt lat="44.23392" lon="3.57741">
        <ele>663.35</ele>
        <time>2024-11-05T10:16:20.763Z</time>
      </trkpt>
      <trkpt lat="44.23404" lon="3.57707">
        <ele>662.48</ele>
        <time>2024-11-05T10:16:22.503Z</time>
      </trkpt>
      <trkpt lat="44.23415" lon="3.57686">
        <ele>661.76</ele>
        <time>2024-11-05T10:16:24.246Z</time>
      </trkpt>
      <trkpt lat="44.23438" lon="3.57654">
        <ele>660.44</ele>
        <time>2024-11-05T10:16:25.994Z</time>
      </trkpt>
      <trkpt lat="44.23445" lon="3.57644">
        <ele>660.09</ele>
        <time>2024-11-05T10:16:27.744Z</time>
      </trkpt>
      <trkpt lat="44.23463" lon="3.57625">
        <ele>659.4</ele>
        <time>2024-11-05T10:16:29.497Z</time>
      </trkpt>
      <trkpt lat="44.23498" lon="3.57595">
        <ele>658.36</ele>
        <time>2024-11-05T10:16:31.257Z</time>
      </trkpt>
      <trkpt lat="44.23522" lon="3.57579">
        <ele>657.8</ele>
        <time>2024-11-05T10:16:33.021Z</time>
      </trkpt>
      <trkpt lat="44.23568" lon="3.5756">
        <ele>656.75</ele>
        <time>2024-11-05T10:16:34.793Z</time>
      </trkpt>
      <trkpt lat="44.23591" lon="3.57556">
        <ele>656.15</ele>
        <time>2024-11-05T10:16:36.569Z</time>
      </trkpt>
      <trkpt lat="44.23649" lon="3.57573">
        <ele>654.23</ele>
        <time>2024-11-05T10:16:38.354Z</time>
      </trkpt>
      <trkpt lat="44.23664" lon="3.57576">
        <ele>653.91</ele>
        <time>2024-11-05T10:16:40.142Z</time>
      </trkpt>
      <trkpt lat="44.23672" lon="3.57576">
        <ele>653.82</ele>
        <time>2024-11-05T10:16:41.931Z</time>
      </trkpt>
      <trkpt lat="44.23697" lon="3.57567">
        <ele>653.74</ele>
        <time>2024-11-05T10:16:43.724Z</time>
      </trkpt>
      <trkpt lat="44.23707" lon="3.57567">
        <ele>653.74</ele>
        <time>2024-11-05T10:16:45.519Z</time>
      </trkpt>
      <trkpt lat="44.23716" lon="3.57577">
        <ele>653.73</ele>
        <time>2024-11-05T10:16:47.315Z</time>
      </trkpt>
      <trkpt lat="44.23718" lon="3.57583">
        <ele>653.7</ele>
        <time>2024-11-05T10:16:49.112Z</time>
      </trkpt>
      <trkpt lat="44.23719" lon="3.57593">
        <ele>653.67</ele>
        <time>2024-11-05T10:16:50.910Z</time>
      </trkpt>
      <trkpt lat="44.23718" lon="3.57617">
        <ele>653.48</ele>
        <time>2024-11-05T10:16:52.711Z</time>
      </trkpt>
      <trkpt lat="44.23741" lon="3.57679">
        <ele>651.86</ele>
        <time>2024-11-05T10:16:54.520Z</time>
      </trkpt>
      <trkpt lat="44.23749" lon="3.57692">
        <ele>651.42</ele>
        <time>2024-11-05T10:16:56.331Z</time>
      </trkpt>
      <trkpt lat="44.23778" lon="3.57723">
        <ele>650.09</ele>
        <time>2024-11-05T10:16:58.148Z</time>
      </trkpt>
      <trkpt lat="44.23805" lon="3.57751">
        <ele>649.09</ele>
        <time>2024-11-05T10:16:59.970Z</time>
      </trkpt>
      <trkpt lat="44.23817" lon="3.5777">
        <ele>648.49</ele>
        <time>2024-11-05T10:17:01.795Z</time>
      </trkpt>
      <trkpt lat="44.23822" lon="3.57784">
        <ele>648.12</ele>
        <time>2024-11-05T10:17:03.622Z</time>
      </trkpt>
      <trkpt lat="44.23825" lon="3.57801">
        <ele>647.78</ele>
        <time>2024-11-05T10:17:05.451Z</time>
      </trkpt>
      <trkpt lat="44.23828" lon="3.5782">
        <ele>647.62</ele>
        <time>2024-11-05T10:17:07.282Z</time>
      </trkpt>
      <trkpt lat="44.2383" lon="3.57832">
        <ele>647.72</ele>
        <time>2024-11-05T10:17:09.115Z</time>
      </trkpt>
      <trkpt lat="44.23834" lon="3.57864">
        <ele>648.62</ele>
        <time>2024-11-05T10:17:10.952Z</time>
      </trkpt>
      <trkpt lat="44.23845" lon="3.57915">
        <ele>650.84</ele>
        <time>2024-11-05T10:17:12.795Z</time>
      </trkpt>
      <trkpt lat="44.2385" lon="3.57926">
        <ele>651.35</ele>
        <time>2024-11-05T10:17:14.639Z</time>
      </trkpt>
      <trkpt lat="44.23854" lon="3.57931">
        <ele>651.67</ele>
        <time>2024-11-05T10:17:16.484Z</time>
      </trkpt>
      <trkpt lat="44.23871" lon="3.57946">
        <ele>652.73</ele>
        <time>2024-11-05T10:17:18.332Z</time>
      </trkpt>
      <trkpt lat="44.23891" lon="3.57956">
        <ele>653.61</ele>
        <time>2024-11-05T10:17:20.184Z</time>
      </trkpt>
      <trkpt lat="44.23903" lon="3.57957">
        <ele>654.06</ele>
        <time>2024-11-05T10:17:22.038Z</time>
      </trkpt>
      <trkpt lat="44.23912" lon="3.57955">
        <ele>654.39</ele>
        <time>2024-11-05T10:17:23.893Z</time>
      </trkpt>
      <trkpt lat="44.23929" lon="3.57944">
        <ele>655.19</ele>
        <time>2024-11-05T10:17:25.751Z</time>
      </trkpt>
      <trkpt lat="44.23938" lon="3.57927">
        <ele>655.74</ele>
        <time>2024-11-05T10:17:27.611Z</time>
      </trkpt>
      <trkpt lat="44.23941" lon="3.57915">
        <ele>656.08</ele>
        <time>2024-11-05T10:17:29.473Z</time>
      </trkpt>
      <trkpt lat="44.23942" lon="3.57884">
        <ele>656.75</ele>
        <time>2024-11-05T10:17:31.338Z</time>
      </trkpt>
      <trkpt lat="44.23945" lon="3.57869">
        <ele>657.04</ele>
        <time>2024-11-05T10:17:33.205Z</time>
      </trkpt>
      <trkpt lat="44.23955" lon="3.57855">
        <ele>657.28</ele>
        <time>2024-11-05T10:17:35.075Z</time>
      </trkpt>
      <trkpt lat="44.23979" lon="3.57837">
        <ele>657.72</ele>
        <time>2024-11-05T10:17:36.949Z</time>
      </trkpt>
      <trkpt lat="44.24" lon="3.57832">
        <ele>658.04</ele>
        <time>2024-11-05T10:17:38.826Z</time>
      </trkpt>
      <trkpt lat="44.24033" lon="3.5783">
        <ele>658.55</ele>
        <time>2024-11-05T10:17:40.708Z</time>
      </trkpt>
      <trkpt lat="44.24056" lon="3.57828">
        <ele>658.72</ele>
        <time>2024-11-05T10:17:42.594Z</time>
      </trkpt>
      <trkpt lat="44.24084" lon="3.57832">
        <ele>658.87</ele>
        <time>2024-11-05T10:17:44.485Z</time>
      </trkpt>
      <trkpt lat="44.24093" lon="3.57837">
        <ele>658.92</ele>
        <time>2024-11-05T10:17:46.377Z</time>
      </trkpt>
      <trkpt lat="44.24102" lon="3.57848">
        <ele>658.99</ele>
        <time>2024-11-05T10:17:48.271Z</time>
      </trkpt>
      <trkpt lat="44.24117" lon="3.5788">
        <ele>659.27</ele>
        <time>2024-11-05T10:17:50.170Z</time>
      </trkpt>
      <trkpt lat="44.24155" lon="3.57932">
        <ele>659.92</ele>
        <time>2024-11-05T10:17:52.077Z</time>
      </trkpt>
      <trkpt lat="44.24195" lon="3.57969">
        <ele>660.63</ele>
        <time>2024-11-05T10:17:53.992Z</time>
      </trkpt>
      <trkpt lat="44.24229" lon="3.58004">
        <ele>661.09</ele>
        <time>2024-11-05T10:17:55.914Z</time>
      </trkpt>
      <trkpt lat="44.24253" lon="3.58016">
        <ele>660.87</ele>
        <time>2024-11-05T10:17:57.840Z</time>
      </trkpt>
      <trkpt lat="44.24262" lon="3.58022">
        <ele>660.78</ele>
        <time>2024-11-05T10:17:59.767Z</time>
      </trkpt>
      <trkpt lat="44.2427" lon="3.5803">
        <ele>660.73</ele>
        <time>2024-11-05T10:18:01.696Z</time>
      </trkpt>
      <trkpt lat="44.24274" lon="3.58038">
        <ele>660.71</ele>
        <time>2024-11-05T10:18:03.626Z</time>
      </trkpt>
      <trkpt lat="44.24278" lon="3.58058">
        <ele>660.65</ele>
        <time>2024-11-05T10:18:05.558Z</time>
      </trkpt>
      <trkpt lat="44.24278" lon="3.5807">
        <ele>660.61</ele>
        <time>2024-11-05T10:18:07.492Z</time>
      </trkpt>
      <trkpt lat="44.24261" lon="3.58163">
        <ele>660.04</ele>
        <time>2024-11-05T10:18:09.437Z</time>
      </trkpt>
      <trkpt lat="44.24262" lon="3.5817">
        <ele>660.02</ele>
        <time>2024-11-05T10:18:11.383Z</time>
      </trkpt>
      <trkpt lat="44.24267" lon="3.58183">
        <ele>659.98</ele>
        <time>2024-11-05T10:18:13.330Z</time>
      </trkpt>
      <trkpt lat="44.24281" lon="3.58193">
        <ele>659.85</ele>
        <time>2024-11-05T10:18:15.280Z</time>
      </trkpt>
      <trkpt lat="44.24297" lon="3.58199">
        <ele>659.55</ele>
        <time>2024-11-05T10:18:17.232Z</time>
      </trkpt>
      <trkpt lat="44.24342" lon="3.58215">
        <ele>658</ele>
        <time>2024-11-05T10:18:19.192Z</time>
      </trkpt>
      <trkpt lat="44.24385" lon="3.58239">
        <ele>656.79</ele>
        <time>2024-11-05T10:18:21.159Z</time>
      </trkpt>
      <trkpt lat="44.24409" lon="3.58264">
        <ele>655.61</ele>
        <time>2024-11-05T10:18:23.131Z</time>
      </trkpt>
      <trkpt lat="44.24439" lon="3.58278">
        <ele>654.12</ele>
        <time>2024-11-05T10:18:25.108Z</time>
      </trkpt>
      <trkpt lat="44.24455" lon="3.58291">
        <ele>653.13</ele>
        <time>2024-11-05T10:18:27.088Z</time>
      </trkpt>
      <trkpt lat="44.24474" lon="3.5831">
        <ele>651.98</ele>
        <time>2024-11-05T10:18:29.072Z</time>
      </trkpt>
      <trkpt lat="44.24483" lon="3.58329">
        <ele>651.24</ele>
        <time>2024-11-05T10:18:31.059Z</time>
      </trkpt>
      <trkpt lat="44.24492" lon="3.58343">
        <ele>650.67</ele>
        <time>2024-11-05T10:18:33.048Z</time>
      </trkpt>
      <trkpt lat="44.24514" lon="3.58359">
        <ele>649.82</ele>
        <time>2024-11-05T10:18:35.041Z</time>
      </trkpt>
      <trkpt lat="44.2455" lon="3.58388">
        <ele>648.87</ele>
        <time>2024-11-05T10:18:37.040Z</time>
      </trkpt>
      <trkpt lat="44.24557" lon="3.58391">
        <ele>648.72</ele>
        <time>2024-11-05T10:18:39.040Z</time>
      </trkpt>
      <trkpt lat="44.24571" lon="3.58389">
        <ele>648.47</ele>
        <time>2024-11-05T10:18:41.043Z</time>
      </trkpt>
      <trkpt lat="44.24582" lon="3.58378">
        <ele>648.27</ele>
        <time>2024-11-05T10:18:43.048Z</time>
      </trkpt>
      <trkpt lat="44.24596" lon="3.58358">
        <ele>647.86</ele>
        <time>2024-11-05T10:18:45.056Z</time>
      </trkpt>
      <trkpt lat="44.24638" lon="3.58257">
        <ele>645.75</ele>
        <time>2024-11-05T10:18:47.077Z</time>
      </trkpt>
      <trkpt lat="44.24689" lon="3.58134">
        <ele>643.75</ele>
        <time>2024-11-05T10:18:49.115Z</time>
      </trkpt>
      <trkpt lat="44.24709" lon="3.58094">
        <ele>643.15</ele>
        <time>2024-11-05T10:18:51.158Z</time>
      </trkpt>
      <trkpt lat="44.24727" lon="3.58071">
        <ele>642.82</ele>
        <time>2024-11-05T10:18:53.205Z</time>
      </trkpt>
      <trkpt lat="44.24789" lon="3.57998">
        <ele>641.22</ele>
        <time>2024-11-05T10:18:55.265Z</time>
      </trkpt>
      <trkpt lat="44.24807" lon="3.57982">
        <ele>640.97</ele>
        <time>2024-11-05T10:18:57.329Z</time>
      </trkpt>
      <trkpt lat="44.24834" lon="3.57979">
        <ele>640.06</ele>
        <time>2024-11-05T10:18:59.397Z</time>
      </trkpt>
      <trkpt lat="44.24886" lon="3.5798">
        <ele>639.07</ele>
        <time>2024-11-05T10:19:01.473Z</time>
      </trkpt>
      <trkpt lat="44.24912" lon="3.57978">
        <ele>638.61</ele>
        <time>2024-11-05T10:19:03.554Z</time>
      </trkpt>
      <trkpt lat="44.2494" lon="3.57968">
        <ele>638.1</ele>
        <time>2024-11-05T10:19:05.639Z</time>
      </trkpt>
      <trkpt lat="44.24956" lon="3.57956">
        <ele>637.92</ele>
        <time>2024-11-05T10:19:07.727Z</time>
      </trkpt>
      <trkpt lat="44.24987" lon="3.57937">
        <ele>637.68</ele>
        <time>2024-11-05T10:19:09.821Z</time>
      </trkpt>
      <trkpt lat="44.25009" lon="3.57935">
        <ele>637.5</ele>
        <time>2024-11-05T10:19:11.918Z</time>
      </trkpt>
      <trkpt lat="44.2503" lon="3.57941">
        <ele>637.19</ele>
        <time>2024-11-05T10:19:14.019Z</time>
      </trkpt>
      <trkpt lat="44.25044" lon="3.57952">
        <ele>636.67</ele>
        <time>2024-11-05T10:19:16.122Z</time>
      </trkpt>
      <trkpt lat="44.25055" lon="3.57966">
        <ele>635.98</ele>
        <time>2024-11-05T10:19:18.227Z</time>
      </trkpt>
      <trkpt lat="44.25075" lon="3.58013">
        <ele>633.56</ele>
        <time>2024-11-05T10:19:20.339Z</time>
      </trkpt>
      <trkpt lat="44.2509" lon="3.58035">
        <ele>632.28</ele>
        <time>2024-11-05T10:19:22.454Z</time>
      </trkpt>
      <trkpt lat="44.25101" lon="3.58047">
        <ele>631.57</ele>
        <time>2024-11-05T10:19:24.571Z</time>
      </trkpt>
      <trkpt lat="44.25146" lon="3.58087">
        <ele>629.15</ele>
        <time>2024-11-05T10:19:26.697Z</time>
      </trkpt>
      <trkpt lat="44.25193" lon="3.58135">
        <ele>626.14</ele>
        <time>2024-11-05T10:19:28.832Z</time>
      </trkpt>
      <trkpt lat="44.25242" lon="3.58199">
        <ele>623.38</ele>
        <time>2024-11-05T10:19:30.978Z</time>
      </trkpt>
      <trkpt lat="44.25261" lon="3.58225">
        <ele>622.5</ele>
        <time>2024-11-05T10:19:33.128Z</time>
      </trkpt>
      <trkpt lat="44.25281" lon="3.5825">
        <ele>621.83</ele>
        <time>2024-11-05T10:19:35.283Z</time>
      </trkpt>
      <trkpt lat="44.25302" lon="3.58282">
        <ele>621.55</ele>
        <time>2024-11-05T10:19:37.443Z</time>
      </trkpt>
      <trkpt lat="44.25327" lon="3.5832">
        <ele>621.61</ele>
        <time>2024-11-05T10:19:39.609Z</time>
      </trkpt>
      <trkpt lat="44.25341" lon="3.58333">
        <ele>621.89</ele>
        <time>2024-11-05T10:19:41.777Z</time>
      </trkpt>
      <trkpt lat="44.25353" lon="3.58344">
        <ele>622.38</ele>
        <time>2024-11-05T10:19:43.948Z</time>
      </trkpt>
      <trkpt lat="44.2538" lon="3.58361">
        <ele>623.62</ele>
        <time>2024-11-05T10:19:46.123Z</time>
      </trkpt>
      <trkpt lat="44.25402" lon="3.58366">
        <ele>624.7</ele>
        <time>2024-11-05T10:19:48.302Z</time>
      </trkpt>
      <trkpt lat="44.25407" lon="3.58372">
        <ele>624.64</ele>
        <time>2024-11-05T10:19:50.482Z</time>
      </trkpt>
      <trkpt lat="44.25456" lon="3.58385">
        <ele>623.8</ele>
        <time>2024-11-05T10:19:52.670Z</time>
      </trkpt>
      <trkpt lat="44.25478" lon="3.58398">
        <ele>623.65</ele>
        <time>2024-11-05T10:19:54.862Z</time>
      </trkpt>
      <trkpt lat="44.25486" lon="3.58409">
        <ele>623.64</ele>
        <time>2024-11-05T10:19:57.056Z</time>
      </trkpt>
      <trkpt lat="44.25473" lon="3.58446">
        <ele>623.63</ele>
        <time>2024-11-05T10:19:59.254Z</time>
      </trkpt>
      <trkpt lat="44.25472" lon="3.58457">
        <ele>623.68</ele>
        <time>2024-11-05T10:20:01.454Z</time>
      </trkpt>
      <trkpt lat="44.2547" lon="3.58474">
        <ele>624.05</ele>
        <time>2024-11-05T10:20:03.656Z</time>
      </trkpt>
      <trkpt lat="44.25468" lon="3.58503">
        <ele>625.27</ele>
        <time>2024-11-05T10:20:05.861Z</time>
      </trkpt>
      <trkpt lat="44.25467" lon="3.58509">
        <ele>625.29</ele>
        <time>2024-11-05T10:20:08.067Z</time>
      </trkpt>
      <trkpt lat="44.25488" lon="3.58518">
        <ele>627.21</ele>
        <time>2024-11-05T10:20:10.276Z</time>
      </trkpt>
      <trkpt lat="44.25507" lon="3.58525">
        <ele>629.55</ele>
        <time>2024-11-05T10:20:12.488Z</time>
      </trkpt>
      <trkpt lat="44.25517" lon="3.58533">
        <ele>630.9</ele>
        <time>2024-11-05T10:20:14.702Z</time>
      </trkpt>
      <trkpt lat="44.25535" lon="3.58546">
        <ele>632.73</ele>
        <time>2024-11-05T10:20:16.919Z</time>
      </trkpt>
      <trkpt lat="44.25586" lon="3.58592">
        <ele>638.25</ele>
        <time>2024-11-05T10:20:19.146Z</time>
      </trkpt>
      <trkpt lat="44.25622" lon="3.58649">
        <ele>644.92</ele>
        <time>2024-11-05T10:20:21.382Z</time>
      </trkpt>
      <trkpt lat="44.25621" lon="3.58655">
        <ele>645.5</ele>
        <time>2024-11-05T10:20:23.618Z</time>
      </trkpt>
      <trkpt lat="44.25617" lon="3.58657">
        <ele>646.05</ele>
        <time>2024-11-05T10:20:25.855Z</time>
      </trkpt>
      <trkpt lat="44.25609" lon="3.58655">
        <ele>647.11</ele>
        <time>2024-11-05T10:20:28.093Z</time>
      </trkpt>
      <trkpt lat="44.25588" lon="3.58638">
        <ele>650.15</ele>
        <time>2024-11-05T10:20:30.335Z</time>
      </trkpt>
      <trkpt lat="44.25577" lon="3.58633">
        <ele>651.42</ele>
        <time>2024-11-05T10:20:32.579Z</time>
      </trkpt>
      <trkpt lat="44.25548" lon="3.58619">
        <ele>654.4</ele>
        <time>2024-11-05T10:20:34.828Z</time>
      </trkpt>
      <trkpt lat="44.25518" lon="3.58605">
        <ele>657.14</ele>
        <time>2024-11-05T10:20:37.082Z</time>
      </trkpt>
      <trkpt lat="44.25507" lon="3.58604">
        <ele>658.1</ele>
        <time>2024-11-05T10:20:39.338Z</time>
      </trkpt>
      <trkpt lat="44.25497" lon="3.58606">
        <ele>658.91</ele>
        <time>2024-11-05T10:20:41.596Z</time>
      </trkpt>
      <trkpt lat="44.25452" lon="3.58633">
        <ele>662.63</ele>
        <time>2024-11-05T10:20:43.861Z</time>
      </trkpt>
      <trkpt lat="44.25445" lon="3.58635">
        <ele>663.31</ele>
        <time>2024-11-05T10:20:46.128Z</time>
      </trkpt>
      <trkpt lat="44.25412" lon="3.58633">
        <ele>665.97</ele>
        <time>2024-11-05T10:20:48.400Z</time>
      </trkpt>
      <trkpt lat="44.25378" lon="3.5862">
        <ele>668.42</ele>
        <time>2024-11-05T10:20:50.677Z</time>
      </trkpt>
      <trkpt lat="44.25353" lon="3.5862">
        <ele>670.12</ele>
        <time>2024-11-05T10:20:52.958Z</time>
      </trkpt>
      <trkpt lat="44.25328" lon="3.58623">
        <ele>672.16</ele>
        <time>2024-11-05T10:20:55.243Z</time>
      </trkpt>
      <trkpt lat="44.25293" lon="3.5862">
        <ele>675.3</ele>
        <time>2024-11-05T10:20:57.534Z</time>
      </trkpt>
      <trkpt lat="44.25244" lon="3.58615">
        <ele>679.04</ele>
        <time>2024-11-05T10:20:59.833Z</time>
      </trkpt>
      <trkpt lat="44.25227" lon="3.5861">
        <ele>680.76</ele>
        <time>2024-11-05T10:21:02.135Z</time>
      </trkpt>
      <trkpt lat="44.25196" lon="3.58601">
        <ele>684.29</ele>
        <time>2024-11-05T10:21:04.442Z</time>
      </trkpt>
      <trkpt lat="44.25187" lon="3.58598">
        <ele>685.14</ele>
        <time>2024-11-05T10:21:06.750Z</time>
      </trkpt>
      <trkpt lat="44.25152" lon="3.58601">
        <ele>688.61</ele>
        <time>2024-11-05T10:21:09.064Z</time>
      </trkpt>
      <trkpt lat="44.2514" lon="3.58602">
        <ele>689.98</ele>
        <time>2024-11-05T10:21:11.380Z</time>
      </trkpt>
      <trkpt lat="44.25116" lon="3.58599">
        <ele>692.7</ele>
        <time>2024-11-05T10:21:13.700Z</time>
      </trkpt>
      <trkpt lat="44.25098" lon="3.58588">
        <ele>694.67</ele>
        <time>2024-11-05T10:21:16.023Z</time>
      </trkpt>
      <trkpt lat="44.25059" lon="3.58552">
        <ele>698.83</ele>
        <time>2024-11-05T10:21:18.353Z</time>
      </trkpt>
      <trkpt lat="44.25039" lon="3.58544">
        <ele>701.06</ele>
        <time>2024-11-05T10:21:20.687Z</time>
      </trkpt>
      <trkpt lat="44.25019" lon="3.58548">
        <ele>703.3</ele>
        <time>2024-11-05T10:21:23.024Z</time>
      </trkpt>
      <trkpt lat="44.24976" lon="3.58569">
        <ele>708.2</ele>
        <time>2024-11-05T10:21:25.368Z</time>
      </trkpt>
      <trkpt lat="44.24958" lon="3.58573">
        <ele>709.97</ele>
        <time>2024-11-05T10:21:27.715Z</time>
      </trkpt>
      <trkpt lat="44.24954" lon="3.58578">
        <ele>710.49</ele>
        <time>2024-11-05T10:21:30.063Z</time>
      </trkpt>
      <trkpt lat="44.24954" lon="3.58585">
        <ele>710.97</ele>
        <time>2024-11-05T10:21:32.412Z</time>
      </trkpt>
      <trkpt lat="44.24961" lon="3.58591">
        <ele>711.71</ele>
        <time>2024-11-05T10:21:34.762Z</time>
      </trkpt>
      <trkpt lat="44.24973" lon="3.5859">
        <ele>712.61</ele>
        <time>2024-11-05T10:21:37.114Z</time>
      </trkpt>
      <trkpt lat="44.24991" lon="3.58595">
        <ele>713.92</ele>
        <time>2024-11-05T10:21:39.469Z</time>
      </trkpt>
      <trkpt lat="44.25009" lon="3.58608">
        <ele>715.53</ele>
        <time>2024-11-05T10:21:41.827Z</time>
      </trkpt>
      <trkpt lat="44.25036" lon="3.58634">
        <ele>718.21</ele>
        <time>2024-11-05T10:21:44.190Z</time>
      </trkpt>
      <trkpt lat="44.25091" lon="3.58687">
        <ele>724.3</ele>
        <time>2024-11-05T10:21:46.564Z</time>
      </trkpt>
      <trkpt lat="44.25107" lon="3.587">
        <ele>725.77</ele>
        <time>2024-11-05T10:21:48.941Z</time>
      </trkpt>
      <trkpt lat="44.25127" lon="3.58708">
        <ele>727.41</ele>
        <time>2024-11-05T10:21:51.321Z</time>
      </trkpt>
      <trkpt lat="44.25151" lon="3.58713">
        <ele>729.27</ele>
        <time>2024-11-05T10:21:53.705Z</time>
      </trkpt>
      <trkpt lat="44.25172" lon="3.58713">
        <ele>731.07</ele>
        <time>2024-11-05T10:21:56.093Z</time>
      </trkpt>
      <trkpt lat="44.25175" lon="3.58716">
        <ele>731.41</ele>
        <time>2024-11-05T10:21:58.481Z</time>
      </trkpt>
      <trkpt lat="44.25174" lon="3.58724">
        <ele>731.93</ele>
        <time>2024-11-05T10:22:00.870Z</time>
      </trkpt>
      <trkpt lat="44.25168" lon="3.58726">
        <ele>732.36</ele>
        <time>2024-11-05T10:22:03.260Z</time>
      </trkpt>
      <trkpt lat="44.2515" lon="3.58726">
        <ele>733.52</ele>
        <time>2024-11-05T10:22:05.653Z</time>
      </trkpt>
      <trkpt lat="44.25119" lon="3.58733">
        <ele>735.69</ele>
        <time>2024-11-05T10:22:08.051Z</time>
      </trkpt>
      <trkpt lat="44.25096" lon="3.58736">
        <ele>737.44</ele>
        <time>2024-11-05T10:22:10.453Z</time>
      </trkpt>
      <trkpt lat="44.25054" lon="3.58727">
        <ele>740.73</ele>
        <time>2024-11-05T10:22:12.862Z</time>
      </trkpt>
      <trkpt lat="44.25028" lon="3.58719">
        <ele>743.2</ele>
        <time>2024-11-05T10:22:15.275Z</time>
      </trkpt>
      <trkpt lat="44.24986" lon="3.58707">
        <ele>747.9</ele>
        <time>2024-11-05T10:22:17.695Z</time>
      </trkpt>
      <trkpt lat="44.24967" lon="3.58704">
        <ele>750.01</ele>
        <time>2024-11-05T10:22:20.118Z</time>
      </trkpt>
      <trkpt lat="44.24963" lon="3.5871">
        <ele>750.57</ele>
        <time>2024-11-05T10:22:22.542Z</time>
      </trkpt>
      <trkpt lat="44.24966" lon="3.58717">
        <ele>751.05</ele>
        <time>2024-11-05T10:22:24.967Z</time>
      </trkpt>
      <trkpt lat="44.24986" lon="3.58725">
        <ele>752.22</ele>
        <time>2024-11-05T10:22:27.395Z</time>
      </trkpt>
      <trkpt lat="44.25001" lon="3.5874">
        <ele>753.28</ele>
        <time>2024-11-05T10:22:29.826Z</time>
      </trkpt>
      <trkpt lat="44.25036" lon="3.58776">
        <ele>756.58</ele>
        <time>2024-11-05T10:22:32.264Z</time>
      </trkpt>
      <trkpt lat="44.25064" lon="3.588">
        <ele>759.26</ele>
        <time>2024-11-05T10:22:34.707Z</time>
      </trkpt>
      <trkpt lat="44.2512" lon="3.58839">
        <ele>765.87</ele>
        <time>2024-11-05T10:22:37.160Z</time>
      </trkpt>
      <trkpt lat="44.25143" lon="3.58854">
        <ele>768.84</ele>
        <time>2024-11-05T10:22:39.617Z</time>
      </trkpt>
      <trkpt lat="44.25158" lon="3.58867">
        <ele>770.97</ele>
        <time>2024-11-05T10:22:42.077Z</time>
      </trkpt>
      <trkpt lat="44.25163" lon="3.58878">
        <ele>772.16</ele>
        <time>2024-11-05T10:22:44.539Z</time>
      </trkpt>
      <trkpt lat="44.25162" lon="3.58891">
        <ele>773.37</ele>
        <time>2024-11-05T10:22:47.002Z</time>
      </trkpt>
      <trkpt lat="44.25157" lon="3.58907">
        <ele>774.98</ele>
        <time>2024-11-05T10:22:49.467Z</time>
      </trkpt>
      <trkpt lat="44.25144" lon="3.58912">
        <ele>776.77</ele>
        <time>2024-11-05T10:22:51.934Z</time>
      </trkpt>
      <trkpt lat="44.25127" lon="3.5891">
        <ele>779.1</ele>
        <time>2024-11-05T10:22:54.404Z</time>
      </trkpt>
      <trkpt lat="44.25109" lon="3.58904">
        <ele>781.2</ele>
        <time>2024-11-05T10:22:56.877Z</time>
      </trkpt>
      <trkpt lat="44.25079" lon="3.58905">
        <ele>783.74</ele>
        <time>2024-11-05T10:22:59.355Z</time>
      </trkpt>
      <trkpt lat="44.25062" lon="3.58909">
        <ele>785.29</ele>
        <time>2024-11-05T10:23:01.836Z</time>
      </trkpt>
      <trkpt lat="44.25011" lon="3.5892">
        <ele>790.47</ele>
        <time>2024-11-05T10:23:04.325Z</time>
      </trkpt>
      <trkpt lat="44.24986" lon="3.58928">
        <ele>793.01</ele>
        <time>2024-11-05T10:23:06.818Z</time>
      </trkpt>
      <trkpt lat="44.24976" lon="3.58937">
        <ele>794.36</ele>
        <time>2024-11-05T10:23:09.313Z</time>
      </trkpt>
      <trkpt lat="44.24969" lon="3.5895">
        <ele>795.61</ele>
        <time>2024-11-05T10:23:11.810Z</time>
      </trkpt>
      <trkpt lat="44.24962" lon="3.58971">
        <ele>797.21</ele>
        <time>2024-11-05T10:23:14.309Z</time>
      </trkpt>
      <trkpt lat="44.24956" lon="3.58988">
        <ele>798.28</ele>
        <time>2024-11-05T10:23:16.810Z</time>
      </trkpt>
      <trkpt lat="44.24937" lon="3.59029">
        <ele>800.63</ele>
        <time>2024-11-05T10:23:19.317Z</time>
      </trkpt>
      <trkpt lat="44.24924" lon="3.59055">
        <ele>802.45</ele>
        <time>2024-11-05T10:23:21.828Z</time>
      </trkpt>
      <trkpt lat="44.24883" lon="3.5913">
        <ele>808.84</ele>
        <time>2024-11-05T10:23:24.350Z</time>
      </trkpt>
      <trkpt lat="44.24867" lon="3.59158">
        <ele>811</ele>
        <time>2024-11-05T10:23:26.876Z</time>
      </trkpt>
      <trkpt lat="44.24853" lon="3.592">
        <ele>813.41</ele>
        <time>2024-11-05T10:23:29.407Z</time>
      </trkpt>
      <trkpt lat="44.24842" lon="3.59247">
        <ele>815.81</ele>
        <time>2024-11-05T10:23:31.944Z</time>
      </trkpt>
      <trkpt lat="44.24831" lon="3.59295">
        <ele>817.98</ele>
        <time>2024-11-05T10:23:34.486Z</time>
      </trkpt>
      <trkpt lat="44.24818" lon="3.59343">
        <ele>820.83</ele>
        <time>2024-11-05T10:23:37.034Z</time>
      </trkpt>
      <trkpt lat="44.2481" lon="3.59357">
        <ele>822.07</ele>
        <time>2024-11-05T10:23:39.584Z</time>
      </trkpt>
      <trkpt lat="44.248" lon="3.59375">
        <ele>824.23</ele>
        <time>2024-11-05T10:23:42.137Z</time>
      </trkpt>
      <trkpt lat="44.24782" lon="3.59397">
        <ele>827.45</ele>
        <time>2024-11-05T10:23:44.694Z</time>
      </trkpt>
      <trkpt lat="44.24769" lon="3.59414">
        <ele>829.59</ele>
        <time>2024-11-05T10:23:47.254Z</time>
      </trkpt>
      <trkpt lat="44.2474" lon="3.59443">
        <ele>833.98</ele>
        <time>2024-11-05T10:23:49.819Z</time>
      </trkpt>
      <trkpt lat="44.24718" lon="3.59464">
        <ele>837.5</ele>
        <time>2024-11-05T10:23:52.389Z</time>
      </trkpt>
      <trkpt lat="44.24686" lon="3.59482">
        <ele>841.28</ele>
        <time>2024-11-05T10:23:54.964Z</time>
      </trkpt>
      <trkpt lat="44.24664" lon="3.59475">
        <ele>843.61</ele>
        <time>2024-11-05T10:23:57.543Z</time>
      </trkpt>
      <trkpt lat="44.24649" lon="3.59477">
        <ele>845.15</ele>
        <time>2024-11-05T10:24:00.124Z</time>
      </trkpt>
      <trkpt lat="44.24633" lon="3.59484">
        <ele>846.77</ele>
        <time>2024-11-05T10:24:02.708Z</time>
      </trkpt>
      <trkpt lat="44.24618" lon="3.59506">
        <ele>848.73</ele>
        <time>2024-11-05T10:24:05.295Z</time>
      </trkpt>
      <trkpt lat="44.24613" lon="3.5952">
        <ele>849.59</ele>
        <time>2024-11-05T10:24:07.884Z</time>
      </trkpt>
      <trkpt lat="44.24596" lon="3.59571">
        <ele>851.39</ele>
        <time>2024-11-05T10:24:10.480Z</time>
      </trkpt>
      <trkpt lat="44.24575" lon="3.59619">
        <ele>853.18</ele>
        <time>2024-11-05T10:24:13.082Z</time>
      </trkpt>
      <trkpt lat="44.24562" lon="3.59674">
        <ele>855.57</ele>
        <time>2024-11-05T10:24:15.691Z</time>
      </trkpt>
      <trkpt lat="44.2455" lon="3.59767">
        <ele>858.39</ele>
        <time>2024-11-05T10:24:18.311Z</time>
      </trkpt>
      <trkpt lat="44.24537" lon="3.59834">
        <ele>860.49</ele>
        <time>2024-11-05T10:24:20.939Z</time>
      </trkpt>
      <trkpt lat="44.24527" lon="3.59912">
        <ele>863</ele>
        <time>2024-11-05T10:24:23.576Z</time>
      </trkpt>
      <trkpt lat="44.2453" lon="3.59976">
        <ele>865.46</ele>
        <time>2024-11-05T10:24:26.220Z</time>
      </trkpt>
      <trkpt lat="44.24529" lon="3.60002">
        <ele>866.4</ele>
        <time>2024-11-05T10:24:28.867Z</time>
      </trkpt>
      <trkpt lat="44.24518" lon="3.60102">
        <ele>870.55</ele>
        <time>2024-11-05T10:24:31.526Z</time>
      </trkpt>
      <trkpt lat="44.2452" lon="3.6013">
        <ele>871.64</ele>
        <time>2024-11-05T10:24:34.188Z</time>
      </trkpt>
      <trkpt lat="44.24527" lon="3.60148">
        <ele>872.43</ele>
        <time>2024-11-05T10:24:36.852Z</time>
      </trkpt>
      <trkpt lat="44.24546" lon="3.60187">
        <ele>874.51</ele>
        <time>2024-11-05T10:24:39.522Z</time>
      </trkpt>
      <trkpt lat="44.24576" lon="3.60249">
        <ele>878.8</ele>
        <time>2024-11-05T10:24:42.200Z</time>
      </trkpt>
      <trkpt lat="44.24587" lon="3.60286">
        <ele>880.66</ele>
        <time>2024-11-05T10:24:44.883Z</time>
      </trkpt>
      <trkpt lat="44.24592" lon="3.60313">
        <ele>881.79</ele>
        <time>2024-11-05T10:24:47.569Z</time>
      </trkpt>
      <trkpt lat="44.24603" lon="3.60408">
        <ele>885.82</ele>
        <time>2024-11-05T10:24:50.266Z</time>
      </trkpt>
      <trkpt lat="44.24609" lon="3.60457">
        <ele>887.58</ele>
        <time>2024-11-05T10:24:52.969Z</time>
      </trkpt>
      <trkpt lat="44.24625" lon="3.60515">
        <ele>889.52</ele>
        <time>2024-11-05T10:24:55.679Z</time>
      </trkpt>
      <trkpt lat="44.24643" lon="3.60579">
        <ele>891.97</ele>
        <time>2024-11-05T10:24:58.397Z</time>
      </trkpt>
      <trkpt lat="44.24661" lon="3.60644">
        <ele>895.08</ele>
        <time>2024-11-05T10:25:01.123Z</time>
      </trkpt>
      <trkpt lat="44.24668" lon="3.60678">
        <ele>896.86</ele>
        <time>2024-11-05T10:25:03.853Z</time>
      </trkpt>
      <trkpt lat="44.24671" lon="3.60696">
        <ele>898</ele>
        <time>2024-11-05T10:25:06.585Z</time>
      </trkpt>
      <trkpt lat="44.24681" lon="3.60746">
        <ele>902.27</ele>
        <time>2024-11-05T10:25:09.323Z</time>
      </trkpt>
      <trkpt lat="44.24688" lon="3.6077">
        <ele>904.26</ele>
        <time>2024-11-05T10:25:12.064Z</time>
      </trkpt>
      <trkpt lat="44.2469" lon="3.60796">
        <ele>906.06</ele>
        <time>2024-11-05T10:25:14.808Z</time>
      </trkpt>
      <trkpt lat="44.24687" lon="3.60821">
        <ele>907.63</ele>
        <time>2024-11-05T10:25:17.555Z</time>
      </trkpt>
      <trkpt lat="44.24676" lon="3.60854">
        <ele>909.72</ele>
        <time>2024-11-05T10:25:20.306Z</time>
      </trkpt>
      <trkpt lat="44.24657" lon="3.60896">
        <ele>912.88</ele>
        <time>2024-11-05T10:25:23.063Z</time>
      </trkpt>
      <trkpt lat="44.24642" lon="3.60931">
        <ele>915.16</ele>
        <time>2024-11-05T10:25:25.825Z</time>
      </trkpt>
      <trkpt lat="44.24628" lon="3.60956">
        <ele>916.76</ele>
        <time>2024-11-05T10:25:28.590Z</time>
      </trkpt>
      <trkpt lat="44.24613" lon="3.60984">
        <ele>919.05</ele>
        <time>2024-11-05T10:25:31.359Z</time>
      </trkpt>
      <trkpt lat="44.24592" lon="3.61049">
        <ele>924.2</ele>
        <time>2024-11-05T10:25:34.137Z</time>
      </trkpt>
      <trkpt lat="44.24584" lon="3.61072">
        <ele>926.21</ele>
        <time>2024-11-05T10:25:36.917Z</time>
      </trkpt>
      <trkpt lat="44.2455" lon="3.61178">
        <ele>936.36</ele>
        <time>2024-11-05T10:25:39.711Z</time>
      </trkpt>
      <trkpt lat="44.24517" lon="3.61257">
        <ele>944.62</ele>
        <time>2024-11-05T10:25:42.515Z</time>
      </trkpt>
      <trkpt lat="44.24491" lon="3.61306">
        <ele>950.64</ele>
        <time>2024-11-05T10:25:45.326Z</time>
      </trkpt>
      <trkpt lat="44.24451" lon="3.6137">
        <ele>959.22</ele>
        <time>2024-11-05T10:25:48.147Z</time>
      </trkpt>
      <trkpt lat="44.24409" lon="3.61422">
        <ele>966.3</ele>
        <time>2024-11-05T10:25:50.977Z</time>
      </trkpt>
      <trkpt lat="44.24394" lon="3.61435">
        <ele>968.4</ele>
        <time>2024-11-05T10:25:53.810Z</time>
      </trkpt>
      <trkpt lat="44.24348" lon="3.61464">
        <ele>974.42</ele>
        <time>2024-11-05T10:25:56.651Z</time>
      </trkpt>
      <trkpt lat="44.24326" lon="3.61478">
        <ele>977.54</ele>
        <time>2024-11-05T10:25:59.496Z</time>
      </trkpt>
      <trkpt lat="44.24291" lon="3.61514">
        <ele>983.34</ele>
        <time>2024-11-05T10:26:02.348Z</time>
      </trkpt>
      <trkpt lat="44.24281" lon="3.61521">
        <ele>984.7</ele>
        <time>2024-11-05T10:26:05.202Z</time>
      </trkpt>
      <trkpt lat="44.24266" lon="3.61522">
        <ele>986.42</ele>
        <time>2024-11-05T10:26:08.058Z</time>
      </trkpt>
      <trkpt lat="44.24193" lon="3.61517">
        <ele>994.5</ele>
        <time>2024-11-05T10:26:10.926Z</time>
      </trkpt>
      <trkpt lat="44.24161" lon="3.61523">
        <ele>998.3</ele>
        <time>2024-11-05T10:26:13.799Z</time>
      </trkpt>
      <trkpt lat="44.2415" lon="3.61521">
        <ele>999.61</ele>
        <time>2024-11-05T10:26:16.674Z</time>
      </trkpt>
      <trkpt lat="44.2414" lon="3.61515">
        <ele>1000.96</ele>
        <time>2024-11-05T10:26:19.550Z</time>
      </trkpt>
      <trkpt lat="44.24121" lon="3.61496">
        <ele>1004.06</ele>
        <time>2024-11-05T10:26:22.430Z</time>
      </trkpt>
      <trkpt lat="44.24119" lon="3.61498">
        <ele>1004.4</ele>
        <time>2024-11-05T10:26:25.311Z</time>
      </trkpt>
      <trkpt lat="44.24116" lon="3.615">
        <ele>1004.7</ele>
        <time>2024-11-05T10:26:28.192Z</time>
      </trkpt>
      <trkpt lat="44.24114" lon="3.61508">
        <ele>1005.27</ele>
        <time>2024-11-05T10:26:31.074Z</time>
      </trkpt>
      <trkpt lat="44.24115" lon="3.61514">
        <ele>1005.61</ele>
        <time>2024-11-05T10:26:33.957Z</time>
      </trkpt>
      <trkpt lat="44.24117" lon="3.61523">
        <ele>1006.02</ele>
        <time>2024-11-05T10:26:36.841Z</time>
      </trkpt>
      <trkpt lat="44.2413" lon="3.61556">
        <ele>1007.47</ele>
        <time>2024-11-05T10:26:39.729Z</time>
      </trkpt>
      <trkpt lat="44.24132" lon="3.6157">
        <ele>1008.06</ele>
        <time>2024-11-05T10:26:42.619Z</time>
      </trkpt>
      <trkpt lat="44.24126" lon="3.61585">
        <ele>1008.72</ele>
        <time>2024-11-05T10:26:45.511Z</time>
      </trkpt>
      <trkpt lat="44.24114" lon="3.61599">
        <ele>1009.36</ele>
        <time>2024-11-05T10:26:48.405Z</time>
      </trkpt>
      <trkpt lat="44.24094" lon="3.61613">
        <ele>1009.93</ele>
        <time>2024-11-05T10:26:51.303Z</time>
      </trkpt>
      <trkpt lat="44.24046" lon="3.61647">
        <ele>1010.42</ele>
        <time>2024-11-05T10:26:54.210Z</time>
      </trkpt>
      <trkpt lat="44.24038" lon="3.61655">
        <ele>1010.28</ele>
        <time>2024-11-05T10:26:57.118Z</time>
      </trkpt>
      <trkpt lat="44.24033" lon="3.61669">
        <ele>1010.16</ele>
        <time>2024-11-05T10:27:00.028Z</time>
      </trkpt>
      <trkpt lat="44.24059" lon="3.6167">
        <ele>1010.47</ele>
        <time>2024-11-05T10:27:02.942Z</time>
      </trkpt>
      <trkpt lat="44.24094" lon="3.61677">
        <ele>1010.94</ele>
        <time>2024-11-05T10:27:05.862Z</time>
      </trkpt>
      <trkpt lat="44.24116" lon="3.61688">
        <ele>1011.36</ele>
        <time>2024-11-05T10:27:08.785Z</time>
      </trkpt>
      <trkpt lat="44.24139" lon="3.61703">
        <ele>1011.88</ele>
        <time>2024-11-05T10:27:11.713Z</time>
      </trkpt>
      <trkpt lat="44.24163" lon="3.6173">
        <ele>1012.47</ele>
        <time>2024-11-05T10:27:14.645Z</time>
      </trkpt>
      <trkpt lat="44.24197" lon="3.61784">
        <ele>1013.47</ele>
        <time>2024-11-05T10:27:17.586Z</time>
      </trkpt>
      <trkpt lat="44.24229" lon="3.61834">
        <ele>1014.2</ele>
        <time>2024-11-05T10:27:20.534Z</time>
      </trkpt>
      <trkpt lat="44.24256" lon="3.61876">
        <ele>1015</ele>
        <time>2024-11-05T10:27:23.489Z</time>
      </trkpt>
      <trkpt lat="44.24269" lon="3.619">
        <ele>1015.37</ele>
        <time>2024-11-05T10:27:26.447Z</time>
      </trkpt>
      <trkpt lat="44.24285" lon="3.6193">
        <ele>1015.51</ele>
        <time>2024-11-05T10:27:29.410Z</time>
      </trkpt>
      <trkpt lat="44.24304" lon="3.61965">
        <ele>1015.36</ele>
        <time>2024-11-05T10:27:32.378Z</time>
      </trkpt>
      <trkpt lat="44.2432" lon="3.61994">
        <ele>1014.68</ele>
        <time>2024-11-05T10:27:35.350Z</time>
      </trkpt>
      <trkpt lat="44.24341" lon="3.62034">
        <ele>1013.46</ele>
        <time>2024-11-05T10:27:38.328Z</time>
      </trkpt>
      <trkpt lat="44.24378" lon="3.62103">
        <ele>1010.44</ele>
        <time>2024-11-05T10:27:41.315Z</time>
      </trkpt>
      <trkpt lat="44.24409" lon="3.62141">
        <ele>1008.49</ele>
        <time>2024-11-05T10:27:44.309Z</time>
      </trkpt>
      <trkpt lat="44.24435" lon="3.6216">
        <ele>1007.56</ele>
        <time>2024-11-05T10:27:47.308Z</time>
      </trkpt>
      <trkpt lat="44.2448" lon="3.6219">
        <ele>1006.3</ele>
        <time>2024-11-05T10:27:50.315Z</time>
      </trkpt>
      <trkpt lat="44.24503" lon="3.62203">
        <ele>1005.8</ele>
        <time>2024-11-05T10:27:53.326Z</time>
      </trkpt>
      <trkpt lat="44.24521" lon="3.6222">
        <ele>1005.6</ele>
        <time>2024-11-05T10:27:56.340Z</time>
      </trkpt>
      <trkpt lat="44.24565" lon="3.62284">
        <ele>1005.69</ele>
        <time>2024-11-05T10:27:59.364Z</time>
      </trkpt>
      <trkpt lat="44.24589" lon="3.6232">
        <ele>1006.09</ele>
        <time>2024-11-05T10:28:02.394Z</time>
      </trkpt>
      <trkpt lat="44.24613" lon="3.62356">
        <ele>1006.86</ele>
        <time>2024-11-05T10:28:05.430Z</time>
      </trkpt>
      <trkpt lat="44.2474" lon="3.62558">
        <ele>1014.62</ele>
        <time>2024-11-05T10:28:08.497Z</time>
      </trkpt>
      <trkpt lat="44.24763" lon="3.62583">
        <ele>1015.87</ele>
        <time>2024-11-05T10:28:11.568Z</time>
      </trkpt>
      <trkpt lat="44.24782" lon="3.62597">
        <ele>1016.91</ele>
        <time>2024-11-05T10:28:14.643Z</time>
      </trkpt>
      <trkpt lat="44.24801" lon="3.62605">
        <ele>1017.79</ele>
        <time>2024-11-05T10:28:17.721Z</time>
      </trkpt>
      <trkpt lat="44.24825" lon="3.62607">
        <ele>1018.75</ele>
        <time>2024-11-05T10:28:20.803Z</time>
      </trkpt>
      <trkpt lat="44.24846" lon="3.62604">
        <ele>1019.6</ele>
        <time>2024-11-05T10:28:23.888Z</time>
      </trkpt>
      <trkpt lat="44.24872" lon="3.62592">
        <ele>1020.43</ele>
        <time>2024-11-05T10:28:26.977Z</time>
      </trkpt>
      <trkpt lat="44.24881" lon="3.62586">
        <ele>1020.68</ele>
        <time>2024-11-05T10:28:30.068Z</time>
      </trkpt>
      <trkpt lat="44.24917" lon="3.62562">
        <ele>1021.42</ele>
        <time>2024-11-05T10:28:33.166Z</time>
      </trkpt>
      <trkpt lat="44.2495" lon="3.62541">
        <ele>1021.84</ele>
        <time>2024-11-05T10:28:36.269Z</time>
      </trkpt>
      <trkpt lat="44.25044" lon="3.62486">
        <ele>1022.35</ele>
        <time>2024-11-05T10:28:39.389Z</time>
      </trkpt>
      <trkpt lat="44.25157" lon="3.62421">
        <ele>1023.7</ele>
        <time>2024-11-05T10:28:42.528Z</time>
      </trkpt>
      <trkpt lat="44.25209" lon="3.62394">
        <ele>1024.39</ele>
        <time>2024-11-05T10:28:45.676Z</time>
      </trkpt>
      <trkpt lat="44.25261" lon="3.62371">
        <ele>1024.46</ele>
        <time>2024-11-05T10:28:48.833Z</time>
      </trkpt>
      <trkpt lat="44.25301" lon="3.62356">
        <ele>1024.11</ele>
        <time>2024-11-05T10:28:51.996Z</time>
      </trkpt>
      <trkpt lat="44.2551" lon="3.62298">
        <ele>1022.44</ele>
        <time>2024-11-05T10:28:55.194Z</time>
      </trkpt>
      <trkpt lat="44.25545" lon="3.62289">
        <ele>1021.73</ele>
        <time>2024-11-05T10:28:58.397Z</time>
      </trkpt>
      <trkpt lat="44.25572" lon="3.62281">
        <ele>1020.83</ele>
        <time>2024-11-05T10:29:01.605Z</time>
      </trkpt>
      <trkpt lat="44.25589" lon="3.62277">
        <ele>1019.84</ele>
        <time>2024-11-05T10:29:04.815Z</time>
      </trkpt>
      <trkpt lat="44.2565" lon="3.6226">
        <ele>1015.82</ele>
        <time>2024-11-05T10:29:08.035Z</time>
      </trkpt>
      <trkpt lat="44.25703" lon="3.62245">
        <ele>1012.07</ele>
        <time>2024-11-05T10:29:11.264Z</time>
      </trkpt>
      <trkpt lat="44.25733" lon="3.62237">
        <ele>1009.74</ele>
        <time>2024-11-05T10:29:14.498Z</time>
      </trkpt>
      <trkpt lat="44.25812" lon="3.62215">
        <ele>1003.22</ele>
        <time>2024-11-05T10:29:17.745Z</time>
      </trkpt>
      <trkpt lat="44.25863" lon="3.62201">
        <ele>998.22</ele>
        <time>2024-11-05T10:29:21.000Z</time>
      </trkpt>
      <trkpt lat="44.25885" lon="3.622">
        <ele>995.98</ele>
        <time>2024-11-05T10:29:24.259Z</time>
      </trkpt>
      <trkpt lat="44.25909" lon="3.62202">
        <ele>993.51</ele>
        <time>2024-11-05T10:29:27.521Z</time>
      </trkpt>
      <trkpt lat="44.25992" lon="3.62224">
        <ele>984.87</ele>
        <time>2024-11-05T10:29:30.797Z</time>
      </trkpt>
      <trkpt lat="44.2601" lon="3.62227">
        <ele>983.33</ele>
        <time>2024-11-05T10:29:34.076Z</time>
      </trkpt>
      <trkpt lat="44.26023" lon="3.62228">
        <ele>982.51</ele>
        <time>2024-11-05T10:29:37.357Z</time>
      </trkpt>
      <trkpt lat="44.26025" lon="3.62228">
        <ele>982.6</ele>
        <time>2024-11-05T10:29:40.638Z</time>
      </trkpt>
      <trkpt lat="44.26028" lon="3.62261">
        <ele>984.02</ele>
        <time>2024-11-05T10:29:43.923Z</time>
      </trkpt>
      <trkpt lat="44.26015" lon="3.62295">
        <ele>986.64</ele>
        <time>2024-11-05T10:29:47.213Z</time>
      </trkpt>
      <trkpt lat="44.26014" lon="3.62302">
        <ele>987.15</ele>
        <time>2024-11-05T10:29:50.503Z</time>
      </trkpt>
      <trkpt lat="44.26016" lon="3.62315">
        <ele>987.2</ele>
        <time>2024-11-05T10:29:53.795Z</time>
      </trkpt>
      <trkpt lat="44.26019" lon="3.62331">
        <ele>986.59</ele>
        <time>2024-11-05T10:29:57.089Z</time>
      </trkpt>
      <trkpt lat="44.26022" lon="3.62424">
        <ele>982.81</ele>
        <time>2024-11-05T10:30:00.393Z</time>
      </trkpt>
      <trkpt lat="44.26026" lon="3.62457">
        <ele>981.54</ele>
        <time>2024-11-05T10:30:03.701Z</time>
      </trkpt>
      <trkpt lat="44.26033" lon="3.62508">
        <ele>979.97</ele>
        <time>2024-11-05T10:30:07.015Z</time>
      </trkpt>
      <trkpt lat="44.26036" lon="3.62571">
        <ele>978.11</ele>
        <time>2024-11-05T10:30:10.337Z</time>
      </trkpt>
      <trkpt lat="44.2604" lon="3.6261">
        <ele>977.1</ele>
        <time>2024-11-05T10:30:13.663Z</time>
      </trkpt>
      <trkpt lat="44.26041" lon="3.62658">
        <ele>975.84</ele>
        <time>2024-11-05T10:30:16.995Z</time>
      </trkpt>
      <trkpt lat="44.2604" lon="3.62738">
        <ele>973.77</ele>
        <time>2024-11-05T10:30:20.336Z</time>
      </trkpt>
      <trkpt lat="44.26035" lon="3.62768">
        <ele>972.75</ele>
        <time>2024-11-05T10:30:23.680Z</time>
      </trkpt>
      <trkpt lat="44.26027" lon="3.62794">
        <ele>971.42</ele>
        <time>2024-11-05T10:30:27.028Z</time>
      </trkpt>
      <trkpt lat="44.2602" lon="3.62812">
        <ele>970.26</ele>
        <time>2024-11-05T10:30:30.378Z</time>
      </trkpt>
      <trkpt lat="44.25986" lon="3.62896">
        <ele>963.96</ele>
        <time>2024-11-05T10:30:33.739Z</time>
      </trkpt>
      <trkpt lat="44.25947" lon="3.62954">
        <ele>959.06</ele>
        <time>2024-11-05T10:30:37.109Z</time>
      </trkpt>
      <trkpt lat="44.25931" lon="3.62972">
        <ele>957.31</ele>
        <time>2024-11-05T10:30:40.482Z</time>
      </trkpt>
      <trkpt lat="44.25883" lon="3.63014">
        <ele>952.33</ele>
        <time>2024-11-05T10:30:43.865Z</time>
      </trkpt>
      <trkpt lat="44.25854" lon="3.63046">
        <ele>948.98</ele>
        <time>2024-11-05T10:30:47.253Z</time>
      </trkpt>
      <trkpt lat="44.25831" lon="3.63078">
        <ele>946.07</ele>
        <time>2024-11-05T10:30:50.647Z</time>
      </trkpt>
      <trkpt lat="44.25801" lon="3.63149">
        <ele>940.53</ele>
        <time>2024-11-05T10:30:54.050Z</time>
      </trkpt>
      <trkpt lat="44.25792" lon="3.63165">
        <ele>939.54</ele>
        <time>2024-11-05T10:30:57.455Z</time>
      </trkpt>
      <trkpt lat="44.25776" lon="3.63194">
        <ele>938</ele>
        <time>2024-11-05T10:31:00.865Z</time>
      </trkpt>
      <trkpt lat="44.25748" lon="3.63226">
        <ele>936.26</ele>
        <time>2024-11-05T10:31:04.280Z</time>
      </trkpt>
      <trkpt lat="44.25734" lon="3.63242">
        <ele>935.2</ele>
        <time>2024-11-05T10:31:07.698Z</time>
      </trkpt>
      <trkpt lat="44.25719" lon="3.6326">
        <ele>933.74</ele>
        <time>2024-11-05T10:31:11.120Z</time>
      </trkpt>
      <trkpt lat="44.25706" lon="3.63286">
        <ele>931.9</ele>
        <time>2024-11-05T10:31:14.545Z</time>
      </trkpt>
      <trkpt lat="44.25695" lon="3.63344">
        <ele>928.57</ele>
        <time>2024-11-05T10:31:17.977Z</time>
      </trkpt>
      <trkpt lat="44.2569" lon="3.63375">
        <ele>927.01</ele>
        <time>2024-11-05T10:31:21.413Z</time>
      </trkpt>
      <trkpt lat="44.25683" lon="3.63411">
        <ele>925.4</ele>
        <time>2024-11-05T10:31:24.853Z</time>
      </trkpt>
      <trkpt lat="44.2568" lon="3.63428">
        <ele>924.77</ele>
        <time>2024-11-05T10:31:28.295Z</time>
      </trkpt>
      <trkpt lat="44.25664" lon="3.63474">
        <ele>923.03</ele>
        <time>2024-11-05T10:31:31.743Z</time>
      </trkpt>
      <trkpt lat="44.25659" lon="3.63505">
        <ele>922.12</ele>
        <time>2024-11-05T10:31:35.195Z</time>
      </trkpt>
      <trkpt lat="44.25657" lon="3.63558">
        <ele>920.56</ele>
        <time>2024-11-05T10:31:38.653Z</time>
      </trkpt>
      <trkpt lat="44.25653" lon="3.63581">
        <ele>919.88</ele>
        <time>2024-11-05T10:31:42.113Z</time>
      </trkpt>
      <trkpt lat="44.25643" lon="3.63607">
        <ele>919.17</ele>
        <time>2024-11-05T10:31:45.577Z</time>
      </trkpt>
      <trkpt lat="44.25631" lon="3.63641">
        <ele>918.56</ele>
        <time>2024-11-05T10:31:49.045Z</time>
      </trkpt>
      <trkpt lat="44.25622" lon="3.63663">
        <ele>918.39</ele>
        <time>2024-11-05T10:31:52.516Z</time>
      </trkpt>
      <trkpt lat="44.25585" lon="3.63756">
        <ele>917.01</ele>
        <time>2024-11-05T10:31:55.999Z</time>
      </trkpt>
      <trkpt lat="44.2557" lon="3.63786">
        <ele>916.88</ele>
        <time>2024-11-05T10:31:59.486Z</time>
      </trkpt>
      <trkpt lat="44.25559" lon="3.638">
        <ele>917.01</ele>
        <time>2024-11-05T10:32:02.976Z</time>
      </trkpt>
      <trkpt lat="44.25545" lon="3.63812">
        <ele>917.28</ele>
        <time>2024-11-05T10:32:06.468Z</time>
      </trkpt>
      <trkpt lat="44.25501" lon="3.6385">
        <ele>918.8</ele>
        <time>2024-11-05T10:32:09.969Z</time>
      </trkpt>
      <trkpt lat="44.25483" lon="3.63881">
        <ele>919.54</ele>
        <time>2024-11-05T10:32:13.474Z</time>
      </trkpt>
      <trkpt lat="44.25468" lon="3.63901">
        <ele>919.9</ele>
        <time>2024-11-05T10:32:16.983Z</time>
      </trkpt>
      <trkpt lat="44.25449" lon="3.6392">
        <ele>920.17</ele>
        <time>2024-11-05T10:32:20.495Z</time>
      </trkpt>
      <trkpt lat="44.25433" lon="3.63932">
        <ele>920.38</ele>
        <time>2024-11-05T10:32:24.010Z</time>
      </trkpt>
      <trkpt lat="44.25409" lon="3.6395">
        <ele>920.39</ele>
        <time>2024-11-05T10:32:27.530Z</time>
      </trkpt>
      <trkpt lat="44.25357" lon="3.63986">
        <ele>919.48</ele>
        <time>2024-11-05T10:32:31.059Z</time>
      </trkpt>
      <trkpt lat="44.2532" lon="3.6402">
        <ele>918.57</ele>
        <time>2024-11-05T10:32:34.595Z</time>
      </trkpt>
      <trkpt lat="44.25305" lon="3.64034">
        <ele>918.09</ele>
        <time>2024-11-05T10:32:38.134Z</time>
      </trkpt>
      <trkpt lat="44.25279" lon="3.64058">
        <ele>916.71</ele>
        <time>2024-11-05T10:32:41.678Z</time>
      </trkpt>
      <trkpt lat="44.25256" lon="3.64078">
        <ele>915.33</ele>
        <time>2024-11-05T10:32:45.226Z</time>
      </trkpt>
      <trkpt lat="44.25228" lon="3.641">
        <ele>913.31</ele>
        <time>2024-11-05T10:32:48.779Z</time>
      </trkpt>
      <trkpt lat="44.25213" lon="3.64112">
        <ele>911.75</ele>
        <time>2024-11-05T10:32:52.335Z</time>
      </trkpt>
      <trkpt lat="44.25194" lon="3.64124">
        <ele>909.57</ele>
        <time>2024-11-05T10:32:55.895Z</time>
      </trkpt>
      <trkpt lat="44.25181" lon="3.64126">
        <ele>908.11</ele>
        <time>2024-11-05T10:32:59.457Z</time>
      </trkpt>
      <trkpt lat="44.25149" lon="3.64121">
        <ele>904.85</ele>
        <time>2024-11-05T10:33:03.024Z</time>
      </trkpt>
      <trkpt lat="44.25136" lon="3.64125">
        <ele>903.78</ele>
        <time>2024-11-05T10:33:06.593Z</time>
      </trkpt>
      <trkpt lat="44.25124" lon="3.64134">
        <ele>902.9</ele>
        <time>2024-11-05T10:33:10.164Z</time>
      </trkpt>
      <trkpt lat="44.25117" lon="3.64144">
        <ele>902.36</ele>
        <time>2024-11-05T10:33:13.737Z</time>
      </trkpt>
      <trkpt lat="44.2511" lon="3.64161">
        <ele>901.87</ele>
        <time>2024-11-05T10:33:17.312Z</time>
      </trkpt>
      <trkpt lat="44.25106" lon="3.64185">
        <ele>901.56</ele>
        <time>2024-11-05T10:33:20.890Z</time>
      </trkpt>
      <trkpt lat="44.25103" lon="3.64203">
        <ele>901.51</ele>
        <time>2024-11-05T10:33:24.470Z</time>
      </trkpt>
      <trkpt lat="44.25073" lon="3.64312">
        <ele>901.77</ele>
        <time>2024-11-05T10:33:28.063Z</time>
      </trkpt>
      <trkpt lat="44.25066" lon="3.6433">
        <ele>901.76</ele>
        <time>2024-11-05T10:33:31.659Z</time>
      </trkpt>
      <trkpt lat="44.25054" lon="3.64349">
        <ele>901.55</ele>
        <time>2024-11-05T10:33:35.258Z</time>
      </trkpt>
      <trkpt lat="44.25033" lon="3.64382">
        <ele>900.79</ele>
        <time>2024-11-05T10:33:38.862Z</time>
      </trkpt>
      <trkpt lat="44.25009" lon="3.64419">
        <ele>900.19</ele>
        <time>2024-11-05T10:33:42.471Z</time>
      </trkpt>
      <trkpt lat="44.24994" lon="3.64442">
        <ele>900.24</ele>
        <time>2024-11-05T10:33:46.084Z</time>
      </trkpt>
      <trkpt lat="44.24983" lon="3.64462">
        <ele>900.68</ele>
        <time>2024-11-05T10:33:49.700Z</time>
      </trkpt>
      <trkpt lat="44.24975" lon="3.64477">
        <ele>901.3</ele>
        <time>2024-11-05T10:33:53.318Z</time>
      </trkpt>
      <trkpt lat="44.24955" lon="3.64508">
        <ele>903.25</ele>
        <time>2024-11-05T10:33:56.941Z</time>
      </trkpt>
      <trkpt lat="44.24923" lon="3.64537">
        <ele>906.02</ele>
        <time>2024-11-05T10:34:00.570Z</time>
      </trkpt>
      <trkpt lat="44.24912" lon="3.64552">
        <ele>907.18</ele>
        <time>2024-11-05T10:34:04.201Z</time>
      </trkpt>
      <trkpt lat="44.24889" lon="3.64599">
        <ele>910.48</ele>
        <time>2024-11-05T10:34:07.839Z</time>
      </trkpt>
      <trkpt lat="44.24873" lon="3.64623">
        <ele>912.64</ele>
        <time>2024-11-05T10:34:11.481Z</time>
      </trkpt>
      <trkpt lat="44.24868" lon="3.64638">
        <ele>913.79</ele>
        <time>2024-11-05T10:34:15.125Z</time>
      </trkpt>
      <trkpt lat="44.24863" lon="3.64676">
        <ele>916.46</ele>
        <time>2024-11-05T10:34:18.773Z</time>
      </trkpt>
      <trkpt lat="44.24851" lon="3.64712">
        <ele>919.03</ele>
        <time>2024-11-05T10:34:22.426Z</time>
      </trkpt>
      <trkpt lat="44.24843" lon="3.64735">
        <ele>920.29</ele>
        <time>2024-11-05T10:34:26.081Z</time>
      </trkpt>
      <trkpt lat="44.24834" lon="3.64763">
        <ele>921.25</ele>
        <time>2024-11-05T10:34:29.740Z</time>
      </trkpt>
      <trkpt lat="44.24826" lon="3.64786">
        <ele>921.55</ele>
        <time>2024-11-05T10:34:33.402Z</time>
      </trkpt>
      <trkpt lat="44.24822" lon="3.64797">
        <ele>921.53</ele>
        <time>2024-11-05T10:34:37.065Z</time>
      </trkpt>
      <trkpt lat="44.24815" lon="3.64827">
        <ele>921.23</ele>
        <time>2024-11-05T10:34:40.732Z</time>
      </trkpt>
      <trkpt lat="44.24809" lon="3.64851">
        <ele>920.57</ele>
        <time>2024-11-05T10:34:44.402Z</time>
      </trkpt>
      <trkpt lat="44.24806" lon="3.64948">
        <ele>917.47</ele>
        <time>2024-11-05T10:34:48.083Z</time>
      </trkpt>
      <trkpt lat="44.24804" lon="3.64991">
        <ele>916.52</ele>
        <time>2024-11-05T10:34:51.769Z</time>
      </trkpt>
      <trkpt lat="44.24802" lon="3.65012">
        <ele>916.24</ele>
        <time>2024-11-05T10:34:55.458Z</time>
      </trkpt>
      <trkpt lat="44.2477" lon="3.65051">
        <ele>915.66</ele>
        <time>2024-11-05T10:34:59.153Z</time>
      </trkpt>
      <trkpt lat="44.24738" lon="3.6509">
        <ele>915.7</ele>
        <time>2024-11-05T10:35:02.855Z</time>
      </trkpt>
      <trkpt lat="44.24678" lon="3.6513">
        <ele>916.63</ele>
        <time>2024-11-05T10:35:06.568Z</time>
      </trkpt>
      <trkpt lat="44.24647" lon="3.65154">
        <ele>917.05</ele>
        <time>2024-11-05T10:35:10.286Z</time>
      </trkpt>
      <trkpt lat="44.24609" lon="3.65195">
        <ele>917.84</ele>
        <time>2024-11-05T10:35:14.012Z</time>
      </trkpt>
      <trkpt lat="44.24589" lon="3.65228">
        <ele>918.21</ele>
        <time>2024-11-05T10:35:17.743Z</time>
      </trkpt>
      <trkpt lat="44.24566" lon="3.6525">
        <ele>918.5</ele>
        <time>2024-11-05T10:35:21.479Z</time>
      </trkpt>
      <trkpt lat="44.24549" lon="3.65274">
        <ele>918.99</ele>
        <time>2024-11-05T10:35:25.218Z</time>
      </trkpt>
      <trkpt lat="44.24534" lon="3.65294">
        <ele>919.88</ele>
        <time>2024-11-05T10:35:28.961Z</time>
      </trkpt>
      <trkpt lat="44.24522" lon="3.6531">
        <ele>920.37</ele>
        <time>2024-11-05T10:35:32.706Z</time>
      </trkpt>
      <trkpt lat="44.24489" lon="3.6535">
        <ele>921.2</ele>
        <time>2024-11-05T10:35:36.459Z</time>
      </trkpt>
      <trkpt lat="44.2447" lon="3.65369">
        <ele>921.48</ele>
        <time>2024-11-05T10:35:40.215Z</time>
      </trkpt>
      <trkpt lat="44.2446" lon="3.65384">
        <ele>921.66</ele>
        <time>2024-11-05T10:35:43.974Z</time>
      </trkpt>
      <trkpt lat="44.24427" lon="3.65435">
        <ele>924.33</ele>
        <time>2024-11-05T10:35:47.740Z</time>
      </trkpt>
      <trkpt lat="44.24415" lon="3.6546">
        <ele>924.95</ele>
        <time>2024-11-05T10:35:51.510Z</time>
      </trkpt>
      <trkpt lat="44.24401" lon="3.65508">
        <ele>925.29</ele>
        <time>2024-11-05T10:35:55.286Z</time>
      </trkpt>
      <trkpt lat="44.24395" lon="3.6552">
        <ele>925.38</ele>
        <time>2024-11-05T10:35:59.064Z</time>
      </trkpt>
      <trkpt lat="44.24393" lon="3.65524">
        <ele>925.2</ele>
        <time>2024-11-05T10:36:02.842Z</time>
      </trkpt>
      <trkpt lat="44.24386" lon="3.65524">
        <ele>924.82</ele>
        <time>2024-11-05T10:36:06.621Z</time>
      </trkpt>
      <trkpt lat="44.24365" lon="3.65543">
        <ele>923.54</ele>
        <time>2024-11-05T10:36:10.404Z</time>
      </trkpt>
      <trkpt lat="44.24327" lon="3.65575">
        <ele>921.6</ele>
        <time>2024-11-05T10:36:14.194Z</time>
      </trkpt>
      <trkpt lat="44.24292" lon="3.65606">
        <ele>919.98</ele>
        <time>2024-11-05T10:36:17.991Z</time>
      </trkpt>
      <trkpt lat="44.24271" lon="3.65621">
        <ele>919.02</ele>
        <time>2024-11-05T10:36:21.792Z</time>
      </trkpt>
      <trkpt lat="44.24253" lon="3.65629">
        <ele>918.28</ele>
        <time>2024-11-05T10:36:25.596Z</time>
      </trkpt>
      <trkpt lat="44.24233" lon="3.65633">
        <ele>917.41</ele>
        <time>2024-11-05T10:36:29.403Z</time>
      </trkpt>
      <trkpt lat="44.24226" lon="3.65629">
        <ele>917.04</ele>
        <time>2024-11-05T10:36:33.211Z</time>
      </trkpt>
      <trkpt lat="44.24219" lon="3.65619">
        <ele>916.53</ele>
        <time>2024-11-05T10:36:37.021Z</time>
      </trkpt>
      <trkpt lat="44.24215" lon="3.65607">
        <ele>916</ele>
        <time>2024-11-05T10:36:40.832Z</time>
      </trkpt>
      <trkpt lat="44.24203" lon="3.65482">
        <ele>909.94</ele>
        <time>2024-11-05T10:36:44.658Z</time>
      </trkpt>
      <trkpt lat="44.24198" lon="3.65433">
        <ele>907.39</ele>
        <time>2024-11-05T10:36:48.490Z</time>
      </trkpt>
      <trkpt lat="44.24194" lon="3.65389">
        <ele>905.55</ele>
        <time>2024-11-05T10:36:52.327Z</time>
      </trkpt>
      <trkpt lat="44.24185" lon="3.65365">
        <ele>904.49</ele>
        <time>2024-11-05T10:36:56.167Z</time>
      </trkpt>
      <trkpt lat="44.24176" lon="3.6536">
        <ele>903.92</ele>
        <time>2024-11-05T10:37:00.008Z</time>
      </trkpt>
      <trkpt lat="44.24168" lon="3.65362">
        <ele>903.44</ele>
        <time>2024-11-05T10:37:03.851Z</time>
      </trkpt>
      <trkpt lat="44.24159" lon="3.65372">
        <ele>902.73</ele>
        <time>2024-11-05T10:37:07.695Z</time>
      </trkpt>
      <trkpt lat="44.24124" lon="3.65445">
        <ele>898.92</ele>
        <time>2024-11-05T10:37:11.550Z</time>
      </trkpt>
      <trkpt lat="44.24118" lon="3.65453">
        <ele>898.47</ele>
        <time>2024-11-05T10:37:15.406Z</time>
      </trkpt>
      <trkpt lat="44.24107" lon="3.6546">
        <ele>897.81</ele>
        <time>2024-11-05T10:37:19.264Z</time>
      </trkpt>
      <trkpt lat="44.24095" lon="3.6546">
        <ele>897.03</ele>
        <time>2024-11-05T10:37:23.124Z</time>
      </trkpt>
      <trkpt lat="44.24085" lon="3.65453">
        <ele>896.22</ele>
        <time>2024-11-05T10:37:26.986Z</time>
      </trkpt>
      <trkpt lat="44.24065" lon="3.65421">
        <ele>894.04</ele>
        <time>2024-11-05T10:37:30.852Z</time>
      </trkpt>
      <trkpt lat="44.24035" lon="3.6536">
        <ele>891.2</ele>
        <time>2024-11-05T10:37:34.727Z</time>
      </trkpt>
      <trkpt lat="44.24022" lon="3.65353">
        <ele>890.31</ele>
        <time>2024-11-05T10:37:38.604Z</time>
      </trkpt>
      <trkpt lat="44.2401" lon="3.65355">
        <ele>889.44</ele>
        <time>2024-11-05T10:37:42.483Z</time>
      </trkpt>
      <trkpt lat="44.24001" lon="3.65363">
        <ele>888.66</ele>
        <time>2024-11-05T10:37:46.364Z</time>
      </trkpt>
      <trkpt lat="44.23994" lon="3.65375">
        <ele>887.91</ele>
        <time>2024-11-05T10:37:50.247Z</time>
      </trkpt>
      <trkpt lat="44.23972" lon="3.65429">
        <ele>885.44</ele>
        <time>2024-11-05T10:37:54.137Z</time>
      </trkpt>
      <trkpt lat="44.23953" lon="3.65454">
        <ele>884.04</ele>
        <time>2024-11-05T10:37:58.031Z</time>
      </trkpt>
      <trkpt lat="44.23943" lon="3.65457">
        <ele>883.49</ele>
        <time>2024-11-05T10:38:01.927Z</time>
      </trkpt>
      <trkpt lat="44.23934" lon="3.65454">
        <ele>882.94</ele>
        <time>2024-11-05T10:38:05.824Z</time>
      </trkpt>
      <trkpt lat="44.23921" lon="3.65442">
        <ele>881.98</ele>
        <time>2024-11-05T10:38:09.723Z</time>
      </trkpt>
      <trkpt lat="44.23908" lon="3.65437">
        <ele>881.14</ele>
        <time>2024-11-05T10:38:13.625Z</time>
      </trkpt>
      <trkpt lat="44.23892" lon="3.65439">
        <ele>880.15</ele>
        <time>2024-11-05T10:38:17.529Z</time>
      </trkpt>
      <trkpt lat="44.23879" lon="3.65443">
        <ele>879.37</ele>
        <time>2024-11-05T10:38:21.435Z</time>
      </trkpt>
      <trkpt lat="44.23854" lon="3.6546">
        <ele>877.83</ele>
        <time>2024-11-05T10:38:25.346Z</time>
      </trkpt>
      <trkpt lat="44.23846" lon="3.65457">
        <ele>877.31</ele>
        <time>2024-11-05T10:38:29.258Z</time>
      </trkpt>
      <trkpt lat="44.23839" lon="3.65451">
        <ele>876.71</ele>
        <time>2024-11-05T10:38:33.171Z</time>
      </trkpt>
      <trkpt lat="44.23827" lon="3.65429">
        <ele>875.25</ele>
        <time>2024-11-05T10:38:37.088Z</time>
      </trkpt>
      <trkpt lat="44.23805" lon="3.65389">
        <ele>873.28</ele>
        <time>2024-11-05T10:38:41.010Z</time>
      </trkpt>
      <trkpt lat="44.23793" lon="3.65371">
        <ele>872.33</ele>
        <time>2024-11-05T10:38:44.935Z</time>
      </trkpt>
      <trkpt lat="44.23791" lon="3.65369">
        <ele>872.17</ele>
        <time>2024-11-05T10:38:48.861Z</time>
      </trkpt>
      <trkpt lat="44.2378" lon="3.65365">
        <ele>871.34</ele>
        <time>2024-11-05T10:38:52.788Z</time>
      </trkpt>
      <trkpt lat="44.23767" lon="3.65368">
        <ele>870.33</ele>
        <time>2024-11-05T10:38:56.718Z</time>
      </trkpt>
      <trkpt lat="44.23763" lon="3.65371">
        <ele>869.97</ele>
        <time>2024-11-05T10:39:00.648Z</time>
      </trkpt>
      <trkpt lat="44.23744" lon="3.65383">
        <ele>868.54</ele>
        <time>2024-11-05T10:39:04.582Z</time>
      </trkpt>
      <trkpt lat="44.23723" lon="3.65401">
        <ele>867.04</ele>
        <time>2024-11-05T10:39:08.520Z</time>
      </trkpt>
      <trkpt lat="44.2371" lon="3.65406">
        <ele>866.15</ele>
        <time>2024-11-05T10:39:12.460Z</time>
      </trkpt>
      <trkpt lat="44.23696" lon="3.65406">
        <ele>865.23</ele>
        <time>2024-11-05T10:39:16.402Z</time>
      </trkpt>
      <trkpt lat="44.23682" lon="3.65411">
        <ele>864.31</ele>
        <time>2024-11-05T10:39:20.346Z</time>
      </trkpt>
      <trkpt lat="44.23648" lon="3.65446">
        <ele>861.56</ele>
        <time>2024-11-05T10:39:24.297Z</time>
      </trkpt>
      <trkpt lat="44.23638" lon="3.65461">
        <ele>860.8</ele>
        <time>2024-11-05T10:39:28.250Z</time>
      </trkpt>
      <trkpt lat="44.2362" lon="3.65506">
        <ele>859.01</ele>
        <time>2024-11-05T10:39:32.209Z</time>
      </trkpt>
      <trkpt lat="44.23613" lon="3.65516">
        <ele>858.47</ele>
        <time>2024-11-05T10:39:36.170Z</time>
      </trkpt>
      <trkpt lat="44.23605" lon="3.65523">
        <ele>857.88</ele>
        <time>2024-11-05T10:39:40.132Z</time>
      </trkpt>
      <trkpt lat="44.23596" lon="3.65524">
        <ele>857.25</ele>
        <time>2024-11-05T10:39:44.096Z</time>
      </trkpt>
      <trkpt lat="44.23566" lon="3.65513">
        <ele>854.97</ele>
        <time>2024-11-05T10:39:48.065Z</time>
      </trkpt>
      <trkpt lat="44.23557" lon="3.65512">
        <ele>854.33</ele>
        <time>2024-11-05T10:39:52.035Z</time>
      </trkpt>
      <trkpt lat="44.23549" lon="3.65514">
        <ele>853.77</ele>
        <time>2024-11-05T10:39:56.007Z</time>
      </trkpt>
      <trkpt lat="44.2351" lon="3.65537">
        <ele>851.09</ele>
        <time>2024-11-05T10:39:59.985Z</time>
      </trkpt>
      <trkpt lat="44.23503" lon="3.65546">
        <ele>850.6</ele>
        <time>2024-11-05T10:40:03.965Z</time>
      </trkpt>
      <trkpt lat="44.23493" lon="3.65566">
        <ele>849.63</ele>
        <time>2024-11-05T10:40:07.948Z</time>
      </trkpt>
      <trkpt lat="44.23485" lon="3.65576">
        <ele>848.95</ele>
        <time>2024-11-05T10:40:11.932Z</time>
      </trkpt>
      <trkpt lat="44.23475" lon="3.65582">
        <ele>848.15</ele>
        <time>2024-11-05T10:40:15.918Z</time>
      </trkpt>
      <trkpt lat="44.23447" lon="3.65586">
        <ele>846.01</ele>
        <time>2024-11-05T10:40:19.909Z</time>
      </trkpt>
      <trkpt lat="44.23424" lon="3.6559">
        <ele>844.59</ele>
        <time>2024-11-05T10:40:23.903Z</time>
      </trkpt>
      <trkpt lat="44.23412" lon="3.65596">
        <ele>843.71</ele>
        <time>2024-11-05T10:40:27.899Z</time>
      </trkpt>
      <trkpt lat="44.23403" lon="3.65604">
        <ele>842.97</ele>
        <time>2024-11-05T10:40:31.897Z</time>
      </trkpt>
      <trkpt lat="44.23374" lon="3.6564">
        <ele>840.34</ele>
        <time>2024-11-05T10:40:35.901Z</time>
      </trkpt>
      <trkpt lat="44.23344" lon="3.65678">
        <ele>837.85</ele>
        <time>2024-11-05T10:40:39.912Z</time>
      </trkpt>
      <trkpt lat="44.23329" lon="3.65692">
        <ele>836.71</ele>
        <time>2024-11-05T10:40:43.926Z</time>
      </trkpt>
      <trkpt lat="44.23273" lon="3.65722">
        <ele>832.53</ele>
        <time>2024-11-05T10:40:47.949Z</time>
      </trkpt>
      <trkpt lat="44.23203" lon="3.65743">
        <ele>828.43</ele>
        <time>2024-11-05T10:40:51.984Z</time>
      </trkpt>
      <trkpt lat="44.23159" lon="3.65769">
        <ele>826.11</ele>
        <time>2024-11-05T10:40:56.026Z</time>
      </trkpt>
      <trkpt lat="44.23145" lon="3.65777">
        <ele>825.55</ele>
        <time>2024-11-05T10:41:00.071Z</time>
      </trkpt>
      <trkpt lat="44.23103" lon="3.65795">
        <ele>823.88</ele>
        <time>2024-11-05T10:41:04.123Z</time>
      </trkpt>
      <trkpt lat="44.23097" lon="3.65807">
        <ele>823.39</ele>
        <time>2024-11-05T10:41:08.177Z</time>
      </trkpt>
      <trkpt lat="44.23092" lon="3.65803">
        <ele>823.11</ele>
        <time>2024-11-05T10:41:12.231Z</time>
      </trkpt>
      <trkpt lat="44.23091" lon="3.65795">
        <ele>822.84</ele>
        <time>2024-11-05T10:41:16.286Z</time>
      </trkpt>
      <trkpt lat="44.23098" lon="3.65787">
        <ele>822.27</ele>
        <time>2024-11-05T10:41:20.343Z</time>
      </trkpt>
      <trkpt lat="44.23109" lon="3.65782">
        <ele>821.58</ele>
        <time>2024-11-05T10:41:24.402Z</time>
      </trkpt>
      <trkpt lat="44.23134" lon="3.65775">
        <ele>820.02</ele>
        <time>2024-11-05T10:41:28.465Z</time>
      </trkpt>
      <trkpt lat="44.23174" lon="3.6574">
        <ele>816.78</ele>
        <time>2024-11-05T10:41:32.535Z</time>
      </trkpt>
      <trkpt lat="44.23181" lon="3.6572">
        <ele>815.56</ele>
        <time>2024-11-05T10:41:36.608Z</time>
      </trkpt>
      <trkpt lat="44.23184" lon="3.65697">
        <ele>814.28</ele>
        <time>2024-11-05T10:41:40.684Z</time>
      </trkpt>
      <trkpt lat="44.23193" lon="3.65676">
        <ele>813.03</ele>
        <time>2024-11-05T10:41:44.762Z</time>
      </trkpt>
      <trkpt lat="44.23202" lon="3.65652">
        <ele>811.73</ele>
        <time>2024-11-05T10:41:48.844Z</time>
      </trkpt>
      <trkpt lat="44.23215" lon="3.65629">
        <ele>810.36</ele>
        <time>2024-11-05T10:41:52.929Z</time>
      </trkpt>
      <trkpt lat="44.23223" lon="3.65619">
        <ele>809.66</ele>
        <time>2024-11-05T10:41:57.016Z</time>
      </trkpt>
      <trkpt lat="44.23236" lon="3.65609">
        <ele>808.73</ele>
        <time>2024-11-05T10:42:01.105Z</time>
      </trkpt>
      <trkpt lat="44.23254" lon="3.65604">
        <ele>807.61</ele>
        <time>2024-11-05T10:42:05.197Z</time>
      </trkpt>
      <trkpt lat="44.23273" lon="3.65595">
        <ele>806.2</ele>
        <time>2024-11-05T10:42:09.292Z</time>
      </trkpt>
      <trkpt lat="44.23284" lon="3.65582">
        <ele>805.09</ele>
        <time>2024-11-05T10:42:13.389Z</time>
      </trkpt>
      <trkpt lat="44.23301" lon="3.65549">
        <ele>802.87</ele>
        <time>2024-11-05T10:42:17.491Z</time>
      </trkpt>
      <trkpt lat="44.23328" lon="3.65507">
        <ele>800.52</ele>
        <time>2024-11-05T10:42:21.600Z</time>
      </trkpt>
      <trkpt lat="44.23344" lon="3.65495">
        <ele>799.68</ele>
        <time>2024-11-05T10:42:25.712Z</time>
      </trkpt>
      <trkpt lat="44.23353" lon="3.65491">
        <ele>799.34</ele>
        <time>2024-11-05T10:42:29.825Z</time>
      </trkpt>
      <trkpt lat="44.23361" lon="3.65488">
        <ele>799.06</ele>
        <time>2024-11-05T10:42:33.939Z</time>
      </trkpt>
      <trkpt lat="44.23382" lon="3.65485">
        <ele>798.62</ele>
        <time>2024-11-05T10:42:38.057Z</time>
      </trkpt>
      <trkpt lat="44.2339" lon="3.65482">
        <ele>798.32</ele>
        <time>2024-11-05T10:42:42.176Z</time>
      </trkpt>
      <trkpt lat="44.23391" lon="3.65474">
        <ele>797.98</ele>
        <time>2024-11-05T10:42:46.296Z</time>
      </trkpt>
      <trkpt lat="44.23388" lon="3.6547">
        <ele>797.68</ele>
        <time>2024-11-05T10:42:50.417Z</time>
      </trkpt>
      <trkpt lat="44.23384" lon="3.65469">
        <ele>797.36</ele>
        <time>2024-11-05T10:42:54.538Z</time>
      </trkpt>
      <trkpt lat="44.23336" lon="3.65482">
        <ele>793.86</ele>
        <time>2024-11-05T10:42:58.667Z</time>
      </trkpt>
      <trkpt lat="44.23314" lon="3.65499">
        <ele>792.26</ele>
        <time>2024-11-05T10:43:02.800Z</time>
      </trkpt>
      <trkpt lat="44.23275" lon="3.65534">
        <ele>789.26</ele>
        <time>2024-11-05T10:43:06.941Z</time>
      </trkpt>
      <trkpt lat="44.23261" lon="3.65542">
        <ele>788.28</ele>
        <time>2024-11-05T10:43:11.084Z</time>
      </trkpt>
      <trkpt lat="44.23225" lon="3.65547">
        <ele>785.87</ele>
        <time>2024-11-05T10:43:15.233Z</time>
      </trkpt>
      <trkpt lat="44.23174" lon="3.65574">
        <ele>782.72</ele>
        <time>2024-11-05T10:43:19.391Z</time>
      </trkpt>
      <trkpt lat="44.23163" lon="3.65584">
        <ele>781.96</ele>
        <time>2024-11-05T10:43:23.551Z</time>
      </trkpt>
      <trkpt lat="44.23157" lon="3.65594">
        <ele>781.38</ele>
        <time>2024-11-05T10:43:27.712Z</time>
      </trkpt>
      <trkpt lat="44.23131" lon="3.65665">
        <ele>778.09</ele>
        <time>2024-11-05T10:43:31.882Z</time>
      </trkpt>
      <trkpt lat="44.23123" lon="3.65673">
        <ele>777.47</ele>
        <time>2024-11-05T10:43:36.054Z</time>
      </trkpt>
      <trkpt lat="44.23084" lon="3.65682">
        <ele>774.81</ele>
        <time>2024-11-05T10:43:40.232Z</time>
      </trkpt>
      <trkpt lat="44.2306" lon="3.6569">
        <ele>773.28</ele>
        <time>2024-11-05T10:43:44.414Z</time>
      </trkpt>
      <trkpt lat="44.23048" lon="3.6569">
        <ele>772.55</ele>
        <time>2024-11-05T10:43:48.598Z</time>
      </trkpt>
      <trkpt lat="44.23031" lon="3.65683">
        <ele>771.55</ele>
        <time>2024-11-05T10:43:52.785Z</time>
      </trkpt>
      <trkpt lat="44.22994" lon="3.65661">
        <ele>769.51</ele>
        <time>2024-11-05T10:43:56.978Z</time>
      </trkpt>
      <trkpt lat="44.22984" lon="3.65659">
        <ele>769.03</ele>
        <time>2024-11-05T10:44:01.173Z</time>
      </trkpt>
      <trkpt lat="44.22962" lon="3.65653">
        <ele>767.54</ele>
        <time>2024-11-05T10:44:05.372Z</time>
      </trkpt>
      <trkpt lat="44.22949" lon="3.65645">
        <ele>766.55</ele>
        <time>2024-11-05T10:44:09.573Z</time>
      </trkpt>
      <trkpt lat="44.2292" lon="3.65607">
        <ele>763.91</ele>
        <time>2024-11-05T10:44:13.780Z</time>
      </trkpt>
      <trkpt lat="44.2289" lon="3.65575">
        <ele>761.85</ele>
        <time>2024-11-05T10:44:17.993Z</time>
      </trkpt>
      <trkpt lat="44.22871" lon="3.6556">
        <ele>760.76</ele>
        <time>2024-11-05T10:44:22.210Z</time>
      </trkpt>
      <trkpt lat="44.22846" lon="3.65546">
        <ele>759.28</ele>
        <time>2024-11-05T10:44:26.431Z</time>
      </trkpt>
      <trkpt lat="44.22838" lon="3.65547">
        <ele>758.75</ele>
        <time>2024-11-05T10:44:30.653Z</time>
      </trkpt>
      <trkpt lat="44.22831" lon="3.65551">
        <ele>758.19</ele>
        <time>2024-11-05T10:44:34.877Z</time>
      </trkpt>
      <trkpt lat="44.22818" lon="3.65592">
        <ele>755.78</ele>
        <time>2024-11-05T10:44:39.106Z</time>
      </trkpt>
      <trkpt lat="44.22795" lon="3.65633">
        <ele>753.26</ele>
        <time>2024-11-05T10:44:43.341Z</time>
      </trkpt>
      <trkpt lat="44.22781" lon="3.65648">
        <ele>752.29</ele>
        <time>2024-11-05T10:44:47.579Z</time>
      </trkpt>
      <trkpt lat="44.22737" lon="3.65683">
        <ele>749.98</ele>
        <time>2024-11-05T10:44:51.825Z</time>
      </trkpt>
      <trkpt lat="44.22731" lon="3.65683">
        <ele>749.63</ele>
        <time>2024-11-05T10:44:56.072Z</time>
      </trkpt>
      <trkpt lat="44.22725" lon="3.6568">
        <ele>749.15</ele>
        <time>2024-11-05T10:45:00.320Z</time>
      </trkpt>
      <trkpt lat="44.22728" lon="3.65673">
        <ele>748.7</ele>
        <time>2024-11-05T10:45:04.569Z</time>
      </trkpt>
      <trkpt lat="44.22755" lon="3.65659">
        <ele>746.48</ele>
        <time>2024-11-05T10:45:08.822Z</time>
      </trkpt>
      <trkpt lat="44.2277" lon="3.65644">
        <ele>745.23</ele>
        <time>2024-11-05T10:45:13.078Z</time>
      </trkpt>
      <trkpt lat="44.22784" lon="3.65622">
        <ele>743.88</ele>
        <time>2024-11-05T10:45:17.338Z</time>
      </trkpt>
      <trkpt lat="44.22821" lon="3.65512">
        <ele>738.22</ele>
        <time>2024-11-05T10:45:21.611Z</time>
      </trkpt>
      <trkpt lat="44.22831" lon="3.65503">
        <ele>737.39</ele>
        <time>2024-11-05T10:45:25.886Z</time>
      </trkpt>
      <trkpt lat="44.22843" lon="3.65501">
        <ele>736.47</ele>
        <time>2024-11-05T10:45:30.163Z</time>
      </trkpt>
      <trkpt lat="44.22889" lon="3.65503">
        <ele>732.84</ele>
        <time>2024-11-05T10:45:34.448Z</time>
      </trkpt>
      <trkpt lat="44.229" lon="3.65506">
        <ele>731.94</ele>
        <time>2024-11-05T10:45:38.734Z</time>
      </trkpt>
      <trkpt lat="44.2293" lon="3.65525">
        <ele>729.6</ele>
        <time>2024-11-05T10:45:43.026Z</time>
      </trkpt>
      <trkpt lat="44.22971" lon="3.65533">
        <ele>726.58</ele>
        <time>2024-11-05T10:45:47.324Z</time>
      </trkpt>
      <trkpt lat="44.22982" lon="3.6553">
        <ele>725.78</ele>
        <time>2024-11-05T10:45:51.624Z</time>
      </trkpt>
      <trkpt lat="44.22994" lon="3.65522">
        <ele>724.86</ele>
        <time>2024-11-05T10:45:55.926Z</time>
      </trkpt>
      <trkpt lat="44.23012" lon="3.65487">
        <ele>722.87</ele>
        <time>2024-11-05T10:46:00.233Z</time>
      </trkpt>
      <trkpt lat="44.2304" lon="3.65435">
        <ele>720.35</ele>
        <time>2024-11-05T10:46:04.548Z</time>
      </trkpt>
      <trkpt lat="44.23051" lon="3.65421">
        <ele>719.39</ele>
        <time>2024-11-05T10:46:08.865Z</time>
      </trkpt>
      <trkpt lat="44.23065" lon="3.65412">
        <ele>718.42</ele>
        <time>2024-11-05T10:46:13.185Z</time>
      </trkpt>
      <trkpt lat="44.23101" lon="3.65401">
        <ele>716.21</ele>
        <time>2024-11-05T10:46:17.510Z</time>
      </trkpt>
      <trkpt lat="44.23111" lon="3.65395">
        <ele>715.48</ele>
        <time>2024-11-05T10:46:21.837Z</time>
      </trkpt>
      <trkpt lat="44.23136" lon="3.65346">
        <ele>712.73</ele>
        <time>2024-11-05T10:46:26.171Z</time>
      </trkpt>
      <trkpt lat="44.23146" lon="3.65331">
        <ele>711.84</ele>
        <time>2024-11-05T10:46:30.507Z</time>
      </trkpt>
      <trkpt lat="44.23173" lon="3.65315">
        <ele>710.01</ele>
        <time>2024-11-05T10:46:34.848Z</time>
      </trkpt>
      <trkpt lat="44.23181" lon="3.65308">
        <ele>709.47</ele>
        <time>2024-11-05T10:46:39.191Z</time>
      </trkpt>
      <trkpt lat="44.23187" lon="3.65299">
        <ele>709</ele>
        <time>2024-11-05T10:46:43.535Z</time>
      </trkpt>
      <trkpt lat="44.23224" lon="3.65267">
        <ele>706.67</ele>
        <time>2024-11-05T10:46:47.886Z</time>
      </trkpt>
      <trkpt lat="44.23238" lon="3.65257">
        <ele>705.79</ele>
        <time>2024-11-05T10:46:52.240Z</time>
      </trkpt>
      <trkpt lat="44.23256" lon="3.6525">
        <ele>704.73</ele>
        <time>2024-11-05T10:46:56.597Z</time>
      </trkpt>
      <trkpt lat="44.23265" lon="3.65252">
        <ele>704.15</ele>
        <time>2024-11-05T10:47:00.955Z</time>
      </trkpt>
      <trkpt lat="44.23281" lon="3.65263">
        <ele>703.02</ele>
        <time>2024-11-05T10:47:05.316Z</time>
      </trkpt>
      <trkpt lat="44.23297" lon="3.65271">
        <ele>701.93</ele>
        <time>2024-11-05T10:47:09.680Z</time>
      </trkpt>
      <trkpt lat="44.23311" lon="3.65271">
        <ele>701.01</ele>
        <time>2024-11-05T10:47:14.046Z</time>
      </trkpt>
      <trkpt lat="44.23335" lon="3.65248">
        <ele>699.19</ele>
        <time>2024-11-05T10:47:18.417Z</time>
      </trkpt>
      <trkpt lat="44.23349" lon="3.65238">
        <ele>698.13</ele>
        <time>2024-11-05T10:47:22.790Z</time>
      </trkpt>
      <trkpt lat="44.23353" lon="3.65229">
        <ele>697.6</ele>
        <time>2024-11-05T10:47:27.164Z</time>
      </trkpt>
      <trkpt lat="44.23357" lon="3.65207">
        <ele>696.42</ele>
        <time>2024-11-05T10:47:31.541Z</time>
      </trkpt>
      <trkpt lat="44.23363" lon="3.65191">
        <ele>695.45</ele>
        <time>2024-11-05T10:47:35.920Z</time>
      </trkpt>
      <trkpt lat="44.23389" lon="3.65149">
        <ele>692.85</ele>
        <time>2024-11-05T10:47:40.305Z</time>
      </trkpt>
      <trkpt lat="44.23404" lon="3.65135">
        <ele>691.84</ele>
        <time>2024-11-05T10:47:44.693Z</time>
      </trkpt>
      <trkpt lat="44.23455" lon="3.65105">
        <ele>689.16</ele>
        <time>2024-11-05T10:47:49.090Z</time>
      </trkpt>
      <trkpt lat="44.23461" lon="3.65096">
        <ele>688.71</ele>
        <time>2024-11-05T10:47:53.488Z</time>
      </trkpt>
      <trkpt lat="44.23464" lon="3.65086">
        <ele>688.32</ele>
        <time>2024-11-05T10:47:57.888Z</time>
      </trkpt>
      <trkpt lat="44.23465" lon="3.65066">
        <ele>687.51</ele>
        <time>2024-11-05T10:48:02.290Z</time>
      </trkpt>
      <trkpt lat="44.23469" lon="3.65044">
        <ele>686.55</ele>
        <time>2024-11-05T10:48:06.695Z</time>
      </trkpt>
      <trkpt lat="44.23482" lon="3.65026">
        <ele>685.53</ele>
        <time>2024-11-05T10:48:11.103Z</time>
      </trkpt>
      <trkpt lat="44.23495" lon="3.65021">
        <ele>684.75</ele>
        <time>2024-11-05T10:48:15.513Z</time>
      </trkpt>
      <trkpt lat="44.23515" lon="3.65017">
        <ele>683.65</ele>
        <time>2024-11-05T10:48:19.926Z</time>
      </trkpt>
      <trkpt lat="44.23533" lon="3.65017">
        <ele>682.83</ele>
        <time>2024-11-05T10:48:24.342Z</time>
      </trkpt>
      <trkpt lat="44.23575" lon="3.6504">
        <ele>681.36</ele>
        <time>2024-11-05T10:48:28.765Z</time>
      </trkpt>
      <trkpt lat="44.23579" lon="3.6504">
        <ele>681.23</ele>
        <time>2024-11-05T10:48:33.189Z</time>
      </trkpt>
      <trkpt lat="44.23582" lon="3.65037">
        <ele>681.2</ele>
        <time>2024-11-05T10:48:37.613Z</time>
      </trkpt>
      <trkpt lat="44.23587" lon="3.65024">
        <ele>680.99</ele>
        <time>2024-11-05T10:48:42.039Z</time>
      </trkpt>
      <trkpt lat="44.23586" lon="3.65019">
        <ele>680.84</ele>
        <time>2024-11-05T10:48:46.466Z</time>
      </trkpt>
      <trkpt lat="44.23578" lon="3.65008">
        <ele>680.37</ele>
        <time>2024-11-05T10:48:50.894Z</time>
      </trkpt>
      <trkpt lat="44.23545" lon="3.6497">
        <ele>678.7</ele>
        <time>2024-11-05T10:48:55.329Z</time>
      </trkpt>
      <trkpt lat="44.23534" lon="3.64958">
        <ele>678.3</ele>
        <time>2024-11-05T10:48:59.766Z</time>
      </trkpt>
      <trkpt lat="44.23521" lon="3.64948">
        <ele>677.92</ele>
        <time>2024-11-05T10:49:04.206Z</time>
      </trkpt>
      <trkpt lat="44.23508" lon="3.64928">
        <ele>677.49</ele>
        <time>2024-11-05T10:49:08.649Z</time>
      </trkpt>
      <trkpt lat="44.23482" lon="3.64873">
        <ele>676.38</ele>
        <time>2024-11-05T10:49:13.100Z</time>
      </trkpt>
      <trkpt lat="44.2347" lon="3.64842">
        <ele>675.86</ele>
        <time>2024-11-05T10:49:17.555Z</time>
      </trkpt>
      <trkpt lat="44.23464" lon="3.648">
        <ele>675.37</ele>
        <time>2024-11-05T10:49:22.015Z</time>
      </trkpt>
      <trkpt lat="44.23463" lon="3.64775">
        <ele>675.06</ele>
        <time>2024-11-05T10:49:26.477Z</time>
      </trkpt>
      <trkpt lat="44.2346" lon="3.64759">
        <ele>674.86</ele>
        <time>2024-11-05T10:49:30.941Z</time>
      </trkpt>
      <trkpt lat="44.23452" lon="3.64754">
        <ele>674.75</ele>
        <time>2024-11-05T10:49:35.407Z</time>
      </trkpt>
      <trkpt lat="44.23447" lon="3.64753">
        <ele>674.42</ele>
        <time>2024-11-05T10:49:39.874Z</time>
      </trkpt>
      <trkpt lat="44.2344" lon="3.64757">
        <ele>673.89</ele>
        <time>2024-11-05T10:49:44.342Z</time>
      </trkpt>
      <trkpt lat="44.2343" lon="3.64814">
        <ele>670.63</ele>
        <time>2024-11-05T10:49:48.816Z</time>
      </trkpt>
      <trkpt lat="44.23423" lon="3.64838">
        <ele>669.23</ele>
        <time>2024-11-05T10:49:53.293Z</time>
      </trkpt>
      <trkpt lat="44.23416" lon="3.64849">
        <ele>668.49</ele>
        <time>2024-11-05T10:49:57.772Z</time>
      </trkpt>
      <trkpt lat="44.23407" lon="3.64858">
        <ele>667.75</ele>
        <time>2024-11-05T10:50:02.253Z</time>
      </trkpt>
      <trkpt lat="44.23388" lon="3.64871">
        <ele>666.24</ele>
        <time>2024-11-05T10:50:06.737Z</time>
      </trkpt>
      <trkpt lat="44.23371" lon="3.64891">
        <ele>664.57</ele>
        <time>2024-11-05T10:50:11.225Z</time>
      </trkpt>
      <trkpt lat="44.23333" lon="3.64934">
        <ele>661.4</ele>
        <time>2024-11-05T10:50:15.721Z</time>
      </trkpt>
      <trkpt lat="44.23313" lon="3.64957">
        <ele>659.54</ele>
        <time>2024-11-05T10:50:20.221Z</time>
      </trkpt>
      <trkpt lat="44.23299" lon="3.64963">
        <ele>658.46</ele>
        <time>2024-11-05T10:50:24.723Z</time>
      </trkpt>
      <trkpt lat="44.23286" lon="3.64965">
        <ele>657.53</ele>
        <time>2024-11-05T10:50:29.227Z</time>
      </trkpt>
      <trkpt lat="44.23272" lon="3.64962">
        <ele>656.53</ele>
        <time>2024-11-05T10:50:33.734Z</time>
      </trkpt>
      <trkpt lat="44.23245" lon="3.64947">
        <ele>654.64</ele>
        <time>2024-11-05T10:50:38.245Z</time>
      </trkpt>
      <trkpt lat="44.23209" lon="3.64932">
        <ele>652.34</ele>
        <time>2024-11-05T10:50:42.762Z</time>
      </trkpt>
      <trkpt lat="44.23197" lon="3.64931">
        <ele>651.55</ele>
        <time>2024-11-05T10:50:47.281Z</time>
      </trkpt>
      <trkpt lat="44.23185" lon="3.64934">
        <ele>650.68</ele>
        <time>2024-11-05T10:50:51.802Z</time>
      </trkpt>
      <trkpt lat="44.23168" lon="3.64944">
        <ele>649.24</ele>
        <time>2024-11-05T10:50:56.326Z</time>
      </trkpt>
      <trkpt lat="44.23153" lon="3.6495">
        <ele>648.03</ele>
        <time>2024-11-05T10:51:00.853Z</time>
      </trkpt>
      <trkpt lat="44.23126" lon="3.64951">
        <ele>646.23</ele>
        <time>2024-11-05T10:51:05.384Z</time>
      </trkpt>
      <trkpt lat="44.23105" lon="3.64952">
        <ele>645.02</ele>
        <time>2024-11-05T10:51:09.918Z</time>
      </trkpt>
      <trkpt lat="44.23089" lon="3.6494">
        <ele>644.03</ele>
        <time>2024-11-05T10:51:14.455Z</time>
      </trkpt>
      <trkpt lat="44.23073" lon="3.64934">
        <ele>643.05</ele>
        <time>2024-11-05T10:51:18.995Z</time>
      </trkpt>
      <trkpt lat="44.23039" lon="3.64939">
        <ele>640.97</ele>
        <time>2024-11-05T10:51:23.540Z</time>
      </trkpt>
      <trkpt lat="44.22992" lon="3.64959">
        <ele>637.51</ele>
        <time>2024-11-05T10:51:28.093Z</time>
      </trkpt>
      <trkpt lat="44.22961" lon="3.64965">
        <ele>635.64</ele>
        <time>2024-11-05T10:51:32.651Z</time>
      </trkpt>
      <trkpt lat="44.2295" lon="3.64964">
        <ele>635.19</ele>
        <time>2024-11-05T10:51:37.211Z</time>
      </trkpt>
      <trkpt lat="44.22938" lon="3.64958">
        <ele>634.76</ele>
        <time>2024-11-05T10:51:41.773Z</time>
      </trkpt>
      <trkpt lat="44.2291" lon="3.64931">
        <ele>633.81</ele>
        <time>2024-11-05T10:51:46.340Z</time>
      </trkpt>
      <trkpt lat="44.22892" lon="3.64915">
        <ele>632.92</ele>
        <time>2024-11-05T10:51:50.911Z</time>
      </trkpt>
      <trkpt lat="44.22889" lon="3.64906">
        <ele>632.53</ele>
        <time>2024-11-05T10:51:55.483Z</time>
      </trkpt>
      <trkpt lat="44.22889" lon="3.64896">
        <ele>632.12</ele>
        <time>2024-11-05T10:52:00.056Z</time>
      </trkpt>
      <trkpt lat="44.22892" lon="3.64886">
        <ele>631.69</ele>
        <time>2024-11-05T10:52:04.630Z</time>
      </trkpt>
      <trkpt lat="44.22912" lon="3.64852">
        <ele>629.93</ele>
        <time>2024-11-05T10:52:09.209Z</time>
      </trkpt>
      <trkpt lat="44.22922" lon="3.6481">
        <ele>628.24</ele>
        <time>2024-11-05T10:52:13.793Z</time>
      </trkpt>
      <trkpt lat="44.22946" lon="3.64763">
        <ele>626.14</ele>
        <time>2024-11-05T10:52:18.384Z</time>
      </trkpt>
      <trkpt lat="44.22965" lon="3.64692">
        <ele>623.32</ele>
        <time>2024-11-05T10:52:22.984Z</time>
      </trkpt>
      <trkpt lat="44.22976" lon="3.64617">
        <ele>620.83</ele>
        <time>2024-11-05T10:52:27.593Z</time>
      </trkpt>
      <trkpt lat="44.22978" lon="3.64588">
        <ele>619.89</ele>
        <time>2024-11-05T10:52:32.205Z</time>
      </trkpt>
      <trkpt lat="44.2299" lon="3.64508">
        <ele>617.56</ele>
        <time>2024-11-05T10:52:36.826Z</time>
      </trkpt>
      <trkpt lat="44.23002" lon="3.64481">
        <ele>616.73</ele>
        <time>2024-11-05T10:52:41.451Z</time>
      </trkpt>
      <trkpt lat="44.23004" lon="3.64469">
        <ele>616.35</ele>
        <time>2024-11-05T10:52:46.077Z</time>
      </trkpt>
      <trkpt lat="44.23002" lon="3.64458">
        <ele>616.02</ele>
        <time>2024-11-05T10:52:50.705Z</time>
      </trkpt>
      <trkpt lat="44.22981" lon="3.6443">
        <ele>614.73</ele>
        <time>2024-11-05T10:52:55.337Z</time>
      </trkpt>
      <trkpt lat="44.22961" lon="3.64387">
        <ele>613.16</ele>
        <time>2024-11-05T10:52:59.975Z</time>
      </trkpt>
      <trkpt lat="44.22946" lon="3.64366">
        <ele>612.38</ele>
        <time>2024-11-05T10:53:04.617Z</time>
      </trkpt>
      <trkpt lat="44.22939" lon="3.64349">
        <ele>611.83</ele>
        <time>2024-11-05T10:53:09.261Z</time>
      </trkpt>
      <trkpt lat="44.22941" lon="3.64337">
        <ele>611.42</ele>
        <time>2024-11-05T10:53:13.906Z</time>
      </trkpt>
      <trkpt lat="44.22954" lon="3.64301">
        <ele>610.06</ele>
        <time>2024-11-05T10:53:18.556Z</time>
      </trkpt>
      <trkpt lat="44.2296" lon="3.64284">
        <ele>609.64</ele>
        <time>2024-11-05T10:53:23.208Z</time>
      </trkpt>
      <trkpt lat="44.2297" lon="3.64256">
        <ele>609.39</ele>
        <time>2024-11-05T10:53:27.864Z</time>
      </trkpt>
      <trkpt lat="44.22969" lon="3.64242">
        <ele>609.39</ele>
        <time>2024-11-05T10:53:32.521Z</time>
      </trkpt>
      <trkpt lat="44.22958" lon="3.64228">
        <ele>609.34</ele>
        <time>2024-11-05T10:53:37.181Z</time>
      </trkpt>
      <trkpt lat="44.22944" lon="3.6423">
        <ele>609.24</ele>
        <time>2024-11-05T10:53:41.843Z</time>
      </trkpt>
      <trkpt lat="44.22909" lon="3.64265">
        <ele>609.41</ele>
        <time>2024-11-05T10:53:46.512Z</time>
      </trkpt>
      <trkpt lat="44.22878" lon="3.64286">
        <ele>610.11</ele>
        <time>2024-11-05T10:53:51.186Z</time>
      </trkpt>
      <trkpt lat="44.22864" lon="3.64308">
        <ele>610.69</ele>
        <time>2024-11-05T10:53:55.864Z</time>
      </trkpt>
      <trkpt lat="44.22853" lon="3.64339">
        <ele>611.32</ele>
        <time>2024-11-05T10:54:00.546Z</time>
      </trkpt>
      <trkpt lat="44.2284" lon="3.64392">
        <ele>612.13</ele>
        <time>2024-11-05T10:54:05.234Z</time>
      </trkpt>
      <trkpt lat="44.22837" lon="3.64418">
        <ele>612.54</ele>
        <time>2024-11-05T10:54:09.925Z</time>
      </trkpt>
      <trkpt lat="44.22841" lon="3.64436">
        <ele>612.93</ele>
        <time>2024-11-05T10:54:14.618Z</time>
      </trkpt>
      <trkpt lat="44.2284" lon="3.64449">
        <ele>613.19</ele>
        <time>2024-11-05T10:54:19.313Z</time>
      </trkpt>
      <trkpt lat="44.22837" lon="3.6446">
        <ele>613.41</ele>
        <time>2024-11-05T10:54:24.009Z</time>
      </trkpt>
      <trkpt lat="44.22828" lon="3.6447">
        <ele>613.72</ele>
        <time>2024-11-05T10:54:28.707Z</time>
      </trkpt>
      <trkpt lat="44.2281" lon="3.64475">
        <ele>614.17</ele>
        <time>2024-11-05T10:54:33.408Z</time>
      </trkpt>
      <trkpt lat="44.22793" lon="3.64486">
        <ele>614.57</ele>
        <time>2024-11-05T10:54:38.112Z</time>
      </trkpt>
      <trkpt lat="44.22762" lon="3.64517">
        <ele>615.36</ele>
        <time>2024-11-05T10:54:42.822Z</time>
      </trkpt>
      <trkpt lat="44.22749" lon="3.64535">
        <ele>615.52</ele>
        <time>2024-11-05T10:54:47.535Z</time>
      </trkpt>
      <trkpt lat="44.22744" lon="3.64555">
        <ele>615.56</ele>
        <time>2024-11-05T10:54:52.251Z</time>
      </trkpt>
      <trkpt lat="44.22739" lon="3.64613">
        <ele>615.97</ele>
        <time>2024-11-05T10:54:56.973Z</time>
      </trkpt>
      <trkpt lat="44.22719" lon="3.6468">
        <ele>616.25</ele>
        <time>2024-11-05T10:55:01.704Z</time>
      </trkpt>
      <trkpt lat="44.2271" lon="3.64695">
        <ele>616.26</ele>
        <time>2024-11-05T10:55:06.437Z</time>
      </trkpt>
      <trkpt lat="44.22695" lon="3.64713">
        <ele>615.87</ele>
        <time>2024-11-05T10:55:11.173Z</time>
      </trkpt>
      <trkpt lat="44.22667" lon="3.64766">
        <ele>613.78</ele>
        <time>2024-11-05T10:55:15.917Z</time>
      </trkpt>
      <trkpt lat="44.22636" lon="3.64817">
        <ele>612.6</ele>
        <time>2024-11-05T10:55:20.668Z</time>
      </trkpt>
      <trkpt lat="44.22627" lon="3.64829">
        <ele>612.37</ele>
        <time>2024-11-05T10:55:25.421Z</time>
      </trkpt>
      <trkpt lat="44.22591" lon="3.64868">
        <ele>611.76</ele>
        <time>2024-11-05T10:55:30.182Z</time>
      </trkpt>
      <trkpt lat="44.22561" lon="3.64906">
        <ele>610.68</ele>
        <time>2024-11-05T10:55:34.949Z</time>
      </trkpt>
      <trkpt lat="44.22528" lon="3.64961">
        <ele>609.18</ele>
        <time>2024-11-05T10:55:39.724Z</time>
      </trkpt>
      <trkpt lat="44.22515" lon="3.64983">
        <ele>608.76</ele>
        <time>2024-11-05T10:55:44.503Z</time>
      </trkpt>
      <trkpt lat="44.22505" lon="3.65007">
        <ele>608.33</ele>
        <time>2024-11-05T10:55:49.285Z</time>
      </trkpt>
      <trkpt lat="44.22495" lon="3.65024">
        <ele>607.94</ele>
        <time>2024-11-05T10:55:54.069Z</time>
      </trkpt>
      <trkpt lat="44.22471" lon="3.65045">
        <ele>607.19</ele>
        <time>2024-11-05T10:55:58.858Z</time>
      </trkpt>
      <trkpt lat="44.22416" lon="3.65091">
        <ele>606.16</ele>
        <time>2024-11-05T10:56:03.657Z</time>
      </trkpt>
      <trkpt lat="44.22394" lon="3.65115">
        <ele>605.64</ele>
        <time>2024-11-05T10:56:08.461Z</time>
      </trkpt>
      <trkpt lat="44.22382" lon="3.65124">
        <ele>605.42</ele>
        <time>2024-11-05T10:56:13.267Z</time>
      </trkpt>
      <trkpt lat="44.22331" lon="3.65146">
        <ele>604.58</ele>
        <time>2024-11-05T10:56:18.081Z</time>
      </trkpt>
      <trkpt lat="44.22271" lon="3.65183">
        <ele>603.33</ele>
        <time>2024-11-05T10:56:22.906Z</time>
      </trkpt>
      <trkpt lat="44.22256" lon="3.65188">
        <ele>603.11</ele>
        <time>2024-11-05T10:56:27.733Z</time>
      </trkpt>
      <trkpt lat="44.22242" lon="3.65188">
        <ele>602.86</ele>
        <time>2024-11-05T10:56:32.563Z</time>
      </trkpt>
      <trkpt lat="44.22221" lon="3.65184">
        <ele>602.46</ele>
        <time>2024-11-05T10:56:37.396Z</time>
      </trkpt>
      <trkpt lat="44.22212" lon="3.65186">
        <ele>602.28</ele>
        <time>2024-11-05T10:56:42.230Z</time>
      </trkpt>
      <trkpt lat="44.22205" lon="3.6519">
        <ele>602.12</ele>
        <time>2024-11-05T10:56:47.066Z</time>
      </trkpt>
      <trkpt lat="44.22199" lon="3.65202">
        <ele>601.93</ele>
        <time>2024-11-05T10:56:51.903Z</time>
      </trkpt>
      <trkpt lat="44.22191" lon="3.65239">
        <ele>601.73</ele>
        <time>2024-11-05T10:56:56.745Z</time>
      </trkpt>
      <trkpt lat="44.22185" lon="3.65253">
        <ele>601.69</ele>
        <time>2024-11-05T10:57:01.589Z</time>
      </trkpt>
      <trkpt lat="44.22177" lon="3.65264">
        <ele>601.73</ele>
        <time>2024-11-05T10:57:06.434Z</time>
      </trkpt>
      <trkpt lat="44.22168" lon="3.65272">
        <ele>601.84</ele>
        <time>2024-11-05T10:57:11.281Z</time>
      </trkpt>
      <trkpt lat="44.22161" lon="3.65275">
        <ele>601.93</ele>
        <time>2024-11-05T10:57:16.129Z</time>
      </trkpt>
      <trkpt lat="44.22148" lon="3.65273">
        <ele>602.1</ele>
        <time>2024-11-05T10:57:20.979Z</time>
      </trkpt>
      <trkpt lat="44.22142" lon="3.65268">
        <ele>602.19</ele>
        <time>2024-11-05T10:57:25.831Z</time>
      </trkpt>
      <trkpt lat="44.22137" lon="3.65257">
        <ele>602.24</ele>
        <time>2024-11-05T10:57:30.684Z</time>
      </trkpt>
      <trkpt lat="44.22136" lon="3.65245">
        <ele>602.25</ele>
        <time>2024-11-05T10:57:35.538Z</time>
      </trkpt>
      <trkpt lat="44.22136" lon="3.65185">
        <ele>602.6</ele>
        <time>2024-11-05T10:57:40.399Z</time>
      </trkpt>
      <trkpt lat="44.22131" lon="3.65123">
        <ele>603.28</ele>
        <time>2024-11-05T10:57:45.267Z</time>
      </trkpt>
      <trkpt lat="44.22134" lon="3.65055">
        <ele>603.93</ele>
        <time>2024-11-05T10:57:50.143Z</time>
      </trkpt>
      <trkpt lat="44.2213" lon="3.65039">
        <ele>604.09</ele>
        <time>2024-11-05T10:57:55.021Z</time>
      </trkpt>
      <trkpt lat="44.22126" lon="3.6503">
        <ele>604.19</ele>
        <time>2024-11-05T10:57:59.901Z</time>
      </trkpt>
      <trkpt lat="44.22118" lon="3.65023">
        <ele>604.33</ele>
        <time>2024-11-05T10:58:04.782Z</time>
      </trkpt>
      <trkpt lat="44.22073" lon="3.65007">
        <ele>605.03</ele>
        <time>2024-11-05T10:58:09.670Z</time>
      </trkpt>
      <trkpt lat="44.22029" lon="3.64979">
        <ele>606.4</ele>
        <time>2024-11-05T10:58:14.566Z</time>
      </trkpt>
      <trkpt lat="44.22023" lon="3.6497">
        <ele>606.63</ele>
        <time>2024-11-05T10:58:19.464Z</time>
      </trkpt>
      <trkpt lat="44.22019" lon="3.64956">
        <ele>606.93</ele>
        <time>2024-11-05T10:58:24.363Z</time>
      </trkpt>
      <trkpt lat="44.22014" lon="3.64908">
        <ele>607.86</ele>
        <time>2024-11-05T10:58:29.268Z</time>
      </trkpt>
      <trkpt lat="44.22012" lon="3.64859">
        <ele>608.64</ele>
        <time>2024-11-05T10:58:34.179Z</time>
      </trkpt>
      <trkpt lat="44.22012" lon="3.64781">
        <ele>609.73</ele>
        <time>2024-11-05T10:58:39.099Z</time>
      </trkpt>
      <trkpt lat="44.22017" lon="3.64733">
        <ele>610.35</ele>
        <time>2024-11-05T10:58:44.024Z</time>
      </trkpt>
      <trkpt lat="44.22017" lon="3.64708">
        <ele>610.74</ele>
        <time>2024-11-05T10:58:48.952Z</time>
      </trkpt>
      <trkpt lat="44.22027" lon="3.64656">
        <ele>611.82</ele>
        <time>2024-11-05T10:58:53.886Z</time>
      </trkpt>
      <trkpt lat="44.22028" lon="3.64615">
        <ele>612.72</ele>
        <time>2024-11-05T10:58:58.825Z</time>
      </trkpt>
      <trkpt lat="44.22024" lon="3.64584">
        <ele>613.47</ele>
        <time>2024-11-05T10:59:03.768Z</time>
      </trkpt>
      <trkpt lat="44.22015" lon="3.64573">
        <ele>613.7</ele>
        <time>2024-11-05T10:59:08.712Z</time>
      </trkpt>
      <trkpt lat="44.22009" lon="3.64573">
        <ele>613.73</ele>
        <time>2024-11-05T10:59:13.657Z</time>
      </trkpt>
      <trkpt lat="44.21997" lon="3.64585">
        <ele>613.92</ele>
        <time>2024-11-05T10:59:18.605Z</time>
      </trkpt>
      <trkpt lat="44.21983" lon="3.64621">
        <ele>614.91</ele>
        <time>2024-11-05T10:59:23.557Z</time>
      </trkpt>
      <trkpt lat="44.21974" lon="3.64646">
        <ele>615.81</ele>
        <time>2024-11-05T10:59:28.513Z</time>
      </trkpt>
      <trkpt lat="44.21969" lon="3.64655">
        <ele>616.21</ele>
        <time>2024-11-05T10:59:33.470Z</time>
      </trkpt>
      <trkpt lat="44.21952" lon="3.6467">
        <ele>617.26</ele>
        <time>2024-11-05T10:59:38.430Z</time>
      </trkpt>
      <trkpt lat="44.21943" lon="3.64672">
        <ele>617.75</ele>
        <time>2024-11-05T10:59:43.392Z</time>
      </trkpt>
      <trkpt lat="44.21934" lon="3.64672">
        <ele>618.22</ele>
        <time>2024-11-05T10:59:48.355Z</time>
      </trkpt>
      <trkpt lat="44.21924" lon="3.64669">
        <ele>618.77</ele>
        <time>2024-11-05T10:59:53.320Z</time>
      </trkpt>
      <trkpt lat="44.21886" lon="3.64645">
        <ele>621.07</ele>
        <time>2024-11-05T10:59:58.291Z</time>
      </trkpt>
      <trkpt lat="44.21871" lon="3.64639">
        <ele>621.95</ele>
        <time>2024-11-05T11:00:03.265Z</time>
      </trkpt>
      <trkpt lat="44.2186" lon="3.64638">
        <ele>622.55</ele>
        <time>2024-11-05T11:00:08.241Z</time>
      </trkpt>
      <trkpt lat="44.21798" lon="3.64644">
        <ele>626.07</ele>
        <time>2024-11-05T11:00:13.227Z</time>
      </trkpt>
      <trkpt lat="44.21774" lon="3.64644">
        <ele>627.58</ele>
        <time>2024-11-05T11:00:18.216Z</time>
      </trkpt>
      <trkpt lat="44.21757" lon="3.64635">
        <ele>628.88</ele>
        <time>2024-11-05T11:00:23.208Z</time>
      </trkpt>
      <trkpt lat="44.21752" lon="3.64631">
        <ele>628.94</ele>
        <time>2024-11-05T11:00:28.201Z</time>
      </trkpt>
      <trkpt lat="44.21745" lon="3.6463">
        <ele>629.03</ele>
        <time>2024-11-05T11:00:33.195Z</time>
      </trkpt>
      <trkpt lat="44.21736" lon="3.64633">
        <ele>629.15</ele>
        <time>2024-11-05T11:00:38.191Z</time>
      </trkpt>
      <trkpt lat="44.21733" lon="3.6464">
        <ele>629.5</ele>
        <time>2024-11-05T11:00:43.188Z</time>
      </trkpt>
      <trkpt lat="44.21733" lon="3.64654">
        <ele>630.15</ele>
        <time>2024-11-05T11:00:48.186Z</time>
      </trkpt>
      <trkpt lat="44.21738" lon="3.64676">
        <ele>631.24</ele>
        <time>2024-11-05T11:00:53.187Z</time>
      </trkpt>
      <trkpt lat="44.21749" lon="3.64695">
        <ele>632.43</ele>
        <time>2024-11-05T11:00:58.191Z</time>
      </trkpt>
      <trkpt lat="44.21762" lon="3.6471">
        <ele>633.79</ele>
        <time>2024-11-05T11:01:03.198Z</time>
      </trkpt>
      <trkpt lat="44.21799" lon="3.64739">
        <ele>637.22</ele>
        <time>2024-11-05T11:01:08.211Z</time>
      </trkpt>
      <trkpt lat="44.2181" lon="3.64752">
        <ele>638.47</ele>
        <time>2024-11-05T11:01:13.227Z</time>
      </trkpt>
      <trkpt lat="44.21818" lon="3.64768">
        <ele>639.76</ele>
        <time>2024-11-05T11:01:18.245Z</time>
      </trkpt>
      <trkpt lat="44.21816" lon="3.64775">
        <ele>640.29</ele>
        <time>2024-11-05T11:01:23.264Z</time>
      </trkpt>
      <trkpt lat="44.21811" lon="3.6478">
        <ele>640.74</ele>
        <time>2024-11-05T11:01:28.284Z</time>
      </trkpt>
      <trkpt lat="44.21808" lon="3.6478">
        <ele>641</ele>
        <time>2024-11-05T11:01:33.304Z</time>
      </trkpt>
      <trkpt lat="44.21804" lon="3.6478">
        <ele>641.26</ele>
        <time>2024-11-05T11:01:38.325Z</time>
      </trkpt>
      <trkpt lat="44.21776" lon="3.64768">
        <ele>643.09</ele>
        <time>2024-11-05T11:01:43.351Z</time>
      </trkpt>
      <trkpt lat="44.21768" lon="3.64768">
        <ele>643.59</ele>
        <time>2024-11-05T11:01:48.378Z</time>
      </trkpt>
      <trkpt lat="44.21751" lon="3.64773">
        <ele>644.77</ele>
        <time>2024-11-05T11:01:53.408Z</time>
      </trkpt>
      <trkpt lat="44.21702" lon="3.64797">
        <ele>648.49</ele>
        <time>2024-11-05T11:01:58.446Z</time>
      </trkpt>
      <trkpt lat="44.2169" lon="3.648">
        <ele>649.43</ele>
        <time>2024-11-05T11:02:03.486Z</time>
      </trkpt>
      <trkpt lat="44.2168" lon="3.64799">
        <ele>650.2</ele>
        <time>2024-11-05T11:02:08.528Z</time>
      </trkpt>
      <trkpt lat="44.21655" lon="3.6479">
        <ele>652.22</ele>
        <time>2024-11-05T11:02:13.574Z</time>
      </trkpt>
      <trkpt lat="44.21636" lon="3.6478">
        <ele>653.84</ele>
        <time>2024-11-05T11:02:18.623Z</time>
      </trkpt>
      <trkpt lat="44.21623" lon="3.64769">
        <ele>655.05</ele>
        <time>2024-11-05T11:02:23.674Z</time>
      </trkpt>
      <trkpt lat="44.21616" lon="3.64758">
        <ele>655.87</ele>
        <time>2024-11-05T11:02:28.727Z</time>
      </trkpt>
      <trkpt lat="44.21602" lon="3.64748">
        <ele>657.06</ele>
        <time>2024-11-05T11:02:33.783Z</time>
      </trkpt>
      <trkpt lat="44.21573" lon="3.64736">
        <ele>659.42</ele>
        <time>2024-11-05T11:02:38.843Z</time>
      </trkpt>
      <trkpt lat="44.21565" lon="3.64729">
        <ele>660.16</ele>
        <time>2024-11-05T11:02:43.905Z</time>
      </trkpt>
      <trkpt lat="44.21556" lon="3.64714">
        <ele>661.3</ele>
        <time>2024-11-05T11:02:48.969Z</time>
      </trkpt>
      <trkpt lat="44.21542" lon="3.64684">
        <ele>663.14</ele>
        <time>2024-11-05T11:02:54.037Z</time>
      </trkpt>
      <trkpt lat="44.21535" lon="3.64677">
        <ele>663.74</ele>
        <time>2024-11-05T11:02:59.107Z</time>
      </trkpt>
      <trkpt lat="44.21511" lon="3.64663">
        <ele>665.63</ele>
        <time>2024-11-05T11:03:04.181Z</time>
      </trkpt>
      <trkpt lat="44.21473" lon="3.64655">
        <ele>668.58</ele>
        <time>2024-11-05T11:03:09.261Z</time>
      </trkpt>
      <trkpt lat="44.21418" lon="3.64637">
        <ele>672.74</ele>
        <time>2024-11-05T11:03:14.350Z</time>
      </trkpt>
      <trkpt lat="44.21381" lon="3.64613">
        <ele>675.16</ele>
        <time>2024-11-05T11:03:19.446Z</time>
      </trkpt>
      <trkpt lat="44.2137" lon="3.64603">
        <ele>675.9</ele>
        <time>2024-11-05T11:03:24.544Z</time>
      </trkpt>
      <trkpt lat="44.21364" lon="3.64598">
        <ele>676.07</ele>
        <time>2024-11-05T11:03:29.643Z</time>
      </trkpt>
      <trkpt lat="44.2136" lon="3.64596">
        <ele>676.2</ele>
        <time>2024-11-05T11:03:34.742Z</time>
      </trkpt>
      <trkpt lat="44.21354" lon="3.64597">
        <ele>676.4</ele>
        <time>2024-11-05T11:03:39.842Z</time>
      </trkpt>
      <trkpt lat="44.21347" lon="3.64603">
        <ele>676.65</ele>
        <time>2024-11-05T11:03:44.944Z</time>
      </trkpt>
      <trkpt lat="44.21343" lon="3.6461">
        <ele>676.73</ele>
        <time>2024-11-05T11:03:50.047Z</time>
      </trkpt>
      <trkpt lat="44.21339" lon="3.64618">
        <ele>677.1</ele>
        <time>2024-11-05T11:03:55.151Z</time>
      </trkpt>
      <trkpt lat="44.2134" lon="3.64638">
        <ele>677.93</ele>
        <time>2024-11-05T11:04:00.257Z</time>
      </trkpt>
      <trkpt lat="44.21346" lon="3.64662">
        <ele>679.21</ele>
        <time>2024-11-05T11:04:05.366Z</time>
      </trkpt>
      <trkpt lat="44.21362" lon="3.64695">
        <ele>681.16</ele>
        <time>2024-11-05T11:04:10.480Z</time>
      </trkpt>
      <trkpt lat="44.21376" lon="3.64752">
        <ele>684.25</ele>
        <time>2024-11-05T11:04:15.601Z</time>
      </trkpt>
      <trkpt lat="44.2138" lon="3.64782">
        <ele>685.96</ele>
        <time>2024-11-05T11:04:20.725Z</time>
      </trkpt>
      <trkpt lat="44.21373" lon="3.64838">
        <ele>689.3</ele>
        <time>2024-11-05T11:04:25.856Z</time>
      </trkpt>
      <trkpt lat="44.21373" lon="3.64857">
        <ele>690.41</ele>
        <time>2024-11-05T11:04:30.989Z</time>
      </trkpt>
      <trkpt lat="44.21378" lon="3.64876">
        <ele>691.58</ele>
        <time>2024-11-05T11:04:36.124Z</time>
      </trkpt>
      <trkpt lat="44.21388" lon="3.64889">
        <ele>692.65</ele>
        <time>2024-11-05T11:04:41.261Z</time>
      </trkpt>
      <trkpt lat="44.21406" lon="3.64904">
        <ele>694.07</ele>
        <time>2024-11-05T11:04:46.402Z</time>
      </trkpt>
      <trkpt lat="44.21419" lon="3.64908">
        <ele>694.97</ele>
        <time>2024-11-05T11:04:51.545Z</time>
      </trkpt>
      <trkpt lat="44.21436" lon="3.64918">
        <ele>696.43</ele>
        <time>2024-11-05T11:04:56.691Z</time>
      </trkpt>
      <trkpt lat="44.21438" lon="3.64931">
        <ele>697.25</ele>
        <time>2024-11-05T11:05:01.838Z</time>
      </trkpt>
      <trkpt lat="44.21435" lon="3.64941">
        <ele>697.9</ele>
        <time>2024-11-05T11:05:06.987Z</time>
      </trkpt>
      <trkpt lat="44.21431" lon="3.64946">
        <ele>698.35</ele>
        <time>2024-11-05T11:05:12.136Z</time>
      </trkpt>
      <trkpt lat="44.2141" lon="3.64969">
        <ele>700.38</ele>
        <time>2024-11-05T11:05:17.290Z</time>
      </trkpt>
      <trkpt lat="44.21376" lon="3.65004">
        <ele>703.11</ele>
        <time>2024-11-05T11:05:22.451Z</time>
      </trkpt>
      <trkpt lat="44.21346" lon="3.65011">
        <ele>705.15</ele>
        <time>2024-11-05T11:05:27.616Z</time>
      </trkpt>
      <trkpt lat="44.21328" lon="3.65025">
        <ele>706.61</ele>
        <time>2024-11-05T11:05:32.785Z</time>
      </trkpt>
      <trkpt lat="44.21313" lon="3.65044">
        <ele>708.2</ele>
        <time>2024-11-05T11:05:37.957Z</time>
      </trkpt>
      <trkpt lat="44.21305" lon="3.65061">
        <ele>709.27</ele>
        <time>2024-11-05T11:05:43.131Z</time>
      </trkpt>
      <trkpt lat="44.21303" lon="3.65077">
        <ele>710</ele>
        <time>2024-11-05T11:05:48.307Z</time>
      </trkpt>
      <trkpt lat="44.21312" lon="3.65089">
        <ele>710.65</ele>
        <time>2024-11-05T11:05:53.485Z</time>
      </trkpt>
      <trkpt lat="44.21345" lon="3.65096">
        <ele>712.32</ele>
        <time>2024-11-05T11:05:58.668Z</time>
      </trkpt>
      <trkpt lat="44.21361" lon="3.65103">
        <ele>713.41</ele>
        <time>2024-11-05T11:06:03.854Z</time>
      </trkpt>
      <trkpt lat="44.21372" lon="3.6511">
        <ele>714.34</ele>
        <time>2024-11-05T11:06:09.042Z</time>
      </trkpt>
      <trkpt lat="44.21378" lon="3.65118">
        <ele>714.98</ele>
        <time>2024-11-05T11:06:14.231Z</time>
      </trkpt>
      <trkpt lat="44.21382" lon="3.65127">
        <ele>715.54</ele>
        <time>2024-11-05T11:06:19.422Z</time>
      </trkpt>
      <trkpt lat="44.21399" lon="3.65203">
        <ele>719.31</ele>
        <time>2024-11-05T11:06:24.622Z</time>
      </trkpt>
      <trkpt lat="44.21408" lon="3.65241">
        <ele>721.39</ele>
        <time>2024-11-05T11:06:29.826Z</time>
      </trkpt>
      <trkpt lat="44.21406" lon="3.65264">
        <ele>722.58</ele>
        <time>2024-11-05T11:06:35.033Z</time>
      </trkpt>
      <trkpt lat="44.21404" lon="3.65288">
        <ele>723.53</ele>
        <time>2024-11-05T11:06:40.243Z</time>
      </trkpt>
      <trkpt lat="44.21395" lon="3.65322">
        <ele>724.75</ele>
        <time>2024-11-05T11:06:45.457Z</time>
      </trkpt>
      <trkpt lat="44.21401" lon="3.65343">
        <ele>725.65</ele>
        <time>2024-11-05T11:06:50.674Z</time>
      </trkpt>
      <trkpt lat="44.21433" lon="3.65406">
        <ele>729.23</ele>
        <time>2024-11-05T11:06:55.900Z</time>
      </trkpt>
      <trkpt lat="44.21434" lon="3.65428">
        <ele>730.07</ele>
        <time>2024-11-05T11:07:01.128Z</time>
      </trkpt>
      <trkpt lat="44.2143" lon="3.65448">
        <ele>730.89</ele>
        <time>2024-11-05T11:07:06.358Z</time>
      </trkpt>
      <trkpt lat="44.21411" lon="3.65472">
        <ele>732.49</ele>
        <time>2024-11-05T11:07:11.593Z</time>
      </trkpt>
      <trkpt lat="44.21345" lon="3.65522">
        <ele>737.59</ele>
        <time>2024-11-05T11:07:16.840Z</time>
      </trkpt>
      <trkpt lat="44.21325" lon="3.65523">
        <ele>738.88</ele>
        <time>2024-11-05T11:07:22.090Z</time>
      </trkpt>
      <trkpt lat="44.21313" lon="3.65533">
        <ele>739.73</ele>
        <time>2024-11-05T11:07:27.342Z</time>
      </trkpt>
      <trkpt lat="44.21304" lon="3.65566">
        <ele>741.18</ele>
        <time>2024-11-05T11:07:32.598Z</time>
      </trkpt>
      <trkpt lat="44.21273" lon="3.6562">
        <ele>743.94</ele>
        <time>2024-11-05T11:07:37.862Z</time>
      </trkpt>
      <trkpt lat="44.2121" lon="3.65701">
        <ele>749.47</ele>
        <time>2024-11-05T11:07:43.140Z</time>
      </trkpt>
      <trkpt lat="44.21184" lon="3.65723">
        <ele>751.67</ele>
        <time>2024-11-05T11:07:48.423Z</time>
      </trkpt>
      <trkpt lat="44.21159" lon="3.6572">
        <ele>753.67</ele>
        <time>2024-11-05T11:07:53.710Z</time>
      </trkpt>
      <trkpt lat="44.21119" lon="3.6569">
        <ele>757.31</ele>
        <time>2024-11-05T11:07:59.004Z</time>
      </trkpt>
      <trkpt lat="44.21091" lon="3.65669">
        <ele>759.59</ele>
        <time>2024-11-05T11:08:04.303Z</time>
      </trkpt>
      <trkpt lat="44.2107" lon="3.65665">
        <ele>761.02</ele>
        <time>2024-11-05T11:08:09.605Z</time>
      </trkpt>
      <trkpt lat="44.21043" lon="3.65702">
        <ele>762.87</ele>
        <time>2024-11-05T11:08:14.913Z</time>
      </trkpt>
      <trkpt lat="44.2102" lon="3.65714">
        <ele>764.37</ele>
        <time>2024-11-05T11:08:20.225Z</time>
      </trkpt>
      <trkpt lat="44.21006" lon="3.65712">
        <ele>765.5</ele>
        <time>2024-11-05T11:08:25.540Z</time>
      </trkpt>
      <trkpt lat="44.20969" lon="3.65708">
        <ele>769.31</ele>
        <time>2024-11-05T11:08:30.861Z</time>
      </trkpt>
      <trkpt lat="44.20944" lon="3.65687">
        <ele>771.94</ele>
        <time>2024-11-05T11:08:36.186Z</time>
      </trkpt>
      <trkpt lat="44.20921" lon="3.65678">
        <ele>773.9</ele>
        <time>2024-11-05T11:08:41.515Z</time>
      </trkpt>
      <trkpt lat="44.20909" lon="3.65696">
        <ele>775.05</ele>
        <time>2024-11-05T11:08:46.847Z</time>
      </trkpt>
      <trkpt lat="44.20904" lon="3.65738">
        <ele>776.68</ele>
        <time>2024-11-05T11:08:52.184Z</time>
      </trkpt>
      <trkpt lat="44.20831" lon="3.65827">
        <ele>782.92</ele>
        <time>2024-11-05T11:08:57.536Z</time>
      </trkpt>
      <trkpt lat="44.20785" lon="3.65856">
        <ele>786.62</ele>
        <time>2024-11-05T11:09:02.896Z</time>
      </trkpt>
      <trkpt lat="44.20741" lon="3.65883">
        <ele>789.75</ele>
        <time>2024-11-05T11:09:08.264Z</time>
      </trkpt>
      <trkpt lat="44.20713" lon="3.65903">
        <ele>791.93</ele>
        <time>2024-11-05T11:09:13.637Z</time>
      </trkpt>
      <trkpt lat="44.20702" lon="3.65925">
        <ele>793.15</ele>
        <time>2024-11-05T11:09:19.013Z</time>
      </trkpt>
      <trkpt lat="44.20693" lon="3.65941">
        <ele>793.84</ele>
        <time>2024-11-05T11:09:24.392Z</time>
      </trkpt>
      <trkpt lat="44.20682" lon="3.6595">
        <ele>794.25</ele>
        <time>2024-11-05T11:09:29.773Z</time>
      </trkpt>
      <trkpt lat="44.20678" lon="3.65949">
        <ele>794.29</ele>
        <time>2024-11-05T11:09:35.154Z</time>
      </trkpt>
      <trkpt lat="44.20676" lon="3.65949">
        <ele>794.27</ele>
        <time>2024-11-05T11:09:40.536Z</time>
      </trkpt>
      <trkpt lat="44.20668" lon="3.65938">
        <ele>794.05</ele>
        <time>2024-11-05T11:09:45.919Z</time>
      </trkpt>
      <trkpt lat="44.20671" lon="3.659">
        <ele>792.88</ele>
        <time>2024-11-05T11:09:51.307Z</time>
      </trkpt>
      <trkpt lat="44.20673" lon="3.65875">
        <ele>791.95</ele>
        <time>2024-11-05T11:09:56.698Z</time>
      </trkpt>
      <trkpt lat="44.20675" lon="3.65825">
        <ele>789.62</ele>
        <time>2024-11-05T11:10:02.094Z</time>
      </trkpt>
      <trkpt lat="44.20676" lon="3.65788">
        <ele>788.1</ele>
        <time>2024-11-05T11:10:07.495Z</time>
      </trkpt>
      <trkpt lat="44.20678" lon="3.65732">
        <ele>786.37</ele>
        <time>2024-11-05T11:10:12.902Z</time>
      </trkpt>
      <trkpt lat="44.20679" lon="3.65707">
        <ele>785.78</ele>
        <time>2024-11-05T11:10:18.312Z</time>
      </trkpt>
      <trkpt lat="44.20694" lon="3.65668">
        <ele>784.63</ele>
        <time>2024-11-05T11:10:23.727Z</time>
      </trkpt>
      <trkpt lat="44.20704" lon="3.6564">
        <ele>783.41</ele>
        <time>2024-11-05T11:10:29.146Z</time>
      </trkpt>
      <trkpt lat="44.20692" lon="3.65584">
        <ele>781.22</ele>
        <time>2024-11-05T11:10:34.571Z</time>
      </trkpt>
      <trkpt lat="44.20686" lon="3.65535">
        <ele>779.31</ele>
        <time>2024-11-05T11:10:40.002Z</time>
      </trkpt>
      <trkpt lat="44.2069" lon="3.65499">
        <ele>778</ele>
        <time>2024-11-05T11:10:45.437Z</time>
      </trkpt>
      <trkpt lat="44.2069" lon="3.65466">
        <ele>777.25</ele>
        <time>2024-11-05T11:10:50.876Z</time>
      </trkpt>
      <trkpt lat="44.20678" lon="3.65436">
        <ele>776.95</ele>
        <time>2024-11-05T11:10:56.319Z</time>
      </trkpt>
      <trkpt lat="44.20671" lon="3.65419">
        <ele>776.53</ele>
        <time>2024-11-05T11:11:01.764Z</time>
      </trkpt>
      <trkpt lat="44.20673" lon="3.65405">
        <ele>775.94</ele>
        <time>2024-11-05T11:11:07.211Z</time>
      </trkpt>
      <trkpt lat="44.20694" lon="3.65376">
        <ele>774.08</ele>
        <time>2024-11-05T11:11:12.663Z</time>
      </trkpt>
      <trkpt lat="44.20715" lon="3.65349">
        <ele>772.57</ele>
        <time>2024-11-05T11:11:18.119Z</time>
      </trkpt>
      <trkpt lat="44.20721" lon="3.65337">
        <ele>771.99</ele>
        <time>2024-11-05T11:11:23.577Z</time>
      </trkpt>
      <trkpt lat="44.20724" lon="3.65322">
        <ele>771.44</ele>
        <time>2024-11-05T11:11:29.037Z</time>
      </trkpt>
      <trkpt lat="44.20711" lon="3.65263">
        <ele>769.48</ele>
        <time>2024-11-05T11:11:34.504Z</time>
      </trkpt>
      <trkpt lat="44.20706" lon="3.65254">
        <ele>769.01</ele>
        <time>2024-11-05T11:11:39.972Z</time>
      </trkpt>
      <trkpt lat="44.20699" lon="3.65246">
        <ele>768.39</ele>
        <time>2024-11-05T11:11:45.442Z</time>
      </trkpt>
      <trkpt lat="44.20683" lon="3.65235">
        <ele>767.11</ele>
        <time>2024-11-05T11:11:50.914Z</time>
      </trkpt>
      <trkpt lat="44.20664" lon="3.6522">
        <ele>766.26</ele>
        <time>2024-11-05T11:11:56.390Z</time>
      </trkpt>
      <trkpt lat="44.20657" lon="3.6521">
        <ele>765.79</ele>
        <time>2024-11-05T11:12:01.868Z</time>
      </trkpt>
      <trkpt lat="44.20653" lon="3.65198">
        <ele>765.2</ele>
        <time>2024-11-05T11:12:07.347Z</time>
      </trkpt>
      <trkpt lat="44.20655" lon="3.65182">
        <ele>764.58</ele>
        <time>2024-11-05T11:12:12.828Z</time>
      </trkpt>
      <trkpt lat="44.20665" lon="3.65155">
        <ele>763.47</ele>
        <time>2024-11-05T11:12:18.312Z</time>
      </trkpt>
      <trkpt lat="44.20666" lon="3.65148">
        <ele>763.17</ele>
        <time>2024-11-05T11:12:23.797Z</time>
      </trkpt>
      <trkpt lat="44.20663" lon="3.65142">
        <ele>762.86</ele>
        <time>2024-11-05T11:12:29.283Z</time>
      </trkpt>
      <trkpt lat="44.20638" lon="3.6512">
        <ele>761.41</ele>
        <time>2024-11-05T11:12:34.774Z</time>
      </trkpt>
      <trkpt lat="44.20633" lon="3.65112">
        <ele>761.14</ele>
        <time>2024-11-05T11:12:40.266Z</time>
      </trkpt>
      <trkpt lat="44.20623" lon="3.65081">
        <ele>760.56</ele>
        <time>2024-11-05T11:12:45.762Z</time>
      </trkpt>
      <trkpt lat="44.20621" lon="3.65061">
        <ele>760.35</ele>
        <time>2024-11-05T11:12:51.260Z</time>
      </trkpt>
      <trkpt lat="44.20624" lon="3.65024">
        <ele>760.16</ele>
        <time>2024-11-05T11:12:56.763Z</time>
      </trkpt>
      <trkpt lat="44.20626" lon="3.64995">
        <ele>760.27</ele>
        <time>2024-11-05T11:13:02.269Z</time>
      </trkpt>
      <trkpt lat="44.20623" lon="3.64975">
        <ele>760.44</ele>
        <time>2024-11-05T11:13:07.777Z</time>
      </trkpt>
      <trkpt lat="44.20624" lon="3.64936">
        <ele>760.83</ele>
        <time>2024-11-05T11:13:13.290Z</time>
      </trkpt>
      <trkpt lat="44.20616" lon="3.64862">
        <ele>761.55</ele>
        <time>2024-11-05T11:13:18.811Z</time>
      </trkpt>
      <trkpt lat="44.20617" lon="3.64847">
        <ele>761.69</ele>
        <time>2024-11-05T11:13:24.334Z</time>
      </trkpt>
      <trkpt lat="44.20625" lon="3.64802">
        <ele>762.2</ele>
        <time>2024-11-05T11:13:29.862Z</time>
      </trkpt>
      <trkpt lat="44.2063" lon="3.64772">
        <ele>762.75</ele>
        <time>2024-11-05T11:13:35.394Z</time>
      </trkpt>
      <trkpt lat="44.20636" lon="3.64738">
        <ele>763.74</ele>
        <time>2024-11-05T11:13:40.930Z</time>
      </trkpt>
      <trkpt lat="44.20641" lon="3.64698">
        <ele>765.09</ele>
        <time>2024-11-05T11:13:46.471Z</time>
      </trkpt>
      <trkpt lat="44.20643" lon="3.6468">
        <ele>765.53</ele>
        <time>2024-11-05T11:13:52.014Z</time>
      </trkpt>
      <trkpt lat="44.20652" lon="3.64645">
        <ele>765.87</ele>
        <time>2024-11-05T11:13:57.561Z</time>
      </trkpt>
      <trkpt lat="44.20649" lon="3.64595">
        <ele>766.02</ele>
        <time>2024-11-05T11:14:03.114Z</time>
      </trkpt>
      <trkpt lat="44.20645" lon="3.64546">
        <ele>765.74</ele>
        <time>2024-11-05T11:14:08.673Z</time>
      </trkpt>
      <trkpt lat="44.20641" lon="3.64536">
        <ele>765.71</ele>
        <time>2024-11-05T11:14:14.233Z</time>
      </trkpt>
      <trkpt lat="44.20635" lon="3.64529">
        <ele>765.72</ele>
        <time>2024-11-05T11:14:19.794Z</time>
      </trkpt>
      <trkpt lat="44.20628" lon="3.64529">
        <ele>765.74</ele>
        <time>2024-11-05T11:14:25.356Z</time>
      </trkpt>
      <trkpt lat="44.20622" lon="3.64532">
        <ele>765.77</ele>
        <time>2024-11-05T11:14:30.919Z</time>
      </trkpt>
      <trkpt lat="44.20609" lon="3.6455">
        <ele>766.07</ele>
        <time>2024-11-05T11:14:36.485Z</time>
      </trkpt>
      <trkpt lat="44.206" lon="3.64556">
        <ele>766.4</ele>
        <time>2024-11-05T11:14:42.053Z</time>
      </trkpt>
      <trkpt lat="44.20587" lon="3.6456">
        <ele>766.88</ele>
        <time>2024-11-05T11:14:47.623Z</time>
      </trkpt>
      <trkpt lat="44.20558" lon="3.64557">
        <ele>767.43</ele>
        <time>2024-11-05T11:14:53.198Z</time>
      </trkpt>
      <trkpt lat="44.20542" lon="3.64563">
        <ele>767.52</ele>
        <time>2024-11-05T11:14:58.775Z</time>
      </trkpt>
      <trkpt lat="44.20533" lon="3.64574">
        <ele>767.57</ele>
        <time>2024-11-05T11:15:04.354Z</time>
      </trkpt>
      <trkpt lat="44.20533" lon="3.64603">
        <ele>767.63</ele>
        <time>2024-11-05T11:15:09.937Z</time>
      </trkpt>
      <trkpt lat="44.2053" lon="3.64615">
        <ele>767.67</ele>
        <time>2024-11-05T11:15:15.521Z</time>
      </trkpt>
      <trkpt lat="44.20515" lon="3.64633">
        <ele>767.9</ele>
        <time>2024-11-05T11:15:21.108Z</time>
      </trkpt>
      <trkpt lat="44.20491" lon="3.64647">
        <ele>768.35</ele>
        <time>2024-11-05T11:15:26.699Z</time>
      </trkpt>
      <trkpt lat="44.20481" lon="3.6465">
        <ele>768.51</ele>
        <time>2024-11-05T11:15:32.292Z</time>
      </trkpt>
      <trkpt lat="44.20472" lon="3.64647">
        <ele>768.68</ele>
        <time>2024-11-05T11:15:37.886Z</time>
      </trkpt>
      <trkpt lat="44.20453" lon="3.64633">
        <ele>769.09</ele>
        <time>2024-11-05T11:15:43.484Z</time>
      </trkpt>
      <trkpt lat="44.20443" lon="3.64628">
        <ele>769.33</ele>
        <time>2024-11-05T11:15:49.084Z</time>
      </trkpt>
      <trkpt lat="44.20432" lon="3.64633">
        <ele>769.59</ele>
        <time>2024-11-05T11:15:54.685Z</time>
      </trkpt>
      <trkpt lat="44.20422" lon="3.64648">
        <ele>769.92</ele>
        <time>2024-11-05T11:16:00.289Z</time>
      </trkpt>
      <trkpt lat="44.20414" lon="3.64665">
        <ele>770.22</ele>
        <time>2024-11-05T11:16:05.895Z</time>
      </trkpt>
      <trkpt lat="44.20397" lon="3.64676">
        <ele>770.62</ele>
        <time>2024-11-05T11:16:11.504Z</time>
      </trkpt>
      <trkpt lat="44.20377" lon="3.64688">
        <ele>771.33</ele>
        <time>2024-11-05T11:16:17.117Z</time>
      </trkpt>
      <trkpt lat="44.20362" lon="3.64693">
        <ele>771.87</ele>
        <time>2024-11-05T11:16:22.732Z</time>
      </trkpt>
      <trkpt lat="44.20334" lon="3.64679">
        <ele>772.53</ele>
        <time>2024-11-05T11:16:28.352Z</time>
      </trkpt>
      <trkpt lat="44.20299" lon="3.64662">
        <ele>772.65</ele>
        <time>2024-11-05T11:16:33.978Z</time>
      </trkpt>
      <trkpt lat="44.20285" lon="3.64667">
        <ele>772.77</ele>
        <time>2024-11-05T11:16:39.606Z</time>
      </trkpt>
      <trkpt lat="44.20274" lon="3.64702">
        <ele>773.01</ele>
        <time>2024-11-05T11:16:45.238Z</time>
      </trkpt>
      <trkpt lat="44.20247" lon="3.64738">
        <ele>772.7</ele>
        <time>2024-11-05T11:16:50.876Z</time>
      </trkpt>
      <trkpt lat="44.20241" lon="3.64764">
        <ele>772.44</ele>
        <time>2024-11-05T11:16:56.518Z</time>
      </trkpt>
      <trkpt lat="44.20235" lon="3.6478">
        <ele>772.31</ele>
        <time>2024-11-05T11:17:02.162Z</time>
      </trkpt>
      <trkpt lat="44.20229" lon="3.64789">
        <ele>772.24</ele>
        <time>2024-11-05T11:17:07.807Z</time>
      </trkpt>
      <trkpt lat="44.20214" lon="3.64803">
        <ele>772.13</ele>
        <time>2024-11-05T11:17:13.455Z</time>
      </trkpt>
      <trkpt lat="44.20195" lon="3.6482">
        <ele>772.23</ele>
        <time>2024-11-05T11:17:19.107Z</time>
      </trkpt>
      <trkpt lat="44.20173" lon="3.64841">
        <ele>772.62</ele>
        <time>2024-11-05T11:17:24.763Z</time>
      </trkpt>
      <trkpt lat="44.20148" lon="3.64864">
        <ele>772.81</ele>
        <time>2024-11-05T11:17:30.424Z</time>
      </trkpt>
      <trkpt lat="44.20104" lon="3.64903">
        <ele>773.62</ele>
        <time>2024-11-05T11:17:36.093Z</time>
      </trkpt>
      <trkpt lat="44.20087" lon="3.64918">
        <ele>773.76</ele>
        <time>2024-11-05T11:17:41.765Z</time>
      </trkpt>
      <trkpt lat="44.20073" lon="3.64962">
        <ele>773.9</ele>
        <time>2024-11-05T11:17:47.443Z</time>
      </trkpt>
      <trkpt lat="44.20062" lon="3.64987">
        <ele>774.07</ele>
        <time>2024-11-05T11:17:53.124Z</time>
      </trkpt>
      <trkpt lat="44.20045" lon="3.65019">
        <ele>774.22</ele>
        <time>2024-11-05T11:17:58.810Z</time>
      </trkpt>
      <trkpt lat="44.20029" lon="3.65034">
        <ele>774.35</ele>
        <time>2024-11-05T11:18:04.499Z</time>
      </trkpt>
      <trkpt lat="44.19964" lon="3.65062">
        <ele>774.48</ele>
        <time>2024-11-05T11:18:10.199Z</time>
      </trkpt>
      <trkpt lat="44.19948" lon="3.65075">
        <ele>774.69</ele>
        <time>2024-11-05T11:18:15.902Z</time>
      </trkpt>
      <trkpt lat="44.1993" lon="3.65097">
        <ele>774.88</ele>
        <time>2024-11-05T11:18:21.608Z</time>
      </trkpt>
      <trkpt lat="44.19917" lon="3.65113">
        <ele>774.84</ele>
        <time>2024-11-05T11:18:27.317Z</time>
      </trkpt>
      <trkpt lat="44.19878" lon="3.65141">
        <ele>774.72</ele>
        <time>2024-11-05T11:18:33.033Z</time>
      </trkpt>
      <trkpt lat="44.19859" lon="3.65147">
        <ele>774.68</ele>
        <time>2024-11-05T11:18:38.752Z</time>
      </trkpt>
      <trkpt lat="44.19825" lon="3.65159">
        <ele>774.98</ele>
        <time>2024-11-05T11:18:44.477Z</time>
      </trkpt>
      <trkpt lat="44.19799" lon="3.65157">
        <ele>775</ele>
        <time>2024-11-05T11:18:50.206Z</time>
      </trkpt>
      <trkpt lat="44.19791" lon="3.65162">
        <ele>774.87</ele>
        <time>2024-11-05T11:18:55.937Z</time>
      </trkpt>
      <trkpt lat="44.19788" lon="3.65173">
        <ele>774.69</ele>
        <time>2024-11-05T11:19:01.669Z</time>
      </trkpt>
      <trkpt lat="44.19784" lon="3.65212">
        <ele>774.26</ele>
        <time>2024-11-05T11:19:07.405Z</time>
      </trkpt>
      <trkpt lat="44.19779" lon="3.65236">
        <ele>774.2</ele>
        <time>2024-11-05T11:19:13.144Z</time>
      </trkpt>
      <trkpt lat="44.19766" lon="3.65263">
        <ele>774.29</ele>
        <time>2024-11-05T11:19:18.887Z</time>
      </trkpt>
      <trkpt lat="44.19751" lon="3.6528">
        <ele>774.54</ele>
        <time>2024-11-05T11:19:24.633Z</time>
      </trkpt>
      <trkpt lat="44.19744" lon="3.65285">
        <ele>774.67</ele>
        <time>2024-11-05T11:19:30.380Z</time>
      </trkpt>
      <trkpt lat="44.19724" lon="3.65298">
        <ele>774.41</ele>
        <time>2024-11-05T11:19:36.131Z</time>
      </trkpt>
      <trkpt lat="44.19704" lon="3.65311">
        <ele>774.37</ele>
        <time>2024-11-05T11:19:41.886Z</time>
      </trkpt>
      <trkpt lat="44.19647" lon="3.65358">
        <ele>773.96</ele>
        <time>2024-11-05T11:19:47.651Z</time>
      </trkpt>
      <trkpt lat="44.19626" lon="3.65375">
        <ele>773.96</ele>
        <time>2024-11-05T11:19:53.420Z</time>
      </trkpt>
      <trkpt lat="44.19595" lon="3.65391">
        <ele>773.89</ele>
        <time>2024-11-05T11:19:59.194Z</time>
      </trkpt>
      <trkpt lat="44.19589" lon="3.65396">
        <ele>773.88</ele>
        <time>2024-11-05T11:20:04.969Z</time>
      </trkpt>
      <trkpt lat="44.19583" lon="3.65406">
        <ele>773.91</ele>
        <time>2024-11-05T11:20:10.746Z</time>
      </trkpt>
      <trkpt lat="44.19564" lon="3.65487">
        <ele>773.93</ele>
        <time>2024-11-05T11:20:16.533Z</time>
      </trkpt>
      <trkpt lat="44.19566" lon="3.65529">
        <ele>773.74</ele>
        <time>2024-11-05T11:20:22.325Z</time>
      </trkpt>
      <trkpt lat="44.19564" lon="3.65549">
        <ele>773.54</ele>
        <time>2024-11-05T11:20:28.119Z</time>
      </trkpt>
      <trkpt lat="44.19523" lon="3.65534">
        <ele>772.5</ele>
        <time>2024-11-05T11:20:33.920Z</time>
      </trkpt>
      <trkpt lat="44.19514" lon="3.6553">
        <ele>772.71</ele>
        <time>2024-11-05T11:20:39.722Z</time>
      </trkpt>
      <trkpt lat="44.19517" lon="3.65503">
        <ele>773.6</ele>
        <time>2024-11-05T11:20:45.527Z</time>
      </trkpt>
      <trkpt lat="44.19518" lon="3.65473">
        <ele>774.91</ele>
        <time>2024-11-05T11:20:51.336Z</time>
      </trkpt>
      <trkpt lat="44.19519" lon="3.6546">
        <ele>774.65</ele>
        <time>2024-11-05T11:20:57.146Z</time>
      </trkpt>
      <trkpt lat="44.19508" lon="3.65455">
        <ele>774.38</ele>
        <time>2024-11-05T11:21:02.958Z</time>
      </trkpt>
      <trkpt lat="44.19494" lon="3.65445">
        <ele>774.12</ele>
        <time>2024-11-05T11:21:08.773Z</time>
      </trkpt>
      <trkpt lat="44.19487" lon="3.65436">
        <ele>774.03</ele>
        <time>2024-11-05T11:21:14.589Z</time>
      </trkpt>
      <trkpt lat="44.19483" lon="3.65424">
        <ele>774</ele>
        <time>2024-11-05T11:21:20.407Z</time>
      </trkpt>
      <trkpt lat="44.19483" lon="3.6537">
        <ele>774.27</ele>
        <time>2024-11-05T11:21:26.231Z</time>
      </trkpt>
      <trkpt lat="44.19483" lon="3.65311">
        <ele>774.3</ele>
        <time>2024-11-05T11:21:32.062Z</time>
      </trkpt>
      <trkpt lat="44.19473" lon="3.65258">
        <ele>774.29</ele>
        <time>2024-11-05T11:21:37.899Z</time>
      </trkpt>
      <trkpt lat="44.19462" lon="3.65229">
        <ele>774.41</ele>
        <time>2024-11-05T11:21:43.740Z</time>
      </trkpt>
      <trkpt lat="44.19452" lon="3.6521">
        <ele>774.4</ele>
        <time>2024-11-05T11:21:49.584Z</time>
      </trkpt>
      <trkpt lat="44.19438" lon="3.65187">
        <ele>774.29</ele>
        <time>2024-11-05T11:21:55.431Z</time>
      </trkpt>
      <trkpt lat="44.19416" lon="3.65162">
        <ele>774.17</ele>
        <time>2024-11-05T11:22:01.282Z</time>
      </trkpt>
      <trkpt lat="44.19395" lon="3.65138">
        <ele>774.29</ele>
        <time>2024-11-05T11:22:07.138Z</time>
      </trkpt>
      <trkpt lat="44.1938" lon="3.65109">
        <ele>774.48</ele>
        <time>2024-11-05T11:22:12.998Z</time>
      </trkpt>
      <trkpt lat="44.19372" lon="3.65104">
        <ele>774.56</ele>
        <time>2024-11-05T11:22:18.859Z</time>
      </trkpt>
      <trkpt lat="44.19364" lon="3.65108">
        <ele>774.59</ele>
        <time>2024-11-05T11:22:24.722Z</time>
      </trkpt>
      <trkpt lat="44.19359" lon="3.65116">
        <ele>774.57</ele>
        <time>2024-11-05T11:22:30.586Z</time>
      </trkpt>
      <trkpt lat="44.1935" lon="3.65173">
        <ele>773.96</ele>
        <time>2024-11-05T11:22:36.457Z</time>
      </trkpt>
      <trkpt lat="44.19343" lon="3.65217">
        <ele>773</ele>
        <time>2024-11-05T11:22:42.333Z</time>
      </trkpt>
      <trkpt lat="44.19338" lon="3.65239">
        <ele>772.53</ele>
        <time>2024-11-05T11:22:48.212Z</time>
      </trkpt>
      <trkpt lat="44.19329" lon="3.65261">
        <ele>772.02</ele>
        <time>2024-11-05T11:22:54.093Z</time>
      </trkpt>
      <trkpt lat="44.19297" lon="3.65312">
        <ele>770.27</ele>
        <time>2024-11-05T11:22:59.982Z</time>
      </trkpt>
      <trkpt lat="44.19281" lon="3.65336">
        <ele>769.25</ele>
        <time>2024-11-05T11:23:05.875Z</time>
      </trkpt>
      <trkpt lat="44.1927" lon="3.65344">
        <ele>768.65</ele>
        <time>2024-11-05T11:23:11.770Z</time>
      </trkpt>
      <trkpt lat="44.1926" lon="3.65344">
        <ele>768.19</ele>
        <time>2024-11-05T11:23:17.667Z</time>
      </trkpt>
      <trkpt lat="44.19249" lon="3.6534">
        <ele>767.52</ele>
        <time>2024-11-05T11:23:23.565Z</time>
      </trkpt>
      <trkpt lat="44.19228" lon="3.65323">
        <ele>766.24</ele>
        <time>2024-11-05T11:23:29.467Z</time>
      </trkpt>
      <trkpt lat="44.19217" lon="3.65312">
        <ele>765.38</ele>
        <time>2024-11-05T11:23:35.371Z</time>
      </trkpt>
      <trkpt lat="44.1921" lon="3.65301">
        <ele>764.71</ele>
        <time>2024-11-05T11:23:41.277Z</time>
      </trkpt>
      <trkpt lat="44.19208" lon="3.6529">
        <ele>764.19</ele>
        <time>2024-11-05T11:23:47.184Z</time>
      </trkpt>
      <trkpt lat="44.19214" lon="3.65254">
        <ele>762.62</ele>
        <time>2024-11-05T11:23:53.096Z</time>
      </trkpt>
      <trkpt lat="44.19213" lon="3.6524">
        <ele>761.99</ele>
        <time>2024-11-05T11:23:59.009Z</time>
      </trkpt>
      <trkpt lat="44.19206" lon="3.6523">
        <ele>761.3</ele>
        <time>2024-11-05T11:24:04.924Z</time>
      </trkpt>
      <trkpt lat="44.19197" lon="3.65228">
        <ele>760.6</ele>
        <time>2024-11-05T11:24:10.840Z</time>
      </trkpt>
      <trkpt lat="44.1919" lon="3.65231">
        <ele>760.03</ele>
        <time>2024-11-05T11:24:16.758Z</time>
      </trkpt>
      <trkpt lat="44.19183" lon="3.65238">
        <ele>759.39</ele>
        <time>2024-11-05T11:24:22.677Z</time>
      </trkpt>
      <trkpt lat="44.19148" lon="3.65296">
        <ele>755.54</ele>
        <time>2024-11-05T11:24:28.605Z</time>
      </trkpt>
      <trkpt lat="44.1912" lon="3.65367">
        <ele>751.56</ele>
        <time>2024-11-05T11:24:34.542Z</time>
      </trkpt>
      <trkpt lat="44.19102" lon="3.654">
        <ele>749.51</ele>
        <time>2024-11-05T11:24:40.484Z</time>
      </trkpt>
      <trkpt lat="44.1908" lon="3.6543">
        <ele>747.38</ele>
        <time>2024-11-05T11:24:46.431Z</time>
      </trkpt>
      <trkpt lat="44.19058" lon="3.65453">
        <ele>745.73</ele>
        <time>2024-11-05T11:24:52.382Z</time>
      </trkpt>
      <trkpt lat="44.1903" lon="3.65472">
        <ele>743.85</ele>
        <time>2024-11-05T11:24:58.338Z</time>
      </trkpt>
      <trkpt lat="44.18964" lon="3.65516">
        <ele>739.03</ele>
        <time>2024-11-05T11:25:04.306Z</time>
      </trkpt>
      <trkpt lat="44.18923" lon="3.65554">
        <ele>736.59</ele>
        <time>2024-11-05T11:25:10.282Z</time>
      </trkpt>
      <trkpt lat="44.18917" lon="3.65555">
        <ele>736.22</ele>
        <time>2024-11-05T11:25:16.259Z</time>
      </trkpt>
      <trkpt lat="44.1891" lon="3.65551">
        <ele>735.67</ele>
        <time>2024-11-05T11:25:22.237Z</time>
      </trkpt>
      <trkpt lat="44.18907" lon="3.65541">
        <ele>735.05</ele>
        <time>2024-11-05T11:25:28.216Z</time>
      </trkpt>
      <trkpt lat="44.18911" lon="3.65507">
        <ele>733.14</ele>
        <time>2024-11-05T11:25:34.199Z</time>
      </trkpt>
      <trkpt lat="44.18921" lon="3.6546">
        <ele>730.8</ele>
        <time>2024-11-05T11:25:40.188Z</time>
      </trkpt>
      <trkpt lat="44.18919" lon="3.65451">
        <ele>730.28</ele>
        <time>2024-11-05T11:25:46.178Z</time>
      </trkpt>
      <trkpt lat="44.18914" lon="3.65445">
        <ele>729.85</ele>
        <time>2024-11-05T11:25:52.169Z</time>
      </trkpt>
      <trkpt lat="44.18906" lon="3.65441">
        <ele>729.19</ele>
        <time>2024-11-05T11:25:58.161Z</time>
      </trkpt>
      <trkpt lat="44.18879" lon="3.65445">
        <ele>727.18</ele>
        <time>2024-11-05T11:26:04.158Z</time>
      </trkpt>
      <trkpt lat="44.18868" lon="3.65445">
        <ele>726.49</ele>
        <time>2024-11-05T11:26:10.156Z</time>
      </trkpt>
      <trkpt lat="44.1886" lon="3.65441">
        <ele>725.99</ele>
        <time>2024-11-05T11:26:16.156Z</time>
      </trkpt>
      <trkpt lat="44.18851" lon="3.65433">
        <ele>725.36</ele>
        <time>2024-11-05T11:26:22.157Z</time>
      </trkpt>
      <trkpt lat="44.18837" lon="3.65424">
        <ele>724.32</ele>
        <time>2024-11-05T11:26:28.161Z</time>
      </trkpt>
      <trkpt lat="44.18832" lon="3.65428">
        <ele>723.88</ele>
        <time>2024-11-05T11:26:34.166Z</time>
      </trkpt>
      <trkpt lat="44.18828" lon="3.65435">
        <ele>723.39</ele>
        <time>2024-11-05T11:26:40.172Z</time>
      </trkpt>
      <trkpt lat="44.18823" lon="3.65475">
        <ele>721.27</ele>
        <time>2024-11-05T11:26:46.182Z</time>
      </trkpt>
      <trkpt lat="44.18816" lon="3.65495">
        <ele>720.18</ele>
        <time>2024-11-05T11:26:52.195Z</time>
      </trkpt>
      <trkpt lat="44.18795" lon="3.65534">
        <ele>717.87</ele>
        <time>2024-11-05T11:26:58.214Z</time>
      </trkpt>
      <trkpt lat="44.18785" lon="3.65546">
        <ele>716.97</ele>
        <time>2024-11-05T11:27:04.235Z</time>
      </trkpt>
      <trkpt lat="44.18771" lon="3.65557">
        <ele>715.88</ele>
        <time>2024-11-05T11:27:10.258Z</time>
      </trkpt>
      <trkpt lat="44.18753" lon="3.65566">
        <ele>714.58</ele>
        <time>2024-11-05T11:27:16.284Z</time>
      </trkpt>
      <trkpt lat="44.18739" lon="3.65567">
        <ele>713.66</ele>
        <time>2024-11-05T11:27:22.313Z</time>
      </trkpt>
      <trkpt lat="44.18721" lon="3.65563">
        <ele>712.52</ele>
        <time>2024-11-05T11:27:28.345Z</time>
      </trkpt>
      <trkpt lat="44.18704" lon="3.65553">
        <ele>711.41</ele>
        <time>2024-11-05T11:27:34.380Z</time>
      </trkpt>
      <trkpt lat="44.18695" lon="3.65552">
        <ele>710.86</ele>
        <time>2024-11-05T11:27:40.416Z</time>
      </trkpt>
      <trkpt lat="44.18688" lon="3.65556">
        <ele>710.38</ele>
        <time>2024-11-05T11:27:46.453Z</time>
      </trkpt>
      <trkpt lat="44.18667" lon="3.65579">
        <ele>708.54</ele>
        <time>2024-11-05T11:27:52.494Z</time>
      </trkpt>
      <trkpt lat="44.18645" lon="3.65596">
        <ele>706.97</ele>
        <time>2024-11-05T11:27:58.539Z</time>
      </trkpt>
      <trkpt lat="44.18632" lon="3.65602">
        <ele>706.15</ele>
        <time>2024-11-05T11:28:04.587Z</time>
      </trkpt>
      <trkpt lat="44.18611" lon="3.65604">
        <ele>704.84</ele>
        <time>2024-11-05T11:28:10.638Z</time>
      </trkpt>
      <trkpt lat="44.18604" lon="3.6561">
        <ele>704.28</ele>
        <time>2024-11-05T11:28:16.690Z</time>
      </trkpt>
      <trkpt lat="44.18599" lon="3.65647">
        <ele>702.45</ele>
        <time>2024-11-05T11:28:22.747Z</time>
      </trkpt>
      <trkpt lat="44.18594" lon="3.65656">
        <ele>701.92</ele>
        <time>2024-11-05T11:28:28.805Z</time>
      </trkpt>
      <trkpt lat="44.1858" lon="3.65666">
        <ele>700.8</ele>
        <time>2024-11-05T11:28:34.866Z</time>
      </trkpt>
      <trkpt lat="44.18524" lon="3.65679">
        <ele>696.81</ele>
        <time>2024-11-05T11:28:40.936Z</time>
      </trkpt>
      <trkpt lat="44.18506" lon="3.65679">
        <ele>695.68</ele>
        <time>2024-11-05T11:28:47.008Z</time>
      </trkpt>
      <trkpt lat="44.18462" lon="3.65662">
        <ele>692.68</ele>
        <time>2024-11-05T11:28:53.088Z</time>
      </trkpt>
      <trkpt lat="44.18435" lon="3.65664">
        <ele>690.97</ele>
        <time>2024-11-05T11:28:59.172Z</time>
      </trkpt>
      <trkpt lat="44.18391" lon="3.6569">
        <ele>688.14</ele>
        <time>2024-11-05T11:29:05.264Z</time>
      </trkpt>
      <trkpt lat="44.18381" lon="3.65693">
        <ele>687.48</ele>
        <time>2024-11-05T11:29:11.357Z</time>
      </trkpt>
      <trkpt lat="44.18363" lon="3.6569">
        <ele>686.25</ele>
        <time>2024-11-05T11:29:17.453Z</time>
      </trkpt>
      <trkpt lat="44.18331" lon="3.65674">
        <ele>684.01</ele>
        <time>2024-11-05T11:29:23.555Z</time>
      </trkpt>
      <trkpt lat="44.18319" lon="3.65676">
        <ele>683.2</ele>
        <time>2024-11-05T11:29:29.659Z</time>
      </trkpt>
      <trkpt lat="44.18308" lon="3.65681">
        <ele>682.42</ele>
        <time>2024-11-05T11:29:35.765Z</time>
      </trkpt>
      <trkpt lat="44.18282" lon="3.65707">
        <ele>680.35</ele>
        <time>2024-11-05T11:29:41.876Z</time>
      </trkpt>
      <trkpt lat="44.18256" lon="3.65719">
        <ele>678.49</ele>
        <time>2024-11-05T11:29:47.991Z</time>
      </trkpt>
      <trkpt lat="44.18245" lon="3.65714">
        <ele>677.72</ele>
        <time>2024-11-05T11:29:54.108Z</time>
      </trkpt>
      <trkpt lat="44.18227" lon="3.65701">
        <ele>676.67</ele>
        <time>2024-11-05T11:30:00.228Z</time>
      </trkpt>
      <trkpt lat="44.18187" lon="3.6567">
        <ele>675.13</ele>
        <time>2024-11-05T11:30:06.355Z</time>
      </trkpt>
      <trkpt lat="44.18175" lon="3.65667">
        <ele>674.69</ele>
        <time>2024-11-05T11:30:12.484Z</time>
      </trkpt>
      <trkpt lat="44.18127" lon="3.65664">
        <ele>672.54</ele>
        <time>2024-11-05T11:30:18.621Z</time>
      </trkpt>
      <trkpt lat="44.18103" lon="3.6566">
        <ele>671.17</ele>
        <time>2024-11-05T11:30:24.762Z</time>
      </trkpt>
      <trkpt lat="44.18094" lon="3.65663">
        <ele>670.48</ele>
        <time>2024-11-05T11:30:30.904Z</time>
      </trkpt>
      <trkpt lat="44.18083" lon="3.6567">
        <ele>669.61</ele>
        <time>2024-11-05T11:30:37.048Z</time>
      </trkpt>
      <trkpt lat="44.18075" lon="3.65672">
        <ele>669</ele>
        <time>2024-11-05T11:30:43.194Z</time>
      </trkpt>
      <trkpt lat="44.18038" lon="3.6567">
        <ele>666.32</ele>
        <time>2024-11-05T11:30:49.346Z</time>
      </trkpt>
      <trkpt lat="44.18008" lon="3.65679">
        <ele>664.1</ele>
        <time>2024-11-05T11:30:55.503Z</time>
      </trkpt>
      <trkpt lat="44.17998" lon="3.6568">
        <ele>663.38</ele>
        <time>2024-11-05T11:31:01.661Z</time>
      </trkpt>
      <trkpt lat="44.17988" lon="3.65678">
        <ele>662.64</ele>
        <time>2024-11-05T11:31:07.821Z</time>
      </trkpt>
      <trkpt lat="44.17952" lon="3.65663">
        <ele>659.98</ele>
        <time>2024-11-05T11:31:13.987Z</time>
      </trkpt>
      <trkpt lat="44.1794" lon="3.6565">
        <ele>658.83</ele>
        <time>2024-11-05T11:31:20.155Z</time>
      </trkpt>
      <trkpt lat="44.1793" lon="3.65636">
        <ele>657.77</ele>
        <time>2024-11-05T11:31:26.325Z</time>
      </trkpt>
      <trkpt lat="44.1791" lon="3.65602">
        <ele>655.37</ele>
        <time>2024-11-05T11:31:32.501Z</time>
      </trkpt>
      <trkpt lat="44.17896" lon="3.65591">
        <ele>654.11</ele>
        <time>2024-11-05T11:31:38.679Z</time>
      </trkpt>
      <trkpt lat="44.17889" lon="3.65588">
        <ele>653.5</ele>
        <time>2024-11-05T11:31:44.858Z</time>
      </trkpt>
      <trkpt lat="44.1788" lon="3.65588">
        <ele>652.74</ele>
        <time>2024-11-05T11:31:51.039Z</time>
      </trkpt>
      <trkpt lat="44.17866" lon="3.65593">
        <ele>651.5</ele>
        <time>2024-11-05T11:31:57.222Z</time>
      </trkpt>
      <trkpt lat="44.17851" lon="3.65604">
        <ele>650.08</ele>
        <time>2024-11-05T11:32:03.408Z</time>
      </trkpt>
      <trkpt lat="44.17837" lon="3.6561">
        <ele>648.93</ele>
        <time>2024-11-05T11:32:09.596Z</time>
      </trkpt>
      <trkpt lat="44.17822" lon="3.6561">
        <ele>647.82</ele>
        <time>2024-11-05T11:32:15.786Z</time>
      </trkpt>
      <trkpt lat="44.17796" lon="3.656">
        <ele>645.85</ele>
        <time>2024-11-05T11:32:21.981Z</time>
      </trkpt>
      <trkpt lat="44.17784" lon="3.65592">
        <ele>644.83</ele>
        <time>2024-11-05T11:32:28.178Z</time>
      </trkpt>
      <trkpt lat="44.17764" lon="3.65558">
        <ele>642.48</ele>
        <time>2024-11-05T11:32:34.380Z</time>
      </trkpt>
      <trkpt lat="44.17751" lon="3.65548">
        <ele>641.26</ele>
        <time>2024-11-05T11:32:40.584Z</time>
      </trkpt>
      <trkpt lat="44.17743" lon="3.65547">
        <ele>640.54</ele>
        <time>2024-11-05T11:32:46.790Z</time>
      </trkpt>
      <trkpt lat="44.17721" lon="3.65552">
        <ele>638.64</ele>
        <time>2024-11-05T11:32:52.999Z</time>
      </trkpt>
      <trkpt lat="44.1771" lon="3.65551">
        <ele>637.75</ele>
        <time>2024-11-05T11:32:59.210Z</time>
      </trkpt>
      <trkpt lat="44.17697" lon="3.65547">
        <ele>636.71</ele>
        <time>2024-11-05T11:33:05.423Z</time>
      </trkpt>
      <trkpt lat="44.17653" lon="3.65524">
        <ele>633.27</ele>
        <time>2024-11-05T11:33:11.644Z</time>
      </trkpt>
      <trkpt lat="44.1762" lon="3.65507">
        <ele>630.86</ele>
        <time>2024-11-05T11:33:17.870Z</time>
      </trkpt>
      <trkpt lat="44.17606" lon="3.65497">
        <ele>629.72</ele>
        <time>2024-11-05T11:33:24.099Z</time>
      </trkpt>
      <trkpt lat="44.17586" lon="3.65457">
        <ele>627.51</ele>
        <time>2024-11-05T11:33:30.333Z</time>
      </trkpt>
      <trkpt lat="44.1758" lon="3.6545">
        <ele>626.98</ele>
        <time>2024-11-05T11:33:36.569Z</time>
      </trkpt>
      <trkpt lat="44.1757" lon="3.65447">
        <ele>626.18</ele>
        <time>2024-11-05T11:33:42.806Z</time>
      </trkpt>
      <trkpt lat="44.17542" lon="3.65458">
        <ele>623.8</ele>
        <time>2024-11-05T11:33:49.048Z</time>
      </trkpt>
      <trkpt lat="44.17526" lon="3.6547">
        <ele>622.31</ele>
        <time>2024-11-05T11:33:55.293Z</time>
      </trkpt>
      <trkpt lat="44.17505" lon="3.65494">
        <ele>620.4</ele>
        <time>2024-11-05T11:34:01.542Z</time>
      </trkpt>
      <trkpt lat="44.17476" lon="3.65509">
        <ele>618.29</ele>
        <time>2024-11-05T11:34:07.796Z</time>
      </trkpt>
      <trkpt lat="44.17445" lon="3.65528">
        <ele>616.27</ele>
        <time>2024-11-05T11:34:14.056Z</time>
      </trkpt>
      <trkpt lat="44.1741" lon="3.6554">
        <ele>614.11</ele>
        <time>2024-11-05T11:34:20.321Z</time>
      </trkpt>
      <trkpt lat="44.17381" lon="3.65541">
        <ele>612.52</ele>
        <time>2024-11-05T11:34:26.591Z</time>
      </trkpt>
      <trkpt lat="44.17363" lon="3.65536">
        <ele>611.58</ele>
        <time>2024-11-05T11:34:32.864Z</time>
      </trkpt>
      <trkpt lat="44.17329" lon="3.65522">
        <ele>609.67</ele>
        <time>2024-11-05T11:34:39.143Z</time>
      </trkpt>
      <trkpt lat="44.17316" lon="3.65514">
        <ele>608.82</ele>
        <time>2024-11-05T11:34:45.424Z</time>
      </trkpt>
      <trkpt lat="44.17308" lon="3.65502">
        <ele>608.08</ele>
        <time>2024-11-05T11:34:51.707Z</time>
      </trkpt>
      <trkpt lat="44.17285" lon="3.65454">
        <ele>605.4</ele>
        <time>2024-11-05T11:34:57.996Z</time>
      </trkpt>
      <trkpt lat="44.17276" lon="3.65449">
        <ele>604.72</ele>
        <time>2024-11-05T11:35:04.287Z</time>
      </trkpt>
      <trkpt lat="44.17253" lon="3.65451">
        <ele>602.94</ele>
        <time>2024-11-05T11:35:10.582Z</time>
      </trkpt>
      <trkpt lat="44.17225" lon="3.65438">
        <ele>600.59</ele>
        <time>2024-11-05T11:35:16.881Z</time>
      </trkpt>
      <trkpt lat="44.17175" lon="3.65415">
        <ele>597.12</ele>
        <time>2024-11-05T11:35:23.189Z</time>
      </trkpt>
      <trkpt lat="44.1714" lon="3.65405">
        <ele>594.98</ele>
        <time>2024-11-05T11:35:29.502Z</time>
      </trkpt>
      <trkpt lat="44.17125" lon="3.65406">
        <ele>594.06</ele>
        <time>2024-11-05T11:35:35.818Z</time>
      </trkpt>
      <trkpt lat="44.17078" lon="3.65416">
        <ele>591.3</ele>
        <time>2024-11-05T11:35:42.142Z</time>
      </trkpt>
      <trkpt lat="44.17059" lon="3.65413">
        <ele>590.04</ele>
        <time>2024-11-05T11:35:48.469Z</time>
      </trkpt>
      <trkpt lat="44.17055" lon="3.65408">
        <ele>589.65</ele>
        <time>2024-11-05T11:35:54.796Z</time>
      </trkpt>
      <trkpt lat="44.17052" lon="3.65399">
        <ele>589.14</ele>
        <time>2024-11-05T11:36:01.125Z</time>
      </trkpt>
      <trkpt lat="44.17052" lon="3.65389">
        <ele>588.63</ele>
        <time>2024-11-05T11:36:07.455Z</time>
      </trkpt>
      <trkpt lat="44.17056" lon="3.65377">
        <ele>588</ele>
        <time>2024-11-05T11:36:13.786Z</time>
      </trkpt>
      <trkpt lat="44.17072" lon="3.6535">
        <ele>586.44</ele>
        <time>2024-11-05T11:36:20.121Z</time>
      </trkpt>
      <trkpt lat="44.17078" lon="3.65332">
        <ele>585.61</ele>
        <time>2024-11-05T11:36:26.459Z</time>
      </trkpt>
      <trkpt lat="44.17086" lon="3.65291">
        <ele>583.76</ele>
        <time>2024-11-05T11:36:32.801Z</time>
      </trkpt>
      <trkpt lat="44.17088" lon="3.65273">
        <ele>582.87</ele>
        <time>2024-11-05T11:36:39.146Z</time>
      </trkpt>
      <trkpt lat="44.17093" lon="3.65236">
        <ele>580.99</ele>
        <time>2024-11-05T11:36:45.495Z</time>
      </trkpt>
      <trkpt lat="44.17099" lon="3.65181">
        <ele>577.77</ele>
        <time>2024-11-05T11:36:51.850Z</time>
      </trkpt>
      <trkpt lat="44.17095" lon="3.65133">
        <ele>575.23</ele>
        <time>2024-11-05T11:36:58.211Z</time>
      </trkpt>
      <trkpt lat="44.17097" lon="3.6509">
        <ele>573.02</ele>
        <time>2024-11-05T11:37:04.577Z</time>
      </trkpt>
      <trkpt lat="44.17084" lon="3.65019">
        <ele>569.29</ele>
        <time>2024-11-05T11:37:10.951Z</time>
      </trkpt>
      <trkpt lat="44.17086" lon="3.64972">
        <ele>567.29</ele>
        <time>2024-11-05T11:37:17.331Z</time>
      </trkpt>
      <trkpt lat="44.17063" lon="3.64888">
        <ele>563.83</ele>
        <time>2024-11-05T11:37:23.721Z</time>
      </trkpt>
      <trkpt lat="44.17059" lon="3.6486">
        <ele>562.79</ele>
        <time>2024-11-05T11:37:30.114Z</time>
      </trkpt>
      <trkpt lat="44.17059" lon="3.64846">
        <ele>562.25</ele>
        <time>2024-11-05T11:37:36.509Z</time>
      </trkpt>
      <trkpt lat="44.17063" lon="3.64825">
        <ele>561.37</ele>
        <time>2024-11-05T11:37:42.906Z</time>
      </trkpt>
      <trkpt lat="44.17075" lon="3.64792">
        <ele>559.73</ele>
        <time>2024-11-05T11:37:49.308Z</time>
      </trkpt>
      <trkpt lat="44.17121" lon="3.64735">
        <ele>555.78</ele>
        <time>2024-11-05T11:37:55.720Z</time>
      </trkpt>
      <trkpt lat="44.17124" lon="3.64733">
        <ele>555.54</ele>
        <time>2024-11-05T11:38:02.132Z</time>
      </trkpt>
      <trkpt lat="44.17166" lon="3.64704">
        <ele>553.64</ele>
        <time>2024-11-05T11:38:08.552Z</time>
      </trkpt>
      <trkpt lat="44.17187" lon="3.64694">
        <ele>552.87</ele>
        <time>2024-11-05T11:38:14.975Z</time>
      </trkpt>
      <trkpt lat="44.17202" lon="3.64675">
        <ele>551.99</ele>
        <time>2024-11-05T11:38:21.401Z</time>
      </trkpt>
      <trkpt lat="44.17219" lon="3.64658">
        <ele>551.28</ele>
        <time>2024-11-05T11:38:27.831Z</time>
      </trkpt>
      <trkpt lat="44.17267" lon="3.64609">
        <ele>549.91</ele>
        <time>2024-11-05T11:38:34.270Z</time>
      </trkpt>
      <trkpt lat="44.17302" lon="3.6459">
        <ele>548.63</ele>
        <time>2024-11-05T11:38:40.715Z</time>
      </trkpt>
      <trkpt lat="44.17368" lon="3.64565">
        <ele>545.37</ele>
        <time>2024-11-05T11:38:47.171Z</time>
      </trkpt>
      <trkpt lat="44.17374" lon="3.6456">
        <ele>544.96</ele>
        <time>2024-11-05T11:38:53.628Z</time>
      </trkpt>
      <trkpt lat="44.17377" lon="3.64544">
        <ele>544.31</ele>
        <time>2024-11-05T11:39:00.087Z</time>
      </trkpt>
      <trkpt lat="44.17373" lon="3.64529">
        <ele>543.63</ele>
        <time>2024-11-05T11:39:06.548Z</time>
      </trkpt>
      <trkpt lat="44.17368" lon="3.64524">
        <ele>543.32</ele>
        <time>2024-11-05T11:39:13.010Z</time>
      </trkpt>
      <trkpt lat="44.17342" lon="3.64519">
        <ele>541.84</ele>
        <time>2024-11-05T11:39:19.476Z</time>
      </trkpt>
      <trkpt lat="44.17316" lon="3.64515">
        <ele>539.88</ele>
        <time>2024-11-05T11:39:25.946Z</time>
      </trkpt>
      <trkpt lat="44.17306" lon="3.64516">
        <ele>539.11</ele>
        <time>2024-11-05T11:39:32.418Z</time>
      </trkpt>
      <trkpt lat="44.17285" lon="3.64526">
        <ele>537.54</ele>
        <time>2024-11-05T11:39:38.894Z</time>
      </trkpt>
      <trkpt lat="44.17257" lon="3.6454">
        <ele>535.96</ele>
        <time>2024-11-05T11:39:45.374Z</time>
      </trkpt>
      <trkpt lat="44.17227" lon="3.64548">
        <ele>534.41</ele>
        <time>2024-11-05T11:39:51.859Z</time>
      </trkpt>
      <trkpt lat="44.17195" lon="3.64553">
        <ele>532.67</ele>
        <time>2024-11-05T11:39:58.349Z</time>
      </trkpt>
      <trkpt lat="44.17185" lon="3.64557">
        <ele>532.07</ele>
        <time>2024-11-05T11:40:04.841Z</time>
      </trkpt>
      <trkpt lat="44.17178" lon="3.64564">
        <ele>531.58</ele>
        <time>2024-11-05T11:40:11.334Z</time>
      </trkpt>
      <trkpt lat="44.17154" lon="3.64598">
        <ele>529.74</ele>
        <time>2024-11-05T11:40:17.833Z</time>
      </trkpt>
      <trkpt lat="44.17134" lon="3.64615">
        <ele>528.52</ele>
        <time>2024-11-05T11:40:24.336Z</time>
      </trkpt>
      <trkpt lat="44.17127" lon="3.64618">
        <ele>528.12</ele>
        <time>2024-11-05T11:40:30.840Z</time>
      </trkpt>
      <trkpt lat="44.17119" lon="3.64618">
        <ele>527.69</ele>
        <time>2024-11-05T11:40:37.345Z</time>
      </trkpt>
      <trkpt lat="44.17095" lon="3.64613">
        <ele>526.36</ele>
        <time>2024-11-05T11:40:43.854Z</time>
      </trkpt>
      <trkpt lat="44.17082" lon="3.64613">
        <ele>525.64</ele>
        <time>2024-11-05T11:40:50.365Z</time>
      </trkpt>
      <trkpt lat="44.17072" lon="3.64617">
        <ele>525.07</ele>
        <time>2024-11-05T11:40:56.878Z</time>
      </trkpt>
      <trkpt lat="44.17036" lon="3.64639">
        <ele>523.02</ele>
        <time>2024-11-05T11:41:03.397Z</time>
      </trkpt>
      <trkpt lat="44.17021" lon="3.64643">
        <ele>522.25</ele>
        <time>2024-11-05T11:41:09.919Z</time>
      </trkpt>
      <trkpt lat="44.17014" lon="3.6464">
        <ele>521.89</ele>
        <time>2024-11-05T11:41:16.442Z</time>
      </trkpt>
      <trkpt lat="44.17005" lon="3.64633">
        <ele>521.33</ele>
        <time>2024-11-05T11:41:22.966Z</time>
      </trkpt>
      <trkpt lat="44.16985" lon="3.64597">
        <ele>519.69</ele>
        <time>2024-11-05T11:41:29.496Z</time>
      </trkpt>
      <trkpt lat="44.1698" lon="3.64592">
        <ele>519.42</ele>
        <time>2024-11-05T11:41:36.027Z</time>
      </trkpt>
      <trkpt lat="44.16953" lon="3.64574">
        <ele>518.3</ele>
        <time>2024-11-05T11:41:42.562Z</time>
      </trkpt>
      <trkpt lat="44.16944" lon="3.64567">
        <ele>518.62</ele>
        <time>2024-11-05T11:41:49.099Z</time>
      </trkpt>
      <trkpt lat="44.16953" lon="3.64573">
        <ele>518.98</ele>
        <time>2024-11-05T11:41:55.638Z</time>
      </trkpt>
      <trkpt lat="44.16962" lon="3.6458">
        <ele>519.61</ele>
        <time>2024-11-05T11:42:02.178Z</time>
      </trkpt>
      <trkpt lat="44.16963" lon="3.64572">
        <ele>519.95</ele>
        <time>2024-11-05T11:42:08.719Z</time>
      </trkpt>
      <trkpt lat="44.16961" lon="3.64568">
        <ele>520.17</ele>
        <time>2024-11-05T11:42:15.261Z</time>
      </trkpt>
      <trkpt lat="44.1694" lon="3.64556">
        <ele>521.75</ele>
        <time>2024-11-05T11:42:21.806Z</time>
      </trkpt>
      <trkpt lat="44.16927" lon="3.64544">
        <ele>522.89</ele>
        <time>2024-11-05T11:42:28.354Z</time>
      </trkpt>
      <trkpt lat="44.16924" lon="3.64534">
        <ele>523.4</ele>
        <time>2024-11-05T11:42:34.903Z</time>
      </trkpt>
      <trkpt lat="44.16923" lon="3.64522">
        <ele>523.89</ele>
        <time>2024-11-05T11:42:41.454Z</time>
      </trkpt>
      <trkpt lat="44.16934" lon="3.64454">
        <ele>526.67</ele>
        <time>2024-11-05T11:42:48.013Z</time>
      </trkpt>
      <trkpt lat="44.16942" lon="3.64406">
        <ele>529.14</ele>
        <time>2024-11-05T11:42:54.577Z</time>
      </trkpt>
      <trkpt lat="44.16963" lon="3.64324">
        <ele>533.91</ele>
        <time>2024-11-05T11:43:01.151Z</time>
      </trkpt>
      <trkpt lat="44.16984" lon="3.64281">
        <ele>536.62</ele>
        <time>2024-11-05T11:43:07.731Z</time>
      </trkpt>
      <trkpt lat="44.16984" lon="3.64267">
        <ele>537.27</ele>
        <time>2024-11-05T11:43:14.313Z</time>
      </trkpt>
      <trkpt lat="44.16973" lon="3.64205">
        <ele>540.47</ele>
        <time>2024-11-05T11:43:20.902Z</time>
      </trkpt>
      <trkpt lat="44.16973" lon="3.64195">
        <ele>540.95</ele>
        <time>2024-11-05T11:43:27.492Z</time>
      </trkpt>
      <trkpt lat="44.16982" lon="3.6417">
        <ele>542.13</ele>
        <time>2024-11-05T11:43:34.086Z</time>
      </trkpt>
      <trkpt lat="44.16981" lon="3.64146">
        <ele>543.14</ele>
        <time>2024-11-05T11:43:40.682Z</time>
      </trkpt>
      <trkpt lat="44.16984" lon="3.64112">
        <ele>544.78</ele>
        <time>2024-11-05T11:43:47.282Z</time>
      </trkpt>
      <trkpt lat="44.16984" lon="3.64089">
        <ele>546.14</ele>
        <time>2024-11-05T11:43:53.885Z</time>
      </trkpt>
      <trkpt lat="44.16979" lon="3.64043">
        <ele>548.83</ele>
        <time>2024-11-05T11:44:00.493Z</time>
      </trkpt>
      <trkpt lat="44.1698" lon="3.64033">
        <ele>549.34</ele>
        <time>2024-11-05T11:44:07.102Z</time>
      </trkpt>
      <trkpt lat="44.1699" lon="3.64015">
        <ele>550.5</ele>
        <time>2024-11-05T11:44:13.714Z</time>
      </trkpt>
      <trkpt lat="44.16995" lon="3.63999">
        <ele>551.42</ele>
        <time>2024-11-05T11:44:20.328Z</time>
      </trkpt>
      <trkpt lat="44.17001" lon="3.63962">
        <ele>553.24</ele>
        <time>2024-11-05T11:44:26.946Z</time>
      </trkpt>
      <trkpt lat="44.1701" lon="3.63951">
        <ele>553.98</ele>
        <time>2024-11-05T11:44:33.566Z</time>
      </trkpt>
      <trkpt lat="44.1703" lon="3.63917">
        <ele>555.84</ele>
        <time>2024-11-05T11:44:40.191Z</time>
      </trkpt>
      <trkpt lat="44.17043" lon="3.63892">
        <ele>557.17</ele>
        <time>2024-11-05T11:44:46.820Z</time>
      </trkpt>
      <trkpt lat="44.17074" lon="3.6383">
        <ele>561.34</ele>
        <time>2024-11-05T11:44:53.458Z</time>
      </trkpt>
      <trkpt lat="44.17086" lon="3.638">
        <ele>563.22</ele>
        <time>2024-11-05T11:45:00.100Z</time>
      </trkpt>
      <trkpt lat="44.17088" lon="3.63787">
        <ele>563.91</ele>
        <time>2024-11-05T11:45:06.743Z</time>
      </trkpt>
      <trkpt lat="44.17082" lon="3.63769">
        <ele>564.86</ele>
        <time>2024-11-05T11:45:13.388Z</time>
      </trkpt>
      <trkpt lat="44.17083" lon="3.63698">
        <ele>568.11</ele>
        <time>2024-11-05T11:45:20.042Z</time>
      </trkpt>
      <trkpt lat="44.1708" lon="3.63676">
        <ele>569.2</ele>
        <time>2024-11-05T11:45:26.698Z</time>
      </trkpt>
      <trkpt lat="44.17077" lon="3.6366">
        <ele>569.81</ele>
        <time>2024-11-05T11:45:33.356Z</time>
      </trkpt>
      <trkpt lat="44.17075" lon="3.63641">
        <ele>570.03</ele>
        <time>2024-11-05T11:45:40.016Z</time>
      </trkpt>
      <trkpt lat="44.17075" lon="3.63635">
        <ele>570.27</ele>
        <time>2024-11-05T11:45:46.677Z</time>
      </trkpt>
      <trkpt lat="44.17088" lon="3.63612">
        <ele>571.55</ele>
        <time>2024-11-05T11:45:53.341Z</time>
      </trkpt>
      <trkpt lat="44.1711" lon="3.63599">
        <ele>572.83</ele>
        <time>2024-11-05T11:46:00.009Z</time>
      </trkpt>
      <trkpt lat="44.17116" lon="3.63592">
        <ele>573.23</ele>
        <time>2024-11-05T11:46:06.678Z</time>
      </trkpt>
      <trkpt lat="44.17131" lon="3.63556">
        <ele>574.89</ele>
        <time>2024-11-05T11:46:13.352Z</time>
      </trkpt>
      <trkpt lat="44.17144" lon="3.63531">
        <ele>576.31</ele>
        <time>2024-11-05T11:46:20.030Z</time>
      </trkpt>
      <trkpt lat="44.17166" lon="3.63507">
        <ele>578.05</ele>
        <time>2024-11-05T11:46:26.712Z</time>
      </trkpt>
      <trkpt lat="44.17166" lon="3.63497">
        <ele>578.41</ele>
        <time>2024-11-05T11:46:33.395Z</time>
      </trkpt>
      <trkpt lat="44.17164" lon="3.63489">
        <ele>578.76</ele>
        <time>2024-11-05T11:46:40.079Z</time>
      </trkpt>
      <trkpt lat="44.17135" lon="3.63469">
        <ele>580.37</ele>
        <time>2024-11-05T11:46:46.769Z</time>
      </trkpt>
      <trkpt lat="44.17128" lon="3.63457">
        <ele>580.96</ele>
        <time>2024-11-05T11:46:53.460Z</time>
      </trkpt>
      <trkpt lat="44.17114" lon="3.63396">
        <ele>583.89</ele>
        <time>2024-11-05T11:47:00.159Z</time>
      </trkpt>
      <trkpt lat="44.17115" lon="3.63382">
        <ele>584.54</ele>
        <time>2024-11-05T11:47:06.859Z</time>
      </trkpt>
      <trkpt lat="44.17135" lon="3.63335">
        <ele>586.72</ele>
        <time>2024-11-05T11:47:13.566Z</time>
      </trkpt>
      <trkpt lat="44.1714" lon="3.633">
        <ele>588.45</ele>
        <time>2024-11-05T11:47:20.277Z</time>
      </trkpt>
      <trkpt lat="44.17145" lon="3.63284">
        <ele>589.37</ele>
        <time>2024-11-05T11:47:26.990Z</time>
      </trkpt>
      <trkpt lat="44.17153" lon="3.63266">
        <ele>590.42</ele>
        <time>2024-11-05T11:47:33.705Z</time>
      </trkpt>
      <trkpt lat="44.17162" lon="3.6326">
        <ele>591.06</ele>
        <time>2024-11-05T11:47:40.422Z</time>
      </trkpt>
      <trkpt lat="44.17177" lon="3.63262">
        <ele>591.89</ele>
        <time>2024-11-05T11:47:47.141Z</time>
      </trkpt>
      <trkpt lat="44.17196" lon="3.63261">
        <ele>592.94</ele>
        <time>2024-11-05T11:47:53.863Z</time>
      </trkpt>
      <trkpt lat="44.17225" lon="3.63234">
        <ele>595.25</ele>
        <time>2024-11-05T11:48:00.591Z</time>
      </trkpt>
      <trkpt lat="44.1724" lon="3.63219">
        <ele>596.2</ele>
        <time>2024-11-05T11:48:07.322Z</time>
      </trkpt>
      <trkpt lat="44.17263" lon="3.63181">
        <ele>597.19</ele>
        <time>2024-11-05T11:48:14.058Z</time>
      </trkpt>
      <trkpt lat="44.17264" lon="3.63172">
        <ele>597.34</ele>
        <time>2024-11-05T11:48:20.796Z</time>
      </trkpt>
      <trkpt lat="44.17255" lon="3.63127">
        <ele>598.05</ele>
        <time>2024-11-05T11:48:27.539Z</time>
      </trkpt>
      <trkpt lat="44.1725" lon="3.63102">
        <ele>598.08</ele>
        <time>2024-11-05T11:48:34.285Z</time>
      </trkpt>
      <trkpt lat="44.17249" lon="3.63078">
        <ele>597.54</ele>
        <time>2024-11-05T11:48:41.034Z</time>
      </trkpt>
      <trkpt lat="44.17251" lon="3.63061">
        <ele>596.97</ele>
        <time>2024-11-05T11:48:47.785Z</time>
      </trkpt>
      <trkpt lat="44.17259" lon="3.63047">
        <ele>596.41</ele>
        <time>2024-11-05T11:48:54.538Z</time>
      </trkpt>
      <trkpt lat="44.17276" lon="3.63023">
        <ele>595.58</ele>
        <time>2024-11-05T11:49:01.295Z</time>
      </trkpt>
      <trkpt lat="44.17286" lon="3.6301">
        <ele>595.28</ele>
        <time>2024-11-05T11:49:08.054Z</time>
      </trkpt>
      <trkpt lat="44.17301" lon="3.62995">
        <ele>595.21</ele>
        <time>2024-11-05T11:49:14.816Z</time>
      </trkpt>
      <trkpt lat="44.17319" lon="3.62977">
        <ele>595.49</ele>
        <time>2024-11-05T11:49:21.581Z</time>
      </trkpt>
      <trkpt lat="44.17358" lon="3.62945">
        <ele>596.69</ele>
        <time>2024-11-05T11:49:28.354Z</time>
      </trkpt>
      <trkpt lat="44.17375" lon="3.62928">
        <ele>597.24</ele>
        <time>2024-11-05T11:49:35.130Z</time>
      </trkpt>
      <trkpt lat="44.17391" lon="3.62907">
        <ele>597.92</ele>
        <time>2024-11-05T11:49:41.909Z</time>
      </trkpt>
      <trkpt lat="44.17403" lon="3.6288">
        <ele>598.84</ele>
        <time>2024-11-05T11:49:48.692Z</time>
      </trkpt>
      <trkpt lat="44.17425" lon="3.62859">
        <ele>599.84</ele>
        <time>2024-11-05T11:49:55.479Z</time>
      </trkpt>
      <trkpt lat="44.17427" lon="3.62851">
        <ele>600.02</ele>
        <time>2024-11-05T11:50:02.267Z</time>
      </trkpt>
      <trkpt lat="44.17422" lon="3.62821">
        <ele>600.56</ele>
        <time>2024-11-05T11:50:09.059Z</time>
      </trkpt>
      <trkpt lat="44.17422" lon="3.62807">
        <ele>600.85</ele>
        <time>2024-11-05T11:50:15.852Z</time>
      </trkpt>
      <trkpt lat="44.17432" lon="3.62766">
        <ele>602.06</ele>
        <time>2024-11-05T11:50:22.650Z</time>
      </trkpt>
      <trkpt lat="44.17437" lon="3.62755">
        <ele>602.48</ele>
        <time>2024-11-05T11:50:29.450Z</time>
      </trkpt>
      <trkpt lat="44.17437" lon="3.62753">
        <ele>602.34</ele>
        <time>2024-11-05T11:50:36.250Z</time>
      </trkpt>
      <trkpt lat="44.17446" lon="3.62732">
        <ele>602.99</ele>
        <time>2024-11-05T11:50:43.053Z</time>
      </trkpt>
      <trkpt lat="44.17458" lon="3.6272">
        <ele>603.53</ele>
        <time>2024-11-05T11:50:49.858Z</time>
      </trkpt>
      <trkpt lat="44.17471" lon="3.62712">
        <ele>604.24</ele>
        <time>2024-11-05T11:50:56.666Z</time>
      </trkpt>
      <trkpt lat="44.17542" lon="3.62702">
        <ele>607.8</ele>
        <time>2024-11-05T11:51:03.485Z</time>
      </trkpt>
      <trkpt lat="44.17609" lon="3.627">
        <ele>611.32</ele>
        <time>2024-11-05T11:51:10.315Z</time>
      </trkpt>
      <trkpt lat="44.1764" lon="3.62684">
        <ele>613.07</ele>
        <time>2024-11-05T11:51:17.150Z</time>
      </trkpt>
      <trkpt lat="44.17651" lon="3.62663">
        <ele>614.07</ele>
        <time>2024-11-05T11:51:23.988Z</time>
      </trkpt>
      <trkpt lat="44.17659" lon="3.62654">
        <ele>614.66</ele>
        <time>2024-11-05T11:51:30.828Z</time>
      </trkpt>
      <trkpt lat="44.17666" lon="3.6265">
        <ele>615.1</ele>
        <time>2024-11-05T11:51:37.669Z</time>
      </trkpt>
      <trkpt lat="44.17679" lon="3.62648">
        <ele>615.82</ele>
        <time>2024-11-05T11:51:44.512Z</time>
      </trkpt>
      <trkpt lat="44.17684" lon="3.62644">
        <ele>616.09</ele>
        <time>2024-11-05T11:51:51.356Z</time>
      </trkpt>
      <trkpt lat="44.17688" lon="3.62637">
        <ele>616.35</ele>
        <time>2024-11-05T11:51:58.201Z</time>
      </trkpt>
      <trkpt lat="44.17689" lon="3.62606">
        <ele>617.15</ele>
        <time>2024-11-05T11:52:05.049Z</time>
      </trkpt>
      <trkpt lat="44.1768" lon="3.62604">
        <ele>617.56</ele>
        <time>2024-11-05T11:52:11.899Z</time>
      </trkpt>
      <trkpt lat="44.17663" lon="3.62611">
        <ele>618.37</ele>
        <time>2024-11-05T11:52:18.752Z</time>
      </trkpt>
      <trkpt lat="44.17648" lon="3.62623">
        <ele>619.28</ele>
        <time>2024-11-05T11:52:25.608Z</time>
      </trkpt>
      <trkpt lat="44.17638" lon="3.6263">
        <ele>620.02</ele>
        <time>2024-11-05T11:52:32.465Z</time>
      </trkpt>
      <trkpt lat="44.17629" lon="3.62632">
        <ele>620.77</ele>
        <time>2024-11-05T11:52:39.324Z</time>
      </trkpt>
      <trkpt lat="44.17616" lon="3.62631">
        <ele>621.87</ele>
        <time>2024-11-05T11:52:46.185Z</time>
      </trkpt>
      <trkpt lat="44.17604" lon="3.62623">
        <ele>622.93</ele>
        <time>2024-11-05T11:52:53.048Z</time>
      </trkpt>
      <trkpt lat="44.17594" lon="3.62605">
        <ele>624.21</ele>
        <time>2024-11-05T11:52:59.914Z</time>
      </trkpt>
      <trkpt lat="44.17592" lon="3.62581">
        <ele>625.64</ele>
        <time>2024-11-05T11:53:06.782Z</time>
      </trkpt>
      <trkpt lat="44.17599" lon="3.62489">
        <ele>631.25</ele>
        <time>2024-11-05T11:53:13.661Z</time>
      </trkpt>
      <trkpt lat="44.17596" lon="3.62479">
        <ele>631.9</ele>
        <time>2024-11-05T11:53:20.541Z</time>
      </trkpt>
      <trkpt lat="44.17588" lon="3.62472">
        <ele>632.69</ele>
        <time>2024-11-05T11:53:27.423Z</time>
      </trkpt>
      <trkpt lat="44.17565" lon="3.62469">
        <ele>634.68</ele>
        <time>2024-11-05T11:53:34.309Z</time>
      </trkpt>
      <trkpt lat="44.17554" lon="3.62476">
        <ele>635.72</ele>
        <time>2024-11-05T11:53:41.196Z</time>
      </trkpt>
      <trkpt lat="44.17547" lon="3.62487">
        <ele>636.64</ele>
        <time>2024-11-05T11:53:48.085Z</time>
      </trkpt>
      <trkpt lat="44.17544" lon="3.62518">
        <ele>638.37</ele>
        <time>2024-11-05T11:53:54.978Z</time>
      </trkpt>
      <trkpt lat="44.1754" lon="3.62535">
        <ele>639.41</ele>
        <time>2024-11-05T11:54:01.873Z</time>
      </trkpt>
      <trkpt lat="44.1753" lon="3.62551">
        <ele>640.72</ele>
        <time>2024-11-05T11:54:08.770Z</time>
      </trkpt>
      <trkpt lat="44.17518" lon="3.62556">
        <ele>641.72</ele>
        <time>2024-11-05T11:54:15.669Z</time>
      </trkpt>
      <trkpt lat="44.17488" lon="3.62555">
        <ele>644.28</ele>
        <time>2024-11-05T11:54:22.573Z</time>
      </trkpt>
      <trkpt lat="44.17462" lon="3.62539">
        <ele>646.54</ele>
        <time>2024-11-05T11:54:29.482Z</time>
      </trkpt>
      <trkpt lat="44.17436" lon="3.62501">
        <ele>649.5</ele>
        <time>2024-11-05T11:54:36.397Z</time>
      </trkpt>
      <trkpt lat="44.17407" lon="3.62471">
        <ele>652.61</ele>
        <time>2024-11-05T11:54:43.317Z</time>
      </trkpt>
      <trkpt lat="44.1732" lon="3.62402">
        <ele>661.74</ele>
        <time>2024-11-05T11:54:50.253Z</time>
      </trkpt>
      <trkpt lat="44.17307" lon="3.62401">
        <ele>662.86</ele>
        <time>2024-11-05T11:54:57.192Z</time>
      </trkpt>
      <trkpt lat="44.17282" lon="3.62408">
        <ele>665.22</ele>
        <time>2024-11-05T11:55:04.135Z</time>
      </trkpt>
      <trkpt lat="44.17266" lon="3.62412">
        <ele>667.07</ele>
        <time>2024-11-05T11:55:11.080Z</time>
      </trkpt>
      <trkpt lat="44.17249" lon="3.62413">
        <ele>669.06</ele>
        <time>2024-11-05T11:55:18.028Z</time>
      </trkpt>
      <trkpt lat="44.17221" lon="3.62404">
        <ele>672.06</ele>
        <time>2024-11-05T11:55:24.981Z</time>
      </trkpt>
      <trkpt lat="44.17214" lon="3.62409">
        <ele>672.82</ele>
        <time>2024-11-05T11:55:31.935Z</time>
      </trkpt>
      <trkpt lat="44.17211" lon="3.62416">
        <ele>673.38</ele>
        <time>2024-11-05T11:55:38.890Z</time>
      </trkpt>
      <trkpt lat="44.1721" lon="3.62426">
        <ele>674.08</ele>
        <time>2024-11-05T11:55:45.846Z</time>
      </trkpt>
      <trkpt lat="44.17212" lon="3.62442">
        <ele>675.19</ele>
        <time>2024-11-05T11:55:52.804Z</time>
      </trkpt>
      <trkpt lat="44.1722" lon="3.62461">
        <ele>676.59</ele>
        <time>2024-11-05T11:55:59.764Z</time>
      </trkpt>
      <trkpt lat="44.17236" lon="3.62485">
        <ele>678.55</ele>
        <time>2024-11-05T11:56:06.728Z</time>
      </trkpt>
      <trkpt lat="44.1724" lon="3.62501">
        <ele>679.54</ele>
        <time>2024-11-05T11:56:13.694Z</time>
      </trkpt>
      <trkpt lat="44.17247" lon="3.62555">
        <ele>683.21</ele>
        <time>2024-11-05T11:56:20.666Z</time>
      </trkpt>
      <trkpt lat="44.17247" lon="3.62577">
        <ele>684.6</ele>
        <time>2024-11-05T11:56:27.641Z</time>
      </trkpt>
      <trkpt lat="44.17242" lon="3.62597">
        <ele>685.99</ele>
        <time>2024-11-05T11:56:34.618Z</time>
      </trkpt>
      <trkpt lat="44.17232" lon="3.62615">
        <ele>687.38</ele>
        <time>2024-11-05T11:56:41.598Z</time>
      </trkpt>
      <trkpt lat="44.17214" lon="3.62636">
        <ele>689.47</ele>
        <time>2024-11-05T11:56:48.582Z</time>
      </trkpt>
      <trkpt lat="44.17187" lon="3.62662">
        <ele>692.47</ele>
        <time>2024-11-05T11:56:55.571Z</time>
      </trkpt>
      <trkpt lat="44.1717" lon="3.62678">
        <ele>694.5</ele>
        <time>2024-11-05T11:57:02.563Z</time>
      </trkpt>
      <trkpt lat="44.17157" lon="3.62686">
        <ele>695.95</ele>
        <time>2024-11-05T11:57:09.558Z</time>
      </trkpt>
      <trkpt lat="44.17097" lon="3.62705">
        <ele>702.3</ele>
        <time>2024-11-05T11:57:16.562Z</time>
      </trkpt>
      <trkpt lat="44.17076" lon="3.62706">
        <ele>704.62</ele>
        <time>2024-11-05T11:57:23.570Z</time>
      </trkpt>
      <trkpt lat="44.17057" lon="3.62714">
        <ele>706.99</ele>
        <time>2024-11-05T11:57:30.581Z</time>
      </trkpt>
      <trkpt lat="44.17053" lon="3.62715">
        <ele>707.21</ele>
        <time>2024-11-05T11:57:37.593Z</time>
      </trkpt>
      <trkpt lat="44.17049" lon="3.62713">
        <ele>707.49</ele>
        <time>2024-11-05T11:57:44.605Z</time>
      </trkpt>
      <trkpt lat="44.17051" lon="3.62706">
        <ele>707.73</ele>
        <time>2024-11-05T11:57:51.618Z</time>
      </trkpt>
      <trkpt lat="44.17074" lon="3.62698">
        <ele>708.96</ele>
        <time>2024-11-05T11:57:58.635Z</time>
      </trkpt>
      <trkpt lat="44.17096" lon="3.62685">
        <ele>710.54</ele>
        <time>2024-11-05T11:58:05.656Z</time>
      </trkpt>
      <trkpt lat="44.17131" lon="3.62646">
        <ele>713.47</ele>
        <time>2024-11-05T11:58:12.684Z</time>
      </trkpt>
      <trkpt lat="44.1715" lon="3.62614">
        <ele>715.37</ele>
        <time>2024-11-05T11:58:19.717Z</time>
      </trkpt>
      <trkpt lat="44.17163" lon="3.62572">
        <ele>717.56</ele>
        <time>2024-11-05T11:58:26.755Z</time>
      </trkpt>
      <trkpt lat="44.17163" lon="3.62544">
        <ele>718.95</ele>
        <time>2024-11-05T11:58:33.796Z</time>
      </trkpt>
      <trkpt lat="44.17147" lon="3.62485">
        <ele>722.12</ele>
        <time>2024-11-05T11:58:40.844Z</time>
      </trkpt>
      <trkpt lat="44.17134" lon="3.62455">
        <ele>724.08</ele>
        <time>2024-11-05T11:58:47.896Z</time>
      </trkpt>
      <trkpt lat="44.17122" lon="3.62428">
        <ele>726.11</ele>
        <time>2024-11-05T11:58:54.952Z</time>
      </trkpt>
      <trkpt lat="44.17117" lon="3.62429">
        <ele>726.46</ele>
        <time>2024-11-05T11:59:02.009Z</time>
      </trkpt>
      <trkpt lat="44.17117" lon="3.62438">
        <ele>726.89</ele>
        <time>2024-11-05T11:59:09.067Z</time>
      </trkpt>
      <trkpt lat="44.17132" lon="3.62482">
        <ele>729.47</ele>
        <time>2024-11-05T11:59:16.131Z</time>
      </trkpt>
      <trkpt lat="44.17133" lon="3.62508">
        <ele>731.05</ele>
        <time>2024-11-05T11:59:23.198Z</time>
      </trkpt>
      <trkpt lat="44.17128" lon="3.62561">
        <ele>734.58</ele>
        <time>2024-11-05T11:59:30.271Z</time>
      </trkpt>
      <trkpt lat="44.17119" lon="3.6258">
        <ele>736.03</ele>
        <time>2024-11-05T11:59:37.346Z</time>
      </trkpt>
      <trkpt lat="44.17108" lon="3.62592">
        <ele>737.26</ele>
        <time>2024-11-05T11:59:44.424Z</time>
      </trkpt>
      <trkpt lat="44.17061" lon="3.62623">
        <ele>741.4</ele>
        <time>2024-11-05T11:59:51.510Z</time>
      </trkpt>
      <trkpt lat="44.17049" lon="3.62626">
        <ele>742.52</ele>
        <time>2024-11-05T11:59:58.598Z</time>
      </trkpt>
      <trkpt lat="44.17017" lon="3.62625">
        <ele>745.34</ele>
        <time>2024-11-05T12:00:05.691Z</time>
      </trkpt>
      <trkpt lat="44.16977" lon="3.62612">
        <ele>748.72</ele>
        <time>2024-11-05T12:00:12.791Z</time>
      </trkpt>
      <trkpt lat="44.16942" lon="3.62586">
        <ele>751.84</ele>
        <time>2024-11-05T12:00:19.897Z</time>
      </trkpt>
      <trkpt lat="44.16912" lon="3.62556">
        <ele>755.29</ele>
        <time>2024-11-05T12:00:27.009Z</time>
      </trkpt>
      <trkpt lat="44.16893" lon="3.62543">
        <ele>757.24</ele>
        <time>2024-11-05T12:00:34.124Z</time>
      </trkpt>
      <trkpt lat="44.16842" lon="3.62525">
        <ele>761.77</ele>
        <time>2024-11-05T12:00:41.248Z</time>
      </trkpt>
      <trkpt lat="44.16829" lon="3.62519">
        <ele>762.86</ele>
        <time>2024-11-05T12:00:48.374Z</time>
      </trkpt>
      <trkpt lat="44.16817" lon="3.62503">
        <ele>764.18</ele>
        <time>2024-11-05T12:00:55.502Z</time>
      </trkpt>
      <trkpt lat="44.16802" lon="3.62457">
        <ele>767.03</ele>
        <time>2024-11-05T12:01:02.636Z</time>
      </trkpt>
      <trkpt lat="44.16792" lon="3.62428">
        <ele>769.03</ele>
        <time>2024-11-05T12:01:09.774Z</time>
      </trkpt>
      <trkpt lat="44.1679" lon="3.62408">
        <ele>770.29</ele>
        <time>2024-11-05T12:01:16.914Z</time>
      </trkpt>
      <trkpt lat="44.16786" lon="3.62392">
        <ele>771.32</ele>
        <time>2024-11-05T12:01:24.056Z</time>
      </trkpt>
      <trkpt lat="44.16778" lon="3.62379">
        <ele>772.62</ele>
        <time>2024-11-05T12:01:31.200Z</time>
      </trkpt>
      <trkpt lat="44.16768" lon="3.6237">
        <ele>773.88</ele>
        <time>2024-11-05T12:01:38.346Z</time>
      </trkpt>
      <trkpt lat="44.16761" lon="3.6237">
        <ele>774.53</ele>
        <time>2024-11-05T12:01:45.493Z</time>
      </trkpt>
      <trkpt lat="44.16731" lon="3.62385">
        <ele>777.36</ele>
        <time>2024-11-05T12:01:52.645Z</time>
      </trkpt>
      <trkpt lat="44.16719" lon="3.62393">
        <ele>778.52</ele>
        <time>2024-11-05T12:01:59.800Z</time>
      </trkpt>
      <trkpt lat="44.16712" lon="3.62421">
        <ele>780.24</ele>
        <time>2024-11-05T12:02:06.958Z</time>
      </trkpt>
      <trkpt lat="44.16695" lon="3.62452">
        <ele>782.56</ele>
        <time>2024-11-05T12:02:14.120Z</time>
      </trkpt>
      <trkpt lat="44.16656" lon="3.62501">
        <ele>787.04</ele>
        <time>2024-11-05T12:02:21.291Z</time>
      </trkpt>
      <trkpt lat="44.16632" lon="3.6253">
        <ele>790.38</ele>
        <time>2024-11-05T12:02:28.467Z</time>
      </trkpt>
      <trkpt lat="44.16567" lon="3.62559">
        <ele>797.34</ele>
        <time>2024-11-05T12:02:35.654Z</time>
      </trkpt>
      <trkpt lat="44.16534" lon="3.62565">
        <ele>800.7</ele>
        <time>2024-11-05T12:02:42.846Z</time>
      </trkpt>
      <trkpt lat="44.16507" lon="3.62565">
        <ele>803.3</ele>
        <time>2024-11-05T12:02:50.042Z</time>
      </trkpt>
      <trkpt lat="44.16473" lon="3.62583">
        <ele>806.99</ele>
        <time>2024-11-05T12:02:57.244Z</time>
      </trkpt>
      <trkpt lat="44.16469" lon="3.62581">
        <ele>807.31</ele>
        <time>2024-11-05T12:03:04.447Z</time>
      </trkpt>
      <trkpt lat="44.16467" lon="3.62577">
        <ele>807.46</ele>
        <time>2024-11-05T12:03:11.651Z</time>
      </trkpt>
      <trkpt lat="44.16467" lon="3.6257">
        <ele>807.66</ele>
        <time>2024-11-05T12:03:18.855Z</time>
      </trkpt>
      <trkpt lat="44.16475" lon="3.6257">
        <ele>807.99</ele>
        <time>2024-11-05T12:03:26.061Z</time>
      </trkpt>
      <trkpt lat="44.16495" lon="3.62558">
        <ele>808.93</ele>
        <time>2024-11-05T12:03:33.270Z</time>
      </trkpt>
      <trkpt lat="44.16551" lon="3.6252">
        <ele>812.13</ele>
        <time>2024-11-05T12:03:40.489Z</time>
      </trkpt>
      <trkpt lat="44.1659" lon="3.62494">
        <ele>814.56</ele>
        <time>2024-11-05T12:03:47.715Z</time>
      </trkpt>
      <trkpt lat="44.16604" lon="3.62479">
        <ele>815.46</ele>
        <time>2024-11-05T12:03:54.944Z</time>
      </trkpt>
      <trkpt lat="44.16624" lon="3.62443">
        <ele>817.21</ele>
        <time>2024-11-05T12:04:02.178Z</time>
      </trkpt>
      <trkpt lat="44.16652" lon="3.62374">
        <ele>820.35</ele>
        <time>2024-11-05T12:04:09.421Z</time>
      </trkpt>
      <trkpt lat="44.16658" lon="3.6235">
        <ele>821.49</ele>
        <time>2024-11-05T12:04:16.667Z</time>
      </trkpt>
      <trkpt lat="44.16658" lon="3.62323">
        <ele>822.74</ele>
        <time>2024-11-05T12:04:23.916Z</time>
      </trkpt>
      <trkpt lat="44.1666" lon="3.62311">
        <ele>823.27</ele>
        <time>2024-11-05T12:04:31.167Z</time>
      </trkpt>
      <trkpt lat="44.16665" lon="3.62302">
        <ele>823.71</ele>
        <time>2024-11-05T12:04:38.419Z</time>
      </trkpt>
      <trkpt lat="44.16669" lon="3.62299">
        <ele>823.95</ele>
        <time>2024-11-05T12:04:45.672Z</time>
      </trkpt>
      <trkpt lat="44.16698" lon="3.62292">
        <ele>825.25</ele>
        <time>2024-11-05T12:04:52.929Z</time>
      </trkpt>
      <trkpt lat="44.16705" lon="3.62286">
        <ele>825.6</ele>
        <time>2024-11-05T12:05:00.188Z</time>
      </trkpt>
      <trkpt lat="44.16725" lon="3.62259">
        <ele>827.25</ele>
        <time>2024-11-05T12:05:07.451Z</time>
      </trkpt>
      <trkpt lat="44.16735" lon="3.62237">
        <ele>828.38</ele>
        <time>2024-11-05T12:05:14.717Z</time>
      </trkpt>
      <trkpt lat="44.16746" lon="3.62226">
        <ele>829.26</ele>
        <time>2024-11-05T12:05:21.985Z</time>
      </trkpt>
      <trkpt lat="44.16756" lon="3.62219">
        <ele>829.26</ele>
        <time>2024-11-05T12:05:29.255Z</time>
      </trkpt>
      <trkpt lat="44.16765" lon="3.6222">
        <ele>829.49</ele>
        <time>2024-11-05T12:05:36.527Z</time>
      </trkpt>
      <trkpt lat="44.16774" lon="3.62228">
        <ele>829.93</ele>
        <time>2024-11-05T12:05:43.800Z</time>
      </trkpt>
      <trkpt lat="44.16793" lon="3.62261">
        <ele>831.34</ele>
        <time>2024-11-05T12:05:51.078Z</time>
      </trkpt>
      <trkpt lat="44.16801" lon="3.62269">
        <ele>831.84</ele>
        <time>2024-11-05T12:05:58.358Z</time>
      </trkpt>
      <trkpt lat="44.1684" lon="3.62294">
        <ele>834.44</ele>
        <time>2024-11-05T12:06:05.645Z</time>
      </trkpt>
      <trkpt lat="44.1685" lon="3.62297">
        <ele>835.04</ele>
        <time>2024-11-05T12:06:12.933Z</time>
      </trkpt>
      <trkpt lat="44.16857" lon="3.62297">
        <ele>835.38</ele>
        <time>2024-11-05T12:06:20.222Z</time>
      </trkpt>
      <trkpt lat="44.16865" lon="3.62292">
        <ele>835.78</ele>
        <time>2024-11-05T12:06:27.513Z</time>
      </trkpt>
      <trkpt lat="44.1687" lon="3.62285">
        <ele>836.08</ele>
        <time>2024-11-05T12:06:34.805Z</time>
      </trkpt>
      <trkpt lat="44.16876" lon="3.62269">
        <ele>836.7</ele>
        <time>2024-11-05T12:06:42.099Z</time>
      </trkpt>
      <trkpt lat="44.16894" lon="3.62149">
        <ele>841.48</ele>
        <time>2024-11-05T12:06:49.407Z</time>
      </trkpt>
      <trkpt lat="44.16906" lon="3.62107">
        <ele>843.38</ele>
        <time>2024-11-05T12:06:56.720Z</time>
      </trkpt>
      <trkpt lat="44.16915" lon="3.62083">
        <ele>843.43</ele>
        <time>2024-11-05T12:07:04.036Z</time>
      </trkpt>
      <trkpt lat="44.16916" lon="3.6208">
        <ele>843.62</ele>
        <time>2024-11-05T12:07:11.353Z</time>
      </trkpt>
      <trkpt lat="44.16921" lon="3.62073">
        <ele>844.1</ele>
        <time>2024-11-05T12:07:18.671Z</time>
      </trkpt>
      <trkpt lat="44.16945" lon="3.62057">
        <ele>845.82</ele>
        <time>2024-11-05T12:07:25.993Z</time>
      </trkpt>
      <trkpt lat="44.16954" lon="3.62046">
        <ele>846.48</ele>
        <time>2024-11-05T12:07:33.317Z</time>
      </trkpt>
      <trkpt lat="44.1697" lon="3.62">
        <ele>848.28</ele>
        <time>2024-11-05T12:07:40.647Z</time>
      </trkpt>
      <trkpt lat="44.17" lon="3.61934">
        <ele>851.74</ele>
        <time>2024-11-05T12:07:47.986Z</time>
      </trkpt>
      <trkpt lat="44.1701" lon="3.61912">
        <ele>851.92</ele>
        <time>2024-11-05T12:07:55.328Z</time>
      </trkpt>
      <trkpt lat="44.17011" lon="3.61909">
        <ele>852.07</ele>
        <time>2024-11-05T12:08:02.670Z</time>
      </trkpt>
      <trkpt lat="44.17017" lon="3.61903">
        <ele>852.61</ele>
        <time>2024-11-05T12:08:10.014Z</time>
      </trkpt>
      <trkpt lat="44.17034" lon="3.61894">
        <ele>853.92</ele>
        <time>2024-11-05T12:08:17.360Z</time>
      </trkpt>
      <trkpt lat="44.17047" lon="3.61882">
        <ele>854.96</ele>
        <time>2024-11-05T12:08:24.709Z</time>
      </trkpt>
      <trkpt lat="44.17073" lon="3.61832">
        <ele>858</ele>
        <time>2024-11-05T12:08:32.065Z</time>
      </trkpt>
      <trkpt lat="44.1708" lon="3.61823">
        <ele>858.01</ele>
        <time>2024-11-05T12:08:39.423Z</time>
      </trkpt>
      <trkpt lat="44.17088" lon="3.61818">
        <ele>858.01</ele>
        <time>2024-11-05T12:08:46.782Z</time>
      </trkpt>
      <trkpt lat="44.17093" lon="3.61819">
        <ele>858.01</ele>
        <time>2024-11-05T12:08:54.142Z</time>
      </trkpt>
      <trkpt lat="44.17102" lon="3.61822">
        <ele>858.41</ele>
        <time>2024-11-05T12:09:01.503Z</time>
      </trkpt>
      <trkpt lat="44.17117" lon="3.61839">
        <ele>859.31</ele>
        <time>2024-11-05T12:09:08.867Z</time>
      </trkpt>
      <trkpt lat="44.17139" lon="3.6186">
        <ele>860.69</ele>
        <time>2024-11-05T12:09:16.236Z</time>
      </trkpt>
      <trkpt lat="44.17149" lon="3.61866">
        <ele>861.35</ele>
        <time>2024-11-05T12:09:23.606Z</time>
      </trkpt>
      <trkpt lat="44.17195" lon="3.61883">
        <ele>864.24</ele>
        <time>2024-11-05T12:09:30.984Z</time>
      </trkpt>
      <trkpt lat="44.17207" lon="3.61895">
        <ele>865.18</ele>
        <time>2024-11-05T12:09:38.364Z</time>
      </trkpt>
      <trkpt lat="44.17215" lon="3.6191">
        <ele>866.03</ele>
        <time>2024-11-05T12:09:45.747Z</time>
      </trkpt>
      <trkpt lat="44.17222" lon="3.61919">
        <ele>866.57</ele>
        <time>2024-11-05T12:09:53.131Z</time>
      </trkpt>
      <trkpt lat="44.1723" lon="3.61922">
        <ele>867</ele>
        <time>2024-11-05T12:10:00.516Z</time>
      </trkpt>
      <trkpt lat="44.17243" lon="3.61918">
        <ele>867.7</ele>
        <time>2024-11-05T12:10:07.903Z</time>
      </trkpt>
      <trkpt lat="44.17254" lon="3.61912">
        <ele>868.33</ele>
        <time>2024-11-05T12:10:15.292Z</time>
      </trkpt>
      <trkpt lat="44.17288" lon="3.61886">
        <ele>870.47</ele>
        <time>2024-11-05T12:10:22.688Z</time>
      </trkpt>
      <trkpt lat="44.17295" lon="3.6187">
        <ele>871.16</ele>
        <time>2024-11-05T12:10:30.086Z</time>
      </trkpt>
      <trkpt lat="44.17303" lon="3.61797">
        <ele>873.78</ele>
        <time>2024-11-05T12:10:37.492Z</time>
      </trkpt>
      <trkpt lat="44.17311" lon="3.61721">
        <ele>876.91</ele>
        <time>2024-11-05T12:10:44.907Z</time>
      </trkpt>
      <trkpt lat="44.17312" lon="3.61688">
        <ele>878.3</ele>
        <time>2024-11-05T12:10:52.326Z</time>
      </trkpt>
      <trkpt lat="44.17305" lon="3.61656">
        <ele>879.85</ele>
        <time>2024-11-05T12:10:59.749Z</time>
      </trkpt>
      <trkpt lat="44.17303" lon="3.61644">
        <ele>879.87</ele>
        <time>2024-11-05T12:11:07.173Z</time>
      </trkpt>
      <trkpt lat="44.17304" lon="3.61635">
        <ele>879.88</ele>
        <time>2024-11-05T12:11:14.598Z</time>
      </trkpt>
      <trkpt lat="44.17309" lon="3.61622">
        <ele>880.41</ele>
        <time>2024-11-05T12:11:22.025Z</time>
      </trkpt>
      <trkpt lat="44.17315" lon="3.61616">
        <ele>880.83</ele>
        <time>2024-11-05T12:11:29.453Z</time>
      </trkpt>
      <trkpt lat="44.17355" lon="3.61598">
        <ele>883.53</ele>
        <time>2024-11-05T12:11:36.888Z</time>
      </trkpt>
      <trkpt lat="44.17367" lon="3.6159">
        <ele>884.34</ele>
        <time>2024-11-05T12:11:44.325Z</time>
      </trkpt>
      <trkpt lat="44.17374" lon="3.61577">
        <ele>884.97</ele>
        <time>2024-11-05T12:11:51.764Z</time>
      </trkpt>
      <trkpt lat="44.17379" lon="3.61555">
        <ele>886</ele>
        <time>2024-11-05T12:11:59.205Z</time>
      </trkpt>
      <trkpt lat="44.17378" lon="3.61519">
        <ele>887.74</ele>
        <time>2024-11-05T12:12:06.651Z</time>
      </trkpt>
      <trkpt lat="44.17383" lon="3.615">
        <ele>887.79</ele>
        <time>2024-11-05T12:12:14.099Z</time>
      </trkpt>
      <trkpt lat="44.17387" lon="3.61495">
        <ele>887.82</ele>
        <time>2024-11-05T12:12:21.548Z</time>
      </trkpt>
      <trkpt lat="44.17394" lon="3.61488">
        <ele>888.2</ele>
        <time>2024-11-05T12:12:28.998Z</time>
      </trkpt>
      <trkpt lat="44.17402" lon="3.61486">
        <ele>888.55</ele>
        <time>2024-11-05T12:12:36.450Z</time>
      </trkpt>
      <trkpt lat="44.17436" lon="3.61492">
        <ele>890.06</ele>
        <time>2024-11-05T12:12:43.907Z</time>
      </trkpt>
      <trkpt lat="44.17454" lon="3.61498">
        <ele>891.03</ele>
        <time>2024-11-05T12:12:51.367Z</time>
      </trkpt>
      <trkpt lat="44.17472" lon="3.61508">
        <ele>892.14</ele>
        <time>2024-11-05T12:12:58.830Z</time>
      </trkpt>
      <trkpt lat="44.17494" lon="3.61508">
        <ele>893.39</ele>
        <time>2024-11-05T12:13:06.297Z</time>
      </trkpt>
      <trkpt lat="44.17503" lon="3.61513">
        <ele>893.98</ele>
        <time>2024-11-05T12:13:13.765Z</time>
      </trkpt>
      <trkpt lat="44.17524" lon="3.61533">
        <ele>895.51</ele>
        <time>2024-11-05T12:13:21.237Z</time>
      </trkpt>
      <trkpt lat="44.17544" lon="3.61538">
        <ele>896.6</ele>
        <time>2024-11-05T12:13:28.712Z</time>
      </trkpt>
      <trkpt lat="44.17558" lon="3.61546">
        <ele>897.48</ele>
        <time>2024-11-05T12:13:36.190Z</time>
      </trkpt>
      <trkpt lat="44.17585" lon="3.61578">
        <ele>899.93</ele>
        <time>2024-11-05T12:13:43.674Z</time>
      </trkpt>
      <trkpt lat="44.17593" lon="3.61583">
        <ele>900.23</ele>
        <time>2024-11-05T12:13:51.159Z</time>
      </trkpt>
      <trkpt lat="44.17591" lon="3.6157">
        <ele>900.5</ele>
        <time>2024-11-05T12:13:58.646Z</time>
      </trkpt>
      <trkpt lat="44.17571" lon="3.61546">
        <ele>901.6</ele>
        <time>2024-11-05T12:14:06.137Z</time>
      </trkpt>
      <trkpt lat="44.17552" lon="3.61523">
        <ele>903.48</ele>
        <time>2024-11-05T12:14:13.632Z</time>
      </trkpt>
      <trkpt lat="44.17527" lon="3.61515">
        <ele>905.53</ele>
        <time>2024-11-05T12:14:21.131Z</time>
      </trkpt>
      <trkpt lat="44.17521" lon="3.61509">
        <ele>906.15</ele>
        <time>2024-11-05T12:14:28.631Z</time>
      </trkpt>
      <trkpt lat="44.17505" lon="3.61472">
        <ele>908.91</ele>
        <time>2024-11-05T12:14:36.136Z</time>
      </trkpt>
      <trkpt lat="44.175" lon="3.61466">
        <ele>909.41</ele>
        <time>2024-11-05T12:14:43.642Z</time>
      </trkpt>
      <trkpt lat="44.17493" lon="3.61466">
        <ele>909.91</ele>
        <time>2024-11-05T12:14:51.149Z</time>
      </trkpt>
      <trkpt lat="44.1748" lon="3.6147">
        <ele>910.85</ele>
        <time>2024-11-05T12:14:58.658Z</time>
      </trkpt>
      <trkpt lat="44.17464" lon="3.61466">
        <ele>912</ele>
        <time>2024-11-05T12:15:06.170Z</time>
      </trkpt>
      <trkpt lat="44.17444" lon="3.61448">
        <ele>913.8</ele>
        <time>2024-11-05T12:15:13.686Z</time>
      </trkpt>
      <trkpt lat="44.17434" lon="3.61444">
        <ele>914.6</ele>
        <time>2024-11-05T12:15:21.203Z</time>
      </trkpt>
      <trkpt lat="44.17419" lon="3.61442">
        <ele>915.79</ele>
        <time>2024-11-05T12:15:28.723Z</time>
      </trkpt>
      <trkpt lat="44.17395" lon="3.61444">
        <ele>917.81</ele>
        <time>2024-11-05T12:15:36.247Z</time>
      </trkpt>
      <trkpt lat="44.17369" lon="3.61445">
        <ele>920.36</ele>
        <time>2024-11-05T12:15:43.775Z</time>
      </trkpt>
      <trkpt lat="44.17356" lon="3.61441">
        <ele>920.62</ele>
        <time>2024-11-05T12:15:51.305Z</time>
      </trkpt>
      <trkpt lat="44.17333" lon="3.61449">
        <ele>921.15</ele>
        <time>2024-11-05T12:15:58.839Z</time>
      </trkpt>
      <trkpt lat="44.17327" lon="3.61456">
        <ele>921.7</ele>
        <time>2024-11-05T12:16:06.374Z</time>
      </trkpt>
      <trkpt lat="44.17303" lon="3.61513">
        <ele>925.22</ele>
        <time>2024-11-05T12:16:13.917Z</time>
      </trkpt>
      <trkpt lat="44.17294" lon="3.61521">
        <ele>926.05</ele>
        <time>2024-11-05T12:16:21.461Z</time>
      </trkpt>
      <trkpt lat="44.17241" lon="3.61544">
        <ele>930.33</ele>
        <time>2024-11-05T12:16:29.014Z</time>
      </trkpt>
      <trkpt lat="44.17216" lon="3.6155">
        <ele>932.32</ele>
        <time>2024-11-05T12:16:36.571Z</time>
      </trkpt>
      <trkpt lat="44.17181" lon="3.61555">
        <ele>935.18</ele>
        <time>2024-11-05T12:16:44.134Z</time>
      </trkpt>
      <trkpt lat="44.17173" lon="3.6156">
        <ele>935.87</ele>
        <time>2024-11-05T12:16:51.698Z</time>
      </trkpt>
      <trkpt lat="44.17169" lon="3.61568">
        <ele>936.4</ele>
        <time>2024-11-05T12:16:59.263Z</time>
      </trkpt>
      <trkpt lat="44.17164" lon="3.61609">
        <ele>938.79</ele>
        <time>2024-11-05T12:17:06.833Z</time>
      </trkpt>
      <trkpt lat="44.17159" lon="3.61618">
        <ele>939.52</ele>
        <time>2024-11-05T12:17:14.405Z</time>
      </trkpt>
      <trkpt lat="44.17152" lon="3.61622">
        <ele>940.16</ele>
        <time>2024-11-05T12:17:21.978Z</time>
      </trkpt>
      <trkpt lat="44.1713" lon="3.61616">
        <ele>941.88</ele>
        <time>2024-11-05T12:17:29.554Z</time>
      </trkpt>
      <trkpt lat="44.17117" lon="3.61609">
        <ele>942.9</ele>
        <time>2024-11-05T12:17:37.133Z</time>
      </trkpt>
      <trkpt lat="44.17101" lon="3.61605">
        <ele>944.17</ele>
        <time>2024-11-05T12:17:44.714Z</time>
      </trkpt>
      <trkpt lat="44.17081" lon="3.61604">
        <ele>945.89</ele>
        <time>2024-11-05T12:17:52.298Z</time>
      </trkpt>
      <trkpt lat="44.17058" lon="3.61599">
        <ele>947.82</ele>
        <time>2024-11-05T12:17:59.886Z</time>
      </trkpt>
      <trkpt lat="44.17048" lon="3.616">
        <ele>948.55</ele>
        <time>2024-11-05T12:18:07.476Z</time>
      </trkpt>
      <trkpt lat="44.1702" lon="3.61629">
        <ele>950.78</ele>
        <time>2024-11-05T12:18:15.071Z</time>
      </trkpt>
      <trkpt lat="44.17001" lon="3.61643">
        <ele>952.18</ele>
        <time>2024-11-05T12:18:22.670Z</time>
      </trkpt>
      <trkpt lat="44.16952" lon="3.61667">
        <ele>955.82</ele>
        <time>2024-11-05T12:18:30.277Z</time>
      </trkpt>
      <trkpt lat="44.16925" lon="3.6167">
        <ele>957.8</ele>
        <time>2024-11-05T12:18:37.888Z</time>
      </trkpt>
      <trkpt lat="44.16894" lon="3.61677">
        <ele>960.13</ele>
        <time>2024-11-05T12:18:45.504Z</time>
      </trkpt>
      <trkpt lat="44.16846" lon="3.61703">
        <ele>963.92</ele>
        <time>2024-11-05T12:18:53.129Z</time>
      </trkpt>
      <trkpt lat="44.16769" lon="3.61736">
        <ele>970.17</ele>
        <time>2024-11-05T12:19:00.767Z</time>
      </trkpt>
      <trkpt lat="44.16739" lon="3.61754">
        <ele>972.65</ele>
        <time>2024-11-05T12:19:08.410Z</time>
      </trkpt>
      <trkpt lat="44.16687" lon="3.61789">
        <ele>977.2</ele>
        <time>2024-11-05T12:19:16.062Z</time>
      </trkpt>
      <trkpt lat="44.16642" lon="3.61806">
        <ele>980.59</ele>
        <time>2024-11-05T12:19:23.721Z</time>
      </trkpt>
      <trkpt lat="44.16615" lon="3.61817">
        <ele>983.02</ele>
        <time>2024-11-05T12:19:31.385Z</time>
      </trkpt>
      <trkpt lat="44.16594" lon="3.61823">
        <ele>984.93</ele>
        <time>2024-11-05T12:19:39.052Z</time>
      </trkpt>
      <trkpt lat="44.1658" lon="3.61821">
        <ele>986.07</ele>
        <time>2024-11-05T12:19:46.722Z</time>
      </trkpt>
      <trkpt lat="44.16565" lon="3.61815">
        <ele>987.28</ele>
        <time>2024-11-05T12:19:54.394Z</time>
      </trkpt>
      <trkpt lat="44.16519" lon="3.61773">
        <ele>991.02</ele>
        <time>2024-11-05T12:20:02.075Z</time>
      </trkpt>
      <trkpt lat="44.1649" lon="3.61751">
        <ele>993.72</ele>
        <time>2024-11-05T12:20:09.761Z</time>
      </trkpt>
      <trkpt lat="44.16477" lon="3.61743">
        <ele>994.98</ele>
        <time>2024-11-05T12:20:17.450Z</time>
      </trkpt>
      <trkpt lat="44.16447" lon="3.61735">
        <ele>997.86</ele>
        <time>2024-11-05T12:20:25.143Z</time>
      </trkpt>
      <trkpt lat="44.1642" lon="3.6173">
        <ele>1000.58</ele>
        <time>2024-11-05T12:20:32.841Z</time>
      </trkpt>
      <trkpt lat="44.16395" lon="3.61735">
        <ele>1003</ele>
        <time>2024-11-05T12:20:40.543Z</time>
      </trkpt>
      <trkpt lat="44.16343" lon="3.61764">
        <ele>1008.24</ele>
        <time>2024-11-05T12:20:48.254Z</time>
      </trkpt>
      <trkpt lat="44.16324" lon="3.61766">
        <ele>1009.9</ele>
        <time>2024-11-05T12:20:55.968Z</time>
      </trkpt>
      <trkpt lat="44.16287" lon="3.61752">
        <ele>1013.3</ele>
        <time>2024-11-05T12:21:03.688Z</time>
      </trkpt>
      <trkpt lat="44.16282" lon="3.6175">
        <ele>1013.7</ele>
        <time>2024-11-05T12:21:11.409Z</time>
      </trkpt>
      <trkpt lat="44.16276" lon="3.61745">
        <ele>1014.2</ele>
        <time>2024-11-05T12:21:19.131Z</time>
      </trkpt>
      <trkpt lat="44.16268" lon="3.61738">
        <ele>1013.48</ele>
        <time>2024-11-05T12:21:26.854Z</time>
      </trkpt>
      <trkpt lat="44.16265" lon="3.61727">
        <ele>1012.77</ele>
        <time>2024-11-05T12:21:34.579Z</time>
      </trkpt>
      <trkpt lat="44.16269" lon="3.61707">
        <ele>1011.66</ele>
        <time>2024-11-05T12:21:42.306Z</time>
      </trkpt>
      <trkpt lat="44.16303" lon="3.61647">
        <ele>1007.38</ele>
        <time>2024-11-05T12:21:50.042Z</time>
      </trkpt>
      <trkpt lat="44.16313" lon="3.61624">
        <ele>1005.87</ele>
        <time>2024-11-05T12:21:57.781Z</time>
      </trkpt>
      <trkpt lat="44.16322" lon="3.6159">
        <ele>1003.89</ele>
        <time>2024-11-05T12:22:05.524Z</time>
      </trkpt>
      <trkpt lat="44.16334" lon="3.61566">
        <ele>1002.36</ele>
        <time>2024-11-05T12:22:13.271Z</time>
      </trkpt>
      <trkpt lat="44.16354" lon="3.61514">
        <ele>999.27</ele>
        <time>2024-11-05T12:22:21.024Z</time>
      </trkpt>
      <trkpt lat="44.1636" lon="3.61507">
        <ele>998.66</ele>
        <time>2024-11-05T12:22:28.779Z</time>
      </trkpt>
      <trkpt lat="44.16372" lon="3.61503">
        <ele>997.63</ele>
        <time>2024-11-05T12:22:36.536Z</time>
      </trkpt>
      <trkpt lat="44.16395" lon="3.61508">
        <ele>995.62</ele>
        <time>2024-11-05T12:22:44.296Z</time>
      </trkpt>
      <trkpt lat="44.16438" lon="3.61527">
        <ele>992.58</ele>
        <time>2024-11-05T12:22:52.064Z</time>
      </trkpt>
      <trkpt lat="44.16445" lon="3.61528">
        <ele>991.96</ele>
        <time>2024-11-05T12:22:59.833Z</time>
      </trkpt>
      <trkpt lat="44.16452" lon="3.61522">
        <ele>991.19</ele>
        <time>2024-11-05T12:23:07.603Z</time>
      </trkpt>
      <trkpt lat="44.16453" lon="3.61514">
        <ele>990.62</ele>
        <time>2024-11-05T12:23:15.374Z</time>
      </trkpt>
      <trkpt lat="44.16449" lon="3.61506">
        <ele>989.94</ele>
        <time>2024-11-05T12:23:23.146Z</time>
      </trkpt>
      <trkpt lat="44.16425" lon="3.615">
        <ele>987.77</ele>
        <time>2024-11-05T12:23:30.922Z</time>
      </trkpt>
      <trkpt lat="44.16376" lon="3.61476">
        <ele>983.67</ele>
        <time>2024-11-05T12:23:38.706Z</time>
      </trkpt>
      <trkpt lat="44.16336" lon="3.61466">
        <ele>980.15</ele>
        <time>2024-11-05T12:23:46.497Z</time>
      </trkpt>
      <trkpt lat="44.16328" lon="3.61468">
        <ele>979.45</ele>
        <time>2024-11-05T12:23:54.289Z</time>
      </trkpt>
      <trkpt lat="44.16321" lon="3.61474">
        <ele>978.57</ele>
        <time>2024-11-05T12:24:02.082Z</time>
      </trkpt>
      <trkpt lat="44.16287" lon="3.61506">
        <ele>974.65</ele>
        <time>2024-11-05T12:24:09.882Z</time>
      </trkpt>
      <trkpt lat="44.16271" lon="3.61524">
        <ele>972.64</ele>
        <time>2024-11-05T12:24:17.685Z</time>
      </trkpt>
      <trkpt lat="44.16263" lon="3.6153">
        <ele>971.66</ele>
        <time>2024-11-05T12:24:25.490Z</time>
      </trkpt>
      <trkpt lat="44.16256" lon="3.6153">
        <ele>970.9</ele>
        <time>2024-11-05T12:24:33.296Z</time>
      </trkpt>
      <trkpt lat="44.16248" lon="3.61526">
        <ele>970.07</ele>
        <time>2024-11-05T12:24:41.103Z</time>
      </trkpt>
      <trkpt lat="44.16226" lon="3.61497">
        <ele>966.71</ele>
        <time>2024-11-05T12:24:48.915Z</time>
      </trkpt>
      <trkpt lat="44.16218" lon="3.6148">
        <ele>965.37</ele>
        <time>2024-11-05T12:24:56.729Z</time>
      </trkpt>
      <trkpt lat="44.16212" lon="3.61462">
        <ele>963.96</ele>
        <time>2024-11-05T12:25:04.546Z</time>
      </trkpt>
      <trkpt lat="44.16191" lon="3.61424">
        <ele>961.18</ele>
        <time>2024-11-05T12:25:12.368Z</time>
      </trkpt>
      <trkpt lat="44.1618" lon="3.61397">
        <ele>959.43</ele>
        <time>2024-11-05T12:25:20.194Z</time>
      </trkpt>
      <trkpt lat="44.1617" lon="3.6138">
        <ele>958.01</ele>
        <time>2024-11-05T12:25:28.022Z</time>
      </trkpt>
      <trkpt lat="44.16157" lon="3.61367">
        <ele>956.5</ele>
        <time>2024-11-05T12:25:35.853Z</time>
      </trkpt>
      <trkpt lat="44.1612" lon="3.61345">
        <ele>952.83</ele>
        <time>2024-11-05T12:25:43.690Z</time>
      </trkpt>
      <trkpt lat="44.16072" lon="3.61317">
        <ele>948.58</ele>
        <time>2024-11-05T12:25:51.536Z</time>
      </trkpt>
      <trkpt lat="44.16062" lon="3.61316">
        <ele>947.82</ele>
        <time>2024-11-05T12:25:59.383Z</time>
      </trkpt>
      <trkpt lat="44.16043" lon="3.61328">
        <ele>946.26</ele>
        <time>2024-11-05T12:26:07.234Z</time>
      </trkpt>
      <trkpt lat="44.16033" lon="3.61328">
        <ele>945.49</ele>
        <time>2024-11-05T12:26:15.086Z</time>
      </trkpt>
      <trkpt lat="44.16022" lon="3.61323">
        <ele>944.54</ele>
        <time>2024-11-05T12:26:22.940Z</time>
      </trkpt>
      <trkpt lat="44.16017" lon="3.61318">
        <ele>943.97</ele>
        <time>2024-11-05T12:26:30.795Z</time>
      </trkpt>
      <trkpt lat="44.16006" lon="3.61289">
        <ele>941.79</ele>
        <time>2024-11-05T12:26:38.654Z</time>
      </trkpt>
      <trkpt lat="44.15949" lon="3.61209">
        <ele>934.01</ele>
        <time>2024-11-05T12:26:46.526Z</time>
      </trkpt>
      <trkpt lat="44.15938" lon="3.61194">
        <ele>932.86</ele>
        <time>2024-11-05T12:26:54.400Z</time>
      </trkpt>
      <trkpt lat="44.15924" lon="3.61172">
        <ele>931.47</ele>
        <time>2024-11-05T12:27:02.278Z</time>
      </trkpt>
      <trkpt lat="44.15908" lon="3.6115">
        <ele>929.59</ele>
        <time>2024-11-05T12:27:10.159Z</time>
      </trkpt>
      <trkpt lat="44.15892" lon="3.61139">
        <ele>927.9</ele>
        <time>2024-11-05T12:27:18.043Z</time>
      </trkpt>
      <trkpt lat="44.15874" lon="3.61134">
        <ele>926.35</ele>
        <time>2024-11-05T12:27:25.930Z</time>
      </trkpt>
      <trkpt lat="44.15847" lon="3.61133">
        <ele>924.13</ele>
        <time>2024-11-05T12:27:33.821Z</time>
      </trkpt>
      <trkpt lat="44.15816" lon="3.61126">
        <ele>921.48</ele>
        <time>2024-11-05T12:27:41.717Z</time>
      </trkpt>
      <trkpt lat="44.15801" lon="3.61126">
        <ele>920.25</ele>
        <time>2024-11-05T12:27:49.616Z</time>
      </trkpt>
      <trkpt lat="44.15786" lon="3.61129">
        <ele>919.05</ele>
        <time>2024-11-05T12:27:57.517Z</time>
      </trkpt>
      <trkpt lat="44.1577" lon="3.61135">
        <ele>917.96</ele>
        <time>2024-11-05T12:28:05.421Z</time>
      </trkpt>
      <trkpt lat="44.15754" lon="3.61154">
        <ele>916.65</ele>
        <time>2024-11-05T12:28:13.328Z</time>
      </trkpt>
      <trkpt lat="44.15751" lon="3.61156">
        <ele>916.41</ele>
        <time>2024-11-05T12:28:21.236Z</time>
      </trkpt>
      <trkpt lat="44.15748" lon="3.61157">
        <ele>916.11</ele>
        <time>2024-11-05T12:28:29.144Z</time>
      </trkpt>
      <trkpt lat="44.15742" lon="3.61153">
        <ele>915.44</ele>
        <time>2024-11-05T12:28:37.053Z</time>
      </trkpt>
      <trkpt lat="44.15743" lon="3.61146">
        <ele>914.86</ele>
        <time>2024-11-05T12:28:44.963Z</time>
      </trkpt>
      <trkpt lat="44.1575" lon="3.61135">
        <ele>913.85</ele>
        <time>2024-11-05T12:28:52.875Z</time>
      </trkpt>
      <trkpt lat="44.15766" lon="3.6112">
        <ele>912.19</ele>
        <time>2024-11-05T12:29:00.790Z</time>
      </trkpt>
      <trkpt lat="44.1583" lon="3.61095">
        <ele>906.78</ele>
        <time>2024-11-05T12:29:08.716Z</time>
      </trkpt>
      <trkpt lat="44.15866" lon="3.61095">
        <ele>903.74</ele>
        <time>2024-11-05T12:29:16.647Z</time>
      </trkpt>
      <trkpt lat="44.15909" lon="3.61085">
        <ele>899.94</ele>
        <time>2024-11-05T12:29:24.585Z</time>
      </trkpt>
      <trkpt lat="44.15919" lon="3.61083">
        <ele>899.59</ele>
        <time>2024-11-05T12:29:32.525Z</time>
      </trkpt>
      <trkpt lat="44.15935" lon="3.61091">
        <ele>899.19</ele>
        <time>2024-11-05T12:29:40.468Z</time>
      </trkpt>
      <trkpt lat="44.15952" lon="3.61102">
        <ele>898.94</ele>
        <time>2024-11-05T12:29:48.414Z</time>
      </trkpt>
      <trkpt lat="44.15959" lon="3.61097">
        <ele>898.78</ele>
        <time>2024-11-05T12:29:56.361Z</time>
      </trkpt>
      <trkpt lat="44.15995" lon="3.61047">
        <ele>898.33</ele>
        <time>2024-11-05T12:30:04.316Z</time>
      </trkpt>
      <trkpt lat="44.16011" lon="3.61024">
        <ele>898.84</ele>
        <time>2024-11-05T12:30:12.275Z</time>
      </trkpt>
      <trkpt lat="44.16018" lon="3.61014">
        <ele>899.27</ele>
        <time>2024-11-05T12:30:20.235Z</time>
      </trkpt>
      <trkpt lat="44.16023" lon="3.61003">
        <ele>899.73</ele>
        <time>2024-11-05T12:30:28.197Z</time>
      </trkpt>
      <trkpt lat="44.16026" lon="3.60964">
        <ele>901.41</ele>
        <time>2024-11-05T12:30:36.163Z</time>
      </trkpt>
      <trkpt lat="44.16018" lon="3.60928">
        <ele>903.62</ele>
        <time>2024-11-05T12:30:44.134Z</time>
      </trkpt>
      <trkpt lat="44.16017" lon="3.60909">
        <ele>904.84</ele>
        <time>2024-11-05T12:30:52.107Z</time>
      </trkpt>
      <trkpt lat="44.16018" lon="3.60876">
        <ele>906.75</ele>
        <time>2024-11-05T12:31:00.084Z</time>
      </trkpt>
      <trkpt lat="44.16025" lon="3.60844">
        <ele>909.12</ele>
        <time>2024-11-05T12:31:08.064Z</time>
      </trkpt>
      <trkpt lat="44.16035" lon="3.60815">
        <ele>911.5</ele>
        <time>2024-11-05T12:31:16.048Z</time>
      </trkpt>
      <trkpt lat="44.16095" lon="3.60669">
        <ele>923.17</ele>
        <time>2024-11-05T12:31:24.052Z</time>
      </trkpt>
      <trkpt lat="44.161" lon="3.6065">
        <ele>924.52</ele>
        <time>2024-11-05T12:31:32.058Z</time>
      </trkpt>
      <trkpt lat="44.16102" lon="3.60634">
        <ele>925.53</ele>
        <time>2024-11-05T12:31:40.066Z</time>
      </trkpt>
      <trkpt lat="44.16103" lon="3.60601">
        <ele>927.69</ele>
        <time>2024-11-05T12:31:48.078Z</time>
      </trkpt>
      <trkpt lat="44.16106" lon="3.60576">
        <ele>929.44</ele>
        <time>2024-11-05T12:31:56.092Z</time>
      </trkpt>
      <trkpt lat="44.1611" lon="3.60561">
        <ele>930.48</ele>
        <time>2024-11-05T12:32:04.108Z</time>
      </trkpt>
      <trkpt lat="44.1612" lon="3.60542">
        <ele>932</ele>
        <time>2024-11-05T12:32:12.127Z</time>
      </trkpt>
      <trkpt lat="44.16142" lon="3.6047">
        <ele>937.46</ele>
        <time>2024-11-05T12:32:20.155Z</time>
      </trkpt>
      <trkpt lat="44.16141" lon="3.60449">
        <ele>938.85</ele>
        <time>2024-11-05T12:32:28.185Z</time>
      </trkpt>
      <trkpt lat="44.16148" lon="3.6039">
        <ele>942.73</ele>
        <time>2024-11-05T12:32:36.222Z</time>
      </trkpt>
      <trkpt lat="44.16173" lon="3.60297">
        <ele>949.45</ele>
        <time>2024-11-05T12:32:44.271Z</time>
      </trkpt>
      <trkpt lat="44.16189" lon="3.60257">
        <ele>952.87</ele>
        <time>2024-11-05T12:32:52.325Z</time>
      </trkpt>
      <trkpt lat="44.1621" lon="3.60227">
        <ele>955.76</ele>
        <time>2024-11-05T12:33:00.384Z</time>
      </trkpt>
      <trkpt lat="44.16215" lon="3.60216">
        <ele>956.64</ele>
        <time>2024-11-05T12:33:08.444Z</time>
      </trkpt>
      <trkpt lat="44.16218" lon="3.60199">
        <ele>957.78</ele>
        <time>2024-11-05T12:33:16.506Z</time>
      </trkpt>
      <trkpt lat="44.16218" lon="3.60177">
        <ele>959.21</ele>
        <time>2024-11-05T12:33:24.571Z</time>
      </trkpt>
      <trkpt lat="44.16204" lon="3.60119">
        <ele>963.42</ele>
        <time>2024-11-05T12:33:32.643Z</time>
      </trkpt>
      <trkpt lat="44.16202" lon="3.60109">
        <ele>964.24</ele>
        <time>2024-11-05T12:33:40.716Z</time>
      </trkpt>
      <trkpt lat="44.162" lon="3.60071">
        <ele>967.52</ele>
        <time>2024-11-05T12:33:48.794Z</time>
      </trkpt>
      <trkpt lat="44.16204" lon="3.60058">
        <ele>968.76</ele>
        <time>2024-11-05T12:33:56.873Z</time>
      </trkpt>
      <trkpt lat="44.16216" lon="3.60039">
        <ele>970.64</ele>
        <time>2024-11-05T12:34:04.955Z</time>
      </trkpt>
      <trkpt lat="44.16217" lon="3.60033">
        <ele>970.98</ele>
        <time>2024-11-05T12:34:13.038Z</time>
      </trkpt>
      <trkpt lat="44.16216" lon="3.60027">
        <ele>971.34</ele>
        <time>2024-11-05T12:34:21.122Z</time>
      </trkpt>
      <trkpt lat="44.16208" lon="3.60008">
        <ele>972.55</ele>
        <time>2024-11-05T12:34:29.208Z</time>
      </trkpt>
      <trkpt lat="44.16202" lon="3.59941">
        <ele>976.74</ele>
        <time>2024-11-05T12:34:37.302Z</time>
      </trkpt>
      <trkpt lat="44.16195" lon="3.59916">
        <ele>978.49</ele>
        <time>2024-11-05T12:34:45.399Z</time>
      </trkpt>
      <trkpt lat="44.1618" lon="3.59881">
        <ele>981.46</ele>
        <time>2024-11-05T12:34:53.501Z</time>
      </trkpt>
      <trkpt lat="44.16152" lon="3.59848">
        <ele>985.31</ele>
        <time>2024-11-05T12:35:01.608Z</time>
      </trkpt>
      <trkpt lat="44.16147" lon="3.59829">
        <ele>986.61</ele>
        <time>2024-11-05T12:35:09.718Z</time>
      </trkpt>
      <trkpt lat="44.16148" lon="3.59771">
        <ele>990.33</ele>
        <time>2024-11-05T12:35:17.835Z</time>
      </trkpt>
      <trkpt lat="44.16147" lon="3.5974">
        <ele>992.41</ele>
        <time>2024-11-05T12:35:25.955Z</time>
      </trkpt>
      <trkpt lat="44.16142" lon="3.59697">
        <ele>995.38</ele>
        <time>2024-11-05T12:35:34.080Z</time>
      </trkpt>
      <trkpt lat="44.16144" lon="3.59646">
        <ele>998.87</ele>
        <time>2024-11-05T12:35:42.211Z</time>
      </trkpt>
      <trkpt lat="44.16148" lon="3.59604">
        <ele>1001.54</ele>
        <time>2024-11-05T12:35:50.347Z</time>
      </trkpt>
      <trkpt lat="44.16154" lon="3.59555">
        <ele>1005</ele>
        <time>2024-11-05T12:35:58.489Z</time>
      </trkpt>
      <trkpt lat="44.16157" lon="3.59535">
        <ele>1006.55</ele>
        <time>2024-11-05T12:36:06.633Z</time>
      </trkpt>
      <trkpt lat="44.16163" lon="3.59515">
        <ele>1008.32</ele>
        <time>2024-11-05T12:36:14.779Z</time>
      </trkpt>
      <trkpt lat="44.16175" lon="3.59489">
        <ele>1010.7</ele>
        <time>2024-11-05T12:36:22.929Z</time>
      </trkpt>
      <trkpt lat="44.16179" lon="3.59476">
        <ele>1011.72</ele>
        <time>2024-11-05T12:36:31.081Z</time>
      </trkpt>
      <trkpt lat="44.16182" lon="3.59423">
        <ele>1015.45</ele>
        <time>2024-11-05T12:36:39.239Z</time>
      </trkpt>
      <trkpt lat="44.16178" lon="3.594">
        <ele>1017.08</ele>
        <time>2024-11-05T12:36:47.399Z</time>
      </trkpt>
      <trkpt lat="44.16172" lon="3.59346">
        <ele>1021.12</ele>
        <time>2024-11-05T12:36:55.566Z</time>
      </trkpt>
      <trkpt lat="44.16161" lon="3.59258">
        <ele>1028.46</ele>
        <time>2024-11-05T12:37:03.743Z</time>
      </trkpt>
      <trkpt lat="44.1616" lon="3.59201">
        <ele>1033.34</ele>
        <time>2024-11-05T12:37:11.927Z</time>
      </trkpt>
      <trkpt lat="44.16164" lon="3.59168">
        <ele>1036.14</ele>
        <time>2024-11-05T12:37:20.114Z</time>
      </trkpt>
      <trkpt lat="44.16156" lon="3.59129">
        <ele>1039.09</ele>
        <time>2024-11-05T12:37:28.306Z</time>
      </trkpt>
      <trkpt lat="44.16153" lon="3.59061">
        <ele>1043.86</ele>
        <time>2024-11-05T12:37:36.506Z</time>
      </trkpt>
      <trkpt lat="44.16147" lon="3.59034">
        <ele>1045.88</ele>
        <time>2024-11-05T12:37:44.709Z</time>
      </trkpt>
      <trkpt lat="44.16146" lon="3.59006">
        <ele>1048.05</ele>
        <time>2024-11-05T12:37:52.915Z</time>
      </trkpt>
      <trkpt lat="44.16144" lon="3.58996">
        <ele>1048.83</ele>
        <time>2024-11-05T12:38:01.123Z</time>
      </trkpt>
      <trkpt lat="44.16131" lon="3.58964">
        <ele>1051.54</ele>
        <time>2024-11-05T12:38:09.335Z</time>
      </trkpt>
      <trkpt lat="44.16127" lon="3.58943">
        <ele>1053.13</ele>
        <time>2024-11-05T12:38:17.549Z</time>
      </trkpt>
      <trkpt lat="44.16126" lon="3.58904">
        <ele>1056.17</ele>
        <time>2024-11-05T12:38:25.768Z</time>
      </trkpt>
      <trkpt lat="44.16128" lon="3.58891">
        <ele>1057.18</ele>
        <time>2024-11-05T12:38:33.988Z</time>
      </trkpt>
      <trkpt lat="44.16136" lon="3.58875">
        <ele>1058.62</ele>
        <time>2024-11-05T12:38:42.211Z</time>
      </trkpt>
      <trkpt lat="44.1614" lon="3.58862">
        <ele>1059.54</ele>
        <time>2024-11-05T12:38:50.435Z</time>
      </trkpt>
      <trkpt lat="44.16131" lon="3.5884">
        <ele>1061.18</ele>
        <time>2024-11-05T12:38:58.662Z</time>
      </trkpt>
      <trkpt lat="44.16128" lon="3.58825">
        <ele>1062.16</ele>
        <time>2024-11-05T12:39:06.891Z</time>
      </trkpt>
      <trkpt lat="44.16123" lon="3.58777">
        <ele>1065.42</ele>
        <time>2024-11-05T12:39:15.126Z</time>
      </trkpt>
      <trkpt lat="44.16095" lon="3.58648">
        <ele>1075.73</ele>
        <time>2024-11-05T12:39:23.376Z</time>
      </trkpt>
      <trkpt lat="44.1609" lon="3.58552">
        <ele>1082.23</ele>
        <time>2024-11-05T12:39:31.637Z</time>
      </trkpt>
      <trkpt lat="44.16092" lon="3.58548">
        <ele>1082.5</ele>
        <time>2024-11-05T12:39:39.899Z</time>
      </trkpt>
      <trkpt lat="44.16096" lon="3.58547">
        <ele>1082.78</ele>
        <time>2024-11-05T12:39:48.161Z</time>
      </trkpt>
      <trkpt lat="44.16102" lon="3.58554">
        <ele>1083.39</ele>
        <time>2024-11-05T12:39:56.425Z</time>
      </trkpt>
      <trkpt lat="44.16106" lon="3.58578">
        <ele>1084.88</ele>
        <time>2024-11-05T12:40:04.692Z</time>
      </trkpt>
      <trkpt lat="44.16114" lon="3.58602">
        <ele>1086.46</ele>
        <time>2024-11-05T12:40:12.961Z</time>
      </trkpt>
      <trkpt lat="44.16118" lon="3.58613">
        <ele>1087.05</ele>
        <time>2024-11-05T12:40:21.232Z</time>
      </trkpt>
      <trkpt lat="44.16124" lon="3.58615">
        <ele>1087.34</ele>
        <time>2024-11-05T12:40:29.504Z</time>
      </trkpt>
      <trkpt lat="44.16127" lon="3.5861">
        <ele>1087.52</ele>
        <time>2024-11-05T12:40:37.777Z</time>
      </trkpt>
      <trkpt lat="44.16117" lon="3.58572">
        <ele>1088.64</ele>
        <time>2024-11-05T12:40:46.054Z</time>
      </trkpt>
      <trkpt lat="44.16114" lon="3.58546">
        <ele>1089.75</ele>
        <time>2024-11-05T12:40:54.334Z</time>
      </trkpt>
      <trkpt lat="44.16118" lon="3.58493">
        <ele>1093.04</ele>
        <time>2024-11-05T12:41:02.621Z</time>
      </trkpt>
      <trkpt lat="44.16111" lon="3.58429">
        <ele>1097.6</ele>
        <time>2024-11-05T12:41:10.915Z</time>
      </trkpt>
      <trkpt lat="44.16108" lon="3.58392">
        <ele>1100.41</ele>
        <time>2024-11-05T12:41:19.213Z</time>
      </trkpt>
      <trkpt lat="44.16106" lon="3.58357">
        <ele>1102.56</ele>
        <time>2024-11-05T12:41:27.515Z</time>
      </trkpt>
      <trkpt lat="44.16092" lon="3.58299">
        <ele>1105.52</ele>
        <time>2024-11-05T12:41:35.824Z</time>
      </trkpt>
      <trkpt lat="44.16084" lon="3.58278">
        <ele>1106.85</ele>
        <time>2024-11-05T12:41:44.136Z</time>
      </trkpt>
      <trkpt lat="44.16068" lon="3.58197">
        <ele>1111.48</ele>
        <time>2024-11-05T12:41:52.458Z</time>
      </trkpt>
      <trkpt lat="44.16056" lon="3.58157">
        <ele>1113.49</ele>
        <time>2024-11-05T12:42:00.785Z</time>
      </trkpt>
      <trkpt lat="44.16045" lon="3.58127">
        <ele>1114.97</ele>
        <time>2024-11-05T12:42:09.116Z</time>
      </trkpt>
      <trkpt lat="44.1602" lon="3.58059">
        <ele>1118.99</ele>
        <time>2024-11-05T12:42:17.455Z</time>
      </trkpt>
      <trkpt lat="44.16014" lon="3.5805">
        <ele>1119.62</ele>
        <time>2024-11-05T12:42:25.796Z</time>
      </trkpt>
      <trkpt lat="44.15985" lon="3.58023">
        <ele>1121.9</ele>
        <time>2024-11-05T12:42:34.142Z</time>
      </trkpt>
      <trkpt lat="44.15975" lon="3.58011">
        <ele>1122.54</ele>
        <time>2024-11-05T12:42:42.491Z</time>
      </trkpt>
      <trkpt lat="44.15969" lon="3.58003">
        <ele>1122.84</ele>
        <time>2024-11-05T12:42:50.841Z</time>
      </trkpt>
      <trkpt lat="44.15964" lon="3.57996">
        <ele>1122.7</ele>
        <time>2024-11-05T12:42:59.192Z</time>
      </trkpt>
      <trkpt lat="44.15926" lon="3.57917">
        <ele>1121.19</ele>
        <time>2024-11-05T12:43:07.554Z</time>
      </trkpt>
      <trkpt lat="44.15899" lon="3.57851">
        <ele>1120.13</ele>
        <time>2024-11-05T12:43:15.925Z</time>
      </trkpt>
      <trkpt lat="44.1588" lon="3.57818">
        <ele>1119.58</ele>
        <time>2024-11-05T12:43:24.301Z</time>
      </trkpt>
      <trkpt lat="44.15872" lon="3.57809">
        <ele>1119.39</ele>
        <time>2024-11-05T12:43:32.678Z</time>
      </trkpt>
      <trkpt lat="44.1586" lon="3.578">
        <ele>1119.19</ele>
        <time>2024-11-05T12:43:41.057Z</time>
      </trkpt>
      <trkpt lat="44.15845" lon="3.57792">
        <ele>1118.97</ele>
        <time>2024-11-05T12:43:49.439Z</time>
      </trkpt>
      <trkpt lat="44.15763" lon="3.57757">
        <ele>1117.82</ele>
        <time>2024-11-05T12:43:57.835Z</time>
      </trkpt>
      <trkpt lat="44.15745" lon="3.57752">
        <ele>1117.73</ele>
        <time>2024-11-05T12:44:06.234Z</time>
      </trkpt>
      <trkpt lat="44.15691" lon="3.57746">
        <ele>1117.44</ele>
        <time>2024-11-05T12:44:14.641Z</time>
      </trkpt>
      <trkpt lat="44.1566" lon="3.57747">
        <ele>1117.35</ele>
        <time>2024-11-05T12:44:23.053Z</time>
      </trkpt>
      <trkpt lat="44.15621" lon="3.57752">
        <ele>1117.12</ele>
        <time>2024-11-05T12:44:31.472Z</time>
      </trkpt>
      <trkpt lat="44.15595" lon="3.57751">
        <ele>1116.97</ele>
        <time>2024-11-05T12:44:39.895Z</time>
      </trkpt>
      <trkpt lat="44.15575" lon="3.57751">
        <ele>1116.71</ele>
        <time>2024-11-05T12:44:48.321Z</time>
      </trkpt>
      <trkpt lat="44.15532" lon="3.57755">
        <ele>1115.9</ele>
        <time>2024-11-05T12:44:56.754Z</time>
      </trkpt>
      <trkpt lat="44.15516" lon="3.57765">
        <ele>1115.63</ele>
        <time>2024-11-05T12:45:05.190Z</time>
      </trkpt>
      <trkpt lat="44.15501" lon="3.57778">
        <ele>1115.55</ele>
        <time>2024-11-05T12:45:13.628Z</time>
      </trkpt>
      <trkpt lat="44.1548" lon="3.57796">
        <ele>1115.83</ele>
        <time>2024-11-05T12:45:22.070Z</time>
      </trkpt>
      <trkpt lat="44.15467" lon="3.578">
        <ele>1115.9</ele>
        <time>2024-11-05T12:45:30.515Z</time>
      </trkpt>
      <trkpt lat="44.1546" lon="3.57799">
        <ele>1115.86</ele>
        <time>2024-11-05T12:45:38.961Z</time>
      </trkpt>
      <trkpt lat="44.15442" lon="3.57786">
        <ele>1115.67</ele>
        <time>2024-11-05T12:45:47.410Z</time>
      </trkpt>
      <trkpt lat="44.15435" lon="3.5777">
        <ele>1115.47</ele>
        <time>2024-11-05T12:45:55.861Z</time>
      </trkpt>
      <trkpt lat="44.15434" lon="3.57731">
        <ele>1115.27</ele>
        <time>2024-11-05T12:46:04.316Z</time>
      </trkpt>
      <trkpt lat="44.15433" lon="3.57695">
        <ele>1115.57</ele>
        <time>2024-11-05T12:46:12.776Z</time>
      </trkpt>
      <trkpt lat="44.15432" lon="3.57646">
        <ele>1116.29</ele>
        <time>2024-11-05T12:46:21.241Z</time>
      </trkpt>
      <trkpt lat="44.1543" lon="3.57566">
        <ele>1120.04</ele>
        <time>2024-11-05T12:46:29.716Z</time>
      </trkpt>
      <trkpt lat="44.15427" lon="3.57549">
        <ele>1120.81</ele>
        <time>2024-11-05T12:46:38.193Z</time>
      </trkpt>
      <trkpt lat="44.1542" lon="3.57501">
        <ele>1122.62</ele>
        <time>2024-11-05T12:46:46.675Z</time>
      </trkpt>
      <trkpt lat="44.15418" lon="3.57487">
        <ele>1122.62</ele>
        <time>2024-11-05T12:46:55.159Z</time>
      </trkpt>
      <trkpt lat="44.15408" lon="3.5742">
        <ele>1124.7</ele>
        <time>2024-11-05T12:47:03.651Z</time>
      </trkpt>
      <trkpt lat="44.15405" lon="3.5741">
        <ele>1125.02</ele>
        <time>2024-11-05T12:47:12.144Z</time>
      </trkpt>
      <trkpt lat="44.15395" lon="3.57396">
        <ele>1125.61</ele>
        <time>2024-11-05T12:47:20.639Z</time>
      </trkpt>
      <trkpt lat="44.15362" lon="3.57366">
        <ele>1127.31</ele>
        <time>2024-11-05T12:47:29.141Z</time>
      </trkpt>
      <trkpt lat="44.15359" lon="3.57357">
        <ele>1127.59</ele>
        <time>2024-11-05T12:47:37.644Z</time>
      </trkpt>
      <trkpt lat="44.15359" lon="3.57347">
        <ele>1127.67</ele>
        <time>2024-11-05T12:47:46.148Z</time>
      </trkpt>
      <trkpt lat="44.15364" lon="3.57332">
        <ele>1127.82</ele>
        <time>2024-11-05T12:47:54.654Z</time>
      </trkpt>
      <trkpt lat="44.15369" lon="3.57328">
        <ele>1127.92</ele>
        <time>2024-11-05T12:48:03.161Z</time>
      </trkpt>
      <trkpt lat="44.15378" lon="3.57327">
        <ele>1128.06</ele>
        <time>2024-11-05T12:48:11.669Z</time>
      </trkpt>
      <trkpt lat="44.15385" lon="3.5733">
        <ele>1128.14</ele>
        <time>2024-11-05T12:48:20.178Z</time>
      </trkpt>
      <trkpt lat="44.15406" lon="3.57347">
        <ele>1128.46</ele>
        <time>2024-11-05T12:48:28.691Z</time>
      </trkpt>
      <trkpt lat="44.15439" lon="3.57373">
        <ele>1129.54</ele>
        <time>2024-11-05T12:48:37.210Z</time>
      </trkpt>
      <trkpt lat="44.15448" lon="3.57374">
        <ele>1129.82</ele>
        <time>2024-11-05T12:48:45.731Z</time>
      </trkpt>
      <trkpt lat="44.15464" lon="3.57365">
        <ele>1130.29</ele>
        <time>2024-11-05T12:48:54.254Z</time>
      </trkpt>
      <trkpt lat="44.15472" lon="3.57363">
        <ele>1130.41</ele>
        <time>2024-11-05T12:49:02.779Z</time>
      </trkpt>
      <trkpt lat="44.15477" lon="3.57364">
        <ele>1130.45</ele>
        <time>2024-11-05T12:49:11.305Z</time>
      </trkpt>
      <trkpt lat="44.15481" lon="3.57369">
        <ele>1130.5</ele>
        <time>2024-11-05T12:49:19.831Z</time>
      </trkpt>
      <trkpt lat="44.15495" lon="3.57413">
        <ele>1130.94</ele>
        <time>2024-11-05T12:49:28.363Z</time>
      </trkpt>
      <trkpt lat="44.15504" lon="3.57436">
        <ele>1131.35</ele>
        <time>2024-11-05T12:49:36.898Z</time>
      </trkpt>
      <trkpt lat="44.15525" lon="3.5746">
        <ele>1131.92</ele>
        <time>2024-11-05T12:49:45.437Z</time>
      </trkpt>
      <trkpt lat="44.15541" lon="3.5747">
        <ele>1132.31</ele>
        <time>2024-11-05T12:49:53.979Z</time>
      </trkpt>
      <trkpt lat="44.15555" lon="3.57472">
        <ele>1132.64</ele>
        <time>2024-11-05T12:50:02.523Z</time>
      </trkpt>
      <trkpt lat="44.15579" lon="3.57468">
        <ele>1133.32</ele>
        <time>2024-11-05T12:50:11.071Z</time>
      </trkpt>
      <trkpt lat="44.15586" lon="3.57463">
        <ele>1133.56</ele>
        <time>2024-11-05T12:50:19.621Z</time>
      </trkpt>
      <trkpt lat="44.15593" lon="3.57454">
        <ele>1133.89</ele>
        <time>2024-11-05T12:50:28.172Z</time>
      </trkpt>
      <trkpt lat="44.15601" lon="3.57441">
        <ele>1134.32</ele>
        <time>2024-11-05T12:50:36.725Z</time>
      </trkpt>
      <trkpt lat="44.15611" lon="3.57418">
        <ele>1134.73</ele>
        <time>2024-11-05T12:50:45.281Z</time>
      </trkpt>
      <trkpt lat="44.15618" lon="3.57414">
        <ele>1134.85</ele>
        <time>2024-11-05T12:50:53.838Z</time>
      </trkpt>
      <trkpt lat="44.15673" lon="3.57402">
        <ele>1135.91</ele>
        <time>2024-11-05T12:51:02.404Z</time>
      </trkpt>
      <trkpt lat="44.15691" lon="3.57398">
        <ele>1136.42</ele>
        <time>2024-11-05T12:51:10.973Z</time>
      </trkpt>
      <trkpt lat="44.15714" lon="3.5739">
        <ele>1137.17</ele>
        <time>2024-11-05T12:51:19.546Z</time>
      </trkpt>
      <trkpt lat="44.15736" lon="3.57374">
        <ele>1137.96</ele>
        <time>2024-11-05T12:51:28.123Z</time>
      </trkpt>
      <trkpt lat="44.15753" lon="3.57357">
        <ele>1138.59</ele>
        <time>2024-11-05T12:51:36.703Z</time>
      </trkpt>
      <trkpt lat="44.15771" lon="3.57327">
        <ele>1139.53</ele>
        <time>2024-11-05T12:51:45.288Z</time>
      </trkpt>
      <trkpt lat="44.15779" lon="3.57305">
        <ele>1140.18</ele>
        <time>2024-11-05T12:51:53.876Z</time>
      </trkpt>
      <trkpt lat="44.15787" lon="3.57271">
        <ele>1141.37</ele>
        <time>2024-11-05T12:52:02.468Z</time>
      </trkpt>
      <trkpt lat="44.1579" lon="3.57237">
        <ele>1142.52</ele>
        <time>2024-11-05T12:52:11.064Z</time>
      </trkpt>
      <trkpt lat="44.15792" lon="3.57229">
        <ele>1142.62</ele>
        <time>2024-11-05T12:52:19.661Z</time>
      </trkpt>
      <trkpt lat="44.15795" lon="3.57226">
        <ele>1142.65</ele>
        <time>2024-11-05T12:52:28.258Z</time>
      </trkpt>
      <trkpt lat="44.15817" lon="3.57228">
        <ele>1142.78</ele>
        <time>2024-11-05T12:52:36.859Z</time>
      </trkpt>
      <trkpt lat="44.15841" lon="3.57231">
        <ele>1143.27</ele>
        <time>2024-11-05T12:52:45.464Z</time>
      </trkpt>
      <trkpt lat="44.15865" lon="3.57241">
        <ele>1143.9</ele>
        <time>2024-11-05T12:52:54.073Z</time>
      </trkpt>
      <trkpt lat="44.15886" lon="3.57246">
        <ele>1144.45</ele>
        <time>2024-11-05T12:53:02.685Z</time>
      </trkpt>
      <trkpt lat="44.15904" lon="3.5724">
        <ele>1144.87</ele>
        <time>2024-11-05T12:53:11.300Z</time>
      </trkpt>
      <trkpt lat="44.15919" lon="3.57228">
        <ele>1145.22</ele>
        <time>2024-11-05T12:53:19.918Z</time>
      </trkpt>
      <trkpt lat="44.15938" lon="3.57202">
        <ele>1145.86</ele>
        <time>2024-11-05T12:53:28.540Z</time>
      </trkpt>
      <trkpt lat="44.15958" lon="3.57157">
        <ele>1146.83</ele>
        <time>2024-11-05T12:53:37.168Z</time>
      </trkpt>
      <trkpt lat="44.15965" lon="3.57136">
        <ele>1147.22</ele>
        <time>2024-11-05T12:53:45.799Z</time>
      </trkpt>
      <trkpt lat="44.15968" lon="3.57116">
        <ele>1147.57</ele>
        <time>2024-11-05T12:53:54.432Z</time>
      </trkpt>
      <trkpt lat="44.15966" lon="3.5704">
        <ele>1149.04</ele>
        <time>2024-11-05T12:54:03.074Z</time>
      </trkpt>
      <trkpt lat="44.15957" lon="3.56997">
        <ele>1150.18</ele>
        <time>2024-11-05T12:54:11.721Z</time>
      </trkpt>
      <trkpt lat="44.15945" lon="3.56961">
        <ele>1150.98</ele>
        <time>2024-11-05T12:54:20.373Z</time>
      </trkpt>
      <trkpt lat="44.15947" lon="3.56948">
        <ele>1151.16</ele>
        <time>2024-11-05T12:54:29.026Z</time>
      </trkpt>
      <trkpt lat="44.15966" lon="3.56913">
        <ele>1151.77</ele>
        <time>2024-11-05T12:54:37.684Z</time>
      </trkpt>
      <trkpt lat="44.15979" lon="3.56867">
        <ele>1152.83</ele>
        <time>2024-11-05T12:54:46.348Z</time>
      </trkpt>
      <trkpt lat="44.15983" lon="3.56846">
        <ele>1153.29</ele>
        <time>2024-11-05T12:54:55.014Z</time>
      </trkpt>
      <trkpt lat="44.15985" lon="3.56826">
        <ele>1153.7</ele>
        <time>2024-11-05T12:55:03.683Z</time>
      </trkpt>
      <trkpt lat="44.15984" lon="3.56798">
        <ele>1154.41</ele>
        <time>2024-11-05T12:55:12.355Z</time>
      </trkpt>
      <trkpt lat="44.15984" lon="3.56779">
        <ele>1155.1</ele>
        <time>2024-11-05T12:55:21.029Z</time>
      </trkpt>
      <trkpt lat="44.15983" lon="3.56749">
        <ele>1156.52</ele>
        <time>2024-11-05T12:55:29.707Z</time>
      </trkpt>
      <trkpt lat="44.15984" lon="3.56737">
        <ele>1156.84</ele>
        <time>2024-11-05T12:55:38.386Z</time>
      </trkpt>
      <trkpt lat="44.15987" lon="3.56731">
        <ele>1156.96</ele>
        <time>2024-11-05T12:55:47.066Z</time>
      </trkpt>
      <trkpt lat="44.15992" lon="3.56726">
        <ele>1156.99</ele>
        <time>2024-11-05T12:55:55.747Z</time>
      </trkpt>
      <trkpt lat="44.16021" lon="3.56721">
        <ele>1157.11</ele>
        <time>2024-11-05T12:56:04.433Z</time>
      </trkpt>
      <trkpt lat="44.16029" lon="3.56715">
        <ele>1157.22</ele>
        <time>2024-11-05T12:56:13.120Z</time>
      </trkpt>
      <trkpt lat="44.16047" lon="3.56685">
        <ele>1157.72</ele>
        <time>2024-11-05T12:56:21.811Z</time>
      </trkpt>
      <trkpt lat="44.16081" lon="3.5662">
        <ele>1159.12</ele>
        <time>2024-11-05T12:56:30.512Z</time>
      </trkpt>
      <trkpt lat="44.16118" lon="3.5655">
        <ele>1161</ele>
        <time>2024-11-05T12:56:39.223Z</time>
      </trkpt>
      <trkpt lat="44.16141" lon="3.56507">
        <ele>1162.46</ele>
        <time>2024-11-05T12:56:47.940Z</time>
      </trkpt>
      <trkpt lat="44.16154" lon="3.56493">
        <ele>1163.07</ele>
        <time>2024-11-05T12:56:56.660Z</time>
      </trkpt>
      <trkpt lat="44.16196" lon="3.56469">
        <ele>1164.49</ele>
        <time>2024-11-05T12:57:05.387Z</time>
      </trkpt>
      <trkpt lat="44.16204" lon="3.56462">
        <ele>1164.76</ele>
        <time>2024-11-05T12:57:14.115Z</time>
      </trkpt>
      <trkpt lat="44.1622" lon="3.56441">
        <ele>1165.47</ele>
        <time>2024-11-05T12:57:22.847Z</time>
      </trkpt>
      <trkpt lat="44.16227" lon="3.56428">
        <ele>1165.89</ele>
        <time>2024-11-05T12:57:31.581Z</time>
      </trkpt>
      <trkpt lat="44.16233" lon="3.56406">
        <ele>1166.37</ele>
        <time>2024-11-05T12:57:40.317Z</time>
      </trkpt>
      <trkpt lat="44.16234" lon="3.56392">
        <ele>1166.59</ele>
        <time>2024-11-05T12:57:49.055Z</time>
      </trkpt>
      <trkpt lat="44.16227" lon="3.56318">
        <ele>1167.71</ele>
        <time>2024-11-05T12:57:57.802Z</time>
      </trkpt>
      <trkpt lat="44.16223" lon="3.56269">
        <ele>1168.66</ele>
        <time>2024-11-05T12:58:06.554Z</time>
      </trkpt>
      <trkpt lat="44.16217" lon="3.56238">
        <ele>1169.3</ele>
        <time>2024-11-05T12:58:15.310Z</time>
      </trkpt>
      <trkpt lat="44.16191" lon="3.56161">
        <ele>1170.96</ele>
        <time>2024-11-05T12:58:24.076Z</time>
      </trkpt>
      <trkpt lat="44.16189" lon="3.56149">
        <ele>1171.24</ele>
        <time>2024-11-05T12:58:32.843Z</time>
      </trkpt>
      <trkpt lat="44.16189" lon="3.56087">
        <ele>1172.67</ele>
        <time>2024-11-05T12:58:41.617Z</time>
      </trkpt>
      <trkpt lat="44.16185" lon="3.56055">
        <ele>1173.45</ele>
        <time>2024-11-05T12:58:50.395Z</time>
      </trkpt>
      <trkpt lat="44.16173" lon="3.55996">
        <ele>1174.92</ele>
        <time>2024-11-05T12:58:59.180Z</time>
      </trkpt>
      <trkpt lat="44.16168" lon="3.55982">
        <ele>1175.34</ele>
        <time>2024-11-05T12:59:07.967Z</time>
      </trkpt>
      <trkpt lat="44.16144" lon="3.55938">
        <ele>1177.32</ele>
        <time>2024-11-05T12:59:16.760Z</time>
      </trkpt>
      <trkpt lat="44.16146" lon="3.55922">
        <ele>1177.68</ele>
        <time>2024-11-05T12:59:25.555Z</time>
      </trkpt>
      <trkpt lat="44.16154" lon="3.55903">
        <ele>1178.13</ele>
        <time>2024-11-05T12:59:34.353Z</time>
      </trkpt>
      <trkpt lat="44.16154" lon="3.55882">
        <ele>1178.65</ele>
        <time>2024-11-05T12:59:43.153Z</time>
      </trkpt>
      <trkpt lat="44.16132" lon="3.5581">
        <ele>1180.48</ele>
        <time>2024-11-05T12:59:51.962Z</time>
      </trkpt>
      <trkpt lat="44.1613" lon="3.55804">
        <ele>1180.48</ele>
        <time>2024-11-05T13:00:00.772Z</time>
      </trkpt>
      <trkpt lat="44.1613" lon="3.55795">
        <ele>1180.48</ele>
        <time>2024-11-05T13:00:09.583Z</time>
      </trkpt>
      <trkpt lat="44.16133" lon="3.55787">
        <ele>1180.46</ele>
        <time>2024-11-05T13:00:18.395Z</time>
      </trkpt>
      <trkpt lat="44.16155" lon="3.55768">
        <ele>1180.43</ele>
        <time>2024-11-05T13:00:27.211Z</time>
      </trkpt>
      <trkpt lat="44.16163" lon="3.55755">
        <ele>1180.55</ele>
        <time>2024-11-05T13:00:36.029Z</time>
      </trkpt>
      <trkpt lat="44.16183" lon="3.55712">
        <ele>1181.21</ele>
        <time>2024-11-05T13:00:44.853Z</time>
      </trkpt>
      <trkpt lat="44.16203" lon="3.55683">
        <ele>1181.82</ele>
        <time>2024-11-05T13:00:53.682Z</time>
      </trkpt>
      <trkpt lat="44.16253" lon="3.55568">
        <ele>1183.87</ele>
        <time>2024-11-05T13:01:02.526Z</time>
      </trkpt>
      <trkpt lat="44.16274" lon="3.55493">
        <ele>1185.54</ele>
        <time>2024-11-05T13:01:11.379Z</time>
      </trkpt>
      <trkpt lat="44.16281" lon="3.55477">
        <ele>1185.99</ele>
        <time>2024-11-05T13:01:20.235Z</time>
      </trkpt>
      <trkpt lat="44.163" lon="3.55448">
        <ele>1186.9</ele>
        <time>2024-11-05T13:01:29.095Z</time>
      </trkpt>
      <trkpt lat="44.16308" lon="3.55428">
        <ele>1187.38</ele>
        <time>2024-11-05T13:01:37.958Z</time>
      </trkpt>
      <trkpt lat="44.16325" lon="3.55371">
        <ele>1188.74</ele>
        <time>2024-11-05T13:01:46.828Z</time>
      </trkpt>
      <trkpt lat="44.16336" lon="3.55322">
        <ele>1190.18</ele>
        <time>2024-11-05T13:01:55.704Z</time>
      </trkpt>
      <trkpt lat="44.16342" lon="3.55303">
        <ele>1190.78</ele>
        <time>2024-11-05T13:02:04.582Z</time>
      </trkpt>
      <trkpt lat="44.16366" lon="3.55271">
        <ele>1191.99</ele>
        <time>2024-11-05T13:02:13.465Z</time>
      </trkpt>
      <trkpt lat="44.16372" lon="3.55257">
        <ele>1192.38</ele>
        <time>2024-11-05T13:02:22.350Z</time>
      </trkpt>
      <trkpt lat="44.16374" lon="3.55248">
        <ele>1192.55</ele>
        <time>2024-11-05T13:02:31.236Z</time>
      </trkpt>
      <trkpt lat="44.16374" lon="3.55233">
        <ele>1192.8</ele>
        <time>2024-11-05T13:02:40.124Z</time>
      </trkpt>
      <trkpt lat="44.16365" lon="3.55186">
        <ele>1193.82</ele>
        <time>2024-11-05T13:02:49.018Z</time>
      </trkpt>
      <trkpt lat="44.16365" lon="3.55165">
        <ele>1194.34</ele>
        <time>2024-11-05T13:02:57.914Z</time>
      </trkpt>
      <trkpt lat="44.16368" lon="3.55144">
        <ele>1194.88</ele>
        <time>2024-11-05T13:03:06.813Z</time>
      </trkpt>
      <trkpt lat="44.16373" lon="3.5513">
        <ele>1195.29</ele>
        <time>2024-11-05T13:03:15.713Z</time>
      </trkpt>
      <trkpt lat="44.16398" lon="3.55083">
        <ele>1197.18</ele>
        <time>2024-11-05T13:03:24.620Z</time>
      </trkpt>
      <trkpt lat="44.16412" lon="3.5505">
        <ele>1198.47</ele>
        <time>2024-11-05T13:03:33.532Z</time>
      </trkpt>
      <trkpt lat="44.16428" lon="3.55009">
        <ele>1199.67</ele>
        <time>2024-11-05T13:03:42.449Z</time>
      </trkpt>
      <trkpt lat="44.16443" lon="3.54983">
        <ele>1200.56</ele>
        <time>2024-11-05T13:03:51.370Z</time>
      </trkpt>
      <trkpt lat="44.16446" lon="3.54977">
        <ele>1200.59</ele>
        <time>2024-11-05T13:04:00.292Z</time>
      </trkpt>
      <trkpt lat="44.16436" lon="3.54951">
        <ele>1200.74</ele>
        <time>2024-11-05T13:04:09.217Z</time>
      </trkpt>
      <trkpt lat="44.16432" lon="3.54941">
        <ele>1201.14</ele>
        <time>2024-11-05T13:04:18.143Z</time>
      </trkpt>
      <trkpt lat="44.16418" lon="3.54906">
        <ele>1202.8</ele>
        <time>2024-11-05T13:04:27.074Z</time>
      </trkpt>
      <trkpt lat="44.16399" lon="3.54868">
        <ele>1205.07</ele>
        <time>2024-11-05T13:04:36.010Z</time>
      </trkpt>
      <trkpt lat="44.16388" lon="3.54858">
        <ele>1206</ele>
        <time>2024-11-05T13:04:44.948Z</time>
      </trkpt>
      <trkpt lat="44.1638" lon="3.54854">
        <ele>1206.65</ele>
        <time>2024-11-05T13:04:53.888Z</time>
      </trkpt>
      <trkpt lat="44.1637" lon="3.54853">
        <ele>1207.39</ele>
        <time>2024-11-05T13:05:02.829Z</time>
      </trkpt>
      <trkpt lat="44.16359" lon="3.54854">
        <ele>1208.14</ele>
        <time>2024-11-05T13:05:11.772Z</time>
      </trkpt>
      <trkpt lat="44.1633" lon="3.54867">
        <ele>1210.02</ele>
        <time>2024-11-05T13:05:20.720Z</time>
      </trkpt>
      <trkpt lat="44.16317" lon="3.5487">
        <ele>1210.94</ele>
        <time>2024-11-05T13:05:29.670Z</time>
      </trkpt>
      <trkpt lat="44.16307" lon="3.54871">
        <ele>1211.64</ele>
        <time>2024-11-05T13:05:38.622Z</time>
      </trkpt>
      <trkpt lat="44.16276" lon="3.54863">
        <ele>1214.11</ele>
        <time>2024-11-05T13:05:47.579Z</time>
      </trkpt>
      <trkpt lat="44.16264" lon="3.54862">
        <ele>1215</ele>
        <time>2024-11-05T13:05:56.538Z</time>
      </trkpt>
      <trkpt lat="44.16252" lon="3.54866">
        <ele>1215.87</ele>
        <time>2024-11-05T13:06:05.499Z</time>
      </trkpt>
      <trkpt lat="44.16238" lon="3.54874">
        <ele>1216.85</ele>
        <time>2024-11-05T13:06:14.462Z</time>
      </trkpt>
      <trkpt lat="44.1619" lon="3.54912">
        <ele>1220.27</ele>
        <time>2024-11-05T13:06:23.434Z</time>
      </trkpt>
      <trkpt lat="44.16173" lon="3.5492">
        <ele>1221.44</ele>
        <time>2024-11-05T13:06:32.409Z</time>
      </trkpt>
      <trkpt lat="44.16124" lon="3.54933">
        <ele>1225.13</ele>
        <time>2024-11-05T13:06:41.392Z</time>
      </trkpt>
      <trkpt lat="44.16114" lon="3.54933">
        <ele>1225.78</ele>
        <time>2024-11-05T13:06:50.376Z</time>
      </trkpt>
      <trkpt lat="44.16099" lon="3.54924">
        <ele>1226.85</ele>
        <time>2024-11-05T13:06:59.363Z</time>
      </trkpt>
      <trkpt lat="44.16091" lon="3.54913">
        <ele>1227.57</ele>
        <time>2024-11-05T13:07:08.352Z</time>
      </trkpt>
      <trkpt lat="44.16076" lon="3.54863">
        <ele>1229.85</ele>
        <time>2024-11-05T13:07:17.347Z</time>
      </trkpt>
      <trkpt lat="44.16072" lon="3.54833">
        <ele>1231.06</ele>
        <time>2024-11-05T13:07:26.345Z</time>
      </trkpt>
      <trkpt lat="44.1607" lon="3.54791">
        <ele>1233.06</ele>
        <time>2024-11-05T13:07:35.348Z</time>
      </trkpt>
      <trkpt lat="44.16076" lon="3.54712">
        <ele>1236.97</ele>
        <time>2024-11-05T13:07:44.360Z</time>
      </trkpt>
      <trkpt lat="44.16096" lon="3.54587">
        <ele>1242.96</ele>
        <time>2024-11-05T13:07:53.387Z</time>
      </trkpt>
      <trkpt lat="44.16097" lon="3.54564">
        <ele>1244.2</ele>
        <time>2024-11-05T13:08:02.417Z</time>
      </trkpt>
      <trkpt lat="44.16096" lon="3.54544">
        <ele>1245.36</ele>
        <time>2024-11-05T13:08:11.449Z</time>
      </trkpt>
      <trkpt lat="44.16086" lon="3.54518">
        <ele>1246.69</ele>
        <time>2024-11-05T13:08:20.485Z</time>
      </trkpt>
      <trkpt lat="44.16065" lon="3.54495">
        <ele>1248.06</ele>
        <time>2024-11-05T13:08:29.525Z</time>
      </trkpt>
      <trkpt lat="44.1605" lon="3.54486">
        <ele>1248.93</ele>
        <time>2024-11-05T13:08:38.567Z</time>
      </trkpt>
      <trkpt lat="44.16037" lon="3.54481">
        <ele>1249.73</ele>
        <time>2024-11-05T13:08:47.612Z</time>
      </trkpt>
      <trkpt lat="44.16022" lon="3.5448">
        <ele>1250.69</ele>
        <time>2024-11-05T13:08:56.659Z</time>
      </trkpt>
      <trkpt lat="44.15937" lon="3.54495">
        <ele>1256.36</ele>
        <time>2024-11-05T13:09:05.720Z</time>
      </trkpt>
      <trkpt lat="44.15921" lon="3.54495">
        <ele>1257.51</ele>
        <time>2024-11-05T13:09:14.783Z</time>
      </trkpt>
      <trkpt lat="44.15879" lon="3.54486">
        <ele>1260.51</ele>
        <time>2024-11-05T13:09:23.853Z</time>
      </trkpt>
      <trkpt lat="44.15863" lon="3.54486">
        <ele>1261.6</ele>
        <time>2024-11-05T13:09:32.926Z</time>
      </trkpt>
      <trkpt lat="44.15837" lon="3.54492">
        <ele>1263.28</ele>
        <time>2024-11-05T13:09:42.003Z</time>
      </trkpt>
      <trkpt lat="44.15804" lon="3.54502">
        <ele>1265.79</ele>
        <time>2024-11-05T13:09:51.085Z</time>
      </trkpt>
      <trkpt lat="44.15776" lon="3.54514">
        <ele>1268.03</ele>
        <time>2024-11-05T13:10:00.172Z</time>
      </trkpt>
      <trkpt lat="44.15725" lon="3.54538">
        <ele>1271.8</ele>
        <time>2024-11-05T13:10:09.268Z</time>
      </trkpt>
      <trkpt lat="44.15706" lon="3.54548">
        <ele>1273.39</ele>
        <time>2024-11-05T13:10:18.367Z</time>
      </trkpt>
      <trkpt lat="44.15691" lon="3.54561">
        <ele>1274.79</ele>
        <time>2024-11-05T13:10:27.469Z</time>
      </trkpt>
      <trkpt lat="44.15654" lon="3.54608">
        <ele>1278.29</ele>
        <time>2024-11-05T13:10:36.579Z</time>
      </trkpt>
      <trkpt lat="44.15641" lon="3.54632">
        <ele>1279.79</ele>
        <time>2024-11-05T13:10:45.692Z</time>
      </trkpt>
      <trkpt lat="44.15614" lon="3.54701">
        <ele>1283.89</ele>
        <time>2024-11-05T13:10:54.814Z</time>
      </trkpt>
      <trkpt lat="44.15602" lon="3.54727">
        <ele>1285.5</ele>
        <time>2024-11-05T13:11:03.940Z</time>
      </trkpt>
      <trkpt lat="44.15589" lon="3.54747">
        <ele>1286.79</ele>
        <time>2024-11-05T13:11:13.069Z</time>
      </trkpt>
      <trkpt lat="44.15574" lon="3.54763">
        <ele>1288.1</ele>
        <time>2024-11-05T13:11:22.201Z</time>
      </trkpt>
      <trkpt lat="44.15561" lon="3.54772">
        <ele>1289.08</ele>
        <time>2024-11-05T13:11:31.335Z</time>
      </trkpt>
      <trkpt lat="44.15505" lon="3.54798">
        <ele>1293.03</ele>
        <time>2024-11-05T13:11:40.479Z</time>
      </trkpt>
      <trkpt lat="44.15491" lon="3.54807">
        <ele>1294.08</ele>
        <time>2024-11-05T13:11:49.625Z</time>
      </trkpt>
      <trkpt lat="44.15479" lon="3.54818">
        <ele>1295.07</ele>
        <time>2024-11-05T13:11:58.773Z</time>
      </trkpt>
      <trkpt lat="44.15449" lon="3.54866">
        <ele>1298.29</ele>
        <time>2024-11-05T13:12:07.929Z</time>
      </trkpt>
      <trkpt lat="44.15439" lon="3.54874">
        <ele>1298.99</ele>
        <time>2024-11-05T13:12:17.087Z</time>
      </trkpt>
      <trkpt lat="44.15428" lon="3.54877">
        <ele>1299.69</ele>
        <time>2024-11-05T13:12:26.246Z</time>
      </trkpt>
      <trkpt lat="44.15373" lon="3.54873">
        <ele>1302.84</ele>
        <time>2024-11-05T13:12:35.414Z</time>
      </trkpt>
      <trkpt lat="44.15334" lon="3.54866">
        <ele>1305.52</ele>
        <time>2024-11-05T13:12:44.589Z</time>
      </trkpt>
      <trkpt lat="44.15318" lon="3.54866">
        <ele>1306.71</ele>
        <time>2024-11-05T13:12:53.766Z</time>
      </trkpt>
      <trkpt lat="44.15302" lon="3.54869">
        <ele>1307.9</ele>
        <time>2024-11-05T13:13:02.946Z</time>
      </trkpt>
      <trkpt lat="44.15283" lon="3.54878">
        <ele>1309.33</ele>
        <time>2024-11-05T13:13:12.129Z</time>
      </trkpt>
      <trkpt lat="44.15254" lon="3.54899">
        <ele>1311.57</ele>
        <time>2024-11-05T13:13:21.317Z</time>
      </trkpt>
      <trkpt lat="44.15213" lon="3.54934">
        <ele>1314.88</ele>
        <time>2024-11-05T13:13:30.513Z</time>
      </trkpt>
      <trkpt lat="44.15197" lon="3.54953">
        <ele>1316.34</ele>
        <time>2024-11-05T13:13:39.712Z</time>
      </trkpt>
      <trkpt lat="44.15181" lon="3.54981">
        <ele>1318.1</ele>
        <time>2024-11-05T13:13:48.915Z</time>
      </trkpt>
      <trkpt lat="44.15162" lon="3.55021">
        <ele>1320.56</ele>
        <time>2024-11-05T13:13:58.124Z</time>
      </trkpt>
      <trkpt lat="44.15148" lon="3.5506">
        <ele>1322.77</ele>
        <time>2024-11-05T13:14:07.338Z</time>
      </trkpt>
      <trkpt lat="44.15141" lon="3.55086">
        <ele>1324.08</ele>
        <time>2024-11-05T13:14:16.555Z</time>
      </trkpt>
      <trkpt lat="44.15137" lon="3.55134">
        <ele>1326.52</ele>
        <time>2024-11-05T13:14:25.778Z</time>
      </trkpt>
      <trkpt lat="44.1514" lon="3.55159">
        <ele>1327.81</ele>
        <time>2024-11-05T13:14:35.004Z</time>
      </trkpt>
      <trkpt lat="44.15146" lon="3.55178">
        <ele>1328.8</ele>
        <time>2024-11-05T13:14:44.232Z</time>
      </trkpt>
      <trkpt lat="44.15158" lon="3.55204">
        <ele>1330.16</ele>
        <time>2024-11-05T13:14:53.463Z</time>
      </trkpt>
      <trkpt lat="44.15183" lon="3.55251">
        <ele>1333.17</ele>
        <time>2024-11-05T13:15:02.701Z</time>
      </trkpt>
      <trkpt lat="44.15195" lon="3.55284">
        <ele>1335.12</ele>
        <time>2024-11-05T13:15:11.943Z</time>
      </trkpt>
      <trkpt lat="44.15202" lon="3.55394">
        <ele>1340.95</ele>
        <time>2024-11-05T13:15:21.198Z</time>
      </trkpt>
      <trkpt lat="44.15202" lon="3.55408">
        <ele>1341.65</ele>
        <time>2024-11-05T13:15:30.455Z</time>
      </trkpt>
      <trkpt lat="44.15195" lon="3.55435">
        <ele>1342.92</ele>
        <time>2024-11-05T13:15:39.715Z</time>
      </trkpt>
      <trkpt lat="44.15187" lon="3.55445">
        <ele>1343.54</ele>
        <time>2024-11-05T13:15:48.977Z</time>
      </trkpt>
      <trkpt lat="44.15178" lon="3.55451">
        <ele>1344.12</ele>
        <time>2024-11-05T13:15:58.240Z</time>
      </trkpt>
      <trkpt lat="44.1517" lon="3.55452">
        <ele>1344.59</ele>
        <time>2024-11-05T13:16:07.505Z</time>
      </trkpt>
      <trkpt lat="44.15162" lon="3.55448">
        <ele>1345.08</ele>
        <time>2024-11-05T13:16:16.771Z</time>
      </trkpt>
      <trkpt lat="44.15137" lon="3.55429">
        <ele>1346.61</ele>
        <time>2024-11-05T13:16:26.042Z</time>
      </trkpt>
      <trkpt lat="44.15123" lon="3.55421">
        <ele>1347.55</ele>
        <time>2024-11-05T13:16:35.315Z</time>
      </trkpt>
      <trkpt lat="44.15097" lon="3.55409">
        <ele>1349.5</ele>
        <time>2024-11-05T13:16:44.592Z</time>
      </trkpt>
      <trkpt lat="44.15084" lon="3.55407">
        <ele>1350.44</ele>
        <time>2024-11-05T13:16:53.872Z</time>
      </trkpt>
      <trkpt lat="44.15073" lon="3.55409">
        <ele>1351.18</ele>
        <time>2024-11-05T13:17:03.153Z</time>
      </trkpt>
      <trkpt lat="44.1506" lon="3.55415">
        <ele>1352.11</ele>
        <time>2024-11-05T13:17:12.436Z</time>
      </trkpt>
      <trkpt lat="44.15049" lon="3.55425">
        <ele>1353</ele>
        <time>2024-11-05T13:17:21.722Z</time>
      </trkpt>
      <trkpt lat="44.15039" lon="3.55438">
        <ele>1353.94</ele>
        <time>2024-11-05T13:17:31.010Z</time>
      </trkpt>
      <trkpt lat="44.1503" lon="3.55456">
        <ele>1355</ele>
        <time>2024-11-05T13:17:40.300Z</time>
      </trkpt>
      <trkpt lat="44.15026" lon="3.5547">
        <ele>1355.72</ele>
        <time>2024-11-05T13:17:49.592Z</time>
      </trkpt>
      <trkpt lat="44.15023" lon="3.55501">
        <ele>1357.23</ele>
        <time>2024-11-05T13:17:58.888Z</time>
      </trkpt>
      <trkpt lat="44.15021" lon="3.55607">
        <ele>1362.64</ele>
        <time>2024-11-05T13:18:08.196Z</time>
      </trkpt>
      <trkpt lat="44.15017" lon="3.55621">
        <ele>1363.33</ele>
        <time>2024-11-05T13:18:17.506Z</time>
      </trkpt>
      <trkpt lat="44.15012" lon="3.5563">
        <ele>1363.83</ele>
        <time>2024-11-05T13:18:26.817Z</time>
      </trkpt>
      <trkpt lat="44.14996" lon="3.55638">
        <ele>1364.84</ele>
        <time>2024-11-05T13:18:36.131Z</time>
      </trkpt>
      <trkpt lat="44.14952" lon="3.55638">
        <ele>1367.49</ele>
        <time>2024-11-05T13:18:45.452Z</time>
      </trkpt>
      <trkpt lat="44.14935" lon="3.5564">
        <ele>1368.54</ele>
        <time>2024-11-05T13:18:54.775Z</time>
      </trkpt>
      <trkpt lat="44.14921" lon="3.55646">
        <ele>1369.39</ele>
        <time>2024-11-05T13:19:04.101Z</time>
      </trkpt>
      <trkpt lat="44.14899" lon="3.5566">
        <ele>1370.77</ele>
        <time>2024-11-05T13:19:13.431Z</time>
      </trkpt>
      <trkpt lat="44.14863" lon="3.55696">
        <ele>1373.35</ele>
        <time>2024-11-05T13:19:22.768Z</time>
      </trkpt>
      <trkpt lat="44.14832" lon="3.55742">
        <ele>1376.36</ele>
        <time>2024-11-05T13:19:32.112Z</time>
      </trkpt>
      <trkpt lat="44.14823" lon="3.55753">
        <ele>1377.17</ele>
        <time>2024-11-05T13:19:41.458Z</time>
      </trkpt>
      <trkpt lat="44.14813" lon="3.55759">
        <ele>1377.85</ele>
        <time>2024-11-05T13:19:50.806Z</time>
      </trkpt>
      <trkpt lat="44.14772" lon="3.55776">
        <ele>1380.35</ele>
        <time>2024-11-05T13:20:00.160Z</time>
      </trkpt>
      <trkpt lat="44.14756" lon="3.55787">
        <ele>1381.39</ele>
        <time>2024-11-05T13:20:09.517Z</time>
      </trkpt>
      <trkpt lat="44.1474" lon="3.55804">
        <ele>1382.56</ele>
        <time>2024-11-05T13:20:18.878Z</time>
      </trkpt>
      <trkpt lat="44.14723" lon="3.55827">
        <ele>1383.9</ele>
        <time>2024-11-05T13:20:28.242Z</time>
      </trkpt>
      <trkpt lat="44.14705" lon="3.55867">
        <ele>1385.77</ele>
        <time>2024-11-05T13:20:37.612Z</time>
      </trkpt>
      <trkpt lat="44.14697" lon="3.55893">
        <ele>1387</ele>
        <time>2024-11-05T13:20:46.985Z</time>
      </trkpt>
      <trkpt lat="44.14687" lon="3.55949">
        <ele>1389.48</ele>
        <time>2024-11-05T13:20:56.365Z</time>
      </trkpt>
      <trkpt lat="44.14682" lon="3.55969">
        <ele>1390.4</ele>
        <time>2024-11-05T13:21:05.747Z</time>
      </trkpt>
      <trkpt lat="44.14673" lon="3.55985">
        <ele>1391.26</ele>
        <time>2024-11-05T13:21:15.131Z</time>
      </trkpt>
      <trkpt lat="44.14651" lon="3.56012">
        <ele>1392.98</ele>
        <time>2024-11-05T13:21:24.520Z</time>
      </trkpt>
      <trkpt lat="44.14621" lon="3.5606">
        <ele>1395.46</ele>
        <time>2024-11-05T13:21:33.916Z</time>
      </trkpt>
      <trkpt lat="44.14576" lon="3.56158">
        <ele>1400.01</ele>
        <time>2024-11-05T13:21:43.326Z</time>
      </trkpt>
      <trkpt lat="44.14544" lon="3.56227">
        <ele>1402.84</ele>
        <time>2024-11-05T13:21:52.745Z</time>
      </trkpt>
      <trkpt lat="44.14533" lon="3.56246">
        <ele>1403.48</ele>
        <time>2024-11-05T13:22:02.167Z</time>
      </trkpt>
      <trkpt lat="44.14508" lon="3.56269">
        <ele>1404.26</ele>
        <time>2024-11-05T13:22:11.594Z</time>
      </trkpt>
      <trkpt lat="44.14486" lon="3.56282">
        <ele>1405.31</ele>
        <time>2024-11-05T13:22:21.025Z</time>
      </trkpt>
      <trkpt lat="44.14425" lon="3.56321">
        <ele>1409.35</ele>
        <time>2024-11-05T13:22:30.467Z</time>
      </trkpt>
      <trkpt lat="44.1437" lon="3.56362">
        <ele>1413.53</ele>
        <time>2024-11-05T13:22:39.919Z</time>
      </trkpt>
      <trkpt lat="44.14345" lon="3.5638">
        <ele>1415.6</ele>
        <time>2024-11-05T13:22:49.375Z</time>
      </trkpt>
      <trkpt lat="44.1433" lon="3.56389">
        <ele>1416.81</ele>
        <time>2024-11-05T13:22:58.834Z</time>
      </trkpt>
      <trkpt lat="44.14308" lon="3.56398">
        <ele>1418.54</ele>
        <time>2024-11-05T13:23:08.296Z</time>
      </trkpt>
      <trkpt lat="44.14227" lon="3.5643">
        <ele>1425.53</ele>
        <time>2024-11-05T13:23:17.772Z</time>
      </trkpt>
      <trkpt lat="44.14189" lon="3.56445">
        <ele>1429.1</ele>
        <time>2024-11-05T13:23:27.254Z</time>
      </trkpt>
      <trkpt lat="44.14128" lon="3.56462">
        <ele>1434.91</ele>
        <time>2024-11-05T13:23:36.746Z</time>
      </trkpt>
      <trkpt lat="44.14036" lon="3.56463">
        <ele>1443.85</ele>
        <time>2024-11-05T13:23:46.253Z</time>
      </trkpt>
      <trkpt lat="44.13998" lon="3.56474">
        <ele>1447.5</ele>
        <time>2024-11-05T13:23:55.766Z</time>
      </trkpt>
      <trkpt lat="44.13976" lon="3.56476">
        <ele>1449.67</ele>
        <time>2024-11-05T13:24:05.283Z</time>
      </trkpt>
      <trkpt lat="44.13957" lon="3.56472">
        <ele>1451.66</ele>
        <time>2024-11-05T13:24:14.803Z</time>
      </trkpt>
      <trkpt lat="44.13924" lon="3.56459">
        <ele>1455.32</ele>
        <time>2024-11-05T13:24:24.328Z</time>
      </trkpt>
      <trkpt lat="44.13882" lon="3.56446">
        <ele>1459.12</ele>
        <time>2024-11-05T13:24:33.860Z</time>
      </trkpt>
      <trkpt lat="44.13769" lon="3.56444">
        <ele>1468.79</ele>
        <time>2024-11-05T13:24:43.410Z</time>
      </trkpt>
      <trkpt lat="44.1374" lon="3.56444">
        <ele>1471.03</ele>
        <time>2024-11-05T13:24:52.965Z</time>
      </trkpt>
      <trkpt lat="44.13725" lon="3.56442">
        <ele>1472.16</ele>
        <time>2024-11-05T13:25:02.522Z</time>
      </trkpt>
      <trkpt lat="44.13713" lon="3.56438">
        <ele>1473.14</ele>
        <time>2024-11-05T13:25:12.081Z</time>
      </trkpt>
      <trkpt lat="44.13672" lon="3.56409">
        <ele>1476.89</ele>
        <time>2024-11-05T13:25:21.647Z</time>
      </trkpt>
      <trkpt lat="44.13656" lon="3.56396">
        <ele>1478.31</ele>
        <time>2024-11-05T13:25:31.216Z</time>
      </trkpt>
      <trkpt lat="44.13625" lon="3.5637">
        <ele>1480.78</ele>
        <time>2024-11-05T13:25:40.791Z</time>
      </trkpt>
      <trkpt lat="44.13617" lon="3.56358">
        <ele>1481.56</ele>
        <time>2024-11-05T13:25:50.368Z</time>
      </trkpt>
      <trkpt lat="44.13606" lon="3.56326">
        <ele>1483.4</ele>
        <time>2024-11-05T13:25:59.949Z</time>
      </trkpt>
      <trkpt lat="44.13604" lon="3.56309">
        <ele>1484.33</ele>
        <time>2024-11-05T13:26:09.532Z</time>
      </trkpt>
      <trkpt lat="44.13605" lon="3.56291">
        <ele>1485.31</ele>
        <time>2024-11-05T13:26:19.117Z</time>
      </trkpt>
      <trkpt lat="44.13615" lon="3.56232">
        <ele>1488.57</ele>
        <time>2024-11-05T13:26:28.709Z</time>
      </trkpt>
      <trkpt lat="44.13618" lon="3.56208">
        <ele>1490.01</ele>
        <time>2024-11-05T13:26:38.304Z</time>
      </trkpt>
      <trkpt lat="44.13617" lon="3.56178">
        <ele>1492.02</ele>
        <time>2024-11-05T13:26:47.902Z</time>
      </trkpt>
      <trkpt lat="44.13615" lon="3.56164">
        <ele>1492.99</ele>
        <time>2024-11-05T13:26:57.502Z</time>
      </trkpt>
      <trkpt lat="44.1361" lon="3.56152">
        <ele>1493.91</ele>
        <time>2024-11-05T13:27:07.104Z</time>
      </trkpt>
      <trkpt lat="44.13602" lon="3.56141">
        <ele>1494.91</ele>
        <time>2024-11-05T13:27:16.708Z</time>
      </trkpt>
      <trkpt lat="44.13586" lon="3.56132">
        <ele>1496.15</ele>
        <time>2024-11-05T13:27:26.314Z</time>
      </trkpt>
      <trkpt lat="44.13576" lon="3.56134">
        <ele>1496.68</ele>
        <time>2024-11-05T13:27:35.922Z</time>
      </trkpt>
      <trkpt lat="44.13564" lon="3.56139">
        <ele>1497.18</ele>
        <time>2024-11-05T13:27:45.532Z</time>
      </trkpt>
      <trkpt lat="44.13545" lon="3.56153">
        <ele>1497.78</ele>
        <time>2024-11-05T13:27:55.145Z</time>
      </trkpt>
      <trkpt lat="44.13533" lon="3.56167">
        <ele>1498.15</ele>
        <time>2024-11-05T13:28:04.761Z</time>
      </trkpt>
      <trkpt lat="44.13508" lon="3.56194">
        <ele>1498.47</ele>
        <time>2024-11-05T13:28:14.382Z</time>
      </trkpt>
      <trkpt lat="44.13496" lon="3.5621">
        <ele>1498.47</ele>
        <time>2024-11-05T13:28:24.006Z</time>
      </trkpt>
      <trkpt lat="44.13484" lon="3.56238">
        <ele>1498.27</ele>
        <time>2024-11-05T13:28:33.633Z</time>
      </trkpt>
      <trkpt lat="44.13464" lon="3.56321">
        <ele>1496.68</ele>
        <time>2024-11-05T13:28:43.270Z</time>
      </trkpt>
      <trkpt lat="44.13457" lon="3.56349">
        <ele>1496.44</ele>
        <time>2024-11-05T13:28:52.911Z</time>
      </trkpt>
      <trkpt lat="44.13445" lon="3.56375">
        <ele>1496.44</ele>
        <time>2024-11-05T13:29:02.555Z</time>
      </trkpt>
      <trkpt lat="44.13418" lon="3.56416">
        <ele>1496.53</ele>
        <time>2024-11-05T13:29:12.206Z</time>
      </trkpt>
      <trkpt lat="44.13404" lon="3.56433">
        <ele>1496.62</ele>
        <time>2024-11-05T13:29:21.860Z</time>
      </trkpt>
      <trkpt lat="44.13392" lon="3.56443">
        <ele>1496.67</ele>
        <time>2024-11-05T13:29:31.516Z</time>
      </trkpt>
      <trkpt lat="44.1337" lon="3.56451">
        <ele>1496.69</ele>
        <time>2024-11-05T13:29:41.176Z</time>
      </trkpt>
      <trkpt lat="44.1331" lon="3.56448">
        <ele>1496.63</ele>
        <time>2024-11-05T13:29:50.845Z</time>
      </trkpt>
      <trkpt lat="44.13289" lon="3.56445">
        <ele>1496.68</ele>
        <time>2024-11-05T13:30:00.518Z</time>
      </trkpt>
      <trkpt lat="44.1325" lon="3.56434">
        <ele>1496.81</ele>
        <time>2024-11-05T13:30:10.197Z</time>
      </trkpt>
      <trkpt lat="44.13234" lon="3.56432">
        <ele>1496.87</ele>
        <time>2024-11-05T13:30:19.879Z</time>
      </trkpt>
      <trkpt lat="44.1322" lon="3.56434">
        <ele>1496.93</ele>
        <time>2024-11-05T13:30:29.563Z</time>
      </trkpt>
      <trkpt lat="44.13206" lon="3.5644">
        <ele>1496.97</ele>
        <time>2024-11-05T13:30:39.249Z</time>
      </trkpt>
      <trkpt lat="44.13193" lon="3.56451">
        <ele>1497</ele>
        <time>2024-11-05T13:30:48.938Z</time>
      </trkpt>
      <trkpt lat="44.13167" lon="3.56483">
        <ele>1497.13</ele>
        <time>2024-11-05T13:30:58.632Z</time>
      </trkpt>
      <trkpt lat="44.13123" lon="3.56566">
        <ele>1497.18</ele>
        <time>2024-11-05T13:31:08.338Z</time>
      </trkpt>
      <trkpt lat="44.13101" lon="3.56606">
        <ele>1497.45</ele>
        <time>2024-11-05T13:31:18.050Z</time>
      </trkpt>
      <trkpt lat="44.13085" lon="3.56639">
        <ele>1497.53</ele>
        <time>2024-11-05T13:31:27.766Z</time>
      </trkpt>
      <trkpt lat="44.13066" lon="3.56692">
        <ele>1497.81</ele>
        <time>2024-11-05T13:31:37.489Z</time>
      </trkpt>
      <trkpt lat="44.13054" lon="3.56738">
        <ele>1497.79</ele>
        <time>2024-11-05T13:31:47.218Z</time>
      </trkpt>
      <trkpt lat="44.13048" lon="3.5679">
        <ele>1497.81</ele>
        <time>2024-11-05T13:31:56.953Z</time>
      </trkpt>
      <trkpt lat="44.13042" lon="3.56841">
        <ele>1498.05</ele>
        <time>2024-11-05T13:32:06.694Z</time>
      </trkpt>
      <trkpt lat="44.13035" lon="3.56867">
        <ele>1498.07</ele>
        <time>2024-11-05T13:32:16.438Z</time>
      </trkpt>
      <trkpt lat="44.13029" lon="3.56877">
        <ele>1498.08</ele>
        <time>2024-11-05T13:32:26.184Z</time>
      </trkpt>
      <trkpt lat="44.13017" lon="3.56888">
        <ele>1498.12</ele>
        <time>2024-11-05T13:32:35.932Z</time>
      </trkpt>
      <trkpt lat="44.12981" lon="3.56907">
        <ele>1498.14</ele>
        <time>2024-11-05T13:32:45.686Z</time>
      </trkpt>
      <trkpt lat="44.12954" lon="3.56919">
        <ele>1498.33</ele>
        <time>2024-11-05T13:32:55.445Z</time>
      </trkpt>
      <trkpt lat="44.12936" lon="3.56927">
        <ele>1498.64</ele>
        <time>2024-11-05T13:33:05.207Z</time>
      </trkpt>
      <trkpt lat="44.1292" lon="3.56936">
        <ele>1499.08</ele>
        <time>2024-11-05T13:33:14.971Z</time>
      </trkpt>
      <trkpt lat="44.12863" lon="3.56969">
        <ele>1501.75</ele>
        <time>2024-11-05T13:33:24.745Z</time>
      </trkpt>
      <trkpt lat="44.12848" lon="3.56975">
        <ele>1502.41</ele>
        <time>2024-11-05T13:33:34.522Z</time>
      </trkpt>
      <trkpt lat="44.12816" lon="3.56979">
        <ele>1503.74</ele>
        <time>2024-11-05T13:33:44.304Z</time>
      </trkpt>
      <trkpt lat="44.12782" lon="3.56976">
        <ele>1505.48</ele>
        <time>2024-11-05T13:33:54.091Z</time>
      </trkpt>
      <trkpt lat="44.12737" lon="3.56972">
        <ele>1508.5</ele>
        <time>2024-11-05T13:34:03.886Z</time>
      </trkpt>
      <trkpt lat="44.1272" lon="3.56967">
        <ele>1509.63</ele>
        <time>2024-11-05T13:34:13.683Z</time>
      </trkpt>
      <trkpt lat="44.12659" lon="3.56925">
        <ele>1514.39</ele>
        <time>2024-11-05T13:34:23.491Z</time>
      </trkpt>
      <trkpt lat="44.12656" lon="3.56923">
        <ele>1514.44</ele>
        <time>2024-11-05T13:34:33.300Z</time>
      </trkpt>
      <trkpt lat="44.12635" lon="3.56925">
        <ele>1514.8</ele>
        <time>2024-11-05T13:34:43.112Z</time>
      </trkpt>
      <trkpt lat="44.1261" lon="3.56927">
        <ele>1515.81</ele>
        <time>2024-11-05T13:34:52.928Z</time>
      </trkpt>
      <trkpt lat="44.126" lon="3.5693">
        <ele>1516.31</ele>
        <time>2024-11-05T13:35:02.746Z</time>
      </trkpt>
      <trkpt lat="44.12504" lon="3.56963">
        <ele>1523.05</ele>
        <time>2024-11-05T13:35:12.580Z</time>
      </trkpt>
      <trkpt lat="44.12468" lon="3.56973">
        <ele>1525.56</ele>
        <time>2024-11-05T13:35:22.419Z</time>
      </trkpt>
      <trkpt lat="44.12439" lon="3.56977">
        <ele>1527.52</ele>
        <time>2024-11-05T13:35:32.263Z</time>
      </trkpt>
      <trkpt lat="44.12417" lon="3.56984">
        <ele>1529.08</ele>
        <time>2024-11-05T13:35:42.111Z</time>
      </trkpt>
      <trkpt lat="44.12326" lon="3.57027">
        <ele>1535.97</ele>
        <time>2024-11-05T13:35:51.974Z</time>
      </trkpt>
      <trkpt lat="44.12312" lon="3.57029">
        <ele>1537.09</ele>
        <time>2024-11-05T13:36:01.839Z</time>
      </trkpt>
      <trkpt lat="44.12296" lon="3.57024">
        <ele>1538.42</ele>
        <time>2024-11-05T13:36:11.707Z</time>
      </trkpt>
      <trkpt lat="44.12256" lon="3.56999">
        <ele>1541.8</ele>
        <time>2024-11-05T13:36:21.582Z</time>
      </trkpt>
      <trkpt lat="44.1225" lon="3.56998">
        <ele>1542.17</ele>
        <time>2024-11-05T13:36:31.458Z</time>
      </trkpt>
      <trkpt lat="44.12243" lon="3.57">
        <ele>1542.58</ele>
        <time>2024-11-05T13:36:41.335Z</time>
      </trkpt>
      <trkpt lat="44.12238" lon="3.57004">
        <ele>1542.85</ele>
        <time>2024-11-05T13:36:51.213Z</time>
      </trkpt>
      <trkpt lat="44.12227" lon="3.57019">
        <ele>1543.41</ele>
        <time>2024-11-05T13:37:01.094Z</time>
      </trkpt>
      <trkpt lat="44.12217" lon="3.57049">
        <ele>1543.92</ele>
        <time>2024-11-05T13:37:10.978Z</time>
      </trkpt>
      <trkpt lat="44.12201" lon="3.57107">
        <ele>1544.29</ele>
        <time>2024-11-05T13:37:20.869Z</time>
      </trkpt>
      <trkpt lat="44.12184" lon="3.57164">
        <ele>1545.4</ele>
        <time>2024-11-05T13:37:30.768Z</time>
      </trkpt>
      <trkpt lat="44.12176" lon="3.57199">
        <ele>1546.52</ele>
        <time>2024-11-05T13:37:40.671Z</time>
      </trkpt>
      <trkpt lat="44.12162" lon="3.57258">
        <ele>1548.91</ele>
        <time>2024-11-05T13:37:50.581Z</time>
      </trkpt>
      <trkpt lat="44.1216" lon="3.57277">
        <ele>1549.49</ele>
        <time>2024-11-05T13:38:00.493Z</time>
      </trkpt>
      <trkpt lat="44.1216" lon="3.57308">
        <ele>1549.96</ele>
        <time>2024-11-05T13:38:10.409Z</time>
      </trkpt>
      <trkpt lat="44.1216" lon="3.57383">
        <ele>1550.57</ele>
        <time>2024-11-05T13:38:20.333Z</time>
      </trkpt>
      <trkpt lat="44.1216" lon="3.5742">
        <ele>1551.12</ele>
        <time>2024-11-05T13:38:30.262Z</time>
      </trkpt>
      <trkpt lat="44.1216" lon="3.57457">
        <ele>1552.02</ele>
        <time>2024-11-05T13:38:40.195Z</time>
      </trkpt>
      <trkpt lat="44.1216" lon="3.57538">
        <ele>1554.6</ele>
        <time>2024-11-05T13:38:50.137Z</time>
      </trkpt>
      <trkpt lat="44.12159" lon="3.57563">
        <ele>1555.13</ele>
        <time>2024-11-05T13:39:00.082Z</time>
      </trkpt>
      <trkpt lat="44.12158" lon="3.57581">
        <ele>1555.25</ele>
        <time>2024-11-05T13:39:10.029Z</time>
      </trkpt>
      <trkpt lat="44.12155" lon="3.57656">
        <ele>1555.02</ele>
        <time>2024-11-05T13:39:19.985Z</time>
      </trkpt>
      <trkpt lat="44.12152" lon="3.57705">
        <ele>1555.17</ele>
        <time>2024-11-05T13:39:29.947Z</time>
      </trkpt>
      <trkpt lat="44.12152" lon="3.5771">
        <ele>1554.82</ele>
        <time>2024-11-05T13:39:39.909Z</time>
      </trkpt>
      <trkpt lat="44.12183" lon="3.57719">
        <ele>1551.95</ele>
        <time>2024-11-05T13:39:49.876Z</time>
      </trkpt>
      <trkpt lat="44.12191" lon="3.57724">
        <ele>1551.24</ele>
        <time>2024-11-05T13:39:59.845Z</time>
      </trkpt>
      <trkpt lat="44.122" lon="3.57736">
        <ele>1550.36</ele>
        <time>2024-11-05T13:40:09.816Z</time>
      </trkpt>
      <trkpt lat="44.12203" lon="3.57744">
        <ele>1549.92</ele>
        <time>2024-11-05T13:40:19.788Z</time>
      </trkpt>
      <trkpt lat="44.12207" lon="3.57752">
        <ele>1549.45</ele>
        <time>2024-11-05T13:40:29.761Z</time>
      </trkpt>
      <trkpt lat="44.12219" lon="3.5784">
        <ele>1545.64</ele>
        <time>2024-11-05T13:40:39.744Z</time>
      </trkpt>
      <trkpt lat="44.12227" lon="3.57864">
        <ele>1544.49</ele>
        <time>2024-11-05T13:40:49.730Z</time>
      </trkpt>
      <trkpt lat="44.12248" lon="3.57911">
        <ele>1542</ele>
        <time>2024-11-05T13:40:59.723Z</time>
      </trkpt>
      <trkpt lat="44.12263" lon="3.57946">
        <ele>1540.28</ele>
        <time>2024-11-05T13:41:09.720Z</time>
      </trkpt>
      <trkpt lat="44.12281" lon="3.5798">
        <ele>1538.49</ele>
        <time>2024-11-05T13:41:19.722Z</time>
      </trkpt>
      <trkpt lat="44.12295" lon="3.58013">
        <ele>1536.95</ele>
        <time>2024-11-05T13:41:29.729Z</time>
      </trkpt>
      <trkpt lat="44.123" lon="3.58043">
        <ele>1535.72</ele>
        <time>2024-11-05T13:41:39.739Z</time>
      </trkpt>
      <trkpt lat="44.12297" lon="3.58077">
        <ele>1534.3</ele>
        <time>2024-11-05T13:41:49.753Z</time>
      </trkpt>
      <trkpt lat="44.12287" lon="3.58119">
        <ele>1532.43</ele>
        <time>2024-11-05T13:41:59.772Z</time>
      </trkpt>
      <trkpt lat="44.12257" lon="3.58206">
        <ele>1528.63</ele>
        <time>2024-11-05T13:42:09.802Z</time>
      </trkpt>
      <trkpt lat="44.12242" lon="3.58268">
        <ele>1526.05</ele>
        <time>2024-11-05T13:42:19.840Z</time>
      </trkpt>
      <trkpt lat="44.12235" lon="3.58326">
        <ele>1523.61</ele>
        <time>2024-11-05T13:42:29.885Z</time>
      </trkpt>
      <trkpt lat="44.12233" lon="3.58418">
        <ele>1519.78</ele>
        <time>2024-11-05T13:42:39.940Z</time>
      </trkpt>
      <trkpt lat="44.1223" lon="3.58459">
        <ele>1518.05</ele>
        <time>2024-11-05T13:42:50.000Z</time>
      </trkpt>
      <trkpt lat="44.12227" lon="3.58478">
        <ele>1517.26</ele>
        <time>2024-11-05T13:43:00.062Z</time>
      </trkpt>
      <trkpt lat="44.122" lon="3.58544">
        <ele>1514.06</ele>
        <time>2024-11-05T13:43:10.133Z</time>
      </trkpt>
      <trkpt lat="44.12171" lon="3.58594">
        <ele>1511.38</ele>
        <time>2024-11-05T13:43:20.211Z</time>
      </trkpt>
      <trkpt lat="44.12138" lon="3.58636">
        <ele>1508.82</ele>
        <time>2024-11-05T13:43:30.296Z</time>
      </trkpt>
      <trkpt lat="44.12119" lon="3.58656">
        <ele>1507.43</ele>
        <time>2024-11-05T13:43:40.385Z</time>
      </trkpt>
      <trkpt lat="44.12106" lon="3.58666">
        <ele>1506.52</ele>
        <time>2024-11-05T13:43:50.477Z</time>
      </trkpt>
      <trkpt lat="44.12092" lon="3.58672">
        <ele>1505.61</ele>
        <time>2024-11-05T13:44:00.571Z</time>
      </trkpt>
      <trkpt lat="44.12082" lon="3.58674">
        <ele>1505.06</ele>
        <time>2024-11-05T13:44:10.667Z</time>
      </trkpt>
      <trkpt lat="44.1205" lon="3.58667">
        <ele>1503.27</ele>
        <time>2024-11-05T13:44:20.768Z</time>
      </trkpt>
      <trkpt lat="44.1204" lon="3.58667">
        <ele>1502.69</ele>
        <time>2024-11-05T13:44:30.870Z</time>
      </trkpt>
      <trkpt lat="44.12014" lon="3.58672">
        <ele>1500.91</ele>
        <time>2024-11-05T13:44:40.977Z</time>
      </trkpt>
      <trkpt lat="44.12005" lon="3.58677">
        <ele>1500.12</ele>
        <time>2024-11-05T13:44:51.085Z</time>
      </trkpt>
      <trkpt lat="44.12002" lon="3.58679">
        <ele>1500.36</ele>
        <time>2024-11-05T13:45:01.194Z</time>
      </trkpt>
      <trkpt lat="44.12014" lon="3.58672">
        <ele>1501.4</ele>
        <time>2024-11-05T13:45:11.305Z</time>
      </trkpt>
      <trkpt lat="44.1204" lon="3.58667">
        <ele>1503.11</ele>
        <time>2024-11-05T13:45:21.420Z</time>
      </trkpt>
      <trkpt lat="44.1205" lon="3.58667">
        <ele>1503.63</ele>
        <time>2024-11-05T13:45:31.537Z</time>
      </trkpt>
      <trkpt lat="44.12082" lon="3.58674">
        <ele>1505.44</ele>
        <time>2024-11-05T13:45:41.659Z</time>
      </trkpt>
      <trkpt lat="44.12092" lon="3.58672">
        <ele>1506.03</ele>
        <time>2024-11-05T13:45:51.782Z</time>
      </trkpt>
      <trkpt lat="44.12106" lon="3.58666">
        <ele>1506.93</ele>
        <time>2024-11-05T13:46:01.908Z</time>
      </trkpt>
      <trkpt lat="44.12119" lon="3.58656">
        <ele>1507.78</ele>
        <time>2024-11-05T13:46:12.036Z</time>
      </trkpt>
      <trkpt lat="44.12138" lon="3.58636">
        <ele>1509.2</ele>
        <time>2024-11-05T13:46:22.168Z</time>
      </trkpt>
      <trkpt lat="44.12171" lon="3.58594">
        <ele>1511.76</ele>
        <time>2024-11-05T13:46:32.307Z</time>
      </trkpt>
      <trkpt lat="44.122" lon="3.58544">
        <ele>1514.45</ele>
        <time>2024-11-05T13:46:42.453Z</time>
      </trkpt>
      <trkpt lat="44.12227" lon="3.58478">
        <ele>1517.64</ele>
        <time>2024-11-05T13:46:52.608Z</time>
      </trkpt>
      <trkpt lat="44.1223" lon="3.58459">
        <ele>1518.43</ele>
        <time>2024-11-05T13:47:02.765Z</time>
      </trkpt>
      <trkpt lat="44.12233" lon="3.58418">
        <ele>1520.18</ele>
        <time>2024-11-05T13:47:12.927Z</time>
      </trkpt>
      <trkpt lat="44.12235" lon="3.58326">
        <ele>1523.97</ele>
        <time>2024-11-05T13:47:23.100Z</time>
      </trkpt>
      <trkpt lat="44.12242" lon="3.58268">
        <ele>1526.44</ele>
        <time>2024-11-05T13:47:33.280Z</time>
      </trkpt>
      <trkpt lat="44.12257" lon="3.58206">
        <ele>1528.98</ele>
        <time>2024-11-05T13:47:43.467Z</time>
      </trkpt>
      <trkpt lat="44.12287" lon="3.58119">
        <ele>1532.8</ele>
        <time>2024-11-05T13:47:53.665Z</time>
      </trkpt>
      <trkpt lat="44.12297" lon="3.58077">
        <ele>1534.7</ele>
        <time>2024-11-05T13:48:03.868Z</time>
      </trkpt>
      <trkpt lat="44.123" lon="3.58043">
        <ele>1536.09</ele>
        <time>2024-11-05T13:48:14.075Z</time>
      </trkpt>
      <trkpt lat="44.12295" lon="3.58013">
        <ele>1537.32</ele>
        <time>2024-11-05T13:48:24.286Z</time>
      </trkpt>
      <trkpt lat="44.12281" lon="3.5798">
        <ele>1538.88</ele>
        <time>2024-11-05T13:48:34.501Z</time>
      </trkpt>
      <trkpt lat="44.12263" lon="3.57946">
        <ele>1540.67</ele>
        <time>2024-11-05T13:48:44.721Z</time>
      </trkpt>
      <trkpt lat="44.12251" lon="3.57919">
        <ele>1542</ele>
        <time>2024-11-05T13:48:54.945Z</time>
      </trkpt>
      <trkpt lat="44.12227" lon="3.57864">
        <ele>1544.9</ele>
        <time>2024-11-05T13:49:05.176Z</time>
      </trkpt>
      <trkpt lat="44.12219" lon="3.5784">
        <ele>1546.06</ele>
        <time>2024-11-05T13:49:15.410Z</time>
      </trkpt>
      <trkpt lat="44.12207" lon="3.57751">
        <ele>1549.92</ele>
        <time>2024-11-05T13:49:25.655Z</time>
      </trkpt>
      <trkpt lat="44.122" lon="3.57736">
        <ele>1550.85</ele>
        <time>2024-11-05T13:49:35.902Z</time>
      </trkpt>
      <trkpt lat="44.12191" lon="3.57724">
        <ele>1551.83</ele>
        <time>2024-11-05T13:49:46.151Z</time>
      </trkpt>
      <trkpt lat="44.12183" lon="3.57719">
        <ele>1552.54</ele>
        <time>2024-11-05T13:49:56.401Z</time>
      </trkpt>
      <trkpt lat="44.12155" lon="3.57711">
        <ele>1555.17</ele>
        <time>2024-11-05T13:50:06.656Z</time>
      </trkpt>
      <trkpt lat="44.12152" lon="3.5771">
        <ele>1555.15</ele>
        <time>2024-11-05T13:50:16.911Z</time>
      </trkpt>
      <trkpt lat="44.12154" lon="3.57665">
        <ele>1555.02</ele>
        <time>2024-11-05T13:50:27.171Z</time>
      </trkpt>
      <trkpt lat="44.12158" lon="3.5759">
        <ele>1555.25</ele>
        <time>2024-11-05T13:50:37.440Z</time>
      </trkpt>
      <trkpt lat="44.12159" lon="3.57572">
        <ele>1555.13</ele>
        <time>2024-11-05T13:50:47.711Z</time>
      </trkpt>
      <trkpt lat="44.1216" lon="3.57547">
        <ele>1554.6</ele>
        <time>2024-11-05T13:50:57.985Z</time>
      </trkpt>
      <trkpt lat="44.1216" lon="3.57466">
        <ele>1552.02</ele>
        <time>2024-11-05T13:51:08.268Z</time>
      </trkpt>
      <trkpt lat="44.1216" lon="3.57429">
        <ele>1551.12</ele>
        <time>2024-11-05T13:51:18.556Z</time>
      </trkpt>
      <trkpt lat="44.1216" lon="3.57392">
        <ele>1550.57</ele>
        <time>2024-11-05T13:51:28.848Z</time>
      </trkpt>
      <trkpt lat="44.1216" lon="3.57317">
        <ele>1549.96</ele>
        <time>2024-11-05T13:51:39.148Z</time>
      </trkpt>
      <trkpt lat="44.1216" lon="3.57286">
        <ele>1549.49</ele>
        <time>2024-11-05T13:51:49.452Z</time>
      </trkpt>
      <trkpt lat="44.12162" lon="3.57258">
        <ele>1548.58</ele>
        <time>2024-11-05T13:51:59.759Z</time>
      </trkpt>
      <trkpt lat="44.12174" lon="3.57208">
        <ele>1546.52</ele>
        <time>2024-11-05T13:52:10.072Z</time>
      </trkpt>
      <trkpt lat="44.12182" lon="3.57173">
        <ele>1545.4</ele>
        <time>2024-11-05T13:52:20.390Z</time>
      </trkpt>
      <trkpt lat="44.12199" lon="3.57115">
        <ele>1544.29</ele>
        <time>2024-11-05T13:52:30.715Z</time>
      </trkpt>
      <trkpt lat="44.12216" lon="3.57058">
        <ele>1543.92</ele>
        <time>2024-11-05T13:52:41.047Z</time>
      </trkpt>
      <trkpt lat="44.12227" lon="3.57019">
        <ele>1543.21</ele>
        <time>2024-11-05T13:52:51.384Z</time>
      </trkpt>
      <trkpt lat="44.12243" lon="3.57">
        <ele>1542.21</ele>
        <time>2024-11-05T13:53:01.724Z</time>
      </trkpt>
      <trkpt lat="44.1225" lon="3.56998">
        <ele>1541.77</ele>
        <time>2024-11-05T13:53:12.065Z</time>
      </trkpt>
      <trkpt lat="44.12256" lon="3.56999">
        <ele>1541.36</ele>
        <time>2024-11-05T13:53:22.407Z</time>
      </trkpt>
      <trkpt lat="44.12296" lon="3.57024">
        <ele>1537.89</ele>
        <time>2024-11-05T13:53:32.756Z</time>
      </trkpt>
      <trkpt lat="44.12312" lon="3.57029">
        <ele>1536.58</ele>
        <time>2024-11-05T13:53:43.108Z</time>
      </trkpt>
      <trkpt lat="44.12326" lon="3.57027">
        <ele>1535.48</ele>
        <time>2024-11-05T13:53:53.462Z</time>
      </trkpt>
      <trkpt lat="44.12417" lon="3.56984">
        <ele>1528.63</ele>
        <time>2024-11-05T13:54:03.832Z</time>
      </trkpt>
      <trkpt lat="44.12439" lon="3.56977">
        <ele>1527.09</ele>
        <time>2024-11-05T13:54:14.205Z</time>
      </trkpt>
      <trkpt lat="44.12468" lon="3.56973">
        <ele>1525.13</ele>
        <time>2024-11-05T13:54:24.583Z</time>
      </trkpt>
      <trkpt lat="44.12504" lon="3.56963">
        <ele>1522.59</ele>
        <time>2024-11-05T13:54:34.967Z</time>
      </trkpt>
      <trkpt lat="44.12594" lon="3.56933">
        <ele>1516.31</ele>
        <time>2024-11-05T13:54:45.365Z</time>
      </trkpt>
      <trkpt lat="44.1261" lon="3.56927">
        <ele>1515.49</ele>
        <time>2024-11-05T13:54:55.766Z</time>
      </trkpt>
      <trkpt lat="44.12629" lon="3.56925">
        <ele>1514.8</ele>
        <time>2024-11-05T13:55:06.170Z</time>
      </trkpt>
      <trkpt lat="44.12653" lon="3.56923">
        <ele>1514.39</ele>
        <time>2024-11-05T13:55:16.578Z</time>
      </trkpt>
      <trkpt lat="44.12656" lon="3.56923">
        <ele>1514.22</ele>
        <time>2024-11-05T13:55:26.987Z</time>
      </trkpt>
      <trkpt lat="44.12638" lon="3.56901">
        <ele>1512.81</ele>
        <time>2024-11-05T13:55:37.399Z</time>
      </trkpt>
      <trkpt lat="44.12621" lon="3.56879">
        <ele>1511.09</ele>
        <time>2024-11-05T13:55:47.815Z</time>
      </trkpt>
      <trkpt lat="44.12606" lon="3.56867">
        <ele>1509.86</ele>
        <time>2024-11-05T13:55:58.234Z</time>
      </trkpt>
      <trkpt lat="44.12578" lon="3.56855">
        <ele>1507.81</ele>
        <time>2024-11-05T13:56:08.658Z</time>
      </trkpt>
      <trkpt lat="44.1253" lon="3.56838">
        <ele>1504.61</ele>
        <time>2024-11-05T13:56:19.089Z</time>
      </trkpt>
      <trkpt lat="44.12486" lon="3.5683">
        <ele>1502.05</ele>
        <time>2024-11-05T13:56:29.528Z</time>
      </trkpt>
      <trkpt lat="44.12465" lon="3.5683">
        <ele>1500.97</ele>
        <time>2024-11-05T13:56:39.970Z</time>
      </trkpt>
      <trkpt lat="44.12427" lon="3.56836">
        <ele>1499.26</ele>
        <time>2024-11-05T13:56:50.418Z</time>
      </trkpt>
      <trkpt lat="44.12415" lon="3.56836">
        <ele>1498.64</ele>
        <time>2024-11-05T13:57:00.868Z</time>
      </trkpt>
      <trkpt lat="44.12407" lon="3.56832">
        <ele>1498.19</ele>
        <time>2024-11-05T13:57:11.319Z</time>
      </trkpt>
      <trkpt lat="44.12401" lon="3.56826">
        <ele>1497.77</ele>
        <time>2024-11-05T13:57:21.772Z</time>
      </trkpt>
      <trkpt lat="44.12398" lon="3.56818">
        <ele>1497.33</ele>
        <time>2024-11-05T13:57:32.226Z</time>
      </trkpt>
      <trkpt lat="44.12397" lon="3.56808">
        <ele>1496.8</ele>
        <time>2024-11-05T13:57:42.681Z</time>
      </trkpt>
      <trkpt lat="44.1241" lon="3.56751">
        <ele>1493.07</ele>
        <time>2024-11-05T13:57:53.143Z</time>
      </trkpt>
      <trkpt lat="44.1242" lon="3.56697">
        <ele>1489.87</ele>
        <time>2024-11-05T13:58:03.611Z</time>
      </trkpt>
      <trkpt lat="44.12439" lon="3.56575">
        <ele>1483.9</ele>
        <time>2024-11-05T13:58:14.093Z</time>
      </trkpt>
      <trkpt lat="44.12452" lon="3.56506">
        <ele>1480.43</ele>
        <time>2024-11-05T13:58:24.584Z</time>
      </trkpt>
      <trkpt lat="44.12455" lon="3.56449">
        <ele>1477.71</ele>
        <time>2024-11-05T13:58:35.081Z</time>
      </trkpt>
      <trkpt lat="44.12454" lon="3.56376">
        <ele>1474.84</ele>
        <time>2024-11-05T13:58:45.587Z</time>
      </trkpt>
      <trkpt lat="44.12462" lon="3.56323">
        <ele>1472.56</ele>
        <time>2024-11-05T13:58:56.099Z</time>
      </trkpt>
      <trkpt lat="44.12467" lon="3.56286">
        <ele>1470.77</ele>
        <time>2024-11-05T13:59:06.615Z</time>
      </trkpt>
      <trkpt lat="44.12478" lon="3.56208">
        <ele>1466.78</ele>
        <time>2024-11-05T13:59:17.140Z</time>
      </trkpt>
      <trkpt lat="44.1248" lon="3.56175">
        <ele>1465.1</ele>
        <time>2024-11-05T13:59:27.669Z</time>
      </trkpt>
      <trkpt lat="44.12477" lon="3.56145">
        <ele>1463.6</ele>
        <time>2024-11-05T13:59:38.202Z</time>
      </trkpt>
      <trkpt lat="44.12473" lon="3.56124">
        <ele>1462.53</ele>
        <time>2024-11-05T13:59:48.737Z</time>
      </trkpt>
      <trkpt lat="44.12468" lon="3.56108">
        <ele>1461.72</ele>
        <time>2024-11-05T13:59:59.274Z</time>
      </trkpt>
      <trkpt lat="44.12459" lon="3.56094">
        <ele>1460.88</ele>
        <time>2024-11-05T14:00:09.813Z</time>
      </trkpt>
      <trkpt lat="44.12437" lon="3.56077">
        <ele>1459.18</ele>
        <time>2024-11-05T14:00:20.356Z</time>
      </trkpt>
      <trkpt lat="44.12421" lon="3.56073">
        <ele>1458.05</ele>
        <time>2024-11-05T14:00:30.902Z</time>
      </trkpt>
      <trkpt lat="44.12402" lon="3.56072">
        <ele>1456.74</ele>
        <time>2024-11-05T14:00:41.451Z</time>
      </trkpt>
      <trkpt lat="44.12352" lon="3.56075">
        <ele>1453.7</ele>
        <time>2024-11-05T14:00:52.008Z</time>
      </trkpt>
      <trkpt lat="44.12335" lon="3.56074">
        <ele>1452.64</ele>
        <time>2024-11-05T14:01:02.568Z</time>
      </trkpt>
      <trkpt lat="44.12323" lon="3.56071">
        <ele>1451.87</ele>
        <time>2024-11-05T14:01:13.130Z</time>
      </trkpt>
      <trkpt lat="44.12242" lon="3.56038">
        <ele>1446.33</ele>
        <time>2024-11-05T14:01:23.705Z</time>
      </trkpt>
      <trkpt lat="44.12227" lon="3.5603">
        <ele>1445.17</ele>
        <time>2024-11-05T14:01:34.283Z</time>
      </trkpt>
      <trkpt lat="44.12214" lon="3.56018">
        <ele>1444.13</ele>
        <time>2024-11-05T14:01:44.863Z</time>
      </trkpt>
      <trkpt lat="44.12185" lon="3.55975">
        <ele>1441.32</ele>
        <time>2024-11-05T14:01:55.450Z</time>
      </trkpt>
      <trkpt lat="44.12166" lon="3.55958">
        <ele>1439.81</ele>
        <time>2024-11-05T14:02:06.041Z</time>
      </trkpt>
      <trkpt lat="44.12157" lon="3.55954">
        <ele>1439.22</ele>
        <time>2024-11-05T14:02:16.633Z</time>
      </trkpt>
      <trkpt lat="44.12132" lon="3.55953">
        <ele>1437.64</ele>
        <time>2024-11-05T14:02:27.229Z</time>
      </trkpt>
      <trkpt lat="44.12095" lon="3.55958">
        <ele>1435.21</ele>
        <time>2024-11-05T14:02:37.831Z</time>
      </trkpt>
      <trkpt lat="44.12085" lon="3.55959">
        <ele>1435.53</ele>
        <time>2024-11-05T14:02:48.435Z</time>
      </trkpt>
      <trkpt lat="44.12057" lon="3.55955">
        <ele>1433.11</ele>
        <time>2024-11-05T14:02:59.043Z</time>
      </trkpt>
      <trkpt lat="44.12007" lon="3.5592">
        <ele>1428.79</ele>
        <time>2024-11-05T14:03:09.660Z</time>
      </trkpt>
      <trkpt lat="44.11978" lon="3.55894">
        <ele>1426.09</ele>
        <time>2024-11-05T14:03:20.283Z</time>
      </trkpt>
      <trkpt lat="44.11931" lon="3.55851">
        <ele>1422.5</ele>
        <time>2024-11-05T14:03:30.915Z</time>
      </trkpt>
      <trkpt lat="44.11912" lon="3.55827">
        <ele>1421.09</ele>
        <time>2024-11-05T14:03:41.551Z</time>
      </trkpt>
      <trkpt lat="44.11891" lon="3.55789">
        <ele>1419.14</ele>
        <time>2024-11-05T14:03:52.192Z</time>
      </trkpt>
      <trkpt lat="44.11878" lon="3.55764">
        <ele>1418.05</ele>
        <time>2024-11-05T14:04:02.837Z</time>
      </trkpt>
      <trkpt lat="44.11809" lon="3.5564">
        <ele>1413.63</ele>
        <time>2024-11-05T14:04:13.500Z</time>
      </trkpt>
      <trkpt lat="44.11802" lon="3.55625">
        <ele>1413.17</ele>
        <time>2024-11-05T14:04:24.165Z</time>
      </trkpt>
      <trkpt lat="44.11791" lon="3.55597">
        <ele>1412.55</ele>
        <time>2024-11-05T14:04:34.834Z</time>
      </trkpt>
      <trkpt lat="44.11781" lon="3.5557">
        <ele>1412.19</ele>
        <time>2024-11-05T14:04:45.506Z</time>
      </trkpt>
      <trkpt lat="44.11758" lon="3.55509">
        <ele>1412.31</ele>
        <time>2024-11-05T14:04:56.186Z</time>
      </trkpt>
      <trkpt lat="44.11747" lon="3.55481">
        <ele>1412.05</ele>
        <time>2024-11-05T14:05:06.870Z</time>
      </trkpt>
      <trkpt lat="44.11741" lon="3.55464">
        <ele>1411.61</ele>
        <time>2024-11-05T14:05:17.556Z</time>
      </trkpt>
      <trkpt lat="44.11722" lon="3.55415">
        <ele>1409.53</ele>
        <time>2024-11-05T14:05:28.248Z</time>
      </trkpt>
      <trkpt lat="44.1171" lon="3.55382">
        <ele>1408.84</ele>
        <time>2024-11-05T14:05:38.945Z</time>
      </trkpt>
      <trkpt lat="44.11704" lon="3.55366">
        <ele>1408.77</ele>
        <time>2024-11-05T14:05:49.644Z</time>
      </trkpt>
      <trkpt lat="44.11696" lon="3.55344">
        <ele>1408.96</ele>
        <time>2024-11-05T14:06:00.346Z</time>
      </trkpt>
      <trkpt lat="44.11682" lon="3.55308">
        <ele>1409.89</ele>
        <time>2024-11-05T14:06:11.052Z</time>
      </trkpt>
      <trkpt lat="44.11673" lon="3.55267">
        <ele>1411.6</ele>
        <time>2024-11-05T14:06:21.763Z</time>
      </trkpt>
      <trkpt lat="44.11669" lon="3.55222">
        <ele>1413.56</ele>
        <time>2024-11-05T14:06:32.480Z</time>
      </trkpt>
      <trkpt lat="44.11666" lon="3.55196">
        <ele>1413.76</ele>
        <time>2024-11-05T14:06:43.200Z</time>
      </trkpt>
      <trkpt lat="44.11664" lon="3.55177">
        <ele>1413.59</ele>
        <time>2024-11-05T14:06:53.922Z</time>
      </trkpt>
      <trkpt lat="44.11662" lon="3.55164">
        <ele>1413.26</ele>
        <time>2024-11-05T14:07:04.645Z</time>
      </trkpt>
      <trkpt lat="44.11656" lon="3.55149">
        <ele>1412.72</ele>
        <time>2024-11-05T14:07:15.370Z</time>
      </trkpt>
      <trkpt lat="44.1165" lon="3.55138">
        <ele>1411.95</ele>
        <time>2024-11-05T14:07:26.097Z</time>
      </trkpt>
      <trkpt lat="44.11644" lon="3.55134">
        <ele>1411.46</ele>
        <time>2024-11-05T14:07:36.825Z</time>
      </trkpt>
      <trkpt lat="44.11634" lon="3.55131">
        <ele>1410.7</ele>
        <time>2024-11-05T14:07:47.555Z</time>
      </trkpt>
      <trkpt lat="44.11622" lon="3.5513">
        <ele>1409.81</ele>
        <time>2024-11-05T14:07:58.286Z</time>
      </trkpt>
      <trkpt lat="44.11592" lon="3.55142">
        <ele>1407.55</ele>
        <time>2024-11-05T14:08:09.022Z</time>
      </trkpt>
      <trkpt lat="44.11572" lon="3.55153">
        <ele>1405.93</ele>
        <time>2024-11-05T14:08:19.762Z</time>
      </trkpt>
      <trkpt lat="44.11557" lon="3.55166">
        <ele>1404.66</ele>
        <time>2024-11-05T14:08:30.505Z</time>
      </trkpt>
      <trkpt lat="44.11545" lon="3.55184">
        <ele>1403.39</ele>
        <time>2024-11-05T14:08:41.251Z</time>
      </trkpt>
      <trkpt lat="44.11536" lon="3.55207">
        <ele>1402.03</ele>
        <time>2024-11-05T14:08:52.000Z</time>
      </trkpt>
      <trkpt lat="44.11533" lon="3.55224">
        <ele>1401.14</ele>
        <time>2024-11-05T14:09:02.751Z</time>
      </trkpt>
      <trkpt lat="44.11533" lon="3.55245">
        <ele>1400.08</ele>
        <time>2024-11-05T14:09:13.504Z</time>
      </trkpt>
      <trkpt lat="44.11535" lon="3.55265">
        <ele>1399</ele>
        <time>2024-11-05T14:09:24.259Z</time>
      </trkpt>
      <trkpt lat="44.11542" lon="3.55291">
        <ele>1397.53</ele>
        <time>2024-11-05T14:09:35.018Z</time>
      </trkpt>
      <trkpt lat="44.11555" lon="3.55321">
        <ele>1396.07</ele>
        <time>2024-11-05T14:09:45.781Z</time>
      </trkpt>
      <trkpt lat="44.11564" lon="3.55342">
        <ele>1395.21</ele>
        <time>2024-11-05T14:09:56.546Z</time>
      </trkpt>
      <trkpt lat="44.11575" lon="3.55368">
        <ele>1394.46</ele>
        <time>2024-11-05T14:10:07.315Z</time>
      </trkpt>
      <trkpt lat="44.1158" lon="3.55385">
        <ele>1394.1</ele>
        <time>2024-11-05T14:10:18.086Z</time>
      </trkpt>
      <trkpt lat="44.11578" lon="3.55403">
        <ele>1393.55</ele>
        <time>2024-11-05T14:10:28.859Z</time>
      </trkpt>
      <trkpt lat="44.11572" lon="3.55411">
        <ele>1393.06</ele>
        <time>2024-11-05T14:10:39.633Z</time>
      </trkpt>
      <trkpt lat="44.11564" lon="3.55394">
        <ele>1392.17</ele>
        <time>2024-11-05T14:10:50.410Z</time>
      </trkpt>
      <trkpt lat="44.11546" lon="3.55366">
        <ele>1390.62</ele>
        <time>2024-11-05T14:11:01.191Z</time>
      </trkpt>
      <trkpt lat="44.11529" lon="3.55346">
        <ele>1389.48</ele>
        <time>2024-11-05T14:11:11.976Z</time>
      </trkpt>
      <trkpt lat="44.11446" lon="3.55293">
        <ele>1384.92</ele>
        <time>2024-11-05T14:11:22.775Z</time>
      </trkpt>
      <trkpt lat="44.11434" lon="3.5528">
        <ele>1384.1</ele>
        <time>2024-11-05T14:11:33.577Z</time>
      </trkpt>
      <trkpt lat="44.11428" lon="3.55268">
        <ele>1383.54</ele>
        <time>2024-11-05T14:11:44.380Z</time>
      </trkpt>
      <trkpt lat="44.11421" lon="3.55248">
        <ele>1382.7</ele>
        <time>2024-11-05T14:11:55.186Z</time>
      </trkpt>
      <trkpt lat="44.11418" lon="3.55219">
        <ele>1381.66</ele>
        <time>2024-11-05T14:12:05.995Z</time>
      </trkpt>
      <trkpt lat="44.11421" lon="3.55186">
        <ele>1380.54</ele>
        <time>2024-11-05T14:12:16.808Z</time>
      </trkpt>
      <trkpt lat="44.1143" lon="3.5516">
        <ele>1379.55</ele>
        <time>2024-11-05T14:12:27.624Z</time>
      </trkpt>
      <trkpt lat="44.11442" lon="3.55138">
        <ele>1378.56</ele>
        <time>2024-11-05T14:12:38.444Z</time>
      </trkpt>
      <trkpt lat="44.11488" lon="3.55087">
        <ele>1375.92</ele>
        <time>2024-11-05T14:12:49.273Z</time>
      </trkpt>
      <trkpt lat="44.11509" lon="3.55055">
        <ele>1374.6</ele>
        <time>2024-11-05T14:13:00.107Z</time>
      </trkpt>
      <trkpt lat="44.1153" lon="3.55021">
        <ele>1373.46</ele>
        <time>2024-11-05T14:13:10.946Z</time>
      </trkpt>
      <trkpt lat="44.11536" lon="3.55001">
        <ele>1372.9</ele>
        <time>2024-11-05T14:13:21.788Z</time>
      </trkpt>
      <trkpt lat="44.11536" lon="3.54992">
        <ele>1372.65</ele>
        <time>2024-11-05T14:13:32.631Z</time>
      </trkpt>
      <trkpt lat="44.11531" lon="3.54978">
        <ele>1372.19</ele>
        <time>2024-11-05T14:13:43.476Z</time>
      </trkpt>
      <trkpt lat="44.11519" lon="3.54971">
        <ele>1371.52</ele>
        <time>2024-11-05T14:13:54.323Z</time>
      </trkpt>
      <trkpt lat="44.11513" lon="3.54971">
        <ele>1371.17</ele>
        <time>2024-11-05T14:14:05.171Z</time>
      </trkpt>
      <trkpt lat="44.11475" lon="3.5499">
        <ele>1368.98</ele>
        <time>2024-11-05T14:14:16.025Z</time>
      </trkpt>
      <trkpt lat="44.11467" lon="3.5499">
        <ele>1368.58</ele>
        <time>2024-11-05T14:14:26.880Z</time>
      </trkpt>
      <trkpt lat="44.11449" lon="3.54983">
        <ele>1367.7</ele>
        <time>2024-11-05T14:14:37.738Z</time>
      </trkpt>
      <trkpt lat="44.11441" lon="3.54977">
        <ele>1367.29</ele>
        <time>2024-11-05T14:14:48.598Z</time>
      </trkpt>
      <trkpt lat="44.11423" lon="3.54957">
        <ele>1366.3</ele>
        <time>2024-11-05T14:14:59.462Z</time>
      </trkpt>
      <trkpt lat="44.11416" lon="3.54947">
        <ele>1365.92</ele>
        <time>2024-11-05T14:15:10.327Z</time>
      </trkpt>
      <trkpt lat="44.11405" lon="3.54918">
        <ele>1365.03</ele>
        <time>2024-11-05T14:15:21.196Z</time>
      </trkpt>
      <trkpt lat="44.11401" lon="3.54911">
        <ele>1364.81</ele>
        <time>2024-11-05T14:15:32.066Z</time>
      </trkpt>
      <trkpt lat="44.11384" lon="3.54902">
        <ele>1364.4</ele>
        <time>2024-11-05T14:15:42.939Z</time>
      </trkpt>
      <trkpt lat="44.11358" lon="3.54911">
        <ele>1363.43</ele>
        <time>2024-11-05T14:15:53.816Z</time>
      </trkpt>
      <trkpt lat="44.11335" lon="3.54916">
        <ele>1362.31</ele>
        <time>2024-11-05T14:16:04.697Z</time>
      </trkpt>
      <trkpt lat="44.11294" lon="3.54915">
        <ele>1360.25</ele>
        <time>2024-11-05T14:16:15.584Z</time>
      </trkpt>
      <trkpt lat="44.1124" lon="3.54907">
        <ele>1357.77</ele>
        <time>2024-11-05T14:16:26.480Z</time>
      </trkpt>
      <trkpt lat="44.11217" lon="3.54893">
        <ele>1356.62</ele>
        <time>2024-11-05T14:16:37.380Z</time>
      </trkpt>
      <trkpt lat="44.11199" lon="3.54874">
        <ele>1355.5</ele>
        <time>2024-11-05T14:16:48.284Z</time>
      </trkpt>
      <trkpt lat="44.11177" lon="3.54837">
        <ele>1354.02</ele>
        <time>2024-11-05T14:16:59.193Z</time>
      </trkpt>
      <trkpt lat="44.11169" lon="3.54809">
        <ele>1353.32</ele>
        <time>2024-11-05T14:17:10.106Z</time>
      </trkpt>
      <trkpt lat="44.11162" lon="3.54752">
        <ele>1352.29</ele>
        <time>2024-11-05T14:17:21.025Z</time>
      </trkpt>
      <trkpt lat="44.11158" lon="3.54742">
        <ele>1352.03</ele>
        <time>2024-11-05T14:17:31.946Z</time>
      </trkpt>
      <trkpt lat="44.1115" lon="3.54735">
        <ele>1351.73</ele>
        <time>2024-11-05T14:17:42.868Z</time>
      </trkpt>
      <trkpt lat="44.11141" lon="3.54731">
        <ele>1351.41</ele>
        <time>2024-11-05T14:17:53.792Z</time>
      </trkpt>
      <trkpt lat="44.11132" lon="3.54731">
        <ele>1351.07</ele>
        <time>2024-11-05T14:18:04.717Z</time>
      </trkpt>
      <trkpt lat="44.11112" lon="3.54739">
        <ele>1350.15</ele>
        <time>2024-11-05T14:18:15.646Z</time>
      </trkpt>
      <trkpt lat="44.11091" lon="3.54744">
        <ele>1349.17</ele>
        <time>2024-11-05T14:18:26.578Z</time>
      </trkpt>
      <trkpt lat="44.1107" lon="3.54742">
        <ele>1348.2</ele>
        <time>2024-11-05T14:18:37.513Z</time>
      </trkpt>
      <trkpt lat="44.11038" lon="3.54734">
        <ele>1346.59</ele>
        <time>2024-11-05T14:18:48.453Z</time>
      </trkpt>
      <trkpt lat="44.11027" lon="3.54729">
        <ele>1346.03</ele>
        <time>2024-11-05T14:18:59.395Z</time>
      </trkpt>
      <trkpt lat="44.10997" lon="3.54709">
        <ele>1344.62</ele>
        <time>2024-11-05T14:19:10.343Z</time>
      </trkpt>
      <trkpt lat="44.10963" lon="3.5468">
        <ele>1343.14</ele>
        <time>2024-11-05T14:19:21.297Z</time>
      </trkpt>
      <trkpt lat="44.1095" lon="3.54664">
        <ele>1342.56</ele>
        <time>2024-11-05T14:19:32.254Z</time>
      </trkpt>
      <trkpt lat="44.10939" lon="3.54641">
        <ele>1341.88</ele>
        <time>2024-11-05T14:19:43.214Z</time>
      </trkpt>
      <trkpt lat="44.10931" lon="3.54629">
        <ele>1341.47</ele>
        <time>2024-11-05T14:19:54.176Z</time>
      </trkpt>
      <trkpt lat="44.10923" lon="3.54621">
        <ele>1341.16</ele>
        <time>2024-11-05T14:20:05.139Z</time>
      </trkpt>
      <trkpt lat="44.10916" lon="3.54619">
        <ele>1340.97</ele>
        <time>2024-11-05T14:20:16.104Z</time>
      </trkpt>
      <trkpt lat="44.10887" lon="3.54617">
        <ele>1339.99</ele>
        <time>2024-11-05T14:20:27.073Z</time>
      </trkpt>
      <trkpt lat="44.10864" lon="3.54615">
        <ele>1338.97</ele>
        <time>2024-11-05T14:20:38.046Z</time>
      </trkpt>
      <trkpt lat="44.10827" lon="3.54608">
        <ele>1337.19</ele>
        <time>2024-11-05T14:20:49.025Z</time>
      </trkpt>
      <trkpt lat="44.10802" lon="3.54606">
        <ele>1335.89</ele>
        <time>2024-11-05T14:21:00.008Z</time>
      </trkpt>
      <trkpt lat="44.1079" lon="3.54607">
        <ele>1335.31</ele>
        <time>2024-11-05T14:21:10.993Z</time>
      </trkpt>
      <trkpt lat="44.10778" lon="3.54611">
        <ele>1334.73</ele>
        <time>2024-11-05T14:21:21.980Z</time>
      </trkpt>
      <trkpt lat="44.10747" lon="3.54632">
        <ele>1332.9</ele>
        <time>2024-11-05T14:21:32.972Z</time>
      </trkpt>
      <trkpt lat="44.10719" lon="3.54663">
        <ele>1331.1</ele>
        <time>2024-11-05T14:21:43.970Z</time>
      </trkpt>
      <trkpt lat="44.10677" lon="3.54703">
        <ele>1328.68</ele>
        <time>2024-11-05T14:21:54.976Z</time>
      </trkpt>
      <trkpt lat="44.10632" lon="3.54761">
        <ele>1325.82</ele>
        <time>2024-11-05T14:22:05.992Z</time>
      </trkpt>
      <trkpt lat="44.10601" lon="3.548">
        <ele>1324.44</ele>
        <time>2024-11-05T14:22:17.015Z</time>
      </trkpt>
      <trkpt lat="44.10591" lon="3.54806">
        <ele>1324.23</ele>
        <time>2024-11-05T14:22:28.039Z</time>
      </trkpt>
      <trkpt lat="44.10585" lon="3.54807">
        <ele>1324.09</ele>
        <time>2024-11-05T14:22:39.064Z</time>
      </trkpt>
      <trkpt lat="44.1058" lon="3.54805">
        <ele>1323.88</ele>
        <time>2024-11-05T14:22:50.090Z</time>
      </trkpt>
      <trkpt lat="44.10573" lon="3.54795">
        <ele>1323.3</ele>
        <time>2024-11-05T14:23:01.118Z</time>
      </trkpt>
      <trkpt lat="44.10572" lon="3.54774">
        <ele>1322.47</ele>
        <time>2024-11-05T14:23:12.148Z</time>
      </trkpt>
      <trkpt lat="44.10581" lon="3.54735">
        <ele>1320.91</ele>
        <time>2024-11-05T14:23:23.183Z</time>
      </trkpt>
      <trkpt lat="44.10579" lon="3.54717">
        <ele>1320.32</ele>
        <time>2024-11-05T14:23:34.220Z</time>
      </trkpt>
      <trkpt lat="44.10576" lon="3.54708">
        <ele>1319.98</ele>
        <time>2024-11-05T14:23:45.258Z</time>
      </trkpt>
      <trkpt lat="44.10539" lon="3.5465">
        <ele>1317.36</ele>
        <time>2024-11-05T14:23:56.305Z</time>
      </trkpt>
      <trkpt lat="44.10519" lon="3.54608">
        <ele>1315.62</ele>
        <time>2024-11-05T14:24:07.358Z</time>
      </trkpt>
      <trkpt lat="44.10513" lon="3.54599">
        <ele>1315.2</ele>
        <time>2024-11-05T14:24:18.412Z</time>
      </trkpt>
      <trkpt lat="44.10478" lon="3.54562">
        <ele>1312.91</ele>
        <time>2024-11-05T14:24:29.473Z</time>
      </trkpt>
      <trkpt lat="44.10466" lon="3.54545">
        <ele>1312.08</ele>
        <time>2024-11-05T14:24:40.537Z</time>
      </trkpt>
      <trkpt lat="44.10444" lon="3.54503">
        <ele>1310.41</ele>
        <time>2024-11-05T14:24:51.607Z</time>
      </trkpt>
      <trkpt lat="44.10429" lon="3.54485">
        <ele>1309.54</ele>
        <time>2024-11-05T14:25:02.680Z</time>
      </trkpt>
      <trkpt lat="44.10407" lon="3.54464">
        <ele>1308.27</ele>
        <time>2024-11-05T14:25:13.758Z</time>
      </trkpt>
      <trkpt lat="44.10398" lon="3.54439">
        <ele>1307.38</ele>
        <time>2024-11-05T14:25:24.839Z</time>
      </trkpt>
      <trkpt lat="44.10388" lon="3.54345">
        <ele>1304.57</ele>
        <time>2024-11-05T14:25:35.931Z</time>
      </trkpt>
      <trkpt lat="44.1038" lon="3.54312">
        <ele>1303.38</ele>
        <time>2024-11-05T14:25:47.027Z</time>
      </trkpt>
      <trkpt lat="44.10367" lon="3.54272">
        <ele>1302.39</ele>
        <time>2024-11-05T14:25:58.128Z</time>
      </trkpt>
      <trkpt lat="44.10353" lon="3.54233">
        <ele>1301.7</ele>
        <time>2024-11-05T14:26:09.234Z</time>
      </trkpt>
      <trkpt lat="44.10335" lon="3.54187">
        <ele>1301.48</ele>
        <time>2024-11-05T14:26:20.346Z</time>
      </trkpt>
      <trkpt lat="44.10319" lon="3.5416">
        <ele>1301.45</ele>
        <time>2024-11-05T14:26:31.462Z</time>
      </trkpt>
      <trkpt lat="44.10309" lon="3.5414">
        <ele>1301.65</ele>
        <time>2024-11-05T14:26:42.581Z</time>
      </trkpt>
      <trkpt lat="44.10301" lon="3.54128">
        <ele>1301.67</ele>
        <time>2024-11-05T14:26:53.702Z</time>
      </trkpt>
      <trkpt lat="44.103" lon="3.54126">
        <ele>1301.55</ele>
        <time>2024-11-05T14:27:04.823Z</time>
      </trkpt>
      <trkpt lat="44.10293" lon="3.54141">
        <ele>1300.47</ele>
        <time>2024-11-05T14:27:15.946Z</time>
      </trkpt>
      <trkpt lat="44.10267" lon="3.54177">
        <ele>1297.59</ele>
        <time>2024-11-05T14:27:27.075Z</time>
      </trkpt>
      <trkpt lat="44.10232" lon="3.54203">
        <ele>1294.22</ele>
        <time>2024-11-05T14:27:38.210Z</time>
      </trkpt>
      <trkpt lat="44.10228" lon="3.54209">
        <ele>1293.75</ele>
        <time>2024-11-05T14:27:49.346Z</time>
      </trkpt>
      <trkpt lat="44.10223" lon="3.54218">
        <ele>1293.75</ele>
        <time>2024-11-05T14:28:00.483Z</time>
      </trkpt>
      <trkpt lat="44.10222" lon="3.5422">
        <ele>1293.6</ele>
        <time>2024-11-05T14:28:11.621Z</time>
      </trkpt>
      <trkpt lat="44.10217" lon="3.54247">
        <ele>1292.2</ele>
        <time>2024-11-05T14:28:22.762Z</time>
      </trkpt>
      <trkpt lat="44.10209" lon="3.54302">
        <ele>1289.05</ele>
        <time>2024-11-05T14:28:33.909Z</time>
      </trkpt>
      <trkpt lat="44.10199" lon="3.54341">
        <ele>1286.71</ele>
        <time>2024-11-05T14:28:45.061Z</time>
      </trkpt>
      <trkpt lat="44.10183" lon="3.54389">
        <ele>1283.98</ele>
        <time>2024-11-05T14:28:56.219Z</time>
      </trkpt>
      <trkpt lat="44.10174" lon="3.54413">
        <ele>1282.7</ele>
        <time>2024-11-05T14:29:07.380Z</time>
      </trkpt>
      <trkpt lat="44.10148" lon="3.54464">
        <ele>1279.7</ele>
        <time>2024-11-05T14:29:18.549Z</time>
      </trkpt>
      <trkpt lat="44.10123" lon="3.54499">
        <ele>1277.49</ele>
        <time>2024-11-05T14:29:29.723Z</time>
      </trkpt>
      <trkpt lat="44.10113" lon="3.5451">
        <ele>1276.71</ele>
        <time>2024-11-05T14:29:40.899Z</time>
      </trkpt>
      <trkpt lat="44.10071" lon="3.54546">
        <ele>1273.72</ele>
        <time>2024-11-05T14:29:52.083Z</time>
      </trkpt>
      <trkpt lat="44.10049" lon="3.54569">
        <ele>1271.86</ele>
        <time>2024-11-05T14:30:03.272Z</time>
      </trkpt>
      <trkpt lat="44.10029" lon="3.54586">
        <ele>1270.2</ele>
        <time>2024-11-05T14:30:14.464Z</time>
      </trkpt>
      <trkpt lat="44.10015" lon="3.54596">
        <ele>1269.14</ele>
        <time>2024-11-05T14:30:25.659Z</time>
      </trkpt>
      <trkpt lat="44.09978" lon="3.54616">
        <ele>1266.46</ele>
        <time>2024-11-05T14:30:36.860Z</time>
      </trkpt>
      <trkpt lat="44.09948" lon="3.54632">
        <ele>1263.94</ele>
        <time>2024-11-05T14:30:48.066Z</time>
      </trkpt>
      <trkpt lat="44.09926" lon="3.54649">
        <ele>1261.99</ele>
        <time>2024-11-05T14:30:59.277Z</time>
      </trkpt>
      <trkpt lat="44.09876" lon="3.54687">
        <ele>1258.09</ele>
        <time>2024-11-05T14:31:10.497Z</time>
      </trkpt>
      <trkpt lat="44.09829" lon="3.54736">
        <ele>1254.45</ele>
        <time>2024-11-05T14:31:21.726Z</time>
      </trkpt>
      <trkpt lat="44.09805" lon="3.54766">
        <ele>1252.44</ele>
        <time>2024-11-05T14:31:32.960Z</time>
      </trkpt>
      <trkpt lat="44.0976" lon="3.54822">
        <ele>1249.07</ele>
        <time>2024-11-05T14:31:44.204Z</time>
      </trkpt>
      <trkpt lat="44.09731" lon="3.5485">
        <ele>1247.12</ele>
        <time>2024-11-05T14:31:55.454Z</time>
      </trkpt>
      <trkpt lat="44.09694" lon="3.54873">
        <ele>1244.49</ele>
        <time>2024-11-05T14:32:06.710Z</time>
      </trkpt>
      <trkpt lat="44.09605" lon="3.54912">
        <ele>1238.49</ele>
        <time>2024-11-05T14:32:17.981Z</time>
      </trkpt>
      <trkpt lat="44.09574" lon="3.54915">
        <ele>1236.33</ele>
        <time>2024-11-05T14:32:29.257Z</time>
      </trkpt>
      <trkpt lat="44.09551" lon="3.54907">
        <ele>1234.85</ele>
        <time>2024-11-05T14:32:40.537Z</time>
      </trkpt>
      <trkpt lat="44.09536" lon="3.54894">
        <ele>1233.87</ele>
        <time>2024-11-05T14:32:51.820Z</time>
      </trkpt>
      <trkpt lat="44.09519" lon="3.54863">
        <ele>1232.56</ele>
        <time>2024-11-05T14:33:03.107Z</time>
      </trkpt>
      <trkpt lat="44.09503" lon="3.54816">
        <ele>1231.31</ele>
        <time>2024-11-05T14:33:14.400Z</time>
      </trkpt>
      <trkpt lat="44.09494" lon="3.54797">
        <ele>1230.78</ele>
        <time>2024-11-05T14:33:25.696Z</time>
      </trkpt>
      <trkpt lat="44.09473" lon="3.54769">
        <ele>1229.92</ele>
        <time>2024-11-05T14:33:36.996Z</time>
      </trkpt>
      <trkpt lat="44.0943" lon="3.5472">
        <ele>1227.75</ele>
        <time>2024-11-05T14:33:48.305Z</time>
      </trkpt>
      <trkpt lat="44.09415" lon="3.54704">
        <ele>1227.16</ele>
        <time>2024-11-05T14:33:59.617Z</time>
      </trkpt>
      <trkpt lat="44.094" lon="3.5469">
        <ele>1226.83</ele>
        <time>2024-11-05T14:34:10.932Z</time>
      </trkpt>
      <trkpt lat="44.09375" lon="3.54673">
        <ele>1226.74</ele>
        <time>2024-11-05T14:34:22.252Z</time>
      </trkpt>
      <trkpt lat="44.09359" lon="3.54669">
        <ele>1226.86</ele>
        <time>2024-11-05T14:34:33.574Z</time>
      </trkpt>
      <trkpt lat="44.09315" lon="3.54674">
        <ele>1227.04</ele>
        <time>2024-11-05T14:34:44.903Z</time>
      </trkpt>
      <trkpt lat="44.09266" lon="3.5468">
        <ele>1225.86</ele>
        <time>2024-11-05T14:34:56.240Z</time>
      </trkpt>
      <trkpt lat="44.09247" lon="3.5469">
        <ele>1225.39</ele>
        <time>2024-11-05T14:35:07.580Z</time>
      </trkpt>
      <trkpt lat="44.09239" lon="3.54701">
        <ele>1225.22</ele>
        <time>2024-11-05T14:35:18.922Z</time>
      </trkpt>
      <trkpt lat="44.09241" lon="3.54707">
        <ele>1225.13</ele>
        <time>2024-11-05T14:35:30.265Z</time>
      </trkpt>
      <trkpt lat="44.09239" lon="3.54712">
        <ele>1225.06</ele>
        <time>2024-11-05T14:35:41.609Z</time>
      </trkpt>
      <trkpt lat="44.0924" lon="3.54718">
        <ele>1224.98</ele>
        <time>2024-11-05T14:35:52.953Z</time>
      </trkpt>
      <trkpt lat="44.09248" lon="3.5473">
        <ele>1224.76</ele>
        <time>2024-11-05T14:36:04.299Z</time>
      </trkpt>
      <trkpt lat="44.09264" lon="3.54741">
        <ele>1224.49</ele>
        <time>2024-11-05T14:36:15.648Z</time>
      </trkpt>
      <trkpt lat="44.09321" lon="3.54781">
        <ele>1221.92</ele>
        <time>2024-11-05T14:36:27.007Z</time>
      </trkpt>
      <trkpt lat="44.09408" lon="3.54836">
        <ele>1218.21</ele>
        <time>2024-11-05T14:36:38.382Z</time>
      </trkpt>
      <trkpt lat="44.0943" lon="3.54854">
        <ele>1217.3</ele>
        <time>2024-11-05T14:36:49.761Z</time>
      </trkpt>
      <trkpt lat="44.09452" lon="3.54878">
        <ele>1216.26</ele>
        <time>2024-11-05T14:37:01.144Z</time>
      </trkpt>
      <trkpt lat="44.09479" lon="3.54913">
        <ele>1214.78</ele>
        <time>2024-11-05T14:37:12.533Z</time>
      </trkpt>
      <trkpt lat="44.0954" lon="3.54997">
        <ele>1212.4</ele>
        <time>2024-11-05T14:37:23.936Z</time>
      </trkpt>
      <trkpt lat="44.09553" lon="3.55006">
        <ele>1211.88</ele>
        <time>2024-11-05T14:37:35.341Z</time>
      </trkpt>
      <trkpt lat="44.0956" lon="3.55008">
        <ele>1211.41</ele>
        <time>2024-11-05T14:37:46.747Z</time>
      </trkpt>
      <trkpt lat="44.0959" lon="3.55003">
        <ele>1209.33</ele>
        <time>2024-11-05T14:37:58.158Z</time>
      </trkpt>
      <trkpt lat="44.09634" lon="3.55002">
        <ele>1206.08</ele>
        <time>2024-11-05T14:38:09.576Z</time>
      </trkpt>
      <trkpt lat="44.09664" lon="3.54993">
        <ele>1203.9</ele>
        <time>2024-11-05T14:38:20.999Z</time>
      </trkpt>
      <trkpt lat="44.097" lon="3.54977">
        <ele>1201.62</ele>
        <time>2024-11-05T14:38:32.428Z</time>
      </trkpt>
      <trkpt lat="44.09714" lon="3.54973">
        <ele>1200.8</ele>
        <time>2024-11-05T14:38:43.859Z</time>
      </trkpt>
      <trkpt lat="44.09812" lon="3.54961">
        <ele>1194.5</ele>
        <time>2024-11-05T14:38:55.306Z</time>
      </trkpt>
      <trkpt lat="44.09824" lon="3.54956">
        <ele>1193.63</ele>
        <time>2024-11-05T14:39:06.755Z</time>
      </trkpt>
      <trkpt lat="44.09861" lon="3.54941">
        <ele>1191.32</ele>
        <time>2024-11-05T14:39:18.210Z</time>
      </trkpt>
      <trkpt lat="44.09869" lon="3.5494">
        <ele>1190.88</ele>
        <time>2024-11-05T14:39:29.667Z</time>
      </trkpt>
      <trkpt lat="44.09898" lon="3.54937">
        <ele>1189.96</ele>
        <time>2024-11-05T14:39:41.128Z</time>
      </trkpt>
      <trkpt lat="44.09924" lon="3.54924">
        <ele>1189.16</ele>
        <time>2024-11-05T14:39:52.594Z</time>
      </trkpt>
      <trkpt lat="44.09934" lon="3.54926">
        <ele>1188.62</ele>
        <time>2024-11-05T14:40:04.061Z</time>
      </trkpt>
      <trkpt lat="44.09937" lon="3.5493">
        <ele>1188.3</ele>
        <time>2024-11-05T14:40:15.529Z</time>
      </trkpt>
      <trkpt lat="44.09939" lon="3.54937">
        <ele>1187.85</ele>
        <time>2024-11-05T14:40:26.998Z</time>
      </trkpt>
      <trkpt lat="44.09937" lon="3.54956">
        <ele>1186.52</ele>
        <time>2024-11-05T14:40:38.469Z</time>
      </trkpt>
      <trkpt lat="44.09927" lon="3.54974">
        <ele>1184.78</ele>
        <time>2024-11-05T14:40:49.943Z</time>
      </trkpt>
      <trkpt lat="44.09898" lon="3.54999">
        <ele>1181.73</ele>
        <time>2024-11-05T14:41:01.422Z</time>
      </trkpt>
      <trkpt lat="44.09888" lon="3.55005">
        <ele>1180.89</ele>
        <time>2024-11-05T14:41:12.903Z</time>
      </trkpt>
      <trkpt lat="44.09857" lon="3.55007">
        <ele>1178.59</ele>
        <time>2024-11-05T14:41:24.389Z</time>
      </trkpt>
      <trkpt lat="44.09845" lon="3.55015">
        <ele>1177.71</ele>
        <time>2024-11-05T14:41:35.877Z</time>
      </trkpt>
      <trkpt lat="44.09835" lon="3.55035">
        <ele>1176.7</ele>
        <time>2024-11-05T14:41:47.368Z</time>
      </trkpt>
      <trkpt lat="44.09817" lon="3.55068">
        <ele>1175.32</ele>
        <time>2024-11-05T14:41:58.864Z</time>
      </trkpt>
      <trkpt lat="44.09812" lon="3.55074">
        <ele>1175.02</ele>
        <time>2024-11-05T14:42:10.361Z</time>
      </trkpt>
      <trkpt lat="44.09804" lon="3.5508">
        <ele>1174.57</ele>
        <time>2024-11-05T14:42:21.859Z</time>
      </trkpt>
      <trkpt lat="44.09789" lon="3.55085">
        <ele>1173.79</ele>
        <time>2024-11-05T14:42:33.359Z</time>
      </trkpt>
      <trkpt lat="44.0975" lon="3.55087">
        <ele>1171.9</ele>
        <time>2024-11-05T14:42:44.866Z</time>
      </trkpt>
      <trkpt lat="44.09742" lon="3.5509">
        <ele>1171.56</ele>
        <time>2024-11-05T14:42:56.374Z</time>
      </trkpt>
      <trkpt lat="44.09727" lon="3.55099">
        <ele>1170.89</ele>
        <time>2024-11-05T14:43:07.885Z</time>
      </trkpt>
      <trkpt lat="44.09716" lon="3.55116">
        <ele>1170.24</ele>
        <time>2024-11-05T14:43:19.398Z</time>
      </trkpt>
      <trkpt lat="44.09714" lon="3.55127">
        <ele>1169.94</ele>
        <time>2024-11-05T14:43:30.913Z</time>
      </trkpt>
      <trkpt lat="44.09716" lon="3.55149">
        <ele>1169.31</ele>
        <time>2024-11-05T14:43:42.430Z</time>
      </trkpt>
      <trkpt lat="44.09732" lon="3.5517">
        <ele>1168.16</ele>
        <time>2024-11-05T14:43:53.951Z</time>
      </trkpt>
      <trkpt lat="44.09763" lon="3.55203">
        <ele>1165.72</ele>
        <time>2024-11-05T14:44:05.478Z</time>
      </trkpt>
      <trkpt lat="44.09782" lon="3.55223">
        <ele>1164.44</ele>
        <time>2024-11-05T14:44:17.009Z</time>
      </trkpt>
      <trkpt lat="44.09793" lon="3.55244">
        <ele>1163.61</ele>
        <time>2024-11-05T14:44:28.543Z</time>
      </trkpt>
      <trkpt lat="44.09795" lon="3.55263">
        <ele>1162.89</ele>
        <time>2024-11-05T14:44:40.079Z</time>
      </trkpt>
      <trkpt lat="44.09793" lon="3.55273">
        <ele>1162.47</ele>
        <time>2024-11-05T14:44:51.616Z</time>
      </trkpt>
      <trkpt lat="44.09789" lon="3.5528">
        <ele>1162.11</ele>
        <time>2024-11-05T14:45:03.154Z</time>
      </trkpt>
      <trkpt lat="44.09782" lon="3.55287">
        <ele>1161.62</ele>
        <time>2024-11-05T14:45:14.694Z</time>
      </trkpt>
      <trkpt lat="44.09748" lon="3.55305">
        <ele>1159.6</ele>
        <time>2024-11-05T14:45:26.239Z</time>
      </trkpt>
      <trkpt lat="44.09738" lon="3.55314">
        <ele>1158.89</ele>
        <time>2024-11-05T14:45:37.786Z</time>
      </trkpt>
      <trkpt lat="44.09656" lon="3.55401">
        <ele>1152.29</ele>
        <time>2024-11-05T14:45:49.350Z</time>
      </trkpt>
      <trkpt lat="44.0962" lon="3.55457">
        <ele>1149.11</ele>
        <time>2024-11-05T14:46:00.922Z</time>
      </trkpt>
      <trkpt lat="44.09601" lon="3.55479">
        <ele>1147.64</ele>
        <time>2024-11-05T14:46:12.498Z</time>
      </trkpt>
      <trkpt lat="44.09572" lon="3.55502">
        <ele>1145.66</ele>
        <time>2024-11-05T14:46:24.080Z</time>
      </trkpt>
      <trkpt lat="44.09551" lon="3.55528">
        <ele>1144.04</ele>
        <time>2024-11-05T14:46:35.666Z</time>
      </trkpt>
      <trkpt lat="44.09507" lon="3.55608">
        <ele>1140.06</ele>
        <time>2024-11-05T14:46:47.264Z</time>
      </trkpt>
      <trkpt lat="44.09494" lon="3.55629">
        <ele>1139.02</ele>
        <time>2024-11-05T14:46:58.865Z</time>
      </trkpt>
      <trkpt lat="44.09481" lon="3.55643">
        <ele>1138.1</ele>
        <time>2024-11-05T14:47:10.469Z</time>
      </trkpt>
      <trkpt lat="44.09454" lon="3.55667">
        <ele>1136.35</ele>
        <time>2024-11-05T14:47:22.078Z</time>
      </trkpt>
      <trkpt lat="44.09415" lon="3.55701">
        <ele>1134.35</ele>
        <time>2024-11-05T14:47:33.694Z</time>
      </trkpt>
      <trkpt lat="44.09396" lon="3.55742">
        <ele>1133.02</ele>
        <time>2024-11-05T14:47:45.316Z</time>
      </trkpt>
      <trkpt lat="44.09387" lon="3.55755">
        <ele>1132.44</ele>
        <time>2024-11-05T14:47:56.940Z</time>
      </trkpt>
      <trkpt lat="44.09369" lon="3.55763">
        <ele>1131.47</ele>
        <time>2024-11-05T14:48:08.567Z</time>
      </trkpt>
      <trkpt lat="44.09303" lon="3.55773">
        <ele>1127.87</ele>
        <time>2024-11-05T14:48:20.205Z</time>
      </trkpt>
      <trkpt lat="44.09296" lon="3.55777">
        <ele>1127.35</ele>
        <time>2024-11-05T14:48:31.844Z</time>
      </trkpt>
      <trkpt lat="44.09259" lon="3.55806">
        <ele>1124.47</ele>
        <time>2024-11-05T14:48:43.490Z</time>
      </trkpt>
      <trkpt lat="44.09246" lon="3.55827">
        <ele>1123.2</ele>
        <time>2024-11-05T14:48:55.139Z</time>
      </trkpt>
      <trkpt lat="44.09238" lon="3.55853">
        <ele>1121.9</ele>
        <time>2024-11-05T14:49:06.791Z</time>
      </trkpt>
      <trkpt lat="44.09236" lon="3.55875">
        <ele>1120.91</ele>
        <time>2024-11-05T14:49:18.446Z</time>
      </trkpt>
      <trkpt lat="44.09242" lon="3.55915">
        <ele>1119.24</ele>
        <time>2024-11-05T14:49:30.105Z</time>
      </trkpt>
      <trkpt lat="44.09242" lon="3.55926">
        <ele>1118.84</ele>
        <time>2024-11-05T14:49:41.766Z</time>
      </trkpt>
      <trkpt lat="44.09236" lon="3.5597">
        <ele>1117.27</ele>
        <time>2024-11-05T14:49:53.432Z</time>
      </trkpt>
      <trkpt lat="44.09227" lon="3.55993">
        <ele>1116.27</ele>
        <time>2024-11-05T14:50:05.101Z</time>
      </trkpt>
      <trkpt lat="44.09155" lon="3.56081">
        <ele>1110.82</ele>
        <time>2024-11-05T14:50:16.785Z</time>
      </trkpt>
      <trkpt lat="44.09141" lon="3.56088">
        <ele>1110</ele>
        <time>2024-11-05T14:50:28.471Z</time>
      </trkpt>
      <trkpt lat="44.09113" lon="3.56088">
        <ele>1108.47</ele>
        <time>2024-11-05T14:50:40.162Z</time>
      </trkpt>
      <trkpt lat="44.09103" lon="3.56089">
        <ele>1107.93</ele>
        <time>2024-11-05T14:50:51.855Z</time>
      </trkpt>
      <trkpt lat="44.09096" lon="3.56092">
        <ele>1107.53</ele>
        <time>2024-11-05T14:51:03.549Z</time>
      </trkpt>
      <trkpt lat="44.09061" lon="3.56122">
        <ele>1105.26</ele>
        <time>2024-11-05T14:51:15.249Z</time>
      </trkpt>
      <trkpt lat="44.09033" lon="3.56136">
        <ele>1103.7</ele>
        <time>2024-11-05T14:51:26.954Z</time>
      </trkpt>
      <trkpt lat="44.09015" lon="3.56154">
        <ele>1102.58</ele>
        <time>2024-11-05T14:51:38.663Z</time>
      </trkpt>
      <trkpt lat="44.08996" lon="3.56178">
        <ele>1101.25</ele>
        <time>2024-11-05T14:51:50.376Z</time>
      </trkpt>
      <trkpt lat="44.08988" lon="3.56198">
        <ele>1100.37</ele>
        <time>2024-11-05T14:52:02.091Z</time>
      </trkpt>
      <trkpt lat="44.08973" lon="3.5628">
        <ele>1097.09</ele>
        <time>2024-11-05T14:52:13.816Z</time>
      </trkpt>
      <trkpt lat="44.08965" lon="3.56291">
        <ele>1096.51</ele>
        <time>2024-11-05T14:52:25.543Z</time>
      </trkpt>
      <trkpt lat="44.08946" lon="3.56308">
        <ele>1095.22</ele>
        <time>2024-11-05T14:52:37.274Z</time>
      </trkpt>
      <trkpt lat="44.0894" lon="3.56317">
        <ele>1094.66</ele>
        <time>2024-11-05T14:52:49.006Z</time>
      </trkpt>
      <trkpt lat="44.08938" lon="3.56326">
        <ele>1094.2</ele>
        <time>2024-11-05T14:53:00.739Z</time>
      </trkpt>
      <trkpt lat="44.0894" lon="3.56346">
        <ele>1093.26</ele>
        <time>2024-11-05T14:53:12.474Z</time>
      </trkpt>
      <trkpt lat="44.08944" lon="3.56356">
        <ele>1092.81</ele>
        <time>2024-11-05T14:53:24.211Z</time>
      </trkpt>
      <trkpt lat="44.08958" lon="3.56379">
        <ele>1091.63</ele>
        <time>2024-11-05T14:53:35.951Z</time>
      </trkpt>
      <trkpt lat="44.08962" lon="3.5639">
        <ele>1091.12</ele>
        <time>2024-11-05T14:53:47.693Z</time>
      </trkpt>
      <trkpt lat="44.08962" lon="3.56399">
        <ele>1090.7</ele>
        <time>2024-11-05T14:53:59.436Z</time>
      </trkpt>
      <trkpt lat="44.08959" lon="3.56408">
        <ele>1090.23</ele>
        <time>2024-11-05T14:54:11.180Z</time>
      </trkpt>
      <trkpt lat="44.08949" lon="3.56423">
        <ele>1089.15</ele>
        <time>2024-11-05T14:54:22.926Z</time>
      </trkpt>
      <trkpt lat="44.08925" lon="3.56452">
        <ele>1086.95</ele>
        <time>2024-11-05T14:54:34.677Z</time>
      </trkpt>
      <trkpt lat="44.08915" lon="3.5647">
        <ele>1085.92</ele>
        <time>2024-11-05T14:54:46.431Z</time>
      </trkpt>
      <trkpt lat="44.08891" lon="3.56515">
        <ele>1083.67</ele>
        <time>2024-11-05T14:54:58.191Z</time>
      </trkpt>
      <trkpt lat="44.08867" lon="3.56561">
        <ele>1081.81</ele>
        <time>2024-11-05T14:55:09.958Z</time>
      </trkpt>
      <trkpt lat="44.08859" lon="3.5658">
        <ele>1081.12</ele>
        <time>2024-11-05T14:55:21.727Z</time>
      </trkpt>
      <trkpt lat="44.08858" lon="3.56592">
        <ele>1080.67</ele>
        <time>2024-11-05T14:55:33.498Z</time>
      </trkpt>
      <trkpt lat="44.0886" lon="3.56609">
        <ele>1079.87</ele>
        <time>2024-11-05T14:55:45.271Z</time>
      </trkpt>
      <trkpt lat="44.08869" lon="3.56617">
        <ele>1079.09</ele>
        <time>2024-11-05T14:55:57.045Z</time>
      </trkpt>
      <trkpt lat="44.08878" lon="3.56615">
        <ele>1078.4</ele>
        <time>2024-11-05T14:56:08.821Z</time>
      </trkpt>
      <trkpt lat="44.08886" lon="3.56599">
        <ele>1077.25</ele>
        <time>2024-11-05T14:56:20.599Z</time>
      </trkpt>
      <trkpt lat="44.08895" lon="3.56569">
        <ele>1075.7</ele>
        <time>2024-11-05T14:56:32.381Z</time>
      </trkpt>
      <trkpt lat="44.08905" lon="3.56535">
        <ele>1074.23</ele>
        <time>2024-11-05T14:56:44.167Z</time>
      </trkpt>
      <trkpt lat="44.08912" lon="3.56518">
        <ele>1073.49</ele>
        <time>2024-11-05T14:56:55.955Z</time>
      </trkpt>
      <trkpt lat="44.08926" lon="3.56494">
        <ele>1072.26</ele>
        <time>2024-11-05T14:57:07.747Z</time>
      </trkpt>
      <trkpt lat="44.08939" lon="3.56478">
        <ele>1071.27</ele>
        <time>2024-11-05T14:57:19.542Z</time>
      </trkpt>
      <trkpt lat="44.08968" lon="3.56458">
        <ele>1069.37</ele>
        <time>2024-11-05T14:57:31.342Z</time>
      </trkpt>
      <trkpt lat="44.09003" lon="3.56434">
        <ele>1067.41</ele>
        <time>2024-11-05T14:57:43.148Z</time>
      </trkpt>
      <trkpt lat="44.09013" lon="3.5642">
        <ele>1066.73</ele>
        <time>2024-11-05T14:57:54.956Z</time>
      </trkpt>
      <trkpt lat="44.09016" lon="3.56406">
        <ele>1066.25</ele>
        <time>2024-11-05T14:58:06.766Z</time>
      </trkpt>
      <trkpt lat="44.09015" lon="3.56392">
        <ele>1065.76</ele>
        <time>2024-11-05T14:58:18.578Z</time>
      </trkpt>
      <trkpt lat="44.0901" lon="3.56374">
        <ele>1065.1</ele>
        <time>2024-11-05T14:58:30.392Z</time>
      </trkpt>
      <trkpt lat="44.08998" lon="3.56351">
        <ele>1064.17</ele>
        <time>2024-11-05T14:58:42.209Z</time>
      </trkpt>
      <trkpt lat="44.08995" lon="3.5634">
        <ele>1063.78</ele>
        <time>2024-11-05T14:58:54.028Z</time>
      </trkpt>
      <trkpt lat="44.08996" lon="3.56326">
        <ele>1063.23</ele>
        <time>2024-11-05T14:59:05.848Z</time>
      </trkpt>
      <trkpt lat="44.09001" lon="3.56314">
        <ele>1062.56</ele>
        <time>2024-11-05T14:59:17.670Z</time>
      </trkpt>
      <trkpt lat="44.09027" lon="3.56294">
        <ele>1060.36</ele>
        <time>2024-11-05T14:59:29.497Z</time>
      </trkpt>
      <trkpt lat="44.09051" lon="3.56258">
        <ele>1058.21</ele>
        <time>2024-11-05T14:59:41.329Z</time>
      </trkpt>
      <trkpt lat="44.09062" lon="3.56246">
        <ele>1057.56</ele>
        <time>2024-11-05T14:59:53.163Z</time>
      </trkpt>
      <trkpt lat="44.09069" lon="3.56242">
        <ele>1057.16</ele>
        <time>2024-11-05T15:00:04.999Z</time>
      </trkpt>
      <trkpt lat="44.09107" lon="3.56233">
        <ele>1054.91</ele>
        <time>2024-11-05T15:00:16.841Z</time>
      </trkpt>
      <trkpt lat="44.09144" lon="3.56216">
        <ele>1052.81</ele>
        <time>2024-11-05T15:00:28.689Z</time>
      </trkpt>
      <trkpt lat="44.09199" lon="3.56224">
        <ele>1049.58</ele>
        <time>2024-11-05T15:00:40.546Z</time>
      </trkpt>
      <trkpt lat="44.09211" lon="3.56221">
        <ele>1048.92</ele>
        <time>2024-11-05T15:00:52.405Z</time>
      </trkpt>
      <trkpt lat="44.09219" lon="3.56216">
        <ele>1048.48</ele>
        <time>2024-11-05T15:01:04.265Z</time>
      </trkpt>
      <trkpt lat="44.09248" lon="3.56185">
        <ele>1046.92</ele>
        <time>2024-11-05T15:01:16.131Z</time>
      </trkpt>
      <trkpt lat="44.09256" lon="3.56183">
        <ele>1046.47</ele>
        <time>2024-11-05T15:01:27.998Z</time>
      </trkpt>
      <trkpt lat="44.09272" lon="3.56189">
        <ele>1045.51</ele>
        <time>2024-11-05T15:01:39.868Z</time>
      </trkpt>
      <trkpt lat="44.09278" lon="3.56196">
        <ele>1045.07</ele>
        <time>2024-11-05T15:01:51.739Z</time>
      </trkpt>
      <trkpt lat="44.0929" lon="3.56216">
        <ele>1044.07</ele>
        <time>2024-11-05T15:02:03.613Z</time>
      </trkpt>
      <trkpt lat="44.093" lon="3.56224">
        <ele>1043.48</ele>
        <time>2024-11-05T15:02:15.489Z</time>
      </trkpt>
      <trkpt lat="44.09306" lon="3.56227">
        <ele>1043.08</ele>
        <time>2024-11-05T15:02:27.366Z</time>
      </trkpt>
      <trkpt lat="44.09323" lon="3.56223">
        <ele>1041.94</ele>
        <time>2024-11-05T15:02:39.246Z</time>
      </trkpt>
      <trkpt lat="44.09331" lon="3.56219">
        <ele>1041.26</ele>
        <time>2024-11-05T15:02:51.127Z</time>
      </trkpt>
      <trkpt lat="44.09347" lon="3.56205">
        <ele>1039.77</ele>
        <time>2024-11-05T15:03:03.011Z</time>
      </trkpt>
      <trkpt lat="44.09362" lon="3.56177">
        <ele>1038.22</ele>
        <time>2024-11-05T15:03:14.899Z</time>
      </trkpt>
      <trkpt lat="44.0939" lon="3.56102">
        <ele>1034.67</ele>
        <time>2024-11-05T15:03:26.797Z</time>
      </trkpt>
      <trkpt lat="44.094" lon="3.56064">
        <ele>1033.19</ele>
        <time>2024-11-05T15:03:38.700Z</time>
      </trkpt>
      <trkpt lat="44.09398" lon="3.56039">
        <ele>1032.36</ele>
        <time>2024-11-05T15:03:50.606Z</time>
      </trkpt>
      <trkpt lat="44.09385" lon="3.55998">
        <ele>1030.55</ele>
        <time>2024-11-05T15:04:02.517Z</time>
      </trkpt>
      <trkpt lat="44.09384" lon="3.55986">
        <ele>1030.05</ele>
        <time>2024-11-05T15:04:14.429Z</time>
      </trkpt>
      <trkpt lat="44.09391" lon="3.55964">
        <ele>1028.7</ele>
        <time>2024-11-05T15:04:26.344Z</time>
      </trkpt>
      <trkpt lat="44.09407" lon="3.55947">
        <ele>1027.17</ele>
        <time>2024-11-05T15:04:38.262Z</time>
      </trkpt>
      <trkpt lat="44.09415" lon="3.55943">
        <ele>1026.55</ele>
        <time>2024-11-05T15:04:50.182Z</time>
      </trkpt>
      <trkpt lat="44.09456" lon="3.55943">
        <ele>1023.69</ele>
        <time>2024-11-05T15:05:02.108Z</time>
      </trkpt>
      <trkpt lat="44.09476" lon="3.55933">
        <ele>1022.35</ele>
        <time>2024-11-05T15:05:14.038Z</time>
      </trkpt>
      <trkpt lat="44.09492" lon="3.55911">
        <ele>1021.05</ele>
        <time>2024-11-05T15:05:25.971Z</time>
      </trkpt>
      <trkpt lat="44.09509" lon="3.55878">
        <ele>1019.51</ele>
        <time>2024-11-05T15:05:37.909Z</time>
      </trkpt>
      <trkpt lat="44.09536" lon="3.5586">
        <ele>1017.88</ele>
        <time>2024-11-05T15:05:49.852Z</time>
      </trkpt>
      <trkpt lat="44.09566" lon="3.55849">
        <ele>1015.93</ele>
        <time>2024-11-05T15:06:01.800Z</time>
      </trkpt>
      <trkpt lat="44.09589" lon="3.55849">
        <ele>1014.53</ele>
        <time>2024-11-05T15:06:13.751Z</time>
      </trkpt>
      <trkpt lat="44.09595" lon="3.55851">
        <ele>1014.21</ele>
        <time>2024-11-05T15:06:25.703Z</time>
      </trkpt>
      <trkpt lat="44.096" lon="3.55855">
        <ele>1013.88</ele>
        <time>2024-11-05T15:06:37.656Z</time>
      </trkpt>
      <trkpt lat="44.09616" lon="3.55887">
        <ele>1012.54</ele>
        <time>2024-11-05T15:06:49.614Z</time>
      </trkpt>
      <trkpt lat="44.09625" lon="3.55899">
        <ele>1011.99</ele>
        <time>2024-11-05T15:07:01.574Z</time>
      </trkpt>
      <trkpt lat="44.0964" lon="3.55907">
        <ele>1011.18</ele>
        <time>2024-11-05T15:07:13.536Z</time>
      </trkpt>
      <trkpt lat="44.0965" lon="3.55906">
        <ele>1010.65</ele>
        <time>2024-11-05T15:07:25.500Z</time>
      </trkpt>
      <trkpt lat="44.09662" lon="3.55898">
        <ele>1009.86</ele>
        <time>2024-11-05T15:07:37.466Z</time>
      </trkpt>
      <trkpt lat="44.09676" lon="3.55878">
        <ele>1008.57</ele>
        <time>2024-11-05T15:07:49.435Z</time>
      </trkpt>
      <trkpt lat="44.09714" lon="3.55802">
        <ele>1004.6</ele>
        <time>2024-11-05T15:08:01.415Z</time>
      </trkpt>
      <trkpt lat="44.09732" lon="3.55784">
        <ele>1003.44</ele>
        <time>2024-11-05T15:08:13.398Z</time>
      </trkpt>
      <trkpt lat="44.09746" lon="3.55763">
        <ele>1002.45</ele>
        <time>2024-11-05T15:08:25.385Z</time>
      </trkpt>
      <trkpt lat="44.09753" lon="3.5574">
        <ele>1001.56</ele>
        <time>2024-11-05T15:08:37.375Z</time>
      </trkpt>
      <trkpt lat="44.09755" lon="3.55694">
        <ele>999.72</ele>
        <time>2024-11-05T15:08:49.370Z</time>
      </trkpt>
      <trkpt lat="44.09759" lon="3.55683">
        <ele>999.2</ele>
        <time>2024-11-05T15:09:01.366Z</time>
      </trkpt>
      <trkpt lat="44.09781" lon="3.55655">
        <ele>997.65</ele>
        <time>2024-11-05T15:09:13.367Z</time>
      </trkpt>
      <trkpt lat="44.098" lon="3.5564">
        <ele>996.78</ele>
        <time>2024-11-05T15:09:25.372Z</time>
      </trkpt>
      <trkpt lat="44.09816" lon="3.55629">
        <ele>996.36</ele>
        <time>2024-11-05T15:09:37.379Z</time>
      </trkpt>
      <trkpt lat="44.09833" lon="3.55618">
        <ele>996.24</ele>
        <time>2024-11-05T15:09:49.389Z</time>
      </trkpt>
      <trkpt lat="44.09843" lon="3.55614">
        <ele>996.18</ele>
        <time>2024-11-05T15:10:01.401Z</time>
      </trkpt>
      <trkpt lat="44.0985" lon="3.55614">
        <ele>996.1</ele>
        <time>2024-11-05T15:10:13.414Z</time>
      </trkpt>
      <trkpt lat="44.09856" lon="3.55617">
        <ele>995.9</ele>
        <time>2024-11-05T15:10:25.428Z</time>
      </trkpt>
      <trkpt lat="44.09859" lon="3.55625">
        <ele>995.66</ele>
        <time>2024-11-05T15:10:37.443Z</time>
      </trkpt>
      <trkpt lat="44.09859" lon="3.55632">
        <ele>995.09</ele>
        <time>2024-11-05T15:10:49.459Z</time>
      </trkpt>
      <trkpt lat="44.09855" lon="3.5564">
        <ele>994.32</ele>
        <time>2024-11-05T15:11:01.476Z</time>
      </trkpt>
      <trkpt lat="44.0985" lon="3.55645">
        <ele>993.66</ele>
        <time>2024-11-05T15:11:13.494Z</time>
      </trkpt>
      <trkpt lat="44.0983" lon="3.55656">
        <ele>991.44</ele>
        <time>2024-11-05T15:11:25.516Z</time>
      </trkpt>
      <trkpt lat="44.09814" lon="3.55669">
        <ele>989.91</ele>
        <time>2024-11-05T15:11:37.541Z</time>
      </trkpt>
      <trkpt lat="44.09803" lon="3.55681">
        <ele>988.84</ele>
        <time>2024-11-05T15:11:49.568Z</time>
      </trkpt>
      <trkpt lat="44.09794" lon="3.55695">
        <ele>987.95</ele>
        <time>2024-11-05T15:12:01.597Z</time>
      </trkpt>
      <trkpt lat="44.09784" lon="3.55723">
        <ele>986.46</ele>
        <time>2024-11-05T15:12:13.630Z</time>
      </trkpt>
      <trkpt lat="44.09775" lon="3.55792">
        <ele>983.23</ele>
        <time>2024-11-05T15:12:25.671Z</time>
      </trkpt>
      <trkpt lat="44.09759" lon="3.55833">
        <ele>981.46</ele>
        <time>2024-11-05T15:12:37.717Z</time>
      </trkpt>
      <trkpt lat="44.09738" lon="3.55908">
        <ele>978.15</ele>
        <time>2024-11-05T15:12:49.772Z</time>
      </trkpt>
      <trkpt lat="44.0973" lon="3.55927">
        <ele>977.32</ele>
        <time>2024-11-05T15:13:01.830Z</time>
      </trkpt>
      <trkpt lat="44.09683" lon="3.55991">
        <ele>973.83</ele>
        <time>2024-11-05T15:13:13.898Z</time>
      </trkpt>
      <trkpt lat="44.09669" lon="3.56004">
        <ele>972.96</ele>
        <time>2024-11-05T15:13:25.969Z</time>
      </trkpt>
      <trkpt lat="44.0966" lon="3.56006">
        <ele>972.45</ele>
        <time>2024-11-05T15:13:38.042Z</time>
      </trkpt>
      <trkpt lat="44.09624" lon="3.56">
        <ele>970.29</ele>
        <time>2024-11-05T15:13:50.120Z</time>
      </trkpt>
      <trkpt lat="44.09583" lon="3.56024">
        <ele>967.71</ele>
        <time>2024-11-05T15:14:02.206Z</time>
      </trkpt>
      <trkpt lat="44.09556" lon="3.56032">
        <ele>966.27</ele>
        <time>2024-11-05T15:14:14.296Z</time>
      </trkpt>
      <trkpt lat="44.09541" lon="3.56039">
        <ele>965.38</ele>
        <time>2024-11-05T15:14:26.389Z</time>
      </trkpt>
      <trkpt lat="44.09524" lon="3.56055">
        <ele>964.21</ele>
        <time>2024-11-05T15:14:38.485Z</time>
      </trkpt>
      <trkpt lat="44.09511" lon="3.56079">
        <ele>963</ele>
        <time>2024-11-05T15:14:50.584Z</time>
      </trkpt>
      <trkpt lat="44.09499" lon="3.56114">
        <ele>961.36</ele>
        <time>2024-11-05T15:15:02.688Z</time>
      </trkpt>
      <trkpt lat="44.09496" lon="3.56156">
        <ele>959.49</ele>
        <time>2024-11-05T15:15:14.797Z</time>
      </trkpt>
      <trkpt lat="44.09472" lon="3.56275">
        <ele>954.46</ele>
        <time>2024-11-05T15:15:26.920Z</time>
      </trkpt>
      <trkpt lat="44.09467" lon="3.56294">
        <ele>953.66</ele>
        <time>2024-11-05T15:15:39.045Z</time>
      </trkpt>
      <trkpt lat="44.09456" lon="3.56319">
        <ele>952.5</ele>
        <time>2024-11-05T15:15:51.174Z</time>
      </trkpt>
      <trkpt lat="44.09428" lon="3.56357">
        <ele>950.56</ele>
        <time>2024-11-05T15:16:03.309Z</time>
      </trkpt>
      <trkpt lat="44.09422" lon="3.56363">
        <ele>950.17</ele>
        <time>2024-11-05T15:16:15.445Z</time>
      </trkpt>
      <trkpt lat="44.09404" lon="3.56367">
        <ele>949.12</ele>
        <time>2024-11-05T15:16:27.584Z</time>
      </trkpt>
      <trkpt lat="44.09375" lon="3.56365">
        <ele>947.5</ele>
        <time>2024-11-05T15:16:39.728Z</time>
      </trkpt>
      <trkpt lat="44.09367" lon="3.56368">
        <ele>947.05</ele>
        <time>2024-11-05T15:16:51.873Z</time>
      </trkpt>
      <trkpt lat="44.09356" lon="3.56378">
        <ele>946.33</ele>
        <time>2024-11-05T15:17:04.020Z</time>
      </trkpt>
      <trkpt lat="44.09341" lon="3.56403">
        <ele>945</ele>
        <time>2024-11-05T15:17:16.171Z</time>
      </trkpt>
      <trkpt lat="44.09328" lon="3.56415">
        <ele>944.07</ele>
        <time>2024-11-05T15:17:28.324Z</time>
      </trkpt>
      <trkpt lat="44.09293" lon="3.56426">
        <ele>942.18</ele>
        <time>2024-11-05T15:17:40.483Z</time>
      </trkpt>
      <trkpt lat="44.09254" lon="3.56432">
        <ele>940.57</ele>
        <time>2024-11-05T15:17:52.648Z</time>
      </trkpt>
      <trkpt lat="44.09248" lon="3.56436">
        <ele>940.24</ele>
        <time>2024-11-05T15:18:04.814Z</time>
      </trkpt>
      <trkpt lat="44.09243" lon="3.56443">
        <ele>939.84</ele>
        <time>2024-11-05T15:18:16.981Z</time>
      </trkpt>
      <trkpt lat="44.09237" lon="3.56461">
        <ele>938.87</ele>
        <time>2024-11-05T15:18:29.151Z</time>
      </trkpt>
      <trkpt lat="44.09237" lon="3.56471">
        <ele>938.36</ele>
        <time>2024-11-05T15:18:41.322Z</time>
      </trkpt>
      <trkpt lat="44.09238" lon="3.56479">
        <ele>937.95</ele>
        <time>2024-11-05T15:18:53.494Z</time>
      </trkpt>
      <trkpt lat="44.09253" lon="3.56517">
        <ele>935.81</ele>
        <time>2024-11-05T15:19:05.671Z</time>
      </trkpt>
      <trkpt lat="44.09256" lon="3.56529">
        <ele>935.26</ele>
        <time>2024-11-05T15:19:17.849Z</time>
      </trkpt>
      <trkpt lat="44.09256" lon="3.56552">
        <ele>934.34</ele>
        <time>2024-11-05T15:19:30.030Z</time>
      </trkpt>
      <trkpt lat="44.09252" lon="3.56571">
        <ele>933.55</ele>
        <time>2024-11-05T15:19:42.213Z</time>
      </trkpt>
      <trkpt lat="44.09227" lon="3.56618">
        <ele>930.98</ele>
        <time>2024-11-05T15:19:54.403Z</time>
      </trkpt>
      <trkpt lat="44.09214" lon="3.56638">
        <ele>929.73</ele>
        <time>2024-11-05T15:20:06.596Z</time>
      </trkpt>
      <trkpt lat="44.09197" lon="3.5665">
        <ele>928.51</ele>
        <time>2024-11-05T15:20:18.792Z</time>
      </trkpt>
      <trkpt lat="44.0916" lon="3.56662">
        <ele>926.13</ele>
        <time>2024-11-05T15:20:30.994Z</time>
      </trkpt>
      <trkpt lat="44.09111" lon="3.56677">
        <ele>923.36</ele>
        <time>2024-11-05T15:20:43.204Z</time>
      </trkpt>
      <trkpt lat="44.09101" lon="3.56682">
        <ele>922.78</ele>
        <time>2024-11-05T15:20:55.416Z</time>
      </trkpt>
      <trkpt lat="44.09094" lon="3.56689">
        <ele>922.29</ele>
        <time>2024-11-05T15:21:07.629Z</time>
      </trkpt>
      <trkpt lat="44.09087" lon="3.56701">
        <ele>921.66</ele>
        <time>2024-11-05T15:21:19.844Z</time>
      </trkpt>
      <trkpt lat="44.09073" lon="3.56738">
        <ele>919.91</ele>
        <time>2024-11-05T15:21:32.064Z</time>
      </trkpt>
      <trkpt lat="44.09062" lon="3.56752">
        <ele>919.09</ele>
        <time>2024-11-05T15:21:44.286Z</time>
      </trkpt>
      <trkpt lat="44.09047" lon="3.56762">
        <ele>918.23</ele>
        <time>2024-11-05T15:21:56.511Z</time>
      </trkpt>
      <trkpt lat="44.09042" lon="3.56768">
        <ele>917.9</ele>
        <time>2024-11-05T15:22:08.737Z</time>
      </trkpt>
      <trkpt lat="44.09038" lon="3.56788">
        <ele>917.01</ele>
        <time>2024-11-05T15:22:20.965Z</time>
      </trkpt>
      <trkpt lat="44.09043" lon="3.5683">
        <ele>915.14</ele>
        <time>2024-11-05T15:22:33.198Z</time>
      </trkpt>
      <trkpt lat="44.09047" lon="3.56844">
        <ele>914.52</ele>
        <time>2024-11-05T15:22:45.433Z</time>
      </trkpt>
      <trkpt lat="44.09052" lon="3.56853">
        <ele>914.04</ele>
        <time>2024-11-05T15:22:57.669Z</time>
      </trkpt>
      <trkpt lat="44.0908" lon="3.56879">
        <ele>912.15</ele>
        <time>2024-11-05T15:23:09.911Z</time>
      </trkpt>
      <trkpt lat="44.09088" lon="3.56892">
        <ele>911.51</ele>
        <time>2024-11-05T15:23:22.155Z</time>
      </trkpt>
      <trkpt lat="44.09099" lon="3.56922">
        <ele>910.24</ele>
        <time>2024-11-05T15:23:34.403Z</time>
      </trkpt>
      <trkpt lat="44.09104" lon="3.56954">
        <ele>908.96</ele>
        <time>2024-11-05T15:23:46.654Z</time>
      </trkpt>
      <trkpt lat="44.09103" lon="3.56968">
        <ele>908.4</ele>
        <time>2024-11-05T15:23:58.907Z</time>
      </trkpt>
      <trkpt lat="44.09082" lon="3.57038">
        <ele>905.02</ele>
        <time>2024-11-05T15:24:11.169Z</time>
      </trkpt>
      <trkpt lat="44.0907" lon="3.57126">
        <ele>901.4</ele>
        <time>2024-11-05T15:24:23.441Z</time>
      </trkpt>
      <trkpt lat="44.09069" lon="3.57157">
        <ele>900.18</ele>
        <time>2024-11-05T15:24:35.717Z</time>
      </trkpt>
      <trkpt lat="44.09082" lon="3.57224">
        <ele>897.43</ele>
        <time>2024-11-05T15:24:48.001Z</time>
      </trkpt>
      <trkpt lat="44.09083" lon="3.57237">
        <ele>896.94</ele>
        <time>2024-11-05T15:25:00.286Z</time>
      </trkpt>
      <trkpt lat="44.09082" lon="3.5725">
        <ele>896.5</ele>
        <time>2024-11-05T15:25:12.573Z</time>
      </trkpt>
      <trkpt lat="44.09078" lon="3.57263">
        <ele>895.87</ele>
        <time>2024-11-05T15:25:24.861Z</time>
      </trkpt>
      <trkpt lat="44.09053" lon="3.57323">
        <ele>893.13</ele>
        <time>2024-11-05T15:25:37.157Z</time>
      </trkpt>
      <trkpt lat="44.09046" lon="3.57333">
        <ele>892.59</ele>
        <time>2024-11-05T15:25:49.455Z</time>
      </trkpt>
      <trkpt lat="44.0903" lon="3.57346">
        <ele>891.64</ele>
        <time>2024-11-05T15:26:01.756Z</time>
      </trkpt>
      <trkpt lat="44.09012" lon="3.5735">
        <ele>890.6</ele>
        <time>2024-11-05T15:26:14.060Z</time>
      </trkpt>
      <trkpt lat="44.09004" lon="3.57349">
        <ele>890.06</ele>
        <time>2024-11-05T15:26:26.365Z</time>
      </trkpt>
      <trkpt lat="44.08993" lon="3.57344">
        <ele>889.28</ele>
        <time>2024-11-05T15:26:38.672Z</time>
      </trkpt>
      <trkpt lat="44.08971" lon="3.57326">
        <ele>887.63</ele>
        <time>2024-11-05T15:26:50.983Z</time>
      </trkpt>
      <trkpt lat="44.08944" lon="3.57304">
        <ele>885.98</ele>
        <time>2024-11-05T15:27:03.299Z</time>
      </trkpt>
      <trkpt lat="44.08934" lon="3.57301">
        <ele>885.49</ele>
        <time>2024-11-05T15:27:15.617Z</time>
      </trkpt>
      <trkpt lat="44.08913" lon="3.57304">
        <ele>884.41</ele>
        <time>2024-11-05T15:27:27.938Z</time>
      </trkpt>
      <trkpt lat="44.08885" lon="3.57308">
        <ele>882.64</ele>
        <time>2024-11-05T15:27:40.264Z</time>
      </trkpt>
      <trkpt lat="44.08875" lon="3.57312">
        <ele>881.99</ele>
        <time>2024-11-05T15:27:52.591Z</time>
      </trkpt>
      <trkpt lat="44.08869" lon="3.57318">
        <ele>881.54</ele>
        <time>2024-11-05T15:28:04.919Z</time>
      </trkpt>
      <trkpt lat="44.08864" lon="3.57326">
        <ele>881.09</ele>
        <time>2024-11-05T15:28:17.249Z</time>
      </trkpt>
      <trkpt lat="44.08855" lon="3.57352">
        <ele>879.85</ele>
        <time>2024-11-05T15:28:29.582Z</time>
      </trkpt>
      <trkpt lat="44.08846" lon="3.57409">
        <ele>877.32</ele>
        <time>2024-11-05T15:28:41.922Z</time>
      </trkpt>
      <trkpt lat="44.0884" lon="3.57431">
        <ele>876.34</ele>
        <time>2024-11-05T15:28:54.264Z</time>
      </trkpt>
      <trkpt lat="44.08823" lon="3.57513">
        <ele>873.01</ele>
        <time>2024-11-05T15:29:06.616Z</time>
      </trkpt>
      <trkpt lat="44.0881" lon="3.57555">
        <ele>871.26</ele>
        <time>2024-11-05T15:29:18.974Z</time>
      </trkpt>
      <trkpt lat="44.08796" lon="3.57586">
        <ele>869.93</ele>
        <time>2024-11-05T15:29:31.336Z</time>
      </trkpt>
      <trkpt lat="44.0879" lon="3.57592">
        <ele>869.55</ele>
        <time>2024-11-05T15:29:43.699Z</time>
      </trkpt>
      <trkpt lat="44.08774" lon="3.57596">
        <ele>868.62</ele>
        <time>2024-11-05T15:29:56.065Z</time>
      </trkpt>
      <trkpt lat="44.08763" lon="3.57593">
        <ele>867.96</ele>
        <time>2024-11-05T15:30:08.432Z</time>
      </trkpt>
      <trkpt lat="44.08728" lon="3.57578">
        <ele>865.87</ele>
        <time>2024-11-05T15:30:20.805Z</time>
      </trkpt>
      <trkpt lat="44.08698" lon="3.57548">
        <ele>863.72</ele>
        <time>2024-11-05T15:30:33.184Z</time>
      </trkpt>
      <trkpt lat="44.08692" lon="3.57544">
        <ele>863.35</ele>
        <time>2024-11-05T15:30:45.564Z</time>
      </trkpt>
      <trkpt lat="44.08679" lon="3.57542">
        <ele>862.61</ele>
        <time>2024-11-05T15:30:57.946Z</time>
      </trkpt>
      <trkpt lat="44.08639" lon="3.57547">
        <ele>860.24</ele>
        <time>2024-11-05T15:31:10.335Z</time>
      </trkpt>
      <trkpt lat="44.08625" lon="3.57563">
        <ele>859.13</ele>
        <time>2024-11-05T15:31:22.727Z</time>
      </trkpt>
      <trkpt lat="44.0861" lon="3.57594">
        <ele>857.48</ele>
        <time>2024-11-05T15:31:35.123Z</time>
      </trkpt>
      <trkpt lat="44.08602" lon="3.57635">
        <ele>855.59</ele>
        <time>2024-11-05T15:31:47.524Z</time>
      </trkpt>
      <trkpt lat="44.08595" lon="3.57658">
        <ele>854.4</ele>
        <time>2024-11-05T15:31:59.928Z</time>
      </trkpt>
      <trkpt lat="44.08569" lon="3.5769">
        <ele>852.05</ele>
        <time>2024-11-05T15:32:12.337Z</time>
      </trkpt>
      <trkpt lat="44.08546" lon="3.57725">
        <ele>849.95</ele>
        <time>2024-11-05T15:32:24.752Z</time>
      </trkpt>
      <trkpt lat="44.08514" lon="3.57761">
        <ele>847.79</ele>
        <time>2024-11-05T15:32:37.173Z</time>
      </trkpt>
      <trkpt lat="44.08505" lon="3.57785">
        <ele>846.73</ele>
        <time>2024-11-05T15:32:49.597Z</time>
      </trkpt>
      <trkpt lat="44.08505" lon="3.57802">
        <ele>845.95</ele>
        <time>2024-11-05T15:33:02.023Z</time>
      </trkpt>
      <trkpt lat="44.0851" lon="3.57829">
        <ele>844.59</ele>
        <time>2024-11-05T15:33:14.453Z</time>
      </trkpt>
      <trkpt lat="44.08527" lon="3.57871">
        <ele>842.31</ele>
        <time>2024-11-05T15:33:26.888Z</time>
      </trkpt>
      <trkpt lat="44.08547" lon="3.5792">
        <ele>840.15</ele>
        <time>2024-11-05T15:33:39.330Z</time>
      </trkpt>
      <trkpt lat="44.08551" lon="3.57937">
        <ele>839.55</ele>
        <time>2024-11-05T15:33:51.774Z</time>
      </trkpt>
      <trkpt lat="44.08555" lon="3.57971">
        <ele>838.54</ele>
        <time>2024-11-05T15:34:04.222Z</time>
      </trkpt>
      <trkpt lat="44.08552" lon="3.57985">
        <ele>838.11</ele>
        <time>2024-11-05T15:34:16.671Z</time>
      </trkpt>
      <trkpt lat="44.08538" lon="3.58007">
        <ele>837.05</ele>
        <time>2024-11-05T15:34:29.124Z</time>
      </trkpt>
      <trkpt lat="44.08417" lon="3.58108">
        <ele>828.22</ele>
        <time>2024-11-05T15:34:41.599Z</time>
      </trkpt>
      <trkpt lat="44.08399" lon="3.58117">
        <ele>827.26</ele>
        <time>2024-11-05T15:34:54.077Z</time>
      </trkpt>
      <trkpt lat="44.08355" lon="3.5813">
        <ele>825.24</ele>
        <time>2024-11-05T15:35:06.563Z</time>
      </trkpt>
      <trkpt lat="44.08348" lon="3.58136">
        <ele>824.76</ele>
        <time>2024-11-05T15:35:19.050Z</time>
      </trkpt>
      <trkpt lat="44.08344" lon="3.58145">
        <ele>824.29</ele>
        <time>2024-11-05T15:35:31.538Z</time>
      </trkpt>
      <trkpt lat="44.08341" lon="3.58171">
        <ele>823.01</ele>
        <time>2024-11-05T15:35:44.029Z</time>
      </trkpt>
      <trkpt lat="44.08347" lon="3.58216">
        <ele>820.78</ele>
        <time>2024-11-05T15:35:56.525Z</time>
      </trkpt>
      <trkpt lat="44.08347" lon="3.5829">
        <ele>817.76</ele>
        <time>2024-11-05T15:36:09.030Z</time>
      </trkpt>
      <trkpt lat="44.08347" lon="3.58338">
        <ele>816.15</ele>
        <time>2024-11-05T15:36:21.540Z</time>
      </trkpt>
      <trkpt lat="44.08345" lon="3.58359">
        <ele>815.64</ele>
        <time>2024-11-05T15:36:34.053Z</time>
      </trkpt>
      <trkpt lat="44.08339" lon="3.5839">
        <ele>814.83</ele>
        <time>2024-11-05T15:36:46.570Z</time>
      </trkpt>
      <trkpt lat="44.0834" lon="3.584">
        <ele>814.46</ele>
        <time>2024-11-05T15:36:59.088Z</time>
      </trkpt>
      <trkpt lat="44.08345" lon="3.58406">
        <ele>814.09</ele>
        <time>2024-11-05T15:37:11.607Z</time>
      </trkpt>
      <trkpt lat="44.08351" lon="3.58409">
        <ele>813.69</ele>
        <time>2024-11-05T15:37:24.127Z</time>
      </trkpt>
      <trkpt lat="44.08365" lon="3.58404">
        <ele>812.63</ele>
        <time>2024-11-05T15:37:36.649Z</time>
      </trkpt>
      <trkpt lat="44.08369" lon="3.58396">
        <ele>812.12</ele>
        <time>2024-11-05T15:37:49.172Z</time>
      </trkpt>
      <trkpt lat="44.08369" lon="3.58387">
        <ele>811.64</ele>
        <time>2024-11-05T15:38:01.696Z</time>
      </trkpt>
      <trkpt lat="44.08364" lon="3.58358">
        <ele>810.05</ele>
        <time>2024-11-05T15:38:14.224Z</time>
      </trkpt>
      <trkpt lat="44.08363" lon="3.58333">
        <ele>808.71</ele>
        <time>2024-11-05T15:38:26.755Z</time>
      </trkpt>
      <trkpt lat="44.08365" lon="3.58282">
        <ele>806.03</ele>
        <time>2024-11-05T15:38:39.292Z</time>
      </trkpt>
      <trkpt lat="44.08367" lon="3.58241">
        <ele>804.11</ele>
        <time>2024-11-05T15:38:51.833Z</time>
      </trkpt>
      <trkpt lat="44.0837" lon="3.58219">
        <ele>803.11</ele>
        <time>2024-11-05T15:39:04.377Z</time>
      </trkpt>
      <trkpt lat="44.0838" lon="3.58188">
        <ele>801.53</ele>
        <time>2024-11-05T15:39:16.925Z</time>
      </trkpt>
      <trkpt lat="44.08386" lon="3.58181">
        <ele>801.03</ele>
        <time>2024-11-05T15:39:29.474Z</time>
      </trkpt>
      <trkpt lat="44.08402" lon="3.58174">
        <ele>800.1</ele>
        <time>2024-11-05T15:39:42.026Z</time>
      </trkpt>
      <trkpt lat="44.08429" lon="3.58175">
        <ele>798.57</ele>
        <time>2024-11-05T15:39:54.582Z</time>
      </trkpt>
      <trkpt lat="44.08444" lon="3.58173">
        <ele>797.73</ele>
        <time>2024-11-05T15:40:07.140Z</time>
      </trkpt>
      <trkpt lat="44.08482" lon="3.58156">
        <ele>795.29</ele>
        <time>2024-11-05T15:40:19.705Z</time>
      </trkpt>
      <trkpt lat="44.08512" lon="3.5813">
        <ele>793.51</ele>
        <time>2024-11-05T15:40:32.276Z</time>
      </trkpt>
      <trkpt lat="44.08525" lon="3.58125">
        <ele>792.9</ele>
        <time>2024-11-05T15:40:44.849Z</time>
      </trkpt>
      <trkpt lat="44.08539" lon="3.58124">
        <ele>792.2</ele>
        <time>2024-11-05T15:40:57.424Z</time>
      </trkpt>
      <trkpt lat="44.0859" lon="3.58134">
        <ele>788.94</ele>
        <time>2024-11-05T15:41:10.007Z</time>
      </trkpt>
      <trkpt lat="44.08606" lon="3.58133">
        <ele>787.94</ele>
        <time>2024-11-05T15:41:22.593Z</time>
      </trkpt>
      <trkpt lat="44.08613" lon="3.58128">
        <ele>787.44</ele>
        <time>2024-11-05T15:41:35.180Z</time>
      </trkpt>
      <trkpt lat="44.08626" lon="3.58108">
        <ele>786.23</ele>
        <time>2024-11-05T15:41:47.770Z</time>
      </trkpt>
      <trkpt lat="44.08645" lon="3.58021">
        <ele>782.09</ele>
        <time>2024-11-05T15:42:00.371Z</time>
      </trkpt>
      <trkpt lat="44.08647" lon="3.57992">
        <ele>780.79</ele>
        <time>2024-11-05T15:42:12.975Z</time>
      </trkpt>
      <trkpt lat="44.08643" lon="3.5793">
        <ele>778.17</ele>
        <time>2024-11-05T15:42:25.586Z</time>
      </trkpt>
      <trkpt lat="44.08641" lon="3.57913">
        <ele>777.51</ele>
        <time>2024-11-05T15:42:38.199Z</time>
      </trkpt>
      <trkpt lat="44.08631" lon="3.57869">
        <ele>775.84</ele>
        <time>2024-11-05T15:42:50.817Z</time>
      </trkpt>
      <trkpt lat="44.08632" lon="3.57846">
        <ele>774.83</ele>
        <time>2024-11-05T15:43:03.438Z</time>
      </trkpt>
      <trkpt lat="44.08639" lon="3.57828">
        <ele>773.87</ele>
        <time>2024-11-05T15:43:16.061Z</time>
      </trkpt>
      <trkpt lat="44.08646" lon="3.57816">
        <ele>773.14</ele>
        <time>2024-11-05T15:43:28.686Z</time>
      </trkpt>
      <trkpt lat="44.08677" lon="3.57774">
        <ele>770.4</ele>
        <time>2024-11-05T15:43:41.318Z</time>
      </trkpt>
      <trkpt lat="44.08695" lon="3.57759">
        <ele>769.1</ele>
        <time>2024-11-05T15:43:53.954Z</time>
      </trkpt>
      <trkpt lat="44.0871" lon="3.57756">
        <ele>768.15</ele>
        <time>2024-11-05T15:44:06.592Z</time>
      </trkpt>
      <trkpt lat="44.08725" lon="3.57763">
        <ele>767.14</ele>
        <time>2024-11-05T15:44:19.232Z</time>
      </trkpt>
      <trkpt lat="44.08779" lon="3.57819">
        <ele>762.89</ele>
        <time>2024-11-05T15:44:31.883Z</time>
      </trkpt>
      <trkpt lat="44.08797" lon="3.57834">
        <ele>761.72</ele>
        <time>2024-11-05T15:44:44.538Z</time>
      </trkpt>
      <trkpt lat="44.08805" lon="3.57837">
        <ele>761.27</ele>
        <time>2024-11-05T15:44:57.194Z</time>
      </trkpt>
      <trkpt lat="44.0883" lon="3.5784">
        <ele>759.92</ele>
        <time>2024-11-05T15:45:09.854Z</time>
      </trkpt>
      <trkpt lat="44.08864" lon="3.5785">
        <ele>758.08</ele>
        <time>2024-11-05T15:45:22.520Z</time>
      </trkpt>
      <trkpt lat="44.08877" lon="3.57849">
        <ele>757.35</ele>
        <time>2024-11-05T15:45:35.188Z</time>
      </trkpt>
      <trkpt lat="44.08891" lon="3.57837">
        <ele>756.42</ele>
        <time>2024-11-05T15:45:47.858Z</time>
      </trkpt>
      <trkpt lat="44.08951" lon="3.57771">
        <ele>751.96</ele>
        <time>2024-11-05T15:46:00.541Z</time>
      </trkpt>
      <trkpt lat="44.08977" lon="3.57733">
        <ele>749.88</ele>
        <time>2024-11-05T15:46:13.230Z</time>
      </trkpt>
      <trkpt lat="44.09004" lon="3.57678">
        <ele>747.49</ele>
        <time>2024-11-05T15:46:25.926Z</time>
      </trkpt>
      <trkpt lat="44.09014" lon="3.57667">
        <ele>746.8</ele>
        <time>2024-11-05T15:46:38.624Z</time>
      </trkpt>
      <trkpt lat="44.0902" lon="3.57664">
        <ele>746.38</ele>
        <time>2024-11-05T15:46:51.323Z</time>
      </trkpt>
      <trkpt lat="44.09038" lon="3.57664">
        <ele>745.29</ele>
        <time>2024-11-05T15:47:04.025Z</time>
      </trkpt>
      <trkpt lat="44.09045" lon="3.57666">
        <ele>744.84</ele>
        <time>2024-11-05T15:47:16.728Z</time>
      </trkpt>
      <trkpt lat="44.09061" lon="3.57679">
        <ele>743.73</ele>
        <time>2024-11-05T15:47:29.434Z</time>
      </trkpt>
      <trkpt lat="44.09091" lon="3.57715">
        <ele>741.44</ele>
        <time>2024-11-05T15:47:42.147Z</time>
      </trkpt>
      <trkpt lat="44.09108" lon="3.57742">
        <ele>740.11</ele>
        <time>2024-11-05T15:47:54.864Z</time>
      </trkpt>
      <trkpt lat="44.09112" lon="3.57752">
        <ele>739.7</ele>
        <time>2024-11-05T15:48:07.582Z</time>
      </trkpt>
      <trkpt lat="44.09122" lon="3.5779">
        <ele>738.25</ele>
        <time>2024-11-05T15:48:20.305Z</time>
      </trkpt>
      <trkpt lat="44.09128" lon="3.57805">
        <ele>737.56</ele>
        <time>2024-11-05T15:48:33.030Z</time>
      </trkpt>
      <trkpt lat="44.09132" lon="3.57811">
        <ele>737.2</ele>
        <time>2024-11-05T15:48:45.756Z</time>
      </trkpt>
      <trkpt lat="44.09137" lon="3.57815">
        <ele>736.83</ele>
        <time>2024-11-05T15:48:58.483Z</time>
      </trkpt>
      <trkpt lat="44.09148" lon="3.57817">
        <ele>736.09</ele>
        <time>2024-11-05T15:49:11.211Z</time>
      </trkpt>
      <trkpt lat="44.09161" lon="3.57807">
        <ele>735.1</ele>
        <time>2024-11-05T15:49:23.942Z</time>
      </trkpt>
      <trkpt lat="44.0919" lon="3.57771">
        <ele>732.72</ele>
        <time>2024-11-05T15:49:36.679Z</time>
      </trkpt>
      <trkpt lat="44.09224" lon="3.5771">
        <ele>729.52</ele>
        <time>2024-11-05T15:49:49.425Z</time>
      </trkpt>
      <trkpt lat="44.09241" lon="3.57665">
        <ele>727.53</ele>
        <time>2024-11-05T15:50:02.177Z</time>
      </trkpt>
      <trkpt lat="44.09248" lon="3.57616">
        <ele>725.57</ele>
        <time>2024-11-05T15:50:14.934Z</time>
      </trkpt>
      <trkpt lat="44.0926" lon="3.57569">
        <ele>723.38</ele>
        <time>2024-11-05T15:50:27.697Z</time>
      </trkpt>
      <trkpt lat="44.09266" lon="3.57556">
        <ele>722.67</ele>
        <time>2024-11-05T15:50:40.462Z</time>
      </trkpt>
      <trkpt lat="44.09289" lon="3.57524">
        <ele>720.76</ele>
        <time>2024-11-05T15:50:53.232Z</time>
      </trkpt>
      <trkpt lat="44.09293" lon="3.57507">
        <ele>720.11</ele>
        <time>2024-11-05T15:51:06.004Z</time>
      </trkpt>
      <trkpt lat="44.09295" lon="3.57462">
        <ele>718.51</ele>
        <time>2024-11-05T15:51:18.781Z</time>
      </trkpt>
      <trkpt lat="44.093" lon="3.57441">
        <ele>717.6</ele>
        <time>2024-11-05T15:51:31.561Z</time>
      </trkpt>
      <trkpt lat="44.09306" lon="3.57428">
        <ele>716.95</ele>
        <time>2024-11-05T15:51:44.343Z</time>
      </trkpt>
      <trkpt lat="44.09317" lon="3.57411">
        <ele>715.93</ele>
        <time>2024-11-05T15:51:57.127Z</time>
      </trkpt>
      <trkpt lat="44.09333" lon="3.57397">
        <ele>714.72</ele>
        <time>2024-11-05T15:52:09.914Z</time>
      </trkpt>
      <trkpt lat="44.09355" lon="3.57385">
        <ele>713.17</ele>
        <time>2024-11-05T15:52:22.705Z</time>
      </trkpt>
      <trkpt lat="44.0936" lon="3.57379">
        <ele>712.74</ele>
        <time>2024-11-05T15:52:35.497Z</time>
      </trkpt>
      <trkpt lat="44.0937" lon="3.57361">
        <ele>711.7</ele>
        <time>2024-11-05T15:52:48.292Z</time>
      </trkpt>
      <trkpt lat="44.09384" lon="3.5732">
        <ele>709.78</ele>
        <time>2024-11-05T15:53:01.092Z</time>
      </trkpt>
      <trkpt lat="44.09383" lon="3.57277">
        <ele>708.11</ele>
        <time>2024-11-05T15:53:13.897Z</time>
      </trkpt>
      <trkpt lat="44.09389" lon="3.5724">
        <ele>706.56</ele>
        <time>2024-11-05T15:53:26.706Z</time>
      </trkpt>
      <trkpt lat="44.09383" lon="3.57191">
        <ele>705.2</ele>
        <time>2024-11-05T15:53:39.521Z</time>
      </trkpt>
      <trkpt lat="44.09386" lon="3.57176">
        <ele>704.7</ele>
        <time>2024-11-05T15:53:52.338Z</time>
      </trkpt>
      <trkpt lat="44.09395" lon="3.57166">
        <ele>704.09</ele>
        <time>2024-11-05T15:54:05.157Z</time>
      </trkpt>
      <trkpt lat="44.09414" lon="3.5715">
        <ele>702.7</ele>
        <time>2024-11-05T15:54:17.979Z</time>
      </trkpt>
      <trkpt lat="44.09425" lon="3.57137">
        <ele>701.96</ele>
        <time>2024-11-05T15:54:30.804Z</time>
      </trkpt>
      <trkpt lat="44.0943" lon="3.57121">
        <ele>701.37</ele>
        <time>2024-11-05T15:54:43.631Z</time>
      </trkpt>
      <trkpt lat="44.09432" lon="3.571">
        <ele>700.62</ele>
        <time>2024-11-05T15:54:56.460Z</time>
      </trkpt>
      <trkpt lat="44.09437" lon="3.5709">
        <ele>700.11</ele>
        <time>2024-11-05T15:55:09.291Z</time>
      </trkpt>
      <trkpt lat="44.09441" lon="3.57086">
        <ele>699.78</ele>
        <time>2024-11-05T15:55:22.122Z</time>
      </trkpt>
      <trkpt lat="44.09447" lon="3.57084">
        <ele>699.39</ele>
        <time>2024-11-05T15:55:34.954Z</time>
      </trkpt>
      <trkpt lat="44.09453" lon="3.57086">
        <ele>698.96</ele>
        <time>2024-11-05T15:55:47.787Z</time>
      </trkpt>
      <trkpt lat="44.09458" lon="3.5709">
        <ele>698.52</ele>
        <time>2024-11-05T15:56:00.621Z</time>
      </trkpt>
      <trkpt lat="44.09462" lon="3.57105">
        <ele>697.62</ele>
        <time>2024-11-05T15:56:13.457Z</time>
      </trkpt>
      <trkpt lat="44.0946" lon="3.57114">
        <ele>697.07</ele>
        <time>2024-11-05T15:56:26.294Z</time>
      </trkpt>
      <trkpt lat="44.09452" lon="3.57129">
        <ele>695.98</ele>
        <time>2024-11-05T15:56:39.133Z</time>
      </trkpt>
      <trkpt lat="44.09439" lon="3.57147">
        <ele>694.57</ele>
        <time>2024-11-05T15:56:51.975Z</time>
      </trkpt>
      <trkpt lat="44.09418" lon="3.57175">
        <ele>692.68</ele>
        <time>2024-11-05T15:57:04.822Z</time>
      </trkpt>
      <trkpt lat="44.09411" lon="3.57198">
        <ele>691.57</ele>
        <time>2024-11-05T15:57:17.672Z</time>
      </trkpt>
      <trkpt lat="44.09412" lon="3.57277">
        <ele>687.97</ele>
        <time>2024-11-05T15:57:30.531Z</time>
      </trkpt>
      <trkpt lat="44.09417" lon="3.57313">
        <ele>686.57</ele>
        <time>2024-11-05T15:57:43.394Z</time>
      </trkpt>
      <trkpt lat="44.09416" lon="3.57324">
        <ele>686.03</ele>
        <time>2024-11-05T15:57:56.258Z</time>
      </trkpt>
      <trkpt lat="44.09404" lon="3.57378">
        <ele>683.54</ele>
        <time>2024-11-05T15:58:09.129Z</time>
      </trkpt>
      <trkpt lat="44.09392" lon="3.57421">
        <ele>681.96</ele>
        <time>2024-11-05T15:58:22.005Z</time>
      </trkpt>
      <trkpt lat="44.09386" lon="3.57431">
        <ele>681.52</ele>
        <time>2024-11-05T15:58:34.883Z</time>
      </trkpt>
      <trkpt lat="44.09362" lon="3.5745">
        <ele>680.29</ele>
        <time>2024-11-05T15:58:47.765Z</time>
      </trkpt>
      <trkpt lat="44.09357" lon="3.57459">
        <ele>679.92</ele>
        <time>2024-11-05T15:59:00.649Z</time>
      </trkpt>
      <trkpt lat="44.09356" lon="3.57478">
        <ele>679.16</ele>
        <time>2024-11-05T15:59:13.535Z</time>
      </trkpt>
      <trkpt lat="44.09363" lon="3.57524">
        <ele>677</ele>
        <time>2024-11-05T15:59:26.426Z</time>
      </trkpt>
      <trkpt lat="44.09369" lon="3.57564">
        <ele>675.39</ele>
        <time>2024-11-05T15:59:39.322Z</time>
      </trkpt>
      <trkpt lat="44.09367" lon="3.57578">
        <ele>674.84</ele>
        <time>2024-11-05T15:59:52.219Z</time>
      </trkpt>
      <trkpt lat="44.09364" lon="3.57588">
        <ele>674.41</ele>
        <time>2024-11-05T16:00:05.118Z</time>
      </trkpt>
      <trkpt lat="44.09358" lon="3.57594">
        <ele>674.02</ele>
        <time>2024-11-05T16:00:18.018Z</time>
      </trkpt>
      <trkpt lat="44.09342" lon="3.57605">
        <ele>672.79</ele>
        <time>2024-11-05T16:00:30.921Z</time>
      </trkpt>
      <trkpt lat="44.09336" lon="3.57614">
        <ele>672.19</ele>
        <time>2024-11-05T16:00:43.825Z</time>
      </trkpt>
      <trkpt lat="44.09332" lon="3.57624">
        <ele>671.64</ele>
        <time>2024-11-05T16:00:56.731Z</time>
      </trkpt>
      <trkpt lat="44.09329" lon="3.5765">
        <ele>670.41</ele>
        <time>2024-11-05T16:01:09.640Z</time>
      </trkpt>
      <trkpt lat="44.09329" lon="3.57713">
        <ele>667.71</ele>
        <time>2024-11-05T16:01:22.556Z</time>
      </trkpt>
      <trkpt lat="44.09327" lon="3.57724">
        <ele>667.26</ele>
        <time>2024-11-05T16:01:35.473Z</time>
      </trkpt>
      <trkpt lat="44.09304" lon="3.57782">
        <ele>664.54</ele>
        <time>2024-11-05T16:01:48.398Z</time>
      </trkpt>
      <trkpt lat="44.09296" lon="3.57822">
        <ele>662.78</ele>
        <time>2024-11-05T16:02:01.328Z</time>
      </trkpt>
      <trkpt lat="44.09247" lon="3.57925">
        <ele>657.68</ele>
        <time>2024-11-05T16:02:14.272Z</time>
      </trkpt>
      <trkpt lat="44.09214" lon="3.57986">
        <ele>654.6</ele>
        <time>2024-11-05T16:02:27.225Z</time>
      </trkpt>
      <trkpt lat="44.09193" lon="3.58019">
        <ele>653.46</ele>
        <time>2024-11-05T16:02:40.183Z</time>
      </trkpt>
      <trkpt lat="44.09166" lon="3.5806">
        <ele>650.83</ele>
        <time>2024-11-05T16:02:53.147Z</time>
      </trkpt>
      <trkpt lat="44.09148" lon="3.58087">
        <ele>649.49</ele>
        <time>2024-11-05T16:03:06.115Z</time>
      </trkpt>
      <trkpt lat="44.0914" lon="3.58099">
        <ele>649.03</ele>
        <time>2024-11-05T16:03:19.085Z</time>
      </trkpt>
      <trkpt lat="44.09127" lon="3.5811">
        <ele>648.43</ele>
        <time>2024-11-05T16:03:32.058Z</time>
      </trkpt>
      <trkpt lat="44.09121" lon="3.58111">
        <ele>648.17</ele>
        <time>2024-11-05T16:03:45.032Z</time>
      </trkpt>
      <trkpt lat="44.09111" lon="3.58108">
        <ele>647.64</ele>
        <time>2024-11-05T16:03:58.007Z</time>
      </trkpt>
      <trkpt lat="44.09102" lon="3.58096">
        <ele>646.9</ele>
        <time>2024-11-05T16:04:10.984Z</time>
      </trkpt>
      <trkpt lat="44.09079" lon="3.58041">
        <ele>644</ele>
        <time>2024-11-05T16:04:23.969Z</time>
      </trkpt>
      <trkpt lat="44.09065" lon="3.58016">
        <ele>642.67</ele>
        <time>2024-11-05T16:04:36.957Z</time>
      </trkpt>
      <trkpt lat="44.09054" lon="3.58007">
        <ele>641.98</ele>
        <time>2024-11-05T16:04:49.947Z</time>
      </trkpt>
      <trkpt lat="44.09041" lon="3.58008">
        <ele>641.24</ele>
        <time>2024-11-05T16:05:02.939Z</time>
      </trkpt>
      <trkpt lat="44.0903" lon="3.58019">
        <ele>640.45</ele>
        <time>2024-11-05T16:05:15.933Z</time>
      </trkpt>
      <trkpt lat="44.08982" lon="3.58104">
        <ele>635.38</ele>
        <time>2024-11-05T16:05:28.940Z</time>
      </trkpt>
      <trkpt lat="44.0896" lon="3.5816">
        <ele>632.68</ele>
        <time>2024-11-05T16:05:41.954Z</time>
      </trkpt>
      <trkpt lat="44.08943" lon="3.58201">
        <ele>630.94</ele>
        <time>2024-11-05T16:05:54.974Z</time>
      </trkpt>
      <trkpt lat="44.08934" lon="3.58216">
        <ele>630.24</ele>
        <time>2024-11-05T16:06:07.996Z</time>
      </trkpt>
      <trkpt lat="44.08928" lon="3.5822">
        <ele>629.86</ele>
        <time>2024-11-05T16:06:21.019Z</time>
      </trkpt>
      <trkpt lat="44.08921" lon="3.5822">
        <ele>629.44</ele>
        <time>2024-11-05T16:06:34.043Z</time>
      </trkpt>
      <trkpt lat="44.08908" lon="3.58212">
        <ele>628.38</ele>
        <time>2024-11-05T16:06:47.069Z</time>
      </trkpt>
      <trkpt lat="44.08884" lon="3.58193">
        <ele>626.2</ele>
        <time>2024-11-05T16:07:00.100Z</time>
      </trkpt>
      <trkpt lat="44.08878" lon="3.58192">
        <ele>625.71</ele>
        <time>2024-11-05T16:07:13.132Z</time>
      </trkpt>
      <trkpt lat="44.08867" lon="3.58195">
        <ele>624.93</ele>
        <time>2024-11-05T16:07:26.166Z</time>
      </trkpt>
      <trkpt lat="44.0886" lon="3.58203">
        <ele>624.33</ele>
        <time>2024-11-05T16:07:39.201Z</time>
      </trkpt>
      <trkpt lat="44.08851" lon="3.58225">
        <ele>623.14</ele>
        <time>2024-11-05T16:07:52.239Z</time>
      </trkpt>
      <trkpt lat="44.08848" lon="3.58253">
        <ele>621.81</ele>
        <time>2024-11-05T16:08:05.280Z</time>
      </trkpt>
      <trkpt lat="44.08848" lon="3.58324">
        <ele>618.38</ele>
        <time>2024-11-05T16:08:18.330Z</time>
      </trkpt>
      <trkpt lat="44.08847" lon="3.58419">
        <ele>614.53</ele>
        <time>2024-11-05T16:08:31.390Z</time>
      </trkpt>
      <trkpt lat="44.08848" lon="3.58439">
        <ele>613.69</ele>
        <time>2024-11-05T16:08:44.453Z</time>
      </trkpt>
      <trkpt lat="44.08851" lon="3.58455">
        <ele>613</ele>
        <time>2024-11-05T16:08:57.518Z</time>
      </trkpt>
      <trkpt lat="44.08856" lon="3.58475">
        <ele>612.12</ele>
        <time>2024-11-05T16:09:10.585Z</time>
      </trkpt>
      <trkpt lat="44.08869" lon="3.58514">
        <ele>610.4</ele>
        <time>2024-11-05T16:09:23.657Z</time>
      </trkpt>
      <trkpt lat="44.08871" lon="3.58529">
        <ele>609.82</ele>
        <time>2024-11-05T16:09:36.731Z</time>
      </trkpt>
      <trkpt lat="44.08871" lon="3.58546">
        <ele>609.14</ele>
        <time>2024-11-05T16:09:49.807Z</time>
      </trkpt>
      <trkpt lat="44.08869" lon="3.58562">
        <ele>608.52</ele>
        <time>2024-11-05T16:10:02.885Z</time>
      </trkpt>
      <trkpt lat="44.0886" lon="3.58586">
        <ele>607.44</ele>
        <time>2024-11-05T16:10:15.966Z</time>
      </trkpt>
      <trkpt lat="44.08853" lon="3.58596">
        <ele>606.9</ele>
        <time>2024-11-05T16:10:29.048Z</time>
      </trkpt>
      <trkpt lat="44.08838" lon="3.58611">
        <ele>605.89</ele>
        <time>2024-11-05T16:10:42.133Z</time>
      </trkpt>
      <trkpt lat="44.0883" lon="3.58615">
        <ele>605.42</ele>
        <time>2024-11-05T16:10:55.220Z</time>
      </trkpt>
      <trkpt lat="44.0882" lon="3.58617">
        <ele>604.86</ele>
        <time>2024-11-05T16:11:08.308Z</time>
      </trkpt>
      <trkpt lat="44.08799" lon="3.58616">
        <ele>603.54</ele>
        <time>2024-11-05T16:11:21.400Z</time>
      </trkpt>
      <trkpt lat="44.08761" lon="3.58603">
        <ele>600.88</ele>
        <time>2024-11-05T16:11:34.498Z</time>
      </trkpt>
      <trkpt lat="44.08749" lon="3.58601">
        <ele>600.09</ele>
        <time>2024-11-05T16:11:47.598Z</time>
      </trkpt>
      <trkpt lat="44.08729" lon="3.58602">
        <ele>598.76</ele>
        <time>2024-11-05T16:12:00.701Z</time>
      </trkpt>
      <trkpt lat="44.08717" lon="3.5861">
        <ele>597.96</ele>
        <time>2024-11-05T16:12:13.806Z</time>
      </trkpt>
      <trkpt lat="44.08701" lon="3.58639">
        <ele>596.35</ele>
        <time>2024-11-05T16:12:26.915Z</time>
      </trkpt>
      <trkpt lat="44.08698" lon="3.58652">
        <ele>595.74</ele>
        <time>2024-11-05T16:12:40.026Z</time>
      </trkpt>
      <trkpt lat="44.08697" lon="3.5871">
        <ele>593.21</ele>
        <time>2024-11-05T16:12:53.144Z</time>
      </trkpt>
      <trkpt lat="44.08698" lon="3.58735">
        <ele>592.15</ele>
        <time>2024-11-05T16:13:06.265Z</time>
      </trkpt>
      <trkpt lat="44.08705" lon="3.58788">
        <ele>590.04</ele>
        <time>2024-11-05T16:13:19.392Z</time>
      </trkpt>
      <trkpt lat="44.08705" lon="3.58854">
        <ele>587.57</ele>
        <time>2024-11-05T16:13:32.526Z</time>
      </trkpt>
      <trkpt lat="44.08701" lon="3.58895">
        <ele>586.17</ele>
        <time>2024-11-05T16:13:45.665Z</time>
      </trkpt>
      <trkpt lat="44.08696" lon="3.5891">
        <ele>585.65</ele>
        <time>2024-11-05T16:13:58.806Z</time>
      </trkpt>
      <trkpt lat="44.08685" lon="3.58931">
        <ele>584.81</ele>
        <time>2024-11-05T16:14:11.950Z</time>
      </trkpt>
      <trkpt lat="44.08682" lon="3.58945">
        <ele>584.24</ele>
        <time>2024-11-05T16:14:25.096Z</time>
      </trkpt>
      <trkpt lat="44.08685" lon="3.58956">
        <ele>583.72</ele>
        <time>2024-11-05T16:14:38.243Z</time>
      </trkpt>
      <trkpt lat="44.08695" lon="3.58964">
        <ele>583.01</ele>
        <time>2024-11-05T16:14:51.392Z</time>
      </trkpt>
      <trkpt lat="44.08705" lon="3.58963">
        <ele>582.27</ele>
        <time>2024-11-05T16:15:04.543Z</time>
      </trkpt>
      <trkpt lat="44.08713" lon="3.58954">
        <ele>581.55</ele>
        <time>2024-11-05T16:15:17.695Z</time>
      </trkpt>
      <trkpt lat="44.0872" lon="3.5891">
        <ele>579.36</ele>
        <time>2024-11-05T16:15:30.852Z</time>
      </trkpt>
      <trkpt lat="44.08725" lon="3.58852">
        <ele>576.89</ele>
        <time>2024-11-05T16:15:44.016Z</time>
      </trkpt>
      <trkpt lat="44.08735" lon="3.58786">
        <ele>574.14</ele>
        <time>2024-11-05T16:15:57.188Z</time>
      </trkpt>
      <trkpt lat="44.08736" lon="3.58736">
        <ele>572.48</ele>
        <time>2024-11-05T16:16:10.366Z</time>
      </trkpt>
      <trkpt lat="44.08743" lon="3.58718">
        <ele>571.74</ele>
        <time>2024-11-05T16:16:23.546Z</time>
      </trkpt>
      <trkpt lat="44.08755" lon="3.58709">
        <ele>570.97</ele>
        <time>2024-11-05T16:16:36.728Z</time>
      </trkpt>
      <trkpt lat="44.08762" lon="3.58706">
        <ele>570.51</ele>
        <time>2024-11-05T16:16:49.911Z</time>
      </trkpt>
      <trkpt lat="44.08772" lon="3.58705">
        <ele>569.94</ele>
        <time>2024-11-05T16:17:03.096Z</time>
      </trkpt>
      <trkpt lat="44.08782" lon="3.58707">
        <ele>569.21</ele>
        <time>2024-11-05T16:17:16.283Z</time>
      </trkpt>
      <trkpt lat="44.08813" lon="3.58719">
        <ele>567.19</ele>
        <time>2024-11-05T16:17:29.475Z</time>
      </trkpt>
      <trkpt lat="44.08832" lon="3.58731">
        <ele>565.94</ele>
        <time>2024-11-05T16:17:42.670Z</time>
      </trkpt>
      <trkpt lat="44.08862" lon="3.58757">
        <ele>563.97</ele>
        <time>2024-11-05T16:17:55.871Z</time>
      </trkpt>
      <trkpt lat="44.08869" lon="3.5876">
        <ele>563.54</ele>
        <time>2024-11-05T16:18:09.073Z</time>
      </trkpt>
      <trkpt lat="44.0888" lon="3.58761">
        <ele>562.84</ele>
        <time>2024-11-05T16:18:22.277Z</time>
      </trkpt>
      <trkpt lat="44.08891" lon="3.58755">
        <ele>562.04</ele>
        <time>2024-11-05T16:18:35.483Z</time>
      </trkpt>
      <trkpt lat="44.089" lon="3.58741">
        <ele>561.1</ele>
        <time>2024-11-05T16:18:48.691Z</time>
      </trkpt>
      <trkpt lat="44.08918" lon="3.58704">
        <ele>559.09</ele>
        <time>2024-11-05T16:19:01.904Z</time>
      </trkpt>
      <trkpt lat="44.0897" lon="3.58596">
        <ele>554.01</ele>
        <time>2024-11-05T16:19:15.132Z</time>
      </trkpt>
      <trkpt lat="44.08975" lon="3.58583">
        <ele>553.42</ele>
        <time>2024-11-05T16:19:28.362Z</time>
      </trkpt>
      <trkpt lat="44.08979" lon="3.58563">
        <ele>552.6</ele>
        <time>2024-11-05T16:19:41.594Z</time>
      </trkpt>
      <trkpt lat="44.0898" lon="3.58547">
        <ele>551.99</ele>
        <time>2024-11-05T16:19:54.828Z</time>
      </trkpt>
      <trkpt lat="44.08974" lon="3.58456">
        <ele>548.58</ele>
        <time>2024-11-05T16:20:08.072Z</time>
      </trkpt>
      <trkpt lat="44.08978" lon="3.58442">
        <ele>548.05</ele>
        <time>2024-11-05T16:20:21.318Z</time>
      </trkpt>
      <trkpt lat="44.08985" lon="3.58432">
        <ele>547.54</ele>
        <time>2024-11-05T16:20:34.566Z</time>
      </trkpt>
      <trkpt lat="44.08991" lon="3.58428">
        <ele>547.19</ele>
        <time>2024-11-05T16:20:47.815Z</time>
      </trkpt>
      <trkpt lat="44.09006" lon="3.58429">
        <ele>546.33</ele>
        <time>2024-11-05T16:21:01.066Z</time>
      </trkpt>
      <trkpt lat="44.09039" lon="3.58443">
        <ele>543.89</ele>
        <time>2024-11-05T16:21:14.323Z</time>
      </trkpt>
      <trkpt lat="44.09049" lon="3.58445">
        <ele>543.15</ele>
        <time>2024-11-05T16:21:27.581Z</time>
      </trkpt>
      <trkpt lat="44.09057" lon="3.58444">
        <ele>542.54</ele>
        <time>2024-11-05T16:21:40.841Z</time>
      </trkpt>
      <trkpt lat="44.09064" lon="3.58438">
        <ele>541.89</ele>
        <time>2024-11-05T16:21:54.102Z</time>
      </trkpt>
      <trkpt lat="44.09071" lon="3.58421">
        <ele>540.79</ele>
        <time>2024-11-05T16:22:07.365Z</time>
      </trkpt>
      <trkpt lat="44.09073" lon="3.58396">
        <ele>539.52</ele>
        <time>2024-11-05T16:22:20.631Z</time>
      </trkpt>
      <trkpt lat="44.09076" lon="3.58387">
        <ele>539.06</ele>
        <time>2024-11-05T16:22:33.898Z</time>
      </trkpt>
      <trkpt lat="44.09086" lon="3.58374">
        <ele>538.11</ele>
        <time>2024-11-05T16:22:47.167Z</time>
      </trkpt>
      <trkpt lat="44.09091" lon="3.58371">
        <ele>537.69</ele>
        <time>2024-11-05T16:23:00.437Z</time>
      </trkpt>
      <trkpt lat="44.09098" lon="3.5837">
        <ele>537.12</ele>
        <time>2024-11-05T16:23:13.708Z</time>
      </trkpt>
      <trkpt lat="44.09126" lon="3.58373">
        <ele>534.84</ele>
        <time>2024-11-05T16:23:26.984Z</time>
      </trkpt>
      <trkpt lat="44.09144" lon="3.58367">
        <ele>533.5</ele>
        <time>2024-11-05T16:23:40.263Z</time>
      </trkpt>
      <trkpt lat="44.0916" lon="3.58355">
        <ele>532.46</ele>
        <time>2024-11-05T16:23:53.545Z</time>
      </trkpt>
      <trkpt lat="44.0919" lon="3.58327">
        <ele>530.7</ele>
        <time>2024-11-05T16:24:06.833Z</time>
      </trkpt>
      <trkpt lat="44.09239" lon="3.58295">
        <ele>527.79</ele>
        <time>2024-11-05T16:24:20.129Z</time>
      </trkpt>
      <trkpt lat="44.09257" lon="3.58289">
        <ele>526.63</ele>
        <time>2024-11-05T16:24:33.428Z</time>
      </trkpt>
      <trkpt lat="44.09275" lon="3.58287">
        <ele>525.49</ele>
        <time>2024-11-05T16:24:46.730Z</time>
      </trkpt>
      <trkpt lat="44.09291" lon="3.58283">
        <ele>524.59</ele>
        <time>2024-11-05T16:25:00.035Z</time>
      </trkpt>
      <trkpt lat="44.0934" lon="3.58255">
        <ele>522.01</ele>
        <time>2024-11-05T16:25:13.348Z</time>
      </trkpt>
      <trkpt lat="44.09346" lon="3.58254">
        <ele>521.66</ele>
        <time>2024-11-05T16:25:26.662Z</time>
      </trkpt>
      <trkpt lat="44.09356" lon="3.58256">
        <ele>521.06</ele>
        <time>2024-11-05T16:25:39.978Z</time>
      </trkpt>
      <trkpt lat="44.09361" lon="3.58266">
        <ele>520.54</ele>
        <time>2024-11-05T16:25:53.295Z</time>
      </trkpt>
      <trkpt lat="44.09359" lon="3.58278">
        <ele>519.98</ele>
        <time>2024-11-05T16:26:06.614Z</time>
      </trkpt>
      <trkpt lat="44.09355" lon="3.58283">
        <ele>519.64</ele>
        <time>2024-11-05T16:26:19.933Z</time>
      </trkpt>
      <trkpt lat="44.09349" lon="3.58286">
        <ele>519.23</ele>
        <time>2024-11-05T16:26:33.253Z</time>
      </trkpt>
      <trkpt lat="44.09328" lon="3.58286">
        <ele>517.99</ele>
        <time>2024-11-05T16:26:46.577Z</time>
      </trkpt>
      <trkpt lat="44.09318" lon="3.58288">
        <ele>517.4</ele>
        <time>2024-11-05T16:26:59.902Z</time>
      </trkpt>
      <trkpt lat="44.09295" lon="3.58301">
        <ele>515.92</ele>
        <time>2024-11-05T16:27:13.231Z</time>
      </trkpt>
      <trkpt lat="44.09268" lon="3.5831">
        <ele>514.31</ele>
        <time>2024-11-05T16:27:26.565Z</time>
      </trkpt>
      <trkpt lat="44.09257" lon="3.58317">
        <ele>513.61</ele>
        <time>2024-11-05T16:27:39.901Z</time>
      </trkpt>
      <trkpt lat="44.09216" lon="3.58365">
        <ele>510.31</ele>
        <time>2024-11-05T16:27:53.245Z</time>
      </trkpt>
      <trkpt lat="44.09205" lon="3.58382">
        <ele>509.23</ele>
        <time>2024-11-05T16:28:06.592Z</time>
      </trkpt>
      <trkpt lat="44.09161" lon="3.58463">
        <ele>504.52</ele>
        <time>2024-11-05T16:28:19.951Z</time>
      </trkpt>
      <trkpt lat="44.0912" lon="3.58571">
        <ele>499.08</ele>
        <time>2024-11-05T16:28:33.324Z</time>
      </trkpt>
      <trkpt lat="44.09077" lon="3.58683">
        <ele>493.74</ele>
        <time>2024-11-05T16:28:46.711Z</time>
      </trkpt>
      <trkpt lat="44.09054" lon="3.58734">
        <ele>491.13</ele>
        <time>2024-11-05T16:29:00.105Z</time>
      </trkpt>
      <trkpt lat="44.09044" lon="3.58775">
        <ele>489.35</ele>
        <time>2024-11-05T16:29:13.504Z</time>
      </trkpt>
      <trkpt lat="44.09015" lon="3.58839">
        <ele>486.14</ele>
        <time>2024-11-05T16:29:26.912Z</time>
      </trkpt>
      <trkpt lat="44.09008" lon="3.58858">
        <ele>485.29</ele>
        <time>2024-11-05T16:29:40.322Z</time>
      </trkpt>
      <trkpt lat="44.08975" lon="3.58992">
        <ele>479.59</ele>
        <time>2024-11-05T16:29:53.749Z</time>
      </trkpt>
      <trkpt lat="44.08952" lon="3.59092">
        <ele>474.89</ele>
        <time>2024-11-05T16:30:07.188Z</time>
      </trkpt>
      <trkpt lat="44.08942" lon="3.59124">
        <ele>474.38</ele>
        <time>2024-11-05T16:30:20.631Z</time>
      </trkpt>
      <trkpt lat="44.08925" lon="3.5918">
        <ele>471.51</ele>
        <time>2024-11-05T16:30:34.081Z</time>
      </trkpt>
      <trkpt lat="44.08911" lon="3.59249">
        <ele>468.08</ele>
        <time>2024-11-05T16:30:47.539Z</time>
      </trkpt>
      <trkpt lat="44.08899" lon="3.59299">
        <ele>466</ele>
        <time>2024-11-05T16:31:01.003Z</time>
      </trkpt>
      <trkpt lat="44.08886" lon="3.59338">
        <ele>464.3</ele>
        <time>2024-11-05T16:31:14.472Z</time>
      </trkpt>
      <trkpt lat="44.08844" lon="3.59435">
        <ele>459.72</ele>
        <time>2024-11-05T16:31:27.954Z</time>
      </trkpt>
      <trkpt lat="44.08839" lon="3.59454">
        <ele>458.93</ele>
        <time>2024-11-05T16:31:41.439Z</time>
      </trkpt>
      <trkpt lat="44.08831" lon="3.59511">
        <ele>456.71</ele>
        <time>2024-11-05T16:31:54.930Z</time>
      </trkpt>
      <trkpt lat="44.08825" lon="3.59614">
        <ele>452.87</ele>
        <time>2024-11-05T16:32:08.433Z</time>
      </trkpt>
      <trkpt lat="44.08821" lon="3.59688">
        <ele>450.42</ele>
        <time>2024-11-05T16:32:21.945Z</time>
      </trkpt>
      <trkpt lat="44.08818" lon="3.59731">
        <ele>449.41</ele>
        <time>2024-11-05T16:32:35.462Z</time>
      </trkpt>
      <trkpt lat="44.08817" lon="3.59754">
        <ele>449.05</ele>
        <time>2024-11-05T16:32:48.981Z</time>
      </trkpt>
      <trkpt lat="44.0881" lon="3.59811">
        <ele>448.41</ele>
        <time>2024-11-05T16:33:02.507Z</time>
      </trkpt>
      <trkpt lat="44.08805" lon="3.59827">
        <ele>448.17</ele>
        <time>2024-11-05T16:33:16.035Z</time>
      </trkpt>
      <trkpt lat="44.08731" lon="3.60008">
        <ele>444.57</ele>
        <time>2024-11-05T16:33:29.587Z</time>
      </trkpt>
      <trkpt lat="44.08702" lon="3.60082">
        <ele>443.38</ele>
        <time>2024-11-05T16:33:43.149Z</time>
      </trkpt>
      <trkpt lat="44.08683" lon="3.6012">
        <ele>441.89</ele>
        <time>2024-11-05T16:33:56.716Z</time>
      </trkpt>
      <trkpt lat="44.08644" lon="3.60195">
        <ele>438.08</ele>
        <time>2024-11-05T16:34:10.294Z</time>
      </trkpt>
      <trkpt lat="44.08634" lon="3.6023">
        <ele>436.62</ele>
        <time>2024-11-05T16:34:23.876Z</time>
      </trkpt>
      <trkpt lat="44.08633" lon="3.60264">
        <ele>435.56</ele>
        <time>2024-11-05T16:34:37.462Z</time>
      </trkpt>
      <trkpt lat="44.08635" lon="3.60278">
        <ele>435.15</ele>
        <time>2024-11-05T16:34:51.050Z</time>
      </trkpt>
      <trkpt lat="44.08643" lon="3.60304">
        <ele>434.48</ele>
        <time>2024-11-05T16:35:04.641Z</time>
      </trkpt>
      <trkpt lat="44.08656" lon="3.60332">
        <ele>433.92</ele>
        <time>2024-11-05T16:35:18.236Z</time>
      </trkpt>
      <trkpt lat="44.08679" lon="3.60372">
        <ele>433.55</ele>
        <time>2024-11-05T16:35:31.837Z</time>
      </trkpt>
      <trkpt lat="44.08689" lon="3.60398">
        <ele>433.38</ele>
        <time>2024-11-05T16:35:45.441Z</time>
      </trkpt>
      <trkpt lat="44.08691" lon="3.60412">
        <ele>433.34</ele>
        <time>2024-11-05T16:35:59.047Z</time>
      </trkpt>
      <trkpt lat="44.0869" lon="3.6044">
        <ele>433.29</ele>
        <time>2024-11-05T16:36:12.656Z</time>
      </trkpt>
      <trkpt lat="44.08683" lon="3.60475">
        <ele>433.14</ele>
        <time>2024-11-05T16:36:26.269Z</time>
      </trkpt>
      <trkpt lat="44.08662" lon="3.60551">
        <ele>432.12</ele>
        <time>2024-11-05T16:36:39.892Z</time>
      </trkpt>
      <trkpt lat="44.0865" lon="3.60593">
        <ele>431.79</ele>
        <time>2024-11-05T16:36:53.520Z</time>
      </trkpt>
      <trkpt lat="44.08643" lon="3.60641">
        <ele>431.45</ele>
        <time>2024-11-05T16:37:07.153Z</time>
      </trkpt>
      <trkpt lat="44.08636" lon="3.60691">
        <ele>430.78</ele>
        <time>2024-11-05T16:37:20.792Z</time>
      </trkpt>
      <trkpt lat="44.08629" lon="3.60726">
        <ele>430.23</ele>
        <time>2024-11-05T16:37:34.436Z</time>
      </trkpt>
      <trkpt lat="44.08619" lon="3.60774">
        <ele>428.77</ele>
        <time>2024-11-05T16:37:48.085Z</time>
      </trkpt>
      <trkpt lat="44.08606" lon="3.60807">
        <ele>427.41</ele>
        <time>2024-11-05T16:38:01.739Z</time>
      </trkpt>
      <trkpt lat="44.08578" lon="3.60885">
        <ele>423.73</ele>
        <time>2024-11-05T16:38:15.403Z</time>
      </trkpt>
      <trkpt lat="44.08569" lon="3.60923">
        <ele>422.31</ele>
        <time>2024-11-05T16:38:29.071Z</time>
      </trkpt>
      <trkpt lat="44.08564" lon="3.60964">
        <ele>421.35</ele>
        <time>2024-11-05T16:38:42.744Z</time>
      </trkpt>
      <trkpt lat="44.08558" lon="3.61045">
        <ele>419.86</ele>
        <time>2024-11-05T16:38:56.426Z</time>
      </trkpt>
      <trkpt lat="44.0856" lon="3.61088">
        <ele>418.87</ele>
        <time>2024-11-05T16:39:10.113Z</time>
      </trkpt>
      <trkpt lat="44.08568" lon="3.61115">
        <ele>418.27</ele>
        <time>2024-11-05T16:39:23.804Z</time>
      </trkpt>
      <trkpt lat="44.08606" lon="3.61183">
        <ele>417.28</ele>
        <time>2024-11-05T16:39:37.505Z</time>
      </trkpt>
      <trkpt lat="44.08644" lon="3.61243">
        <ele>415.96</ele>
        <time>2024-11-05T16:39:51.215Z</time>
      </trkpt>
      <trkpt lat="44.08653" lon="3.61265">
        <ele>415.62</ele>
        <time>2024-11-05T16:40:04.928Z</time>
      </trkpt>
      <trkpt lat="44.08659" lon="3.61285">
        <ele>415.29</ele>
        <time>2024-11-05T16:40:18.643Z</time>
      </trkpt>
      <trkpt lat="44.08662" lon="3.61306">
        <ele>414.89</ele>
        <time>2024-11-05T16:40:32.361Z</time>
      </trkpt>
      <trkpt lat="44.08659" lon="3.61349">
        <ele>413.8</ele>
        <time>2024-11-05T16:40:46.084Z</time>
      </trkpt>
      <trkpt lat="44.08652" lon="3.61381">
        <ele>412.63</ele>
        <time>2024-11-05T16:40:59.811Z</time>
      </trkpt>
      <trkpt lat="44.08649" lon="3.61389">
        <ele>412.32</ele>
        <time>2024-11-05T16:41:13.539Z</time>
      </trkpt>
      <trkpt lat="44.08624" lon="3.61446">
        <ele>411.05</ele>
        <time>2024-11-05T16:41:27.274Z</time>
      </trkpt>
      <trkpt lat="44.08614" lon="3.61477">
        <ele>410.79</ele>
        <time>2024-11-05T16:41:41.013Z</time>
      </trkpt>
      <trkpt lat="44.08595" lon="3.61525">
        <ele>410.72</ele>
        <time>2024-11-05T16:41:54.759Z</time>
      </trkpt>
      <trkpt lat="44.08566" lon="3.6156">
        <ele>410.67</ele>
        <time>2024-11-05T16:42:08.511Z</time>
      </trkpt>
      <trkpt lat="44.08548" lon="3.6158">
        <ele>410.31</ele>
        <time>2024-11-05T16:42:22.266Z</time>
      </trkpt>
      <trkpt lat="44.08503" lon="3.61639">
        <ele>408.96</ele>
        <time>2024-11-05T16:42:36.031Z</time>
      </trkpt>
      <trkpt lat="44.0848" lon="3.61673">
        <ele>408.27</ele>
        <time>2024-11-05T16:42:49.802Z</time>
      </trkpt>
      <trkpt lat="44.08455" lon="3.61722">
        <ele>407.09</ele>
        <time>2024-11-05T16:43:03.580Z</time>
      </trkpt>
      <trkpt lat="44.08413" lon="3.61804">
        <ele>404.15</ele>
        <time>2024-11-05T16:43:17.369Z</time>
      </trkpt>
      <trkpt lat="44.08381" lon="3.61865">
        <ele>402.41</ele>
        <time>2024-11-05T16:43:31.167Z</time>
      </trkpt>
      <trkpt lat="44.08337" lon="3.61959">
        <ele>401.09</ele>
        <time>2024-11-05T16:43:44.978Z</time>
      </trkpt>
      <trkpt lat="44.08318" lon="3.61988">
        <ele>400.45</ele>
        <time>2024-11-05T16:43:58.793Z</time>
      </trkpt>
      <trkpt lat="44.0828" lon="3.62036">
        <ele>398.99</ele>
        <time>2024-11-05T16:44:12.617Z</time>
      </trkpt>
      <trkpt lat="44.08273" lon="3.62048">
        <ele>398.67</ele>
        <time>2024-11-05T16:44:26.442Z</time>
      </trkpt>
      <trkpt lat="44.08264" lon="3.62071">
        <ele>398.18</ele>
        <time>2024-11-05T16:44:40.270Z</time>
      </trkpt>
      <trkpt lat="44.08255" lon="3.6211">
        <ele>397.45</ele>
        <time>2024-11-05T16:44:54.103Z</time>
      </trkpt>
      <trkpt lat="44.08237" lon="3.62185">
        <ele>396.37</ele>
        <time>2024-11-05T16:45:07.945Z</time>
      </trkpt>
      <trkpt lat="44.08228" lon="3.62202">
        <ele>396.18</ele>
        <time>2024-11-05T16:45:21.790Z</time>
      </trkpt>
      <trkpt lat="44.08199" lon="3.62239">
        <ele>395.53</ele>
        <time>2024-11-05T16:45:35.641Z</time>
      </trkpt>
      <trkpt lat="44.08195" lon="3.62249">
        <ele>395.35</ele>
        <time>2024-11-05T16:45:49.493Z</time>
      </trkpt>
      <trkpt lat="44.08191" lon="3.6229">
        <ele>394.08</ele>
        <time>2024-11-05T16:46:03.350Z</time>
      </trkpt>
      <trkpt lat="44.08186" lon="3.62346">
        <ele>392.7</ele>
        <time>2024-11-05T16:46:17.214Z</time>
      </trkpt>
      <trkpt lat="44.08183" lon="3.6237">
        <ele>392.27</ele>
        <time>2024-11-05T16:46:31.080Z</time>
      </trkpt>
      <trkpt lat="44.08175" lon="3.62459">
        <ele>391.25</ele>
        <time>2024-11-05T16:46:44.957Z</time>
      </trkpt>
      <trkpt lat="44.08164" lon="3.62544">
        <ele>390.22</ele>
        <time>2024-11-05T16:46:58.844Z</time>
      </trkpt>
      <trkpt lat="44.08152" lon="3.62616">
        <ele>389.24</ele>
        <time>2024-11-05T16:47:12.739Z</time>
      </trkpt>
      <trkpt lat="44.08148" lon="3.6264">
        <ele>389.02</ele>
        <time>2024-11-05T16:47:26.637Z</time>
      </trkpt>
      <trkpt lat="44.08144" lon="3.62677">
        <ele>388.79</ele>
        <time>2024-11-05T16:47:40.539Z</time>
      </trkpt>
      <trkpt lat="44.0814" lon="3.62715">
        <ele>388.79</ele>
        <time>2024-11-05T16:47:54.446Z</time>
      </trkpt>
      <trkpt lat="44.08127" lon="3.62752">
        <ele>388.75</ele>
        <time>2024-11-05T16:48:08.358Z</time>
      </trkpt>
      <trkpt lat="44.08123" lon="3.62783">
        <ele>388.55</ele>
        <time>2024-11-05T16:48:22.273Z</time>
      </trkpt>
      <trkpt lat="44.08125" lon="3.6281">
        <ele>388.27</ele>
        <time>2024-11-05T16:48:36.191Z</time>
      </trkpt>
      <trkpt lat="44.08139" lon="3.62855">
        <ele>387.56</ele>
        <time>2024-11-05T16:48:50.115Z</time>
      </trkpt>
      <trkpt lat="44.08147" lon="3.62881">
        <ele>387.35</ele>
        <time>2024-11-05T16:49:04.042Z</time>
      </trkpt>
      <trkpt lat="44.08162" lon="3.62918">
        <ele>387.33</ele>
        <time>2024-11-05T16:49:17.974Z</time>
      </trkpt>
      <trkpt lat="44.08194" lon="3.62964">
        <ele>387.49</ele>
        <time>2024-11-05T16:49:31.914Z</time>
      </trkpt>
      <trkpt lat="44.082" lon="3.62976">
        <ele>387.45</ele>
        <time>2024-11-05T16:49:45.855Z</time>
      </trkpt>
      <trkpt lat="44.08205" lon="3.62998">
        <ele>387.25</ele>
        <time>2024-11-05T16:49:59.799Z</time>
      </trkpt>
      <trkpt lat="44.08205" lon="3.63011">
        <ele>387.07</ele>
        <time>2024-11-05T16:50:13.744Z</time>
      </trkpt>
      <trkpt lat="44.08199" lon="3.63037">
        <ele>386.7</ele>
        <time>2024-11-05T16:50:27.693Z</time>
      </trkpt>
      <trkpt lat="44.08193" lon="3.63049">
        <ele>386.49</ele>
        <time>2024-11-05T16:50:41.643Z</time>
      </trkpt>
      <trkpt lat="44.08176" lon="3.63069">
        <ele>386.01</ele>
        <time>2024-11-05T16:50:55.597Z</time>
      </trkpt>
      <trkpt lat="44.08155" lon="3.63083">
        <ele>385.37</ele>
        <time>2024-11-05T16:51:09.555Z</time>
      </trkpt>
      <trkpt lat="44.0815" lon="3.63092">
        <ele>385.11</ele>
        <time>2024-11-05T16:51:23.514Z</time>
      </trkpt>
      <trkpt lat="44.08142" lon="3.63118">
        <ele>384.34</ele>
        <time>2024-11-05T16:51:37.476Z</time>
      </trkpt>
      <trkpt lat="44.08131" lon="3.63153">
        <ele>382.99</ele>
        <time>2024-11-05T16:51:51.442Z</time>
      </trkpt>
      <trkpt lat="44.08108" lon="3.63213">
        <ele>380.62</ele>
        <time>2024-11-05T16:52:05.416Z</time>
      </trkpt>
      <trkpt lat="44.08099" lon="3.63245">
        <ele>379.62</ele>
        <time>2024-11-05T16:52:19.394Z</time>
      </trkpt>
      <trkpt lat="44.08092" lon="3.63285">
        <ele>378.63</ele>
        <time>2024-11-05T16:52:33.377Z</time>
      </trkpt>
      <trkpt lat="44.08092" lon="3.63365">
        <ele>376.64</ele>
        <time>2024-11-05T16:52:47.369Z</time>
      </trkpt>
      <trkpt lat="44.08088" lon="3.63407">
        <ele>375.63</ele>
        <time>2024-11-05T16:53:01.366Z</time>
      </trkpt>
      <trkpt lat="44.08084" lon="3.63453">
        <ele>374.77</ele>
        <time>2024-11-05T16:53:15.368Z</time>
      </trkpt>
      <trkpt lat="44.08082" lon="3.63507">
        <ele>373.79</ele>
        <time>2024-11-05T16:53:29.377Z</time>
      </trkpt>
      <trkpt lat="44.08077" lon="3.63533">
        <ele>373.23</ele>
        <time>2024-11-05T16:53:43.389Z</time>
      </trkpt>
      <trkpt lat="44.08075" lon="3.63565">
        <ele>372.47</ele>
        <time>2024-11-05T16:53:57.405Z</time>
      </trkpt>
      <trkpt lat="44.08078" lon="3.63602">
        <ele>371.6</ele>
        <time>2024-11-05T16:54:11.425Z</time>
      </trkpt>
      <trkpt lat="44.08078" lon="3.63611">
        <ele>371.4</ele>
        <time>2024-11-05T16:54:25.446Z</time>
      </trkpt>
      <trkpt lat="44.08078" lon="3.63616">
        <ele>371.48</ele>
        <time>2024-11-05T16:54:39.467Z</time>
      </trkpt>
      <trkpt lat="44.08077" lon="3.63645">
        <ele>370.29</ele>
        <time>2024-11-05T16:54:53.492Z</time>
      </trkpt>
      <trkpt lat="44.08077" lon="3.63655">
        <ele>370.22</ele>
        <time>2024-11-05T16:55:07.518Z</time>
      </trkpt>
      <trkpt lat="44.08082" lon="3.63742">
        <ele>367.15</ele>
        <time>2024-11-05T16:55:21.554Z</time>
      </trkpt>
      <trkpt lat="44.08084" lon="3.6379">
        <ele>365.87</ele>
        <time>2024-11-05T16:55:35.596Z</time>
      </trkpt>
      <trkpt lat="44.08081" lon="3.63813">
        <ele>365.5</ele>
        <time>2024-11-05T16:55:49.640Z</time>
      </trkpt>
      <trkpt lat="44.08078" lon="3.63822">
        <ele>365.39</ele>
        <time>2024-11-05T16:56:03.685Z</time>
      </trkpt>
      <trkpt lat="44.08068" lon="3.63853">
        <ele>365.55</ele>
        <time>2024-11-05T16:56:17.734Z</time>
      </trkpt>
      <trkpt lat="44.08066" lon="3.63877">
        <ele>365.83</ele>
        <time>2024-11-05T16:56:31.786Z</time>
      </trkpt>
      <trkpt lat="44.0806" lon="3.63938">
        <ele>365.68</ele>
        <time>2024-11-05T16:56:45.845Z</time>
      </trkpt>
      <trkpt lat="44.08052" lon="3.64019">
        <ele>364.86</ele>
        <time>2024-11-05T16:56:59.914Z</time>
      </trkpt>
      <trkpt lat="44.08048" lon="3.64064">
        <ele>364.16</ele>
        <time>2024-11-05T16:57:13.988Z</time>
      </trkpt>
      <trkpt lat="44.08045" lon="3.6409">
        <ele>363.52</ele>
        <time>2024-11-05T16:57:28.065Z</time>
      </trkpt>
      <trkpt lat="44.08045" lon="3.64111">
        <ele>363.08</ele>
        <time>2024-11-05T16:57:42.144Z</time>
      </trkpt>
      <trkpt lat="44.08053" lon="3.64154">
        <ele>362.19</ele>
        <time>2024-11-05T16:57:56.228Z</time>
      </trkpt>
      <trkpt lat="44.08054" lon="3.64182">
        <ele>361.38</ele>
        <time>2024-11-05T16:58:10.316Z</time>
      </trkpt>
      <trkpt lat="44.08045" lon="3.64214">
        <ele>360.4</ele>
        <time>2024-11-05T16:58:24.408Z</time>
      </trkpt>
      <trkpt lat="44.08035" lon="3.64249">
        <ele>359.86</ele>
        <time>2024-11-05T16:58:38.504Z</time>
      </trkpt>
      <trkpt lat="44.08025" lon="3.64283">
        <ele>358.98</ele>
        <time>2024-11-05T16:58:52.604Z</time>
      </trkpt>
      <trkpt lat="44.08011" lon="3.64328">
        <ele>358.13</ele>
        <time>2024-11-05T16:59:06.710Z</time>
      </trkpt>
      <trkpt lat="44.07995" lon="3.6437">
        <ele>357.82</ele>
        <time>2024-11-05T16:59:20.821Z</time>
      </trkpt>
      <trkpt lat="44.07959" lon="3.64427">
        <ele>357.6</ele>
        <time>2024-11-05T16:59:34.941Z</time>
      </trkpt>
      <trkpt lat="44.0793" lon="3.6448">
        <ele>357.01</ele>
        <time>2024-11-05T16:59:49.069Z</time>
      </trkpt>
      <trkpt lat="44.07911" lon="3.64529">
        <ele>356.49</ele>
        <time>2024-11-05T17:00:03.203Z</time>
      </trkpt>
      <trkpt lat="44.07893" lon="3.64592">
        <ele>355.79</ele>
        <time>2024-11-05T17:00:17.345Z</time>
      </trkpt>
      <trkpt lat="44.07888" lon="3.64617">
        <ele>355.45</ele>
        <time>2024-11-05T17:00:31.490Z</time>
      </trkpt>
      <trkpt lat="44.07885" lon="3.64674">
        <ele>354.36</ele>
        <time>2024-11-05T17:00:45.642Z</time>
      </trkpt>
      <trkpt lat="44.07883" lon="3.64705">
        <ele>353.99</ele>
        <time>2024-11-05T17:00:59.797Z</time>
      </trkpt>
      <trkpt lat="44.07882" lon="3.64771">
        <ele>353.61</ele>
        <time>2024-11-05T17:01:13.960Z</time>
      </trkpt>
      <trkpt lat="44.07883" lon="3.64795">
        <ele>353.55</ele>
        <time>2024-11-05T17:01:28.126Z</time>
      </trkpt>
      <trkpt lat="44.07892" lon="3.64837">
        <ele>353.38</ele>
        <time>2024-11-05T17:01:42.297Z</time>
      </trkpt>
      <trkpt lat="44.07903" lon="3.64871">
        <ele>353.26</ele>
        <time>2024-11-05T17:01:56.472Z</time>
      </trkpt>
      <trkpt lat="44.07918" lon="3.64931">
        <ele>352.89</ele>
        <time>2024-11-05T17:02:10.654Z</time>
      </trkpt>
      <trkpt lat="44.07928" lon="3.64972">
        <ele>352.91</ele>
        <time>2024-11-05T17:02:24.841Z</time>
      </trkpt>
      <trkpt lat="44.0793" lon="3.65009">
        <ele>352.96</ele>
        <time>2024-11-05T17:02:39.033Z</time>
      </trkpt>
      <trkpt lat="44.07928" lon="3.65029">
        <ele>352.94</ele>
        <time>2024-11-05T17:02:53.227Z</time>
      </trkpt>
      <trkpt lat="44.07917" lon="3.65075">
        <ele>352.75</ele>
        <time>2024-11-05T17:03:07.426Z</time>
      </trkpt>
      <trkpt lat="44.07885" lon="3.65178">
        <ele>351.95</ele>
        <time>2024-11-05T17:03:21.638Z</time>
      </trkpt>
      <trkpt lat="44.07875" lon="3.65206">
        <ele>351.62</ele>
        <time>2024-11-05T17:03:35.854Z</time>
      </trkpt>
      <trkpt lat="44.07867" lon="3.65225">
        <ele>351.27</ele>
        <time>2024-11-05T17:03:50.072Z</time>
      </trkpt>
      <trkpt lat="44.07847" lon="3.65261">
        <ele>350.52</ele>
        <time>2024-11-05T17:04:04.296Z</time>
      </trkpt>
      <trkpt lat="44.07829" lon="3.65292">
        <ele>349.63</ele>
        <time>2024-11-05T17:04:18.524Z</time>
      </trkpt>
      <trkpt lat="44.0782" lon="3.65311">
        <ele>349.03</ele>
        <time>2024-11-05T17:04:32.755Z</time>
      </trkpt>
      <trkpt lat="44.07806" lon="3.65357">
        <ele>347.58</ele>
        <time>2024-11-05T17:04:46.992Z</time>
      </trkpt>
      <trkpt lat="44.07791" lon="3.65415">
        <ele>346.11</ele>
        <time>2024-11-05T17:05:01.236Z</time>
      </trkpt>
      <trkpt lat="44.07785" lon="3.65439">
        <ele>345.64</ele>
        <time>2024-11-05T17:05:15.483Z</time>
      </trkpt>
      <trkpt lat="44.07777" lon="3.65467">
        <ele>345.35</ele>
        <time>2024-11-05T17:05:29.733Z</time>
      </trkpt>
      <trkpt lat="44.07775" lon="3.65508">
        <ele>345.2</ele>
        <time>2024-11-05T17:05:43.988Z</time>
      </trkpt>
      <trkpt lat="44.0778" lon="3.65626">
        <ele>345.4</ele>
        <time>2024-11-05T17:05:58.257Z</time>
      </trkpt>
      <trkpt lat="44.07774" lon="3.65723">
        <ele>345.18</ele>
        <time>2024-11-05T17:06:12.537Z</time>
      </trkpt>
      <trkpt lat="44.07764" lon="3.65829">
        <ele>344.41</ele>
        <time>2024-11-05T17:06:26.829Z</time>
      </trkpt>
      <trkpt lat="44.07759" lon="3.65857">
        <ele>344.04</ele>
        <time>2024-11-05T17:06:41.124Z</time>
      </trkpt>
      <trkpt lat="44.07754" lon="3.65881">
        <ele>343.54</ele>
        <time>2024-11-05T17:06:55.422Z</time>
      </trkpt>
      <trkpt lat="44.07748" lon="3.65904">
        <ele>342.87</ele>
        <time>2024-11-05T17:07:09.723Z</time>
      </trkpt>
      <trkpt lat="44.07721" lon="3.65992">
        <ele>339.72</ele>
        <time>2024-11-05T17:07:24.035Z</time>
      </trkpt>
      <trkpt lat="44.07717" lon="3.66012">
        <ele>339.14</ele>
        <time>2024-11-05T17:07:38.350Z</time>
      </trkpt>
      <trkpt lat="44.07715" lon="3.66037">
        <ele>338.62</ele>
        <time>2024-11-05T17:07:52.668Z</time>
      </trkpt>
      <trkpt lat="44.07718" lon="3.66058">
        <ele>338.52</ele>
        <time>2024-11-05T17:08:06.988Z</time>
      </trkpt>
      <trkpt lat="44.07729" lon="3.66093">
        <ele>338.58</ele>
        <time>2024-11-05T17:08:21.312Z</time>
      </trkpt>
      <trkpt lat="44.07732" lon="3.66108">
        <ele>338.56</ele>
        <time>2024-11-05T17:08:35.638Z</time>
      </trkpt>
      <trkpt lat="44.07734" lon="3.66131">
        <ele>338.46</ele>
        <time>2024-11-05T17:08:49.967Z</time>
      </trkpt>
      <trkpt lat="44.07735" lon="3.66184">
        <ele>338.52</ele>
        <time>2024-11-05T17:09:04.302Z</time>
      </trkpt>
      <trkpt lat="44.07741" lon="3.66206">
        <ele>338.63</ele>
        <time>2024-11-05T17:09:18.640Z</time>
      </trkpt>
      <trkpt lat="44.07751" lon="3.66224">
        <ele>338.82</ele>
        <time>2024-11-05T17:09:32.980Z</time>
      </trkpt>
      <trkpt lat="44.0777" lon="3.66243">
        <ele>339.01</ele>
        <time>2024-11-05T17:09:47.324Z</time>
      </trkpt>
      <trkpt lat="44.07802" lon="3.66274">
        <ele>339</ele>
        <time>2024-11-05T17:10:01.674Z</time>
      </trkpt>
      <trkpt lat="44.07823" lon="3.663">
        <ele>338.9</ele>
        <time>2024-11-05T17:10:16.029Z</time>
      </trkpt>
      <trkpt lat="44.07838" lon="3.6633">
        <ele>338.78</ele>
        <time>2024-11-05T17:10:30.388Z</time>
      </trkpt>
      <trkpt lat="44.0785" lon="3.66372">
        <ele>338.55</ele>
        <time>2024-11-05T17:10:44.752Z</time>
      </trkpt>
      <trkpt lat="44.07852" lon="3.66393">
        <ele>338.47</ele>
        <time>2024-11-05T17:10:59.119Z</time>
      </trkpt>
      <trkpt lat="44.07853" lon="3.66429">
        <ele>338.24</ele>
        <time>2024-11-05T17:11:13.490Z</time>
      </trkpt>
      <trkpt lat="44.07849" lon="3.66464">
        <ele>337.98</ele>
        <time>2024-11-05T17:11:27.865Z</time>
      </trkpt>
      <trkpt lat="44.07844" lon="3.66483">
        <ele>337.83</ele>
        <time>2024-11-05T17:11:42.242Z</time>
      </trkpt>
      <trkpt lat="44.07819" lon="3.66541">
        <ele>337.53</ele>
        <time>2024-11-05T17:11:56.627Z</time>
      </trkpt>
      <trkpt lat="44.07776" lon="3.666">
        <ele>337.18</ele>
        <time>2024-11-05T17:12:11.022Z</time>
      </trkpt>
      <trkpt lat="44.07758" lon="3.66622">
        <ele>336.97</ele>
        <time>2024-11-05T17:12:25.421Z</time>
      </trkpt>
      <trkpt lat="44.07678" lon="3.66721">
        <ele>335.41</ele>
        <time>2024-11-05T17:12:39.837Z</time>
      </trkpt>
      <trkpt lat="44.07648" lon="3.66758">
        <ele>334.49</ele>
        <time>2024-11-05T17:12:54.259Z</time>
      </trkpt>
      <trkpt lat="44.07565" lon="3.66862">
        <ele>330.29</ele>
        <time>2024-11-05T17:13:08.699Z</time>
      </trkpt>
      <trkpt lat="44.07472" lon="3.66976">
        <ele>326.4</ele>
        <time>2024-11-05T17:13:23.159Z</time>
      </trkpt>
      <trkpt lat="44.07434" lon="3.6703">
        <ele>324.96</ele>
        <time>2024-11-05T17:13:37.628Z</time>
      </trkpt>
      <trkpt lat="44.07409" lon="3.67066">
        <ele>324.21</ele>
        <time>2024-11-05T17:13:52.102Z</time>
      </trkpt>
      <trkpt lat="44.07381" lon="3.67106">
        <ele>323.62</ele>
        <time>2024-11-05T17:14:06.583Z</time>
      </trkpt>
      <trkpt lat="44.07326" lon="3.67184">
        <ele>323.12</ele>
        <time>2024-11-05T17:14:21.076Z</time>
      </trkpt>
      <trkpt lat="44.07286" lon="3.67241">
        <ele>322.19</ele>
        <time>2024-11-05T17:14:35.579Z</time>
      </trkpt>
      <trkpt lat="44.07222" lon="3.67331">
        <ele>321.05</ele>
        <time>2024-11-05T17:14:50.096Z</time>
      </trkpt>
      <trkpt lat="44.0719" lon="3.6737">
        <ele>320.47</ele>
        <time>2024-11-05T17:15:04.620Z</time>
      </trkpt>
      <trkpt lat="44.07106" lon="3.67471">
        <ele>319.98</ele>
        <time>2024-11-05T17:15:19.162Z</time>
      </trkpt>
      <trkpt lat="44.07095" lon="3.67482">
        <ele>319.94</ele>
        <time>2024-11-05T17:15:33.706Z</time>
      </trkpt>
      <trkpt lat="44.06921" lon="3.67651">
        <ele>318.09</ele>
        <time>2024-11-05T17:15:48.284Z</time>
      </trkpt>
      <trkpt lat="44.0685" lon="3.67724">
        <ele>316.83</ele>
        <time>2024-11-05T17:16:02.876Z</time>
      </trkpt>
      <trkpt lat="44.06818" lon="3.67757">
        <ele>316.4</ele>
        <time>2024-11-05T17:16:17.474Z</time>
      </trkpt>
      <trkpt lat="44.06737" lon="3.67835">
        <ele>315.83</ele>
        <time>2024-11-05T17:16:32.088Z</time>
      </trkpt>
      <trkpt lat="44.06696" lon="3.67873">
        <ele>315.17</ele>
        <time>2024-11-05T17:16:46.710Z</time>
      </trkpt>
      <trkpt lat="44.06594" lon="3.67986">
        <ele>313.26</ele>
        <time>2024-11-05T17:17:01.353Z</time>
      </trkpt>
      <trkpt lat="44.06555" lon="3.68029">
        <ele>312.84</ele>
        <time>2024-11-05T17:17:16.004Z</time>
      </trkpt>
      <trkpt lat="44.06529" lon="3.68058">
        <ele>312.8</ele>
        <time>2024-11-05T17:17:30.660Z</time>
      </trkpt>
      <trkpt lat="44.06491" lon="3.68086">
        <ele>312.94</ele>
        <time>2024-11-05T17:17:45.323Z</time>
      </trkpt>
      <trkpt lat="44.06442" lon="3.68115">
        <ele>313.34</ele>
        <time>2024-11-05T17:17:59.995Z</time>
      </trkpt>
      <trkpt lat="44.06387" lon="3.68162">
        <ele>312.89</ele>
        <time>2024-11-05T17:18:14.677Z</time>
      </trkpt>
      <trkpt lat="44.06373" lon="3.68177">
        <ele>312.72</ele>
        <time>2024-11-05T17:18:29.362Z</time>
      </trkpt>
      <trkpt lat="44.0635" lon="3.68209">
        <ele>312.37</ele>
        <time>2024-11-05T17:18:44.052Z</time>
      </trkpt>
      <trkpt lat="44.06296" lon="3.68311">
        <ele>311.14</ele>
        <time>2024-11-05T17:18:58.757Z</time>
      </trkpt>
      <trkpt lat="44.06283" lon="3.68334">
        <ele>310.99</ele>
        <time>2024-11-05T17:19:13.465Z</time>
      </trkpt>
      <trkpt lat="44.06264" lon="3.68352">
        <ele>311.11</ele>
        <time>2024-11-05T17:19:28.177Z</time>
      </trkpt>
      <trkpt lat="44.06241" lon="3.68374">
        <ele>311.67</ele>
        <time>2024-11-05T17:19:42.893Z</time>
      </trkpt>
      <trkpt lat="44.062" lon="3.6841">
        <ele>313.08</ele>
        <time>2024-11-05T17:19:57.617Z</time>
      </trkpt>
      <trkpt lat="44.06176" lon="3.68424">
        <ele>313.68</ele>
        <time>2024-11-05T17:20:12.345Z</time>
      </trkpt>
      <trkpt lat="44.06149" lon="3.68432">
        <ele>314.03</ele>
        <time>2024-11-05T17:20:27.078Z</time>
      </trkpt>
      <trkpt lat="44.0613" lon="3.68438">
        <ele>313.99</ele>
        <time>2024-11-05T17:20:41.814Z</time>
      </trkpt>
      <trkpt lat="44.06094" lon="3.68458">
        <ele>313.58</ele>
        <time>2024-11-05T17:20:56.556Z</time>
      </trkpt>
      <trkpt lat="44.06063" lon="3.68482">
        <ele>312.71</ele>
        <time>2024-11-05T17:21:11.304Z</time>
      </trkpt>
      <trkpt lat="44.06033" lon="3.68506">
        <ele>311.35</ele>
        <time>2024-11-05T17:21:26.057Z</time>
      </trkpt>
      <trkpt lat="44.05998" lon="3.68526">
        <ele>309.58</ele>
        <time>2024-11-05T17:21:40.816Z</time>
      </trkpt>
      <trkpt lat="44.05953" lon="3.68544">
        <ele>307.5</ele>
        <time>2024-11-05T17:21:55.583Z</time>
      </trkpt>
      <trkpt lat="44.05931" lon="3.68548">
        <ele>306.57</ele>
        <time>2024-11-05T17:22:10.353Z</time>
      </trkpt>
      <trkpt lat="44.05919" lon="3.68543">
        <ele>306.11</ele>
        <time>2024-11-05T17:22:25.125Z</time>
      </trkpt>
      <trkpt lat="44.05911" lon="3.68533">
        <ele>305.89</ele>
        <time>2024-11-05T17:22:39.899Z</time>
      </trkpt>
      <trkpt lat="44.0591" lon="3.68523">
        <ele>305.7</ele>
        <time>2024-11-05T17:22:54.674Z</time>
      </trkpt>
      <trkpt lat="44.05914" lon="3.68471">
        <ele>304.91</ele>
        <time>2024-11-05T17:23:09.455Z</time>
      </trkpt>
      <trkpt lat="44.05907" lon="3.68453">
        <ele>304.68</ele>
        <time>2024-11-05T17:23:24.238Z</time>
      </trkpt>
      <trkpt lat="44.05893" lon="3.68438">
        <ele>304.37</ele>
        <time>2024-11-05T17:23:39.024Z</time>
      </trkpt>
      <trkpt lat="44.05875" lon="3.68428">
        <ele>304</ele>
        <time>2024-11-05T17:23:53.813Z</time>
      </trkpt>
      <trkpt lat="44.05839" lon="3.68417">
        <ele>303.08</ele>
        <time>2024-11-05T17:24:08.608Z</time>
      </trkpt>
      <trkpt lat="44.05827" lon="3.68417">
        <ele>302.77</ele>
        <time>2024-11-05T17:24:23.405Z</time>
      </trkpt>
      <trkpt lat="44.0581" lon="3.6842">
        <ele>302.25</ele>
        <time>2024-11-05T17:24:38.205Z</time>
      </trkpt>
      <trkpt lat="44.05769" lon="3.68431">
        <ele>300.96</ele>
        <time>2024-11-05T17:24:53.012Z</time>
      </trkpt>
      <trkpt lat="44.0575" lon="3.68439">
        <ele>300.49</ele>
        <time>2024-11-05T17:25:07.822Z</time>
      </trkpt>
      <trkpt lat="44.05663" lon="3.68489">
        <ele>298.3</ele>
        <time>2024-11-05T17:25:22.647Z</time>
      </trkpt>
      <trkpt lat="44.0564" lon="3.68503">
        <ele>297.9</ele>
        <time>2024-11-05T17:25:37.476Z</time>
      </trkpt>
      <trkpt lat="44.05613" lon="3.68513">
        <ele>297.55</ele>
        <time>2024-11-05T17:25:52.309Z</time>
      </trkpt>
      <trkpt lat="44.05581" lon="3.68522">
        <ele>297.03</ele>
        <time>2024-11-05T17:26:07.148Z</time>
      </trkpt>
      <trkpt lat="44.0557" lon="3.68527">
        <ele>296.83</ele>
        <time>2024-11-05T17:26:21.988Z</time>
      </trkpt>
      <trkpt lat="44.0553" lon="3.68558">
        <ele>295.92</ele>
        <time>2024-11-05T17:26:36.836Z</time>
      </trkpt>
      <trkpt lat="44.05505" lon="3.68576">
        <ele>295.56</ele>
        <time>2024-11-05T17:26:51.688Z</time>
      </trkpt>
      <trkpt lat="44.05494" lon="3.68588">
        <ele>295.38</ele>
        <time>2024-11-05T17:27:06.543Z</time>
      </trkpt>
      <trkpt lat="44.05472" lon="3.68619">
        <ele>294.85</ele>
        <time>2024-11-05T17:27:21.403Z</time>
      </trkpt>
      <trkpt lat="44.05452" lon="3.6864">
        <ele>294.42</ele>
        <time>2024-11-05T17:27:36.267Z</time>
      </trkpt>
      <trkpt lat="44.05425" lon="3.68665">
        <ele>294.2</ele>
        <time>2024-11-05T17:27:51.136Z</time>
      </trkpt>
      <trkpt lat="44.05383" lon="3.68699">
        <ele>294.12</ele>
        <time>2024-11-05T17:28:06.013Z</time>
      </trkpt>
      <trkpt lat="44.05318" lon="3.68768">
        <ele>293.95</ele>
        <time>2024-11-05T17:28:20.903Z</time>
      </trkpt>
      <trkpt lat="44.05306" lon="3.68783">
        <ele>293.91</ele>
        <time>2024-11-05T17:28:35.795Z</time>
      </trkpt>
      <trkpt lat="44.05289" lon="3.68809">
        <ele>293.79</ele>
        <time>2024-11-05T17:28:50.691Z</time>
      </trkpt>
      <trkpt lat="44.05258" lon="3.68863">
        <ele>293.38</ele>
        <time>2024-11-05T17:29:05.595Z</time>
      </trkpt>
      <trkpt lat="44.05224" lon="3.6891">
        <ele>292.75</ele>
        <time>2024-11-05T17:29:20.507Z</time>
      </trkpt>
      <trkpt lat="44.052" lon="3.68937">
        <ele>292.07</ele>
        <time>2024-11-05T17:29:35.424Z</time>
      </trkpt>
      <trkpt lat="44.05175" lon="3.68957">
        <ele>291.48</ele>
        <time>2024-11-05T17:29:50.345Z</time>
      </trkpt>
      <trkpt lat="44.05156" lon="3.68967">
        <ele>291.12</ele>
        <time>2024-11-05T17:30:05.270Z</time>
      </trkpt>
      <trkpt lat="44.05052" lon="3.69024">
        <ele>290.08</ele>
        <time>2024-11-05T17:30:20.213Z</time>
      </trkpt>
      <trkpt lat="44.05027" lon="3.69037">
        <ele>289.65</ele>
        <time>2024-11-05T17:30:35.160Z</time>
      </trkpt>
      <trkpt lat="44.04998" lon="3.69049">
        <ele>289.08</ele>
        <time>2024-11-05T17:30:50.112Z</time>
      </trkpt>
      <trkpt lat="44.04983" lon="3.69052">
        <ele>288.78</ele>
        <time>2024-11-05T17:31:05.066Z</time>
      </trkpt>
      <trkpt lat="44.04961" lon="3.69049">
        <ele>288.38</ele>
        <time>2024-11-05T17:31:20.024Z</time>
      </trkpt>
      <trkpt lat="44.04951" lon="3.69045">
        <ele>288.24</ele>
        <time>2024-11-05T17:31:34.983Z</time>
      </trkpt>
      <trkpt lat="44.04917" lon="3.69022">
        <ele>287.79</ele>
        <time>2024-11-05T17:31:49.948Z</time>
      </trkpt>
      <trkpt lat="44.04893" lon="3.69002">
        <ele>287.39</ele>
        <time>2024-11-05T17:32:04.918Z</time>
      </trkpt>
      <trkpt lat="44.04883" lon="3.68988">
        <ele>287.11</ele>
        <time>2024-11-05T17:32:19.890Z</time>
      </trkpt>
      <trkpt lat="44.04879" lon="3.68976">
        <ele>286.91</ele>
        <time>2024-11-05T17:32:34.864Z</time>
      </trkpt>
      <trkpt lat="44.04876" lon="3.68955">
        <ele>286.6</ele>
        <time>2024-11-05T17:32:49.840Z</time>
      </trkpt>
      <trkpt lat="44.0488" lon="3.68931">
        <ele>286.2</ele>
        <time>2024-11-05T17:33:04.819Z</time>
      </trkpt>
      <trkpt lat="44.04931" lon="3.68808">
        <ele>284.4</ele>
        <time>2024-11-05T17:33:19.814Z</time>
      </trkpt>
      <trkpt lat="44.04942" lon="3.68765">
        <ele>284.02</ele>
        <time>2024-11-05T17:33:34.815Z</time>
      </trkpt>
      <trkpt lat="44.04947" lon="3.68731">
        <ele>283.74</ele>
        <time>2024-11-05T17:33:49.820Z</time>
      </trkpt>
      <trkpt lat="44.04945" lon="3.68698">
        <ele>283.43</ele>
        <time>2024-11-05T17:34:04.828Z</time>
      </trkpt>
      <trkpt lat="44.04934" lon="3.68667">
        <ele>283.15</ele>
        <time>2024-11-05T17:34:19.840Z</time>
      </trkpt>
      <trkpt lat="44.04909" lon="3.68624">
        <ele>282.83</ele>
        <time>2024-11-05T17:34:34.859Z</time>
      </trkpt>
      <trkpt lat="44.04903" lon="3.68608">
        <ele>282.77</ele>
        <time>2024-11-05T17:34:49.880Z</time>
      </trkpt>
      <trkpt lat="44.04895" lon="3.68566">
        <ele>282.66</ele>
        <time>2024-11-05T17:35:04.906Z</time>
      </trkpt>
      <trkpt lat="44.04888" lon="3.68547">
        <ele>282.8</ele>
        <time>2024-11-05T17:35:19.934Z</time>
      </trkpt>
      <trkpt lat="44.04881" lon="3.68536">
        <ele>282.97</ele>
        <time>2024-11-05T17:35:34.964Z</time>
      </trkpt>
      <trkpt lat="44.04861" lon="3.68519">
        <ele>283.4</ele>
        <time>2024-11-05T17:35:49.998Z</time>
      </trkpt>
      <trkpt lat="44.04838" lon="3.68511">
        <ele>283.75</ele>
        <time>2024-11-05T17:36:05.036Z</time>
      </trkpt>
      <trkpt lat="44.04808" lon="3.68508">
        <ele>284</ele>
        <time>2024-11-05T17:36:20.078Z</time>
      </trkpt>
      <trkpt lat="44.04781" lon="3.68507">
        <ele>283.86</ele>
        <time>2024-11-05T17:36:35.125Z</time>
      </trkpt>
      <trkpt lat="44.04727" lon="3.68532">
        <ele>283.55</ele>
        <time>2024-11-05T17:36:50.181Z</time>
      </trkpt>
      <trkpt lat="44.04712" lon="3.68541">
        <ele>283.43</ele>
        <time>2024-11-05T17:37:05.240Z</time>
      </trkpt>
      <trkpt lat="44.047" lon="3.68554">
        <ele>283.35</ele>
        <time>2024-11-05T17:37:20.301Z</time>
      </trkpt>
      <trkpt lat="44.04659" lon="3.68607">
        <ele>283.02</ele>
        <time>2024-11-05T17:37:35.371Z</time>
      </trkpt>
      <trkpt lat="44.04635" lon="3.6863">
        <ele>282.83</ele>
        <time>2024-11-05T17:37:50.446Z</time>
      </trkpt>
      <trkpt lat="44.04582" lon="3.68647">
        <ele>282.52</ele>
        <time>2024-11-05T17:38:05.529Z</time>
      </trkpt>
      <trkpt lat="44.04573" lon="3.68647">
        <ele>282.49</ele>
        <time>2024-11-05T17:38:20.614Z</time>
      </trkpt>
      <trkpt lat="44.04564" lon="3.68644">
        <ele>282.44</ele>
        <time>2024-11-05T17:38:35.700Z</time>
      </trkpt>
      <trkpt lat="44.04556" lon="3.68637">
        <ele>282.38</ele>
        <time>2024-11-05T17:38:50.788Z</time>
      </trkpt>
      <trkpt lat="44.04549" lon="3.68627">
        <ele>282.3</ele>
        <time>2024-11-05T17:39:05.877Z</time>
      </trkpt>
      <trkpt lat="44.04529" lon="3.68584">
        <ele>282.06</ele>
        <time>2024-11-05T17:39:20.972Z</time>
      </trkpt>
      <trkpt lat="44.04517" lon="3.68558">
        <ele>282.12</ele>
        <time>2024-11-05T17:39:36.071Z</time>
      </trkpt>
      <trkpt lat="44.04492" lon="3.68529">
        <ele>281.87</ele>
        <time>2024-11-05T17:39:51.175Z</time>
      </trkpt>
      <trkpt lat="44.04485" lon="3.68515">
        <ele>281.75</ele>
        <time>2024-11-05T17:40:06.281Z</time>
      </trkpt>
      <trkpt lat="44.04479" lon="3.68489">
        <ele>281.55</ele>
        <time>2024-11-05T17:40:21.390Z</time>
      </trkpt>
      <trkpt lat="44.04463" lon="3.68355">
        <ele>281.03</ele>
        <time>2024-11-05T17:40:36.515Z</time>
      </trkpt>
      <trkpt lat="44.04459" lon="3.68322">
        <ele>280.78</ele>
        <time>2024-11-05T17:40:51.644Z</time>
      </trkpt>
      <trkpt lat="44.04458" lon="3.68287">
        <ele>280.5</ele>
        <time>2024-11-05T17:41:06.777Z</time>
      </trkpt>
      <trkpt lat="44.04467" lon="3.6825">
        <ele>280.28</ele>
        <time>2024-11-05T17:41:21.914Z</time>
      </trkpt>
      <trkpt lat="44.04497" lon="3.68195">
        <ele>279.98</ele>
        <time>2024-11-05T17:41:37.059Z</time>
      </trkpt>
      <trkpt lat="44.04502" lon="3.68181">
        <ele>279.93</ele>
        <time>2024-11-05T17:41:52.206Z</time>
      </trkpt>
      <trkpt lat="44.04506" lon="3.68145">
        <ele>279.8</ele>
        <time>2024-11-05T17:42:07.357Z</time>
      </trkpt>
      <trkpt lat="44.045" lon="3.6812">
        <ele>279.74</ele>
        <time>2024-11-05T17:42:22.511Z</time>
      </trkpt>
      <trkpt lat="44.04495" lon="3.68108">
        <ele>279.71</ele>
        <time>2024-11-05T17:42:37.667Z</time>
      </trkpt>
      <trkpt lat="44.04467" lon="3.68064">
        <ele>279.49</ele>
        <time>2024-11-05T17:42:52.830Z</time>
      </trkpt>
      <trkpt lat="44.0446" lon="3.68043">
        <ele>279.41</ele>
        <time>2024-11-05T17:43:07.995Z</time>
      </trkpt>
      <trkpt lat="44.04458" lon="3.68029">
        <ele>279.36</ele>
        <time>2024-11-05T17:43:23.162Z</time>
      </trkpt>
      <trkpt lat="44.0446" lon="3.67965">
        <ele>279.25</ele>
        <time>2024-11-05T17:43:38.336Z</time>
      </trkpt>
      <trkpt lat="44.04465" lon="3.67941">
        <ele>279.13</ele>
        <time>2024-11-05T17:43:53.513Z</time>
      </trkpt>
      <trkpt lat="44.04476" lon="3.6792">
        <ele>279</ele>
        <time>2024-11-05T17:44:08.693Z</time>
      </trkpt>
      <trkpt lat="44.04502" lon="3.6788">
        <ele>278.82</ele>
        <time>2024-11-05T17:44:23.879Z</time>
      </trkpt>
      <trkpt lat="44.0452" lon="3.67849">
        <ele>278.76</ele>
        <time>2024-11-05T17:44:39.070Z</time>
      </trkpt>
      <trkpt lat="44.04529" lon="3.67832">
        <ele>278.71</ele>
        <time>2024-11-05T17:44:54.263Z</time>
      </trkpt>
      <trkpt lat="44.04532" lon="3.6782">
        <ele>278.66</ele>
        <time>2024-11-05T17:45:09.458Z</time>
      </trkpt>
      <trkpt lat="44.04535" lon="3.67796">
        <ele>278.56</ele>
        <time>2024-11-05T17:45:24.656Z</time>
      </trkpt>
      <trkpt lat="44.04535" lon="3.67747">
        <ele>278.53</ele>
        <time>2024-11-05T17:45:39.859Z</time>
      </trkpt>
      <trkpt lat="44.04539" lon="3.67716">
        <ele>278.51</ele>
        <time>2024-11-05T17:45:55.066Z</time>
      </trkpt>
      <trkpt lat="44.04542" lon="3.67684">
        <ele>278.23</ele>
        <time>2024-11-05T17:46:10.277Z</time>
      </trkpt>
      <trkpt lat="44.04539" lon="3.67656">
        <ele>277.64</ele>
        <time>2024-11-05T17:46:25.491Z</time>
      </trkpt>
      <trkpt lat="44.04524" lon="3.67604">
        <ele>276.05</ele>
        <time>2024-11-05T17:46:40.711Z</time>
      </trkpt>
      <trkpt lat="44.04518" lon="3.67591">
        <ele>275.61</ele>
        <time>2024-11-05T17:46:55.933Z</time>
      </trkpt>
      <trkpt lat="44.04511" lon="3.67583">
        <ele>275.24</ele>
        <time>2024-11-05T17:47:11.157Z</time>
      </trkpt>
      <trkpt lat="44.04494" lon="3.6757">
        <ele>274.5</ele>
        <time>2024-11-05T17:47:26.384Z</time>
      </trkpt>
      <trkpt lat="44.04432" lon="3.67552">
        <ele>271.64</ele>
        <time>2024-11-05T17:47:41.621Z</time>
      </trkpt>
      <trkpt lat="44.04334" lon="3.67556">
        <ele>267.33</ele>
        <time>2024-11-05T17:47:56.874Z</time>
      </trkpt>
      <trkpt lat="44.04304" lon="3.67551">
        <ele>266.28</ele>
        <time>2024-11-05T17:48:12.131Z</time>
      </trkpt>
      <trkpt lat="44.04289" lon="3.67542">
        <ele>265.76</ele>
        <time>2024-11-05T17:48:27.391Z</time>
      </trkpt>
      <trkpt lat="44.04275" lon="3.67527">
        <ele>265.17</ele>
        <time>2024-11-05T17:48:42.654Z</time>
      </trkpt>
      <trkpt lat="44.04243" lon="3.67476">
        <ele>263.59</ele>
        <time>2024-11-05T17:48:57.925Z</time>
      </trkpt>
      <trkpt lat="44.04196" lon="3.67425">
        <ele>261.93</ele>
        <time>2024-11-05T17:49:13.205Z</time>
      </trkpt>
      <trkpt lat="44.04161" lon="3.67387">
        <ele>260.94</ele>
        <time>2024-11-05T17:49:28.492Z</time>
      </trkpt>
      <trkpt lat="44.04109" lon="3.67338">
        <ele>260.04</ele>
        <time>2024-11-05T17:49:43.789Z</time>
      </trkpt>
      <trkpt lat="44.04091" lon="3.67317">
        <ele>259.84</ele>
        <time>2024-11-05T17:49:59.090Z</time>
      </trkpt>
      <trkpt lat="44.04047" lon="3.67236">
        <ele>259.03</ele>
        <time>2024-11-05T17:50:14.403Z</time>
      </trkpt>
      <trkpt lat="44.04039" lon="3.67225">
        <ele>258.83</ele>
        <time>2024-11-05T17:50:29.718Z</time>
      </trkpt>
      <trkpt lat="44.04019" lon="3.67215">
        <ele>258.43</ele>
        <time>2024-11-05T17:50:45.036Z</time>
      </trkpt>
      <trkpt lat="44.03962" lon="3.6721">
        <ele>257.37</ele>
        <time>2024-11-05T17:51:00.363Z</time>
      </trkpt>
      <trkpt lat="44.03935" lon="3.67211">
        <ele>257</ele>
        <time>2024-11-05T17:51:15.695Z</time>
      </trkpt>
      <trkpt lat="44.03898" lon="3.67213">
        <ele>257.05</ele>
        <time>2024-11-05T17:51:31.032Z</time>
      </trkpt>
      <trkpt lat="44.03876" lon="3.6722">
        <ele>257.35</ele>
        <time>2024-11-05T17:51:46.373Z</time>
      </trkpt>
      <trkpt lat="44.03793" lon="3.67287">
        <ele>258.01</ele>
        <time>2024-11-05T17:52:01.729Z</time>
      </trkpt>
      <trkpt lat="44.03758" lon="3.67316">
        <ele>258.03</ele>
        <time>2024-11-05T17:52:17.092Z</time>
      </trkpt>
      <trkpt lat="44.03727" lon="3.67341">
        <ele>257.64</ele>
        <time>2024-11-05T17:52:32.461Z</time>
      </trkpt>
      <trkpt lat="44.03708" lon="3.67363">
        <ele>257.36</ele>
        <time>2024-11-05T17:52:47.834Z</time>
      </trkpt>
      <trkpt lat="44.03698" lon="3.67381">
        <ele>257.19</ele>
        <time>2024-11-05T17:53:03.209Z</time>
      </trkpt>
      <trkpt lat="44.03686" lon="3.67413">
        <ele>256.89</ele>
        <time>2024-11-05T17:53:18.588Z</time>
      </trkpt>
      <trkpt lat="44.03686" lon="3.67458">
        <ele>256.6</ele>
        <time>2024-11-05T17:53:33.973Z</time>
      </trkpt>
      <trkpt lat="44.0368" lon="3.67497">
        <ele>256.54</ele>
        <time>2024-11-05T17:53:49.362Z</time>
      </trkpt>
      <trkpt lat="44.03671" lon="3.67524">
        <ele>256.43</ele>
        <time>2024-11-05T17:54:04.755Z</time>
      </trkpt>
      <trkpt lat="44.03656" lon="3.67549">
        <ele>256.32</ele>
        <time>2024-11-05T17:54:20.151Z</time>
      </trkpt>
      <trkpt lat="44.03629" lon="3.67581">
        <ele>256.09</ele>
        <time>2024-11-05T17:54:35.553Z</time>
      </trkpt>
      <trkpt lat="44.03578" lon="3.67623">
        <ele>255.77</ele>
        <time>2024-11-05T17:54:50.965Z</time>
      </trkpt>
      <trkpt lat="44.03536" lon="3.67648">
        <ele>255.72</ele>
        <time>2024-11-05T17:55:06.384Z</time>
      </trkpt>
      <trkpt lat="44.03508" lon="3.67666">
        <ele>255.45</ele>
        <time>2024-11-05T17:55:21.808Z</time>
      </trkpt>
      <trkpt lat="44.03442" lon="3.67706">
        <ele>253.91</ele>
        <time>2024-11-05T17:55:37.243Z</time>
      </trkpt>
      <trkpt lat="44.03408" lon="3.67726">
        <ele>252.9</ele>
        <time>2024-11-05T17:55:52.684Z</time>
      </trkpt>
      <trkpt lat="44.03325" lon="3.67785">
        <ele>250.1</ele>
        <time>2024-11-05T17:56:08.140Z</time>
      </trkpt>
      <trkpt lat="44.0329" lon="3.6781">
        <ele>249.28</ele>
        <time>2024-11-05T17:56:23.603Z</time>
      </trkpt>
      <trkpt lat="44.03292" lon="3.67816">
        <ele>249.2</ele>
        <time>2024-11-05T17:56:39.066Z</time>
      </trkpt>
      <trkpt lat="44.03297" lon="3.6783">
        <ele>248.57</ele>
        <time>2024-11-05T17:56:54.531Z</time>
      </trkpt>
      <trkpt lat="44.033" lon="3.67835">
        <ele>248.29</ele>
        <time>2024-11-05T17:57:09.997Z</time>
      </trkpt>
      <trkpt lat="44.03312" lon="3.67853">
        <ele>247.8</ele>
        <time>2024-11-05T17:57:25.466Z</time>
      </trkpt>
      <trkpt lat="44.03323" lon="3.67871">
        <ele>247.71</ele>
        <time>2024-11-05T17:57:40.937Z</time>
      </trkpt>
      <trkpt lat="44.03335" lon="3.67893">
        <ele>247.99</ele>
        <time>2024-11-05T17:57:56.412Z</time>
      </trkpt>
      <trkpt lat="44.03334" lon="3.67902">
        <ele>248.21</ele>
        <time>2024-11-05T17:58:11.888Z</time>
      </trkpt>
      <trkpt lat="44.03319" lon="3.67932">
        <ele>249.18</ele>
        <time>2024-11-05T17:58:27.368Z</time>
      </trkpt>
      <trkpt lat="44.03302" lon="3.67967">
        <ele>250.85</ele>
        <time>2024-11-05T17:58:42.853Z</time>
      </trkpt>
      <trkpt lat="44.03298" lon="3.67977">
        <ele>251</ele>
        <time>2024-11-05T17:58:58.339Z</time>
      </trkpt>
      <trkpt lat="44.03293" lon="3.67986">
        <ele>251.4</ele>
        <time>2024-11-05T17:59:13.826Z</time>
      </trkpt>
      <trkpt lat="44.0329" lon="3.67997">
        <ele>251.84</ele>
        <time>2024-11-05T17:59:29.315Z</time>
      </trkpt>
      <trkpt lat="44.03291" lon="3.68006">
        <ele>252.24</ele>
        <time>2024-11-05T17:59:44.805Z</time>
      </trkpt>
      <trkpt lat="44.03298" lon="3.68013">
        <ele>252.79</ele>
        <time>2024-11-05T18:00:00.296Z</time>
      </trkpt>
      <trkpt lat="44.03303" lon="3.68013">
        <ele>253.1</ele>
        <time>2024-11-05T18:00:15.788Z</time>
      </trkpt>
      <trkpt lat="44.03306" lon="3.68009">
        <ele>253.25</ele>
        <time>2024-11-05T18:00:31.281Z</time>
      </trkpt>
      <trkpt lat="44.03311" lon="3.67982">
        <ele>253.82</ele>
        <time>2024-11-05T18:00:46.777Z</time>
      </trkpt>
      <trkpt lat="44.03332" lon="3.67937">
        <ele>254.77</ele>
        <time>2024-11-05T18:01:02.279Z</time>
      </trkpt>
      <trkpt lat="44.03343" lon="3.67923">
        <ele>255.22</ele>
        <time>2024-11-05T18:01:17.783Z</time>
      </trkpt>
      <trkpt lat="44.03353" lon="3.67914">
        <ele>255.67</ele>
        <time>2024-11-05T18:01:33.289Z</time>
      </trkpt>
      <trkpt lat="44.03396" lon="3.67892">
        <ele>257.92</ele>
        <time>2024-11-05T18:01:48.803Z</time>
      </trkpt>
      <trkpt lat="44.03412" lon="3.67875">
        <ele>259.05</ele>
        <time>2024-11-05T18:02:04.320Z</time>
      </trkpt>
      <trkpt lat="44.03422" lon="3.6787">
        <ele>259.65</ele>
        <time>2024-11-05T18:02:19.839Z</time>
      </trkpt>
      <trkpt lat="44.03432" lon="3.67868">
        <ele>260.18</ele>
        <time>2024-11-05T18:02:35.359Z</time>
      </trkpt>
      <trkpt lat="44.03458" lon="3.6787">
        <ele>261.44</ele>
        <time>2024-11-05T18:02:50.883Z</time>
      </trkpt>
      <trkpt lat="44.03475" lon="3.67861">
        <ele>262.22</ele>
        <time>2024-11-05T18:03:06.410Z</time>
      </trkpt>
      <trkpt lat="44.035" lon="3.67837">
        <ele>263.73</ele>
        <time>2024-11-05T18:03:21.942Z</time>
      </trkpt>
      <trkpt lat="44.0355" lon="3.67813">
        <ele>266.53</ele>
        <time>2024-11-05T18:03:37.483Z</time>
      </trkpt>
      <trkpt lat="44.03565" lon="3.67811">
        <ele>267.35</ele>
        <time>2024-11-05T18:03:53.026Z</time>
      </trkpt>
      <trkpt lat="44.03594" lon="3.67818">
        <ele>269.03</ele>
        <time>2024-11-05T18:04:08.574Z</time>
      </trkpt>
      <trkpt lat="44.03606" lon="3.67824">
        <ele>269.84</ele>
        <time>2024-11-05T18:04:24.124Z</time>
      </trkpt>
      <trkpt lat="44.03624" lon="3.67841">
        <ele>271.43</ele>
        <time>2024-11-05T18:04:39.677Z</time>
      </trkpt>
      <trkpt lat="44.03631" lon="3.67844">
        <ele>271.94</ele>
        <time>2024-11-05T18:04:55.231Z</time>
      </trkpt>
      <trkpt lat="44.03645" lon="3.67835">
        <ele>272.9</ele>
        <time>2024-11-05T18:05:10.788Z</time>
      </trkpt>
      <trkpt lat="44.03674" lon="3.67835">
        <ele>274.3</ele>
        <time>2024-11-05T18:05:26.350Z</time>
      </trkpt>
      <trkpt lat="44.03689" lon="3.67824">
        <ele>275.12</ele>
        <time>2024-11-05T18:05:41.914Z</time>
      </trkpt>
      <trkpt lat="44.03693" lon="3.67816">
        <ele>275.53</ele>
        <time>2024-11-05T18:05:57.479Z</time>
      </trkpt>
      <trkpt lat="44.037" lon="3.67794">
        <ele>276.54</ele>
        <time>2024-11-05T18:06:13.047Z</time>
      </trkpt>
      <trkpt lat="44.03707" lon="3.6778">
        <ele>277.28</ele>
        <time>2024-11-05T18:06:28.617Z</time>
      </trkpt>
      <trkpt lat="44.03714" lon="3.67772">
        <ele>277.79</ele>
        <time>2024-11-05T18:06:44.189Z</time>
      </trkpt>
      <trkpt lat="44.03728" lon="3.67761">
        <ele>278.63</ele>
        <time>2024-11-05T18:06:59.763Z</time>
      </trkpt>
      <trkpt lat="44.03774" lon="3.67738">
        <ele>281.13</ele>
        <time>2024-11-05T18:07:15.345Z</time>
      </trkpt>
      <trkpt lat="44.03802" lon="3.67717">
        <ele>282.83</ele>
        <time>2024-11-05T18:07:30.932Z</time>
      </trkpt>
      <trkpt lat="44.03819" lon="3.67708">
        <ele>283.91</ele>
        <time>2024-11-05T18:07:46.522Z</time>
      </trkpt>
      <trkpt lat="44.03834" lon="3.67704">
        <ele>284.88</ele>
        <time>2024-11-05T18:08:02.114Z</time>
      </trkpt>
      <trkpt lat="44.03874" lon="3.67699">
        <ele>287.4</ele>
        <time>2024-11-05T18:08:17.713Z</time>
      </trkpt>
      <trkpt lat="44.03881" lon="3.67693">
        <ele>287.9</ele>
        <time>2024-11-05T18:08:33.313Z</time>
      </trkpt>
      <trkpt lat="44.03888" lon="3.67683">
        <ele>288.5</ele>
        <time>2024-11-05T18:08:48.915Z</time>
      </trkpt>
      <trkpt lat="44.03888" lon="3.67667">
        <ele>289.22</ele>
        <time>2024-11-05T18:09:04.519Z</time>
      </trkpt>
      <trkpt lat="44.0388" lon="3.67622">
        <ele>291.12</ele>
        <time>2024-11-05T18:09:20.128Z</time>
      </trkpt>
      <trkpt lat="44.03883" lon="3.67604">
        <ele>291.84</ele>
        <time>2024-11-05T18:09:35.739Z</time>
      </trkpt>
      <trkpt lat="44.03889" lon="3.67596">
        <ele>292.28</ele>
        <time>2024-11-05T18:09:51.351Z</time>
      </trkpt>
      <trkpt lat="44.0392" lon="3.67577">
        <ele>294.09</ele>
        <time>2024-11-05T18:10:06.969Z</time>
      </trkpt>
      <trkpt lat="44.03927" lon="3.67567">
        <ele>294.7</ele>
        <time>2024-11-05T18:10:22.588Z</time>
      </trkpt>
      <trkpt lat="44.03932" lon="3.67555">
        <ele>295.33</ele>
        <time>2024-11-05T18:10:38.209Z</time>
      </trkpt>
      <trkpt lat="44.03939" lon="3.67475">
        <ele>299.41</ele>
        <time>2024-11-05T18:10:53.839Z</time>
      </trkpt>
      <trkpt lat="44.03943" lon="3.67465">
        <ele>300.04</ele>
        <time>2024-11-05T18:11:09.471Z</time>
      </trkpt>
      <trkpt lat="44.03949" lon="3.6746">
        <ele>300.59</ele>
        <time>2024-11-05T18:11:25.104Z</time>
      </trkpt>
      <trkpt lat="44.03955" lon="3.67459">
        <ele>301.07</ele>
        <time>2024-11-05T18:11:40.738Z</time>
      </trkpt>
      <trkpt lat="44.0396" lon="3.67463">
        <ele>301.48</ele>
        <time>2024-11-05T18:11:56.373Z</time>
      </trkpt>
      <trkpt lat="44.03963" lon="3.67469">
        <ele>301.9</ele>
        <time>2024-11-05T18:12:12.009Z</time>
      </trkpt>
      <trkpt lat="44.03959" lon="3.67491">
        <ele>302.91</ele>
        <time>2024-11-05T18:12:27.647Z</time>
      </trkpt>
      <trkpt lat="44.03954" lon="3.67515">
        <ele>303.64</ele>
        <time>2024-11-05T18:12:43.288Z</time>
      </trkpt>
      <trkpt lat="44.03953" lon="3.67528">
        <ele>304.06</ele>
        <time>2024-11-05T18:12:58.931Z</time>
      </trkpt>
      <trkpt lat="44.03957" lon="3.67564">
        <ele>305.62</ele>
        <time>2024-11-05T18:13:14.578Z</time>
      </trkpt>
      <trkpt lat="44.03957" lon="3.67592">
        <ele>306.89</ele>
        <time>2024-11-05T18:13:30.228Z</time>
      </trkpt>
      <trkpt lat="44.03951" lon="3.67605">
        <ele>307.56</ele>
        <time>2024-11-05T18:13:45.880Z</time>
      </trkpt>
      <trkpt lat="44.03928" lon="3.6763">
        <ele>309.49</ele>
        <time>2024-11-05T18:14:01.536Z</time>
      </trkpt>
      <trkpt lat="44.03924" lon="3.67641">
        <ele>310.07</ele>
        <time>2024-11-05T18:14:17.194Z</time>
      </trkpt>
      <trkpt lat="44.03923" lon="3.67659">
        <ele>310.9</ele>
        <time>2024-11-05T18:14:32.854Z</time>
      </trkpt>
      <trkpt lat="44.03925" lon="3.67678">
        <ele>311.77</ele>
        <time>2024-11-05T18:14:48.516Z</time>
      </trkpt>
      <trkpt lat="44.03939" lon="3.67738">
        <ele>314.65</ele>
        <time>2024-11-05T18:15:04.185Z</time>
      </trkpt>
      <trkpt lat="44.03939" lon="3.67754">
        <ele>315.37</ele>
        <time>2024-11-05T18:15:19.856Z</time>
      </trkpt>
      <trkpt lat="44.03935" lon="3.67769">
        <ele>316.08</ele>
        <time>2024-11-05T18:15:35.529Z</time>
      </trkpt>
      <trkpt lat="44.03926" lon="3.67781">
        <ele>316.82</ele>
        <time>2024-11-05T18:15:51.204Z</time>
      </trkpt>
      <trkpt lat="44.03915" lon="3.67786">
        <ele>317.51</ele>
        <time>2024-11-05T18:16:06.881Z</time>
      </trkpt>
      <trkpt lat="44.03884" lon="3.67786">
        <ele>319.3</ele>
        <time>2024-11-05T18:16:22.563Z</time>
      </trkpt>
      <trkpt lat="44.0387" lon="3.67789">
        <ele>320.22</ele>
        <time>2024-11-05T18:16:38.247Z</time>
      </trkpt>
      <trkpt lat="44.03859" lon="3.67795">
        <ele>321.08</ele>
        <time>2024-11-05T18:16:53.933Z</time>
      </trkpt>
      <trkpt lat="44.0383" lon="3.67837">
        <ele>324.08</ele>
        <time>2024-11-05T18:17:09.626Z</time>
      </trkpt>
      <trkpt lat="44.03826" lon="3.67854">
        <ele>324.93</ele>
        <time>2024-11-05T18:17:25.321Z</time>
      </trkpt>
      <trkpt lat="44.03826" lon="3.6787">
        <ele>325.69</ele>
        <time>2024-11-05T18:17:41.018Z</time>
      </trkpt>
      <trkpt lat="44.03833" lon="3.67902">
        <ele>327.27</ele>
        <time>2024-11-05T18:17:56.719Z</time>
      </trkpt>
      <trkpt lat="44.03833" lon="3.67917">
        <ele>328</ele>
        <time>2024-11-05T18:18:12.421Z</time>
      </trkpt>
      <trkpt lat="44.03824" lon="3.67939">
        <ele>329.22</ele>
        <time>2024-11-05T18:18:28.126Z</time>
      </trkpt>
      <trkpt lat="44.03814" lon="3.67947">
        <ele>330.01</ele>
        <time>2024-11-05T18:18:43.833Z</time>
      </trkpt>
      <trkpt lat="44.03792" lon="3.67951">
        <ele>331.53</ele>
        <time>2024-11-05T18:18:59.544Z</time>
      </trkpt>
      <trkpt lat="44.03776" lon="3.67961">
        <ele>332.63</ele>
        <time>2024-11-05T18:19:15.257Z</time>
      </trkpt>
      <trkpt lat="44.03771" lon="3.67978">
        <ele>333.41</ele>
        <time>2024-11-05T18:19:30.973Z</time>
      </trkpt>
      <trkpt lat="44.0377" lon="3.68009">
        <ele>334.66</ele>
        <time>2024-11-05T18:19:46.692Z</time>
      </trkpt>
      <trkpt lat="44.03768" lon="3.68021">
        <ele>335.12</ele>
        <time>2024-11-05T18:20:02.413Z</time>
      </trkpt>
      <trkpt lat="44.03765" lon="3.68028">
        <ele>335.43</ele>
        <time>2024-11-05T18:20:18.134Z</time>
      </trkpt>
      <trkpt lat="44.0374" lon="3.68054">
        <ele>337.01</ele>
        <time>2024-11-05T18:20:33.860Z</time>
      </trkpt>
      <trkpt lat="44.03708" lon="3.68073">
        <ele>338.82</ele>
        <time>2024-11-05T18:20:49.592Z</time>
      </trkpt>
      <trkpt lat="44.03694" lon="3.68074">
        <ele>339.61</ele>
        <time>2024-11-05T18:21:05.326Z</time>
      </trkpt>
      <trkpt lat="44.03673" lon="3.68068">
        <ele>341.13</ele>
        <time>2024-11-05T18:21:21.064Z</time>
      </trkpt>
      <trkpt lat="44.0366" lon="3.68068">
        <ele>342.1</ele>
        <time>2024-11-05T18:21:36.804Z</time>
      </trkpt>
      <trkpt lat="44.03644" lon="3.68073">
        <ele>343.37</ele>
        <time>2024-11-05T18:21:52.546Z</time>
      </trkpt>
      <trkpt lat="44.03636" lon="3.68079">
        <ele>344.04</ele>
        <time>2024-11-05T18:22:08.290Z</time>
      </trkpt>
      <trkpt lat="44.03633" lon="3.68086">
        <ele>344.44</ele>
        <time>2024-11-05T18:22:24.035Z</time>
      </trkpt>
      <trkpt lat="44.03626" lon="3.68122">
        <ele>346.3</ele>
        <time>2024-11-05T18:22:39.784Z</time>
      </trkpt>
      <trkpt lat="44.03622" lon="3.68131">
        <ele>346.82</ele>
        <time>2024-11-05T18:22:55.534Z</time>
      </trkpt>
      <trkpt lat="44.03614" lon="3.6814">
        <ele>347.53</ele>
        <time>2024-11-05T18:23:11.286Z</time>
      </trkpt>
      <trkpt lat="44.03603" lon="3.68144">
        <ele>348.39</ele>
        <time>2024-11-05T18:23:27.040Z</time>
      </trkpt>
      <trkpt lat="44.03588" lon="3.68159">
        <ele>349.58</ele>
        <time>2024-11-05T18:23:42.797Z</time>
      </trkpt>
      <trkpt lat="44.03582" lon="3.68172">
        <ele>350.33</ele>
        <time>2024-11-05T18:23:58.556Z</time>
      </trkpt>
      <trkpt lat="44.03575" lon="3.682">
        <ele>351.74</ele>
        <time>2024-11-05T18:24:14.318Z</time>
      </trkpt>
      <trkpt lat="44.03567" lon="3.6821">
        <ele>352.5</ele>
        <time>2024-11-05T18:24:30.082Z</time>
      </trkpt>
      <trkpt lat="44.03553" lon="3.68217">
        <ele>353.65</ele>
        <time>2024-11-05T18:24:45.848Z</time>
      </trkpt>
      <trkpt lat="44.03549" lon="3.68223">
        <ele>354.12</ele>
        <time>2024-11-05T18:25:01.615Z</time>
      </trkpt>
      <trkpt lat="44.03547" lon="3.68235">
        <ele>354.77</ele>
        <time>2024-11-05T18:25:17.383Z</time>
      </trkpt>
      <trkpt lat="44.03548" lon="3.68246">
        <ele>355.29</ele>
        <time>2024-11-05T18:25:33.153Z</time>
      </trkpt>
      <trkpt lat="44.03554" lon="3.68272">
        <ele>356.49</ele>
        <time>2024-11-05T18:25:48.926Z</time>
      </trkpt>
      <trkpt lat="44.03553" lon="3.68289">
        <ele>357.23</ele>
        <time>2024-11-05T18:26:04.701Z</time>
      </trkpt>
      <trkpt lat="44.03528" lon="3.68378">
        <ele>362.12</ele>
        <time>2024-11-05T18:26:20.487Z</time>
      </trkpt>
      <trkpt lat="44.03522" lon="3.68423">
        <ele>364.34</ele>
        <time>2024-11-05T18:26:36.278Z</time>
      </trkpt>
      <trkpt lat="44.03517" lon="3.68436">
        <ele>365.06</ele>
        <time>2024-11-05T18:26:52.071Z</time>
      </trkpt>
      <trkpt lat="44.0349" lon="3.6847">
        <ele>367.61</ele>
        <time>2024-11-05T18:27:07.870Z</time>
      </trkpt>
      <trkpt lat="44.03489" lon="3.68479">
        <ele>368.06</ele>
        <time>2024-11-05T18:27:23.670Z</time>
      </trkpt>
      <trkpt lat="44.03493" lon="3.68527">
        <ele>368.68</ele>
        <time>2024-11-05T18:27:39.475Z</time>
      </trkpt>
      <trkpt lat="44.03485" lon="3.68562">
        <ele>368.83</ele>
        <time>2024-11-05T18:27:55.285Z</time>
      </trkpt>
      <trkpt lat="44.03481" lon="3.68605">
        <ele>368.63</ele>
        <time>2024-11-05T18:28:11.100Z</time>
      </trkpt>
      <trkpt lat="44.03474" lon="3.68616">
        <ele>368.51</ele>
        <time>2024-11-05T18:28:26.916Z</time>
      </trkpt>
      <trkpt lat="44.03458" lon="3.68631">
        <ele>368.42</ele>
        <time>2024-11-05T18:28:42.735Z</time>
      </trkpt>
      <trkpt lat="44.03453" lon="3.68642">
        <ele>368.47</ele>
        <time>2024-11-05T18:28:58.556Z</time>
      </trkpt>
      <trkpt lat="44.0345" lon="3.68657">
        <ele>368.62</ele>
        <time>2024-11-05T18:29:14.379Z</time>
      </trkpt>
      <trkpt lat="44.03451" lon="3.68668">
        <ele>368.75</ele>
        <time>2024-11-05T18:29:30.203Z</time>
      </trkpt>
      <trkpt lat="44.03467" lon="3.68706">
        <ele>369.58</ele>
        <time>2024-11-05T18:29:46.032Z</time>
      </trkpt>
      <trkpt lat="44.03469" lon="3.68717">
        <ele>369.88</ele>
        <time>2024-11-05T18:30:01.862Z</time>
      </trkpt>
      <trkpt lat="44.03468" lon="3.68731">
        <ele>370.31</ele>
        <time>2024-11-05T18:30:17.694Z</time>
      </trkpt>
      <trkpt lat="44.0346" lon="3.68757">
        <ele>371.46</ele>
        <time>2024-11-05T18:30:33.529Z</time>
      </trkpt>
      <trkpt lat="44.03442" lon="3.68785">
        <ele>373.21</ele>
        <time>2024-11-05T18:30:49.369Z</time>
      </trkpt>
      <trkpt lat="44.03438" lon="3.688">
        <ele>373.96</ele>
        <time>2024-11-05T18:31:05.210Z</time>
      </trkpt>
      <trkpt lat="44.03441" lon="3.6882">
        <ele>374.87</ele>
        <time>2024-11-05T18:31:21.054Z</time>
      </trkpt>
      <trkpt lat="44.03447" lon="3.68829">
        <ele>375.4</ele>
        <time>2024-11-05T18:31:36.899Z</time>
      </trkpt>
      <trkpt lat="44.0346" lon="3.68834">
        <ele>376.12</ele>
        <time>2024-11-05T18:31:52.746Z</time>
      </trkpt>
      <trkpt lat="44.03488" lon="3.68857">
        <ele>377.65</ele>
        <time>2024-11-05T18:32:08.598Z</time>
      </trkpt>
      <trkpt lat="44.03496" lon="3.68866">
        <ele>378.15</ele>
        <time>2024-11-05T18:32:24.452Z</time>
      </trkpt>
      <trkpt lat="44.03501" lon="3.68876">
        <ele>378.58</ele>
        <time>2024-11-05T18:32:40.308Z</time>
      </trkpt>
      <trkpt lat="44.03504" lon="3.68888">
        <ele>379.04</ele>
        <time>2024-11-05T18:32:56.165Z</time>
      </trkpt>
      <trkpt lat="44.035" lon="3.68915">
        <ele>380.05</ele>
        <time>2024-11-05T18:33:12.025Z</time>
      </trkpt>
      <trkpt lat="44.03507" lon="3.68976">
        <ele>382.68</ele>
        <time>2024-11-05T18:33:27.892Z</time>
      </trkpt>
      <trkpt lat="44.03504" lon="3.68994">
        <ele>383.48</ele>
        <time>2024-11-05T18:33:43.761Z</time>
      </trkpt>
      <trkpt lat="44.035" lon="3.69003">
        <ele>383.92</ele>
        <time>2024-11-05T18:33:59.632Z</time>
      </trkpt>
      <trkpt lat="44.03484" lon="3.69026">
        <ele>385.36</ele>
        <time>2024-11-05T18:34:15.506Z</time>
      </trkpt>
      <trkpt lat="44.03481" lon="3.69046">
        <ele>386.31</ele>
        <time>2024-11-05T18:34:31.383Z</time>
      </trkpt>
      <trkpt lat="44.03501" lon="3.69107">
        <ele>389.17</ele>
        <time>2024-11-05T18:34:47.267Z</time>
      </trkpt>
      <trkpt lat="44.03517" lon="3.69134">
        <ele>390.97</ele>
        <time>2024-11-05T18:35:03.155Z</time>
      </trkpt>
      <trkpt lat="44.0352" lon="3.69143">
        <ele>391.48</ele>
        <time>2024-11-05T18:35:19.045Z</time>
      </trkpt>
      <trkpt lat="44.0352" lon="3.69153">
        <ele>391.95</ele>
        <time>2024-11-05T18:35:34.936Z</time>
      </trkpt>
      <trkpt lat="44.03508" lon="3.6917">
        <ele>392.97</ele>
        <time>2024-11-05T18:35:50.830Z</time>
      </trkpt>
      <trkpt lat="44.03503" lon="3.69196">
        <ele>394.1</ele>
        <time>2024-11-05T18:36:06.727Z</time>
      </trkpt>
      <trkpt lat="44.03496" lon="3.69208">
        <ele>394.79</ele>
        <time>2024-11-05T18:36:22.625Z</time>
      </trkpt>
      <trkpt lat="44.0349" lon="3.69212">
        <ele>395.21</ele>
        <time>2024-11-05T18:36:38.524Z</time>
      </trkpt>
      <trkpt lat="44.03483" lon="3.69213">
        <ele>395.65</ele>
        <time>2024-11-05T18:36:54.425Z</time>
      </trkpt>
      <trkpt lat="44.03475" lon="3.69211">
        <ele>396.16</ele>
        <time>2024-11-05T18:37:10.327Z</time>
      </trkpt>
      <trkpt lat="44.03463" lon="3.69201">
        <ele>396.94</ele>
        <time>2024-11-05T18:37:26.231Z</time>
      </trkpt>
      <trkpt lat="44.03442" lon="3.69184">
        <ele>397.94</ele>
        <time>2024-11-05T18:37:42.139Z</time>
      </trkpt>
      <trkpt lat="44.03409" lon="3.69165">
        <ele>399.62</ele>
        <time>2024-11-05T18:37:58.053Z</time>
      </trkpt>
      <trkpt lat="44.03384" lon="3.69155">
        <ele>401.11</ele>
        <time>2024-11-05T18:38:13.971Z</time>
      </trkpt>
      <trkpt lat="44.03369" lon="3.69153">
        <ele>402.1</ele>
        <time>2024-11-05T18:38:29.891Z</time>
      </trkpt>
      <trkpt lat="44.03357" lon="3.69156">
        <ele>402.91</ele>
        <time>2024-11-05T18:38:45.813Z</time>
      </trkpt>
      <trkpt lat="44.03345" lon="3.69166">
        <ele>403.69</ele>
        <time>2024-11-05T18:39:01.738Z</time>
      </trkpt>
      <trkpt lat="44.03337" lon="3.69185">
        <ele>404.43</ele>
        <time>2024-11-05T18:39:17.665Z</time>
      </trkpt>
      <trkpt lat="44.03332" lon="3.69203">
        <ele>405.01</ele>
        <time>2024-11-05T18:39:33.594Z</time>
      </trkpt>
      <trkpt lat="44.03322" lon="3.69216">
        <ele>405.6</ele>
        <time>2024-11-05T18:39:49.525Z</time>
      </trkpt>
      <trkpt lat="44.03309" lon="3.69224">
        <ele>406.32</ele>
        <time>2024-11-05T18:40:05.459Z</time>
      </trkpt>
      <trkpt lat="44.0324" lon="3.6924">
        <ele>410.5</ele>
        <time>2024-11-05T18:40:21.404Z</time>
      </trkpt>
      <trkpt lat="44.03227" lon="3.69247">
        <ele>411.15</ele>
        <time>2024-11-05T18:40:37.351Z</time>
      </trkpt>
      <trkpt lat="44.03219" lon="3.69254">
        <ele>411.57</ele>
        <time>2024-11-05T18:40:53.300Z</time>
      </trkpt>
      <trkpt lat="44.03202" lon="3.69286">
        <ele>413.02</ele>
        <time>2024-11-05T18:41:09.253Z</time>
      </trkpt>
      <trkpt lat="44.03195" lon="3.69296">
        <ele>413.56</ele>
        <time>2024-11-05T18:41:25.208Z</time>
      </trkpt>
      <trkpt lat="44.03186" lon="3.69301">
        <ele>414.06</ele>
        <time>2024-11-05T18:41:41.164Z</time>
      </trkpt>
      <trkpt lat="44.03173" lon="3.69303">
        <ele>414.73</ele>
        <time>2024-11-05T18:41:57.123Z</time>
      </trkpt>
      <trkpt lat="44.03157" lon="3.69301">
        <ele>415.61</ele>
        <time>2024-11-05T18:42:13.084Z</time>
      </trkpt>
      <trkpt lat="44.03145" lon="3.69294">
        <ele>416.32</ele>
        <time>2024-11-05T18:42:29.047Z</time>
      </trkpt>
      <trkpt lat="44.03134" lon="3.69284">
        <ele>417.04</ele>
        <time>2024-11-05T18:42:45.012Z</time>
      </trkpt>
      <trkpt lat="44.03121" lon="3.69265">
        <ele>418.17</ele>
        <time>2024-11-05T18:43:00.980Z</time>
      </trkpt>
      <trkpt lat="44.03113" lon="3.69258">
        <ele>418.72</ele>
        <time>2024-11-05T18:43:16.950Z</time>
      </trkpt>
      <trkpt lat="44.03088" lon="3.69251">
        <ele>420.21</ele>
        <time>2024-11-05T18:43:32.924Z</time>
      </trkpt>
      <trkpt lat="44.03077" lon="3.69242">
        <ele>420.96</ele>
        <time>2024-11-05T18:43:48.900Z</time>
      </trkpt>
      <trkpt lat="44.03067" lon="3.69223">
        <ele>421.9</ele>
        <time>2024-11-05T18:44:04.879Z</time>
      </trkpt>
      <trkpt lat="44.03058" lon="3.69193">
        <ele>423.04</ele>
        <time>2024-11-05T18:44:20.861Z</time>
      </trkpt>
      <trkpt lat="44.0304" lon="3.69164">
        <ele>424.43</ele>
        <time>2024-11-05T18:44:36.848Z</time>
      </trkpt>
      <trkpt lat="44.03009" lon="3.69115">
        <ele>427.04</ele>
        <time>2024-11-05T18:44:52.842Z</time>
      </trkpt>
      <trkpt lat="44.02996" lon="3.69105">
        <ele>427.87</ele>
        <time>2024-11-05T18:45:08.839Z</time>
      </trkpt>
      <trkpt lat="44.02988" lon="3.69102">
        <ele>428.34</ele>
        <time>2024-11-05T18:45:24.837Z</time>
      </trkpt>
      <trkpt lat="44.02972" lon="3.69107">
        <ele>429.24</ele>
        <time>2024-11-05T18:45:40.838Z</time>
      </trkpt>
      <trkpt lat="44.02966" lon="3.69114">
        <ele>429.69</ele>
        <time>2024-11-05T18:45:56.840Z</time>
      </trkpt>
      <trkpt lat="44.02959" lon="3.6913">
        <ele>430.32</ele>
        <time>2024-11-05T18:46:12.844Z</time>
      </trkpt>
      <trkpt lat="44.0295" lon="3.69204">
        <ele>432.58</ele>
        <time>2024-11-05T18:46:28.857Z</time>
      </trkpt>
      <trkpt lat="44.02946" lon="3.69241">
        <ele>433.92</ele>
        <time>2024-11-05T18:46:44.874Z</time>
      </trkpt>
      <trkpt lat="44.0294" lon="3.69252">
        <ele>434.44</ele>
        <time>2024-11-05T18:47:00.893Z</time>
      </trkpt>
      <trkpt lat="44.02932" lon="3.69261">
        <ele>435.12</ele>
        <time>2024-11-05T18:47:16.913Z</time>
      </trkpt>
      <trkpt lat="44.02906" lon="3.69278">
        <ele>436.59</ele>
        <time>2024-11-05T18:47:32.938Z</time>
      </trkpt>
      <trkpt lat="44.02884" lon="3.69288">
        <ele>437.67</ele>
        <time>2024-11-05T18:47:48.967Z</time>
      </trkpt>
      <trkpt lat="44.0283" lon="3.69297">
        <ele>440.26</ele>
        <time>2024-11-05T18:48:05.004Z</time>
      </trkpt>
      <trkpt lat="44.02817" lon="3.69297">
        <ele>440.92</ele>
        <time>2024-11-05T18:48:21.043Z</time>
      </trkpt>
      <trkpt lat="44.02743" lon="3.69279">
        <ele>444.79</ele>
        <time>2024-11-05T18:48:37.094Z</time>
      </trkpt>
      <trkpt lat="44.02684" lon="3.69257">
        <ele>448.22</ele>
        <time>2024-11-05T18:48:53.155Z</time>
      </trkpt>
      <trkpt lat="44.02639" lon="3.69252">
        <ele>450.37</ele>
        <time>2024-11-05T18:49:09.223Z</time>
      </trkpt>
      <trkpt lat="44.02625" lon="3.69253">
        <ele>451.13</ele>
        <time>2024-11-05T18:49:25.294Z</time>
      </trkpt>
      <trkpt lat="44.02607" lon="3.69257">
        <ele>452.15</ele>
        <time>2024-11-05T18:49:41.368Z</time>
      </trkpt>
      <trkpt lat="44.02594" lon="3.69262">
        <ele>452.84</ele>
        <time>2024-11-05T18:49:57.444Z</time>
      </trkpt>
      <trkpt lat="44.02557" lon="3.69286">
        <ele>454.82</ele>
        <time>2024-11-05T18:50:13.526Z</time>
      </trkpt>
      <trkpt lat="44.02535" lon="3.69307">
        <ele>456.02</ele>
        <time>2024-11-05T18:50:29.613Z</time>
      </trkpt>
      <trkpt lat="44.02526" lon="3.69319">
        <ele>456.68</ele>
        <time>2024-11-05T18:50:45.702Z</time>
      </trkpt>
      <trkpt lat="44.0252" lon="3.69334">
        <ele>457.41</ele>
        <time>2024-11-05T18:51:01.793Z</time>
      </trkpt>
      <trkpt lat="44.02519" lon="3.69346">
        <ele>457.98</ele>
        <time>2024-11-05T18:51:17.885Z</time>
      </trkpt>
      <trkpt lat="44.02528" lon="3.69368">
        <ele>459.04</ele>
        <time>2024-11-05T18:51:33.980Z</time>
      </trkpt>
      <trkpt lat="44.02538" lon="3.69384">
        <ele>459.73</ele>
        <time>2024-11-05T18:51:50.077Z</time>
      </trkpt>
      <trkpt lat="44.0255" lon="3.69398">
        <ele>460.45</ele>
        <time>2024-11-05T18:52:06.177Z</time>
      </trkpt>
      <trkpt lat="44.02568" lon="3.69409">
        <ele>461.47</ele>
        <time>2024-11-05T18:52:22.280Z</time>
      </trkpt>
      <trkpt lat="44.02593" lon="3.69416">
        <ele>462.87</ele>
        <time>2024-11-05T18:52:38.387Z</time>
      </trkpt>
      <trkpt lat="44.02609" lon="3.69418">
        <ele>463.81</ele>
        <time>2024-11-05T18:52:54.497Z</time>
      </trkpt>
      <trkpt lat="44.02637" lon="3.69417">
        <ele>465.58</ele>
        <time>2024-11-05T18:53:10.611Z</time>
      </trkpt>
      <trkpt lat="44.0272" lon="3.69443">
        <ele>470.76</ele>
        <time>2024-11-05T18:53:26.739Z</time>
      </trkpt>
      <trkpt lat="44.02781" lon="3.69452">
        <ele>474.37</ele>
        <time>2024-11-05T18:53:42.876Z</time>
      </trkpt>
      <trkpt lat="44.02804" lon="3.69452">
        <ele>475.75</ele>
        <time>2024-11-05T18:53:59.017Z</time>
      </trkpt>
      <trkpt lat="44.02892" lon="3.69438">
        <ele>481</ele>
        <time>2024-11-05T18:54:15.172Z</time>
      </trkpt>
      <trkpt lat="44.0291" lon="3.69433">
        <ele>482.05</ele>
        <time>2024-11-05T18:54:31.330Z</time>
      </trkpt>
      <trkpt lat="44.02961" lon="3.69395">
        <ele>485.34</ele>
        <time>2024-11-05T18:54:47.498Z</time>
      </trkpt>
      <trkpt lat="44.02977" lon="3.69387">
        <ele>486.43</ele>
        <time>2024-11-05T18:55:03.668Z</time>
      </trkpt>
      <trkpt lat="44.03004" lon="3.69383">
        <ele>488.15</ele>
        <time>2024-11-05T18:55:19.843Z</time>
      </trkpt>
      <trkpt lat="44.03018" lon="3.69389">
        <ele>489.04</ele>
        <time>2024-11-05T18:55:36.020Z</time>
      </trkpt>
      <trkpt lat="44.03038" lon="3.69405">
        <ele>490.45</ele>
        <time>2024-11-05T18:55:52.201Z</time>
      </trkpt>
      <trkpt lat="44.03064" lon="3.69451">
        <ele>492.82</ele>
        <time>2024-11-05T18:56:08.388Z</time>
      </trkpt>
      <trkpt lat="44.03074" lon="3.69464">
        <ele>493.47</ele>
        <time>2024-11-05T18:56:24.578Z</time>
      </trkpt>
      <trkpt lat="44.03083" lon="3.69478">
        <ele>494.02</ele>
        <time>2024-11-05T18:56:40.770Z</time>
      </trkpt>
      <trkpt lat="44.0309" lon="3.69486">
        <ele>493.87</ele>
        <time>2024-11-05T18:56:56.963Z</time>
      </trkpt>
      <trkpt lat="44.03097" lon="3.69493">
        <ele>494.24</ele>
        <time>2024-11-05T18:57:13.158Z</time>
      </trkpt>
      <trkpt lat="44.0314" lon="3.69538">
        <ele>497.21</ele>
        <time>2024-11-05T18:57:29.361Z</time>
      </trkpt>
      <trkpt lat="44.0316" lon="3.69558">
        <ele>498.29</ele>
        <time>2024-11-05T18:57:45.568Z</time>
      </trkpt>
      <trkpt lat="44.03174" lon="3.69575">
        <ele>499.09</ele>
        <time>2024-11-05T18:58:01.778Z</time>
      </trkpt>
      <trkpt lat="44.03197" lon="3.69608">
        <ele>500.44</ele>
        <time>2024-11-05T18:58:17.993Z</time>
      </trkpt>
      <trkpt lat="44.03209" lon="3.69627">
        <ele>501.28</ele>
        <time>2024-11-05T18:58:34.211Z</time>
      </trkpt>
      <trkpt lat="44.03221" lon="3.69646">
        <ele>502.37</ele>
        <time>2024-11-05T18:58:50.432Z</time>
      </trkpt>
      <trkpt lat="44.03247" lon="3.69689">
        <ele>505.38</ele>
        <time>2024-11-05T18:59:06.660Z</time>
      </trkpt>
      <trkpt lat="44.03281" lon="3.69748">
        <ele>510.34</ele>
        <time>2024-11-05T18:59:22.896Z</time>
      </trkpt>
      <trkpt lat="44.03289" lon="3.69757">
        <ele>511.2</ele>
        <time>2024-11-05T18:59:39.134Z</time>
      </trkpt>
      <trkpt lat="44.03295" lon="3.6977">
        <ele>512.07</ele>
        <time>2024-11-05T18:59:55.374Z</time>
      </trkpt>
      <trkpt lat="44.03294" lon="3.69783">
        <ele>512.65</ele>
        <time>2024-11-05T19:00:11.615Z</time>
      </trkpt>
      <trkpt lat="44.0328" lon="3.69807">
        <ele>513.85</ele>
        <time>2024-11-05T19:00:27.860Z</time>
      </trkpt>
      <trkpt lat="44.03261" lon="3.69847">
        <ele>515.47</ele>
        <time>2024-11-05T19:00:44.110Z</time>
      </trkpt>
      <trkpt lat="44.03249" lon="3.69865">
        <ele>516.4</ele>
        <time>2024-11-05T19:01:00.363Z</time>
      </trkpt>
      <trkpt lat="44.03245" lon="3.69877">
        <ele>516.91</ele>
        <time>2024-11-05T19:01:16.618Z</time>
      </trkpt>
      <trkpt lat="44.03246" lon="3.69903">
        <ele>517.89</ele>
        <time>2024-11-05T19:01:32.876Z</time>
      </trkpt>
      <trkpt lat="44.0325" lon="3.69927">
        <ele>518.62</ele>
        <time>2024-11-05T19:01:49.137Z</time>
      </trkpt>
      <trkpt lat="44.03249" lon="3.69933">
        <ele>518.81</ele>
        <time>2024-11-05T19:02:05.398Z</time>
      </trkpt>
      <trkpt lat="44.03235" lon="3.6996">
        <ele>520.05</ele>
        <time>2024-11-05T19:02:21.663Z</time>
      </trkpt>
      <trkpt lat="44.03229" lon="3.6998">
        <ele>521.11</ele>
        <time>2024-11-05T19:02:37.931Z</time>
      </trkpt>
      <trkpt lat="44.03226" lon="3.69995">
        <ele>521.89</ele>
        <time>2024-11-05T19:02:54.201Z</time>
      </trkpt>
      <trkpt lat="44.03226" lon="3.70005">
        <ele>522.48</ele>
        <time>2024-11-05T19:03:10.472Z</time>
      </trkpt>
      <trkpt lat="44.0323" lon="3.7002">
        <ele>523.44</ele>
        <time>2024-11-05T19:03:26.745Z</time>
      </trkpt>
      <trkpt lat="44.03246" lon="3.70047">
        <ele>525.85</ele>
        <time>2024-11-05T19:03:43.022Z</time>
      </trkpt>
      <trkpt lat="44.03252" lon="3.70068">
        <ele>527.01</ele>
        <time>2024-11-05T19:03:59.301Z</time>
      </trkpt>
      <trkpt lat="44.03252" lon="3.70092">
        <ele>528.23</ele>
        <time>2024-11-05T19:04:15.583Z</time>
      </trkpt>
      <trkpt lat="44.03257" lon="3.70145">
        <ele>530.92</ele>
        <time>2024-11-05T19:04:31.871Z</time>
      </trkpt>
      <trkpt lat="44.0327" lon="3.70177">
        <ele>532.78</ele>
        <time>2024-11-05T19:04:48.163Z</time>
      </trkpt>
      <trkpt lat="44.03281" lon="3.70195">
        <ele>534.24</ele>
        <time>2024-11-05T19:05:04.458Z</time>
      </trkpt>
      <trkpt lat="44.03284" lon="3.70204">
        <ele>534.84</ele>
        <time>2024-11-05T19:05:20.754Z</time>
      </trkpt>
      <trkpt lat="44.03288" lon="3.70233">
        <ele>536.71</ele>
        <time>2024-11-05T19:05:37.054Z</time>
      </trkpt>
      <trkpt lat="44.03296" lon="3.70258">
        <ele>538.29</ele>
        <time>2024-11-05T19:05:53.357Z</time>
      </trkpt>
      <trkpt lat="44.03302" lon="3.70267">
        <ele>539.18</ele>
        <time>2024-11-05T19:06:09.661Z</time>
      </trkpt>
      <trkpt lat="44.03313" lon="3.70278">
        <ele>540.43</ele>
        <time>2024-11-05T19:06:25.967Z</time>
      </trkpt>
      <trkpt lat="44.03343" lon="3.70292">
        <ele>543.34</ele>
        <time>2024-11-05T19:06:42.278Z</time>
      </trkpt>
      <trkpt lat="44.03366" lon="3.70295">
        <ele>545.47</ele>
        <time>2024-11-05T19:06:58.593Z</time>
      </trkpt>
      <trkpt lat="44.03376" lon="3.70301">
        <ele>546.36</ele>
        <time>2024-11-05T19:07:14.910Z</time>
      </trkpt>
      <trkpt lat="44.03389" lon="3.70329">
        <ele>547.96</ele>
        <time>2024-11-05T19:07:31.231Z</time>
      </trkpt>
      <trkpt lat="44.03408" lon="3.70357">
        <ele>549.72</ele>
        <time>2024-11-05T19:07:47.556Z</time>
      </trkpt>
      <trkpt lat="44.03417" lon="3.70386">
        <ele>551.3</ele>
        <time>2024-11-05T19:08:03.885Z</time>
      </trkpt>
      <trkpt lat="44.03419" lon="3.70403">
        <ele>552.08</ele>
        <time>2024-11-05T19:08:20.216Z</time>
      </trkpt>
      <trkpt lat="44.03407" lon="3.70456">
        <ele>554.55</ele>
        <time>2024-11-05T19:08:36.553Z</time>
      </trkpt>
      <trkpt lat="44.03387" lon="3.70551">
        <ele>559.52</ele>
        <time>2024-11-05T19:08:52.902Z</time>
      </trkpt>
      <trkpt lat="44.03386" lon="3.70571">
        <ele>560.54</ele>
        <time>2024-11-05T19:09:09.253Z</time>
      </trkpt>
      <trkpt lat="44.03385" lon="3.70598">
        <ele>562.41</ele>
        <time>2024-11-05T19:09:25.607Z</time>
      </trkpt>
      <trkpt lat="44.03399" lon="3.70665">
        <ele>566.56</ele>
        <time>2024-11-05T19:09:41.969Z</time>
      </trkpt>
      <trkpt lat="44.03403" lon="3.70672">
        <ele>567.04</ele>
        <time>2024-11-05T19:09:58.332Z</time>
      </trkpt>
      <trkpt lat="44.03408" lon="3.70677">
        <ele>567.44</ele>
        <time>2024-11-05T19:10:14.696Z</time>
      </trkpt>
      <trkpt lat="44.03448" lon="3.70705">
        <ele>570.66</ele>
        <time>2024-11-05T19:10:31.067Z</time>
      </trkpt>
      <trkpt lat="44.03453" lon="3.70713">
        <ele>571.19</ele>
        <time>2024-11-05T19:10:47.439Z</time>
      </trkpt>
      <trkpt lat="44.0346" lon="3.70734">
        <ele>572.34</ele>
        <time>2024-11-05T19:11:03.814Z</time>
      </trkpt>
      <trkpt lat="44.03466" lon="3.70784">
        <ele>575.04</ele>
        <time>2024-11-05T19:11:20.195Z</time>
      </trkpt>
      <trkpt lat="44.03469" lon="3.70816">
        <ele>576.5</ele>
        <time>2024-11-05T19:11:36.580Z</time>
      </trkpt>
      <trkpt lat="44.03474" lon="3.70841">
        <ele>577.83</ele>
        <time>2024-11-05T19:11:52.968Z</time>
      </trkpt>
      <trkpt lat="44.03496" lon="3.70911">
        <ele>581.55</ele>
        <time>2024-11-05T19:12:09.365Z</time>
      </trkpt>
      <trkpt lat="44.03498" lon="3.70924">
        <ele>582.16</ele>
        <time>2024-11-05T19:12:25.763Z</time>
      </trkpt>
      <trkpt lat="44.03495" lon="3.7095">
        <ele>583.41</ele>
        <time>2024-11-05T19:12:42.164Z</time>
      </trkpt>
      <trkpt lat="44.03485" lon="3.70981">
        <ele>585.1</ele>
        <time>2024-11-05T19:12:58.569Z</time>
      </trkpt>
      <trkpt lat="44.03483" lon="3.70994">
        <ele>585.79</ele>
        <time>2024-11-05T19:13:14.976Z</time>
      </trkpt>
      <trkpt lat="44.03485" lon="3.71006">
        <ele>586.41</ele>
        <time>2024-11-05T19:13:31.384Z</time>
      </trkpt>
      <trkpt lat="44.03488" lon="3.71014">
        <ele>586.87</ele>
        <time>2024-11-05T19:13:47.793Z</time>
      </trkpt>
      <trkpt lat="44.03533" lon="3.71081">
        <ele>591.11</ele>
        <time>2024-11-05T19:14:04.213Z</time>
      </trkpt>
      <trkpt lat="44.03565" lon="3.71107">
        <ele>593.69</ele>
        <time>2024-11-05T19:14:20.639Z</time>
      </trkpt>
      <trkpt lat="44.03618" lon="3.7115">
        <ele>597.46</ele>
        <time>2024-11-05T19:14:37.074Z</time>
      </trkpt>
      <trkpt lat="44.03622" lon="3.7116">
        <ele>597.91</ele>
        <time>2024-11-05T19:14:53.511Z</time>
      </trkpt>
      <trkpt lat="44.03632" lon="3.71224">
        <ele>600.51</ele>
        <time>2024-11-05T19:15:09.955Z</time>
      </trkpt>
      <trkpt lat="44.03635" lon="3.71248">
        <ele>601.22</ele>
        <time>2024-11-05T19:15:26.402Z</time>
      </trkpt>
      <trkpt lat="44.0364" lon="3.71273">
        <ele>601.5</ele>
        <time>2024-11-05T19:15:42.852Z</time>
      </trkpt>
      <trkpt lat="44.03653" lon="3.71351">
        <ele>601.61</ele>
        <time>2024-11-05T19:15:59.311Z</time>
      </trkpt>
      <trkpt lat="44.03659" lon="3.71388">
        <ele>601.94</ele>
        <time>2024-11-05T19:16:15.775Z</time>
      </trkpt>
      <trkpt lat="44.03662" lon="3.71419">
        <ele>602.45</ele>
        <time>2024-11-05T19:16:32.242Z</time>
      </trkpt>
      <trkpt lat="44.03667" lon="3.71464">
        <ele>603.94</ele>
        <time>2024-11-05T19:16:48.715Z</time>
      </trkpt>
      <trkpt lat="44.03676" lon="3.7149">
        <ele>605.11</ele>
        <time>2024-11-05T19:17:05.191Z</time>
      </trkpt>
      <trkpt lat="44.03695" lon="3.71516">
        <ele>606.7</ele>
        <time>2024-11-05T19:17:21.671Z</time>
      </trkpt>
      <trkpt lat="44.03707" lon="3.71528">
        <ele>607.62</ele>
        <time>2024-11-05T19:17:38.153Z</time>
      </trkpt>
      <trkpt lat="44.03717" lon="3.71542">
        <ele>608.45</ele>
        <time>2024-11-05T19:17:54.638Z</time>
      </trkpt>
      <trkpt lat="44.0373" lon="3.71568">
        <ele>609.79</ele>
        <time>2024-11-05T19:18:11.126Z</time>
      </trkpt>
      <trkpt lat="44.03744" lon="3.71604">
        <ele>611.62</ele>
        <time>2024-11-05T19:18:27.619Z</time>
      </trkpt>
      <trkpt lat="44.03768" lon="3.71648">
        <ele>614.09</ele>
        <time>2024-11-05T19:18:44.119Z</time>
      </trkpt>
      <trkpt lat="44.03773" lon="3.71672">
        <ele>615.15</ele>
        <time>2024-11-05T19:19:00.621Z</time>
      </trkpt>
      <trkpt lat="44.03769" lon="3.71694">
        <ele>616.12</ele>
        <time>2024-11-05T19:19:17.126Z</time>
      </trkpt>
      <trkpt lat="44.03752" lon="3.71717">
        <ele>617.91</ele>
        <time>2024-11-05T19:19:33.635Z</time>
      </trkpt>
      <trkpt lat="44.03724" lon="3.71771">
        <ele>620.86</ele>
        <time>2024-11-05T19:19:50.151Z</time>
      </trkpt>
      <trkpt lat="44.03676" lon="3.71832">
        <ele>624.23</ele>
        <time>2024-11-05T19:20:06.678Z</time>
      </trkpt>
      <trkpt lat="44.03658" lon="3.71854">
        <ele>625.34</ele>
        <time>2024-11-05T19:20:23.209Z</time>
      </trkpt>
      <trkpt lat="44.0365" lon="3.71867">
        <ele>625.86</ele>
        <time>2024-11-05T19:20:39.742Z</time>
      </trkpt>
      <trkpt lat="44.03633" lon="3.71918">
        <ele>627.75</ele>
        <time>2024-11-05T19:20:56.281Z</time>
      </trkpt>
      <trkpt lat="44.0363" lon="3.71944">
        <ele>628.7</ele>
        <time>2024-11-05T19:21:12.823Z</time>
      </trkpt>
      <trkpt lat="44.0363" lon="3.71955">
        <ele>629.07</ele>
        <time>2024-11-05T19:21:29.366Z</time>
      </trkpt>
      <trkpt lat="44.03631" lon="3.71979">
        <ele>628.86</ele>
        <time>2024-11-05T19:21:45.912Z</time>
      </trkpt>
      <trkpt lat="44.03633" lon="3.71995">
        <ele>628.44</ele>
        <time>2024-11-05T19:22:02.460Z</time>
      </trkpt>
      <trkpt lat="44.03638" lon="3.72002">
        <ele>628.12</ele>
        <time>2024-11-05T19:22:19.009Z</time>
      </trkpt>
      <trkpt lat="44.03653" lon="3.72015">
        <ele>627.28</ele>
        <time>2024-11-05T19:22:35.561Z</time>
      </trkpt>
      <trkpt lat="44.03671" lon="3.72064">
        <ele>625.32</ele>
        <time>2024-11-05T19:22:52.119Z</time>
      </trkpt>
      <trkpt lat="44.03681" lon="3.72096">
        <ele>624.03</ele>
        <time>2024-11-05T19:23:08.681Z</time>
      </trkpt>
      <trkpt lat="44.03685" lon="3.72102">
        <ele>623.72</ele>
        <time>2024-11-05T19:23:25.244Z</time>
      </trkpt>
      <trkpt lat="44.03729" lon="3.72136">
        <ele>621.42</ele>
        <time>2024-11-05T19:23:41.815Z</time>
      </trkpt>
      <trkpt lat="44.03757" lon="3.72165">
        <ele>619.97</ele>
        <time>2024-11-05T19:23:58.392Z</time>
      </trkpt>
      <trkpt lat="44.03774" lon="3.72172">
        <ele>619.39</ele>
        <time>2024-11-05T19:24:14.972Z</time>
      </trkpt>
      <trkpt lat="44.03796" lon="3.72175">
        <ele>618.67</ele>
        <time>2024-11-05T19:24:31.555Z</time>
      </trkpt>
      <trkpt lat="44.03803" lon="3.72185">
        <ele>618.27</ele>
        <time>2024-11-05T19:24:48.140Z</time>
      </trkpt>
      <trkpt lat="44.03813" lon="3.72218">
        <ele>617.09</ele>
        <time>2024-11-05T19:25:04.729Z</time>
      </trkpt>
      <trkpt lat="44.03822" lon="3.72236">
        <ele>616.34</ele>
        <time>2024-11-05T19:25:21.321Z</time>
      </trkpt>
      <trkpt lat="44.03838" lon="3.7226">
        <ele>615.22</ele>
        <time>2024-11-05T19:25:37.916Z</time>
      </trkpt>
      <trkpt lat="44.03852" lon="3.72312">
        <ele>613.57</ele>
        <time>2024-11-05T19:25:54.518Z</time>
      </trkpt>
      <trkpt lat="44.03854" lon="3.72339">
        <ele>612.91</ele>
        <time>2024-11-05T19:26:11.123Z</time>
      </trkpt>
      <trkpt lat="44.03851" lon="3.72375">
        <ele>612.17</ele>
        <time>2024-11-05T19:26:27.732Z</time>
      </trkpt>
      <trkpt lat="44.03853" lon="3.72388">
        <ele>611.95</ele>
        <time>2024-11-05T19:26:44.343Z</time>
      </trkpt>
      <trkpt lat="44.03846" lon="3.72394">
        <ele>611.76</ele>
        <time>2024-11-05T19:27:00.955Z</time>
      </trkpt>
      <trkpt lat="44.03816" lon="3.72412">
        <ele>610.5</ele>
        <time>2024-11-05T19:27:17.572Z</time>
      </trkpt>
      <trkpt lat="44.03782" lon="3.72437">
        <ele>608.35</ele>
        <time>2024-11-05T19:27:34.195Z</time>
      </trkpt>
      <trkpt lat="44.03715" lon="3.7248">
        <ele>604.33</ele>
        <time>2024-11-05T19:27:50.830Z</time>
      </trkpt>
      <trkpt lat="44.03695" lon="3.72503">
        <ele>603.03</ele>
        <time>2024-11-05T19:28:07.469Z</time>
      </trkpt>
      <trkpt lat="44.03689" lon="3.72513">
        <ele>602.57</ele>
        <time>2024-11-05T19:28:24.110Z</time>
      </trkpt>
      <trkpt lat="44.03681" lon="3.72519">
        <ele>602.06</ele>
        <time>2024-11-05T19:28:40.752Z</time>
      </trkpt>
      <trkpt lat="44.03673" lon="3.72519">
        <ele>601.63</ele>
        <time>2024-11-05T19:28:57.396Z</time>
      </trkpt>
      <trkpt lat="44.03666" lon="3.72516">
        <ele>601.21</ele>
        <time>2024-11-05T19:29:14.041Z</time>
      </trkpt>
      <trkpt lat="44.03652" lon="3.72502">
        <ele>600.17</ele>
        <time>2024-11-05T19:29:30.689Z</time>
      </trkpt>
      <trkpt lat="44.03625" lon="3.72488">
        <ele>598.55</ele>
        <time>2024-11-05T19:29:47.341Z</time>
      </trkpt>
      <trkpt lat="44.03602" lon="3.72489">
        <ele>597.37</ele>
        <time>2024-11-05T19:30:03.997Z</time>
      </trkpt>
      <trkpt lat="44.03585" lon="3.72504">
        <ele>596.57</ele>
        <time>2024-11-05T19:30:20.656Z</time>
      </trkpt>
      <trkpt lat="44.03572" lon="3.72521">
        <ele>595.75</ele>
        <time>2024-11-05T19:30:37.318Z</time>
      </trkpt>
      <trkpt lat="44.03553" lon="3.72546">
        <ele>594.09</ele>
        <time>2024-11-05T19:30:53.984Z</time>
      </trkpt>
      <trkpt lat="44.03536" lon="3.72579">
        <ele>592.36</ele>
        <time>2024-11-05T19:31:10.655Z</time>
      </trkpt>
      <trkpt lat="44.03529" lon="3.72588">
        <ele>591.88</ele>
        <time>2024-11-05T19:31:27.327Z</time>
      </trkpt>
      <trkpt lat="44.03513" lon="3.72601">
        <ele>590.98</ele>
        <time>2024-11-05T19:31:44.002Z</time>
      </trkpt>
      <trkpt lat="44.03479" lon="3.72602">
        <ele>589.36</ele>
        <time>2024-11-05T19:32:00.683Z</time>
      </trkpt>
      <trkpt lat="44.03472" lon="3.72605">
        <ele>589.04</ele>
        <time>2024-11-05T19:32:17.365Z</time>
      </trkpt>
      <trkpt lat="44.03465" lon="3.72616">
        <ele>588.57</ele>
        <time>2024-11-05T19:32:34.049Z</time>
      </trkpt>
      <trkpt lat="44.0344" lon="3.7268">
        <ele>585.8</ele>
        <time>2024-11-05T19:32:50.741Z</time>
      </trkpt>
      <trkpt lat="44.03439" lon="3.7269">
        <ele>585.43</ele>
        <time>2024-11-05T19:33:07.434Z</time>
      </trkpt>
      <trkpt lat="44.03441" lon="3.727">
        <ele>585.03</ele>
        <time>2024-11-05T19:33:24.128Z</time>
      </trkpt>
      <trkpt lat="44.03472" lon="3.72752">
        <ele>582.12</ele>
        <time>2024-11-05T19:33:40.830Z</time>
      </trkpt>
      <trkpt lat="44.03505" lon="3.72825">
        <ele>579.08</ele>
        <time>2024-11-05T19:33:57.542Z</time>
      </trkpt>
      <trkpt lat="44.03509" lon="3.7284">
        <ele>578.48</ele>
        <time>2024-11-05T19:34:14.256Z</time>
      </trkpt>
      <trkpt lat="44.03509" lon="3.72852">
        <ele>578.02</ele>
        <time>2024-11-05T19:34:30.971Z</time>
      </trkpt>
      <trkpt lat="44.03505" lon="3.7288">
        <ele>576.9</ele>
        <time>2024-11-05T19:34:47.690Z</time>
      </trkpt>
      <trkpt lat="44.03496" lon="3.72905">
        <ele>575.92</ele>
        <time>2024-11-05T19:35:04.412Z</time>
      </trkpt>
      <trkpt lat="44.03453" lon="3.72998">
        <ele>571.82</ele>
        <time>2024-11-05T19:35:21.147Z</time>
      </trkpt>
      <trkpt lat="44.03435" lon="3.73038">
        <ele>570.23</ele>
        <time>2024-11-05T19:35:37.887Z</time>
      </trkpt>
      <trkpt lat="44.03402" lon="3.73102">
        <ele>567.15</ele>
        <time>2024-11-05T19:35:54.636Z</time>
      </trkpt>
      <trkpt lat="44.03383" lon="3.73135">
        <ele>565.57</ele>
        <time>2024-11-05T19:36:11.390Z</time>
      </trkpt>
      <trkpt lat="44.03371" lon="3.73153">
        <ele>564.68</ele>
        <time>2024-11-05T19:36:28.147Z</time>
      </trkpt>
      <trkpt lat="44.03333" lon="3.73207">
        <ele>562.01</ele>
        <time>2024-11-05T19:36:44.913Z</time>
      </trkpt>
      <trkpt lat="44.03311" lon="3.73233">
        <ele>560.61</ele>
        <time>2024-11-05T19:37:01.683Z</time>
      </trkpt>
      <trkpt lat="44.03278" lon="3.73263">
        <ele>558.68</ele>
        <time>2024-11-05T19:37:18.460Z</time>
      </trkpt>
      <trkpt lat="44.03246" lon="3.73276">
        <ele>557.21</ele>
        <time>2024-11-05T19:37:35.242Z</time>
      </trkpt>
      <trkpt lat="44.03206" lon="3.73274">
        <ele>555.66</ele>
        <time>2024-11-05T19:37:52.030Z</time>
      </trkpt>
      <trkpt lat="44.03185" lon="3.73278">
        <ele>554.83</ele>
        <time>2024-11-05T19:38:08.822Z</time>
      </trkpt>
      <trkpt lat="44.03139" lon="3.7331">
        <ele>552.25</ele>
        <time>2024-11-05T19:38:25.622Z</time>
      </trkpt>
      <trkpt lat="44.03105" lon="3.73325">
        <ele>550.52</ele>
        <time>2024-11-05T19:38:42.428Z</time>
      </trkpt>
      <trkpt lat="44.03076" lon="3.73336">
        <ele>549.31</ele>
        <time>2024-11-05T19:38:59.238Z</time>
      </trkpt>
      <trkpt lat="44.03062" lon="3.73336">
        <ele>548.79</ele>
        <time>2024-11-05T19:39:16.051Z</time>
      </trkpt>
      <trkpt lat="44.03043" lon="3.73309">
        <ele>547.45</ele>
        <time>2024-11-05T19:39:32.868Z</time>
      </trkpt>
      <trkpt lat="44.03034" lon="3.73305">
        <ele>546.86</ele>
        <time>2024-11-05T19:39:49.687Z</time>
      </trkpt>
      <trkpt lat="44.03026" lon="3.73307">
        <ele>546.32</ele>
        <time>2024-11-05T19:40:06.507Z</time>
      </trkpt>
      <trkpt lat="44.0302" lon="3.73312">
        <ele>545.83</ele>
        <time>2024-11-05T19:40:23.328Z</time>
      </trkpt>
      <trkpt lat="44.03017" lon="3.73319">
        <ele>545.43</ele>
        <time>2024-11-05T19:40:40.150Z</time>
      </trkpt>
      <trkpt lat="44.03015" lon="3.7333">
        <ele>544.89</ele>
        <time>2024-11-05T19:40:56.973Z</time>
      </trkpt>
      <trkpt lat="44.03018" lon="3.73344">
        <ele>544.26</ele>
        <time>2024-11-05T19:41:13.798Z</time>
      </trkpt>
      <trkpt lat="44.03025" lon="3.7335">
        <ele>543.79</ele>
        <time>2024-11-05T19:41:30.624Z</time>
      </trkpt>
      <trkpt lat="44.03036" lon="3.73353">
        <ele>543.31</ele>
        <time>2024-11-05T19:41:47.452Z</time>
      </trkpt>
      <trkpt lat="44.0307" lon="3.73351">
        <ele>542.03</ele>
        <time>2024-11-05T19:42:04.285Z</time>
      </trkpt>
      <trkpt lat="44.03118" lon="3.73348">
        <ele>539.6</ele>
        <time>2024-11-05T19:42:21.126Z</time>
      </trkpt>
      <trkpt lat="44.03156" lon="3.73342">
        <ele>537.76</ele>
        <time>2024-11-05T19:42:37.973Z</time>
      </trkpt>
      <trkpt lat="44.03194" lon="3.73328">
        <ele>535.92</ele>
        <time>2024-11-05T19:42:54.827Z</time>
      </trkpt>
      <trkpt lat="44.03207" lon="3.73326">
        <ele>535.1</ele>
        <time>2024-11-05T19:43:11.683Z</time>
      </trkpt>
      <trkpt lat="44.03216" lon="3.7333">
        <ele>534.45</ele>
        <time>2024-11-05T19:43:28.540Z</time>
      </trkpt>
      <trkpt lat="44.03235" lon="3.73353">
        <ele>532.7</ele>
        <time>2024-11-05T19:43:45.401Z</time>
      </trkpt>
      <trkpt lat="44.03243" lon="3.73355">
        <ele>532.17</ele>
        <time>2024-11-05T19:44:02.263Z</time>
      </trkpt>
      <trkpt lat="44.03259" lon="3.73355">
        <ele>531.12</ele>
        <time>2024-11-05T19:44:19.128Z</time>
      </trkpt>
      <trkpt lat="44.03278" lon="3.7335">
        <ele>530</ele>
        <time>2024-11-05T19:44:35.996Z</time>
      </trkpt>
      <trkpt lat="44.03339" lon="3.73342">
        <ele>526.64</ele>
        <time>2024-11-05T19:44:52.874Z</time>
      </trkpt>
      <trkpt lat="44.03355" lon="3.73338">
        <ele>525.77</ele>
        <time>2024-11-05T19:45:09.755Z</time>
      </trkpt>
      <trkpt lat="44.03364" lon="3.73334">
        <ele>525.28</ele>
        <time>2024-11-05T19:45:26.637Z</time>
      </trkpt>
      <trkpt lat="44.03379" lon="3.73317">
        <ele>524.35</ele>
        <time>2024-11-05T19:45:43.522Z</time>
      </trkpt>
      <trkpt lat="44.03388" lon="3.73311">
        <ele>523.91</ele>
        <time>2024-11-05T19:46:00.409Z</time>
      </trkpt>
      <trkpt lat="44.03399" lon="3.73309">
        <ele>523.28</ele>
        <time>2024-11-05T19:46:17.298Z</time>
      </trkpt>
      <trkpt lat="44.03417" lon="3.7331">
        <ele>522.23</ele>
        <time>2024-11-05T19:46:34.189Z</time>
      </trkpt>
      <trkpt lat="44.0343" lon="3.73306">
        <ele>521.42</ele>
        <time>2024-11-05T19:46:51.083Z</time>
      </trkpt>
      <trkpt lat="44.03437" lon="3.73301">
        <ele>520.95</ele>
        <time>2024-11-05T19:47:07.978Z</time>
      </trkpt>
      <trkpt lat="44.03445" lon="3.73283">
        <ele>520.05</ele>
        <time>2024-11-05T19:47:24.875Z</time>
      </trkpt>
      <trkpt lat="44.03453" lon="3.73245">
        <ele>518.53</ele>
        <time>2024-11-05T19:47:41.777Z</time>
      </trkpt>
      <trkpt lat="44.03458" lon="3.73236">
        <ele>518.13</ele>
        <time>2024-11-05T19:47:58.680Z</time>
      </trkpt>
      <trkpt lat="44.03477" lon="3.73228">
        <ele>517.07</ele>
        <time>2024-11-05T19:48:15.586Z</time>
      </trkpt>
      <trkpt lat="44.03487" lon="3.73221">
        <ele>516.46</ele>
        <time>2024-11-05T19:48:32.494Z</time>
      </trkpt>
      <trkpt lat="44.03494" lon="3.73212">
        <ele>515.94</ele>
        <time>2024-11-05T19:48:49.404Z</time>
      </trkpt>
      <trkpt lat="44.03508" lon="3.7318">
        <ele>514.47</ele>
        <time>2024-11-05T19:49:06.318Z</time>
      </trkpt>
      <trkpt lat="44.03525" lon="3.73132">
        <ele>512.45</ele>
        <time>2024-11-05T19:49:23.238Z</time>
      </trkpt>
      <trkpt lat="44.03528" lon="3.731">
        <ele>511.17</ele>
        <time>2024-11-05T19:49:40.162Z</time>
      </trkpt>
      <trkpt lat="44.03532" lon="3.73094">
        <ele>510.84</ele>
        <time>2024-11-05T19:49:57.087Z</time>
      </trkpt>
      <trkpt lat="44.03564" lon="3.73075">
        <ele>508.9</ele>
        <time>2024-11-05T19:50:14.017Z</time>
      </trkpt>
      <trkpt lat="44.03578" lon="3.73049">
        <ele>507.76</ele>
        <time>2024-11-05T19:50:30.951Z</time>
      </trkpt>
      <trkpt lat="44.03584" lon="3.73041">
        <ele>507.4</ele>
        <time>2024-11-05T19:50:47.886Z</time>
      </trkpt>
      <trkpt lat="44.03622" lon="3.73008">
        <ele>505.24</ele>
        <time>2024-11-05T19:51:04.829Z</time>
      </trkpt>
      <trkpt lat="44.03634" lon="3.72991">
        <ele>504.35</ele>
        <time>2024-11-05T19:51:21.774Z</time>
      </trkpt>
      <trkpt lat="44.03644" lon="3.72971">
        <ele>503.4</ele>
        <time>2024-11-05T19:51:38.722Z</time>
      </trkpt>
      <trkpt lat="44.03664" lon="3.72901">
        <ele>500.82</ele>
        <time>2024-11-05T19:51:55.679Z</time>
      </trkpt>
      <trkpt lat="44.03667" lon="3.72868">
        <ele>499.7</ele>
        <time>2024-11-05T19:52:12.640Z</time>
      </trkpt>
      <trkpt lat="44.0367" lon="3.72852">
        <ele>499.19</ele>
        <time>2024-11-05T19:52:29.603Z</time>
      </trkpt>
      <trkpt lat="44.03675" lon="3.72841">
        <ele>498.8</ele>
        <time>2024-11-05T19:52:46.567Z</time>
      </trkpt>
      <trkpt lat="44.03687" lon="3.72834">
        <ele>498.22</ele>
        <time>2024-11-05T19:53:03.533Z</time>
      </trkpt>
      <trkpt lat="44.03695" lon="3.72836">
        <ele>497.85</ele>
        <time>2024-11-05T19:53:20.500Z</time>
      </trkpt>
      <trkpt lat="44.03701" lon="3.7284">
        <ele>497.44</ele>
        <time>2024-11-05T19:53:37.469Z</time>
      </trkpt>
      <trkpt lat="44.03704" lon="3.72846">
        <ele>497.1</ele>
        <time>2024-11-05T19:53:54.438Z</time>
      </trkpt>
      <trkpt lat="44.03705" lon="3.72855">
        <ele>496.65</ele>
        <time>2024-11-05T19:54:11.408Z</time>
      </trkpt>
      <trkpt lat="44.03702" lon="3.72884">
        <ele>495.21</ele>
        <time>2024-11-05T19:54:28.382Z</time>
      </trkpt>
      <trkpt lat="44.03702" lon="3.729">
        <ele>494.38</ele>
        <time>2024-11-05T19:54:45.358Z</time>
      </trkpt>
      <trkpt lat="44.03706" lon="3.72925">
        <ele>493.28</ele>
        <time>2024-11-05T19:55:02.337Z</time>
      </trkpt>
      <trkpt lat="44.03712" lon="3.72945">
        <ele>492.48</ele>
        <time>2024-11-05T19:55:19.318Z</time>
      </trkpt>
      <trkpt lat="44.03715" lon="3.7295">
        <ele>492.27</ele>
        <time>2024-11-05T19:55:36.300Z</time>
      </trkpt>
      <trkpt lat="44.0372" lon="3.72953">
        <ele>492.04</ele>
        <time>2024-11-05T19:55:53.283Z</time>
      </trkpt>
      <trkpt lat="44.03728" lon="3.72952">
        <ele>491.71</ele>
        <time>2024-11-05T19:56:10.267Z</time>
      </trkpt>
      <trkpt lat="44.03737" lon="3.72958">
        <ele>491.34</ele>
        <time>2024-11-05T19:56:27.253Z</time>
      </trkpt>
      <trkpt lat="44.03741" lon="3.72964">
        <ele>491.14</ele>
        <time>2024-11-05T19:56:44.240Z</time>
      </trkpt>
      <trkpt lat="44.03743" lon="3.72978">
        <ele>491.03</ele>
        <time>2024-11-05T19:57:01.228Z</time>
      </trkpt>
      <trkpt lat="44.03738" lon="3.72994">
        <ele>490.88</ele>
        <time>2024-11-05T19:57:18.218Z</time>
      </trkpt>
      <trkpt lat="44.03693" lon="3.73051">
        <ele>487.27</ele>
        <time>2024-11-05T19:57:35.218Z</time>
      </trkpt>
      <trkpt lat="44.0368" lon="3.73084">
        <ele>485.81</ele>
        <time>2024-11-05T19:57:52.222Z</time>
      </trkpt>
      <trkpt lat="44.03665" lon="3.73146">
        <ele>483.09</ele>
        <time>2024-11-05T19:58:09.234Z</time>
      </trkpt>
      <trkpt lat="44.03658" lon="3.73163">
        <ele>482.17</ele>
        <time>2024-11-05T19:58:26.248Z</time>
      </trkpt>
      <trkpt lat="44.0362" lon="3.73227">
        <ele>478.43</ele>
        <time>2024-11-05T19:58:43.272Z</time>
      </trkpt>
      <trkpt lat="44.03614" lon="3.73241">
        <ele>477.76</ele>
        <time>2024-11-05T19:59:00.298Z</time>
      </trkpt>
      <trkpt lat="44.03604" lon="3.73275">
        <ele>476.24</ele>
        <time>2024-11-05T19:59:17.328Z</time>
      </trkpt>
      <trkpt lat="44.03585" lon="3.73301">
        <ele>474.69</ele>
        <time>2024-11-05T19:59:34.362Z</time>
      </trkpt>
      <trkpt lat="44.0356" lon="3.73375">
        <ele>471.43</ele>
        <time>2024-11-05T19:59:51.406Z</time>
      </trkpt>
      <trkpt lat="44.03551" lon="3.73389">
        <ele>470.74</ele>
        <time>2024-11-05T20:00:08.452Z</time>
      </trkpt>
      <trkpt lat="44.03537" lon="3.73401">
        <ele>469.81</ele>
        <time>2024-11-05T20:00:25.500Z</time>
      </trkpt>
      <trkpt lat="44.03521" lon="3.73428">
        <ele>468.28</ele>
        <time>2024-11-05T20:00:42.552Z</time>
      </trkpt>
      <trkpt lat="44.03518" lon="3.7344">
        <ele>467.73</ele>
        <time>2024-11-05T20:00:59.606Z</time>
      </trkpt>
      <trkpt lat="44.03517" lon="3.73455">
        <ele>467.13</ele>
        <time>2024-11-05T20:01:16.662Z</time>
      </trkpt>
      <trkpt lat="44.0352" lon="3.73499">
        <ele>465.4</ele>
        <time>2024-11-05T20:01:33.723Z</time>
      </trkpt>
      <trkpt lat="44.03517" lon="3.73516">
        <ele>464.67</ele>
        <time>2024-11-05T20:01:50.786Z</time>
      </trkpt>
      <trkpt lat="44.03514" lon="3.73526">
        <ele>464.23</ele>
        <time>2024-11-05T20:02:07.850Z</time>
      </trkpt>
      <trkpt lat="44.03504" lon="3.73554">
        <ele>463.57</ele>
        <time>2024-11-05T20:02:24.918Z</time>
      </trkpt>
      <trkpt lat="44.03502" lon="3.73569">
        <ele>463.34</ele>
        <time>2024-11-05T20:02:41.987Z</time>
      </trkpt>
      <trkpt lat="44.03504" lon="3.73579">
        <ele>463.25</ele>
        <time>2024-11-05T20:02:59.057Z</time>
      </trkpt>
      <trkpt lat="44.03507" lon="3.73585">
        <ele>463.2</ele>
        <time>2024-11-05T20:03:16.128Z</time>
      </trkpt>
      <trkpt lat="44.03515" lon="3.73591">
        <ele>462.94</ele>
        <time>2024-11-05T20:03:33.201Z</time>
      </trkpt>
      <trkpt lat="44.03525" lon="3.7359">
        <ele>462.57</ele>
        <time>2024-11-05T20:03:50.275Z</time>
      </trkpt>
      <trkpt lat="44.03531" lon="3.73585">
        <ele>462.33</ele>
        <time>2024-11-05T20:04:07.350Z</time>
      </trkpt>
      <trkpt lat="44.0354" lon="3.73565">
        <ele>461.73</ele>
        <time>2024-11-05T20:04:24.428Z</time>
      </trkpt>
      <trkpt lat="44.03546" lon="3.73556">
        <ele>461.36</ele>
        <time>2024-11-05T20:04:41.508Z</time>
      </trkpt>
      <trkpt lat="44.03559" lon="3.7355">
        <ele>460.66</ele>
        <time>2024-11-05T20:04:58.590Z</time>
      </trkpt>
      <trkpt lat="44.03566" lon="3.73552">
        <ele>460.23</ele>
        <time>2024-11-05T20:05:15.673Z</time>
      </trkpt>
      <trkpt lat="44.03573" lon="3.73568">
        <ele>459.31</ele>
        <time>2024-11-05T20:05:32.758Z</time>
      </trkpt>
      <trkpt lat="44.03571" lon="3.73586">
        <ele>458.32</ele>
        <time>2024-11-05T20:05:49.845Z</time>
      </trkpt>
      <trkpt lat="44.03562" lon="3.73597">
        <ele>457.41</ele>
        <time>2024-11-05T20:06:06.934Z</time>
      </trkpt>
      <trkpt lat="44.03543" lon="3.73602">
        <ele>456.01</ele>
        <time>2024-11-05T20:06:24.026Z</time>
      </trkpt>
      <trkpt lat="44.03531" lon="3.73608">
        <ele>455.13</ele>
        <time>2024-11-05T20:06:41.120Z</time>
      </trkpt>
      <trkpt lat="44.03502" lon="3.73631">
        <ele>452.68</ele>
        <time>2024-11-05T20:06:58.220Z</time>
      </trkpt>
      <trkpt lat="44.03488" lon="3.73638">
        <ele>451.68</ele>
        <time>2024-11-05T20:07:15.322Z</time>
      </trkpt>
      <trkpt lat="44.03483" lon="3.73637">
        <ele>451.35</ele>
        <time>2024-11-05T20:07:32.425Z</time>
      </trkpt>
      <trkpt lat="44.03464" lon="3.73627">
        <ele>450.7</ele>
        <time>2024-11-05T20:07:49.531Z</time>
      </trkpt>
      <trkpt lat="44.03456" lon="3.73598">
        <ele>450.1</ele>
        <time>2024-11-05T20:08:06.641Z</time>
      </trkpt>
      <trkpt lat="44.03457" lon="3.73592">
        <ele>449.96</ele>
        <time>2024-11-05T20:08:23.751Z</time>
      </trkpt>
      <trkpt lat="44.03456" lon="3.73587">
        <ele>449.83</ele>
        <time>2024-11-05T20:08:40.862Z</time>
      </trkpt>
      <trkpt lat="44.03453" lon="3.73578">
        <ele>449.15</ele>
        <time>2024-11-05T20:08:57.974Z</time>
      </trkpt>
      <trkpt lat="44.03444" lon="3.73568">
        <ele>448.01</ele>
        <time>2024-11-05T20:09:15.088Z</time>
      </trkpt>
      <trkpt lat="44.03436" lon="3.73563">
        <ele>447.19</ele>
        <time>2024-11-05T20:09:32.203Z</time>
      </trkpt>
      <trkpt lat="44.03419" lon="3.7355">
        <ele>444.29</ele>
        <time>2024-11-05T20:09:49.321Z</time>
      </trkpt>
      <trkpt lat="44.03406" lon="3.73544">
        <ele>442.4</ele>
        <time>2024-11-05T20:10:06.442Z</time>
      </trkpt>
      <trkpt lat="44.03386" lon="3.7354">
        <ele>439.82</ele>
        <time>2024-11-05T20:10:23.566Z</time>
      </trkpt>
      <trkpt lat="44.03379" lon="3.73533">
        <ele>438.81</ele>
        <time>2024-11-05T20:10:40.691Z</time>
      </trkpt>
      <trkpt lat="44.03365" lon="3.7352">
        <ele>437.4</ele>
        <time>2024-11-05T20:10:57.819Z</time>
      </trkpt>
      <trkpt lat="44.03354" lon="3.73516">
        <ele>436.57</ele>
        <time>2024-11-05T20:11:14.949Z</time>
      </trkpt>
      <trkpt lat="44.03343" lon="3.73517">
        <ele>435.84</ele>
        <time>2024-11-05T20:11:32.081Z</time>
      </trkpt>
      <trkpt lat="44.03325" lon="3.73522">
        <ele>434.88</ele>
        <time>2024-11-05T20:11:49.215Z</time>
      </trkpt>
      <trkpt lat="44.03308" lon="3.73526">
        <ele>434.19</ele>
        <time>2024-11-05T20:12:06.352Z</time>
      </trkpt>
      <trkpt lat="44.03297" lon="3.73535">
        <ele>433.86</ele>
        <time>2024-11-05T20:12:23.491Z</time>
      </trkpt>
      <trkpt lat="44.03276" lon="3.73569">
        <ele>433.4</ele>
        <time>2024-11-05T20:12:40.635Z</time>
      </trkpt>
      <trkpt lat="44.03246" lon="3.73606">
        <ele>433.01</ele>
        <time>2024-11-05T20:12:57.786Z</time>
      </trkpt>
      <trkpt lat="44.03231" lon="3.73621">
        <ele>432.38</ele>
        <time>2024-11-05T20:13:14.940Z</time>
      </trkpt>
      <trkpt lat="44.03213" lon="3.73629">
        <ele>431.46</ele>
        <time>2024-11-05T20:13:32.097Z</time>
      </trkpt>
      <trkpt lat="44.03206" lon="3.73634">
        <ele>431.09</ele>
        <time>2024-11-05T20:13:49.255Z</time>
      </trkpt>
      <trkpt lat="44.03173" lon="3.73679">
        <ele>429.17</ele>
        <time>2024-11-05T20:14:06.421Z</time>
      </trkpt>
      <trkpt lat="44.03148" lon="3.73705">
        <ele>427.78</ele>
        <time>2024-11-05T20:14:23.592Z</time>
      </trkpt>
      <trkpt lat="44.0314" lon="3.73708">
        <ele>427.41</ele>
        <time>2024-11-05T20:14:40.764Z</time>
      </trkpt>
      <trkpt lat="44.03132" lon="3.73706">
        <ele>426.91</ele>
        <time>2024-11-05T20:14:57.937Z</time>
      </trkpt>
      <trkpt lat="44.03124" lon="3.73695">
        <ele>426.16</ele>
        <time>2024-11-05T20:15:15.112Z</time>
      </trkpt>
      <trkpt lat="44.03099" lon="3.73639">
        <ele>422.18</ele>
        <time>2024-11-05T20:15:32.295Z</time>
      </trkpt>
      <trkpt lat="44.03091" lon="3.7362">
        <ele>421.08</ele>
        <time>2024-11-05T20:15:49.480Z</time>
      </trkpt>
      <trkpt lat="44.03076" lon="3.73616">
        <ele>420.15</ele>
        <time>2024-11-05T20:16:06.668Z</time>
      </trkpt>
      <trkpt lat="44.0303" lon="3.73613">
        <ele>418.26</ele>
        <time>2024-11-05T20:16:23.863Z</time>
      </trkpt>
      <trkpt lat="44.03018" lon="3.73614">
        <ele>417.85</ele>
        <time>2024-11-05T20:16:41.060Z</time>
      </trkpt>
      <trkpt lat="44.03008" lon="3.73619">
        <ele>417.49</ele>
        <time>2024-11-05T20:16:58.259Z</time>
      </trkpt>
      <trkpt lat="44.02997" lon="3.73627">
        <ele>417.04</ele>
        <time>2024-11-05T20:17:15.460Z</time>
      </trkpt>
      <trkpt lat="44.02972" lon="3.73653">
        <ele>415.56</ele>
        <time>2024-11-05T20:17:32.666Z</time>
      </trkpt>
      <trkpt lat="44.02953" lon="3.73677">
        <ele>414.18</ele>
        <time>2024-11-05T20:17:49.876Z</time>
      </trkpt>
      <trkpt lat="44.02926" lon="3.73722">
        <ele>411.86</ele>
        <time>2024-11-05T20:18:07.092Z</time>
      </trkpt>
      <trkpt lat="44.0292" lon="3.73728">
        <ele>411.34</ele>
        <time>2024-11-05T20:18:24.310Z</time>
      </trkpt>
      <trkpt lat="44.02909" lon="3.73733">
        <ele>410.59</ele>
        <time>2024-11-05T20:18:41.529Z</time>
      </trkpt>
      <trkpt lat="44.02868" lon="3.7374">
        <ele>407.34</ele>
        <time>2024-11-05T20:18:58.755Z</time>
      </trkpt>
      <trkpt lat="44.02859" lon="3.73733">
        <ele>406.52</ele>
        <time>2024-11-05T20:19:15.983Z</time>
      </trkpt>
      <trkpt lat="44.02853" lon="3.73725">
        <ele>405.68</ele>
        <time>2024-11-05T20:19:33.212Z</time>
      </trkpt>
      <trkpt lat="44.02847" lon="3.737">
        <ele>403.57</ele>
        <time>2024-11-05T20:19:50.444Z</time>
      </trkpt>
      <trkpt lat="44.0284" lon="3.73686">
        <ele>402.2</ele>
        <time>2024-11-05T20:20:07.678Z</time>
      </trkpt>
      <trkpt lat="44.02817" lon="3.73654">
        <ele>398.71</ele>
        <time>2024-11-05T20:20:24.917Z</time>
      </trkpt>
      <trkpt lat="44.02813" lon="3.73644">
        <ele>397.83</ele>
        <time>2024-11-05T20:20:42.158Z</time>
      </trkpt>
      <trkpt lat="44.02806" lon="3.73612">
        <ele>395.3</ele>
        <time>2024-11-05T20:20:59.402Z</time>
      </trkpt>
      <trkpt lat="44.02801" lon="3.73605">
        <ele>394.61</ele>
        <time>2024-11-05T20:21:16.648Z</time>
      </trkpt>
      <trkpt lat="44.02785" lon="3.73592">
        <ele>392.92</ele>
        <time>2024-11-05T20:21:33.897Z</time>
      </trkpt>
      <trkpt lat="44.0277" lon="3.73567">
        <ele>390.78</ele>
        <time>2024-11-05T20:21:51.149Z</time>
      </trkpt>
      <trkpt lat="44.02763" lon="3.7356">
        <ele>390.04</ele>
        <time>2024-11-05T20:22:08.403Z</time>
      </trkpt>
      <trkpt lat="44.02735" lon="3.73551">
        <ele>387.74</ele>
        <time>2024-11-05T20:22:25.661Z</time>
      </trkpt>
      <trkpt lat="44.02707" lon="3.73524">
        <ele>385.06</ele>
        <time>2024-11-05T20:22:42.925Z</time>
      </trkpt>
      <trkpt lat="44.02661" lon="3.73492">
        <ele>381.72</ele>
        <time>2024-11-05T20:23:00.197Z</time>
      </trkpt>
      <trkpt lat="44.02626" lon="3.73473">
        <ele>379.65</ele>
        <time>2024-11-05T20:23:17.475Z</time>
      </trkpt>
      <trkpt lat="44.02594" lon="3.73465">
        <ele>377.99</ele>
        <time>2024-11-05T20:23:34.758Z</time>
      </trkpt>
      <trkpt lat="44.02587" lon="3.73461">
        <ele>377.52</ele>
        <time>2024-11-05T20:23:52.042Z</time>
      </trkpt>
      <trkpt lat="44.02584" lon="3.73454">
        <ele>377.13</ele>
        <time>2024-11-05T20:24:09.327Z</time>
      </trkpt>
      <trkpt lat="44.02583" lon="3.73396">
        <ele>373.75</ele>
        <time>2024-11-05T20:24:26.619Z</time>
      </trkpt>
      <trkpt lat="44.0258" lon="3.73344">
        <ele>370.87</ele>
        <time>2024-11-05T20:24:43.917Z</time>
      </trkpt>
      <trkpt lat="44.02566" lon="3.73291">
        <ele>368.2</ele>
        <time>2024-11-05T20:25:01.222Z</time>
      </trkpt>
      <trkpt lat="44.02568" lon="3.73285">
        <ele>367.81</ele>
        <time>2024-11-05T20:25:18.527Z</time>
      </trkpt>
      <trkpt lat="44.02588" lon="3.73281">
        <ele>366.16</ele>
        <time>2024-11-05T20:25:35.836Z</time>
      </trkpt>
      <trkpt lat="44.02593" lon="3.73275">
        <ele>365.6</ele>
        <time>2024-11-05T20:25:53.146Z</time>
      </trkpt>
      <trkpt lat="44.02595" lon="3.73261">
        <ele>364.74</ele>
        <time>2024-11-05T20:26:10.457Z</time>
      </trkpt>
      <trkpt lat="44.02591" lon="3.73254">
        <ele>364.22</ele>
        <time>2024-11-05T20:26:27.769Z</time>
      </trkpt>
      <trkpt lat="44.02581" lon="3.73246">
        <ele>363.28</ele>
        <time>2024-11-05T20:26:45.083Z</time>
      </trkpt>
      <trkpt lat="44.0257" lon="3.73241">
        <ele>362.34</ele>
        <time>2024-11-05T20:27:02.399Z</time>
      </trkpt>
      <trkpt lat="44.02546" lon="3.73239">
        <ele>360.43</ele>
        <time>2024-11-05T20:27:19.719Z</time>
      </trkpt>
      <trkpt lat="44.02524" lon="3.73245">
        <ele>358.77</ele>
        <time>2024-11-05T20:27:37.042Z</time>
      </trkpt>
      <trkpt lat="44.02515" lon="3.73245">
        <ele>358.04</ele>
        <time>2024-11-05T20:27:54.367Z</time>
      </trkpt>
      <trkpt lat="44.02508" lon="3.73242">
        <ele>357.34</ele>
        <time>2024-11-05T20:28:11.693Z</time>
      </trkpt>
      <trkpt lat="44.02496" lon="3.73225">
        <ele>355.75</ele>
        <time>2024-11-05T20:28:29.022Z</time>
      </trkpt>
      <trkpt lat="44.0249" lon="3.7321">
        <ele>354.6</ele>
        <time>2024-11-05T20:28:46.353Z</time>
      </trkpt>
      <trkpt lat="44.02486" lon="3.73183">
        <ele>352.8</ele>
        <time>2024-11-05T20:29:03.687Z</time>
      </trkpt>
      <trkpt lat="44.02487" lon="3.73151">
        <ele>351.15</ele>
        <time>2024-11-05T20:29:21.025Z</time>
      </trkpt>
      <trkpt lat="44.02486" lon="3.73144">
        <ele>350.89</ele>
        <time>2024-11-05T20:29:38.363Z</time>
      </trkpt>
      <trkpt lat="44.02471" lon="3.73131">
        <ele>349.99</ele>
        <time>2024-11-05T20:29:55.704Z</time>
      </trkpt>
      <trkpt lat="44.02449" lon="3.73113">
        <ele>348.95</ele>
        <time>2024-11-05T20:30:13.049Z</time>
      </trkpt>
      <trkpt lat="44.02434" lon="3.73088">
        <ele>348.08</ele>
        <time>2024-11-05T20:30:30.398Z</time>
      </trkpt>
      <trkpt lat="44.02389" lon="3.73064">
        <ele>346.29</ele>
        <time>2024-11-05T20:30:47.755Z</time>
      </trkpt>
      <trkpt lat="44.0235" lon="3.73056">
        <ele>345.13</ele>
        <time>2024-11-05T20:31:05.118Z</time>
      </trkpt>
      <trkpt lat="44.0233" lon="3.73056">
        <ele>344.69</ele>
        <time>2024-11-05T20:31:22.484Z</time>
      </trkpt>
      <trkpt lat="44.02299" lon="3.73059">
        <ele>343.86</ele>
        <time>2024-11-05T20:31:39.855Z</time>
      </trkpt>
      <trkpt lat="44.0229" lon="3.73056">
        <ele>343.5</ele>
        <time>2024-11-05T20:31:57.228Z</time>
      </trkpt>
      <trkpt lat="44.02279" lon="3.73044">
        <ele>342.9</ele>
        <time>2024-11-05T20:32:14.603Z</time>
      </trkpt>
      <trkpt lat="44.02265" lon="3.73029">
        <ele>342.39</ele>
        <time>2024-11-05T20:32:31.981Z</time>
      </trkpt>
      <trkpt lat="44.0222" lon="3.73003">
        <ele>341.76</ele>
        <time>2024-11-05T20:32:49.367Z</time>
      </trkpt>
      <trkpt lat="44.02202" lon="3.72988">
        <ele>341.29</ele>
        <time>2024-11-05T20:33:06.756Z</time>
      </trkpt>
      <trkpt lat="44.02185" lon="3.72961">
        <ele>340.04</ele>
        <time>2024-11-05T20:33:24.149Z</time>
      </trkpt>
      <trkpt lat="44.02175" lon="3.72948">
        <ele>339.29</ele>
        <time>2024-11-05T20:33:41.544Z</time>
      </trkpt>
      <trkpt lat="44.02156" lon="3.72933">
        <ele>338.12</ele>
        <time>2024-11-05T20:33:58.943Z</time>
      </trkpt>
      <trkpt lat="44.02141" lon="3.72929">
        <ele>337.33</ele>
        <time>2024-11-05T20:34:16.344Z</time>
      </trkpt>
      <trkpt lat="44.0213" lon="3.7293">
        <ele>336.74</ele>
        <time>2024-11-05T20:34:33.747Z</time>
      </trkpt>
      <trkpt lat="44.02119" lon="3.72934">
        <ele>336.12</ele>
        <time>2024-11-05T20:34:51.152Z</time>
      </trkpt>
      <trkpt lat="44.02093" lon="3.72954">
        <ele>334.23</ele>
        <time>2024-11-05T20:35:08.562Z</time>
      </trkpt>
      <trkpt lat="44.0208" lon="3.72971">
        <ele>332.95</ele>
        <time>2024-11-05T20:35:25.975Z</time>
      </trkpt>
      <trkpt lat="44.02067" lon="3.72997">
        <ele>331.4</ele>
        <time>2024-11-05T20:35:43.391Z</time>
      </trkpt>
      <trkpt lat="44.0206" lon="3.73038">
        <ele>329.3</ele>
        <time>2024-11-05T20:36:00.812Z</time>
      </trkpt>
      <trkpt lat="44.02048" lon="3.73062">
        <ele>327.72</ele>
        <time>2024-11-05T20:36:18.236Z</time>
      </trkpt>
      <trkpt lat="44.02043" lon="3.73065">
        <ele>327.27</ele>
        <time>2024-11-05T20:36:35.661Z</time>
      </trkpt>
      <trkpt lat="44.02032" lon="3.73062">
        <ele>326.31</ele>
        <time>2024-11-05T20:36:53.088Z</time>
      </trkpt>
      <trkpt lat="44.02009" lon="3.73047">
        <ele>324.04</ele>
        <time>2024-11-05T20:37:10.519Z</time>
      </trkpt>
      <trkpt lat="44.01987" lon="3.73037">
        <ele>322.33</ele>
        <time>2024-11-05T20:37:27.954Z</time>
      </trkpt>
      <trkpt lat="44.0195" lon="3.73004">
        <ele>319.27</ele>
        <time>2024-11-05T20:37:45.396Z</time>
      </trkpt>
      <trkpt lat="44.01929" lon="3.72984">
        <ele>317.7</ele>
        <time>2024-11-05T20:38:02.842Z</time>
      </trkpt>
      <trkpt lat="44.01921" lon="3.72973">
        <ele>317.01</ele>
        <time>2024-11-05T20:38:20.290Z</time>
      </trkpt>
      <trkpt lat="44.01916" lon="3.72959">
        <ele>316.33</ele>
        <time>2024-11-05T20:38:37.740Z</time>
      </trkpt>
      <trkpt lat="44.01914" lon="3.72944">
        <ele>315.62</ele>
        <time>2024-11-05T20:38:55.191Z</time>
      </trkpt>
      <trkpt lat="44.01921" lon="3.72896">
        <ele>313.45</ele>
        <time>2024-11-05T20:39:12.648Z</time>
      </trkpt>
      <trkpt lat="44.01927" lon="3.72853">
        <ele>311.99</ele>
        <time>2024-11-05T20:39:30.110Z</time>
      </trkpt>
      <trkpt lat="44.01926" lon="3.72834">
        <ele>311.48</ele>
        <time>2024-11-05T20:39:47.574Z</time>
      </trkpt>
      <trkpt lat="44.01915" lon="3.72781">
        <ele>310.23</ele>
        <time>2024-11-05T20:40:05.045Z</time>
      </trkpt>
      <trkpt lat="44.01909" lon="3.72725">
        <ele>309.04</ele>
        <time>2024-11-05T20:40:22.522Z</time>
      </trkpt>
      <trkpt lat="44.01908" lon="3.72682">
        <ele>307.54</ele>
        <time>2024-11-05T20:40:40.004Z</time>
      </trkpt>
      <trkpt lat="44.01909" lon="3.72655">
        <ele>306.59</ele>
        <time>2024-11-05T20:40:57.489Z</time>
      </trkpt>
      <trkpt lat="44.01916" lon="3.72636">
        <ele>305.9</ele>
        <time>2024-11-05T20:41:14.977Z</time>
      </trkpt>
      <trkpt lat="44.01941" lon="3.7262">
        <ele>305</ele>
        <time>2024-11-05T20:41:32.469Z</time>
      </trkpt>
      <trkpt lat="44.01946" lon="3.72617">
        <ele>304.94</ele>
        <time>2024-11-05T20:41:49.962Z</time>
      </trkpt>
      <trkpt lat="44.01952" lon="3.7261">
        <ele>304.9</ele>
        <time>2024-11-05T20:42:07.456Z</time>
      </trkpt>
      <trkpt lat="44.01965" lon="3.7257">
        <ele>305.1</ele>
        <time>2024-11-05T20:42:24.955Z</time>
      </trkpt>
      <trkpt lat="44.01966" lon="3.72556">
        <ele>305.18</ele>
        <time>2024-11-05T20:42:42.456Z</time>
      </trkpt>
      <trkpt lat="44.01964" lon="3.72547">
        <ele>305.27</ele>
        <time>2024-11-05T20:42:59.958Z</time>
      </trkpt>
      <trkpt lat="44.01949" lon="3.72521">
        <ele>305.76</ele>
        <time>2024-11-05T20:43:17.464Z</time>
      </trkpt>
      <trkpt lat="44.01924" lon="3.72478">
        <ele>307.33</ele>
        <time>2024-11-05T20:43:34.976Z</time>
      </trkpt>
      <trkpt lat="44.01914" lon="3.72449">
        <ele>307.79</ele>
        <time>2024-11-05T20:43:52.492Z</time>
      </trkpt>
      <trkpt lat="44.01899" lon="3.72407">
        <ele>308.71</ele>
        <time>2024-11-05T20:44:10.013Z</time>
      </trkpt>
      <trkpt lat="44.01894" lon="3.72373">
        <ele>309.62</ele>
        <time>2024-11-05T20:44:27.538Z</time>
      </trkpt>
      <trkpt lat="44.01889" lon="3.7236">
        <ele>310.03</ele>
        <time>2024-11-05T20:44:45.065Z</time>
      </trkpt>
      <trkpt lat="44.0188" lon="3.72354">
        <ele>310.41</ele>
        <time>2024-11-05T20:45:02.594Z</time>
      </trkpt>
      <trkpt lat="44.01873" lon="3.72352">
        <ele>310.69</ele>
        <time>2024-11-05T20:45:20.124Z</time>
      </trkpt>
      <trkpt lat="44.01862" lon="3.72354">
        <ele>311.04</ele>
        <time>2024-11-05T20:45:37.656Z</time>
      </trkpt>
      <trkpt lat="44.01845" lon="3.72368">
        <ele>311.38</ele>
        <time>2024-11-05T20:45:55.191Z</time>
      </trkpt>
      <trkpt lat="44.01827" lon="3.72384">
        <ele>311.47</ele>
        <time>2024-11-05T20:46:12.729Z</time>
      </trkpt>
      <trkpt lat="44.01809" lon="3.7239">
        <ele>311.33</ele>
        <time>2024-11-05T20:46:30.270Z</time>
      </trkpt>
      <trkpt lat="44.01792" lon="3.72396">
        <ele>310.95</ele>
        <time>2024-11-05T20:46:47.814Z</time>
      </trkpt>
      <trkpt lat="44.01768" lon="3.72398">
        <ele>310.64</ele>
        <time>2024-11-05T20:47:05.362Z</time>
      </trkpt>
      <trkpt lat="44.01743" lon="3.72391">
        <ele>310.39</ele>
        <time>2024-11-05T20:47:22.914Z</time>
      </trkpt>
      <trkpt lat="44.01718" lon="3.72381">
        <ele>310.06</ele>
        <time>2024-11-05T20:47:40.470Z</time>
      </trkpt>
      <trkpt lat="44.01711" lon="3.72376">
        <ele>309.97</ele>
        <time>2024-11-05T20:47:58.027Z</time>
      </trkpt>
      <trkpt lat="44.01686" lon="3.72345">
        <ele>309.78</ele>
        <time>2024-11-05T20:48:15.590Z</time>
      </trkpt>
      <trkpt lat="44.01673" lon="3.72315">
        <ele>309.75</ele>
        <time>2024-11-05T20:48:33.157Z</time>
      </trkpt>
      <trkpt lat="44.01655" lon="3.72223">
        <ele>309.6</ele>
        <time>2024-11-05T20:48:50.735Z</time>
      </trkpt>
      <trkpt lat="44.01653" lon="3.72205">
        <ele>309.62</ele>
        <time>2024-11-05T20:49:08.315Z</time>
      </trkpt>
      <trkpt lat="44.01655" lon="3.72154">
        <ele>309.95</ele>
        <time>2024-11-05T20:49:25.901Z</time>
      </trkpt>
      <trkpt lat="44.01652" lon="3.72139">
        <ele>310.07</ele>
        <time>2024-11-05T20:49:43.488Z</time>
      </trkpt>
      <trkpt lat="44.01645" lon="3.72129">
        <ele>310.16</ele>
        <time>2024-11-05T20:50:01.077Z</time>
      </trkpt>
      <trkpt lat="44.01638" lon="3.72125">
        <ele>309.96</ele>
        <time>2024-11-05T20:50:18.667Z</time>
      </trkpt>
      <trkpt lat="44.01615" lon="3.72124">
        <ele>309.34</ele>
        <time>2024-11-05T20:50:36.261Z</time>
      </trkpt>
      <trkpt lat="44.01593" lon="3.72128">
        <ele>308.5</ele>
        <time>2024-11-05T20:50:53.859Z</time>
      </trkpt>
      <trkpt lat="44.01577" lon="3.72128">
        <ele>307.8</ele>
        <time>2024-11-05T20:51:11.459Z</time>
      </trkpt>
      <trkpt lat="44.01538" lon="3.72111">
        <ele>306.11</ele>
        <time>2024-11-05T20:51:29.066Z</time>
      </trkpt>
      <trkpt lat="44.0153" lon="3.72106">
        <ele>305.78</ele>
        <time>2024-11-05T20:51:46.674Z</time>
      </trkpt>
      <trkpt lat="44.01518" lon="3.72088">
        <ele>305.27</ele>
        <time>2024-11-05T20:52:04.285Z</time>
      </trkpt>
      <trkpt lat="44.01499" lon="3.72072">
        <ele>304.62</ele>
        <time>2024-11-05T20:52:21.899Z</time>
      </trkpt>
      <trkpt lat="44.0149" lon="3.72067">
        <ele>304.33</ele>
        <time>2024-11-05T20:52:39.515Z</time>
      </trkpt>
      <trkpt lat="44.01474" lon="3.72064">
        <ele>303.91</ele>
        <time>2024-11-05T20:52:57.134Z</time>
      </trkpt>
      <trkpt lat="44.01465" lon="3.72052">
        <ele>303.53</ele>
        <time>2024-11-05T20:53:14.755Z</time>
      </trkpt>
      <trkpt lat="44.01464" lon="3.72041">
        <ele>303.28</ele>
        <time>2024-11-05T20:53:32.377Z</time>
      </trkpt>
      <trkpt lat="44.01479" lon="3.71996">
        <ele>302.34</ele>
        <time>2024-11-05T20:53:50.005Z</time>
      </trkpt>
      <trkpt lat="44.01475" lon="3.71964">
        <ele>301.64</ele>
        <time>2024-11-05T20:54:07.636Z</time>
      </trkpt>
      <trkpt lat="44.01469" lon="3.71944">
        <ele>301.05</ele>
        <time>2024-11-05T20:54:25.270Z</time>
      </trkpt>
      <trkpt lat="44.01461" lon="3.7193">
        <ele>300.54</ele>
        <time>2024-11-05T20:54:42.906Z</time>
      </trkpt>
      <trkpt lat="44.01432" lon="3.71896">
        <ele>299.01</ele>
        <time>2024-11-05T20:55:00.548Z</time>
      </trkpt>
      <trkpt lat="44.01425" lon="3.71886">
        <ele>298.59</ele>
        <time>2024-11-05T20:55:18.192Z</time>
      </trkpt>
      <trkpt lat="44.01419" lon="3.71872">
        <ele>298.11</ele>
        <time>2024-11-05T20:55:35.837Z</time>
      </trkpt>
      <trkpt lat="44.01414" lon="3.71846">
        <ele>297.43</ele>
        <time>2024-11-05T20:55:53.486Z</time>
      </trkpt>
      <trkpt lat="44.01415" lon="3.71826">
        <ele>297.04</ele>
        <time>2024-11-05T20:56:11.137Z</time>
      </trkpt>
      <trkpt lat="44.01409" lon="3.71772">
        <ele>296.18</ele>
        <time>2024-11-05T20:56:28.794Z</time>
      </trkpt>
      <trkpt lat="44.01406" lon="3.71765">
        <ele>296.07</ele>
        <time>2024-11-05T20:56:46.452Z</time>
      </trkpt>
      <trkpt lat="44.014" lon="3.7176">
        <ele>295.94</ele>
        <time>2024-11-05T20:57:04.111Z</time>
      </trkpt>
      <trkpt lat="44.01394" lon="3.71759">
        <ele>295.77</ele>
        <time>2024-11-05T20:57:21.771Z</time>
      </trkpt>
      <trkpt lat="44.01385" lon="3.71763">
        <ele>295.47</ele>
        <time>2024-11-05T20:57:39.433Z</time>
      </trkpt>
      <trkpt lat="44.01329" lon="3.7182">
        <ele>293.03</ele>
        <time>2024-11-05T20:57:57.106Z</time>
      </trkpt>
      <trkpt lat="44.01312" lon="3.71859">
        <ele>291.77</ele>
        <time>2024-11-05T20:58:14.784Z</time>
      </trkpt>
      <trkpt lat="44.01303" lon="3.71875">
        <ele>291.09</ele>
        <time>2024-11-05T20:58:32.464Z</time>
      </trkpt>
      <trkpt lat="44.01275" lon="3.71907">
        <ele>289.49</ele>
        <time>2024-11-05T20:58:50.150Z</time>
      </trkpt>
      <trkpt lat="44.01244" lon="3.71931">
        <ele>288.25</ele>
        <time>2024-11-05T20:59:07.842Z</time>
      </trkpt>
      <trkpt lat="44.0123" lon="3.71942">
        <ele>287.84</ele>
        <time>2024-11-05T20:59:25.537Z</time>
      </trkpt>
      <trkpt lat="44.01223" lon="3.71946">
        <ele>287.81</ele>
        <time>2024-11-05T20:59:43.233Z</time>
      </trkpt>
      <trkpt lat="44.01217" lon="3.71947">
        <ele>287.85</ele>
        <time>2024-11-05T21:00:00.930Z</time>
      </trkpt>
      <trkpt lat="44.01211" lon="3.71944">
        <ele>287.84</ele>
        <time>2024-11-05T21:00:18.628Z</time>
      </trkpt>
      <trkpt lat="44.01197" lon="3.71938">
        <ele>287.32</ele>
        <time>2024-11-05T21:00:36.328Z</time>
      </trkpt>
      <trkpt lat="44.01176" lon="3.71923">
        <ele>286.37</ele>
        <time>2024-11-05T21:00:54.032Z</time>
      </trkpt>
      <trkpt lat="44.01158" lon="3.71901">
        <ele>285.45</ele>
        <time>2024-11-05T21:01:11.740Z</time>
      </trkpt>
      <trkpt lat="44.01135" lon="3.71873">
        <ele>283.63</ele>
        <time>2024-11-05T21:01:29.453Z</time>
      </trkpt>
      <trkpt lat="44.01115" lon="3.71825">
        <ele>280.53</ele>
        <time>2024-11-05T21:01:47.172Z</time>
      </trkpt>
      <trkpt lat="44.01112" lon="3.71809">
        <ele>279.63</ele>
        <time>2024-11-05T21:02:04.893Z</time>
      </trkpt>
      <trkpt lat="44.01109" lon="3.71764">
        <ele>277.28</ele>
        <time>2024-11-05T21:02:22.619Z</time>
      </trkpt>
      <trkpt lat="44.01116" lon="3.71745">
        <ele>276.24</ele>
        <time>2024-11-05T21:02:40.348Z</time>
      </trkpt>
      <trkpt lat="44.01119" lon="3.71741">
        <ele>275.97</ele>
        <time>2024-11-05T21:02:58.077Z</time>
      </trkpt>
      <trkpt lat="44.01124" lon="3.71735">
        <ele>275.96</ele>
        <time>2024-11-05T21:03:15.807Z</time>
      </trkpt>
      <trkpt lat="44.01128" lon="3.71729">
        <ele>275.74</ele>
        <time>2024-11-05T21:03:33.538Z</time>
      </trkpt>
      <trkpt lat="44.01138" lon="3.71703">
        <ele>275.14</ele>
        <time>2024-11-05T21:03:51.273Z</time>
      </trkpt>
      <trkpt lat="44.01141" lon="3.717">
        <ele>274.99</ele>
        <time>2024-11-05T21:04:09.008Z</time>
      </trkpt>
      <trkpt lat="44.01158" lon="3.71697">
        <ele>274.3</ele>
        <time>2024-11-05T21:04:26.746Z</time>
      </trkpt>
      <trkpt lat="44.01174" lon="3.71686">
        <ele>273.57</ele>
        <time>2024-11-05T21:04:44.487Z</time>
      </trkpt>
      <trkpt lat="44.01193" lon="3.71668">
        <ele>272.72</ele>
        <time>2024-11-05T21:05:02.231Z</time>
      </trkpt>
      <trkpt lat="44.01197" lon="3.71648">
        <ele>272.19</ele>
        <time>2024-11-05T21:05:19.978Z</time>
      </trkpt>
      <trkpt lat="44.012" lon="3.71587">
        <ele>270.93</ele>
        <time>2024-11-05T21:05:37.732Z</time>
      </trkpt>
      <trkpt lat="44.01199" lon="3.71575">
        <ele>270.74</ele>
        <time>2024-11-05T21:05:55.487Z</time>
      </trkpt>
      <trkpt lat="44.01193" lon="3.71559">
        <ele>270.44</ele>
        <time>2024-11-05T21:06:13.244Z</time>
      </trkpt>
      <trkpt lat="44.01183" lon="3.71545">
        <ele>270.18</ele>
        <time>2024-11-05T21:06:31.004Z</time>
      </trkpt>
      <trkpt lat="44.01164" lon="3.71532">
        <ele>269.9</ele>
        <time>2024-11-05T21:06:48.767Z</time>
      </trkpt>
      <trkpt lat="44.01147" lon="3.7152">
        <ele>269.2</ele>
        <time>2024-11-05T21:07:06.533Z</time>
      </trkpt>
      <trkpt lat="44.01136" lon="3.71498">
        <ele>268.18</ele>
        <time>2024-11-05T21:07:24.302Z</time>
      </trkpt>
      <trkpt lat="44.01123" lon="3.71457">
        <ele>265.88</ele>
        <time>2024-11-05T21:07:42.076Z</time>
      </trkpt>
      <trkpt lat="44.01118" lon="3.7145">
        <ele>265.36</ele>
        <time>2024-11-05T21:07:59.852Z</time>
      </trkpt>
      <trkpt lat="44.01107" lon="3.71444">
        <ele>264.45</ele>
        <time>2024-11-05T21:08:17.629Z</time>
      </trkpt>
      <trkpt lat="44.01077" lon="3.71449">
        <ele>262.2</ele>
        <time>2024-11-05T21:08:35.411Z</time>
      </trkpt>
      <trkpt lat="44.01074" lon="3.71449">
        <ele>262.13</ele>
        <time>2024-11-05T21:08:53.194Z</time>
      </trkpt>
      <trkpt lat="44.01065" lon="3.71441">
        <ele>261.94</ele>
        <time>2024-11-05T21:09:10.978Z</time>
      </trkpt>
      <trkpt lat="44.01055" lon="3.71431">
        <ele>261.35</ele>
        <time>2024-11-05T21:09:28.764Z</time>
      </trkpt>
      <trkpt lat="44.01048" lon="3.71422">
        <ele>260.95</ele>
        <time>2024-11-05T21:09:46.552Z</time>
      </trkpt>
      <trkpt lat="44.01037" lon="3.71407">
        <ele>260.49</ele>
        <time>2024-11-05T21:10:04.342Z</time>
      </trkpt>
      <trkpt lat="44.01035" lon="3.71398">
        <ele>260.37</ele>
        <time>2024-11-05T21:10:22.134Z</time>
      </trkpt>
      <trkpt lat="44.01034" lon="3.71374">
        <ele>260.01</ele>
        <time>2024-11-05T21:10:39.928Z</time>
      </trkpt>
      <trkpt lat="44.01033" lon="3.71356">
        <ele>259.97</ele>
        <time>2024-11-05T21:10:57.724Z</time>
      </trkpt>
      <trkpt lat="44.01029" lon="3.71344">
        <ele>260.07</ele>
        <time>2024-11-05T21:11:15.522Z</time>
      </trkpt>
      <trkpt lat="44.01017" lon="3.71318">
        <ele>260.75</ele>
        <time>2024-11-05T21:11:33.323Z</time>
      </trkpt>
      <trkpt lat="44.00994" lon="3.71292">
        <ele>262.23</ele>
        <time>2024-11-05T21:11:51.129Z</time>
      </trkpt>
      <trkpt lat="44.00975" lon="3.71284">
        <ele>263.43</ele>
        <time>2024-11-05T21:12:08.938Z</time>
      </trkpt>
      <trkpt lat="44.00965" lon="3.71284">
        <ele>264.04</ele>
        <time>2024-11-05T21:12:26.749Z</time>
      </trkpt>
      <trkpt lat="44.0095" lon="3.71291">
        <ele>264.89</ele>
        <time>2024-11-05T21:12:44.563Z</time>
      </trkpt>
      <trkpt lat="44.00935" lon="3.71298">
        <ele>265.48</ele>
        <time>2024-11-05T21:13:02.379Z</time>
      </trkpt>
      <trkpt lat="44.00924" lon="3.713">
        <ele>265.81</ele>
        <time>2024-11-05T21:13:20.197Z</time>
      </trkpt>
      <trkpt lat="44.00906" lon="3.71296">
        <ele>266.32</ele>
        <time>2024-11-05T21:13:38.018Z</time>
      </trkpt>
      <trkpt lat="44.00884" lon="3.71279">
        <ele>267.38</ele>
        <time>2024-11-05T21:13:55.843Z</time>
      </trkpt>
      <trkpt lat="44.00838" lon="3.71241">
        <ele>270.13</ele>
        <time>2024-11-05T21:14:13.676Z</time>
      </trkpt>
      <trkpt lat="44.00824" lon="3.71229">
        <ele>270.71</ele>
        <time>2024-11-05T21:14:31.512Z</time>
      </trkpt>
      <trkpt lat="44.0081" lon="3.71222">
        <ele>271.03</ele>
        <time>2024-11-05T21:14:49.350Z</time>
      </trkpt>
      <trkpt lat="44.00797" lon="3.7122">
        <ele>270.97</ele>
        <time>2024-11-05T21:15:07.190Z</time>
      </trkpt>
      <trkpt lat="44.00766" lon="3.71217">
        <ele>268.96</ele>
        <time>2024-11-05T21:15:25.035Z</time>
      </trkpt>
      <trkpt lat="44.00734" lon="3.71212">
        <ele>267.45</ele>
        <time>2024-11-05T21:15:42.886Z</time>
      </trkpt>
      <trkpt lat="44.00717" lon="3.71206">
        <ele>266.65</ele>
        <time>2024-11-05T21:16:00.739Z</time>
      </trkpt>
      <trkpt lat="44.00687" lon="3.71194">
        <ele>264.87</ele>
        <time>2024-11-05T21:16:18.597Z</time>
      </trkpt>
      <trkpt lat="44.00681" lon="3.71189">
        <ele>264.47</ele>
        <time>2024-11-05T21:16:36.457Z</time>
      </trkpt>
      <trkpt lat="44.00673" lon="3.71172">
        <ele>263.71</ele>
        <time>2024-11-05T21:16:54.319Z</time>
      </trkpt>
      <trkpt lat="44.00666" lon="3.71128">
        <ele>262.08</ele>
        <time>2024-11-05T21:17:12.186Z</time>
      </trkpt>
      <trkpt lat="44.0066" lon="3.71105">
        <ele>260.87</ele>
        <time>2024-11-05T21:17:30.056Z</time>
      </trkpt>
      <trkpt lat="44.00653" lon="3.71069">
        <ele>258.73</ele>
        <time>2024-11-05T21:17:47.930Z</time>
      </trkpt>
      <trkpt lat="44.00641" lon="3.70999">
        <ele>254.05</ele>
        <time>2024-11-05T21:18:05.812Z</time>
      </trkpt>
      <trkpt lat="44.00638" lon="3.70991">
        <ele>253.55</ele>
        <time>2024-11-05T21:18:23.696Z</time>
      </trkpt>
      <trkpt lat="44.00627" lon="3.70964">
        <ele>252.23</ele>
        <time>2024-11-05T21:18:41.583Z</time>
      </trkpt>
      <trkpt lat="44.00622" lon="3.70952">
        <ele>251.83</ele>
        <time>2024-11-05T21:18:59.472Z</time>
      </trkpt>
      <trkpt lat="44.00615" lon="3.70941">
        <ele>251.38</ele>
        <time>2024-11-05T21:19:17.362Z</time>
      </trkpt>
      <trkpt lat="44.00598" lon="3.70926">
        <ele>250.78</ele>
        <time>2024-11-05T21:19:35.256Z</time>
      </trkpt>
      <trkpt lat="44.00584" lon="3.70917">
        <ele>250.61</ele>
        <time>2024-11-05T21:19:53.152Z</time>
      </trkpt>
      <trkpt lat="44.00557" lon="3.70908">
        <ele>250.72</ele>
        <time>2024-11-05T21:20:11.053Z</time>
      </trkpt>
      <trkpt lat="44.00544" lon="3.70907">
        <ele>250.83</ele>
        <time>2024-11-05T21:20:28.956Z</time>
      </trkpt>
      <trkpt lat="44.00531" lon="3.7091">
        <ele>251.07</ele>
        <time>2024-11-05T21:20:46.861Z</time>
      </trkpt>
      <trkpt lat="44.00506" lon="3.7093">
        <ele>251.88</ele>
        <time>2024-11-05T21:21:04.770Z</time>
      </trkpt>
      <trkpt lat="44.00483" lon="3.70959">
        <ele>252.55</ele>
        <time>2024-11-05T21:21:22.684Z</time>
      </trkpt>
      <trkpt lat="44.00454" lon="3.71017">
        <ele>253.18</ele>
        <time>2024-11-05T21:21:40.606Z</time>
      </trkpt>
      <trkpt lat="44.00447" lon="3.71059">
        <ele>254.04</ele>
        <time>2024-11-05T21:21:58.533Z</time>
      </trkpt>
      <trkpt lat="44.00443" lon="3.71069">
        <ele>254.33</ele>
        <time>2024-11-05T21:22:16.462Z</time>
      </trkpt>
      <trkpt lat="44.00437" lon="3.71076">
        <ele>254.6</ele>
        <time>2024-11-05T21:22:34.392Z</time>
      </trkpt>
      <trkpt lat="44.00429" lon="3.71081">
        <ele>254.85</ele>
        <time>2024-11-05T21:22:52.323Z</time>
      </trkpt>
      <trkpt lat="44.00415" lon="3.71087">
        <ele>255.14</ele>
        <time>2024-11-05T21:23:10.257Z</time>
      </trkpt>
      <trkpt lat="44.00356" lon="3.71109">
        <ele>255.73</ele>
        <time>2024-11-05T21:23:28.201Z</time>
      </trkpt>
      <trkpt lat="44.00339" lon="3.71112">
        <ele>255.85</ele>
        <time>2024-11-05T21:23:46.147Z</time>
      </trkpt>
      <trkpt lat="44.00329" lon="3.71116">
        <ele>255.88</ele>
        <time>2024-11-05T21:24:04.095Z</time>
      </trkpt>
      <trkpt lat="44.00291" lon="3.71156">
        <ele>255.99</ele>
        <time>2024-11-05T21:24:22.051Z</time>
      </trkpt>
      <trkpt lat="44.00278" lon="3.71176">
        <ele>255.99</ele>
        <time>2024-11-05T21:24:40.010Z</time>
      </trkpt>
      <trkpt lat="44.00276" lon="3.71188">
        <ele>255.96</ele>
        <time>2024-11-05T21:24:57.970Z</time>
      </trkpt>
      <trkpt lat="44.00278" lon="3.71241">
        <ele>255.75</ele>
        <time>2024-11-05T21:25:15.936Z</time>
      </trkpt>
      <trkpt lat="44.00284" lon="3.71259">
        <ele>255.66</ele>
        <time>2024-11-05T21:25:33.905Z</time>
      </trkpt>
      <trkpt lat="44.00297" lon="3.71289">
        <ele>255.43</ele>
        <time>2024-11-05T21:25:51.878Z</time>
      </trkpt>
      <trkpt lat="44.00308" lon="3.71306">
        <ele>255.33</ele>
        <time>2024-11-05T21:26:09.853Z</time>
      </trkpt>
      <trkpt lat="44.00314" lon="3.71313">
        <ele>255.32</ele>
        <time>2024-11-05T21:26:27.829Z</time>
      </trkpt>
      <trkpt lat="44.00342" lon="3.71337">
        <ele>255.28</ele>
        <time>2024-11-05T21:26:45.811Z</time>
      </trkpt>
      <trkpt lat="44.00348" lon="3.71346">
        <ele>255.27</ele>
        <time>2024-11-05T21:27:03.794Z</time>
      </trkpt>
      <trkpt lat="44.00354" lon="3.71362">
        <ele>255.25</ele>
        <time>2024-11-05T21:27:21.779Z</time>
      </trkpt>
      <trkpt lat="44.00355" lon="3.71371">
        <ele>255.24</ele>
        <time>2024-11-05T21:27:39.765Z</time>
      </trkpt>
      <trkpt lat="44.00353" lon="3.71381">
        <ele>255.22</ele>
        <time>2024-11-05T21:27:57.752Z</time>
      </trkpt>
      <trkpt lat="44.0032" lon="3.71425">
        <ele>254.74</ele>
        <time>2024-11-05T21:28:15.747Z</time>
      </trkpt>
      <trkpt lat="44.00313" lon="3.71438">
        <ele>254.64</ele>
        <time>2024-11-05T21:28:33.744Z</time>
      </trkpt>
      <trkpt lat="44.00299" lon="3.71473">
        <ele>254.71</ele>
        <time>2024-11-05T21:28:51.745Z</time>
      </trkpt>
      <trkpt lat="44.00286" lon="3.71493">
        <ele>254.94</ele>
        <time>2024-11-05T21:29:09.749Z</time>
      </trkpt>
      <trkpt lat="44.00276" lon="3.71502">
        <ele>255.11</ele>
        <time>2024-11-05T21:29:27.755Z</time>
      </trkpt>
      <trkpt lat="44.00264" lon="3.71507">
        <ele>255.27</ele>
        <time>2024-11-05T21:29:45.763Z</time>
      </trkpt>
      <trkpt lat="44.00251" lon="3.71509">
        <ele>255.23</ele>
        <time>2024-11-05T21:30:03.773Z</time>
      </trkpt>
      <trkpt lat="44.00223" lon="3.71505">
        <ele>254.81</ele>
        <time>2024-11-05T21:30:21.788Z</time>
      </trkpt>
      <trkpt lat="44.00211" lon="3.71495">
        <ele>254.61</ele>
        <time>2024-11-05T21:30:39.805Z</time>
      </trkpt>
      <trkpt lat="44.00208" lon="3.71488">
        <ele>254.51</ele>
        <time>2024-11-05T21:30:57.823Z</time>
      </trkpt>
      <trkpt lat="44.002" lon="3.71443">
        <ele>253.8</ele>
        <time>2024-11-05T21:31:15.846Z</time>
      </trkpt>
      <trkpt lat="44.00194" lon="3.71426">
        <ele>253.68</ele>
        <time>2024-11-05T21:31:33.872Z</time>
      </trkpt>
      <trkpt lat="44.00178" lon="3.71396">
        <ele>253.7</ele>
        <time>2024-11-05T21:31:51.902Z</time>
      </trkpt>
      <trkpt lat="44.00157" lon="3.71355">
        <ele>253.99</ele>
        <time>2024-11-05T21:32:09.938Z</time>
      </trkpt>
      <trkpt lat="44.00134" lon="3.71332">
        <ele>254.03</ele>
        <time>2024-11-05T21:32:27.978Z</time>
      </trkpt>
      <trkpt lat="44.00122" lon="3.71324">
        <ele>254.04</ele>
        <time>2024-11-05T21:32:46.020Z</time>
      </trkpt>
      <trkpt lat="44.00111" lon="3.7132">
        <ele>254.01</ele>
        <time>2024-11-05T21:33:04.064Z</time>
      </trkpt>
      <trkpt lat="44.00104" lon="3.71314">
        <ele>253.93</ele>
        <time>2024-11-05T21:33:22.110Z</time>
      </trkpt>
      <trkpt lat="44.001" lon="3.71308">
        <ele>253.86</ele>
        <time>2024-11-05T21:33:40.157Z</time>
      </trkpt>
      <trkpt lat="44.00098" lon="3.713">
        <ele>253.74</ele>
        <time>2024-11-05T21:33:58.205Z</time>
      </trkpt>
      <trkpt lat="44.00099" lon="3.71282">
        <ele>253.48</ele>
        <time>2024-11-05T21:34:16.255Z</time>
      </trkpt>
      <trkpt lat="44.00113" lon="3.71235">
        <ele>252.64</ele>
        <time>2024-11-05T21:34:34.310Z</time>
      </trkpt>
      <trkpt lat="44.00115" lon="3.71218">
        <ele>252.28</ele>
        <time>2024-11-05T21:34:52.367Z</time>
      </trkpt>
      <trkpt lat="44.00115" lon="3.7118">
        <ele>251.48</ele>
        <time>2024-11-05T21:35:10.429Z</time>
      </trkpt>
      <trkpt lat="44.00108" lon="3.71158">
        <ele>250.93</ele>
        <time>2024-11-05T21:35:28.494Z</time>
      </trkpt>
      <trkpt lat="44.00089" lon="3.7112">
        <ele>249.98</ele>
        <time>2024-11-05T21:35:46.564Z</time>
      </trkpt>
      <trkpt lat="44.00077" lon="3.711">
        <ele>249.49</ele>
        <time>2024-11-05T21:36:04.637Z</time>
      </trkpt>
      <trkpt lat="44.00069" lon="3.71092">
        <ele>249.24</ele>
        <time>2024-11-05T21:36:22.712Z</time>
      </trkpt>
      <trkpt lat="44.00054" lon="3.71082">
        <ele>248.76</ele>
        <time>2024-11-05T21:36:40.789Z</time>
      </trkpt>
      <trkpt lat="44.00028" lon="3.71071">
        <ele>247.78</ele>
        <time>2024-11-05T21:36:58.871Z</time>
      </trkpt>
      <trkpt lat="43.99997" lon="3.71066">
        <ele>246.35</ele>
        <time>2024-11-05T21:37:16.958Z</time>
      </trkpt>
      <trkpt lat="43.9994" lon="3.71065">
        <ele>243.9</ele>
        <time>2024-11-05T21:37:35.054Z</time>
      </trkpt>
      <trkpt lat="43.99895" lon="3.71068">
        <ele>241.46</ele>
        <time>2024-11-05T21:37:53.157Z</time>
      </trkpt>
      <trkpt lat="43.99871" lon="3.71072">
        <ele>240.2</ele>
        <time>2024-11-05T21:38:11.264Z</time>
      </trkpt>
      <trkpt lat="43.99857" lon="3.71077">
        <ele>239.47</ele>
        <time>2024-11-05T21:38:29.373Z</time>
      </trkpt>
      <trkpt lat="43.99826" lon="3.71095">
        <ele>237.68</ele>
        <time>2024-11-05T21:38:47.487Z</time>
      </trkpt>
      <trkpt lat="43.99796" lon="3.71118">
        <ele>235.78</ele>
        <time>2024-11-05T21:39:05.607Z</time>
      </trkpt>
      <trkpt lat="43.99766" lon="3.71138">
        <ele>234.18</ele>
        <time>2024-11-05T21:39:23.732Z</time>
      </trkpt>
      <trkpt lat="43.99746" lon="3.71152">
        <ele>233.41</ele>
        <time>2024-11-05T21:39:41.861Z</time>
      </trkpt>
      <trkpt lat="43.99723" lon="3.71167">
        <ele>232.79</ele>
        <time>2024-11-05T21:39:59.994Z</time>
      </trkpt>
      <trkpt lat="43.99705" lon="3.712">
        <ele>232.51</ele>
        <time>2024-11-05T21:40:18.132Z</time>
      </trkpt>
      <trkpt lat="43.997" lon="3.71205">
        <ele>232.46</ele>
        <time>2024-11-05T21:40:36.271Z</time>
      </trkpt>
      <trkpt lat="43.99671" lon="3.71221">
        <ele>232.08</ele>
        <time>2024-11-05T21:40:54.415Z</time>
      </trkpt>
      <trkpt lat="43.99647" lon="3.7123">
        <ele>231.79</ele>
        <time>2024-11-05T21:41:12.563Z</time>
      </trkpt>
      <trkpt lat="43.99594" lon="3.71254">
        <ele>231.03</ele>
        <time>2024-11-05T21:41:30.720Z</time>
      </trkpt>
      <trkpt lat="43.99565" lon="3.71272">
        <ele>230.79</ele>
        <time>2024-11-05T21:41:48.882Z</time>
      </trkpt>
      <trkpt lat="43.99557" lon="3.71275">
        <ele>230.7</ele>
        <time>2024-11-05T21:42:07.045Z</time>
      </trkpt>
      <trkpt lat="43.99543" lon="3.71273">
        <ele>230.54</ele>
        <time>2024-11-05T21:42:25.210Z</time>
      </trkpt>
      <trkpt lat="43.99526" lon="3.7126">
        <ele>230.37</ele>
        <time>2024-11-05T21:42:43.378Z</time>
      </trkpt>
      <trkpt lat="43.9952" lon="3.71258">
        <ele>230.35</ele>
        <time>2024-11-05T21:43:01.547Z</time>
      </trkpt>
      <trkpt lat="43.99502" lon="3.71266">
        <ele>230.37</ele>
        <time>2024-11-05T21:43:19.719Z</time>
      </trkpt>
      <trkpt lat="43.99475" lon="3.71287">
        <ele>230.43</ele>
        <time>2024-11-05T21:43:37.896Z</time>
      </trkpt>
      <trkpt lat="43.99468" lon="3.71289">
        <ele>230.37</ele>
        <time>2024-11-05T21:43:56.074Z</time>
      </trkpt>
      <trkpt lat="43.99461" lon="3.71288">
        <ele>230.27</ele>
        <time>2024-11-05T21:44:14.254Z</time>
      </trkpt>
      <trkpt lat="43.99456" lon="3.71285">
        <ele>230.18</ele>
        <time>2024-11-05T21:44:32.434Z</time>
      </trkpt>
      <trkpt lat="43.99451" lon="3.71277">
        <ele>230.01</ele>
        <time>2024-11-05T21:44:50.616Z</time>
      </trkpt>
      <trkpt lat="43.99438" lon="3.71247">
        <ele>229.4</ele>
        <time>2024-11-05T21:45:08.802Z</time>
      </trkpt>
      <trkpt lat="43.99433" lon="3.71197">
        <ele>228.45</ele>
        <time>2024-11-05T21:45:26.994Z</time>
      </trkpt>
      <trkpt lat="43.99429" lon="3.71185">
        <ele>228.12</ele>
        <time>2024-11-05T21:45:45.187Z</time>
      </trkpt>
      <trkpt lat="43.99419" lon="3.71166">
        <ele>227.53</ele>
        <time>2024-11-05T21:46:03.383Z</time>
      </trkpt>
      <trkpt lat="43.99409" lon="3.71154">
        <ele>227.04</ele>
        <time>2024-11-05T21:46:21.581Z</time>
      </trkpt>
      <trkpt lat="43.99389" lon="3.71141">
        <ele>226.08</ele>
        <time>2024-11-05T21:46:39.782Z</time>
      </trkpt>
      <trkpt lat="43.99355" lon="3.7113">
        <ele>224.52</ele>
        <time>2024-11-05T21:46:57.989Z</time>
      </trkpt>
      <trkpt lat="43.99335" lon="3.71132">
        <ele>223.43</ele>
        <time>2024-11-05T21:47:16.199Z</time>
      </trkpt>
      <trkpt lat="43.99323" lon="3.71137">
        <ele>222.73</ele>
        <time>2024-11-05T21:47:34.411Z</time>
      </trkpt>
      <trkpt lat="43.99293" lon="3.71156">
        <ele>221.06</ele>
        <time>2024-11-05T21:47:52.628Z</time>
      </trkpt>
      <trkpt lat="43.99276" lon="3.71183">
        <ele>220.3</ele>
        <time>2024-11-05T21:48:10.850Z</time>
      </trkpt>
      <trkpt lat="43.99244" lon="3.71235">
        <ele>219.73</ele>
        <time>2024-11-05T21:48:29.080Z</time>
      </trkpt>
      <trkpt lat="43.99232" lon="3.71253">
        <ele>219.36</ele>
        <time>2024-11-05T21:48:47.312Z</time>
      </trkpt>
      <trkpt lat="43.99219" lon="3.71274">
        <ele>218.83</ele>
        <time>2024-11-05T21:49:05.548Z</time>
      </trkpt>
      <trkpt lat="43.99194" lon="3.71323">
        <ele>217.6</ele>
        <time>2024-11-05T21:49:23.790Z</time>
      </trkpt>
      <trkpt lat="43.99185" lon="3.71335">
        <ele>217.32</ele>
        <time>2024-11-05T21:49:42.034Z</time>
      </trkpt>
      <trkpt lat="43.99178" lon="3.71341">
        <ele>217.19</ele>
        <time>2024-11-05T21:50:00.280Z</time>
      </trkpt>
      <trkpt lat="43.9916" lon="3.71349">
        <ele>216.94</ele>
        <time>2024-11-05T21:50:18.529Z</time>
      </trkpt>
      <trkpt lat="43.99141" lon="3.71349">
        <ele>216.86</ele>
        <time>2024-11-05T21:50:36.781Z</time>
      </trkpt>
      <trkpt lat="43.99131" lon="3.71346">
        <ele>216.83</ele>
        <time>2024-11-05T21:50:55.035Z</time>
      </trkpt>
      <trkpt lat="43.99109" lon="3.71331">
        <ele>216.88</ele>
        <time>2024-11-05T21:51:13.292Z</time>
      </trkpt>
      <trkpt lat="43.99052" lon="3.71294">
        <ele>217.45</ele>
        <time>2024-11-05T21:51:31.559Z</time>
      </trkpt>
      <trkpt lat="43.99023" lon="3.71265">
        <ele>218.24</ele>
        <time>2024-11-05T21:51:49.832Z</time>
      </trkpt>
      <trkpt lat="43.98998" lon="3.7124">
        <ele>219.44</ele>
        <time>2024-11-05T21:52:08.110Z</time>
      </trkpt>
      <trkpt lat="43.98991" lon="3.71237">
        <ele>219.74</ele>
        <time>2024-11-05T21:52:26.389Z</time>
      </trkpt>
      <trkpt lat="43.98966" lon="3.71247">
        <ele>220.72</ele>
        <time>2024-11-05T21:52:44.672Z</time>
      </trkpt>
      <trkpt lat="43.98936" lon="3.71249">
        <ele>221.87</ele>
        <time>2024-11-05T21:53:02.960Z</time>
      </trkpt>
      <trkpt lat="43.98909" lon="3.71256">
        <ele>222.96</ele>
        <time>2024-11-05T21:53:21.253Z</time>
      </trkpt>
      <trkpt lat="43.98898" lon="3.71261">
        <ele>223.44</ele>
        <time>2024-11-05T21:53:39.548Z</time>
      </trkpt>
      <trkpt lat="43.9889" lon="3.71268">
        <ele>223.82</ele>
        <time>2024-11-05T21:53:57.844Z</time>
      </trkpt>
      <trkpt lat="43.98863" lon="3.71309">
        <ele>224.75</ele>
        <time>2024-11-05T21:54:16.147Z</time>
      </trkpt>
      <trkpt lat="43.98818" lon="3.71378">
        <ele>225.86</ele>
        <time>2024-11-05T21:54:34.460Z</time>
      </trkpt>
      <trkpt lat="43.98808" lon="3.71391">
        <ele>225.98</ele>
        <time>2024-11-05T21:54:52.775Z</time>
      </trkpt>
      <trkpt lat="43.98791" lon="3.71411">
        <ele>225.73</ele>
        <time>2024-11-05T21:55:11.094Z</time>
      </trkpt>
      <trkpt lat="43.98777" lon="3.71421">
        <ele>225.27</ele>
        <time>2024-11-05T21:55:29.415Z</time>
      </trkpt>
      <trkpt lat="43.98758" lon="3.71428">
        <ele>224.54</ele>
        <time>2024-11-05T21:55:47.740Z</time>
      </trkpt>
      <trkpt lat="43.98713" lon="3.71438">
        <ele>222.69</ele>
        <time>2024-11-05T21:56:06.072Z</time>
      </trkpt>
      <trkpt lat="43.98682" lon="3.71444">
        <ele>221.61</ele>
        <time>2024-11-05T21:56:24.409Z</time>
      </trkpt>
      <trkpt lat="43.98666" lon="3.71445">
        <ele>221.34</ele>
        <time>2024-11-05T21:56:42.748Z</time>
      </trkpt>
      <trkpt lat="43.9864" lon="3.71443">
        <ele>221.19</ele>
        <time>2024-11-05T21:57:01.092Z</time>
      </trkpt>
      <trkpt lat="43.98625" lon="3.7144">
        <ele>221.15</ele>
        <time>2024-11-05T21:57:19.438Z</time>
      </trkpt>
      <trkpt lat="43.98609" lon="3.71433">
        <ele>221.11</ele>
        <time>2024-11-05T21:57:37.787Z</time>
      </trkpt>
      <trkpt lat="43.98579" lon="3.7142">
        <ele>220.62</ele>
        <time>2024-11-05T21:57:56.141Z</time>
      </trkpt>
      <trkpt lat="43.98563" lon="3.71413">
        <ele>220.08</ele>
        <time>2024-11-05T21:58:14.497Z</time>
      </trkpt>
      <trkpt lat="43.98543" lon="3.714">
        <ele>219.39</ele>
        <time>2024-11-05T21:58:32.857Z</time>
      </trkpt>
      <trkpt lat="43.98487" lon="3.71362">
        <ele>218.29</ele>
        <time>2024-11-05T21:58:51.227Z</time>
      </trkpt>
      <trkpt lat="43.98462" lon="3.71349">
        <ele>217.88</ele>
        <time>2024-11-05T21:59:09.601Z</time>
      </trkpt>
      <trkpt lat="43.9843" lon="3.71339">
        <ele>217.77</ele>
        <time>2024-11-05T21:59:27.981Z</time>
      </trkpt>
      <trkpt lat="43.98413" lon="3.71338">
        <ele>217.73</ele>
        <time>2024-11-05T21:59:46.363Z</time>
      </trkpt>
      <trkpt lat="43.98405" lon="3.71329">
        <ele>217.69</ele>
        <time>2024-11-05T22:00:04.747Z</time>
      </trkpt>
      <trkpt lat="43.98389" lon="3.71335">
        <ele>217.44</ele>
        <time>2024-11-05T22:00:23.134Z</time>
      </trkpt>
      <trkpt lat="43.98346" lon="3.71332">
        <ele>216.43</ele>
        <time>2024-11-05T22:00:41.527Z</time>
      </trkpt>
      <trkpt lat="43.9833" lon="3.71333">
        <ele>215.73</ele>
        <time>2024-11-05T22:00:59.923Z</time>
      </trkpt>
      <trkpt lat="43.98324" lon="3.71338">
        <ele>215.31</ele>
        <time>2024-11-05T22:01:18.320Z</time>
      </trkpt>
      <trkpt lat="43.98321" lon="3.71347">
        <ele>214.82</ele>
        <time>2024-11-05T22:01:36.718Z</time>
      </trkpt>
      <trkpt lat="43.98311" lon="3.7137">
        <ele>212.36</ele>
        <time>2024-11-05T22:01:55.119Z</time>
      </trkpt>
      <trkpt lat="43.983" lon="3.71383">
        <ele>210.51</ele>
        <time>2024-11-05T22:02:13.523Z</time>
      </trkpt>
      <trkpt lat="43.98279" lon="3.71397">
        <ele>207.85</ele>
        <time>2024-11-05T22:02:31.930Z</time>
      </trkpt>
      <trkpt lat="43.98252" lon="3.7141">
        <ele>205.31</ele>
        <time>2024-11-05T22:02:50.342Z</time>
      </trkpt>
      <trkpt lat="43.98246" lon="3.71418">
        <ele>204.66</ele>
        <time>2024-11-05T22:03:08.755Z</time>
      </trkpt>
      <trkpt lat="43.98243" lon="3.71427">
        <ele>204.15</ele>
        <time>2024-11-05T22:03:27.169Z</time>
      </trkpt>
      <trkpt lat="43.98234" lon="3.71451">
        <ele>203.13</ele>
        <time>2024-11-05T22:03:45.587Z</time>
      </trkpt>
      <trkpt lat="43.98232" lon="3.7146">
        <ele>202.85</ele>
        <time>2024-11-05T22:04:04.006Z</time>
      </trkpt>
      <trkpt lat="43.98225" lon="3.71504">
        <ele>202.66</ele>
        <time>2024-11-05T22:04:22.430Z</time>
      </trkpt>
      <trkpt lat="43.98216" lon="3.71559">
        <ele>202.77</ele>
        <time>2024-11-05T22:04:40.860Z</time>
      </trkpt>
      <trkpt lat="43.9821" lon="3.71608">
        <ele>203.61</ele>
        <time>2024-11-05T22:04:59.296Z</time>
      </trkpt>
      <trkpt lat="43.98207" lon="3.7165">
        <ele>204.56</ele>
        <time>2024-11-05T22:05:17.737Z</time>
      </trkpt>
      <trkpt lat="43.98204" lon="3.71679">
        <ele>205.04</ele>
        <time>2024-11-05T22:05:36.181Z</time>
      </trkpt>
      <trkpt lat="43.98203" lon="3.71701">
        <ele>205.26</ele>
        <time>2024-11-05T22:05:54.628Z</time>
      </trkpt>
      <trkpt lat="43.98195" lon="3.71794">
        <ele>205.26</ele>
        <time>2024-11-05T22:06:13.086Z</time>
      </trkpt>
      <trkpt lat="43.98191" lon="3.71813">
        <ele>205.25</ele>
        <time>2024-11-05T22:06:31.546Z</time>
      </trkpt>
      <trkpt lat="43.98179" lon="3.71834">
        <ele>205.22</ele>
        <time>2024-11-05T22:06:50.009Z</time>
      </trkpt>
      <trkpt lat="43.98165" lon="3.71844">
        <ele>205.23</ele>
        <time>2024-11-05T22:07:08.475Z</time>
      </trkpt>
      <trkpt lat="43.98137" lon="3.71847">
        <ele>205.06</ele>
        <time>2024-11-05T22:07:26.945Z</time>
      </trkpt>
      <trkpt lat="43.9813" lon="3.71842">
        <ele>204.98</ele>
        <time>2024-11-05T22:07:45.416Z</time>
      </trkpt>
      <trkpt lat="43.98072" lon="3.71764">
        <ele>204.08</ele>
        <time>2024-11-05T22:08:03.900Z</time>
      </trkpt>
      <trkpt lat="43.98036" lon="3.71706">
        <ele>203.74</ele>
        <time>2024-11-05T22:08:22.393Z</time>
      </trkpt>
      <trkpt lat="43.98024" lon="3.71693">
        <ele>203.68</ele>
        <time>2024-11-05T22:08:40.889Z</time>
      </trkpt>
      <trkpt lat="43.97991" lon="3.71664">
        <ele>203.68</ele>
        <time>2024-11-05T22:08:59.391Z</time>
      </trkpt>
      <trkpt lat="43.9798" lon="3.71658">
        <ele>203.69</ele>
        <time>2024-11-05T22:09:17.895Z</time>
      </trkpt>
      <trkpt lat="43.97977" lon="3.71667">
        <ele>203.69</ele>
        <time>2024-11-05T22:09:36.400Z</time>
      </trkpt>
      <trkpt lat="43.97966" lon="3.71699">
        <ele>204.92</ele>
        <time>2024-11-05T22:09:54.909Z</time>
      </trkpt>
      <trkpt lat="43.97951" lon="3.71742">
        <ele>207.51</ele>
        <time>2024-11-05T22:10:13.424Z</time>
      </trkpt>
      <trkpt lat="43.97944" lon="3.71766">
        <ele>209.16</ele>
        <time>2024-11-05T22:10:31.941Z</time>
      </trkpt>
      <trkpt lat="43.97942" lon="3.71768">
        <ele>209.41</ele>
        <time>2024-11-05T22:10:50.459Z</time>
      </trkpt>
      <trkpt lat="43.97938" lon="3.71773">
        <ele>209.55</ele>
        <time>2024-11-05T22:11:08.978Z</time>
      </trkpt>
      <trkpt lat="43.97928" lon="3.71775">
        <ele>210.09</ele>
        <time>2024-11-05T22:11:27.498Z</time>
      </trkpt>
      <trkpt lat="43.97902" lon="3.71767">
        <ele>211.18</ele>
        <time>2024-11-05T22:11:46.023Z</time>
      </trkpt>
      <trkpt lat="43.97892" lon="3.71771">
        <ele>211.45</ele>
        <time>2024-11-05T22:12:04.549Z</time>
      </trkpt>
      <trkpt lat="43.97875" lon="3.71762">
        <ele>211.79</ele>
        <time>2024-11-05T22:12:23.078Z</time>
      </trkpt>
      <trkpt lat="43.97874" lon="3.71756">
        <ele>211.86</ele>
        <time>2024-11-05T22:12:41.608Z</time>
      </trkpt>
      <trkpt lat="43.97866" lon="3.71752">
        <ele>212.01</ele>
        <time>2024-11-05T22:13:00.139Z</time>
      </trkpt>
      <trkpt lat="43.97859" lon="3.71759">
        <ele>212.07</ele>
        <time>2024-11-05T22:13:18.672Z</time>
      </trkpt>
      <trkpt lat="43.9785" lon="3.71755">
        <ele>212.11</ele>
        <time>2024-11-05T22:13:37.206Z</time>
      </trkpt>
      <trkpt lat="43.97848" lon="3.71761">
        <ele>212.1</ele>
        <time>2024-11-05T22:13:55.741Z</time>
      </trkpt>
      <trkpt lat="43.97842" lon="3.71768">
        <ele>212.09</ele>
        <time>2024-11-05T22:14:14.277Z</time>
      </trkpt>
      <trkpt lat="43.97813" lon="3.71762">
        <ele>211.91</ele>
        <time>2024-11-05T22:14:32.818Z</time>
      </trkpt>
      <trkpt lat="43.97795" lon="3.71764">
        <ele>211.85</ele>
        <time>2024-11-05T22:14:51.362Z</time>
      </trkpt>
      <trkpt lat="43.97755" lon="3.71759">
        <ele>211.56</ele>
        <time>2024-11-05T22:15:09.912Z</time>
      </trkpt>
      <trkpt lat="43.97724" lon="3.71759">
        <ele>211.38</ele>
        <time>2024-11-05T22:15:28.467Z</time>
      </trkpt>
      <trkpt lat="43.97694" lon="3.71763">
        <ele>211.28</ele>
        <time>2024-11-05T22:15:47.027Z</time>
      </trkpt>
      <trkpt lat="43.97647" lon="3.71779">
        <ele>211.13</ele>
        <time>2024-11-05T22:16:05.595Z</time>
      </trkpt>
      <trkpt lat="43.97592" lon="3.71803">
        <ele>210.87</ele>
        <time>2024-11-05T22:16:24.172Z</time>
      </trkpt>
      <trkpt lat="43.97513" lon="3.71841">
        <ele>210.65</ele>
        <time>2024-11-05T22:16:42.762Z</time>
      </trkpt>
      <trkpt lat="43.97471" lon="3.71859">
        <ele>210.25</ele>
        <time>2024-11-05T22:17:01.359Z</time>
      </trkpt>
      <trkpt lat="43.97403" lon="3.71878">
        <ele>209.84</ele>
        <time>2024-11-05T22:17:19.967Z</time>
      </trkpt>
      <trkpt lat="43.97329" lon="3.71894">
        <ele>209.55</ele>
        <time>2024-11-05T22:17:38.587Z</time>
      </trkpt>
      <trkpt lat="43.97225" lon="3.71911">
        <ele>209.02</ele>
        <time>2024-11-05T22:17:57.224Z</time>
      </trkpt>
      <trkpt lat="43.97101" lon="3.71937">
        <ele>208.52</ele>
        <time>2024-11-05T22:18:15.881Z</time>
      </trkpt>
      <trkpt lat="43.97053" lon="3.71945">
        <ele>208.26</ele>
        <time>2024-11-05T22:18:34.546Z</time>
      </trkpt>
      <trkpt lat="43.96994" lon="3.71938">
        <ele>207.75</ele>
        <time>2024-11-05T22:18:53.220Z</time>
      </trkpt>
      <trkpt lat="43.96973" lon="3.71931">
        <ele>207.48</ele>
        <time>2024-11-05T22:19:11.898Z</time>
      </trkpt>
      <trkpt lat="43.96938" lon="3.71918">
        <ele>207.45</ele>
        <time>2024-11-05T22:19:30.582Z</time>
      </trkpt>
      <trkpt lat="43.96918" lon="3.71911">
        <ele>207.22</ele>
        <time>2024-11-05T22:19:49.269Z</time>
      </trkpt>
      <trkpt lat="43.96885" lon="3.71893">
        <ele>206.66</ele>
        <time>2024-11-05T22:20:07.962Z</time>
      </trkpt>
      <trkpt lat="43.96852" lon="3.71859">
        <ele>206.46</ele>
        <time>2024-11-05T22:20:26.661Z</time>
      </trkpt>
      <trkpt lat="43.96816" lon="3.71803">
        <ele>206.2</ele>
        <time>2024-11-05T22:20:45.369Z</time>
      </trkpt>
      <trkpt lat="43.96794" lon="3.71741">
        <ele>206.08</ele>
        <time>2024-11-05T22:21:04.085Z</time>
      </trkpt>
      <trkpt lat="43.9678" lon="3.71694">
        <ele>206.27</ele>
        <time>2024-11-05T22:21:22.807Z</time>
      </trkpt>
      <trkpt lat="43.96758" lon="3.71617">
        <ele>205.8</ele>
        <time>2024-11-05T22:21:41.538Z</time>
      </trkpt>
      <trkpt lat="43.96736" lon="3.71568">
        <ele>205.48</ele>
        <time>2024-11-05T22:22:00.276Z</time>
      </trkpt>
      <trkpt lat="43.96706" lon="3.71519">
        <ele>205.25</ele>
        <time>2024-11-05T22:22:19.021Z</time>
      </trkpt>
      <trkpt lat="43.96669" lon="3.71482">
        <ele>204.89</ele>
        <time>2024-11-05T22:22:37.774Z</time>
      </trkpt>
      <trkpt lat="43.96625" lon="3.71446">
        <ele>204.52</ele>
        <time>2024-11-05T22:22:56.535Z</time>
      </trkpt>
      <trkpt lat="43.96588" lon="3.71409">
        <ele>204.15</ele>
        <time>2024-11-05T22:23:15.303Z</time>
      </trkpt>
      <trkpt lat="43.96553" lon="3.71353">
        <ele>203.75</ele>
        <time>2024-11-05T22:23:34.080Z</time>
      </trkpt>
      <trkpt lat="43.96495" lon="3.71241">
        <ele>203.05</ele>
        <time>2024-11-05T22:23:52.873Z</time>
      </trkpt>
      <trkpt lat="43.96448" lon="3.71158">
        <ele>202.68</ele>
        <time>2024-11-05T22:24:11.678Z</time>
      </trkpt>
      <trkpt lat="43.96371" lon="3.71054">
        <ele>202.15</ele>
        <time>2024-11-05T22:24:30.500Z</time>
      </trkpt>
      <trkpt lat="43.96323" lon="3.70999">
        <ele>201.62</ele>
        <time>2024-11-05T22:24:49.332Z</time>
      </trkpt>
      <trkpt lat="43.9626" lon="3.70928">
        <ele>201.23</ele>
        <time>2024-11-05T22:25:08.177Z</time>
      </trkpt>
      <trkpt lat="43.96234" lon="3.70902">
        <ele>201.02</ele>
        <time>2024-11-05T22:25:27.027Z</time>
      </trkpt>
      <trkpt lat="43.96209" lon="3.70884">
        <ele>200.81</ele>
        <time>2024-11-05T22:25:45.882Z</time>
      </trkpt>
      <trkpt lat="43.96166" lon="3.70859">
        <ele>200.5</ele>
        <time>2024-11-05T22:26:04.744Z</time>
      </trkpt>
      <trkpt lat="43.96145" lon="3.7085">
        <ele>200.34</ele>
        <time>2024-11-05T22:26:23.610Z</time>
      </trkpt>
      <trkpt lat="43.96126" lon="3.70843">
        <ele>199.98</ele>
        <time>2024-11-05T22:26:42.479Z</time>
      </trkpt>
      <trkpt lat="43.96085" lon="3.70839">
        <ele>199.88</ele>
        <time>2024-11-05T22:27:01.354Z</time>
      </trkpt>
      <trkpt lat="43.9604" lon="3.70849">
        <ele>199.53</ele>
        <time>2024-11-05T22:27:20.237Z</time>
      </trkpt>
      <trkpt lat="43.95995" lon="3.70867">
        <ele>199.09</ele>
        <time>2024-11-05T22:27:39.127Z</time>
      </trkpt>
      <trkpt lat="43.9591" lon="3.70932">
        <ele>198.27</ele>
        <time>2024-11-05T22:27:58.033Z</time>
      </trkpt>
      <trkpt lat="43.95862" lon="3.70957">
        <ele>197.85</ele>
        <time>2024-11-05T22:28:16.947Z</time>
      </trkpt>
      <trkpt lat="43.95813" lon="3.70964">
        <ele>197.4</ele>
        <time>2024-11-05T22:28:35.869Z</time>
      </trkpt>
      <trkpt lat="43.95772" lon="3.70963">
        <ele>197.08</ele>
        <time>2024-11-05T22:28:54.797Z</time>
      </trkpt>
      <trkpt lat="43.95723" lon="3.70952">
        <ele>196.73</ele>
        <time>2024-11-05T22:29:13.733Z</time>
      </trkpt>
      <trkpt lat="43.95677" lon="3.70948">
        <ele>196.38</ele>
        <time>2024-11-05T22:29:32.677Z</time>
      </trkpt>
      <trkpt lat="43.95631" lon="3.70956">
        <ele>195.99</ele>
        <time>2024-11-05T22:29:51.628Z</time>
      </trkpt>
      <trkpt lat="43.95602" lon="3.70966">
        <ele>195.73</ele>
        <time>2024-11-05T22:30:10.584Z</time>
      </trkpt>
      <trkpt lat="43.95577" lon="3.70979">
        <ele>195.49</ele>
        <time>2024-11-05T22:30:29.544Z</time>
      </trkpt>
      <trkpt lat="43.95427" lon="3.71069">
        <ele>194.39</ele>
        <time>2024-11-05T22:30:48.530Z</time>
      </trkpt>
      <trkpt lat="43.95386" lon="3.71082">
        <ele>194.05</ele>
        <time>2024-11-05T22:31:07.523Z</time>
      </trkpt>
      <trkpt lat="43.95342" lon="3.71087">
        <ele>193.81</ele>
        <time>2024-11-05T22:31:26.523Z</time>
      </trkpt>
      <trkpt lat="43.95293" lon="3.71085">
        <ele>193.39</ele>
        <time>2024-11-05T22:31:45.531Z</time>
      </trkpt>
      <trkpt lat="43.95241" lon="3.71065">
        <ele>193.05</ele>
        <time>2024-11-05T22:32:04.548Z</time>
      </trkpt>
      <trkpt lat="43.95206" lon="3.71044">
        <ele>192.81</ele>
        <time>2024-11-05T22:32:23.571Z</time>
      </trkpt>
      <trkpt lat="43.95129" lon="3.70991">
        <ele>192.22</ele>
        <time>2024-11-05T22:32:42.608Z</time>
      </trkpt>
      <trkpt lat="43.95093" lon="3.70975">
        <ele>192</ele>
        <time>2024-11-05T22:33:01.651Z</time>
      </trkpt>
      <trkpt lat="43.95064" lon="3.70972">
        <ele>192.01</ele>
        <time>2024-11-05T22:33:20.698Z</time>
      </trkpt>
      <trkpt lat="43.95037" lon="3.70974">
        <ele>191.9</ele>
        <time>2024-11-05T22:33:39.750Z</time>
      </trkpt>
      <trkpt lat="43.94985" lon="3.70982">
        <ele>191.33</ele>
        <time>2024-11-05T22:33:58.810Z</time>
      </trkpt>
      <trkpt lat="43.94962" lon="3.70991">
        <ele>191.15</ele>
        <time>2024-11-05T22:34:17.874Z</time>
      </trkpt>
      <trkpt lat="43.94949" lon="3.70995">
        <ele>190.78</ele>
        <time>2024-11-05T22:34:36.940Z</time>
      </trkpt>
      <trkpt lat="43.94945" lon="3.70998">
        <ele>190.6</ele>
        <time>2024-11-05T22:34:56.007Z</time>
      </trkpt>
      <trkpt lat="43.94901" lon="3.71029">
        <ele>190.21</ele>
        <time>2024-11-05T22:35:15.081Z</time>
      </trkpt>
      <trkpt lat="43.94826" lon="3.7112">
        <ele>189.41</ele>
        <time>2024-11-05T22:35:34.171Z</time>
      </trkpt>
      <trkpt lat="43.94797" lon="3.71148">
        <ele>189.26</ele>
        <time>2024-11-05T22:35:53.267Z</time>
      </trkpt>
      <trkpt lat="43.94764" lon="3.71173">
        <ele>188.92</ele>
        <time>2024-11-05T22:36:12.369Z</time>
      </trkpt>
      <trkpt lat="43.94726" lon="3.71193">
        <ele>188.56</ele>
        <time>2024-11-05T22:36:31.478Z</time>
      </trkpt>
      <trkpt lat="43.94695" lon="3.71205">
        <ele>188.37</ele>
        <time>2024-11-05T22:36:50.592Z</time>
      </trkpt>
      <trkpt lat="43.94631" lon="3.71219">
        <ele>187.97</ele>
        <time>2024-11-05T22:37:09.716Z</time>
      </trkpt>
      <trkpt lat="43.94602" lon="3.71226">
        <ele>187.61</ele>
        <time>2024-11-05T22:37:28.845Z</time>
      </trkpt>
      <trkpt lat="43.94568" lon="3.71245">
        <ele>187.15</ele>
        <time>2024-11-05T22:37:47.980Z</time>
      </trkpt>
      <trkpt lat="43.94533" lon="3.71265">
        <ele>186.91</ele>
        <time>2024-11-05T22:38:07.121Z</time>
      </trkpt>
      <trkpt lat="43.94489" lon="3.71289">
        <ele>186.07</ele>
        <time>2024-11-05T22:38:26.269Z</time>
      </trkpt>
      <trkpt lat="43.94472" lon="3.71305">
        <ele>185.6</ele>
        <time>2024-11-05T22:38:45.421Z</time>
      </trkpt>
      <trkpt lat="43.94465" lon="3.71317">
        <ele>185.27</ele>
        <time>2024-11-05T22:39:04.574Z</time>
      </trkpt>
      <trkpt lat="43.94464" lon="3.71332">
        <ele>184.98</ele>
        <time>2024-11-05T22:39:23.729Z</time>
      </trkpt>
      <trkpt lat="43.94466" lon="3.71365">
        <ele>184.68</ele>
        <time>2024-11-05T22:39:42.888Z</time>
      </trkpt>
      <trkpt lat="43.94463" lon="3.71373">
        <ele>184.59</ele>
        <time>2024-11-05T22:40:02.048Z</time>
      </trkpt>
      <trkpt lat="43.94459" lon="3.71376">
        <ele>184.5</ele>
        <time>2024-11-05T22:40:21.209Z</time>
      </trkpt>
      <trkpt lat="43.94451" lon="3.71378">
        <ele>184.33</ele>
        <time>2024-11-05T22:40:40.371Z</time>
      </trkpt>
      <trkpt lat="43.94444" lon="3.71375">
        <ele>184.19</ele>
        <time>2024-11-05T22:40:59.534Z</time>
      </trkpt>
      <trkpt lat="43.94436" lon="3.71377">
        <ele>184.04</ele>
        <time>2024-11-05T22:41:18.699Z</time>
      </trkpt>
      <trkpt lat="43.94428" lon="3.71389">
        <ele>183.83</ele>
        <time>2024-11-05T22:41:37.865Z</time>
      </trkpt>
      <trkpt lat="43.94416" lon="3.7144">
        <ele>182.84</ele>
        <time>2024-11-05T22:41:57.038Z</time>
      </trkpt>
      <trkpt lat="43.94415" lon="3.71452">
        <ele>182.62</ele>
        <time>2024-11-05T22:42:16.212Z</time>
      </trkpt>
      <trkpt lat="43.94422" lon="3.71477">
        <ele>182.29</ele>
        <time>2024-11-05T22:42:35.389Z</time>
      </trkpt>
      <trkpt lat="43.94429" lon="3.71499">
        <ele>182.55</ele>
        <time>2024-11-05T22:42:54.569Z</time>
      </trkpt>
      <trkpt lat="43.94434" lon="3.71516">
        <ele>183.01</ele>
        <time>2024-11-05T22:43:13.751Z</time>
      </trkpt>
      <trkpt lat="43.94455" lon="3.71587">
        <ele>185.68</ele>
        <time>2024-11-05T22:43:32.942Z</time>
      </trkpt>
      <trkpt lat="43.94457" lon="3.71604">
        <ele>186.19</ele>
        <time>2024-11-05T22:43:52.135Z</time>
      </trkpt>
      <trkpt lat="43.94457" lon="3.71634">
        <ele>187.09</ele>
        <time>2024-11-05T22:44:11.331Z</time>
      </trkpt>
      <trkpt lat="43.94457" lon="3.71688">
        <ele>189.08</ele>
        <time>2024-11-05T22:44:30.534Z</time>
      </trkpt>
      <trkpt lat="43.94452" lon="3.71686">
        <ele>189.33</ele>
        <time>2024-11-05T22:44:49.737Z</time>
      </trkpt>
      <trkpt lat="43.94436" lon="3.71682">
        <ele>189.12</ele>
        <time>2024-11-05T22:45:08.943Z</time>
      </trkpt>
      <trkpt lat="43.9443" lon="3.71678">
        <ele>188.94</ele>
        <time>2024-11-05T22:45:28.150Z</time>
      </trkpt>
      <trkpt lat="43.94427" lon="3.71668">
        <ele>188.67</ele>
        <time>2024-11-05T22:45:47.358Z</time>
      </trkpt>
      <trkpt lat="43.94417" lon="3.71657">
        <ele>188.19</ele>
        <time>2024-11-05T22:46:06.568Z</time>
      </trkpt>
      <trkpt lat="43.94403" lon="3.71654">
        <ele>187.7</ele>
        <time>2024-11-05T22:46:25.781Z</time>
      </trkpt>
      <trkpt lat="43.94388" lon="3.71664">
        <ele>187.46</ele>
        <time>2024-11-05T22:46:44.996Z</time>
      </trkpt>
      <trkpt lat="43.94381" lon="3.71682">
        <ele>187.25</ele>
        <time>2024-11-05T22:47:04.214Z</time>
      </trkpt>
      <trkpt lat="43.94381" lon="3.71689">
        <ele>187.19</ele>
        <time>2024-11-05T22:47:23.433Z</time>
      </trkpt>
      <trkpt lat="43.94381" lon="3.71696">
        <ele>187.34</ele>
        <time>2024-11-05T22:47:42.652Z</time>
      </trkpt>
      <trkpt lat="43.94374" lon="3.71707">
        <ele>187.71</ele>
        <time>2024-11-05T22:48:01.873Z</time>
      </trkpt>
      <trkpt lat="43.94369" lon="3.7171">
        <ele>187.91</ele>
        <time>2024-11-05T22:48:21.095Z</time>
      </trkpt>
      <trkpt lat="43.94364" lon="3.7171">
        <ele>188.09</ele>
        <time>2024-11-05T22:48:40.318Z</time>
      </trkpt>
      <trkpt lat="43.9436" lon="3.71706">
        <ele>188.29</ele>
        <time>2024-11-05T22:48:59.541Z</time>
      </trkpt>
      <trkpt lat="43.94332" lon="3.7168">
        <ele>188.52</ele>
        <time>2024-11-05T22:49:18.770Z</time>
      </trkpt>
      <trkpt lat="43.94318" lon="3.7167">
        <ele>188.55</ele>
        <time>2024-11-05T22:49:38.001Z</time>
      </trkpt>
      <trkpt lat="43.94269" lon="3.71655">
        <ele>187.87</ele>
        <time>2024-11-05T22:49:57.240Z</time>
      </trkpt>
      <trkpt lat="43.94223" lon="3.71634">
        <ele>186.78</ele>
        <time>2024-11-05T22:50:16.487Z</time>
      </trkpt>
      <trkpt lat="43.94195" lon="3.71614">
        <ele>186.24</ele>
        <time>2024-11-05T22:50:35.739Z</time>
      </trkpt>
      <trkpt lat="43.94119" lon="3.71581">
        <ele>185.25</ele>
        <time>2024-11-05T22:50:55.004Z</time>
      </trkpt>
      <trkpt lat="43.94098" lon="3.71566">
        <ele>185.11</ele>
        <time>2024-11-05T22:51:14.273Z</time>
      </trkpt>
      <trkpt lat="43.94085" lon="3.7156">
        <ele>184.95</ele>
        <time>2024-11-05T22:51:33.544Z</time>
      </trkpt>
      <trkpt lat="43.94076" lon="3.71562">
        <ele>184.78</ele>
        <time>2024-11-05T22:51:52.816Z</time>
      </trkpt>
      <trkpt lat="43.94065" lon="3.71574">
        <ele>184.53</ele>
        <time>2024-11-05T22:52:12.091Z</time>
      </trkpt>
      <trkpt lat="43.94042" lon="3.71608">
        <ele>184.24</ele>
        <time>2024-11-05T22:52:31.371Z</time>
      </trkpt>
      <trkpt lat="43.94033" lon="3.71611">
        <ele>184.29</ele>
        <time>2024-11-05T22:52:50.652Z</time>
      </trkpt>
      <trkpt lat="43.94023" lon="3.71608">
        <ele>184.41</ele>
        <time>2024-11-05T22:53:09.935Z</time>
      </trkpt>
      <trkpt lat="43.94018" lon="3.7162">
        <ele>184.5</ele>
        <time>2024-11-05T22:53:29.220Z</time>
      </trkpt>
      <trkpt lat="43.94013" lon="3.71618">
        <ele>184.52</ele>
        <time>2024-11-05T22:53:48.506Z</time>
      </trkpt>
      <trkpt lat="43.94007" lon="3.71621">
        <ele>184.5</ele>
        <time>2024-11-05T22:54:07.793Z</time>
      </trkpt>
      <trkpt lat="43.93988" lon="3.71664">
        <ele>184.16</ele>
        <time>2024-11-05T22:54:27.085Z</time>
      </trkpt>
      <trkpt lat="43.93975" lon="3.71707">
        <ele>183.77</ele>
        <time>2024-11-05T22:54:46.383Z</time>
      </trkpt>
      <trkpt lat="43.93963" lon="3.71767">
        <ele>183.56</ele>
        <time>2024-11-05T22:55:05.688Z</time>
      </trkpt>
      <trkpt lat="43.93961" lon="3.71794">
        <ele>183.62</ele>
        <time>2024-11-05T22:55:24.996Z</time>
      </trkpt>
      <trkpt lat="43.93961" lon="3.71856">
        <ele>183.83</ele>
        <time>2024-11-05T22:55:44.311Z</time>
      </trkpt>
      <trkpt lat="43.93965" lon="3.71885">
        <ele>183.97</ele>
        <time>2024-11-05T22:56:03.630Z</time>
      </trkpt>
      <trkpt lat="43.93968" lon="3.71912">
        <ele>184.24</ele>
        <time>2024-11-05T22:56:22.952Z</time>
      </trkpt>
      <trkpt lat="43.93974" lon="3.71936">
        <ele>184.53</ele>
        <time>2024-11-05T22:56:42.277Z</time>
      </trkpt>
      <trkpt lat="43.9399" lon="3.71984">
        <ele>185.05</ele>
        <time>2024-11-05T22:57:01.608Z</time>
      </trkpt>
      <trkpt lat="43.94014" lon="3.72033">
        <ele>185.49</ele>
        <time>2024-11-05T22:57:20.946Z</time>
      </trkpt>
      <trkpt lat="43.94032" lon="3.72061">
        <ele>185.8</ele>
        <time>2024-11-05T22:57:40.288Z</time>
      </trkpt>
      <trkpt lat="43.94047" lon="3.7208">
        <ele>186.03</ele>
        <time>2024-11-05T22:57:59.633Z</time>
      </trkpt>
      <trkpt lat="43.94085" lon="3.72116">
        <ele>186.57</ele>
        <time>2024-11-05T22:58:18.986Z</time>
      </trkpt>
      <trkpt lat="43.94107" lon="3.72131">
        <ele>186.83</ele>
        <time>2024-11-05T22:58:38.343Z</time>
      </trkpt>
      <trkpt lat="43.94127" lon="3.72141">
        <ele>186.93</ele>
        <time>2024-11-05T22:58:57.703Z</time>
      </trkpt>
      <trkpt lat="43.9415" lon="3.7215">
        <ele>187.1</ele>
        <time>2024-11-05T22:59:17.067Z</time>
      </trkpt>
      <trkpt lat="43.94164" lon="3.72155">
        <ele>187.28</ele>
        <time>2024-11-05T22:59:36.433Z</time>
      </trkpt>
      <trkpt lat="43.94194" lon="3.72159">
        <ele>187.95</ele>
        <time>2024-11-05T22:59:55.804Z</time>
      </trkpt>
      <trkpt lat="43.94213" lon="3.72158">
        <ele>188.28</ele>
        <time>2024-11-05T23:00:15.178Z</time>
      </trkpt>
      <trkpt lat="43.94248" lon="3.72156">
        <ele>188.15</ele>
        <time>2024-11-05T23:00:34.558Z</time>
      </trkpt>
      <trkpt lat="43.9428" lon="3.72156">
        <ele>188.33</ele>
        <time>2024-11-05T23:00:53.943Z</time>
      </trkpt>
      <trkpt lat="43.94338" lon="3.72157">
        <ele>188.91</ele>
        <time>2024-11-05T23:01:13.337Z</time>
      </trkpt>
      <trkpt lat="43.94395" lon="3.72157">
        <ele>189.81</ele>
        <time>2024-11-05T23:01:32.740Z</time>
      </trkpt>
      <trkpt lat="43.94411" lon="3.72158">
        <ele>189.95</ele>
        <time>2024-11-05T23:01:52.146Z</time>
      </trkpt>
      <trkpt lat="43.94444" lon="3.72166">
        <ele>190.14</ele>
        <time>2024-11-05T23:02:11.557Z</time>
      </trkpt>
      <trkpt lat="43.94482" lon="3.72185">
        <ele>190.63</ele>
        <time>2024-11-05T23:02:30.975Z</time>
      </trkpt>
      <trkpt lat="43.94535" lon="3.72226">
        <ele>191.6</ele>
        <time>2024-11-05T23:02:50.402Z</time>
      </trkpt>
      <trkpt lat="43.94575" lon="3.7227">
        <ele>192.18</ele>
        <time>2024-11-05T23:03:09.837Z</time>
      </trkpt>
      <trkpt lat="43.94612" lon="3.72343">
        <ele>192.86</ele>
        <time>2024-11-05T23:03:29.283Z</time>
      </trkpt>
      <trkpt lat="43.9464" lon="3.7243">
        <ele>193.74</ele>
        <time>2024-11-05T23:03:48.740Z</time>
      </trkpt>
      <trkpt lat="43.94647" lon="3.7248">
        <ele>194.1</ele>
        <time>2024-11-05T23:04:08.203Z</time>
      </trkpt>
      <trkpt lat="43.94649" lon="3.72539">
        <ele>194.55</ele>
        <time>2024-11-05T23:04:27.672Z</time>
      </trkpt>
      <trkpt lat="43.94647" lon="3.72579">
        <ele>194.84</ele>
        <time>2024-11-05T23:04:47.146Z</time>
      </trkpt>
      <trkpt lat="43.94615" lon="3.72878">
        <ele>196.82</ele>
        <time>2024-11-05T23:05:06.655Z</time>
      </trkpt>
      <trkpt lat="43.94608" lon="3.72933">
        <ele>197.06</ele>
        <time>2024-11-05T23:05:26.171Z</time>
      </trkpt>
      <trkpt lat="43.9459" lon="3.73087">
        <ele>198.42</ele>
        <time>2024-11-05T23:05:45.705Z</time>
      </trkpt>
      <trkpt lat="43.94585" lon="3.73143">
        <ele>198.5</ele>
        <time>2024-11-05T23:06:05.245Z</time>
      </trkpt>
      <trkpt lat="43.94582" lon="3.73196">
        <ele>198.88</ele>
        <time>2024-11-05T23:06:24.791Z</time>
      </trkpt>
      <trkpt lat="43.94584" lon="3.73255">
        <ele>199.5</ele>
        <time>2024-11-05T23:06:44.344Z</time>
      </trkpt>
      <trkpt lat="43.94595" lon="3.73328">
        <ele>200.27</ele>
        <time>2024-11-05T23:07:03.906Z</time>
      </trkpt>
      <trkpt lat="43.94606" lon="3.734">
        <ele>201.31</ele>
        <time>2024-11-05T23:07:23.476Z</time>
      </trkpt>
    </trkseg>
  </trk>
  <trk>
    <name><![CDATA[V2 2025 J1 road trip Le puy - Chateauneuf]]></name>
    <extensions>
      <line xmlns="http://www.topografix.com/GPX/gpx_style/0/2">
        <color>000088</color>
        <width>4</width>
      </line>
    </extensions>
    <trkseg>
      <trkpt lat="45.01235" lon="3.8959">
        <ele>805.74</ele>
        <time>2025-04-15T15:06:02.000Z</time>
      </trkpt>
      <trkpt lat="45.01251" lon="3.89577">
        <ele>805.72</ele>
        <time>2025-04-15T15:06:02.003Z</time>
      </trkpt>
      <trkpt lat="45.01255" lon="3.89577">
        <ele>805.67</ele>
        <time>2025-04-15T15:06:02.007Z</time>
      </trkpt>
      <trkpt lat="45.01269" lon="3.89613">
        <ele>805.41</ele>
        <time>2025-04-15T15:06:02.015Z</time>
      </trkpt>
      <trkpt lat="45.01283" lon="3.8965">
        <ele>805.05</ele>
        <time>2025-04-15T15:06:02.028Z</time>
      </trkpt>
      <trkpt lat="45.01261" lon="3.89653">
        <ele>804.86</ele>
        <time>2025-04-15T15:06:02.045Z</time>
      </trkpt>
      <trkpt lat="45.01239" lon="3.89657">
        <ele>804.66</ele>
        <time>2025-04-15T15:06:02.065Z</time>
      </trkpt>
      <trkpt lat="45.01217" lon="3.89661">
        <ele>804.54</ele>
        <time>2025-04-15T15:06:02.089Z</time>
      </trkpt>
      <trkpt lat="45.012" lon="3.89663">
        <ele>804.48</ele>
        <time>2025-04-15T15:06:02.116Z</time>
      </trkpt>
      <trkpt lat="45.01182" lon="3.89665">
        <ele>804.45</ele>
        <time>2025-04-15T15:06:02.145Z</time>
      </trkpt>
      <trkpt lat="45.01157" lon="3.89676">
        <ele>804.27</ele>
        <time>2025-04-15T15:06:02.179Z</time>
      </trkpt>
      <trkpt lat="45.01137" lon="3.89659">
        <ele>804.27</ele>
        <time>2025-04-15T15:06:02.216Z</time>
      </trkpt>
      <trkpt lat="45.0112" lon="3.89652">
        <ele>804.24</ele>
        <time>2025-04-15T15:06:02.256Z</time>
      </trkpt>
      <trkpt lat="45.01109" lon="3.89648">
        <ele>804.23</ele>
        <time>2025-04-15T15:06:02.298Z</time>
      </trkpt>
      <trkpt lat="45.01091" lon="3.89635">
        <ele>804.28</ele>
        <time>2025-04-15T15:06:02.343Z</time>
      </trkpt>
      <trkpt lat="45.01073" lon="3.89622">
        <ele>804.27</ele>
        <time>2025-04-15T15:06:02.391Z</time>
      </trkpt>
      <trkpt lat="45.01057" lon="3.89597">
        <ele>804.34</ele>
        <time>2025-04-15T15:06:02.443Z</time>
      </trkpt>
      <trkpt lat="45.01041" lon="3.89573">
        <ele>804.37</ele>
        <time>2025-04-15T15:06:02.499Z</time>
      </trkpt>
      <trkpt lat="45.01024" lon="3.89545">
        <ele>804.3</ele>
        <time>2025-04-15T15:06:02.559Z</time>
      </trkpt>
      <trkpt lat="45.01012" lon="3.89518">
        <ele>804.26</ele>
        <time>2025-04-15T15:06:02.623Z</time>
      </trkpt>
      <trkpt lat="45.01" lon="3.89491">
        <ele>804.24</ele>
        <time>2025-04-15T15:06:02.690Z</time>
      </trkpt>
      <trkpt lat="45.00985" lon="3.89455">
        <ele>804.35</ele>
        <time>2025-04-15T15:06:02.762Z</time>
      </trkpt>
      <trkpt lat="45.0097" lon="3.89418">
        <ele>804.2</ele>
        <time>2025-04-15T15:06:02.839Z</time>
      </trkpt>
      <trkpt lat="45.00957" lon="3.89384">
        <ele>803.99</ele>
        <time>2025-04-15T15:06:02.920Z</time>
      </trkpt>
      <trkpt lat="45.00946" lon="3.89367">
        <ele>803.64</ele>
        <time>2025-04-15T15:06:03.004Z</time>
      </trkpt>
      <trkpt lat="45.00936" lon="3.8935">
        <ele>803.16</ele>
        <time>2025-04-15T15:06:03.091Z</time>
      </trkpt>
      <trkpt lat="45.00936" lon="3.8935">
        <ele>802.78</ele>
        <time>2025-04-15T15:06:03.178Z</time>
      </trkpt>
      <trkpt lat="45.00921" lon="3.89327">
        <ele>802.28</ele>
        <time>2025-04-15T15:06:03.268Z</time>
      </trkpt>
      <trkpt lat="45.00907" lon="3.89304">
        <ele>801.76</ele>
        <time>2025-04-15T15:06:03.362Z</time>
      </trkpt>
      <trkpt lat="45.00893" lon="3.89281">
        <ele>801.16</ele>
        <time>2025-04-15T15:06:03.459Z</time>
      </trkpt>
      <trkpt lat="45.00886" lon="3.89253">
        <ele>800.73</ele>
        <time>2025-04-15T15:06:03.559Z</time>
      </trkpt>
      <trkpt lat="45.00881" lon="3.89216">
        <ele>800.43</ele>
        <time>2025-04-15T15:06:03.664Z</time>
      </trkpt>
      <trkpt lat="45.00876" lon="3.8918">
        <ele>800.14</ele>
        <time>2025-04-15T15:06:03.773Z</time>
      </trkpt>
      <trkpt lat="45.00861" lon="3.89141">
        <ele>799.76</ele>
        <time>2025-04-15T15:06:03.887Z</time>
      </trkpt>
      <trkpt lat="45.00848" lon="3.89116">
        <ele>799.44</ele>
        <time>2025-04-15T15:06:04.004Z</time>
      </trkpt>
      <trkpt lat="45.00835" lon="3.8909">
        <ele>798.98</ele>
        <time>2025-04-15T15:06:04.125Z</time>
      </trkpt>
      <trkpt lat="45.00822" lon="3.89064">
        <ele>798.33</ele>
        <time>2025-04-15T15:06:04.249Z</time>
      </trkpt>
      <trkpt lat="45.00806" lon="3.8904">
        <ele>797.71</ele>
        <time>2025-04-15T15:06:04.377Z</time>
      </trkpt>
      <trkpt lat="45.0079" lon="3.89015">
        <ele>797</ele>
        <time>2025-04-15T15:06:04.509Z</time>
      </trkpt>
      <trkpt lat="45.00775" lon="3.88991">
        <ele>796.26</ele>
        <time>2025-04-15T15:06:04.645Z</time>
      </trkpt>
      <trkpt lat="45.00764" lon="3.88965">
        <ele>795.53</ele>
        <time>2025-04-15T15:06:04.784Z</time>
      </trkpt>
      <trkpt lat="45.00762" lon="3.88942">
        <ele>794.83</ele>
        <time>2025-04-15T15:06:04.926Z</time>
      </trkpt>
      <trkpt lat="45.0077" lon="3.88918">
        <ele>794.36</ele>
        <time>2025-04-15T15:06:05.071Z</time>
      </trkpt>
      <trkpt lat="45.00779" lon="3.88895">
        <ele>794.11</ele>
        <time>2025-04-15T15:06:05.219Z</time>
      </trkpt>
      <trkpt lat="45.00783" lon="3.88875">
        <ele>793.81</ele>
        <time>2025-04-15T15:06:05.369Z</time>
      </trkpt>
      <trkpt lat="45.00781" lon="3.88852">
        <ele>793.36</ele>
        <time>2025-04-15T15:06:05.522Z</time>
      </trkpt>
      <trkpt lat="45.0077" lon="3.88813">
        <ele>792.67</ele>
        <time>2025-04-15T15:06:05.680Z</time>
      </trkpt>
      <trkpt lat="45.00753" lon="3.88777">
        <ele>791.92</ele>
        <time>2025-04-15T15:06:05.842Z</time>
      </trkpt>
      <trkpt lat="45.00736" lon="3.88741">
        <ele>791.04</ele>
        <time>2025-04-15T15:06:06.009Z</time>
      </trkpt>
      <trkpt lat="45.00719" lon="3.88705">
        <ele>790.34</ele>
        <time>2025-04-15T15:06:06.181Z</time>
      </trkpt>
      <trkpt lat="45.00702" lon="3.88669">
        <ele>789.94</ele>
        <time>2025-04-15T15:06:06.358Z</time>
      </trkpt>
      <trkpt lat="45.00682" lon="3.88635">
        <ele>789.36</ele>
        <time>2025-04-15T15:06:06.540Z</time>
      </trkpt>
      <trkpt lat="45.00667" lon="3.8862">
        <ele>788.52</ele>
        <time>2025-04-15T15:06:06.725Z</time>
      </trkpt>
      <trkpt lat="45.00652" lon="3.88605">
        <ele>787.6</ele>
        <time>2025-04-15T15:06:06.913Z</time>
      </trkpt>
      <trkpt lat="45.0063" lon="3.88603">
        <ele>786.51</ele>
        <time>2025-04-15T15:06:07.105Z</time>
      </trkpt>
      <trkpt lat="45.00608" lon="3.88601">
        <ele>785.32</ele>
        <time>2025-04-15T15:06:07.300Z</time>
      </trkpt>
      <trkpt lat="45.00586" lon="3.88598">
        <ele>784.08</ele>
        <time>2025-04-15T15:06:07.499Z</time>
      </trkpt>
      <trkpt lat="45.00568" lon="3.88586">
        <ele>783.03</ele>
        <time>2025-04-15T15:06:07.701Z</time>
      </trkpt>
      <trkpt lat="45.00549" lon="3.88573">
        <ele>782.01</ele>
        <time>2025-04-15T15:06:07.906Z</time>
      </trkpt>
      <trkpt lat="45.00519" lon="3.88562">
        <ele>780.83</ele>
        <time>2025-04-15T15:06:08.116Z</time>
      </trkpt>
      <trkpt lat="45.0049" lon="3.88554">
        <ele>779.65</ele>
        <time>2025-04-15T15:06:08.331Z</time>
      </trkpt>
      <trkpt lat="45.00461" lon="3.88546">
        <ele>778.42</ele>
        <time>2025-04-15T15:06:08.551Z</time>
      </trkpt>
      <trkpt lat="45.00431" lon="3.88538">
        <ele>777.23</ele>
        <time>2025-04-15T15:06:08.776Z</time>
      </trkpt>
      <trkpt lat="45.00431" lon="3.88538">
        <ele>776.22</ele>
        <time>2025-04-15T15:06:09.001Z</time>
      </trkpt>
      <trkpt lat="45.00407" lon="3.88529">
        <ele>775.38</ele>
        <time>2025-04-15T15:06:09.230Z</time>
      </trkpt>
      <trkpt lat="45.00382" lon="3.8852">
        <ele>774.61</ele>
        <time>2025-04-15T15:06:09.463Z</time>
      </trkpt>
      <trkpt lat="45.00358" lon="3.88511">
        <ele>773.88</ele>
        <time>2025-04-15T15:06:09.700Z</time>
      </trkpt>
      <trkpt lat="45.00334" lon="3.88502">
        <ele>773.15</ele>
        <time>2025-04-15T15:06:09.941Z</time>
      </trkpt>
      <trkpt lat="45.00309" lon="3.88493">
        <ele>772.39</ele>
        <time>2025-04-15T15:06:10.186Z</time>
      </trkpt>
      <trkpt lat="45.00292" lon="3.88478">
        <ele>771.71</ele>
        <time>2025-04-15T15:06:10.434Z</time>
      </trkpt>
      <trkpt lat="45.00279" lon="3.88442">
        <ele>771.38</ele>
        <time>2025-04-15T15:06:10.687Z</time>
      </trkpt>
      <trkpt lat="45.00266" lon="3.88405">
        <ele>771.12</ele>
        <time>2025-04-15T15:06:10.944Z</time>
      </trkpt>
      <trkpt lat="45.00258" lon="3.88392">
        <ele>770.79</ele>
        <time>2025-04-15T15:06:11.203Z</time>
      </trkpt>
      <trkpt lat="45.00249" lon="3.88386">
        <ele>770.45</ele>
        <time>2025-04-15T15:06:11.464Z</time>
      </trkpt>
      <trkpt lat="45.00229" lon="3.88377">
        <ele>770.04</ele>
        <time>2025-04-15T15:06:11.728Z</time>
      </trkpt>
      <trkpt lat="45.00209" lon="3.88367">
        <ele>769.64</ele>
        <time>2025-04-15T15:06:11.996Z</time>
      </trkpt>
      <trkpt lat="45.00189" lon="3.88358">
        <ele>769.3</ele>
        <time>2025-04-15T15:06:12.267Z</time>
      </trkpt>
      <trkpt lat="45.00162" lon="3.88353">
        <ele>768.87</ele>
        <time>2025-04-15T15:06:12.542Z</time>
      </trkpt>
      <trkpt lat="45.00135" lon="3.88347">
        <ele>768.41</ele>
        <time>2025-04-15T15:06:12.822Z</time>
      </trkpt>
      <trkpt lat="45.00118" lon="3.88339">
        <ele>768.02</ele>
        <time>2025-04-15T15:06:13.105Z</time>
      </trkpt>
      <trkpt lat="45.00099" lon="3.8832">
        <ele>767.73</ele>
        <time>2025-04-15T15:06:13.391Z</time>
      </trkpt>
      <trkpt lat="45.00079" lon="3.883">
        <ele>767.47</ele>
        <time>2025-04-15T15:06:13.681Z</time>
      </trkpt>
      <trkpt lat="45.00079" lon="3.883">
        <ele>767.13</ele>
        <time>2025-04-15T15:06:13.971Z</time>
      </trkpt>
      <trkpt lat="45.00056" lon="3.88294">
        <ele>766.76</ele>
        <time>2025-04-15T15:06:14.265Z</time>
      </trkpt>
      <trkpt lat="45.00028" lon="3.88298">
        <ele>766.27</ele>
        <time>2025-04-15T15:06:14.563Z</time>
      </trkpt>
      <trkpt lat="45.00012" lon="3.88306">
        <ele>766.01</ele>
        <time>2025-04-15T15:06:14.864Z</time>
      </trkpt>
      <trkpt lat="44.99996" lon="3.88313">
        <ele>765.69</ele>
        <time>2025-04-15T15:06:15.168Z</time>
      </trkpt>
      <trkpt lat="44.99983" lon="3.88326">
        <ele>765.28</ele>
        <time>2025-04-15T15:06:15.474Z</time>
      </trkpt>
      <trkpt lat="44.9997" lon="3.88339">
        <ele>764.87</ele>
        <time>2025-04-15T15:06:15.783Z</time>
      </trkpt>
      <trkpt lat="44.99949" lon="3.88371">
        <ele>764.39</ele>
        <time>2025-04-15T15:06:16.097Z</time>
      </trkpt>
      <trkpt lat="44.99934" lon="3.884">
        <ele>763.66</ele>
        <time>2025-04-15T15:06:16.415Z</time>
      </trkpt>
      <trkpt lat="44.9992" lon="3.88428">
        <ele>762.88</ele>
        <time>2025-04-15T15:06:16.737Z</time>
      </trkpt>
      <trkpt lat="44.99906" lon="3.88457">
        <ele>761.99</ele>
        <time>2025-04-15T15:06:17.063Z</time>
      </trkpt>
      <trkpt lat="44.99882" lon="3.88474">
        <ele>761.05</ele>
        <time>2025-04-15T15:06:17.393Z</time>
      </trkpt>
      <trkpt lat="44.99854" lon="3.8848">
        <ele>760.05</ele>
        <time>2025-04-15T15:06:17.728Z</time>
      </trkpt>
      <trkpt lat="44.99832" lon="3.8848">
        <ele>759.09</ele>
        <time>2025-04-15T15:06:18.066Z</time>
      </trkpt>
      <trkpt lat="44.99809" lon="3.8848">
        <ele>758.09</ele>
        <time>2025-04-15T15:06:18.408Z</time>
      </trkpt>
      <trkpt lat="44.99793" lon="3.88485">
        <ele>756.98</ele>
        <time>2025-04-15T15:06:18.752Z</time>
      </trkpt>
      <trkpt lat="44.99777" lon="3.88489">
        <ele>755.79</ele>
        <time>2025-04-15T15:06:19.099Z</time>
      </trkpt>
      <trkpt lat="44.99754" lon="3.88504">
        <ele>754.5</ele>
        <time>2025-04-15T15:06:19.450Z</time>
      </trkpt>
      <trkpt lat="44.99732" lon="3.88519">
        <ele>753.28</ele>
        <time>2025-04-15T15:06:19.805Z</time>
      </trkpt>
      <trkpt lat="44.99719" lon="3.88536">
        <ele>752</ele>
        <time>2025-04-15T15:06:20.163Z</time>
      </trkpt>
      <trkpt lat="44.99706" lon="3.88553">
        <ele>750.63</ele>
        <time>2025-04-15T15:06:20.524Z</time>
      </trkpt>
      <trkpt lat="44.99678" lon="3.88574">
        <ele>749.27</ele>
        <time>2025-04-15T15:06:20.890Z</time>
      </trkpt>
      <trkpt lat="44.9965" lon="3.88594">
        <ele>747.95</ele>
        <time>2025-04-15T15:06:21.261Z</time>
      </trkpt>
      <trkpt lat="44.99635" lon="3.88616">
        <ele>746.45</ele>
        <time>2025-04-15T15:06:21.635Z</time>
      </trkpt>
      <trkpt lat="44.9962" lon="3.88639">
        <ele>744.9</ele>
        <time>2025-04-15T15:06:22.013Z</time>
      </trkpt>
      <trkpt lat="44.99605" lon="3.88661">
        <ele>743.23</ele>
        <time>2025-04-15T15:06:22.394Z</time>
      </trkpt>
      <trkpt lat="44.9959" lon="3.88669">
        <ele>741.61</ele>
        <time>2025-04-15T15:06:22.778Z</time>
      </trkpt>
      <trkpt lat="44.99577" lon="3.88669">
        <ele>739.98</ele>
        <time>2025-04-15T15:06:23.164Z</time>
      </trkpt>
      <trkpt lat="44.99562" lon="3.88665">
        <ele>738.31</ele>
        <time>2025-04-15T15:06:23.552Z</time>
      </trkpt>
      <trkpt lat="44.99541" lon="3.88652">
        <ele>736.6</ele>
        <time>2025-04-15T15:06:23.944Z</time>
      </trkpt>
      <trkpt lat="44.99519" lon="3.88639">
        <ele>734.81</ele>
        <time>2025-04-15T15:06:24.340Z</time>
      </trkpt>
      <trkpt lat="44.995" lon="3.88637">
        <ele>732.93</ele>
        <time>2025-04-15T15:06:24.739Z</time>
      </trkpt>
      <trkpt lat="44.99481" lon="3.88635">
        <ele>731.02</ele>
        <time>2025-04-15T15:06:25.141Z</time>
      </trkpt>
      <trkpt lat="44.9947" lon="3.88629">
        <ele>729.22</ele>
        <time>2025-04-15T15:06:25.545Z</time>
      </trkpt>
      <trkpt lat="44.99446" lon="3.88603">
        <ele>727.39</ele>
        <time>2025-04-15T15:06:25.954Z</time>
      </trkpt>
      <trkpt lat="44.99431" lon="3.88576">
        <ele>725.64</ele>
        <time>2025-04-15T15:06:26.367Z</time>
      </trkpt>
      <trkpt lat="44.99415" lon="3.8855">
        <ele>723.94</ele>
        <time>2025-04-15T15:06:26.784Z</time>
      </trkpt>
      <trkpt lat="44.99399" lon="3.88523">
        <ele>722.26</ele>
        <time>2025-04-15T15:06:27.204Z</time>
      </trkpt>
      <trkpt lat="44.99386" lon="3.88507">
        <ele>720.57</ele>
        <time>2025-04-15T15:06:27.627Z</time>
      </trkpt>
      <trkpt lat="44.99373" lon="3.88491">
        <ele>718.93</ele>
        <time>2025-04-15T15:06:28.053Z</time>
      </trkpt>
      <trkpt lat="44.99346" lon="3.88472">
        <ele>717.32</ele>
        <time>2025-04-15T15:06:28.484Z</time>
      </trkpt>
      <trkpt lat="44.99319" lon="3.88453">
        <ele>715.74</ele>
        <time>2025-04-15T15:06:28.920Z</time>
      </trkpt>
      <trkpt lat="44.99292" lon="3.88434">
        <ele>714.23</ele>
        <time>2025-04-15T15:06:29.360Z</time>
      </trkpt>
      <trkpt lat="44.99265" lon="3.88415">
        <ele>712.69</ele>
        <time>2025-04-15T15:06:29.805Z</time>
      </trkpt>
      <trkpt lat="44.99238" lon="3.88396">
        <ele>711.18</ele>
        <time>2025-04-15T15:06:30.255Z</time>
      </trkpt>
      <trkpt lat="44.9921" lon="3.88377">
        <ele>709.74</ele>
        <time>2025-04-15T15:06:30.710Z</time>
      </trkpt>
      <trkpt lat="44.99193" lon="3.88367">
        <ele>708.25</ele>
        <time>2025-04-15T15:06:31.168Z</time>
      </trkpt>
      <trkpt lat="44.99176" lon="3.88356">
        <ele>706.76</ele>
        <time>2025-04-15T15:06:31.629Z</time>
      </trkpt>
      <trkpt lat="44.99156" lon="3.88332">
        <ele>705.39</ele>
        <time>2025-04-15T15:06:32.094Z</time>
      </trkpt>
      <trkpt lat="44.99136" lon="3.88307">
        <ele>704.1</ele>
        <time>2025-04-15T15:06:32.564Z</time>
      </trkpt>
      <trkpt lat="44.99116" lon="3.88283">
        <ele>702.9</ele>
        <time>2025-04-15T15:06:33.038Z</time>
      </trkpt>
      <trkpt lat="44.99103" lon="3.88272">
        <ele>701.76</ele>
        <time>2025-04-15T15:06:33.514Z</time>
      </trkpt>
      <trkpt lat="44.9909" lon="3.88264">
        <ele>700.67</ele>
        <time>2025-04-15T15:06:33.992Z</time>
      </trkpt>
      <trkpt lat="44.99074" lon="3.88262">
        <ele>699.55</ele>
        <time>2025-04-15T15:06:34.473Z</time>
      </trkpt>
      <trkpt lat="44.99058" lon="3.88259">
        <ele>698.54</ele>
        <time>2025-04-15T15:06:34.957Z</time>
      </trkpt>
      <trkpt lat="44.99034" lon="3.88265">
        <ele>697.52</ele>
        <time>2025-04-15T15:06:35.444Z</time>
      </trkpt>
      <trkpt lat="44.99011" lon="3.8827">
        <ele>696.53</ele>
        <time>2025-04-15T15:06:35.935Z</time>
      </trkpt>
      <trkpt lat="44.99011" lon="3.88274">
        <ele>695.68</ele>
        <time>2025-04-15T15:06:36.427Z</time>
      </trkpt>
      <trkpt lat="44.99022" lon="3.88279">
        <ele>694.92</ele>
        <time>2025-04-15T15:06:36.921Z</time>
      </trkpt>
      <trkpt lat="44.99028" lon="3.88287">
        <ele>694.18</ele>
        <time>2025-04-15T15:06:37.416Z</time>
      </trkpt>
      <trkpt lat="44.99028" lon="3.88287">
        <ele>693.54</ele>
        <time>2025-04-15T15:06:37.911Z</time>
      </trkpt>
      <trkpt lat="44.99022" lon="3.88279">
        <ele>694.92</ele>
        <time>2025-04-15T15:06:38.407Z</time>
      </trkpt>
      <trkpt lat="44.99011" lon="3.88274">
        <ele>695.68</ele>
        <time>2025-04-15T15:06:38.905Z</time>
      </trkpt>
      <trkpt lat="44.99011" lon="3.8827">
        <ele>692.05</ele>
        <time>2025-04-15T15:06:39.404Z</time>
      </trkpt>
      <trkpt lat="44.98987" lon="3.88278">
        <ele>691.56</ele>
        <time>2025-04-15T15:06:39.906Z</time>
      </trkpt>
      <trkpt lat="44.98964" lon="3.88285">
        <ele>691.13</ele>
        <time>2025-04-15T15:06:40.412Z</time>
      </trkpt>
      <trkpt lat="44.98944" lon="3.88285">
        <ele>690.81</ele>
        <time>2025-04-15T15:06:40.921Z</time>
      </trkpt>
      <trkpt lat="44.98925" lon="3.88285">
        <ele>690.55</ele>
        <time>2025-04-15T15:06:41.434Z</time>
      </trkpt>
      <trkpt lat="44.98901" lon="3.88281">
        <ele>690.36</ele>
        <time>2025-04-15T15:06:41.950Z</time>
      </trkpt>
      <trkpt lat="44.98876" lon="3.88274">
        <ele>690.23</ele>
        <time>2025-04-15T15:06:42.470Z</time>
      </trkpt>
      <trkpt lat="44.98851" lon="3.88268">
        <ele>690.14</ele>
        <time>2025-04-15T15:06:42.994Z</time>
      </trkpt>
      <trkpt lat="44.98826" lon="3.88262">
        <ele>690.15</ele>
        <time>2025-04-15T15:06:43.523Z</time>
      </trkpt>
      <trkpt lat="44.98813" lon="3.88266">
        <ele>690.16</ele>
        <time>2025-04-15T15:06:44.054Z</time>
      </trkpt>
      <trkpt lat="44.98794" lon="3.88281">
        <ele>690.22</ele>
        <time>2025-04-15T15:06:44.588Z</time>
      </trkpt>
      <trkpt lat="44.98782" lon="3.883">
        <ele>690.21</ele>
        <time>2025-04-15T15:06:45.125Z</time>
      </trkpt>
      <trkpt lat="44.98771" lon="3.8832">
        <ele>690.12</ele>
        <time>2025-04-15T15:06:45.665Z</time>
      </trkpt>
      <trkpt lat="44.98754" lon="3.88333">
        <ele>690.02</ele>
        <time>2025-04-15T15:06:46.208Z</time>
      </trkpt>
      <trkpt lat="44.98738" lon="3.88347">
        <ele>690.04</ele>
        <time>2025-04-15T15:06:46.754Z</time>
      </trkpt>
      <trkpt lat="44.9872" lon="3.88358">
        <ele>690.13</ele>
        <time>2025-04-15T15:06:47.303Z</time>
      </trkpt>
      <trkpt lat="44.98702" lon="3.88369">
        <ele>690.26</ele>
        <time>2025-04-15T15:06:47.855Z</time>
      </trkpt>
      <trkpt lat="44.98678" lon="3.88377">
        <ele>690.44</ele>
        <time>2025-04-15T15:06:48.411Z</time>
      </trkpt>
      <trkpt lat="44.98653" lon="3.88385">
        <ele>690.69</ele>
        <time>2025-04-15T15:06:48.971Z</time>
      </trkpt>
      <trkpt lat="44.98629" lon="3.88392">
        <ele>691.03</ele>
        <time>2025-04-15T15:06:49.535Z</time>
      </trkpt>
      <trkpt lat="44.98602" lon="3.88405">
        <ele>691.32</ele>
        <time>2025-04-15T15:06:50.104Z</time>
      </trkpt>
      <trkpt lat="44.98576" lon="3.88417">
        <ele>691.53</ele>
        <time>2025-04-15T15:06:50.677Z</time>
      </trkpt>
      <trkpt lat="44.9855" lon="3.88429">
        <ele>691.72</ele>
        <time>2025-04-15T15:06:51.255Z</time>
      </trkpt>
      <trkpt lat="44.98522" lon="3.88435">
        <ele>691.9</ele>
        <time>2025-04-15T15:06:51.837Z</time>
      </trkpt>
      <trkpt lat="44.98494" lon="3.88442">
        <ele>692.04</ele>
        <time>2025-04-15T15:06:52.424Z</time>
      </trkpt>
      <trkpt lat="44.98479" lon="3.88446">
        <ele>692.19</ele>
        <time>2025-04-15T15:06:53.013Z</time>
      </trkpt>
      <trkpt lat="44.98451" lon="3.88444">
        <ele>692.32</ele>
        <time>2025-04-15T15:06:53.607Z</time>
      </trkpt>
      <trkpt lat="44.98444" lon="3.88435">
        <ele>692.61</ele>
        <time>2025-04-15T15:06:54.202Z</time>
      </trkpt>
      <trkpt lat="44.98427" lon="3.88433">
        <ele>692.82</ele>
        <time>2025-04-15T15:06:54.800Z</time>
      </trkpt>
      <trkpt lat="44.98401" lon="3.88422">
        <ele>693.12</ele>
        <time>2025-04-15T15:06:55.402Z</time>
      </trkpt>
      <trkpt lat="44.98376" lon="3.8841">
        <ele>693.56</ele>
        <time>2025-04-15T15:06:56.009Z</time>
      </trkpt>
      <trkpt lat="44.9835" lon="3.88399">
        <ele>693.99</ele>
        <time>2025-04-15T15:06:56.620Z</time>
      </trkpt>
      <trkpt lat="44.98324" lon="3.88388">
        <ele>694.4</ele>
        <time>2025-04-15T15:06:57.235Z</time>
      </trkpt>
      <trkpt lat="44.98299" lon="3.88376">
        <ele>694.75</ele>
        <time>2025-04-15T15:06:57.854Z</time>
      </trkpt>
      <trkpt lat="44.98273" lon="3.88365">
        <ele>695.11</ele>
        <time>2025-04-15T15:06:58.478Z</time>
      </trkpt>
      <trkpt lat="44.98251" lon="3.88341">
        <ele>695.61</ele>
        <time>2025-04-15T15:06:59.106Z</time>
      </trkpt>
      <trkpt lat="44.98243" lon="3.88307">
        <ele>696.25</ele>
        <time>2025-04-15T15:06:59.738Z</time>
      </trkpt>
      <trkpt lat="44.98234" lon="3.88274">
        <ele>696.93</ele>
        <time>2025-04-15T15:07:00.374Z</time>
      </trkpt>
      <trkpt lat="44.98226" lon="3.8824">
        <ele>697.61</ele>
        <time>2025-04-15T15:07:01.014Z</time>
      </trkpt>
      <trkpt lat="44.98222" lon="3.88204">
        <ele>698.34</ele>
        <time>2025-04-15T15:07:01.659Z</time>
      </trkpt>
      <trkpt lat="44.98218" lon="3.88167">
        <ele>699.1</ele>
        <time>2025-04-15T15:07:02.308Z</time>
      </trkpt>
      <trkpt lat="44.98215" lon="3.88131">
        <ele>699.93</ele>
        <time>2025-04-15T15:07:02.961Z</time>
      </trkpt>
      <trkpt lat="44.98208" lon="3.88101">
        <ele>700.81</ele>
        <time>2025-04-15T15:07:03.617Z</time>
      </trkpt>
      <trkpt lat="44.98193" lon="3.88079">
        <ele>701.7</ele>
        <time>2025-04-15T15:07:04.277Z</time>
      </trkpt>
      <trkpt lat="44.98193" lon="3.88079">
        <ele>702.62</ele>
        <time>2025-04-15T15:07:04.937Z</time>
      </trkpt>
      <trkpt lat="44.98174" lon="3.88068">
        <ele>703.57</ele>
        <time>2025-04-15T15:07:05.600Z</time>
      </trkpt>
      <trkpt lat="44.98155" lon="3.88064">
        <ele>704.62</ele>
        <time>2025-04-15T15:07:06.266Z</time>
      </trkpt>
      <trkpt lat="44.98135" lon="3.88066">
        <ele>705.7</ele>
        <time>2025-04-15T15:07:06.935Z</time>
      </trkpt>
      <trkpt lat="44.9811" lon="3.88073">
        <ele>706.82</ele>
        <time>2025-04-15T15:07:07.609Z</time>
      </trkpt>
      <trkpt lat="44.9809" lon="3.88092">
        <ele>708.08</ele>
        <time>2025-04-15T15:07:08.286Z</time>
      </trkpt>
      <trkpt lat="44.98077" lon="3.88129">
        <ele>709.56</ele>
        <time>2025-04-15T15:07:08.968Z</time>
      </trkpt>
      <trkpt lat="44.98073" lon="3.88162">
        <ele>710.91</ele>
        <time>2025-04-15T15:07:09.654Z</time>
      </trkpt>
      <trkpt lat="44.98068" lon="3.88196">
        <ele>712.22</ele>
        <time>2025-04-15T15:07:10.344Z</time>
      </trkpt>
      <trkpt lat="44.98063" lon="3.8823">
        <ele>713.6</ele>
        <time>2025-04-15T15:07:11.038Z</time>
      </trkpt>
      <trkpt lat="44.98058" lon="3.88264">
        <ele>715.03</ele>
        <time>2025-04-15T15:07:11.736Z</time>
      </trkpt>
      <trkpt lat="44.98055" lon="3.88287">
        <ele>716.49</ele>
        <time>2025-04-15T15:07:12.436Z</time>
      </trkpt>
      <trkpt lat="44.98052" lon="3.88311">
        <ele>717.96</ele>
        <time>2025-04-15T15:07:13.139Z</time>
      </trkpt>
      <trkpt lat="44.98044" lon="3.88346">
        <ele>719.49</ele>
        <time>2025-04-15T15:07:13.846Z</time>
      </trkpt>
      <trkpt lat="44.98037" lon="3.88382">
        <ele>721.17</ele>
        <time>2025-04-15T15:07:14.558Z</time>
      </trkpt>
      <trkpt lat="44.98041" lon="3.88415">
        <ele>722.71</ele>
        <time>2025-04-15T15:07:15.273Z</time>
      </trkpt>
      <trkpt lat="44.98045" lon="3.88448">
        <ele>724.22</ele>
        <time>2025-04-15T15:07:15.992Z</time>
      </trkpt>
      <trkpt lat="44.98045" lon="3.88471">
        <ele>725.83</ele>
        <time>2025-04-15T15:07:16.714Z</time>
      </trkpt>
      <trkpt lat="44.98045" lon="3.88493">
        <ele>727.44</ele>
        <time>2025-04-15T15:07:17.438Z</time>
      </trkpt>
      <trkpt lat="44.98039" lon="3.88515">
        <ele>729.07</ele>
        <time>2025-04-15T15:07:18.165Z</time>
      </trkpt>
      <trkpt lat="44.98026" lon="3.88536">
        <ele>730.74</ele>
        <time>2025-04-15T15:07:18.895Z</time>
      </trkpt>
      <trkpt lat="44.98011" lon="3.88545">
        <ele>732.46</ele>
        <time>2025-04-15T15:07:19.628Z</time>
      </trkpt>
      <trkpt lat="44.97985" lon="3.88551">
        <ele>734.26</ele>
        <time>2025-04-15T15:07:20.365Z</time>
      </trkpt>
      <trkpt lat="44.97958" lon="3.88547">
        <ele>736.17</ele>
        <time>2025-04-15T15:07:21.106Z</time>
      </trkpt>
      <trkpt lat="44.9793" lon="3.88542">
        <ele>738.01</ele>
        <time>2025-04-15T15:07:21.852Z</time>
      </trkpt>
      <trkpt lat="44.97902" lon="3.88537">
        <ele>739.88</ele>
        <time>2025-04-15T15:07:22.602Z</time>
      </trkpt>
      <trkpt lat="44.97875" lon="3.88533">
        <ele>741.72</ele>
        <time>2025-04-15T15:07:23.357Z</time>
      </trkpt>
      <trkpt lat="44.97847" lon="3.88528">
        <ele>743.51</ele>
        <time>2025-04-15T15:07:24.116Z</time>
      </trkpt>
      <trkpt lat="44.9782" lon="3.88524">
        <ele>745.41</ele>
        <time>2025-04-15T15:07:24.880Z</time>
      </trkpt>
      <trkpt lat="44.97792" lon="3.88519">
        <ele>747.33</ele>
        <time>2025-04-15T15:07:25.648Z</time>
      </trkpt>
      <trkpt lat="44.97761" lon="3.88518">
        <ele>749.2</ele>
        <time>2025-04-15T15:07:26.421Z</time>
      </trkpt>
      <trkpt lat="44.97731" lon="3.88518">
        <ele>751.12</ele>
        <time>2025-04-15T15:07:27.199Z</time>
      </trkpt>
      <trkpt lat="44.977" lon="3.88517">
        <ele>753.12</ele>
        <time>2025-04-15T15:07:27.982Z</time>
      </trkpt>
      <trkpt lat="44.97683" lon="3.88521">
        <ele>755.09</ele>
        <time>2025-04-15T15:07:28.768Z</time>
      </trkpt>
      <trkpt lat="44.97665" lon="3.88532">
        <ele>757.03</ele>
        <time>2025-04-15T15:07:29.557Z</time>
      </trkpt>
      <trkpt lat="44.97646" lon="3.88552">
        <ele>758.97</ele>
        <time>2025-04-15T15:07:30.350Z</time>
      </trkpt>
      <trkpt lat="44.97626" lon="3.88573">
        <ele>760.88</ele>
        <time>2025-04-15T15:07:31.146Z</time>
      </trkpt>
      <trkpt lat="44.97606" lon="3.88593">
        <ele>762.77</ele>
        <time>2025-04-15T15:07:31.946Z</time>
      </trkpt>
      <trkpt lat="44.97586" lon="3.88614">
        <ele>764.61</ele>
        <time>2025-04-15T15:07:32.750Z</time>
      </trkpt>
      <trkpt lat="44.97569" lon="3.88629">
        <ele>766.42</ele>
        <time>2025-04-15T15:07:33.558Z</time>
      </trkpt>
      <trkpt lat="44.97547" lon="3.88639">
        <ele>768.41</ele>
        <time>2025-04-15T15:07:34.369Z</time>
      </trkpt>
      <trkpt lat="44.97517" lon="3.88649">
        <ele>770.31</ele>
        <time>2025-04-15T15:07:35.185Z</time>
      </trkpt>
      <trkpt lat="44.97487" lon="3.88658">
        <ele>772.06</ele>
        <time>2025-04-15T15:07:36.006Z</time>
      </trkpt>
      <trkpt lat="44.97457" lon="3.88667">
        <ele>773.7</ele>
        <time>2025-04-15T15:07:36.832Z</time>
      </trkpt>
      <trkpt lat="44.97427" lon="3.88676">
        <ele>775.55</ele>
        <time>2025-04-15T15:07:37.663Z</time>
      </trkpt>
      <trkpt lat="44.97397" lon="3.88686">
        <ele>777.47</ele>
        <time>2025-04-15T15:07:38.499Z</time>
      </trkpt>
      <trkpt lat="44.97367" lon="3.88695">
        <ele>779.25</ele>
        <time>2025-04-15T15:07:39.340Z</time>
      </trkpt>
      <trkpt lat="44.97341" lon="3.88697">
        <ele>781.04</ele>
        <time>2025-04-15T15:07:40.185Z</time>
      </trkpt>
      <trkpt lat="44.97314" lon="3.88699">
        <ele>782.89</ele>
        <time>2025-04-15T15:07:41.034Z</time>
      </trkpt>
      <trkpt lat="44.97287" lon="3.88701">
        <ele>784.65</ele>
        <time>2025-04-15T15:07:41.888Z</time>
      </trkpt>
      <trkpt lat="44.97261" lon="3.88704">
        <ele>786.41</ele>
        <time>2025-04-15T15:07:42.746Z</time>
      </trkpt>
      <trkpt lat="44.97234" lon="3.88706">
        <ele>788.14</ele>
        <time>2025-04-15T15:07:43.608Z</time>
      </trkpt>
      <trkpt lat="44.97215" lon="3.88713">
        <ele>789.88</ele>
        <time>2025-04-15T15:07:44.473Z</time>
      </trkpt>
      <trkpt lat="44.97196" lon="3.88721">
        <ele>791.66</ele>
        <time>2025-04-15T15:07:45.341Z</time>
      </trkpt>
      <trkpt lat="44.97178" lon="3.88736">
        <ele>793.42</ele>
        <time>2025-04-15T15:07:46.213Z</time>
      </trkpt>
      <trkpt lat="44.97174" lon="3.88747">
        <ele>795.09</ele>
        <time>2025-04-15T15:07:47.086Z</time>
      </trkpt>
      <trkpt lat="44.97176" lon="3.88768">
        <ele>796.64</ele>
        <time>2025-04-15T15:07:47.962Z</time>
      </trkpt>
      <trkpt lat="44.97188" lon="3.88803">
        <ele>798.2</ele>
        <time>2025-04-15T15:07:48.842Z</time>
      </trkpt>
      <trkpt lat="44.972" lon="3.88839">
        <ele>799.83</ele>
        <time>2025-04-15T15:07:49.726Z</time>
      </trkpt>
      <trkpt lat="44.97202" lon="3.88869">
        <ele>801.42</ele>
        <time>2025-04-15T15:07:50.614Z</time>
      </trkpt>
      <trkpt lat="44.97198" lon="3.88884">
        <ele>803</ele>
        <time>2025-04-15T15:07:51.504Z</time>
      </trkpt>
      <trkpt lat="44.97183" lon="3.88903">
        <ele>804.63</ele>
        <time>2025-04-15T15:07:52.397Z</time>
      </trkpt>
      <trkpt lat="44.97163" lon="3.88912">
        <ele>806.21</ele>
        <time>2025-04-15T15:07:53.293Z</time>
      </trkpt>
      <trkpt lat="44.9714" lon="3.8891">
        <ele>807.89</ele>
        <time>2025-04-15T15:07:54.193Z</time>
      </trkpt>
      <trkpt lat="44.9714" lon="3.8891">
        <ele>809.47</ele>
        <time>2025-04-15T15:07:55.093Z</time>
      </trkpt>
      <trkpt lat="44.97111" lon="3.889">
        <ele>811.21</ele>
        <time>2025-04-15T15:07:55.998Z</time>
      </trkpt>
      <trkpt lat="44.97083" lon="3.88891">
        <ele>812.94</ele>
        <time>2025-04-15T15:07:56.907Z</time>
      </trkpt>
      <trkpt lat="44.97054" lon="3.88882">
        <ele>814.57</ele>
        <time>2025-04-15T15:07:57.821Z</time>
      </trkpt>
      <trkpt lat="44.97029" lon="3.88875">
        <ele>816.14</ele>
        <time>2025-04-15T15:07:58.739Z</time>
      </trkpt>
      <trkpt lat="44.97005" lon="3.88869">
        <ele>817.74</ele>
        <time>2025-04-15T15:07:59.661Z</time>
      </trkpt>
      <trkpt lat="44.96981" lon="3.88867">
        <ele>819.36</ele>
        <time>2025-04-15T15:08:00.587Z</time>
      </trkpt>
      <trkpt lat="44.96957" lon="3.88865">
        <ele>820.97</ele>
        <time>2025-04-15T15:08:01.517Z</time>
      </trkpt>
      <trkpt lat="44.96934" lon="3.88862">
        <ele>822.58</ele>
        <time>2025-04-15T15:08:02.451Z</time>
      </trkpt>
      <trkpt lat="44.9691" lon="3.8886">
        <ele>824.29</ele>
        <time>2025-04-15T15:08:03.388Z</time>
      </trkpt>
      <trkpt lat="44.96891" lon="3.8886">
        <ele>825.9</ele>
        <time>2025-04-15T15:08:04.328Z</time>
      </trkpt>
      <trkpt lat="44.96862" lon="3.88867">
        <ele>827.47</ele>
        <time>2025-04-15T15:08:05.273Z</time>
      </trkpt>
      <trkpt lat="44.96833" lon="3.88873">
        <ele>829.02</ele>
        <time>2025-04-15T15:08:06.223Z</time>
      </trkpt>
      <trkpt lat="44.96804" lon="3.88877">
        <ele>830.53</ele>
        <time>2025-04-15T15:08:07.177Z</time>
      </trkpt>
      <trkpt lat="44.96775" lon="3.88882">
        <ele>832.12</ele>
        <time>2025-04-15T15:08:08.136Z</time>
      </trkpt>
      <trkpt lat="44.96748" lon="3.88899">
        <ele>833.54</ele>
        <time>2025-04-15T15:08:09.100Z</time>
      </trkpt>
      <trkpt lat="44.96722" lon="3.88916">
        <ele>834.95</ele>
        <time>2025-04-15T15:08:10.068Z</time>
      </trkpt>
      <trkpt lat="44.96695" lon="3.88933">
        <ele>836.34</ele>
        <time>2025-04-15T15:08:11.041Z</time>
      </trkpt>
      <trkpt lat="44.96669" lon="3.8895">
        <ele>837.69</ele>
        <time>2025-04-15T15:08:12.019Z</time>
      </trkpt>
      <trkpt lat="44.96642" lon="3.88968">
        <ele>839.1</ele>
        <time>2025-04-15T15:08:13.002Z</time>
      </trkpt>
      <trkpt lat="44.96628" lon="3.88979">
        <ele>840.38</ele>
        <time>2025-04-15T15:08:13.987Z</time>
      </trkpt>
      <trkpt lat="44.96614" lon="3.88991">
        <ele>841.65</ele>
        <time>2025-04-15T15:08:14.975Z</time>
      </trkpt>
      <trkpt lat="44.96597" lon="3.88995">
        <ele>842.9</ele>
        <time>2025-04-15T15:08:15.966Z</time>
      </trkpt>
      <trkpt lat="44.96618" lon="3.88968">
        <ele>844.14</ele>
        <time>2025-04-15T15:08:16.961Z</time>
      </trkpt>
      <trkpt lat="44.96643" lon="3.88944">
        <ele>845.29</ele>
        <time>2025-04-15T15:08:17.961Z</time>
      </trkpt>
      <trkpt lat="44.96667" lon="3.8892">
        <ele>846.44</ele>
        <time>2025-04-15T15:08:18.966Z</time>
      </trkpt>
      <trkpt lat="44.96691" lon="3.88897">
        <ele>847.56</ele>
        <time>2025-04-15T15:08:19.975Z</time>
      </trkpt>
      <trkpt lat="44.96713" lon="3.88871">
        <ele>848.71</ele>
        <time>2025-04-15T15:08:20.989Z</time>
      </trkpt>
      <trkpt lat="44.96734" lon="3.88845">
        <ele>849.78</ele>
        <time>2025-04-15T15:08:22.007Z</time>
      </trkpt>
      <trkpt lat="44.96756" lon="3.88832">
        <ele>850.71</ele>
        <time>2025-04-15T15:08:23.029Z</time>
      </trkpt>
      <trkpt lat="44.96778" lon="3.88818">
        <ele>851.65</ele>
        <time>2025-04-15T15:08:24.055Z</time>
      </trkpt>
      <trkpt lat="44.968" lon="3.88805">
        <ele>852.54</ele>
        <time>2025-04-15T15:08:25.085Z</time>
      </trkpt>
      <trkpt lat="44.96822" lon="3.88792">
        <ele>853.4</ele>
        <time>2025-04-15T15:08:26.119Z</time>
      </trkpt>
      <trkpt lat="44.96829" lon="3.88779">
        <ele>854.26</ele>
        <time>2025-04-15T15:08:27.155Z</time>
      </trkpt>
      <trkpt lat="44.96835" lon="3.88742">
        <ele>855.12</ele>
        <time>2025-04-15T15:08:28.195Z</time>
      </trkpt>
      <trkpt lat="44.96816" lon="3.88749">
        <ele>855.92</ele>
        <time>2025-04-15T15:08:29.238Z</time>
      </trkpt>
      <trkpt lat="44.96796" lon="3.88755">
        <ele>856.69</ele>
        <time>2025-04-15T15:08:30.284Z</time>
      </trkpt>
      <trkpt lat="44.9678" lon="3.88764">
        <ele>857.45</ele>
        <time>2025-04-15T15:08:31.333Z</time>
      </trkpt>
      <trkpt lat="44.96764" lon="3.88772">
        <ele>858.16</ele>
        <time>2025-04-15T15:08:32.385Z</time>
      </trkpt>
      <trkpt lat="44.96756" lon="3.88772">
        <ele>858.85</ele>
        <time>2025-04-15T15:08:33.438Z</time>
      </trkpt>
      <trkpt lat="44.96736" lon="3.88766">
        <ele>859.55</ele>
        <time>2025-04-15T15:08:34.494Z</time>
      </trkpt>
      <trkpt lat="44.9671" lon="3.88751">
        <ele>860.25</ele>
        <time>2025-04-15T15:08:35.555Z</time>
      </trkpt>
      <trkpt lat="44.96683" lon="3.88736">
        <ele>860.92</ele>
        <time>2025-04-15T15:08:36.620Z</time>
      </trkpt>
      <trkpt lat="44.96656" lon="3.88738">
        <ele>861.56</ele>
        <time>2025-04-15T15:08:37.690Z</time>
      </trkpt>
      <trkpt lat="44.9663" lon="3.8874">
        <ele>862.18</ele>
        <time>2025-04-15T15:08:38.764Z</time>
      </trkpt>
      <trkpt lat="44.96603" lon="3.88742">
        <ele>862.77</ele>
        <time>2025-04-15T15:08:39.842Z</time>
      </trkpt>
      <trkpt lat="44.96576" lon="3.88744">
        <ele>863.32</ele>
        <time>2025-04-15T15:08:40.924Z</time>
      </trkpt>
      <trkpt lat="44.9655" lon="3.88747">
        <ele>863.85</ele>
        <time>2025-04-15T15:08:42.011Z</time>
      </trkpt>
      <trkpt lat="44.96524" lon="3.88748">
        <ele>864.34</ele>
        <time>2025-04-15T15:08:43.102Z</time>
      </trkpt>
      <trkpt lat="44.96498" lon="3.8875">
        <ele>864.76</ele>
        <time>2025-04-15T15:08:44.197Z</time>
      </trkpt>
      <trkpt lat="44.96472" lon="3.88751">
        <ele>865.15</ele>
        <time>2025-04-15T15:08:45.296Z</time>
      </trkpt>
      <trkpt lat="44.96447" lon="3.88753">
        <ele>865.5</ele>
        <time>2025-04-15T15:08:46.399Z</time>
      </trkpt>
      <trkpt lat="44.96449" lon="3.88738">
        <ele>865.85</ele>
        <time>2025-04-15T15:08:47.504Z</time>
      </trkpt>
      <trkpt lat="44.96466" lon="3.88734">
        <ele>866.15</ele>
        <time>2025-04-15T15:08:48.612Z</time>
      </trkpt>
      <trkpt lat="44.96493" lon="3.8872">
        <ele>866.39</ele>
        <time>2025-04-15T15:08:49.724Z</time>
      </trkpt>
      <trkpt lat="44.9652" lon="3.88706">
        <ele>866.61</ele>
        <time>2025-04-15T15:08:50.841Z</time>
      </trkpt>
      <trkpt lat="44.96535" lon="3.88693">
        <ele>866.78</ele>
        <time>2025-04-15T15:08:51.961Z</time>
      </trkpt>
      <trkpt lat="44.9655" lon="3.8868">
        <ele>866.94</ele>
        <time>2025-04-15T15:08:53.084Z</time>
      </trkpt>
      <trkpt lat="44.9655" lon="3.8868">
        <ele>867.11</ele>
        <time>2025-04-15T15:08:54.207Z</time>
      </trkpt>
      <trkpt lat="44.9655" lon="3.8868">
        <ele>867.27</ele>
        <time>2025-04-15T15:08:55.330Z</time>
      </trkpt>
      <trkpt lat="44.96542" lon="3.88686">
        <ele>867.43</ele>
        <time>2025-04-15T15:08:56.454Z</time>
      </trkpt>
      <trkpt lat="44.96518" lon="3.88706">
        <ele>867.62</ele>
        <time>2025-04-15T15:08:57.583Z</time>
      </trkpt>
      <trkpt lat="44.96515" lon="3.88708">
        <ele>867.74</ele>
        <time>2025-04-15T15:08:58.712Z</time>
      </trkpt>
      <trkpt lat="44.96502" lon="3.88714">
        <ele>867.85</ele>
        <time>2025-04-15T15:08:59.843Z</time>
      </trkpt>
      <trkpt lat="44.96494" lon="3.88719">
        <ele>867.95</ele>
        <time>2025-04-15T15:09:00.976Z</time>
      </trkpt>
      <trkpt lat="44.96482" lon="3.88726">
        <ele>868.03</ele>
        <time>2025-04-15T15:09:02.111Z</time>
      </trkpt>
      <trkpt lat="44.96466" lon="3.88734">
        <ele>868.14</ele>
        <time>2025-04-15T15:09:03.249Z</time>
      </trkpt>
      <trkpt lat="44.96465" lon="3.88734">
        <ele>868.22</ele>
        <time>2025-04-15T15:09:04.387Z</time>
      </trkpt>
      <trkpt lat="44.96452" lon="3.88737">
        <ele>868.3</ele>
        <time>2025-04-15T15:09:05.527Z</time>
      </trkpt>
      <trkpt lat="44.96444" lon="3.88738">
        <ele>868.37</ele>
        <time>2025-04-15T15:09:06.668Z</time>
      </trkpt>
      <trkpt lat="44.96435" lon="3.8874">
        <ele>868.44</ele>
        <time>2025-04-15T15:09:07.811Z</time>
      </trkpt>
      <trkpt lat="44.96426" lon="3.88742">
        <ele>868.53</ele>
        <time>2025-04-15T15:09:08.955Z</time>
      </trkpt>
      <trkpt lat="44.96409" lon="3.88745">
        <ele>868.63</ele>
        <time>2025-04-15T15:09:10.102Z</time>
      </trkpt>
      <trkpt lat="44.96396" lon="3.88748">
        <ele>868.74</ele>
        <time>2025-04-15T15:09:11.251Z</time>
      </trkpt>
      <trkpt lat="44.96389" lon="3.88749">
        <ele>868.84</ele>
        <time>2025-04-15T15:09:12.401Z</time>
      </trkpt>
      <trkpt lat="44.96388" lon="3.88749">
        <ele>868.95</ele>
        <time>2025-04-15T15:09:13.551Z</time>
      </trkpt>
      <trkpt lat="44.96375" lon="3.88749">
        <ele>869.09</ele>
        <time>2025-04-15T15:09:14.703Z</time>
      </trkpt>
      <trkpt lat="44.96366" lon="3.88749">
        <ele>869.22</ele>
        <time>2025-04-15T15:09:15.857Z</time>
      </trkpt>
      <trkpt lat="44.96353" lon="3.88749">
        <ele>869.37</ele>
        <time>2025-04-15T15:09:17.013Z</time>
      </trkpt>
      <trkpt lat="44.96348" lon="3.88749">
        <ele>869.54</ele>
        <time>2025-04-15T15:09:18.170Z</time>
      </trkpt>
      <trkpt lat="44.96336" lon="3.88746">
        <ele>869.71</ele>
        <time>2025-04-15T15:09:19.329Z</time>
      </trkpt>
      <trkpt lat="44.96314" lon="3.88741">
        <ele>869.9</ele>
        <time>2025-04-15T15:09:20.491Z</time>
      </trkpt>
      <trkpt lat="44.96301" lon="3.88739">
        <ele>870.11</ele>
        <time>2025-04-15T15:09:21.655Z</time>
      </trkpt>
      <trkpt lat="44.96279" lon="3.88734">
        <ele>870.32</ele>
        <time>2025-04-15T15:09:22.823Z</time>
      </trkpt>
      <trkpt lat="44.96267" lon="3.88731">
        <ele>870.55</ele>
        <time>2025-04-15T15:09:23.993Z</time>
      </trkpt>
      <trkpt lat="44.96249" lon="3.88727">
        <ele>870.83</ele>
        <time>2025-04-15T15:09:25.166Z</time>
      </trkpt>
      <trkpt lat="44.96227" lon="3.88721">
        <ele>871.14</ele>
        <time>2025-04-15T15:09:26.342Z</time>
      </trkpt>
      <trkpt lat="44.96209" lon="3.88717">
        <ele>871.47</ele>
        <time>2025-04-15T15:09:27.521Z</time>
      </trkpt>
      <trkpt lat="44.96187" lon="3.88711">
        <ele>871.83</ele>
        <time>2025-04-15T15:09:28.704Z</time>
      </trkpt>
      <trkpt lat="44.9617" lon="3.88707">
        <ele>872.19</ele>
        <time>2025-04-15T15:09:29.890Z</time>
      </trkpt>
      <trkpt lat="44.96148" lon="3.88701">
        <ele>872.56</ele>
        <time>2025-04-15T15:09:31.079Z</time>
      </trkpt>
      <trkpt lat="44.96126" lon="3.88695">
        <ele>872.95</ele>
        <time>2025-04-15T15:09:32.272Z</time>
      </trkpt>
      <trkpt lat="44.96104" lon="3.8869">
        <ele>873.34</ele>
        <time>2025-04-15T15:09:33.468Z</time>
      </trkpt>
      <trkpt lat="44.96051" lon="3.88676">
        <ele>873.79</ele>
        <time>2025-04-15T15:09:34.673Z</time>
      </trkpt>
      <trkpt lat="44.9598" lon="3.88658">
        <ele>874.41</ele>
        <time>2025-04-15T15:09:35.889Z</time>
      </trkpt>
      <trkpt lat="44.95954" lon="3.88651">
        <ele>874.88</ele>
        <time>2025-04-15T15:09:37.110Z</time>
      </trkpt>
      <trkpt lat="44.95945" lon="3.88649">
        <ele>875.39</ele>
        <time>2025-04-15T15:09:38.332Z</time>
      </trkpt>
      <trkpt lat="44.95927" lon="3.88645">
        <ele>875.93</ele>
        <time>2025-04-15T15:09:39.557Z</time>
      </trkpt>
      <trkpt lat="44.95919" lon="3.88642">
        <ele>876.47</ele>
        <time>2025-04-15T15:09:40.783Z</time>
      </trkpt>
      <trkpt lat="44.95901" lon="3.88638">
        <ele>877.04</ele>
        <time>2025-04-15T15:09:42.012Z</time>
      </trkpt>
      <trkpt lat="44.95892" lon="3.88636">
        <ele>877.61</ele>
        <time>2025-04-15T15:09:43.243Z</time>
      </trkpt>
      <trkpt lat="44.95883" lon="3.88633">
        <ele>878.2</ele>
        <time>2025-04-15T15:09:44.475Z</time>
      </trkpt>
      <trkpt lat="44.95852" lon="3.88625">
        <ele>878.81</ele>
        <time>2025-04-15T15:09:45.712Z</time>
      </trkpt>
      <trkpt lat="44.95847" lon="3.88624">
        <ele>879.4</ele>
        <time>2025-04-15T15:09:46.950Z</time>
      </trkpt>
      <trkpt lat="44.95818" lon="3.88612">
        <ele>880</ele>
        <time>2025-04-15T15:09:48.193Z</time>
      </trkpt>
      <trkpt lat="44.95775" lon="3.88595">
        <ele>880.72</ele>
        <time>2025-04-15T15:09:49.443Z</time>
      </trkpt>
      <trkpt lat="44.95753" lon="3.88586">
        <ele>881.37</ele>
        <time>2025-04-15T15:09:50.697Z</time>
      </trkpt>
      <trkpt lat="44.95737" lon="3.88576">
        <ele>881.97</ele>
        <time>2025-04-15T15:09:51.953Z</time>
      </trkpt>
      <trkpt lat="44.95729" lon="3.8857">
        <ele>882.59</ele>
        <time>2025-04-15T15:09:53.211Z</time>
      </trkpt>
      <trkpt lat="44.95708" lon="3.88557">
        <ele>883.21</ele>
        <time>2025-04-15T15:09:54.473Z</time>
      </trkpt>
      <trkpt lat="44.95688" lon="3.88544">
        <ele>883.91</ele>
        <time>2025-04-15T15:09:55.738Z</time>
      </trkpt>
      <trkpt lat="44.95664" lon="3.88528">
        <ele>884.6</ele>
        <time>2025-04-15T15:09:57.007Z</time>
      </trkpt>
      <trkpt lat="44.95635" lon="3.88509">
        <ele>885.26</ele>
        <time>2025-04-15T15:09:58.281Z</time>
      </trkpt>
      <trkpt lat="44.95603" lon="3.88488">
        <ele>885.88</ele>
        <time>2025-04-15T15:09:59.561Z</time>
      </trkpt>
      <trkpt lat="44.95566" lon="3.88464">
        <ele>886.57</ele>
        <time>2025-04-15T15:10:00.848Z</time>
      </trkpt>
      <trkpt lat="44.9555" lon="3.88453">
        <ele>887.23</ele>
        <time>2025-04-15T15:10:02.138Z</time>
      </trkpt>
      <trkpt lat="44.95525" lon="3.88437">
        <ele>887.88</ele>
        <time>2025-04-15T15:10:03.432Z</time>
      </trkpt>
      <trkpt lat="44.95505" lon="3.88424">
        <ele>888.52</ele>
        <time>2025-04-15T15:10:04.729Z</time>
      </trkpt>
      <trkpt lat="44.95499" lon="3.8842">
        <ele>889.15</ele>
        <time>2025-04-15T15:10:06.027Z</time>
      </trkpt>
      <trkpt lat="44.95483" lon="3.88416">
        <ele>889.78</ele>
        <time>2025-04-15T15:10:07.328Z</time>
      </trkpt>
      <trkpt lat="44.95461" lon="3.88411">
        <ele>890.38</ele>
        <time>2025-04-15T15:10:08.633Z</time>
      </trkpt>
      <trkpt lat="44.95432" lon="3.88404">
        <ele>890.96</ele>
        <time>2025-04-15T15:10:09.942Z</time>
      </trkpt>
      <trkpt lat="44.9539" lon="3.88407">
        <ele>891.6</ele>
        <time>2025-04-15T15:10:11.258Z</time>
      </trkpt>
      <trkpt lat="44.95345" lon="3.8841">
        <ele>892.29</ele>
        <time>2025-04-15T15:10:12.581Z</time>
      </trkpt>
      <trkpt lat="44.95343" lon="3.8841">
        <ele>892.87</ele>
        <time>2025-04-15T15:10:13.905Z</time>
      </trkpt>
      <trkpt lat="44.95299" lon="3.88435">
        <ele>893.52</ele>
        <time>2025-04-15T15:10:15.236Z</time>
      </trkpt>
      <trkpt lat="44.95286" lon="3.88443">
        <ele>894.11</ele>
        <time>2025-04-15T15:10:16.569Z</time>
      </trkpt>
      <trkpt lat="44.95283" lon="3.88446">
        <ele>894.66</ele>
        <time>2025-04-15T15:10:17.903Z</time>
      </trkpt>
      <trkpt lat="44.95271" lon="3.88455">
        <ele>895.21</ele>
        <time>2025-04-15T15:10:19.239Z</time>
      </trkpt>
      <trkpt lat="44.95263" lon="3.88461">
        <ele>895.74</ele>
        <time>2025-04-15T15:10:20.577Z</time>
      </trkpt>
      <trkpt lat="44.95259" lon="3.88464">
        <ele>896.24</ele>
        <time>2025-04-15T15:10:21.915Z</time>
      </trkpt>
      <trkpt lat="44.95255" lon="3.88467">
        <ele>896.73</ele>
        <time>2025-04-15T15:10:23.254Z</time>
      </trkpt>
      <trkpt lat="44.95248" lon="3.88474">
        <ele>897.2</ele>
        <time>2025-04-15T15:10:24.594Z</time>
      </trkpt>
      <trkpt lat="44.95232" lon="3.88486">
        <ele>897.66</ele>
        <time>2025-04-15T15:10:25.937Z</time>
      </trkpt>
      <trkpt lat="44.95228" lon="3.88489">
        <ele>898.11</ele>
        <time>2025-04-15T15:10:27.281Z</time>
      </trkpt>
      <trkpt lat="44.95221" lon="3.88496">
        <ele>898.56</ele>
        <time>2025-04-15T15:10:28.627Z</time>
      </trkpt>
      <trkpt lat="44.95194" lon="3.8852">
        <ele>899</ele>
        <time>2025-04-15T15:10:29.978Z</time>
      </trkpt>
      <trkpt lat="44.95179" lon="3.88533">
        <ele>899.48</ele>
        <time>2025-04-15T15:10:31.331Z</time>
      </trkpt>
      <trkpt lat="44.95171" lon="3.8854">
        <ele>899.92</ele>
        <time>2025-04-15T15:10:32.686Z</time>
      </trkpt>
      <trkpt lat="44.95156" lon="3.88554">
        <ele>900.37</ele>
        <time>2025-04-15T15:10:34.044Z</time>
      </trkpt>
      <trkpt lat="44.95141" lon="3.88567">
        <ele>900.81</ele>
        <time>2025-04-15T15:10:35.405Z</time>
      </trkpt>
      <trkpt lat="44.95133" lon="3.88574">
        <ele>901.21</ele>
        <time>2025-04-15T15:10:36.767Z</time>
      </trkpt>
      <trkpt lat="44.95131" lon="3.88576">
        <ele>901.61</ele>
        <time>2025-04-15T15:10:38.129Z</time>
      </trkpt>
      <trkpt lat="44.95109" lon="3.88591">
        <ele>902.02</ele>
        <time>2025-04-15T15:10:39.495Z</time>
      </trkpt>
      <trkpt lat="44.95097" lon="3.88599">
        <ele>902.39</ele>
        <time>2025-04-15T15:10:40.864Z</time>
      </trkpt>
      <trkpt lat="44.9508" lon="3.8861">
        <ele>902.77</ele>
        <time>2025-04-15T15:10:42.235Z</time>
      </trkpt>
      <trkpt lat="44.95046" lon="3.88633">
        <ele>903.16</ele>
        <time>2025-04-15T15:10:43.613Z</time>
      </trkpt>
      <trkpt lat="44.95044" lon="3.88633">
        <ele>903.52</ele>
        <time>2025-04-15T15:10:44.991Z</time>
      </trkpt>
      <trkpt lat="44.95021" lon="3.88638">
        <ele>903.95</ele>
        <time>2025-04-15T15:10:46.373Z</time>
      </trkpt>
      <trkpt lat="44.94986" lon="3.88644">
        <ele>904.34</ele>
        <time>2025-04-15T15:10:47.760Z</time>
      </trkpt>
      <trkpt lat="44.94977" lon="3.88646">
        <ele>904.71</ele>
        <time>2025-04-15T15:10:49.149Z</time>
      </trkpt>
      <trkpt lat="44.94959" lon="3.88644">
        <ele>905.09</ele>
        <time>2025-04-15T15:10:50.541Z</time>
      </trkpt>
      <trkpt lat="44.94941" lon="3.88642">
        <ele>905.44</ele>
        <time>2025-04-15T15:10:51.935Z</time>
      </trkpt>
      <trkpt lat="44.94923" lon="3.8864">
        <ele>905.8</ele>
        <time>2025-04-15T15:10:53.332Z</time>
      </trkpt>
      <trkpt lat="44.9491" lon="3.88636">
        <ele>906.16</ele>
        <time>2025-04-15T15:10:54.731Z</time>
      </trkpt>
      <trkpt lat="44.94881" lon="3.88626">
        <ele>906.52</ele>
        <time>2025-04-15T15:10:56.135Z</time>
      </trkpt>
      <trkpt lat="44.9488" lon="3.88625">
        <ele>906.85</ele>
        <time>2025-04-15T15:10:57.540Z</time>
      </trkpt>
      <trkpt lat="44.94846" lon="3.88606">
        <ele>907.21</ele>
        <time>2025-04-15T15:10:58.950Z</time>
      </trkpt>
      <trkpt lat="44.94836" lon="3.886">
        <ele>907.54</ele>
        <time>2025-04-15T15:11:00.362Z</time>
      </trkpt>
      <trkpt lat="44.94827" lon="3.88592">
        <ele>907.88</ele>
        <time>2025-04-15T15:11:01.776Z</time>
      </trkpt>
      <trkpt lat="44.94814" lon="3.88581">
        <ele>908.22</ele>
        <time>2025-04-15T15:11:03.192Z</time>
      </trkpt>
      <trkpt lat="44.94805" lon="3.8857">
        <ele>908.55</ele>
        <time>2025-04-15T15:11:04.610Z</time>
      </trkpt>
      <trkpt lat="44.94798" lon="3.88562">
        <ele>908.89</ele>
        <time>2025-04-15T15:11:06.030Z</time>
      </trkpt>
      <trkpt lat="44.94781" lon="3.88541">
        <ele>909.22</ele>
        <time>2025-04-15T15:11:07.453Z</time>
      </trkpt>
      <trkpt lat="44.9477" lon="3.88528">
        <ele>909.55</ele>
        <time>2025-04-15T15:11:08.878Z</time>
      </trkpt>
      <trkpt lat="44.94768" lon="3.88524">
        <ele>909.9</ele>
        <time>2025-04-15T15:11:10.304Z</time>
      </trkpt>
      <trkpt lat="44.94762" lon="3.88514">
        <ele>910.25</ele>
        <time>2025-04-15T15:11:11.731Z</time>
      </trkpt>
      <trkpt lat="44.94757" lon="3.88503">
        <ele>910.61</ele>
        <time>2025-04-15T15:11:13.160Z</time>
      </trkpt>
      <trkpt lat="44.94746" lon="3.88483">
        <ele>910.98</ele>
        <time>2025-04-15T15:11:14.592Z</time>
      </trkpt>
      <trkpt lat="44.94728" lon="3.88448">
        <ele>911.31</ele>
        <time>2025-04-15T15:11:16.029Z</time>
      </trkpt>
      <trkpt lat="44.9472" lon="3.88432">
        <ele>911.66</ele>
        <time>2025-04-15T15:11:17.468Z</time>
      </trkpt>
      <trkpt lat="44.94684" lon="3.88365">
        <ele>911.97</ele>
        <time>2025-04-15T15:11:18.917Z</time>
      </trkpt>
      <trkpt lat="44.94676" lon="3.88344">
        <ele>912.39</ele>
        <time>2025-04-15T15:11:20.368Z</time>
      </trkpt>
      <trkpt lat="44.94667" lon="3.88322">
        <ele>912.86</ele>
        <time>2025-04-15T15:11:21.822Z</time>
      </trkpt>
      <trkpt lat="44.94655" lon="3.88295">
        <ele>913.3</ele>
        <time>2025-04-15T15:11:23.280Z</time>
      </trkpt>
      <trkpt lat="44.94649" lon="3.88278">
        <ele>913.73</ele>
        <time>2025-04-15T15:11:24.740Z</time>
      </trkpt>
      <trkpt lat="44.94638" lon="3.88251">
        <ele>914.18</ele>
        <time>2025-04-15T15:11:26.203Z</time>
      </trkpt>
      <trkpt lat="44.94629" lon="3.8823">
        <ele>914.62</ele>
        <time>2025-04-15T15:11:27.669Z</time>
      </trkpt>
      <trkpt lat="44.94627" lon="3.88216">
        <ele>915.06</ele>
        <time>2025-04-15T15:11:29.137Z</time>
      </trkpt>
      <trkpt lat="44.94624" lon="3.88198">
        <ele>915.53</ele>
        <time>2025-04-15T15:11:30.607Z</time>
      </trkpt>
      <trkpt lat="44.9462" lon="3.88167">
        <ele>916.03</ele>
        <time>2025-04-15T15:11:32.081Z</time>
      </trkpt>
      <trkpt lat="44.94617" lon="3.88148">
        <ele>916.49</ele>
        <time>2025-04-15T15:11:33.557Z</time>
      </trkpt>
      <trkpt lat="44.94615" lon="3.88131">
        <ele>916.95</ele>
        <time>2025-04-15T15:11:35.035Z</time>
      </trkpt>
      <trkpt lat="44.94615" lon="3.8811">
        <ele>917.4</ele>
        <time>2025-04-15T15:11:36.515Z</time>
      </trkpt>
      <trkpt lat="44.94617" lon="3.8806">
        <ele>917.88</ele>
        <time>2025-04-15T15:11:38.001Z</time>
      </trkpt>
      <trkpt lat="44.94617" lon="3.88047">
        <ele>918.33</ele>
        <time>2025-04-15T15:11:39.488Z</time>
      </trkpt>
      <trkpt lat="44.94617" lon="3.88033">
        <ele>918.78</ele>
        <time>2025-04-15T15:11:40.977Z</time>
      </trkpt>
      <trkpt lat="44.94621" lon="3.88017">
        <ele>919.24</ele>
        <time>2025-04-15T15:11:42.468Z</time>
      </trkpt>
      <trkpt lat="44.94632" lon="3.87975">
        <ele>919.7</ele>
        <time>2025-04-15T15:11:43.964Z</time>
      </trkpt>
      <trkpt lat="44.94644" lon="3.87927">
        <ele>920.18</ele>
        <time>2025-04-15T15:11:45.466Z</time>
      </trkpt>
      <trkpt lat="44.94645" lon="3.87925">
        <ele>920.62</ele>
        <time>2025-04-15T15:11:46.968Z</time>
      </trkpt>
      <trkpt lat="44.94655" lon="3.87899">
        <ele>921.06</ele>
        <time>2025-04-15T15:11:48.473Z</time>
      </trkpt>
      <trkpt lat="44.94661" lon="3.87883">
        <ele>921.48</ele>
        <time>2025-04-15T15:11:49.980Z</time>
      </trkpt>
      <trkpt lat="44.94668" lon="3.87866">
        <ele>921.95</ele>
        <time>2025-04-15T15:11:51.490Z</time>
      </trkpt>
      <trkpt lat="44.94681" lon="3.87832">
        <ele>922.45</ele>
        <time>2025-04-15T15:11:53.004Z</time>
      </trkpt>
      <trkpt lat="44.94685" lon="3.87821">
        <ele>922.92</ele>
        <time>2025-04-15T15:11:54.519Z</time>
      </trkpt>
      <trkpt lat="44.94689" lon="3.8781">
        <ele>923.37</ele>
        <time>2025-04-15T15:11:56.036Z</time>
      </trkpt>
      <trkpt lat="44.94695" lon="3.87793">
        <ele>923.82</ele>
        <time>2025-04-15T15:11:57.555Z</time>
      </trkpt>
      <trkpt lat="44.94699" lon="3.87782">
        <ele>924.26</ele>
        <time>2025-04-15T15:11:59.075Z</time>
      </trkpt>
      <trkpt lat="44.94707" lon="3.87759">
        <ele>924.64</ele>
        <time>2025-04-15T15:12:00.598Z</time>
      </trkpt>
      <trkpt lat="44.94711" lon="3.87747">
        <ele>925.08</ele>
        <time>2025-04-15T15:12:02.123Z</time>
      </trkpt>
      <trkpt lat="44.94712" lon="3.87743">
        <ele>925.52</ele>
        <time>2025-04-15T15:12:03.648Z</time>
      </trkpt>
      <trkpt lat="44.94723" lon="3.87683">
        <ele>926.01</ele>
        <time>2025-04-15T15:12:05.180Z</time>
      </trkpt>
      <trkpt lat="44.94723" lon="3.8768">
        <ele>926.45</ele>
        <time>2025-04-15T15:12:06.713Z</time>
      </trkpt>
      <trkpt lat="44.94724" lon="3.87655">
        <ele>926.9</ele>
        <time>2025-04-15T15:12:08.248Z</time>
      </trkpt>
      <trkpt lat="44.94725" lon="3.87585">
        <ele>927.37</ele>
        <time>2025-04-15T15:12:09.791Z</time>
      </trkpt>
      <trkpt lat="44.94725" lon="3.87576">
        <ele>927.82</ele>
        <time>2025-04-15T15:12:11.335Z</time>
      </trkpt>
      <trkpt lat="44.94722" lon="3.87541">
        <ele>928.33</ele>
        <time>2025-04-15T15:12:12.883Z</time>
      </trkpt>
      <trkpt lat="44.9472" lon="3.87519">
        <ele>928.82</ele>
        <time>2025-04-15T15:12:14.434Z</time>
      </trkpt>
      <trkpt lat="44.94718" lon="3.8751">
        <ele>929.27</ele>
        <time>2025-04-15T15:12:15.986Z</time>
      </trkpt>
      <trkpt lat="44.94697" lon="3.8744">
        <ele>929.72</ele>
        <time>2025-04-15T15:12:17.547Z</time>
      </trkpt>
      <trkpt lat="44.94694" lon="3.87429">
        <ele>930.16</ele>
        <time>2025-04-15T15:12:19.109Z</time>
      </trkpt>
      <trkpt lat="44.94694" lon="3.87429">
        <ele>930.58</ele>
        <time>2025-04-15T15:12:20.671Z</time>
      </trkpt>
      <trkpt lat="44.94683" lon="3.87408">
        <ele>931.06</ele>
        <time>2025-04-15T15:12:22.236Z</time>
      </trkpt>
      <trkpt lat="44.94669" lon="3.87383">
        <ele>931.57</ele>
        <time>2025-04-15T15:12:23.805Z</time>
      </trkpt>
      <trkpt lat="44.94654" lon="3.87356">
        <ele>932.05</ele>
        <time>2025-04-15T15:12:25.377Z</time>
      </trkpt>
      <trkpt lat="44.94645" lon="3.87346">
        <ele>932.47</ele>
        <time>2025-04-15T15:12:26.951Z</time>
      </trkpt>
      <trkpt lat="44.94631" lon="3.8733">
        <ele>932.88</ele>
        <time>2025-04-15T15:12:28.528Z</time>
      </trkpt>
      <trkpt lat="44.94607" lon="3.87301">
        <ele>933.25</ele>
        <time>2025-04-15T15:12:30.110Z</time>
      </trkpt>
      <trkpt lat="44.94595" lon="3.87293">
        <ele>933.63</ele>
        <time>2025-04-15T15:12:31.694Z</time>
      </trkpt>
      <trkpt lat="44.94576" lon="3.87278">
        <ele>933.96</ele>
        <time>2025-04-15T15:12:33.282Z</time>
      </trkpt>
      <trkpt lat="44.94564" lon="3.87269">
        <ele>934.33</ele>
        <time>2025-04-15T15:12:34.872Z</time>
      </trkpt>
      <trkpt lat="44.94555" lon="3.87263">
        <ele>934.71</ele>
        <time>2025-04-15T15:12:36.464Z</time>
      </trkpt>
      <trkpt lat="44.94547" lon="3.8726">
        <ele>935.08</ele>
        <time>2025-04-15T15:12:38.057Z</time>
      </trkpt>
      <trkpt lat="44.94538" lon="3.87257">
        <ele>935.45</ele>
        <time>2025-04-15T15:12:39.651Z</time>
      </trkpt>
      <trkpt lat="44.94525" lon="3.87252">
        <ele>935.84</ele>
        <time>2025-04-15T15:12:41.248Z</time>
      </trkpt>
      <trkpt lat="44.94508" lon="3.87246">
        <ele>936.24</ele>
        <time>2025-04-15T15:12:42.847Z</time>
      </trkpt>
      <trkpt lat="44.94499" lon="3.87242">
        <ele>936.65</ele>
        <time>2025-04-15T15:12:44.448Z</time>
      </trkpt>
      <trkpt lat="44.94496" lon="3.87241">
        <ele>937.05</ele>
        <time>2025-04-15T15:12:46.049Z</time>
      </trkpt>
      <trkpt lat="44.94482" lon="3.87241">
        <ele>937.48</ele>
        <time>2025-04-15T15:12:47.653Z</time>
      </trkpt>
      <trkpt lat="44.9445" lon="3.8724">
        <ele>937.96</ele>
        <time>2025-04-15T15:12:49.262Z</time>
      </trkpt>
      <trkpt lat="44.94432" lon="3.8724">
        <ele>938.4</ele>
        <time>2025-04-15T15:12:50.874Z</time>
      </trkpt>
      <trkpt lat="44.94417" lon="3.8724">
        <ele>938.8</ele>
        <time>2025-04-15T15:12:52.488Z</time>
      </trkpt>
      <trkpt lat="44.94415" lon="3.87241">
        <ele>939.2</ele>
        <time>2025-04-15T15:12:54.102Z</time>
      </trkpt>
      <trkpt lat="44.94368" lon="3.87262">
        <ele>939.6</ele>
        <time>2025-04-15T15:12:55.724Z</time>
      </trkpt>
      <trkpt lat="44.94361" lon="3.87265">
        <ele>940.02</ele>
        <time>2025-04-15T15:12:57.347Z</time>
      </trkpt>
      <trkpt lat="44.94355" lon="3.87268">
        <ele>940.45</ele>
        <time>2025-04-15T15:12:58.971Z</time>
      </trkpt>
      <trkpt lat="44.9433" lon="3.87282">
        <ele>940.88</ele>
        <time>2025-04-15T15:13:00.600Z</time>
      </trkpt>
      <trkpt lat="44.94313" lon="3.87291">
        <ele>941.28</ele>
        <time>2025-04-15T15:13:02.232Z</time>
      </trkpt>
      <trkpt lat="44.94296" lon="3.87301">
        <ele>941.7</ele>
        <time>2025-04-15T15:13:03.867Z</time>
      </trkpt>
      <trkpt lat="44.94284" lon="3.87308">
        <ele>942.13</ele>
        <time>2025-04-15T15:13:05.504Z</time>
      </trkpt>
      <trkpt lat="44.94267" lon="3.87317">
        <ele>942.56</ele>
        <time>2025-04-15T15:13:07.144Z</time>
      </trkpt>
      <trkpt lat="44.94261" lon="3.8732">
        <ele>942.99</ele>
        <time>2025-04-15T15:13:08.785Z</time>
      </trkpt>
      <trkpt lat="44.9425" lon="3.87323">
        <ele>943.43</ele>
        <time>2025-04-15T15:13:10.427Z</time>
      </trkpt>
      <trkpt lat="44.94219" lon="3.87331">
        <ele>943.87</ele>
        <time>2025-04-15T15:13:12.074Z</time>
      </trkpt>
      <trkpt lat="44.9421" lon="3.87333">
        <ele>944.3</ele>
        <time>2025-04-15T15:13:13.723Z</time>
      </trkpt>
      <trkpt lat="44.94174" lon="3.87333">
        <ele>944.8</ele>
        <time>2025-04-15T15:13:15.378Z</time>
      </trkpt>
      <trkpt lat="44.94151" lon="3.87333">
        <ele>945.32</ele>
        <time>2025-04-15T15:13:17.036Z</time>
      </trkpt>
      <trkpt lat="44.9413" lon="3.87328">
        <ele>945.77</ele>
        <time>2025-04-15T15:13:18.698Z</time>
      </trkpt>
      <trkpt lat="44.94094" lon="3.87321">
        <ele>946.27</ele>
        <time>2025-04-15T15:13:20.366Z</time>
      </trkpt>
      <trkpt lat="44.94072" lon="3.87316">
        <ele>946.75</ele>
        <time>2025-04-15T15:13:22.037Z</time>
      </trkpt>
      <trkpt lat="44.94037" lon="3.87308">
        <ele>947.19</ele>
        <time>2025-04-15T15:13:23.714Z</time>
      </trkpt>
      <trkpt lat="44.94023" lon="3.87306">
        <ele>947.65</ele>
        <time>2025-04-15T15:13:25.393Z</time>
      </trkpt>
      <trkpt lat="44.93997" lon="3.873">
        <ele>948.09</ele>
        <time>2025-04-15T15:13:27.076Z</time>
      </trkpt>
      <trkpt lat="44.93979" lon="3.87296">
        <ele>948.56</ele>
        <time>2025-04-15T15:13:28.762Z</time>
      </trkpt>
      <trkpt lat="44.93971" lon="3.87292">
        <ele>949.02</ele>
        <time>2025-04-15T15:13:30.450Z</time>
      </trkpt>
      <trkpt lat="44.93953" lon="3.87285">
        <ele>949.5</ele>
        <time>2025-04-15T15:13:32.140Z</time>
      </trkpt>
      <trkpt lat="44.93945" lon="3.87282">
        <ele>949.95</ele>
        <time>2025-04-15T15:13:33.832Z</time>
      </trkpt>
      <trkpt lat="44.93919" lon="3.87271">
        <ele>950.43</ele>
        <time>2025-04-15T15:13:35.528Z</time>
      </trkpt>
      <trkpt lat="44.93893" lon="3.8726">
        <ele>950.9</ele>
        <time>2025-04-15T15:13:37.229Z</time>
      </trkpt>
      <trkpt lat="44.9388" lon="3.87254">
        <ele>951.34</ele>
        <time>2025-04-15T15:13:38.932Z</time>
      </trkpt>
      <trkpt lat="44.93863" lon="3.87247">
        <ele>951.78</ele>
        <time>2025-04-15T15:13:40.638Z</time>
      </trkpt>
      <trkpt lat="44.93833" lon="3.87235">
        <ele>952.22</ele>
        <time>2025-04-15T15:13:42.349Z</time>
      </trkpt>
      <trkpt lat="44.93832" lon="3.87234">
        <ele>952.65</ele>
        <time>2025-04-15T15:13:44.060Z</time>
      </trkpt>
      <trkpt lat="44.93806" lon="3.87232">
        <ele>953.09</ele>
        <time>2025-04-15T15:13:45.775Z</time>
      </trkpt>
      <trkpt lat="44.93775" lon="3.87228">
        <ele>953.52</ele>
        <time>2025-04-15T15:13:47.495Z</time>
      </trkpt>
      <trkpt lat="44.93761" lon="3.87227">
        <ele>953.95</ele>
        <time>2025-04-15T15:13:49.217Z</time>
      </trkpt>
      <trkpt lat="44.93739" lon="3.87229">
        <ele>954.46</ele>
        <time>2025-04-15T15:13:50.943Z</time>
      </trkpt>
      <trkpt lat="44.9373" lon="3.8723">
        <ele>954.9</ele>
        <time>2025-04-15T15:13:52.670Z</time>
      </trkpt>
      <trkpt lat="44.93704" lon="3.87232">
        <ele>955.39</ele>
        <time>2025-04-15T15:13:54.401Z</time>
      </trkpt>
      <trkpt lat="44.93668" lon="3.87235">
        <ele>955.77</ele>
        <time>2025-04-15T15:13:56.138Z</time>
      </trkpt>
      <trkpt lat="44.93659" lon="3.87236">
        <ele>956.15</ele>
        <time>2025-04-15T15:13:57.877Z</time>
      </trkpt>
      <trkpt lat="44.93646" lon="3.87237">
        <ele>956.52</ele>
        <time>2025-04-15T15:13:59.618Z</time>
      </trkpt>
      <trkpt lat="44.93637" lon="3.87238">
        <ele>956.89</ele>
        <time>2025-04-15T15:14:01.360Z</time>
      </trkpt>
      <trkpt lat="44.93596" lon="3.87241">
        <ele>957.22</ele>
        <time>2025-04-15T15:14:03.109Z</time>
      </trkpt>
      <trkpt lat="44.93577" lon="3.87243">
        <ele>957.6</ele>
        <time>2025-04-15T15:14:04.861Z</time>
      </trkpt>
      <trkpt lat="44.93547" lon="3.87236">
        <ele>958.04</ele>
        <time>2025-04-15T15:14:06.617Z</time>
      </trkpt>
      <trkpt lat="44.93539" lon="3.87234">
        <ele>958.39</ele>
        <time>2025-04-15T15:14:08.375Z</time>
      </trkpt>
      <trkpt lat="44.93516" lon="3.87229">
        <ele>958.69</ele>
        <time>2025-04-15T15:14:10.136Z</time>
      </trkpt>
      <trkpt lat="44.93515" lon="3.87229">
        <ele>958.99</ele>
        <time>2025-04-15T15:14:11.898Z</time>
      </trkpt>
      <trkpt lat="44.93499" lon="3.87222">
        <ele>959.25</ele>
        <time>2025-04-15T15:14:13.662Z</time>
      </trkpt>
      <trkpt lat="44.93486" lon="3.87217">
        <ele>959.49</ele>
        <time>2025-04-15T15:14:15.428Z</time>
      </trkpt>
      <trkpt lat="44.93478" lon="3.87213">
        <ele>959.76</ele>
        <time>2025-04-15T15:14:17.196Z</time>
      </trkpt>
      <trkpt lat="44.93457" lon="3.87204">
        <ele>960.04</ele>
        <time>2025-04-15T15:14:18.967Z</time>
      </trkpt>
      <trkpt lat="44.93446" lon="3.87192">
        <ele>960.3</ele>
        <time>2025-04-15T15:14:20.741Z</time>
      </trkpt>
      <trkpt lat="44.93438" lon="3.87185">
        <ele>960.56</ele>
        <time>2025-04-15T15:14:22.516Z</time>
      </trkpt>
      <trkpt lat="44.93421" lon="3.87167">
        <ele>960.84</ele>
        <time>2025-04-15T15:14:24.295Z</time>
      </trkpt>
      <trkpt lat="44.93407" lon="3.87149">
        <ele>961.15</ele>
        <time>2025-04-15T15:14:26.077Z</time>
      </trkpt>
      <trkpt lat="44.93397" lon="3.87136">
        <ele>961.46</ele>
        <time>2025-04-15T15:14:27.861Z</time>
      </trkpt>
      <trkpt lat="44.93384" lon="3.87119">
        <ele>961.76</ele>
        <time>2025-04-15T15:14:29.648Z</time>
      </trkpt>
      <trkpt lat="44.93383" lon="3.87118">
        <ele>962.04</ele>
        <time>2025-04-15T15:14:31.435Z</time>
      </trkpt>
      <trkpt lat="44.93373" lon="3.87108">
        <ele>962.33</ele>
        <time>2025-04-15T15:14:33.224Z</time>
      </trkpt>
      <trkpt lat="44.93348" lon="3.87081">
        <ele>962.58</ele>
        <time>2025-04-15T15:14:35.018Z</time>
      </trkpt>
      <trkpt lat="44.93334" lon="3.87066">
        <ele>962.83</ele>
        <time>2025-04-15T15:14:36.815Z</time>
      </trkpt>
      <trkpt lat="44.93328" lon="3.8706">
        <ele>963.11</ele>
        <time>2025-04-15T15:14:38.613Z</time>
      </trkpt>
      <trkpt lat="44.93327" lon="3.87058">
        <ele>963.41</ele>
        <time>2025-04-15T15:14:40.411Z</time>
      </trkpt>
      <trkpt lat="44.9331" lon="3.87037">
        <ele>963.72</ele>
        <time>2025-04-15T15:14:42.213Z</time>
      </trkpt>
      <trkpt lat="44.93297" lon="3.8702">
        <ele>964.08</ele>
        <time>2025-04-15T15:14:44.017Z</time>
      </trkpt>
      <trkpt lat="44.9329" lon="3.87011">
        <ele>964.43</ele>
        <time>2025-04-15T15:14:45.823Z</time>
      </trkpt>
      <trkpt lat="44.93277" lon="3.86994">
        <ele>964.82</ele>
        <time>2025-04-15T15:14:47.632Z</time>
      </trkpt>
      <trkpt lat="44.93266" lon="3.8698">
        <ele>965.22</ele>
        <time>2025-04-15T15:14:49.443Z</time>
      </trkpt>
      <trkpt lat="44.9326" lon="3.86974">
        <ele>965.61</ele>
        <time>2025-04-15T15:14:51.255Z</time>
      </trkpt>
      <trkpt lat="44.93236" lon="3.86952">
        <ele>966.06</ele>
        <time>2025-04-15T15:14:53.072Z</time>
      </trkpt>
      <trkpt lat="44.93225" lon="3.86948">
        <ele>966.42</ele>
        <time>2025-04-15T15:14:54.891Z</time>
      </trkpt>
      <trkpt lat="44.9322" lon="3.86947">
        <ele>966.8</ele>
        <time>2025-04-15T15:14:56.711Z</time>
      </trkpt>
      <trkpt lat="44.93216" lon="3.86946">
        <ele>967.18</ele>
        <time>2025-04-15T15:14:58.531Z</time>
      </trkpt>
      <trkpt lat="44.93211" lon="3.86944">
        <ele>967.58</ele>
        <time>2025-04-15T15:15:00.352Z</time>
      </trkpt>
      <trkpt lat="44.93207" lon="3.86942">
        <ele>967.99</ele>
        <time>2025-04-15T15:15:02.174Z</time>
      </trkpt>
      <trkpt lat="44.93199" lon="3.86938">
        <ele>968.41</ele>
        <time>2025-04-15T15:15:03.997Z</time>
      </trkpt>
      <trkpt lat="44.93195" lon="3.86936">
        <ele>968.84</ele>
        <time>2025-04-15T15:15:05.821Z</time>
      </trkpt>
      <trkpt lat="44.9319" lon="3.86934">
        <ele>969.28</ele>
        <time>2025-04-15T15:15:07.646Z</time>
      </trkpt>
      <trkpt lat="44.93187" lon="3.86931">
        <ele>969.74</ele>
        <time>2025-04-15T15:15:09.471Z</time>
      </trkpt>
      <trkpt lat="44.93182" lon="3.86927">
        <ele>970.21</ele>
        <time>2025-04-15T15:15:11.297Z</time>
      </trkpt>
      <trkpt lat="44.93178" lon="3.86927">
        <ele>970.66</ele>
        <time>2025-04-15T15:15:13.124Z</time>
      </trkpt>
      <trkpt lat="44.93169" lon="3.86926">
        <ele>971.14</ele>
        <time>2025-04-15T15:15:14.952Z</time>
      </trkpt>
      <trkpt lat="44.93156" lon="3.86925">
        <ele>971.63</ele>
        <time>2025-04-15T15:15:16.782Z</time>
      </trkpt>
      <trkpt lat="44.93142" lon="3.86925">
        <ele>972.16</ele>
        <time>2025-04-15T15:15:18.614Z</time>
      </trkpt>
      <trkpt lat="44.93134" lon="3.86924">
        <ele>972.67</ele>
        <time>2025-04-15T15:15:20.448Z</time>
      </trkpt>
      <trkpt lat="44.9312" lon="3.86923">
        <ele>973.21</ele>
        <time>2025-04-15T15:15:22.284Z</time>
      </trkpt>
      <trkpt lat="44.93089" lon="3.86921">
        <ele>973.77</ele>
        <time>2025-04-15T15:15:24.125Z</time>
      </trkpt>
      <trkpt lat="44.9308" lon="3.86921">
        <ele>974.24</ele>
        <time>2025-04-15T15:15:25.968Z</time>
      </trkpt>
      <trkpt lat="44.93065" lon="3.8692">
        <ele>974.71</ele>
        <time>2025-04-15T15:15:27.813Z</time>
      </trkpt>
      <trkpt lat="44.93062" lon="3.8692">
        <ele>975.14</ele>
        <time>2025-04-15T15:15:29.658Z</time>
      </trkpt>
      <trkpt lat="44.93048" lon="3.86918">
        <ele>975.59</ele>
        <time>2025-04-15T15:15:31.506Z</time>
      </trkpt>
      <trkpt lat="44.93031" lon="3.86915">
        <ele>976.04</ele>
        <time>2025-04-15T15:15:33.356Z</time>
      </trkpt>
      <trkpt lat="44.93004" lon="3.86911">
        <ele>976.44</ele>
        <time>2025-04-15T15:15:35.211Z</time>
      </trkpt>
      <trkpt lat="44.92982" lon="3.86907">
        <ele>976.83</ele>
        <time>2025-04-15T15:15:37.069Z</time>
      </trkpt>
      <trkpt lat="44.92979" lon="3.86907">
        <ele>977.17</ele>
        <time>2025-04-15T15:15:38.928Z</time>
      </trkpt>
      <trkpt lat="44.92936" lon="3.86881">
        <ele>977.57</ele>
        <time>2025-04-15T15:15:40.794Z</time>
      </trkpt>
      <trkpt lat="44.92923" lon="3.86873">
        <ele>977.86</ele>
        <time>2025-04-15T15:15:42.662Z</time>
      </trkpt>
      <trkpt lat="44.92917" lon="3.86866">
        <ele>978.15</ele>
        <time>2025-04-15T15:15:44.532Z</time>
      </trkpt>
      <trkpt lat="44.92895" lon="3.86842">
        <ele>978.4</ele>
        <time>2025-04-15T15:15:46.406Z</time>
      </trkpt>
      <trkpt lat="44.92871" lon="3.86815">
        <ele>978.69</ele>
        <time>2025-04-15T15:15:48.285Z</time>
      </trkpt>
      <trkpt lat="44.92869" lon="3.86813">
        <ele>978.91</ele>
        <time>2025-04-15T15:15:50.164Z</time>
      </trkpt>
      <trkpt lat="44.92865" lon="3.86806">
        <ele>979.11</ele>
        <time>2025-04-15T15:15:52.045Z</time>
      </trkpt>
      <trkpt lat="44.92841" lon="3.86768">
        <ele>979.2</ele>
        <time>2025-04-15T15:15:53.931Z</time>
      </trkpt>
      <trkpt lat="44.92823" lon="3.8674">
        <ele>979.25</ele>
        <time>2025-04-15T15:15:55.822Z</time>
      </trkpt>
      <trkpt lat="44.92821" lon="3.86734">
        <ele>979.41</ele>
        <time>2025-04-15T15:15:57.713Z</time>
      </trkpt>
      <trkpt lat="44.92815" lon="3.86716">
        <ele>979.54</ele>
        <time>2025-04-15T15:15:59.607Z</time>
      </trkpt>
      <trkpt lat="44.92808" lon="3.86693">
        <ele>979.68</ele>
        <time>2025-04-15T15:16:01.503Z</time>
      </trkpt>
      <trkpt lat="44.92797" lon="3.86659">
        <ele>979.82</ele>
        <time>2025-04-15T15:16:03.404Z</time>
      </trkpt>
      <trkpt lat="44.92793" lon="3.86648">
        <ele>979.95</ele>
        <time>2025-04-15T15:16:05.306Z</time>
      </trkpt>
      <trkpt lat="44.92785" lon="3.86625">
        <ele>980.07</ele>
        <time>2025-04-15T15:16:07.211Z</time>
      </trkpt>
      <trkpt lat="44.92779" lon="3.86608">
        <ele>980.17</ele>
        <time>2025-04-15T15:16:09.118Z</time>
      </trkpt>
      <trkpt lat="44.92775" lon="3.86597">
        <ele>980.29</ele>
        <time>2025-04-15T15:16:11.027Z</time>
      </trkpt>
      <trkpt lat="44.9277" lon="3.86585">
        <ele>980.38</ele>
        <time>2025-04-15T15:16:12.937Z</time>
      </trkpt>
      <trkpt lat="44.92762" lon="3.86563">
        <ele>980.48</ele>
        <time>2025-04-15T15:16:14.850Z</time>
      </trkpt>
      <trkpt lat="44.92758" lon="3.86551">
        <ele>980.55</ele>
        <time>2025-04-15T15:16:16.764Z</time>
      </trkpt>
      <trkpt lat="44.92748" lon="3.86523">
        <ele>980.64</ele>
        <time>2025-04-15T15:16:18.682Z</time>
      </trkpt>
      <trkpt lat="44.92738" lon="3.86495">
        <ele>980.71</ele>
        <time>2025-04-15T15:16:20.604Z</time>
      </trkpt>
      <trkpt lat="44.92733" lon="3.86481">
        <ele>980.75</ele>
        <time>2025-04-15T15:16:22.527Z</time>
      </trkpt>
      <trkpt lat="44.9273" lon="3.86472">
        <ele>980.76</ele>
        <time>2025-04-15T15:16:24.451Z</time>
      </trkpt>
      <trkpt lat="44.92723" lon="3.86449">
        <ele>980.74</ele>
        <time>2025-04-15T15:16:26.378Z</time>
      </trkpt>
      <trkpt lat="44.92719" lon="3.86438">
        <ele>980.77</ele>
        <time>2025-04-15T15:16:28.307Z</time>
      </trkpt>
      <trkpt lat="44.92711" lon="3.86415">
        <ele>980.81</ele>
        <time>2025-04-15T15:16:30.239Z</time>
      </trkpt>
      <trkpt lat="44.92704" lon="3.86393">
        <ele>980.87</ele>
        <time>2025-04-15T15:16:32.173Z</time>
      </trkpt>
      <trkpt lat="44.92704" lon="3.86392">
        <ele>980.92</ele>
        <time>2025-04-15T15:16:34.108Z</time>
      </trkpt>
      <trkpt lat="44.92702" lon="3.86367">
        <ele>981.03</ele>
        <time>2025-04-15T15:16:36.045Z</time>
      </trkpt>
      <trkpt lat="44.92697" lon="3.86323">
        <ele>981.14</ele>
        <time>2025-04-15T15:16:37.987Z</time>
      </trkpt>
      <trkpt lat="44.92695" lon="3.86297">
        <ele>981.23</ele>
        <time>2025-04-15T15:16:39.932Z</time>
      </trkpt>
      <trkpt lat="44.92694" lon="3.86291">
        <ele>981.3</ele>
        <time>2025-04-15T15:16:41.878Z</time>
      </trkpt>
      <trkpt lat="44.92693" lon="3.86272">
        <ele>981.37</ele>
        <time>2025-04-15T15:16:43.826Z</time>
      </trkpt>
      <trkpt lat="44.92692" lon="3.86266">
        <ele>981.47</ele>
        <time>2025-04-15T15:16:45.775Z</time>
      </trkpt>
      <trkpt lat="44.92692" lon="3.8626">
        <ele>981.58</ele>
        <time>2025-04-15T15:16:47.725Z</time>
      </trkpt>
      <trkpt lat="44.9269" lon="3.86241">
        <ele>981.64</ele>
        <time>2025-04-15T15:16:49.677Z</time>
      </trkpt>
      <trkpt lat="44.92689" lon="3.86231">
        <ele>981.77</ele>
        <time>2025-04-15T15:16:51.630Z</time>
      </trkpt>
      <trkpt lat="44.92688" lon="3.86217">
        <ele>981.87</ele>
        <time>2025-04-15T15:16:53.585Z</time>
      </trkpt>
      <trkpt lat="44.92686" lon="3.862">
        <ele>981.99</ele>
        <time>2025-04-15T15:16:55.542Z</time>
      </trkpt>
      <trkpt lat="44.92685" lon="3.86191">
        <ele>982.17</ele>
        <time>2025-04-15T15:16:57.500Z</time>
      </trkpt>
      <trkpt lat="44.92682" lon="3.86164">
        <ele>982.35</ele>
        <time>2025-04-15T15:16:59.461Z</time>
      </trkpt>
      <trkpt lat="44.92678" lon="3.86141">
        <ele>982.56</ele>
        <time>2025-04-15T15:17:01.424Z</time>
      </trkpt>
      <trkpt lat="44.92669" lon="3.86099">
        <ele>982.93</ele>
        <time>2025-04-15T15:17:03.392Z</time>
      </trkpt>
      <trkpt lat="44.92666" lon="3.86083">
        <ele>983.2</ele>
        <time>2025-04-15T15:17:05.362Z</time>
      </trkpt>
      <trkpt lat="44.9266" lon="3.86056">
        <ele>983.5</ele>
        <time>2025-04-15T15:17:07.335Z</time>
      </trkpt>
      <trkpt lat="44.92653" lon="3.86026">
        <ele>983.76</ele>
        <time>2025-04-15T15:17:09.312Z</time>
      </trkpt>
      <trkpt lat="44.92647" lon="3.85995">
        <ele>984.07</ele>
        <time>2025-04-15T15:17:11.293Z</time>
      </trkpt>
      <trkpt lat="44.92645" lon="3.85989">
        <ele>984.39</ele>
        <time>2025-04-15T15:17:13.274Z</time>
      </trkpt>
      <trkpt lat="44.92644" lon="3.85983">
        <ele>984.73</ele>
        <time>2025-04-15T15:17:15.256Z</time>
      </trkpt>
      <trkpt lat="44.92643" lon="3.85979">
        <ele>985.07</ele>
        <time>2025-04-15T15:17:17.239Z</time>
      </trkpt>
      <trkpt lat="44.92641" lon="3.85958">
        <ele>985.46</ele>
        <time>2025-04-15T15:17:19.224Z</time>
      </trkpt>
      <trkpt lat="44.9264" lon="3.85952">
        <ele>985.86</ele>
        <time>2025-04-15T15:17:21.210Z</time>
      </trkpt>
      <trkpt lat="44.9264" lon="3.85946">
        <ele>986.27</ele>
        <time>2025-04-15T15:17:23.196Z</time>
      </trkpt>
      <trkpt lat="44.92638" lon="3.85933">
        <ele>986.68</ele>
        <time>2025-04-15T15:17:25.184Z</time>
      </trkpt>
      <trkpt lat="44.92637" lon="3.85921">
        <ele>987.12</ele>
        <time>2025-04-15T15:17:27.173Z</time>
      </trkpt>
      <trkpt lat="44.92635" lon="3.85901">
        <ele>987.57</ele>
        <time>2025-04-15T15:17:29.165Z</time>
      </trkpt>
      <trkpt lat="44.92635" lon="3.85896">
        <ele>988.04</ele>
        <time>2025-04-15T15:17:31.157Z</time>
      </trkpt>
      <trkpt lat="44.92634" lon="3.85877">
        <ele>988.57</ele>
        <time>2025-04-15T15:17:33.151Z</time>
      </trkpt>
      <trkpt lat="44.92633" lon="3.85864">
        <ele>989.07</ele>
        <time>2025-04-15T15:17:35.147Z</time>
      </trkpt>
      <trkpt lat="44.92632" lon="3.85839">
        <ele>989.6</ele>
        <time>2025-04-15T15:17:37.146Z</time>
      </trkpt>
      <trkpt lat="44.92629" lon="3.85782">
        <ele>990.18</ele>
        <time>2025-04-15T15:17:39.151Z</time>
      </trkpt>
      <trkpt lat="44.92628" lon="3.85763">
        <ele>990.76</ele>
        <time>2025-04-15T15:17:41.158Z</time>
      </trkpt>
      <trkpt lat="44.92628" lon="3.8576">
        <ele>991.3</ele>
        <time>2025-04-15T15:17:43.166Z</time>
      </trkpt>
      <trkpt lat="44.92622" lon="3.85732">
        <ele>991.86</ele>
        <time>2025-04-15T15:17:45.177Z</time>
      </trkpt>
      <trkpt lat="44.9262" lon="3.8572">
        <ele>992.43</ele>
        <time>2025-04-15T15:17:47.189Z</time>
      </trkpt>
      <trkpt lat="44.92617" lon="3.85708">
        <ele>993</ele>
        <time>2025-04-15T15:17:49.203Z</time>
      </trkpt>
      <trkpt lat="44.92611" lon="3.85677">
        <ele>993.63</ele>
        <time>2025-04-15T15:17:51.220Z</time>
      </trkpt>
      <trkpt lat="44.92607" lon="3.8566">
        <ele>994.22</ele>
        <time>2025-04-15T15:17:53.239Z</time>
      </trkpt>
      <trkpt lat="44.92607" lon="3.85659">
        <ele>994.74</ele>
        <time>2025-04-15T15:17:55.259Z</time>
      </trkpt>
      <trkpt lat="44.92592" lon="3.85627">
        <ele>995.29</ele>
        <time>2025-04-15T15:17:57.283Z</time>
      </trkpt>
      <trkpt lat="44.92583" lon="3.85606">
        <ele>995.81</ele>
        <time>2025-04-15T15:17:59.310Z</time>
      </trkpt>
      <trkpt lat="44.92575" lon="3.8559">
        <ele>996.32</ele>
        <time>2025-04-15T15:18:01.339Z</time>
      </trkpt>
      <trkpt lat="44.92569" lon="3.85576">
        <ele>996.82</ele>
        <time>2025-04-15T15:18:03.370Z</time>
      </trkpt>
      <trkpt lat="44.92552" lon="3.85552">
        <ele>997.35</ele>
        <time>2025-04-15T15:18:05.405Z</time>
      </trkpt>
      <trkpt lat="44.92536" lon="3.8553">
        <ele>997.85</ele>
        <time>2025-04-15T15:18:07.443Z</time>
      </trkpt>
      <trkpt lat="44.92529" lon="3.85521">
        <ele>998.31</ele>
        <time>2025-04-15T15:18:09.483Z</time>
      </trkpt>
      <trkpt lat="44.92525" lon="3.85518">
        <ele>998.73</ele>
        <time>2025-04-15T15:18:11.523Z</time>
      </trkpt>
      <trkpt lat="44.9251" lon="3.85504">
        <ele>999.15</ele>
        <time>2025-04-15T15:18:13.566Z</time>
      </trkpt>
      <trkpt lat="44.92487" lon="3.85485">
        <ele>999.55</ele>
        <time>2025-04-15T15:18:15.614Z</time>
      </trkpt>
      <trkpt lat="44.92476" lon="3.85475">
        <ele>999.92</ele>
        <time>2025-04-15T15:18:17.664Z</time>
      </trkpt>
      <trkpt lat="44.92475" lon="3.85475">
        <ele>1000.26</ele>
        <time>2025-04-15T15:18:19.714Z</time>
      </trkpt>
      <trkpt lat="44.92463" lon="3.85466">
        <ele>1000.58</ele>
        <time>2025-04-15T15:18:21.766Z</time>
      </trkpt>
      <trkpt lat="44.92439" lon="3.8545">
        <ele>1000.82</ele>
        <time>2025-04-15T15:18:23.822Z</time>
      </trkpt>
      <trkpt lat="44.92427" lon="3.85441">
        <ele>1001.06</ele>
        <time>2025-04-15T15:18:25.880Z</time>
      </trkpt>
      <trkpt lat="44.92415" lon="3.85433">
        <ele>1001.3</ele>
        <time>2025-04-15T15:18:27.941Z</time>
      </trkpt>
      <trkpt lat="44.92392" lon="3.85417">
        <ele>1001.53</ele>
        <time>2025-04-15T15:18:30.006Z</time>
      </trkpt>
      <trkpt lat="44.92391" lon="3.85416">
        <ele>1001.78</ele>
        <time>2025-04-15T15:18:32.071Z</time>
      </trkpt>
      <trkpt lat="44.92381" lon="3.85403">
        <ele>1002.03</ele>
        <time>2025-04-15T15:18:34.138Z</time>
      </trkpt>
      <trkpt lat="44.92374" lon="3.85395">
        <ele>1002.27</ele>
        <time>2025-04-15T15:18:36.207Z</time>
      </trkpt>
      <trkpt lat="44.9236" lon="3.85379">
        <ele>1002.54</ele>
        <time>2025-04-15T15:18:38.278Z</time>
      </trkpt>
      <trkpt lat="44.92354" lon="3.85371">
        <ele>1002.76</ele>
        <time>2025-04-15T15:18:40.351Z</time>
      </trkpt>
      <trkpt lat="44.92338" lon="3.85347">
        <ele>1003.05</ele>
        <time>2025-04-15T15:18:42.427Z</time>
      </trkpt>
      <trkpt lat="44.9232" lon="3.85318">
        <ele>1003.27</ele>
        <time>2025-04-15T15:18:44.508Z</time>
      </trkpt>
      <trkpt lat="44.92318" lon="3.85313">
        <ele>1003.44</ele>
        <time>2025-04-15T15:18:46.589Z</time>
      </trkpt>
      <trkpt lat="44.92311" lon="3.85297">
        <ele>1003.58</ele>
        <time>2025-04-15T15:18:48.673Z</time>
      </trkpt>
      <trkpt lat="44.92297" lon="3.85264">
        <ele>1003.69</ele>
        <time>2025-04-15T15:18:50.761Z</time>
      </trkpt>
      <trkpt lat="44.92295" lon="3.85258">
        <ele>1003.82</ele>
        <time>2025-04-15T15:18:52.850Z</time>
      </trkpt>
      <trkpt lat="44.92288" lon="3.85235">
        <ele>1003.94</ele>
        <time>2025-04-15T15:18:54.942Z</time>
      </trkpt>
      <trkpt lat="44.92285" lon="3.85223">
        <ele>1004.07</ele>
        <time>2025-04-15T15:18:57.035Z</time>
      </trkpt>
      <trkpt lat="44.92279" lon="3.85205">
        <ele>1004.2</ele>
        <time>2025-04-15T15:18:59.130Z</time>
      </trkpt>
      <trkpt lat="44.92276" lon="3.85187">
        <ele>1004.34</ele>
        <time>2025-04-15T15:19:01.227Z</time>
      </trkpt>
      <trkpt lat="44.92275" lon="3.85175">
        <ele>1004.46</ele>
        <time>2025-04-15T15:19:03.326Z</time>
      </trkpt>
      <trkpt lat="44.92273" lon="3.85163">
        <ele>1004.57</ele>
        <time>2025-04-15T15:19:05.426Z</time>
      </trkpt>
      <trkpt lat="44.92272" lon="3.85158">
        <ele>1004.67</ele>
        <time>2025-04-15T15:19:07.527Z</time>
      </trkpt>
      <trkpt lat="44.92272" lon="3.85137">
        <ele>1004.77</ele>
        <time>2025-04-15T15:19:09.630Z</time>
      </trkpt>
      <trkpt lat="44.9227" lon="3.85069">
        <ele>1004.84</ele>
        <time>2025-04-15T15:19:11.741Z</time>
      </trkpt>
      <trkpt lat="44.9227" lon="3.8506">
        <ele>1004.92</ele>
        <time>2025-04-15T15:19:13.853Z</time>
      </trkpt>
      <trkpt lat="44.92274" lon="3.85032">
        <ele>1005.02</ele>
        <time>2025-04-15T15:19:15.968Z</time>
      </trkpt>
      <trkpt lat="44.92277" lon="3.85008">
        <ele>1005.13</ele>
        <time>2025-04-15T15:19:18.086Z</time>
      </trkpt>
      <trkpt lat="44.92282" lon="3.84983">
        <ele>1005.22</ele>
        <time>2025-04-15T15:19:20.207Z</time>
      </trkpt>
      <trkpt lat="44.92287" lon="3.84953">
        <ele>1005.29</ele>
        <time>2025-04-15T15:19:22.331Z</time>
      </trkpt>
      <trkpt lat="44.92295" lon="3.84911">
        <ele>1005.41</ele>
        <time>2025-04-15T15:19:24.460Z</time>
      </trkpt>
      <trkpt lat="44.923" lon="3.84885">
        <ele>1005.54</ele>
        <time>2025-04-15T15:19:26.592Z</time>
      </trkpt>
      <trkpt lat="44.92301" lon="3.84874">
        <ele>1005.68</ele>
        <time>2025-04-15T15:19:28.726Z</time>
      </trkpt>
      <trkpt lat="44.92303" lon="3.84862">
        <ele>1005.85</ele>
        <time>2025-04-15T15:19:30.861Z</time>
      </trkpt>
      <trkpt lat="44.92307" lon="3.84824">
        <ele>1006</ele>
        <time>2025-04-15T15:19:33.000Z</time>
      </trkpt>
      <trkpt lat="44.9231" lon="3.848">
        <ele>1006.16</ele>
        <time>2025-04-15T15:19:35.142Z</time>
      </trkpt>
      <trkpt lat="44.92309" lon="3.84749">
        <ele>1006.3</ele>
        <time>2025-04-15T15:19:37.290Z</time>
      </trkpt>
      <trkpt lat="44.92309" lon="3.84747">
        <ele>1006.54</ele>
        <time>2025-04-15T15:19:39.438Z</time>
      </trkpt>
      <trkpt lat="44.92307" lon="3.84736">
        <ele>1006.78</ele>
        <time>2025-04-15T15:19:41.587Z</time>
      </trkpt>
      <trkpt lat="44.92306" lon="3.84724">
        <ele>1007.06</ele>
        <time>2025-04-15T15:19:43.738Z</time>
      </trkpt>
      <trkpt lat="44.92302" lon="3.847">
        <ele>1007.35</ele>
        <time>2025-04-15T15:19:45.892Z</time>
      </trkpt>
      <trkpt lat="44.92294" lon="3.84669">
        <ele>1007.71</ele>
        <time>2025-04-15T15:19:48.049Z</time>
      </trkpt>
      <trkpt lat="44.92285" lon="3.84634">
        <ele>1008.19</ele>
        <time>2025-04-15T15:19:50.211Z</time>
      </trkpt>
      <trkpt lat="44.9228" lon="3.84612">
        <ele>1008.65</ele>
        <time>2025-04-15T15:19:52.375Z</time>
      </trkpt>
      <trkpt lat="44.92279" lon="3.8461">
        <ele>1009.07</ele>
        <time>2025-04-15T15:19:54.540Z</time>
      </trkpt>
      <trkpt lat="44.92266" lon="3.84584">
        <ele>1009.55</ele>
        <time>2025-04-15T15:19:56.708Z</time>
      </trkpt>
      <trkpt lat="44.92254" lon="3.84558">
        <ele>1010.04</ele>
        <time>2025-04-15T15:19:58.880Z</time>
      </trkpt>
      <trkpt lat="44.92249" lon="3.84547">
        <ele>1010.53</ele>
        <time>2025-04-15T15:20:01.053Z</time>
      </trkpt>
      <trkpt lat="44.92247" lon="3.84544">
        <ele>1011.03</ele>
        <time>2025-04-15T15:20:03.227Z</time>
      </trkpt>
      <trkpt lat="44.92233" lon="3.84525">
        <ele>1011.59</ele>
        <time>2025-04-15T15:20:05.404Z</time>
      </trkpt>
      <trkpt lat="44.92196" lon="3.84475">
        <ele>1012.26</ele>
        <time>2025-04-15T15:20:07.589Z</time>
      </trkpt>
      <trkpt lat="44.9217" lon="3.84456">
        <ele>1012.88</ele>
        <time>2025-04-15T15:20:09.779Z</time>
      </trkpt>
      <trkpt lat="44.92154" lon="3.84444">
        <ele>1013.46</ele>
        <time>2025-04-15T15:20:11.972Z</time>
      </trkpt>
      <trkpt lat="44.92144" lon="3.84437">
        <ele>1014.04</ele>
        <time>2025-04-15T15:20:14.166Z</time>
      </trkpt>
      <trkpt lat="44.92112" lon="3.84424">
        <ele>1014.62</ele>
        <time>2025-04-15T15:20:16.366Z</time>
      </trkpt>
      <trkpt lat="44.92099" lon="3.84418">
        <ele>1015.26</ele>
        <time>2025-04-15T15:20:18.568Z</time>
      </trkpt>
      <trkpt lat="44.92091" lon="3.84415">
        <ele>1015.91</ele>
        <time>2025-04-15T15:20:20.771Z</time>
      </trkpt>
      <trkpt lat="44.92086" lon="3.84414">
        <ele>1016.58</ele>
        <time>2025-04-15T15:20:22.975Z</time>
      </trkpt>
      <trkpt lat="44.92068" lon="3.84411">
        <ele>1017.27</ele>
        <time>2025-04-15T15:20:25.182Z</time>
      </trkpt>
      <trkpt lat="44.9206" lon="3.8441">
        <ele>1017.96</ele>
        <time>2025-04-15T15:20:27.390Z</time>
      </trkpt>
      <trkpt lat="44.9205" lon="3.84406">
        <ele>1018.65</ele>
        <time>2025-04-15T15:20:29.600Z</time>
      </trkpt>
      <trkpt lat="44.92042" lon="3.84407">
        <ele>1019.36</ele>
        <time>2025-04-15T15:20:31.811Z</time>
      </trkpt>
      <trkpt lat="44.92025" lon="3.84411">
        <ele>1020.1</ele>
        <time>2025-04-15T15:20:34.025Z</time>
      </trkpt>
      <trkpt lat="44.92001" lon="3.84415">
        <ele>1020.86</ele>
        <time>2025-04-15T15:20:36.243Z</time>
      </trkpt>
      <trkpt lat="44.91985" lon="3.84419">
        <ele>1021.62</ele>
        <time>2025-04-15T15:20:38.463Z</time>
      </trkpt>
      <trkpt lat="44.91972" lon="3.84423">
        <ele>1022.38</ele>
        <time>2025-04-15T15:20:40.685Z</time>
      </trkpt>
      <trkpt lat="44.91959" lon="3.84428">
        <ele>1023.15</ele>
        <time>2025-04-15T15:20:42.910Z</time>
      </trkpt>
      <trkpt lat="44.91947" lon="3.84433">
        <ele>1023.92</ele>
        <time>2025-04-15T15:20:45.137Z</time>
      </trkpt>
      <trkpt lat="44.91939" lon="3.84438">
        <ele>1024.7</ele>
        <time>2025-04-15T15:20:47.365Z</time>
      </trkpt>
      <trkpt lat="44.91908" lon="3.84458">
        <ele>1025.58</ele>
        <time>2025-04-15T15:20:49.598Z</time>
      </trkpt>
      <trkpt lat="44.91907" lon="3.84459">
        <ele>1026.36</ele>
        <time>2025-04-15T15:20:51.832Z</time>
      </trkpt>
      <trkpt lat="44.91883" lon="3.84479">
        <ele>1027.23</ele>
        <time>2025-04-15T15:20:54.070Z</time>
      </trkpt>
      <trkpt lat="44.9187" lon="3.84495">
        <ele>1028.06</ele>
        <time>2025-04-15T15:20:56.311Z</time>
      </trkpt>
      <trkpt lat="44.91849" lon="3.84519">
        <ele>1028.83</ele>
        <time>2025-04-15T15:20:58.556Z</time>
      </trkpt>
      <trkpt lat="44.9182" lon="3.84563">
        <ele>1029.6</ele>
        <time>2025-04-15T15:21:00.808Z</time>
      </trkpt>
      <trkpt lat="44.9181" lon="3.84579">
        <ele>1030.41</ele>
        <time>2025-04-15T15:21:03.062Z</time>
      </trkpt>
      <trkpt lat="44.91796" lon="3.84603">
        <ele>1031.21</ele>
        <time>2025-04-15T15:21:05.320Z</time>
      </trkpt>
      <trkpt lat="44.91782" lon="3.84627">
        <ele>1032.01</ele>
        <time>2025-04-15T15:21:07.582Z</time>
      </trkpt>
      <trkpt lat="44.91764" lon="3.84656">
        <ele>1032.82</ele>
        <time>2025-04-15T15:21:09.848Z</time>
      </trkpt>
      <trkpt lat="44.91736" lon="3.84704">
        <ele>1033.59</ele>
        <time>2025-04-15T15:21:12.121Z</time>
      </trkpt>
      <trkpt lat="44.91713" lon="3.84743">
        <ele>1034.39</ele>
        <time>2025-04-15T15:21:14.400Z</time>
      </trkpt>
      <trkpt lat="44.91687" lon="3.84786">
        <ele>1035.24</ele>
        <time>2025-04-15T15:21:16.685Z</time>
      </trkpt>
      <trkpt lat="44.91678" lon="3.84801">
        <ele>1036.02</ele>
        <time>2025-04-15T15:21:18.972Z</time>
      </trkpt>
      <trkpt lat="44.9167" lon="3.84815">
        <ele>1036.77</ele>
        <time>2025-04-15T15:21:21.261Z</time>
      </trkpt>
      <trkpt lat="44.91658" lon="3.84834">
        <ele>1037.51</ele>
        <time>2025-04-15T15:21:23.553Z</time>
      </trkpt>
      <trkpt lat="44.91621" lon="3.84897">
        <ele>1038.29</ele>
        <time>2025-04-15T15:21:25.855Z</time>
      </trkpt>
      <trkpt lat="44.91612" lon="3.84911">
        <ele>1039.01</ele>
        <time>2025-04-15T15:21:28.159Z</time>
      </trkpt>
      <trkpt lat="44.91589" lon="3.8495">
        <ele>1039.69</ele>
        <time>2025-04-15T15:21:30.468Z</time>
      </trkpt>
      <trkpt lat="44.91583" lon="3.84959">
        <ele>1040.37</ele>
        <time>2025-04-15T15:21:32.779Z</time>
      </trkpt>
      <trkpt lat="44.91578" lon="3.84969">
        <ele>1041.04</ele>
        <time>2025-04-15T15:21:35.091Z</time>
      </trkpt>
      <trkpt lat="44.91577" lon="3.8497">
        <ele>1041.68</ele>
        <time>2025-04-15T15:21:37.403Z</time>
      </trkpt>
      <trkpt lat="44.91558" lon="3.85003">
        <ele>1042.38</ele>
        <time>2025-04-15T15:21:39.720Z</time>
      </trkpt>
      <trkpt lat="44.91541" lon="3.85031">
        <ele>1043.06</ele>
        <time>2025-04-15T15:21:42.042Z</time>
      </trkpt>
      <trkpt lat="44.91526" lon="3.85055">
        <ele>1043.66</ele>
        <time>2025-04-15T15:21:44.367Z</time>
      </trkpt>
      <trkpt lat="44.91518" lon="3.8507">
        <ele>1044.24</ele>
        <time>2025-04-15T15:21:46.694Z</time>
      </trkpt>
      <trkpt lat="44.91498" lon="3.85103">
        <ele>1044.85</ele>
        <time>2025-04-15T15:21:49.026Z</time>
      </trkpt>
      <trkpt lat="44.9146" lon="3.85165">
        <ele>1045.53</ele>
        <time>2025-04-15T15:21:51.368Z</time>
      </trkpt>
      <trkpt lat="44.91457" lon="3.85171">
        <ele>1046.02</ele>
        <time>2025-04-15T15:21:53.710Z</time>
      </trkpt>
      <trkpt lat="44.9142" lon="3.85213">
        <ele>1046.49</ele>
        <time>2025-04-15T15:21:56.060Z</time>
      </trkpt>
      <trkpt lat="44.91416" lon="3.85217">
        <ele>1046.9</ele>
        <time>2025-04-15T15:21:58.411Z</time>
      </trkpt>
      <trkpt lat="44.914" lon="3.85229">
        <ele>1047.24</ele>
        <time>2025-04-15T15:22:00.765Z</time>
      </trkpt>
      <trkpt lat="44.91393" lon="3.85236">
        <ele>1047.58</ele>
        <time>2025-04-15T15:22:03.120Z</time>
      </trkpt>
      <trkpt lat="44.91378" lon="3.85248">
        <ele>1047.88</ele>
        <time>2025-04-15T15:22:05.478Z</time>
      </trkpt>
      <trkpt lat="44.91361" lon="3.85258">
        <ele>1048.19</ele>
        <time>2025-04-15T15:22:07.839Z</time>
      </trkpt>
      <trkpt lat="44.91353" lon="3.85262">
        <ele>1048.48</ele>
        <time>2025-04-15T15:22:10.201Z</time>
      </trkpt>
      <trkpt lat="44.91344" lon="3.85267">
        <ele>1048.75</ele>
        <time>2025-04-15T15:22:12.565Z</time>
      </trkpt>
      <trkpt lat="44.9134" lon="3.85268">
        <ele>1049.01</ele>
        <time>2025-04-15T15:22:14.929Z</time>
      </trkpt>
      <trkpt lat="44.91331" lon="3.85271">
        <ele>1049.26</ele>
        <time>2025-04-15T15:22:17.295Z</time>
      </trkpt>
      <trkpt lat="44.91314" lon="3.85276">
        <ele>1049.49</ele>
        <time>2025-04-15T15:22:19.664Z</time>
      </trkpt>
      <trkpt lat="44.91299" lon="3.85281">
        <ele>1049.68</ele>
        <time>2025-04-15T15:22:22.035Z</time>
      </trkpt>
      <trkpt lat="44.91287" lon="3.85282">
        <ele>1049.85</ele>
        <time>2025-04-15T15:22:24.408Z</time>
      </trkpt>
      <trkpt lat="44.91279" lon="3.85282">
        <ele>1050</ele>
        <time>2025-04-15T15:22:26.782Z</time>
      </trkpt>
      <trkpt lat="44.91266" lon="3.85283">
        <ele>1050.13</ele>
        <time>2025-04-15T15:22:29.158Z</time>
      </trkpt>
      <trkpt lat="44.91265" lon="3.85283">
        <ele>1050.25</ele>
        <time>2025-04-15T15:22:31.534Z</time>
      </trkpt>
      <trkpt lat="44.91256" lon="3.85282">
        <ele>1050.34</ele>
        <time>2025-04-15T15:22:33.912Z</time>
      </trkpt>
      <trkpt lat="44.91239" lon="3.85279">
        <ele>1050.39</ele>
        <time>2025-04-15T15:22:36.293Z</time>
      </trkpt>
      <trkpt lat="44.91221" lon="3.85277">
        <ele>1050.45</ele>
        <time>2025-04-15T15:22:38.677Z</time>
      </trkpt>
      <trkpt lat="44.91216" lon="3.85276">
        <ele>1050.53</ele>
        <time>2025-04-15T15:22:41.061Z</time>
      </trkpt>
      <trkpt lat="44.91204" lon="3.85271">
        <ele>1050.61</ele>
        <time>2025-04-15T15:22:43.447Z</time>
      </trkpt>
      <trkpt lat="44.91178" lon="3.8526">
        <ele>1050.73</ele>
        <time>2025-04-15T15:22:45.838Z</time>
      </trkpt>
      <trkpt lat="44.91156" lon="3.85251">
        <ele>1050.82</ele>
        <time>2025-04-15T15:22:48.232Z</time>
      </trkpt>
      <trkpt lat="44.91141" lon="3.85245">
        <ele>1050.92</ele>
        <time>2025-04-15T15:22:50.629Z</time>
      </trkpt>
      <trkpt lat="44.91135" lon="3.85242">
        <ele>1051.02</ele>
        <time>2025-04-15T15:22:53.027Z</time>
      </trkpt>
      <trkpt lat="44.91123" lon="3.85235">
        <ele>1051.14</ele>
        <time>2025-04-15T15:22:55.427Z</time>
      </trkpt>
      <trkpt lat="44.91102" lon="3.85224">
        <ele>1051.27</ele>
        <time>2025-04-15T15:22:57.831Z</time>
      </trkpt>
      <trkpt lat="44.91077" lon="3.8521">
        <ele>1051.39</ele>
        <time>2025-04-15T15:23:00.239Z</time>
      </trkpt>
      <trkpt lat="44.91048" lon="3.85194">
        <ele>1051.49</ele>
        <time>2025-04-15T15:23:02.652Z</time>
      </trkpt>
      <trkpt lat="44.91023" lon="3.8518">
        <ele>1051.66</ele>
        <time>2025-04-15T15:23:05.069Z</time>
      </trkpt>
      <trkpt lat="44.91015" lon="3.85176">
        <ele>1051.82</ele>
        <time>2025-04-15T15:23:07.488Z</time>
      </trkpt>
      <trkpt lat="44.91011" lon="3.85173">
        <ele>1051.98</ele>
        <time>2025-04-15T15:23:09.907Z</time>
      </trkpt>
      <trkpt lat="44.91008" lon="3.85172">
        <ele>1052.15</ele>
        <time>2025-04-15T15:23:12.327Z</time>
      </trkpt>
      <trkpt lat="44.90993" lon="3.85166">
        <ele>1052.36</ele>
        <time>2025-04-15T15:23:14.749Z</time>
      </trkpt>
      <trkpt lat="44.90985" lon="3.85163">
        <ele>1052.57</ele>
        <time>2025-04-15T15:23:17.173Z</time>
      </trkpt>
      <trkpt lat="44.90976" lon="3.8516">
        <ele>1052.76</ele>
        <time>2025-04-15T15:23:19.598Z</time>
      </trkpt>
      <trkpt lat="44.90967" lon="3.85156">
        <ele>1052.96</ele>
        <time>2025-04-15T15:23:22.024Z</time>
      </trkpt>
      <trkpt lat="44.90963" lon="3.85155">
        <ele>1053.18</ele>
        <time>2025-04-15T15:23:24.451Z</time>
      </trkpt>
      <trkpt lat="44.90959" lon="3.85155">
        <ele>1053.41</ele>
        <time>2025-04-15T15:23:26.879Z</time>
      </trkpt>
      <trkpt lat="44.90945" lon="3.85152">
        <ele>1053.66</ele>
        <time>2025-04-15T15:23:29.309Z</time>
      </trkpt>
      <trkpt lat="44.90932" lon="3.8515">
        <ele>1053.92</ele>
        <time>2025-04-15T15:23:31.741Z</time>
      </trkpt>
      <trkpt lat="44.90917" lon="3.85147">
        <ele>1054.23</ele>
        <time>2025-04-15T15:23:34.176Z</time>
      </trkpt>
      <trkpt lat="44.90905" lon="3.85147">
        <ele>1054.55</ele>
        <time>2025-04-15T15:23:36.612Z</time>
      </trkpt>
      <trkpt lat="44.90883" lon="3.85148">
        <ele>1054.9</ele>
        <time>2025-04-15T15:23:39.052Z</time>
      </trkpt>
      <trkpt lat="44.90857" lon="3.85149">
        <ele>1055.28</ele>
        <time>2025-04-15T15:23:41.496Z</time>
      </trkpt>
      <trkpt lat="44.90852" lon="3.8515">
        <ele>1055.62</ele>
        <time>2025-04-15T15:23:43.941Z</time>
      </trkpt>
      <trkpt lat="44.90834" lon="3.85154">
        <ele>1055.98</ele>
        <time>2025-04-15T15:23:46.389Z</time>
      </trkpt>
      <trkpt lat="44.90814" lon="3.85159">
        <ele>1056.36</ele>
        <time>2025-04-15T15:23:48.840Z</time>
      </trkpt>
      <trkpt lat="44.90812" lon="3.8516">
        <ele>1056.72</ele>
        <time>2025-04-15T15:23:51.291Z</time>
      </trkpt>
      <trkpt lat="44.90804" lon="3.85163">
        <ele>1057.09</ele>
        <time>2025-04-15T15:23:53.744Z</time>
      </trkpt>
      <trkpt lat="44.90795" lon="3.85166">
        <ele>1057.47</ele>
        <time>2025-04-15T15:23:56.198Z</time>
      </trkpt>
      <trkpt lat="44.90791" lon="3.85168">
        <ele>1057.84</ele>
        <time>2025-04-15T15:23:58.653Z</time>
      </trkpt>
      <trkpt lat="44.90778" lon="3.85173">
        <ele>1058.23</ele>
        <time>2025-04-15T15:24:01.110Z</time>
      </trkpt>
      <trkpt lat="44.90774" lon="3.85176">
        <ele>1058.61</ele>
        <time>2025-04-15T15:24:03.568Z</time>
      </trkpt>
      <trkpt lat="44.90761" lon="3.85182">
        <ele>1059</ele>
        <time>2025-04-15T15:24:06.028Z</time>
      </trkpt>
      <trkpt lat="44.90753" lon="3.85187">
        <ele>1059.4</ele>
        <time>2025-04-15T15:24:08.489Z</time>
      </trkpt>
      <trkpt lat="44.90744" lon="3.85192">
        <ele>1059.8</ele>
        <time>2025-04-15T15:24:10.952Z</time>
      </trkpt>
      <trkpt lat="44.90732" lon="3.85199">
        <ele>1060.21</ele>
        <time>2025-04-15T15:24:13.417Z</time>
      </trkpt>
      <trkpt lat="44.90724" lon="3.85203">
        <ele>1060.65</ele>
        <time>2025-04-15T15:24:15.883Z</time>
      </trkpt>
      <trkpt lat="44.90711" lon="3.8521">
        <ele>1061.11</ele>
        <time>2025-04-15T15:24:18.352Z</time>
      </trkpt>
      <trkpt lat="44.90678" lon="3.85229">
        <ele>1061.54</ele>
        <time>2025-04-15T15:24:20.826Z</time>
      </trkpt>
      <trkpt lat="44.90666" lon="3.85235">
        <ele>1061.95</ele>
        <time>2025-04-15T15:24:23.302Z</time>
      </trkpt>
      <trkpt lat="44.90652" lon="3.8524">
        <ele>1062.38</ele>
        <time>2025-04-15T15:24:25.781Z</time>
      </trkpt>
      <trkpt lat="44.90635" lon="3.85246">
        <ele>1062.83</ele>
        <time>2025-04-15T15:24:28.263Z</time>
      </trkpt>
      <trkpt lat="44.90617" lon="3.85253">
        <ele>1063.29</ele>
        <time>2025-04-15T15:24:30.747Z</time>
      </trkpt>
      <trkpt lat="44.90609" lon="3.85255">
        <ele>1063.75</ele>
        <time>2025-04-15T15:24:33.233Z</time>
      </trkpt>
      <trkpt lat="44.90582" lon="3.8526">
        <ele>1064.24</ele>
        <time>2025-04-15T15:24:35.723Z</time>
      </trkpt>
      <trkpt lat="44.90573" lon="3.85262">
        <ele>1064.72</ele>
        <time>2025-04-15T15:24:38.215Z</time>
      </trkpt>
      <trkpt lat="44.9056" lon="3.85262">
        <ele>1065.21</ele>
        <time>2025-04-15T15:24:40.709Z</time>
      </trkpt>
      <trkpt lat="44.90541" lon="3.85261">
        <ele>1065.7</ele>
        <time>2025-04-15T15:24:43.206Z</time>
      </trkpt>
      <trkpt lat="44.90535" lon="3.85255">
        <ele>1066.19</ele>
        <time>2025-04-15T15:24:45.704Z</time>
      </trkpt>
      <trkpt lat="44.90521" lon="3.8524">
        <ele>1066.7</ele>
        <time>2025-04-15T15:24:48.205Z</time>
      </trkpt>
      <trkpt lat="44.90513" lon="3.85231">
        <ele>1067.19</ele>
        <time>2025-04-15T15:24:50.707Z</time>
      </trkpt>
      <trkpt lat="44.90506" lon="3.85228">
        <ele>1067.67</ele>
        <time>2025-04-15T15:24:53.211Z</time>
      </trkpt>
      <trkpt lat="44.90493" lon="3.85223">
        <ele>1068.15</ele>
        <time>2025-04-15T15:24:55.717Z</time>
      </trkpt>
      <trkpt lat="44.9048" lon="3.85218">
        <ele>1068.63</ele>
        <time>2025-04-15T15:24:58.225Z</time>
      </trkpt>
      <trkpt lat="44.90463" lon="3.85211">
        <ele>1069.13</ele>
        <time>2025-04-15T15:25:00.736Z</time>
      </trkpt>
      <trkpt lat="44.90455" lon="3.85208">
        <ele>1069.61</ele>
        <time>2025-04-15T15:25:03.248Z</time>
      </trkpt>
      <trkpt lat="44.90448" lon="3.85205">
        <ele>1070.08</ele>
        <time>2025-04-15T15:25:05.761Z</time>
      </trkpt>
      <trkpt lat="44.90439" lon="3.85196">
        <ele>1070.54</ele>
        <time>2025-04-15T15:25:08.276Z</time>
      </trkpt>
      <trkpt lat="44.90436" lon="3.85185">
        <ele>1070.99</ele>
        <time>2025-04-15T15:25:10.792Z</time>
      </trkpt>
      <trkpt lat="44.90435" lon="3.85179">
        <ele>1071.42</ele>
        <time>2025-04-15T15:25:13.309Z</time>
      </trkpt>
      <trkpt lat="44.90434" lon="3.85173">
        <ele>1071.85</ele>
        <time>2025-04-15T15:25:15.827Z</time>
      </trkpt>
      <trkpt lat="44.90431" lon="3.85149">
        <ele>1072.28</ele>
        <time>2025-04-15T15:25:18.347Z</time>
      </trkpt>
      <trkpt lat="44.90428" lon="3.85126">
        <ele>1072.72</ele>
        <time>2025-04-15T15:25:20.870Z</time>
      </trkpt>
      <trkpt lat="44.90426" lon="3.85114">
        <ele>1073.14</ele>
        <time>2025-04-15T15:25:23.394Z</time>
      </trkpt>
      <trkpt lat="44.90426" lon="3.85108">
        <ele>1073.54</ele>
        <time>2025-04-15T15:25:25.919Z</time>
      </trkpt>
      <trkpt lat="44.90424" lon="3.85097">
        <ele>1073.94</ele>
        <time>2025-04-15T15:25:28.445Z</time>
      </trkpt>
      <trkpt lat="44.90423" lon="3.85085">
        <ele>1074.33</ele>
        <time>2025-04-15T15:25:30.973Z</time>
      </trkpt>
      <trkpt lat="44.90419" lon="3.85061">
        <ele>1074.71</ele>
        <time>2025-04-15T15:25:33.504Z</time>
      </trkpt>
      <trkpt lat="44.90419" lon="3.85055">
        <ele>1075.06</ele>
        <time>2025-04-15T15:25:36.035Z</time>
      </trkpt>
      <trkpt lat="44.90418" lon="3.85049">
        <ele>1075.41</ele>
        <time>2025-04-15T15:25:38.567Z</time>
      </trkpt>
      <trkpt lat="44.90417" lon="3.85043">
        <ele>1075.73</ele>
        <time>2025-04-15T15:25:41.100Z</time>
      </trkpt>
      <trkpt lat="44.90417" lon="3.85043">
        <ele>1076.04</ele>
        <time>2025-04-15T15:25:43.633Z</time>
      </trkpt>
      <trkpt lat="44.90414" lon="3.85037">
        <ele>1076.34</ele>
        <time>2025-04-15T15:25:46.166Z</time>
      </trkpt>
      <trkpt lat="44.90412" lon="3.85032">
        <ele>1076.63</ele>
        <time>2025-04-15T15:25:48.700Z</time>
      </trkpt>
      <trkpt lat="44.9041" lon="3.85027">
        <ele>1076.9</ele>
        <time>2025-04-15T15:25:51.235Z</time>
      </trkpt>
      <trkpt lat="44.90405" lon="3.85016">
        <ele>1077.17</ele>
        <time>2025-04-15T15:25:53.771Z</time>
      </trkpt>
      <trkpt lat="44.90398" lon="3.85">
        <ele>1077.41</ele>
        <time>2025-04-15T15:25:56.309Z</time>
      </trkpt>
      <trkpt lat="44.90393" lon="3.8499">
        <ele>1077.63</ele>
        <time>2025-04-15T15:25:58.849Z</time>
      </trkpt>
      <trkpt lat="44.90388" lon="3.84978">
        <ele>1077.84</ele>
        <time>2025-04-15T15:26:01.390Z</time>
      </trkpt>
      <trkpt lat="44.90377" lon="3.84968">
        <ele>1078.02</ele>
        <time>2025-04-15T15:26:03.933Z</time>
      </trkpt>
      <trkpt lat="44.90357" lon="3.8495">
        <ele>1078.2</ele>
        <time>2025-04-15T15:26:06.480Z</time>
      </trkpt>
      <trkpt lat="44.90354" lon="3.84949">
        <ele>1078.36</ele>
        <time>2025-04-15T15:26:09.028Z</time>
      </trkpt>
      <trkpt lat="44.90346" lon="3.84945">
        <ele>1078.52</ele>
        <time>2025-04-15T15:26:11.577Z</time>
      </trkpt>
      <trkpt lat="44.90333" lon="3.84939">
        <ele>1078.67</ele>
        <time>2025-04-15T15:26:14.128Z</time>
      </trkpt>
      <trkpt lat="44.90328" lon="3.84936">
        <ele>1078.79</ele>
        <time>2025-04-15T15:26:16.680Z</time>
      </trkpt>
      <trkpt lat="44.90311" lon="3.84941">
        <ele>1078.9</ele>
        <time>2025-04-15T15:26:19.235Z</time>
      </trkpt>
      <trkpt lat="44.90289" lon="3.84948">
        <ele>1079.03</ele>
        <time>2025-04-15T15:26:21.794Z</time>
      </trkpt>
      <trkpt lat="44.90281" lon="3.8495">
        <ele>1079.12</ele>
        <time>2025-04-15T15:26:24.354Z</time>
      </trkpt>
      <trkpt lat="44.90263" lon="3.84956">
        <ele>1079.22</ele>
        <time>2025-04-15T15:26:26.917Z</time>
      </trkpt>
      <trkpt lat="44.9025" lon="3.8496">
        <ele>1079.26</ele>
        <time>2025-04-15T15:26:29.482Z</time>
      </trkpt>
      <trkpt lat="44.90236" lon="3.84964">
        <ele>1079.29</ele>
        <time>2025-04-15T15:26:32.049Z</time>
      </trkpt>
      <trkpt lat="44.90229" lon="3.84969">
        <ele>1079.28</ele>
        <time>2025-04-15T15:26:34.618Z</time>
      </trkpt>
      <trkpt lat="44.90209" lon="3.84983">
        <ele>1079.23</ele>
        <time>2025-04-15T15:26:37.190Z</time>
      </trkpt>
      <trkpt lat="44.90206" lon="3.84985">
        <ele>1079.2</ele>
        <time>2025-04-15T15:26:39.763Z</time>
      </trkpt>
      <trkpt lat="44.90187" lon="3.84992">
        <ele>1079.14</ele>
        <time>2025-04-15T15:26:42.339Z</time>
      </trkpt>
      <trkpt lat="44.90165" lon="3.84999">
        <ele>1079.1</ele>
        <time>2025-04-15T15:26:44.918Z</time>
      </trkpt>
      <trkpt lat="44.90162" lon="3.85">
        <ele>1079.04</ele>
        <time>2025-04-15T15:26:47.498Z</time>
      </trkpt>
      <trkpt lat="44.90156" lon="3.85001">
        <ele>1078.96</ele>
        <time>2025-04-15T15:26:50.079Z</time>
      </trkpt>
      <trkpt lat="44.90134" lon="3.85006">
        <ele>1078.88</ele>
        <time>2025-04-15T15:26:52.663Z</time>
      </trkpt>
      <trkpt lat="44.90125" lon="3.85008">
        <ele>1078.79</ele>
        <time>2025-04-15T15:26:55.249Z</time>
      </trkpt>
      <trkpt lat="44.90116" lon="3.8501">
        <ele>1078.66</ele>
        <time>2025-04-15T15:26:57.836Z</time>
      </trkpt>
      <trkpt lat="44.90103" lon="3.85013">
        <ele>1078.52</ele>
        <time>2025-04-15T15:27:00.425Z</time>
      </trkpt>
      <trkpt lat="44.90101" lon="3.85013">
        <ele>1078.38</ele>
        <time>2025-04-15T15:27:03.015Z</time>
      </trkpt>
      <trkpt lat="44.90068" lon="3.85025">
        <ele>1078.2</ele>
        <time>2025-04-15T15:27:05.610Z</time>
      </trkpt>
      <trkpt lat="44.90046" lon="3.85032">
        <ele>1078.02</ele>
        <time>2025-04-15T15:27:08.209Z</time>
      </trkpt>
      <trkpt lat="44.90041" lon="3.85034">
        <ele>1077.86</ele>
        <time>2025-04-15T15:27:10.809Z</time>
      </trkpt>
      <trkpt lat="44.90037" lon="3.85034">
        <ele>1077.7</ele>
        <time>2025-04-15T15:27:13.409Z</time>
      </trkpt>
      <trkpt lat="44.90011" lon="3.85034">
        <ele>1077.51</ele>
        <time>2025-04-15T15:27:16.013Z</time>
      </trkpt>
      <trkpt lat="44.89994" lon="3.85045">
        <ele>1077.35</ele>
        <time>2025-04-15T15:27:18.620Z</time>
      </trkpt>
      <trkpt lat="44.89986" lon="3.85051">
        <ele>1077.18</ele>
        <time>2025-04-15T15:27:21.229Z</time>
      </trkpt>
      <trkpt lat="44.89981" lon="3.85054">
        <ele>1077.01</ele>
        <time>2025-04-15T15:27:23.839Z</time>
      </trkpt>
      <trkpt lat="44.89975" lon="3.85064">
        <ele>1076.84</ele>
        <time>2025-04-15T15:27:26.450Z</time>
      </trkpt>
      <trkpt lat="44.89973" lon="3.85068">
        <ele>1076.69</ele>
        <time>2025-04-15T15:27:29.062Z</time>
      </trkpt>
      <trkpt lat="44.89964" lon="3.85063">
        <ele>1076.55</ele>
        <time>2025-04-15T15:27:31.675Z</time>
      </trkpt>
      <trkpt lat="44.89959" lon="3.8506">
        <ele>1076.41</ele>
        <time>2025-04-15T15:27:34.289Z</time>
      </trkpt>
      <trkpt lat="44.89957" lon="3.85062">
        <ele>1076.28</ele>
        <time>2025-04-15T15:27:36.904Z</time>
      </trkpt>
      <trkpt lat="44.89949" lon="3.85068">
        <ele>1076.14</ele>
        <time>2025-04-15T15:27:39.520Z</time>
      </trkpt>
      <trkpt lat="44.89948" lon="3.85069">
        <ele>1076.02</ele>
        <time>2025-04-15T15:27:42.136Z</time>
      </trkpt>
      <trkpt lat="44.89942" lon="3.85063">
        <ele>1075.91</ele>
        <time>2025-04-15T15:27:44.754Z</time>
      </trkpt>
      <trkpt lat="44.89927" lon="3.85049">
        <ele>1075.81</ele>
        <time>2025-04-15T15:27:47.374Z</time>
      </trkpt>
      <trkpt lat="44.89916" lon="3.85038">
        <ele>1075.73</ele>
        <time>2025-04-15T15:27:49.996Z</time>
      </trkpt>
      <trkpt lat="44.89898" lon="3.8502">
        <ele>1075.67</ele>
        <time>2025-04-15T15:27:52.622Z</time>
      </trkpt>
      <trkpt lat="44.89895" lon="3.85017">
        <ele>1075.59</ele>
        <time>2025-04-15T15:27:55.249Z</time>
      </trkpt>
      <trkpt lat="44.89872" lon="3.84997">
        <ele>1075.55</ele>
        <time>2025-04-15T15:27:57.880Z</time>
      </trkpt>
      <trkpt lat="44.89849" lon="3.84978">
        <ele>1075.52</ele>
        <time>2025-04-15T15:28:00.515Z</time>
      </trkpt>
      <trkpt lat="44.89839" lon="3.84969">
        <ele>1075.48</ele>
        <time>2025-04-15T15:28:03.152Z</time>
      </trkpt>
      <trkpt lat="44.89824" lon="3.84952">
        <ele>1075.46</ele>
        <time>2025-04-15T15:28:05.792Z</time>
      </trkpt>
      <trkpt lat="44.8981" lon="3.84936">
        <ele>1075.42</ele>
        <time>2025-04-15T15:28:08.435Z</time>
      </trkpt>
      <trkpt lat="44.89796" lon="3.8492">
        <ele>1075.38</ele>
        <time>2025-04-15T15:28:11.081Z</time>
      </trkpt>
      <trkpt lat="44.89789" lon="3.84912">
        <ele>1075.36</ele>
        <time>2025-04-15T15:28:13.728Z</time>
      </trkpt>
      <trkpt lat="44.89782" lon="3.84905">
        <ele>1075.35</ele>
        <time>2025-04-15T15:28:16.377Z</time>
      </trkpt>
      <trkpt lat="44.89761" lon="3.84881">
        <ele>1075.36</ele>
        <time>2025-04-15T15:28:19.030Z</time>
      </trkpt>
      <trkpt lat="44.89742" lon="3.84863">
        <ele>1075.37</ele>
        <time>2025-04-15T15:28:21.687Z</time>
      </trkpt>
      <trkpt lat="44.89712" lon="3.84835">
        <ele>1075.43</ele>
        <time>2025-04-15T15:28:24.349Z</time>
      </trkpt>
      <trkpt lat="44.89679" lon="3.84804">
        <ele>1075.47</ele>
        <time>2025-04-15T15:28:27.018Z</time>
      </trkpt>
      <trkpt lat="44.89668" lon="3.84793">
        <ele>1075.53</ele>
        <time>2025-04-15T15:28:29.689Z</time>
      </trkpt>
      <trkpt lat="44.89653" lon="3.84779">
        <ele>1075.6</ele>
        <time>2025-04-15T15:28:32.363Z</time>
      </trkpt>
      <trkpt lat="44.89645" lon="3.84772">
        <ele>1075.67</ele>
        <time>2025-04-15T15:28:35.038Z</time>
      </trkpt>
      <trkpt lat="44.89627" lon="3.84755">
        <ele>1075.74</ele>
        <time>2025-04-15T15:28:37.717Z</time>
      </trkpt>
      <trkpt lat="44.89627" lon="3.84755">
        <ele>1075.83</ele>
        <time>2025-04-15T15:28:40.396Z</time>
      </trkpt>
      <trkpt lat="44.8962" lon="3.84747">
        <ele>1075.92</ele>
        <time>2025-04-15T15:28:43.076Z</time>
      </trkpt>
      <trkpt lat="44.89612" lon="3.8474">
        <ele>1076.02</ele>
        <time>2025-04-15T15:28:45.758Z</time>
      </trkpt>
      <trkpt lat="44.89591" lon="3.84717">
        <ele>1076.11</ele>
        <time>2025-04-15T15:28:48.444Z</time>
      </trkpt>
      <trkpt lat="44.89583" lon="3.8471">
        <ele>1076.23</ele>
        <time>2025-04-15T15:28:51.132Z</time>
      </trkpt>
      <trkpt lat="44.89576" lon="3.84702">
        <ele>1076.36</ele>
        <time>2025-04-15T15:28:53.821Z</time>
      </trkpt>
      <trkpt lat="44.89573" lon="3.84699">
        <ele>1076.52</ele>
        <time>2025-04-15T15:28:56.511Z</time>
      </trkpt>
      <trkpt lat="44.89558" lon="3.84684">
        <ele>1076.67</ele>
        <time>2025-04-15T15:28:59.204Z</time>
      </trkpt>
      <trkpt lat="44.89543" lon="3.84668">
        <ele>1076.85</ele>
        <time>2025-04-15T15:29:01.900Z</time>
      </trkpt>
      <trkpt lat="44.89544" lon="3.84666">
        <ele>1077.06</ele>
        <time>2025-04-15T15:29:04.596Z</time>
      </trkpt>
      <trkpt lat="44.89564" lon="3.84616">
        <ele>1077.28</ele>
        <time>2025-04-15T15:29:07.298Z</time>
      </trkpt>
      <trkpt lat="44.89565" lon="3.84604">
        <ele>1077.53</ele>
        <time>2025-04-15T15:29:10.002Z</time>
      </trkpt>
      <trkpt lat="44.89567" lon="3.84581">
        <ele>1077.8</ele>
        <time>2025-04-15T15:29:12.708Z</time>
      </trkpt>
      <trkpt lat="44.89566" lon="3.84554">
        <ele>1078.13</ele>
        <time>2025-04-15T15:29:15.418Z</time>
      </trkpt>
      <trkpt lat="44.89565" lon="3.84522">
        <ele>1078.46</ele>
        <time>2025-04-15T15:29:18.131Z</time>
      </trkpt>
      <trkpt lat="44.89564" lon="3.84503">
        <ele>1078.76</ele>
        <time>2025-04-15T15:29:20.846Z</time>
      </trkpt>
      <trkpt lat="44.89563" lon="3.84484">
        <ele>1079.08</ele>
        <time>2025-04-15T15:29:23.563Z</time>
      </trkpt>
      <trkpt lat="44.89563" lon="3.84475">
        <ele>1079.4</ele>
        <time>2025-04-15T15:29:26.281Z</time>
      </trkpt>
      <trkpt lat="44.89565" lon="3.84466">
        <ele>1079.75</ele>
        <time>2025-04-15T15:29:29.001Z</time>
      </trkpt>
      <trkpt lat="44.89568" lon="3.84454">
        <ele>1080.11</ele>
        <time>2025-04-15T15:29:31.722Z</time>
      </trkpt>
      <trkpt lat="44.8957" lon="3.84441">
        <ele>1080.48</ele>
        <time>2025-04-15T15:29:34.444Z</time>
      </trkpt>
      <trkpt lat="44.89574" lon="3.84423">
        <ele>1080.87</ele>
        <time>2025-04-15T15:29:37.169Z</time>
      </trkpt>
      <trkpt lat="44.89577" lon="3.84411">
        <ele>1081.27</ele>
        <time>2025-04-15T15:29:39.895Z</time>
      </trkpt>
      <trkpt lat="44.89584" lon="3.84375">
        <ele>1081.7</ele>
        <time>2025-04-15T15:29:42.625Z</time>
      </trkpt>
      <trkpt lat="44.89585" lon="3.84371">
        <ele>1082.1</ele>
        <time>2025-04-15T15:29:45.356Z</time>
      </trkpt>
      <trkpt lat="44.89585" lon="3.84344">
        <ele>1082.51</ele>
        <time>2025-04-15T15:29:48.090Z</time>
      </trkpt>
      <trkpt lat="44.89584" lon="3.84299">
        <ele>1082.98</ele>
        <time>2025-04-15T15:29:50.829Z</time>
      </trkpt>
      <trkpt lat="44.89583" lon="3.84249">
        <ele>1083.47</ele>
        <time>2025-04-15T15:29:53.574Z</time>
      </trkpt>
      <trkpt lat="44.89583" lon="3.84244">
        <ele>1083.86</ele>
        <time>2025-04-15T15:29:56.319Z</time>
      </trkpt>
      <trkpt lat="44.89585" lon="3.84231">
        <ele>1084.24</ele>
        <time>2025-04-15T15:29:59.066Z</time>
      </trkpt>
      <trkpt lat="44.89586" lon="3.84223">
        <ele>1084.61</ele>
        <time>2025-04-15T15:30:01.814Z</time>
      </trkpt>
      <trkpt lat="44.89589" lon="3.84213">
        <ele>1084.98</ele>
        <time>2025-04-15T15:30:04.563Z</time>
      </trkpt>
      <trkpt lat="44.89595" lon="3.84195">
        <ele>1085.34</ele>
        <time>2025-04-15T15:30:07.314Z</time>
      </trkpt>
      <trkpt lat="44.89598" lon="3.84186">
        <ele>1085.66</ele>
        <time>2025-04-15T15:30:10.066Z</time>
      </trkpt>
      <trkpt lat="44.89602" lon="3.8418">
        <ele>1085.96</ele>
        <time>2025-04-15T15:30:12.819Z</time>
      </trkpt>
      <trkpt lat="44.89615" lon="3.84163">
        <ele>1086.24</ele>
        <time>2025-04-15T15:30:15.575Z</time>
      </trkpt>
      <trkpt lat="44.89616" lon="3.84162">
        <ele>1086.53</ele>
        <time>2025-04-15T15:30:18.331Z</time>
      </trkpt>
      <trkpt lat="44.89639" lon="3.84145">
        <ele>1086.77</ele>
        <time>2025-04-15T15:30:21.091Z</time>
      </trkpt>
      <trkpt lat="44.89652" lon="3.84136">
        <ele>1087.04</ele>
        <time>2025-04-15T15:30:23.854Z</time>
      </trkpt>
      <trkpt lat="44.89659" lon="3.84132">
        <ele>1087.33</ele>
        <time>2025-04-15T15:30:26.618Z</time>
      </trkpt>
      <trkpt lat="44.89676" lon="3.84124">
        <ele>1087.64</ele>
        <time>2025-04-15T15:30:29.385Z</time>
      </trkpt>
      <trkpt lat="44.89684" lon="3.8412">
        <ele>1087.9</ele>
        <time>2025-04-15T15:30:32.153Z</time>
      </trkpt>
      <trkpt lat="44.89693" lon="3.84116">
        <ele>1088.14</ele>
        <time>2025-04-15T15:30:34.923Z</time>
      </trkpt>
      <trkpt lat="44.89706" lon="3.84109">
        <ele>1088.38</ele>
        <time>2025-04-15T15:30:37.695Z</time>
      </trkpt>
      <trkpt lat="44.89714" lon="3.84105">
        <ele>1088.6</ele>
        <time>2025-04-15T15:30:40.468Z</time>
      </trkpt>
      <trkpt lat="44.89735" lon="3.84094">
        <ele>1088.83</ele>
        <time>2025-04-15T15:30:43.245Z</time>
      </trkpt>
      <trkpt lat="44.89756" lon="3.84084">
        <ele>1089.04</ele>
        <time>2025-04-15T15:30:46.025Z</time>
      </trkpt>
      <trkpt lat="44.89773" lon="3.84075">
        <ele>1089.22</ele>
        <time>2025-04-15T15:30:48.808Z</time>
      </trkpt>
      <trkpt lat="44.89827" lon="3.84048">
        <ele>1089.39</ele>
        <time>2025-04-15T15:30:51.601Z</time>
      </trkpt>
      <trkpt lat="44.89848" lon="3.84037">
        <ele>1089.58</ele>
        <time>2025-04-15T15:30:54.397Z</time>
      </trkpt>
      <trkpt lat="44.89857" lon="3.84033">
        <ele>1089.76</ele>
        <time>2025-04-15T15:30:57.195Z</time>
      </trkpt>
      <trkpt lat="44.89865" lon="3.84029">
        <ele>1089.93</ele>
        <time>2025-04-15T15:30:59.994Z</time>
      </trkpt>
      <trkpt lat="44.89899" lon="3.84012">
        <ele>1090.16</ele>
        <time>2025-04-15T15:31:02.799Z</time>
      </trkpt>
      <trkpt lat="44.89903" lon="3.84009">
        <ele>1090.35</ele>
        <time>2025-04-15T15:31:05.604Z</time>
      </trkpt>
      <trkpt lat="44.89928" lon="3.83988">
        <ele>1090.53</ele>
        <time>2025-04-15T15:31:08.414Z</time>
      </trkpt>
      <trkpt lat="44.89929" lon="3.83986">
        <ele>1090.71</ele>
        <time>2025-04-15T15:31:11.224Z</time>
      </trkpt>
      <trkpt lat="44.89951" lon="3.83956">
        <ele>1090.9</ele>
        <time>2025-04-15T15:31:14.039Z</time>
      </trkpt>
      <trkpt lat="44.89955" lon="3.83943">
        <ele>1091.09</ele>
        <time>2025-04-15T15:31:16.856Z</time>
      </trkpt>
      <trkpt lat="44.89966" lon="3.83908">
        <ele>1091.28</ele>
        <time>2025-04-15T15:31:19.677Z</time>
      </trkpt>
      <trkpt lat="44.89976" lon="3.83879">
        <ele>1091.47</ele>
        <time>2025-04-15T15:31:22.502Z</time>
      </trkpt>
      <trkpt lat="44.89985" lon="3.8385">
        <ele>1091.67</ele>
        <time>2025-04-15T15:31:25.330Z</time>
      </trkpt>
      <trkpt lat="44.8999" lon="3.83833">
        <ele>1091.87</ele>
        <time>2025-04-15T15:31:28.161Z</time>
      </trkpt>
      <trkpt lat="44.89996" lon="3.83816">
        <ele>1092.08</ele>
        <time>2025-04-15T15:31:30.994Z</time>
      </trkpt>
      <trkpt lat="44.90011" lon="3.8377">
        <ele>1092.3</ele>
        <time>2025-04-15T15:31:33.833Z</time>
      </trkpt>
      <trkpt lat="44.90018" lon="3.83746">
        <ele>1092.54</ele>
        <time>2025-04-15T15:31:36.674Z</time>
      </trkpt>
      <trkpt lat="44.90021" lon="3.83737">
        <ele>1092.78</ele>
        <time>2025-04-15T15:31:39.517Z</time>
      </trkpt>
      <trkpt lat="44.90022" lon="3.83735">
        <ele>1093.01</ele>
        <time>2025-04-15T15:31:42.360Z</time>
      </trkpt>
      <trkpt lat="44.90041" lon="3.83692">
        <ele>1093.31</ele>
        <time>2025-04-15T15:31:45.209Z</time>
      </trkpt>
      <trkpt lat="44.90046" lon="3.83682">
        <ele>1093.58</ele>
        <time>2025-04-15T15:31:48.059Z</time>
      </trkpt>
      <trkpt lat="44.90051" lon="3.83671">
        <ele>1093.86</ele>
        <time>2025-04-15T15:31:50.911Z</time>
      </trkpt>
      <trkpt lat="44.90056" lon="3.8366">
        <ele>1094.14</ele>
        <time>2025-04-15T15:31:53.764Z</time>
      </trkpt>
      <trkpt lat="44.9006" lon="3.8365">
        <ele>1094.42</ele>
        <time>2025-04-15T15:31:56.618Z</time>
      </trkpt>
      <trkpt lat="44.9008" lon="3.83606">
        <ele>1094.76</ele>
        <time>2025-04-15T15:31:59.478Z</time>
      </trkpt>
      <trkpt lat="44.90083" lon="3.83588">
        <ele>1095.03</ele>
        <time>2025-04-15T15:32:02.340Z</time>
      </trkpt>
      <trkpt lat="44.90088" lon="3.83557">
        <ele>1095.34</ele>
        <time>2025-04-15T15:32:05.206Z</time>
      </trkpt>
      <trkpt lat="44.90092" lon="3.83535">
        <ele>1095.62</ele>
        <time>2025-04-15T15:32:08.075Z</time>
      </trkpt>
      <trkpt lat="44.90094" lon="3.83501">
        <ele>1095.94</ele>
        <time>2025-04-15T15:32:10.947Z</time>
      </trkpt>
      <trkpt lat="44.90096" lon="3.83482">
        <ele>1096.25</ele>
        <time>2025-04-15T15:32:13.822Z</time>
      </trkpt>
      <trkpt lat="44.90097" lon="3.8347">
        <ele>1096.56</ele>
        <time>2025-04-15T15:32:16.698Z</time>
      </trkpt>
      <trkpt lat="44.90097" lon="3.83457">
        <ele>1096.88</ele>
        <time>2025-04-15T15:32:19.575Z</time>
      </trkpt>
      <trkpt lat="44.90099" lon="3.83438">
        <ele>1097.17</ele>
        <time>2025-04-15T15:32:22.455Z</time>
      </trkpt>
      <trkpt lat="44.90102" lon="3.83388">
        <ele>1097.47</ele>
        <time>2025-04-15T15:32:25.340Z</time>
      </trkpt>
      <trkpt lat="44.90103" lon="3.83375">
        <ele>1097.77</ele>
        <time>2025-04-15T15:32:28.227Z</time>
      </trkpt>
      <trkpt lat="44.90106" lon="3.83363">
        <ele>1098.08</ele>
        <time>2025-04-15T15:32:31.115Z</time>
      </trkpt>
      <trkpt lat="44.90108" lon="3.83354">
        <ele>1098.39</ele>
        <time>2025-04-15T15:32:34.004Z</time>
      </trkpt>
      <trkpt lat="44.90112" lon="3.83346">
        <ele>1098.7</ele>
        <time>2025-04-15T15:32:36.894Z</time>
      </trkpt>
      <trkpt lat="44.90118" lon="3.83333">
        <ele>1099.01</ele>
        <time>2025-04-15T15:32:39.786Z</time>
      </trkpt>
      <trkpt lat="44.90123" lon="3.83327">
        <ele>1099.33</ele>
        <time>2025-04-15T15:32:42.679Z</time>
      </trkpt>
      <trkpt lat="44.90133" lon="3.83314">
        <ele>1099.67</ele>
        <time>2025-04-15T15:32:45.574Z</time>
      </trkpt>
      <trkpt lat="44.90164" lon="3.83276">
        <ele>1100.03</ele>
        <time>2025-04-15T15:32:48.476Z</time>
      </trkpt>
      <trkpt lat="44.90166" lon="3.83264">
        <ele>1100.4</ele>
        <time>2025-04-15T15:32:51.379Z</time>
      </trkpt>
      <trkpt lat="44.9017" lon="3.83246">
        <ele>1100.8</ele>
        <time>2025-04-15T15:32:54.285Z</time>
      </trkpt>
      <trkpt lat="44.90174" lon="3.83226">
        <ele>1101.22</ele>
        <time>2025-04-15T15:32:57.193Z</time>
      </trkpt>
      <trkpt lat="44.90174" lon="3.83226">
        <ele>1101.62</ele>
        <time>2025-04-15T15:33:00.101Z</time>
      </trkpt>
      <trkpt lat="44.90174" lon="3.83226">
        <ele>1102.04</ele>
        <time>2025-04-15T15:33:03.009Z</time>
      </trkpt>
      <trkpt lat="44.90174" lon="3.83226">
        <ele>1102.48</ele>
        <time>2025-04-15T15:33:05.917Z</time>
      </trkpt>
      <trkpt lat="44.90175" lon="3.83226">
        <ele>1102.94</ele>
        <time>2025-04-15T15:33:08.825Z</time>
      </trkpt>
      <trkpt lat="44.90179" lon="3.83184">
        <ele>1103.48</ele>
        <time>2025-04-15T15:33:11.738Z</time>
      </trkpt>
      <trkpt lat="44.90184" lon="3.83142">
        <ele>1103.97</ele>
        <time>2025-04-15T15:33:14.656Z</time>
      </trkpt>
      <trkpt lat="44.90188" lon="3.83099">
        <ele>1104.46</ele>
        <time>2025-04-15T15:33:17.579Z</time>
      </trkpt>
      <trkpt lat="44.90193" lon="3.83057">
        <ele>1105.04</ele>
        <time>2025-04-15T15:33:20.506Z</time>
      </trkpt>
      <trkpt lat="44.90197" lon="3.83015">
        <ele>1105.62</ele>
        <time>2025-04-15T15:33:23.438Z</time>
      </trkpt>
      <trkpt lat="44.90201" lon="3.82973">
        <ele>1106.26</ele>
        <time>2025-04-15T15:33:26.375Z</time>
      </trkpt>
      <trkpt lat="44.90204" lon="3.82934">
        <ele>1106.94</ele>
        <time>2025-04-15T15:33:29.317Z</time>
      </trkpt>
      <trkpt lat="44.90201" lon="3.829">
        <ele>1107.68</ele>
        <time>2025-04-15T15:33:32.262Z</time>
      </trkpt>
      <trkpt lat="44.90199" lon="3.82867">
        <ele>1108.41</ele>
        <time>2025-04-15T15:33:35.211Z</time>
      </trkpt>
      <trkpt lat="44.90197" lon="3.82834">
        <ele>1109.12</ele>
        <time>2025-04-15T15:33:38.164Z</time>
      </trkpt>
      <trkpt lat="44.90199" lon="3.82798">
        <ele>1109.88</ele>
        <time>2025-04-15T15:33:41.121Z</time>
      </trkpt>
      <trkpt lat="44.90202" lon="3.82761">
        <ele>1110.73</ele>
        <time>2025-04-15T15:33:44.082Z</time>
      </trkpt>
      <trkpt lat="44.90204" lon="3.82725">
        <ele>1111.57</ele>
        <time>2025-04-15T15:33:47.047Z</time>
      </trkpt>
      <trkpt lat="44.90207" lon="3.82688">
        <ele>1112.39</ele>
        <time>2025-04-15T15:33:50.017Z</time>
      </trkpt>
      <trkpt lat="44.90209" lon="3.82653">
        <ele>1113.27</ele>
        <time>2025-04-15T15:33:52.991Z</time>
      </trkpt>
      <trkpt lat="44.90211" lon="3.82616">
        <ele>1114.19</ele>
        <time>2025-04-15T15:33:55.969Z</time>
      </trkpt>
      <trkpt lat="44.90214" lon="3.8258">
        <ele>1115.14</ele>
        <time>2025-04-15T15:33:58.951Z</time>
      </trkpt>
      <trkpt lat="44.90217" lon="3.82544">
        <ele>1116.16</ele>
        <time>2025-04-15T15:34:01.937Z</time>
      </trkpt>
      <trkpt lat="44.90219" lon="3.82508">
        <ele>1117.18</ele>
        <time>2025-04-15T15:34:04.927Z</time>
      </trkpt>
      <trkpt lat="44.90222" lon="3.82472">
        <ele>1118.24</ele>
        <time>2025-04-15T15:34:07.921Z</time>
      </trkpt>
      <trkpt lat="44.90226" lon="3.82438">
        <ele>1119.27</ele>
        <time>2025-04-15T15:34:10.919Z</time>
      </trkpt>
      <trkpt lat="44.90229" lon="3.82403">
        <ele>1120.34</ele>
        <time>2025-04-15T15:34:13.921Z</time>
      </trkpt>
      <trkpt lat="44.90233" lon="3.82368">
        <ele>1121.41</ele>
        <time>2025-04-15T15:34:16.927Z</time>
      </trkpt>
      <trkpt lat="44.90237" lon="3.82334">
        <ele>1122.5</ele>
        <time>2025-04-15T15:34:19.937Z</time>
      </trkpt>
      <trkpt lat="44.90242" lon="3.82302">
        <ele>1123.63</ele>
        <time>2025-04-15T15:34:22.951Z</time>
      </trkpt>
      <trkpt lat="44.90226" lon="3.82263">
        <ele>1124.8</ele>
        <time>2025-04-15T15:34:25.970Z</time>
      </trkpt>
      <trkpt lat="44.90211" lon="3.82225">
        <ele>1126.07</ele>
        <time>2025-04-15T15:34:28.994Z</time>
      </trkpt>
      <trkpt lat="44.90195" lon="3.82187">
        <ele>1127.31</ele>
        <time>2025-04-15T15:34:32.023Z</time>
      </trkpt>
      <trkpt lat="44.90179" lon="3.82149">
        <ele>1128.58</ele>
        <time>2025-04-15T15:34:35.057Z</time>
      </trkpt>
      <trkpt lat="44.90164" lon="3.82111">
        <ele>1129.99</ele>
        <time>2025-04-15T15:34:38.096Z</time>
      </trkpt>
      <trkpt lat="44.90164" lon="3.82111">
        <ele>1131.25</ele>
        <time>2025-04-15T15:34:41.135Z</time>
      </trkpt>
      <trkpt lat="44.90155" lon="3.82088">
        <ele>1132.63</ele>
        <time>2025-04-15T15:34:44.177Z</time>
      </trkpt>
      <trkpt lat="44.90147" lon="3.82066">
        <ele>1133.97</ele>
        <time>2025-04-15T15:34:47.222Z</time>
      </trkpt>
      <trkpt lat="44.90138" lon="3.82039">
        <ele>1135.26</ele>
        <time>2025-04-15T15:34:50.270Z</time>
      </trkpt>
      <trkpt lat="44.90128" lon="3.82013">
        <ele>1136.55</ele>
        <time>2025-04-15T15:34:53.322Z</time>
      </trkpt>
      <trkpt lat="44.90112" lon="3.8198">
        <ele>1137.91</ele>
        <time>2025-04-15T15:34:56.378Z</time>
      </trkpt>
      <trkpt lat="44.90096" lon="3.81947">
        <ele>1139.34</ele>
        <time>2025-04-15T15:34:59.439Z</time>
      </trkpt>
      <trkpt lat="44.9008" lon="3.81913">
        <ele>1140.77</ele>
        <time>2025-04-15T15:35:02.504Z</time>
      </trkpt>
      <trkpt lat="44.90068" lon="3.81894">
        <ele>1142.23</ele>
        <time>2025-04-15T15:35:05.572Z</time>
      </trkpt>
      <trkpt lat="44.90055" lon="3.81875">
        <ele>1143.72</ele>
        <time>2025-04-15T15:35:08.643Z</time>
      </trkpt>
      <trkpt lat="44.90056" lon="3.81875">
        <ele>1145.19</ele>
        <time>2025-04-15T15:35:11.714Z</time>
      </trkpt>
      <trkpt lat="44.90027" lon="3.81857">
        <ele>1146.75</ele>
        <time>2025-04-15T15:35:14.790Z</time>
      </trkpt>
      <trkpt lat="44.89999" lon="3.8184">
        <ele>1148.29</ele>
        <time>2025-04-15T15:35:17.871Z</time>
      </trkpt>
      <trkpt lat="44.89971" lon="3.81822">
        <ele>1149.85</ele>
        <time>2025-04-15T15:35:20.957Z</time>
      </trkpt>
      <trkpt lat="44.89943" lon="3.81805">
        <ele>1151.45</ele>
        <time>2025-04-15T15:35:24.048Z</time>
      </trkpt>
      <trkpt lat="44.89926" lon="3.81786">
        <ele>1153.08</ele>
        <time>2025-04-15T15:35:27.142Z</time>
      </trkpt>
      <trkpt lat="44.8991" lon="3.81767">
        <ele>1154.74</ele>
        <time>2025-04-15T15:35:30.240Z</time>
      </trkpt>
      <trkpt lat="44.8989" lon="3.81738">
        <ele>1156.41</ele>
        <time>2025-04-15T15:35:33.342Z</time>
      </trkpt>
      <trkpt lat="44.89871" lon="3.81708">
        <ele>1158.06</ele>
        <time>2025-04-15T15:35:36.449Z</time>
      </trkpt>
      <trkpt lat="44.89855" lon="3.81678">
        <ele>1159.73</ele>
        <time>2025-04-15T15:35:39.560Z</time>
      </trkpt>
      <trkpt lat="44.8984" lon="3.81653">
        <ele>1161.43</ele>
        <time>2025-04-15T15:35:42.675Z</time>
      </trkpt>
      <trkpt lat="44.89831" lon="3.81628">
        <ele>1163.13</ele>
        <time>2025-04-15T15:35:45.793Z</time>
      </trkpt>
      <trkpt lat="44.89822" lon="3.81604">
        <ele>1164.82</ele>
        <time>2025-04-15T15:35:48.914Z</time>
      </trkpt>
      <trkpt lat="44.89813" lon="3.81562">
        <ele>1166.51</ele>
        <time>2025-04-15T15:35:52.040Z</time>
      </trkpt>
      <trkpt lat="44.89805" lon="3.81519">
        <ele>1168.19</ele>
        <time>2025-04-15T15:35:55.171Z</time>
      </trkpt>
      <trkpt lat="44.89797" lon="3.81476">
        <ele>1169.79</ele>
        <time>2025-04-15T15:35:58.307Z</time>
      </trkpt>
      <trkpt lat="44.89789" lon="3.81433">
        <ele>1171.31</ele>
        <time>2025-04-15T15:36:01.448Z</time>
      </trkpt>
      <trkpt lat="44.89781" lon="3.81391">
        <ele>1172.8</ele>
        <time>2025-04-15T15:36:04.594Z</time>
      </trkpt>
      <trkpt lat="44.89777" lon="3.8136">
        <ele>1174.25</ele>
        <time>2025-04-15T15:36:07.744Z</time>
      </trkpt>
      <trkpt lat="44.89774" lon="3.8133">
        <ele>1175.71</ele>
        <time>2025-04-15T15:36:10.897Z</time>
      </trkpt>
      <trkpt lat="44.8977" lon="3.813">
        <ele>1177.18</ele>
        <time>2025-04-15T15:36:14.054Z</time>
      </trkpt>
      <trkpt lat="44.8977" lon="3.813">
        <ele>1178.59</ele>
        <time>2025-04-15T15:36:17.211Z</time>
      </trkpt>
      <trkpt lat="44.89768" lon="3.81264">
        <ele>1180.03</ele>
        <time>2025-04-15T15:36:20.372Z</time>
      </trkpt>
      <trkpt lat="44.89765" lon="3.81228">
        <ele>1181.44</ele>
        <time>2025-04-15T15:36:23.537Z</time>
      </trkpt>
      <trkpt lat="44.89762" lon="3.81192">
        <ele>1182.83</ele>
        <time>2025-04-15T15:36:26.706Z</time>
      </trkpt>
      <trkpt lat="44.8976" lon="3.81156">
        <ele>1184.18</ele>
        <time>2025-04-15T15:36:29.879Z</time>
      </trkpt>
      <trkpt lat="44.89757" lon="3.8112">
        <ele>1185.53</ele>
        <time>2025-04-15T15:36:33.056Z</time>
      </trkpt>
      <trkpt lat="44.89755" lon="3.81088">
        <ele>1186.77</ele>
        <time>2025-04-15T15:36:36.237Z</time>
      </trkpt>
      <trkpt lat="44.89748" lon="3.81052">
        <ele>1188.08</ele>
        <time>2025-04-15T15:36:39.422Z</time>
      </trkpt>
      <trkpt lat="44.89741" lon="3.81025">
        <ele>1189.33</ele>
        <time>2025-04-15T15:36:42.611Z</time>
      </trkpt>
      <trkpt lat="44.89732" lon="3.80997">
        <ele>1190.5</ele>
        <time>2025-04-15T15:36:45.803Z</time>
      </trkpt>
      <trkpt lat="44.89723" lon="3.80969">
        <ele>1191.64</ele>
        <time>2025-04-15T15:36:48.998Z</time>
      </trkpt>
      <trkpt lat="44.89712" lon="3.80928">
        <ele>1192.7</ele>
        <time>2025-04-15T15:36:52.198Z</time>
      </trkpt>
      <trkpt lat="44.89701" lon="3.80888">
        <ele>1193.7</ele>
        <time>2025-04-15T15:36:55.403Z</time>
      </trkpt>
      <trkpt lat="44.897" lon="3.80852">
        <ele>1194.66</ele>
        <time>2025-04-15T15:36:58.612Z</time>
      </trkpt>
      <trkpt lat="44.89698" lon="3.80816">
        <ele>1195.58</ele>
        <time>2025-04-15T15:37:01.826Z</time>
      </trkpt>
      <trkpt lat="44.897" lon="3.80776">
        <ele>1196.39</ele>
        <time>2025-04-15T15:37:05.044Z</time>
      </trkpt>
      <trkpt lat="44.89701" lon="3.80736">
        <ele>1197.22</ele>
        <time>2025-04-15T15:37:08.267Z</time>
      </trkpt>
      <trkpt lat="44.89699" lon="3.80704">
        <ele>1198.06</ele>
        <time>2025-04-15T15:37:11.493Z</time>
      </trkpt>
      <trkpt lat="44.89689" lon="3.80677">
        <ele>1198.82</ele>
        <time>2025-04-15T15:37:14.723Z</time>
      </trkpt>
      <trkpt lat="44.8967" lon="3.80656">
        <ele>1199.49</ele>
        <time>2025-04-15T15:37:17.957Z</time>
      </trkpt>
      <trkpt lat="44.89652" lon="3.80634">
        <ele>1200.14</ele>
        <time>2025-04-15T15:37:21.194Z</time>
      </trkpt>
      <trkpt lat="44.89634" lon="3.80612">
        <ele>1200.8</ele>
        <time>2025-04-15T15:37:24.435Z</time>
      </trkpt>
      <trkpt lat="44.89618" lon="3.80581">
        <ele>1201.42</ele>
        <time>2025-04-15T15:37:27.681Z</time>
      </trkpt>
      <trkpt lat="44.89607" lon="3.80543">
        <ele>1201.95</ele>
        <time>2025-04-15T15:37:30.931Z</time>
      </trkpt>
      <trkpt lat="44.89607" lon="3.80543">
        <ele>1202.47</ele>
        <time>2025-04-15T15:37:34.181Z</time>
      </trkpt>
      <trkpt lat="44.8961" lon="3.80521">
        <ele>1202.97</ele>
        <time>2025-04-15T15:37:37.434Z</time>
      </trkpt>
      <trkpt lat="44.89625" lon="3.80531">
        <ele>1203.43</ele>
        <time>2025-04-15T15:37:40.690Z</time>
      </trkpt>
      <trkpt lat="44.89654" lon="3.80549">
        <ele>1203.89</ele>
        <time>2025-04-15T15:37:43.951Z</time>
      </trkpt>
      <trkpt lat="44.8968" lon="3.80559">
        <ele>1204.31</ele>
        <time>2025-04-15T15:37:47.216Z</time>
      </trkpt>
      <trkpt lat="44.89706" lon="3.8057">
        <ele>1204.7</ele>
        <time>2025-04-15T15:37:50.485Z</time>
      </trkpt>
      <trkpt lat="44.89733" lon="3.8058">
        <ele>1205.05</ele>
        <time>2025-04-15T15:37:53.759Z</time>
      </trkpt>
      <trkpt lat="44.89759" lon="3.80591">
        <ele>1205.46</ele>
        <time>2025-04-15T15:37:57.037Z</time>
      </trkpt>
      <trkpt lat="44.89785" lon="3.80601">
        <ele>1205.91</ele>
        <time>2025-04-15T15:38:00.319Z</time>
      </trkpt>
      <trkpt lat="44.89811" lon="3.80612">
        <ele>1206.29</ele>
        <time>2025-04-15T15:38:03.606Z</time>
      </trkpt>
      <trkpt lat="44.89841" lon="3.80623">
        <ele>1206.68</ele>
        <time>2025-04-15T15:38:06.898Z</time>
      </trkpt>
      <trkpt lat="44.8987" lon="3.80634">
        <ele>1207.06</ele>
        <time>2025-04-15T15:38:10.195Z</time>
      </trkpt>
      <trkpt lat="44.899" lon="3.80645">
        <ele>1207.44</ele>
        <time>2025-04-15T15:38:13.496Z</time>
      </trkpt>
      <trkpt lat="44.8993" lon="3.80656">
        <ele>1207.75</ele>
        <time>2025-04-15T15:38:16.802Z</time>
      </trkpt>
      <trkpt lat="44.89959" lon="3.80667">
        <ele>1208.12</ele>
        <time>2025-04-15T15:38:20.113Z</time>
      </trkpt>
      <trkpt lat="44.89989" lon="3.80678">
        <ele>1208.57</ele>
        <time>2025-04-15T15:38:23.429Z</time>
      </trkpt>
      <trkpt lat="44.90019" lon="3.80689">
        <ele>1209.06</ele>
        <time>2025-04-15T15:38:26.750Z</time>
      </trkpt>
      <trkpt lat="44.90037" lon="3.807">
        <ele>1209.54</ele>
        <time>2025-04-15T15:38:30.074Z</time>
      </trkpt>
      <trkpt lat="44.90054" lon="3.80711">
        <ele>1209.97</ele>
        <time>2025-04-15T15:38:33.401Z</time>
      </trkpt>
      <trkpt lat="44.90077" lon="3.80734">
        <ele>1210.32</ele>
        <time>2025-04-15T15:38:36.733Z</time>
      </trkpt>
      <trkpt lat="44.90099" lon="3.80758">
        <ele>1210.63</ele>
        <time>2025-04-15T15:38:40.069Z</time>
      </trkpt>
      <trkpt lat="44.9012" lon="3.80768">
        <ele>1211.03</ele>
        <time>2025-04-15T15:38:43.409Z</time>
      </trkpt>
      <trkpt lat="44.9014" lon="3.80779">
        <ele>1211.4</ele>
        <time>2025-04-15T15:38:46.752Z</time>
      </trkpt>
      <trkpt lat="44.90161" lon="3.80789">
        <ele>1211.79</ele>
        <time>2025-04-15T15:38:50.099Z</time>
      </trkpt>
      <trkpt lat="44.90185" lon="3.80793">
        <ele>1212.22</ele>
        <time>2025-04-15T15:38:53.450Z</time>
      </trkpt>
      <trkpt lat="44.9021" lon="3.80798">
        <ele>1212.66</ele>
        <time>2025-04-15T15:38:56.805Z</time>
      </trkpt>
      <trkpt lat="44.90233" lon="3.80794">
        <ele>1213.14</ele>
        <time>2025-04-15T15:39:00.163Z</time>
      </trkpt>
      <trkpt lat="44.90256" lon="3.8079">
        <ele>1213.56</ele>
        <time>2025-04-15T15:39:03.525Z</time>
      </trkpt>
      <trkpt lat="44.9028" lon="3.80787">
        <ele>1213.91</ele>
        <time>2025-04-15T15:39:06.891Z</time>
      </trkpt>
      <trkpt lat="44.90306" lon="3.80785">
        <ele>1214.26</ele>
        <time>2025-04-15T15:39:10.261Z</time>
      </trkpt>
      <trkpt lat="44.90332" lon="3.80783">
        <ele>1214.65</ele>
        <time>2025-04-15T15:39:13.635Z</time>
      </trkpt>
      <trkpt lat="44.90362" lon="3.80771">
        <ele>1215.09</ele>
        <time>2025-04-15T15:39:17.014Z</time>
      </trkpt>
      <trkpt lat="44.90392" lon="3.8076">
        <ele>1215.54</ele>
        <time>2025-04-15T15:39:20.398Z</time>
      </trkpt>
      <trkpt lat="44.90422" lon="3.80748">
        <ele>1216.09</ele>
        <time>2025-04-15T15:39:23.787Z</time>
      </trkpt>
      <trkpt lat="44.90452" lon="3.80737">
        <ele>1216.69</ele>
        <time>2025-04-15T15:39:27.181Z</time>
      </trkpt>
      <trkpt lat="44.90482" lon="3.80725">
        <ele>1217.17</ele>
        <time>2025-04-15T15:39:30.580Z</time>
      </trkpt>
      <trkpt lat="44.90511" lon="3.80714">
        <ele>1217.72</ele>
        <time>2025-04-15T15:39:33.984Z</time>
      </trkpt>
      <trkpt lat="44.90541" lon="3.80703">
        <ele>1218.31</ele>
        <time>2025-04-15T15:39:37.393Z</time>
      </trkpt>
      <trkpt lat="44.90572" lon="3.80691">
        <ele>1218.81</ele>
        <time>2025-04-15T15:39:40.807Z</time>
      </trkpt>
      <trkpt lat="44.90602" lon="3.8068">
        <ele>1219.38</ele>
        <time>2025-04-15T15:39:44.226Z</time>
      </trkpt>
      <trkpt lat="44.90625" lon="3.80673">
        <ele>1219.98</ele>
        <time>2025-04-15T15:39:47.649Z</time>
      </trkpt>
      <trkpt lat="44.90649" lon="3.80667">
        <ele>1220.55</ele>
        <time>2025-04-15T15:39:51.076Z</time>
      </trkpt>
      <trkpt lat="44.90648" lon="3.80623">
        <ele>1221.24</ele>
        <time>2025-04-15T15:39:54.508Z</time>
      </trkpt>
      <trkpt lat="44.90649" lon="3.8058">
        <ele>1221.87</ele>
        <time>2025-04-15T15:39:57.945Z</time>
      </trkpt>
      <trkpt lat="44.90649" lon="3.80537">
        <ele>1222.55</ele>
        <time>2025-04-15T15:40:01.386Z</time>
      </trkpt>
      <trkpt lat="44.9065" lon="3.80494">
        <ele>1223.29</ele>
        <time>2025-04-15T15:40:04.832Z</time>
      </trkpt>
      <trkpt lat="44.90651" lon="3.80452">
        <ele>1224</ele>
        <time>2025-04-15T15:40:08.283Z</time>
      </trkpt>
      <trkpt lat="44.90654" lon="3.80424">
        <ele>1224.72</ele>
        <time>2025-04-15T15:40:11.737Z</time>
      </trkpt>
      <trkpt lat="44.90656" lon="3.80395">
        <ele>1225.42</ele>
        <time>2025-04-15T15:40:15.195Z</time>
      </trkpt>
      <trkpt lat="44.90665" lon="3.80359">
        <ele>1226.14</ele>
        <time>2025-04-15T15:40:18.657Z</time>
      </trkpt>
      <trkpt lat="44.90675" lon="3.80332">
        <ele>1226.83</ele>
        <time>2025-04-15T15:40:22.122Z</time>
      </trkpt>
      <trkpt lat="44.90683" lon="3.80313">
        <ele>1227.49</ele>
        <time>2025-04-15T15:40:25.590Z</time>
      </trkpt>
      <trkpt lat="44.90692" lon="3.80294">
        <ele>1228.13</ele>
        <time>2025-04-15T15:40:29.060Z</time>
      </trkpt>
      <trkpt lat="44.90711" lon="3.80266">
        <ele>1228.77</ele>
        <time>2025-04-15T15:40:32.535Z</time>
      </trkpt>
      <trkpt lat="44.9073" lon="3.80237">
        <ele>1229.32</ele>
        <time>2025-04-15T15:40:36.014Z</time>
      </trkpt>
      <trkpt lat="44.9075" lon="3.80208">
        <ele>1229.73</ele>
        <time>2025-04-15T15:40:39.498Z</time>
      </trkpt>
      <trkpt lat="44.90769" lon="3.80179">
        <ele>1230.09</ele>
        <time>2025-04-15T15:40:42.986Z</time>
      </trkpt>
      <trkpt lat="44.90788" lon="3.80151">
        <ele>1230.44</ele>
        <time>2025-04-15T15:40:46.479Z</time>
      </trkpt>
      <trkpt lat="44.90798" lon="3.80131">
        <ele>1230.78</ele>
        <time>2025-04-15T15:40:49.975Z</time>
      </trkpt>
      <trkpt lat="44.90808" lon="3.80111">
        <ele>1231.08</ele>
        <time>2025-04-15T15:40:53.473Z</time>
      </trkpt>
      <trkpt lat="44.90817" lon="3.80086">
        <ele>1231.34</ele>
        <time>2025-04-15T15:40:56.975Z</time>
      </trkpt>
      <trkpt lat="44.90831" lon="3.80049">
        <ele>1231.49</ele>
        <time>2025-04-15T15:41:00.481Z</time>
      </trkpt>
      <trkpt lat="44.90842" lon="3.80026">
        <ele>1231.51</ele>
        <time>2025-04-15T15:41:03.991Z</time>
      </trkpt>
      <trkpt lat="44.90853" lon="3.80003">
        <ele>1231.51</ele>
        <time>2025-04-15T15:41:07.504Z</time>
      </trkpt>
      <trkpt lat="44.90869" lon="3.79973">
        <ele>1231.54</ele>
        <time>2025-04-15T15:41:11.021Z</time>
      </trkpt>
      <trkpt lat="44.90886" lon="3.79949">
        <ele>1231.53</ele>
        <time>2025-04-15T15:41:14.542Z</time>
      </trkpt>
      <trkpt lat="44.90903" lon="3.79925">
        <ele>1231.43</ele>
        <time>2025-04-15T15:41:18.067Z</time>
      </trkpt>
      <trkpt lat="44.90903" lon="3.79925">
        <ele>1231.26</ele>
        <time>2025-04-15T15:41:21.592Z</time>
      </trkpt>
      <trkpt lat="44.90917" lon="3.79894">
        <ele>1231.11</ele>
        <time>2025-04-15T15:41:25.121Z</time>
      </trkpt>
      <trkpt lat="44.90932" lon="3.79862">
        <ele>1230.84</ele>
        <time>2025-04-15T15:41:28.654Z</time>
      </trkpt>
      <trkpt lat="44.90946" lon="3.79831">
        <ele>1230.49</ele>
        <time>2025-04-15T15:41:32.191Z</time>
      </trkpt>
      <trkpt lat="44.90949" lon="3.79823">
        <ele>1230.11</ele>
        <time>2025-04-15T15:41:35.729Z</time>
      </trkpt>
      <trkpt lat="44.90967" lon="3.79789">
        <ele>1229.62</ele>
        <time>2025-04-15T15:41:39.272Z</time>
      </trkpt>
      <trkpt lat="44.90984" lon="3.79755">
        <ele>1229.13</ele>
        <time>2025-04-15T15:41:42.820Z</time>
      </trkpt>
      <trkpt lat="44.91002" lon="3.79721">
        <ele>1228.64</ele>
        <time>2025-04-15T15:41:46.373Z</time>
      </trkpt>
      <trkpt lat="44.91008" lon="3.79708">
        <ele>1228.1</ele>
        <time>2025-04-15T15:41:49.928Z</time>
      </trkpt>
      <trkpt lat="44.91008" lon="3.79708">
        <ele>1227.59</ele>
        <time>2025-04-15T15:41:53.483Z</time>
      </trkpt>
      <trkpt lat="44.91027" lon="3.79678">
        <ele>1227.02</ele>
        <time>2025-04-15T15:41:57.042Z</time>
      </trkpt>
      <trkpt lat="44.91046" lon="3.79648">
        <ele>1226.44</ele>
        <time>2025-04-15T15:42:00.606Z</time>
      </trkpt>
      <trkpt lat="44.91064" lon="3.79618">
        <ele>1225.79</ele>
        <time>2025-04-15T15:42:04.174Z</time>
      </trkpt>
      <trkpt lat="44.91083" lon="3.79588">
        <ele>1225.1</ele>
        <time>2025-04-15T15:42:07.747Z</time>
      </trkpt>
      <trkpt lat="44.91102" lon="3.79558">
        <ele>1224.4</ele>
        <time>2025-04-15T15:42:11.324Z</time>
      </trkpt>
      <trkpt lat="44.9112" lon="3.79528">
        <ele>1223.86</ele>
        <time>2025-04-15T15:42:14.906Z</time>
      </trkpt>
      <trkpt lat="44.91139" lon="3.79498">
        <ele>1223.36</ele>
        <time>2025-04-15T15:42:18.492Z</time>
      </trkpt>
      <trkpt lat="44.91157" lon="3.79468">
        <ele>1222.85</ele>
        <time>2025-04-15T15:42:22.083Z</time>
      </trkpt>
      <trkpt lat="44.9117" lon="3.79443">
        <ele>1222.45</ele>
        <time>2025-04-15T15:42:25.677Z</time>
      </trkpt>
      <trkpt lat="44.91182" lon="3.79418">
        <ele>1222.06</ele>
        <time>2025-04-15T15:42:29.275Z</time>
      </trkpt>
      <trkpt lat="44.9119" lon="3.79394">
        <ele>1221.7</ele>
        <time>2025-04-15T15:42:32.876Z</time>
      </trkpt>
      <trkpt lat="44.91197" lon="3.79371">
        <ele>1221.33</ele>
        <time>2025-04-15T15:42:36.480Z</time>
      </trkpt>
      <trkpt lat="44.91201" lon="3.79344">
        <ele>1220.98</ele>
        <time>2025-04-15T15:42:40.087Z</time>
      </trkpt>
      <trkpt lat="44.91206" lon="3.79317">
        <ele>1220.7</ele>
        <time>2025-04-15T15:42:43.697Z</time>
      </trkpt>
      <trkpt lat="44.91207" lon="3.79309">
        <ele>1220.53</ele>
        <time>2025-04-15T15:42:47.308Z</time>
      </trkpt>
      <trkpt lat="44.91207" lon="3.79274">
        <ele>1220.35</ele>
        <time>2025-04-15T15:42:50.923Z</time>
      </trkpt>
      <trkpt lat="44.91201" lon="3.79303">
        <ele>1220.36</ele>
        <time>2025-04-15T15:42:54.541Z</time>
      </trkpt>
      <trkpt lat="44.91196" lon="3.79332">
        <ele>1220.44</ele>
        <time>2025-04-15T15:42:58.163Z</time>
      </trkpt>
      <trkpt lat="44.91191" lon="3.79348">
        <ele>1220.55</ele>
        <time>2025-04-15T15:43:01.787Z</time>
      </trkpt>
      <trkpt lat="44.91191" lon="3.79348">
        <ele>1220.68</ele>
        <time>2025-04-15T15:43:05.411Z</time>
      </trkpt>
      <trkpt lat="44.91191" lon="3.79348">
        <ele>1220.88</ele>
        <time>2025-04-15T15:43:09.035Z</time>
      </trkpt>
      <trkpt lat="44.91191" lon="3.79348">
        <ele>1221.13</ele>
        <time>2025-04-15T15:43:12.659Z</time>
      </trkpt>
      <trkpt lat="44.91191" lon="3.79348">
        <ele>1221.45</ele>
        <time>2025-04-15T15:43:16.283Z</time>
      </trkpt>
      <trkpt lat="44.91196" lon="3.79332">
        <ele>1220.44</ele>
        <time>2025-04-15T15:43:19.909Z</time>
      </trkpt>
      <trkpt lat="44.91201" lon="3.79303">
        <ele>1222.13</ele>
        <time>2025-04-15T15:43:23.538Z</time>
      </trkpt>
      <trkpt lat="44.91207" lon="3.79274">
        <ele>1220.35</ele>
        <time>2025-04-15T15:43:27.170Z</time>
      </trkpt>
      <trkpt lat="44.91207" lon="3.79309">
        <ele>1220.53</ele>
        <time>2025-04-15T15:43:30.806Z</time>
      </trkpt>
      <trkpt lat="44.91206" lon="3.79317">
        <ele>1220.7</ele>
        <time>2025-04-15T15:43:34.443Z</time>
      </trkpt>
      <trkpt lat="44.91201" lon="3.79344">
        <ele>1224.35</ele>
        <time>2025-04-15T15:43:38.083Z</time>
      </trkpt>
      <trkpt lat="44.91197" lon="3.79371">
        <ele>1221.33</ele>
        <time>2025-04-15T15:43:41.727Z</time>
      </trkpt>
      <trkpt lat="44.9119" lon="3.79394">
        <ele>1225.74</ele>
        <time>2025-04-15T15:43:45.373Z</time>
      </trkpt>
      <trkpt lat="44.91182" lon="3.79418">
        <ele>1222.06</ele>
        <time>2025-04-15T15:43:49.022Z</time>
      </trkpt>
      <trkpt lat="44.9117" lon="3.79443">
        <ele>1227.06</ele>
        <time>2025-04-15T15:43:52.675Z</time>
      </trkpt>
      <trkpt lat="44.91157" lon="3.79468">
        <ele>1222.85</ele>
        <time>2025-04-15T15:43:56.331Z</time>
      </trkpt>
      <trkpt lat="44.91139" lon="3.79498">
        <ele>1228.39</ele>
        <time>2025-04-15T15:43:59.992Z</time>
      </trkpt>
      <trkpt lat="44.9112" lon="3.79528">
        <ele>1229.05</ele>
        <time>2025-04-15T15:44:03.657Z</time>
      </trkpt>
      <trkpt lat="44.91101" lon="3.79558">
        <ele>1229.71</ele>
        <time>2025-04-15T15:44:07.327Z</time>
      </trkpt>
      <trkpt lat="44.91083" lon="3.79588">
        <ele>1230.47</ele>
        <time>2025-04-15T15:44:11.001Z</time>
      </trkpt>
      <trkpt lat="44.91064" lon="3.79618">
        <ele>1231.19</ele>
        <time>2025-04-15T15:44:14.680Z</time>
      </trkpt>
      <trkpt lat="44.91045" lon="3.79648">
        <ele>1231.81</ele>
        <time>2025-04-15T15:44:18.364Z</time>
      </trkpt>
      <trkpt lat="44.91027" lon="3.79678">
        <ele>1232.32</ele>
        <time>2025-04-15T15:44:22.052Z</time>
      </trkpt>
      <trkpt lat="44.91008" lon="3.79708">
        <ele>1227.59</ele>
        <time>2025-04-15T15:44:25.745Z</time>
      </trkpt>
      <trkpt lat="44.91008" lon="3.79708">
        <ele>1228.1</ele>
        <time>2025-04-15T15:44:29.438Z</time>
      </trkpt>
      <trkpt lat="44.91002" lon="3.79721">
        <ele>1228.64</ele>
        <time>2025-04-15T15:44:33.132Z</time>
      </trkpt>
      <trkpt lat="44.90984" lon="3.79755">
        <ele>1233.54</ele>
        <time>2025-04-15T15:44:36.831Z</time>
      </trkpt>
      <trkpt lat="44.90967" lon="3.79789">
        <ele>1233.66</ele>
        <time>2025-04-15T15:44:40.535Z</time>
      </trkpt>
      <trkpt lat="44.90949" lon="3.79823">
        <ele>1230.11</ele>
        <time>2025-04-15T15:44:44.244Z</time>
      </trkpt>
      <trkpt lat="44.90946" lon="3.79831">
        <ele>1230.49</ele>
        <time>2025-04-15T15:44:47.954Z</time>
      </trkpt>
      <trkpt lat="44.90932" lon="3.79862">
        <ele>1233.37</ele>
        <time>2025-04-15T15:44:51.668Z</time>
      </trkpt>
      <trkpt lat="44.90917" lon="3.79894">
        <ele>1232.99</ele>
        <time>2025-04-15T15:44:55.386Z</time>
      </trkpt>
      <trkpt lat="44.90903" lon="3.79925">
        <ele>1231.43</ele>
        <time>2025-04-15T15:44:59.109Z</time>
      </trkpt>
      <trkpt lat="44.90906" lon="3.7993">
        <ele>1231.79</ele>
        <time>2025-04-15T15:45:02.832Z</time>
      </trkpt>
      <trkpt lat="44.90921" lon="3.79948">
        <ele>1230.89</ele>
        <time>2025-04-15T15:45:06.558Z</time>
      </trkpt>
      <trkpt lat="44.90921" lon="3.79948">
        <ele>1230.04</ele>
        <time>2025-04-15T15:45:10.284Z</time>
      </trkpt>
      <trkpt lat="44.90944" lon="3.79974">
        <ele>1228.88</ele>
        <time>2025-04-15T15:45:14.015Z</time>
      </trkpt>
      <trkpt lat="44.90967" lon="3.79999">
        <ele>1227.68</ele>
        <time>2025-04-15T15:45:17.751Z</time>
      </trkpt>
      <trkpt lat="44.90985" lon="3.80023">
        <ele>1226.42</ele>
        <time>2025-04-15T15:45:21.491Z</time>
      </trkpt>
      <trkpt lat="44.91003" lon="3.80047">
        <ele>1225.09</ele>
        <time>2025-04-15T15:45:25.235Z</time>
      </trkpt>
      <trkpt lat="44.9102" lon="3.8007">
        <ele>1223.62</ele>
        <time>2025-04-15T15:45:28.982Z</time>
      </trkpt>
      <trkpt lat="44.91039" lon="3.80097">
        <ele>1221.99</ele>
        <time>2025-04-15T15:45:32.734Z</time>
      </trkpt>
      <trkpt lat="44.91059" lon="3.80124">
        <ele>1220.22</ele>
        <time>2025-04-15T15:45:36.490Z</time>
      </trkpt>
      <trkpt lat="44.91078" lon="3.80151">
        <ele>1218.36</ele>
        <time>2025-04-15T15:45:40.251Z</time>
      </trkpt>
      <trkpt lat="44.91097" lon="3.80179">
        <ele>1216.42</ele>
        <time>2025-04-15T15:45:44.016Z</time>
      </trkpt>
      <trkpt lat="44.91116" lon="3.80204">
        <ele>1214.27</ele>
        <time>2025-04-15T15:45:47.785Z</time>
      </trkpt>
      <trkpt lat="44.91135" lon="3.8023">
        <ele>1212</ele>
        <time>2025-04-15T15:45:51.558Z</time>
      </trkpt>
      <trkpt lat="44.91154" lon="3.80256">
        <ele>1209.7</ele>
        <time>2025-04-15T15:45:55.336Z</time>
      </trkpt>
      <trkpt lat="44.91173" lon="3.80282">
        <ele>1207.35</ele>
        <time>2025-04-15T15:45:59.118Z</time>
      </trkpt>
      <trkpt lat="44.91192" lon="3.80307">
        <ele>1204.95</ele>
        <time>2025-04-15T15:46:02.904Z</time>
      </trkpt>
      <trkpt lat="44.91208" lon="3.80327">
        <ele>1202.5</ele>
        <time>2025-04-15T15:46:06.693Z</time>
      </trkpt>
      <trkpt lat="44.91225" lon="3.80347">
        <ele>1200</ele>
        <time>2025-04-15T15:46:10.486Z</time>
      </trkpt>
      <trkpt lat="44.91241" lon="3.80367">
        <ele>1197.43</ele>
        <time>2025-04-15T15:46:14.282Z</time>
      </trkpt>
      <trkpt lat="44.91255" lon="3.80381">
        <ele>1194.77</ele>
        <time>2025-04-15T15:46:18.081Z</time>
      </trkpt>
      <trkpt lat="44.91269" lon="3.80395">
        <ele>1192.03</ele>
        <time>2025-04-15T15:46:21.883Z</time>
      </trkpt>
      <trkpt lat="44.91286" lon="3.80418">
        <ele>1189.2</ele>
        <time>2025-04-15T15:46:25.689Z</time>
      </trkpt>
      <trkpt lat="44.91303" lon="3.80441">
        <ele>1186.35</ele>
        <time>2025-04-15T15:46:29.498Z</time>
      </trkpt>
      <trkpt lat="44.91303" lon="3.80441">
        <ele>1183.6</ele>
        <time>2025-04-15T15:46:33.307Z</time>
      </trkpt>
      <trkpt lat="44.9132" lon="3.80467">
        <ele>1180.67</ele>
        <time>2025-04-15T15:46:37.120Z</time>
      </trkpt>
      <trkpt lat="44.91338" lon="3.80493">
        <ele>1177.72</ele>
        <time>2025-04-15T15:46:40.938Z</time>
      </trkpt>
      <trkpt lat="44.91343" lon="3.80506">
        <ele>1174.86</ele>
        <time>2025-04-15T15:46:44.757Z</time>
      </trkpt>
      <trkpt lat="44.91343" lon="3.80506">
        <ele>1172.05</ele>
        <time>2025-04-15T15:46:48.576Z</time>
      </trkpt>
      <trkpt lat="44.91358" lon="3.80505">
        <ele>1169.18</ele>
        <time>2025-04-15T15:46:52.398Z</time>
      </trkpt>
      <trkpt lat="44.91381" lon="3.80508">
        <ele>1166.28</ele>
        <time>2025-04-15T15:46:56.223Z</time>
      </trkpt>
      <trkpt lat="44.91403" lon="3.80519">
        <ele>1163.4</ele>
        <time>2025-04-15T15:47:00.052Z</time>
      </trkpt>
      <trkpt lat="44.91426" lon="3.8053">
        <ele>1160.52</ele>
        <time>2025-04-15T15:47:03.885Z</time>
      </trkpt>
      <trkpt lat="44.91449" lon="3.80542">
        <ele>1157.65</ele>
        <time>2025-04-15T15:47:07.722Z</time>
      </trkpt>
      <trkpt lat="44.91472" lon="3.80553">
        <ele>1154.85</ele>
        <time>2025-04-15T15:47:11.563Z</time>
      </trkpt>
      <trkpt lat="44.91502" lon="3.80567">
        <ele>1152.08</ele>
        <time>2025-04-15T15:47:15.409Z</time>
      </trkpt>
      <trkpt lat="44.91531" lon="3.80581">
        <ele>1149.31</ele>
        <time>2025-04-15T15:47:19.260Z</time>
      </trkpt>
      <trkpt lat="44.91561" lon="3.80595">
        <ele>1146.63</ele>
        <time>2025-04-15T15:47:23.116Z</time>
      </trkpt>
      <trkpt lat="44.91591" lon="3.80609">
        <ele>1143.96</ele>
        <time>2025-04-15T15:47:26.977Z</time>
      </trkpt>
      <trkpt lat="44.91621" lon="3.80623">
        <ele>1141.29</ele>
        <time>2025-04-15T15:47:30.843Z</time>
      </trkpt>
      <trkpt lat="44.91651" lon="3.80637">
        <ele>1138.67</ele>
        <time>2025-04-15T15:47:34.714Z</time>
      </trkpt>
      <trkpt lat="44.91681" lon="3.80651">
        <ele>1136.16</ele>
        <time>2025-04-15T15:47:38.590Z</time>
      </trkpt>
      <trkpt lat="44.91702" lon="3.80656">
        <ele>1133.77</ele>
        <time>2025-04-15T15:47:42.469Z</time>
      </trkpt>
      <trkpt lat="44.91723" lon="3.80662">
        <ele>1131.47</ele>
        <time>2025-04-15T15:47:46.352Z</time>
      </trkpt>
      <trkpt lat="44.91739" lon="3.80668">
        <ele>1129.25</ele>
        <time>2025-04-15T15:47:50.237Z</time>
      </trkpt>
      <trkpt lat="44.91755" lon="3.80673">
        <ele>1127.1</ele>
        <time>2025-04-15T15:47:54.125Z</time>
      </trkpt>
      <trkpt lat="44.9178" lon="3.80689">
        <ele>1125.02</ele>
        <time>2025-04-15T15:47:58.017Z</time>
      </trkpt>
      <trkpt lat="44.91804" lon="3.80705">
        <ele>1123.02</ele>
        <time>2025-04-15T15:48:01.914Z</time>
      </trkpt>
      <trkpt lat="44.91829" lon="3.8072">
        <ele>1121.1</ele>
        <time>2025-04-15T15:48:05.815Z</time>
      </trkpt>
      <trkpt lat="44.91845" lon="3.80729">
        <ele>1119.28</ele>
        <time>2025-04-15T15:48:09.719Z</time>
      </trkpt>
      <trkpt lat="44.91861" lon="3.80737">
        <ele>1117.54</ele>
        <time>2025-04-15T15:48:13.626Z</time>
      </trkpt>
      <trkpt lat="44.91885" lon="3.80742">
        <ele>1115.87</ele>
        <time>2025-04-15T15:48:17.536Z</time>
      </trkpt>
      <trkpt lat="44.91908" lon="3.80747">
        <ele>1114.3</ele>
        <time>2025-04-15T15:48:21.450Z</time>
      </trkpt>
      <trkpt lat="44.91929" lon="3.80749">
        <ele>1112.84</ele>
        <time>2025-04-15T15:48:25.368Z</time>
      </trkpt>
      <trkpt lat="44.91949" lon="3.80751">
        <ele>1111.49</ele>
        <time>2025-04-15T15:48:29.289Z</time>
      </trkpt>
      <trkpt lat="44.91972" lon="3.80753">
        <ele>1110.27</ele>
        <time>2025-04-15T15:48:33.213Z</time>
      </trkpt>
      <trkpt lat="44.91995" lon="3.80755">
        <ele>1109.17</ele>
        <time>2025-04-15T15:48:37.141Z</time>
      </trkpt>
      <trkpt lat="44.92012" lon="3.8076">
        <ele>1108.13</ele>
        <time>2025-04-15T15:48:41.072Z</time>
      </trkpt>
      <trkpt lat="44.92022" lon="3.8077">
        <ele>1107.15</ele>
        <time>2025-04-15T15:48:45.005Z</time>
      </trkpt>
      <trkpt lat="44.9204" lon="3.80785">
        <ele>1106.25</ele>
        <time>2025-04-15T15:48:48.941Z</time>
      </trkpt>
      <trkpt lat="44.92058" lon="3.808">
        <ele>1105.43</ele>
        <time>2025-04-15T15:48:52.881Z</time>
      </trkpt>
      <trkpt lat="44.92064" lon="3.80804">
        <ele>1104.72</ele>
        <time>2025-04-15T15:48:56.822Z</time>
      </trkpt>
      <trkpt lat="44.92071" lon="3.80807">
        <ele>1104.09</ele>
        <time>2025-04-15T15:49:00.764Z</time>
      </trkpt>
      <trkpt lat="44.92092" lon="3.80818">
        <ele>1103.51</ele>
        <time>2025-04-15T15:49:04.709Z</time>
      </trkpt>
      <trkpt lat="44.92114" lon="3.80828">
        <ele>1103.05</ele>
        <time>2025-04-15T15:49:08.658Z</time>
      </trkpt>
      <trkpt lat="44.92137" lon="3.80837">
        <ele>1102.68</ele>
        <time>2025-04-15T15:49:12.611Z</time>
      </trkpt>
      <trkpt lat="44.92149" lon="3.8085">
        <ele>1102.37</ele>
        <time>2025-04-15T15:49:16.566Z</time>
      </trkpt>
      <trkpt lat="44.92172" lon="3.80852">
        <ele>1102.16</ele>
        <time>2025-04-15T15:49:20.525Z</time>
      </trkpt>
      <trkpt lat="44.92192" lon="3.80861">
        <ele>1101.96</ele>
        <time>2025-04-15T15:49:24.487Z</time>
      </trkpt>
      <trkpt lat="44.92219" lon="3.80866">
        <ele>1101.84</ele>
        <time>2025-04-15T15:49:28.454Z</time>
      </trkpt>
      <trkpt lat="44.92246" lon="3.80872">
        <ele>1101.81</ele>
        <time>2025-04-15T15:49:32.425Z</time>
      </trkpt>
      <trkpt lat="44.92256" lon="3.80876">
        <ele>1101.85</ele>
        <time>2025-04-15T15:49:36.398Z</time>
      </trkpt>
      <trkpt lat="44.9227" lon="3.80873">
        <ele>1101.95</ele>
        <time>2025-04-15T15:49:40.373Z</time>
      </trkpt>
      <trkpt lat="44.92296" lon="3.80863">
        <ele>1102.11</ele>
        <time>2025-04-15T15:49:44.352Z</time>
      </trkpt>
      <trkpt lat="44.92322" lon="3.80853">
        <ele>1102.31</ele>
        <time>2025-04-15T15:49:48.336Z</time>
      </trkpt>
      <trkpt lat="44.92331" lon="3.80857">
        <ele>1102.56</ele>
        <time>2025-04-15T15:49:52.321Z</time>
      </trkpt>
      <trkpt lat="44.92338" lon="3.80865">
        <ele>1102.86</ele>
        <time>2025-04-15T15:49:56.308Z</time>
      </trkpt>
      <trkpt lat="44.92355" lon="3.80881">
        <ele>1103.2</ele>
        <time>2025-04-15T15:50:00.298Z</time>
      </trkpt>
      <trkpt lat="44.92372" lon="3.80893">
        <ele>1103.59</ele>
        <time>2025-04-15T15:50:04.291Z</time>
      </trkpt>
      <trkpt lat="44.92393" lon="3.80894">
        <ele>1104.01</ele>
        <time>2025-04-15T15:50:08.287Z</time>
      </trkpt>
      <trkpt lat="44.92407" lon="3.80889">
        <ele>1104.52</ele>
        <time>2025-04-15T15:50:12.286Z</time>
      </trkpt>
      <trkpt lat="44.92432" lon="3.80866">
        <ele>1105.11</ele>
        <time>2025-04-15T15:50:16.289Z</time>
      </trkpt>
      <trkpt lat="44.92432" lon="3.80866">
        <ele>1105.67</ele>
        <time>2025-04-15T15:50:20.292Z</time>
      </trkpt>
      <trkpt lat="44.92433" lon="3.80865">
        <ele>1106.26</ele>
        <time>2025-04-15T15:50:24.296Z</time>
      </trkpt>
      <trkpt lat="44.92433" lon="3.80865">
        <ele>1106.88</ele>
        <time>2025-04-15T15:50:28.300Z</time>
      </trkpt>
      <trkpt lat="44.92433" lon="3.80865">
        <ele>1107.53</ele>
        <time>2025-04-15T15:50:32.304Z</time>
      </trkpt>
      <trkpt lat="44.92433" lon="3.80865">
        <ele>1108.19</ele>
        <time>2025-04-15T15:50:36.308Z</time>
      </trkpt>
      <trkpt lat="44.92433" lon="3.80865">
        <ele>1108.87</ele>
        <time>2025-04-15T15:50:40.312Z</time>
      </trkpt>
      <trkpt lat="44.9245" lon="3.80847">
        <ele>1109.6</ele>
        <time>2025-04-15T15:50:44.319Z</time>
      </trkpt>
      <trkpt lat="44.92468" lon="3.80828">
        <ele>1110.37</ele>
        <time>2025-04-15T15:50:48.330Z</time>
      </trkpt>
      <trkpt lat="44.92479" lon="3.80817">
        <ele>1111.09</ele>
        <time>2025-04-15T15:50:52.343Z</time>
      </trkpt>
      <trkpt lat="44.92496" lon="3.80799">
        <ele>1111.8</ele>
        <time>2025-04-15T15:50:56.359Z</time>
      </trkpt>
      <trkpt lat="44.92512" lon="3.80781">
        <ele>1112.51</ele>
        <time>2025-04-15T15:51:00.378Z</time>
      </trkpt>
      <trkpt lat="44.92534" lon="3.80757">
        <ele>1113.26</ele>
        <time>2025-04-15T15:51:04.402Z</time>
      </trkpt>
      <trkpt lat="44.92555" lon="3.80734">
        <ele>1114.03</ele>
        <time>2025-04-15T15:51:08.430Z</time>
      </trkpt>
      <trkpt lat="44.92576" lon="3.8071">
        <ele>1114.76</ele>
        <time>2025-04-15T15:51:12.463Z</time>
      </trkpt>
      <trkpt lat="44.92594" lon="3.80688">
        <ele>1115.49</ele>
        <time>2025-04-15T15:51:16.499Z</time>
      </trkpt>
      <trkpt lat="44.92618" lon="3.80672">
        <ele>1116.2</ele>
        <time>2025-04-15T15:51:20.540Z</time>
      </trkpt>
      <trkpt lat="44.92633" lon="3.80654">
        <ele>1116.86</ele>
        <time>2025-04-15T15:51:24.584Z</time>
      </trkpt>
      <trkpt lat="44.92641" lon="3.80648">
        <ele>1117.44</ele>
        <time>2025-04-15T15:51:28.629Z</time>
      </trkpt>
      <trkpt lat="44.92648" lon="3.80647">
        <ele>1117.98</ele>
        <time>2025-04-15T15:51:32.675Z</time>
      </trkpt>
      <trkpt lat="44.92664" lon="3.80648">
        <ele>1118.49</ele>
        <time>2025-04-15T15:51:36.724Z</time>
      </trkpt>
      <trkpt lat="44.9268" lon="3.80649">
        <ele>1118.95</ele>
        <time>2025-04-15T15:51:40.775Z</time>
      </trkpt>
      <trkpt lat="44.92696" lon="3.80641">
        <ele>1119.39</ele>
        <time>2025-04-15T15:51:44.829Z</time>
      </trkpt>
      <trkpt lat="44.92703" lon="3.80634">
        <ele>1119.8</ele>
        <time>2025-04-15T15:51:48.885Z</time>
      </trkpt>
      <trkpt lat="44.92716" lon="3.80625">
        <ele>1120.15</ele>
        <time>2025-04-15T15:51:52.943Z</time>
      </trkpt>
      <trkpt lat="44.92741" lon="3.80622">
        <ele>1120.39</ele>
        <time>2025-04-15T15:51:57.005Z</time>
      </trkpt>
      <trkpt lat="44.92763" lon="3.80621">
        <ele>1120.6</ele>
        <time>2025-04-15T15:52:01.070Z</time>
      </trkpt>
      <trkpt lat="44.92785" lon="3.80619">
        <ele>1120.84</ele>
        <time>2025-04-15T15:52:05.139Z</time>
      </trkpt>
      <trkpt lat="44.92807" lon="3.80618">
        <ele>1121.02</ele>
        <time>2025-04-15T15:52:09.211Z</time>
      </trkpt>
      <trkpt lat="44.92833" lon="3.80618">
        <ele>1121.15</ele>
        <time>2025-04-15T15:52:13.288Z</time>
      </trkpt>
      <trkpt lat="44.92858" lon="3.80618">
        <ele>1121.26</ele>
        <time>2025-04-15T15:52:17.369Z</time>
      </trkpt>
      <trkpt lat="44.92884" lon="3.80617">
        <ele>1121.34</ele>
        <time>2025-04-15T15:52:21.454Z</time>
      </trkpt>
      <trkpt lat="44.92912" lon="3.80611">
        <ele>1121.43</ele>
        <time>2025-04-15T15:52:25.543Z</time>
      </trkpt>
      <trkpt lat="44.92932" lon="3.80596">
        <ele>1121.51</ele>
        <time>2025-04-15T15:52:29.636Z</time>
      </trkpt>
      <trkpt lat="44.92954" lon="3.80581">
        <ele>1121.56</ele>
        <time>2025-04-15T15:52:33.733Z</time>
      </trkpt>
      <trkpt lat="44.92964" lon="3.80574">
        <ele>1121.57</ele>
        <time>2025-04-15T15:52:37.832Z</time>
      </trkpt>
      <trkpt lat="44.92982" lon="3.8057">
        <ele>1121.56</ele>
        <time>2025-04-15T15:52:41.934Z</time>
      </trkpt>
      <trkpt lat="44.93008" lon="3.80568">
        <ele>1121.57</ele>
        <time>2025-04-15T15:52:46.040Z</time>
      </trkpt>
      <trkpt lat="44.93034" lon="3.80566">
        <ele>1121.58</ele>
        <time>2025-04-15T15:52:50.150Z</time>
      </trkpt>
      <trkpt lat="44.93064" lon="3.80573">
        <ele>1121.56</ele>
        <time>2025-04-15T15:52:54.265Z</time>
      </trkpt>
      <trkpt lat="44.93095" lon="3.80579">
        <ele>1121.46</ele>
        <time>2025-04-15T15:52:58.385Z</time>
      </trkpt>
      <trkpt lat="44.93126" lon="3.80586">
        <ele>1121.28</ele>
        <time>2025-04-15T15:53:02.510Z</time>
      </trkpt>
      <trkpt lat="44.93156" lon="3.80593">
        <ele>1121.16</ele>
        <time>2025-04-15T15:53:06.640Z</time>
      </trkpt>
      <trkpt lat="44.93187" lon="3.80599">
        <ele>1121.07</ele>
        <time>2025-04-15T15:53:10.775Z</time>
      </trkpt>
      <trkpt lat="44.93217" lon="3.80606">
        <ele>1120.95</ele>
        <time>2025-04-15T15:53:14.915Z</time>
      </trkpt>
      <trkpt lat="44.93248" lon="3.80613">
        <ele>1120.77</ele>
        <time>2025-04-15T15:53:19.060Z</time>
      </trkpt>
      <trkpt lat="44.93279" lon="3.8062">
        <ele>1120.56</ele>
        <time>2025-04-15T15:53:23.209Z</time>
      </trkpt>
      <trkpt lat="44.93309" lon="3.80626">
        <ele>1120.3</ele>
        <time>2025-04-15T15:53:27.363Z</time>
      </trkpt>
      <trkpt lat="44.9334" lon="3.80633">
        <ele>1119.96</ele>
        <time>2025-04-15T15:53:31.522Z</time>
      </trkpt>
      <trkpt lat="44.93371" lon="3.8064">
        <ele>1119.55</ele>
        <time>2025-04-15T15:53:35.686Z</time>
      </trkpt>
      <trkpt lat="44.93388" lon="3.80643">
        <ele>1119.11</ele>
        <time>2025-04-15T15:53:39.853Z</time>
      </trkpt>
      <trkpt lat="44.93405" lon="3.80645">
        <ele>1118.63</ele>
        <time>2025-04-15T15:53:44.023Z</time>
      </trkpt>
      <trkpt lat="44.93422" lon="3.80645">
        <ele>1118.13</ele>
        <time>2025-04-15T15:53:48.196Z</time>
      </trkpt>
      <trkpt lat="44.93439" lon="3.80645">
        <ele>1117.56</ele>
        <time>2025-04-15T15:53:52.371Z</time>
      </trkpt>
      <trkpt lat="44.93466" lon="3.80638">
        <ele>1116.92</ele>
        <time>2025-04-15T15:53:56.551Z</time>
      </trkpt>
      <trkpt lat="44.93492" lon="3.80631">
        <ele>1116.21</ele>
        <time>2025-04-15T15:54:00.735Z</time>
      </trkpt>
      <trkpt lat="44.93521" lon="3.8062">
        <ele>1115.5</ele>
        <time>2025-04-15T15:54:04.924Z</time>
      </trkpt>
      <trkpt lat="44.9355" lon="3.80608">
        <ele>1114.73</ele>
        <time>2025-04-15T15:54:09.118Z</time>
      </trkpt>
      <trkpt lat="44.93579" lon="3.80597">
        <ele>1113.94</ele>
        <time>2025-04-15T15:54:13.316Z</time>
      </trkpt>
      <trkpt lat="44.93608" lon="3.80586">
        <ele>1113.1</ele>
        <time>2025-04-15T15:54:17.519Z</time>
      </trkpt>
      <trkpt lat="44.93637" lon="3.80574">
        <ele>1112.22</ele>
        <time>2025-04-15T15:54:21.727Z</time>
      </trkpt>
      <trkpt lat="44.93666" lon="3.80563">
        <ele>1111.35</ele>
        <time>2025-04-15T15:54:25.940Z</time>
      </trkpt>
      <trkpt lat="44.93695" lon="3.80551">
        <ele>1110.37</ele>
        <time>2025-04-15T15:54:30.158Z</time>
      </trkpt>
      <trkpt lat="44.93724" lon="3.8054">
        <ele>1109.38</ele>
        <time>2025-04-15T15:54:34.380Z</time>
      </trkpt>
      <trkpt lat="44.93753" lon="3.80528">
        <ele>1108.4</ele>
        <time>2025-04-15T15:54:38.607Z</time>
      </trkpt>
      <trkpt lat="44.93769" lon="3.80517">
        <ele>1107.4</ele>
        <time>2025-04-15T15:54:42.837Z</time>
      </trkpt>
      <trkpt lat="44.93785" lon="3.80506">
        <ele>1106.39</ele>
        <time>2025-04-15T15:54:47.070Z</time>
      </trkpt>
      <trkpt lat="44.9381" lon="3.8048">
        <ele>1105.33</ele>
        <time>2025-04-15T15:54:51.308Z</time>
      </trkpt>
      <trkpt lat="44.93835" lon="3.80454">
        <ele>1104.28</ele>
        <time>2025-04-15T15:54:55.551Z</time>
      </trkpt>
      <trkpt lat="44.9386" lon="3.80428">
        <ele>1103.23</ele>
        <time>2025-04-15T15:54:59.799Z</time>
      </trkpt>
      <trkpt lat="44.93884" lon="3.80403">
        <ele>1102.12</ele>
        <time>2025-04-15T15:55:04.052Z</time>
      </trkpt>
      <trkpt lat="44.93909" lon="3.80377">
        <ele>1101.01</ele>
        <time>2025-04-15T15:55:08.310Z</time>
      </trkpt>
      <trkpt lat="44.93928" lon="3.80352">
        <ele>1099.98</ele>
        <time>2025-04-15T15:55:12.572Z</time>
      </trkpt>
      <trkpt lat="44.93946" lon="3.80327">
        <ele>1098.95</ele>
        <time>2025-04-15T15:55:16.838Z</time>
      </trkpt>
      <trkpt lat="44.93965" lon="3.80296">
        <ele>1097.82</ele>
        <time>2025-04-15T15:55:21.109Z</time>
      </trkpt>
      <trkpt lat="44.93984" lon="3.80265">
        <ele>1096.76</ele>
        <time>2025-04-15T15:55:25.384Z</time>
      </trkpt>
      <trkpt lat="44.94003" lon="3.80234">
        <ele>1095.77</ele>
        <time>2025-04-15T15:55:29.664Z</time>
      </trkpt>
      <trkpt lat="44.94023" lon="3.80203">
        <ele>1094.77</ele>
        <time>2025-04-15T15:55:33.949Z</time>
      </trkpt>
      <trkpt lat="44.94042" lon="3.80173">
        <ele>1093.71</ele>
        <time>2025-04-15T15:55:38.238Z</time>
      </trkpt>
      <trkpt lat="44.94061" lon="3.80142">
        <ele>1092.75</ele>
        <time>2025-04-15T15:55:42.532Z</time>
      </trkpt>
      <trkpt lat="44.9408" lon="3.80111">
        <ele>1091.79</ele>
        <time>2025-04-15T15:55:46.831Z</time>
      </trkpt>
      <trkpt lat="44.94099" lon="3.8008">
        <ele>1090.84</ele>
        <time>2025-04-15T15:55:51.134Z</time>
      </trkpt>
      <trkpt lat="44.94119" lon="3.8005">
        <ele>1090</ele>
        <time>2025-04-15T15:55:55.442Z</time>
      </trkpt>
      <trkpt lat="44.94135" lon="3.80027">
        <ele>1089.22</ele>
        <time>2025-04-15T15:55:59.754Z</time>
      </trkpt>
      <trkpt lat="44.94152" lon="3.80005">
        <ele>1088.47</ele>
        <time>2025-04-15T15:56:04.069Z</time>
      </trkpt>
      <trkpt lat="44.94169" lon="3.79982">
        <ele>1087.7</ele>
        <time>2025-04-15T15:56:08.388Z</time>
      </trkpt>
      <trkpt lat="44.94192" lon="3.79954">
        <ele>1086.88</ele>
        <time>2025-04-15T15:56:12.712Z</time>
      </trkpt>
      <trkpt lat="44.94215" lon="3.79926">
        <ele>1086.08</ele>
        <time>2025-04-15T15:56:17.041Z</time>
      </trkpt>
      <trkpt lat="44.94238" lon="3.79898">
        <ele>1085.4</ele>
        <time>2025-04-15T15:56:21.375Z</time>
      </trkpt>
      <trkpt lat="44.94261" lon="3.7987">
        <ele>1084.78</ele>
        <time>2025-04-15T15:56:25.713Z</time>
      </trkpt>
      <trkpt lat="44.94284" lon="3.79842">
        <ele>1084.13</ele>
        <time>2025-04-15T15:56:30.056Z</time>
      </trkpt>
      <trkpt lat="44.94305" lon="3.79813">
        <ele>1083.55</ele>
        <time>2025-04-15T15:56:34.404Z</time>
      </trkpt>
      <trkpt lat="44.94327" lon="3.79785">
        <ele>1083.03</ele>
        <time>2025-04-15T15:56:38.757Z</time>
      </trkpt>
      <trkpt lat="44.94346" lon="3.7975">
        <ele>1082.56</ele>
        <time>2025-04-15T15:56:43.115Z</time>
      </trkpt>
      <trkpt lat="44.94365" lon="3.79716">
        <ele>1082.07</ele>
        <time>2025-04-15T15:56:47.478Z</time>
      </trkpt>
      <trkpt lat="44.94385" lon="3.79681">
        <ele>1081.64</ele>
        <time>2025-04-15T15:56:51.846Z</time>
      </trkpt>
      <trkpt lat="44.94404" lon="3.79647">
        <ele>1081.22</ele>
        <time>2025-04-15T15:56:56.219Z</time>
      </trkpt>
      <trkpt lat="44.94423" lon="3.79612">
        <ele>1080.79</ele>
        <time>2025-04-15T15:57:00.597Z</time>
      </trkpt>
      <trkpt lat="44.94443" lon="3.79578">
        <ele>1080.37</ele>
        <time>2025-04-15T15:57:04.980Z</time>
      </trkpt>
      <trkpt lat="44.94462" lon="3.79543">
        <ele>1079.93</ele>
        <time>2025-04-15T15:57:09.368Z</time>
      </trkpt>
      <trkpt lat="44.94462" lon="3.79543">
        <ele>1079.54</ele>
        <time>2025-04-15T15:57:13.756Z</time>
      </trkpt>
      <trkpt lat="44.94481" lon="3.79509">
        <ele>1079.08</ele>
        <time>2025-04-15T15:57:18.149Z</time>
      </trkpt>
      <trkpt lat="44.945" lon="3.79478">
        <ele>1078.69</ele>
        <time>2025-04-15T15:57:22.546Z</time>
      </trkpt>
      <trkpt lat="44.94513" lon="3.79465">
        <ele>1078.33</ele>
        <time>2025-04-15T15:57:26.946Z</time>
      </trkpt>
      <trkpt lat="44.94532" lon="3.79448">
        <ele>1077.94</ele>
        <time>2025-04-15T15:57:31.349Z</time>
      </trkpt>
      <trkpt lat="44.94551" lon="3.79431">
        <ele>1077.56</ele>
        <time>2025-04-15T15:57:35.756Z</time>
      </trkpt>
      <trkpt lat="44.9457" lon="3.79414">
        <ele>1077.14</ele>
        <time>2025-04-15T15:57:40.167Z</time>
      </trkpt>
      <trkpt lat="44.94585" lon="3.79397">
        <ele>1076.75</ele>
        <time>2025-04-15T15:57:44.581Z</time>
      </trkpt>
      <trkpt lat="44.946" lon="3.79381">
        <ele>1076.33</ele>
        <time>2025-04-15T15:57:48.998Z</time>
      </trkpt>
      <trkpt lat="44.94621" lon="3.79354">
        <ele>1075.98</ele>
        <time>2025-04-15T15:57:53.419Z</time>
      </trkpt>
      <trkpt lat="44.94642" lon="3.79326">
        <ele>1075.64</ele>
        <time>2025-04-15T15:57:57.845Z</time>
      </trkpt>
      <trkpt lat="44.94664" lon="3.79299">
        <ele>1075.22</ele>
        <time>2025-04-15T15:58:02.276Z</time>
      </trkpt>
      <trkpt lat="44.94679" lon="3.79283">
        <ele>1074.78</ele>
        <time>2025-04-15T15:58:06.710Z</time>
      </trkpt>
      <trkpt lat="44.94682" lon="3.79278">
        <ele>1074.33</ele>
        <time>2025-04-15T15:58:11.144Z</time>
      </trkpt>
      <trkpt lat="44.94688" lon="3.79273">
        <ele>1073.85</ele>
        <time>2025-04-15T15:58:15.579Z</time>
      </trkpt>
      <trkpt lat="44.94713" lon="3.79256">
        <ele>1073.32</ele>
        <time>2025-04-15T15:58:20.019Z</time>
      </trkpt>
      <trkpt lat="44.94735" lon="3.79247">
        <ele>1072.78</ele>
        <time>2025-04-15T15:58:24.463Z</time>
      </trkpt>
      <trkpt lat="44.94752" lon="3.79244">
        <ele>1072.2</ele>
        <time>2025-04-15T15:58:28.909Z</time>
      </trkpt>
      <trkpt lat="44.9478" lon="3.79234">
        <ele>1071.62</ele>
        <time>2025-04-15T15:58:33.360Z</time>
      </trkpt>
      <trkpt lat="44.94798" lon="3.79225">
        <ele>1071.01</ele>
        <time>2025-04-15T15:58:37.814Z</time>
      </trkpt>
      <trkpt lat="44.94816" lon="3.79216">
        <ele>1070.37</ele>
        <time>2025-04-15T15:58:42.271Z</time>
      </trkpt>
      <trkpt lat="44.94838" lon="3.79213">
        <ele>1069.71</ele>
        <time>2025-04-15T15:58:46.732Z</time>
      </trkpt>
      <trkpt lat="44.94861" lon="3.79211">
        <ele>1069</ele>
        <time>2025-04-15T15:58:51.196Z</time>
      </trkpt>
      <trkpt lat="44.94882" lon="3.79204">
        <ele>1068.28</ele>
        <time>2025-04-15T15:58:55.664Z</time>
      </trkpt>
      <trkpt lat="44.94903" lon="3.79198">
        <ele>1067.51</ele>
        <time>2025-04-15T15:59:00.135Z</time>
      </trkpt>
      <trkpt lat="44.94924" lon="3.79187">
        <ele>1066.76</ele>
        <time>2025-04-15T15:59:04.610Z</time>
      </trkpt>
      <trkpt lat="44.94944" lon="3.79176">
        <ele>1066.04</ele>
        <time>2025-04-15T15:59:09.088Z</time>
      </trkpt>
      <trkpt lat="44.94965" lon="3.79165">
        <ele>1065.29</ele>
        <time>2025-04-15T15:59:13.570Z</time>
      </trkpt>
      <trkpt lat="44.94988" lon="3.79147">
        <ele>1064.46</ele>
        <time>2025-04-15T15:59:18.056Z</time>
      </trkpt>
      <trkpt lat="44.95011" lon="3.7913">
        <ele>1063.6</ele>
        <time>2025-04-15T15:59:22.546Z</time>
      </trkpt>
      <trkpt lat="44.95041" lon="3.7912">
        <ele>1062.72</ele>
        <time>2025-04-15T15:59:27.041Z</time>
      </trkpt>
      <trkpt lat="44.9507" lon="3.7911">
        <ele>1061.91</ele>
        <time>2025-04-15T15:59:31.541Z</time>
      </trkpt>
      <trkpt lat="44.95088" lon="3.79103">
        <ele>1061.07</ele>
        <time>2025-04-15T15:59:36.044Z</time>
      </trkpt>
      <trkpt lat="44.95106" lon="3.79097">
        <ele>1060.19</ele>
        <time>2025-04-15T15:59:40.550Z</time>
      </trkpt>
      <trkpt lat="44.9512" lon="3.79087">
        <ele>1059.29</ele>
        <time>2025-04-15T15:59:45.058Z</time>
      </trkpt>
      <trkpt lat="44.95126" lon="3.79079">
        <ele>1058.41</ele>
        <time>2025-04-15T15:59:49.568Z</time>
      </trkpt>
      <trkpt lat="44.95136" lon="3.79063">
        <ele>1057.51</ele>
        <time>2025-04-15T15:59:54.080Z</time>
      </trkpt>
      <trkpt lat="44.95155" lon="3.79029">
        <ele>1056.58</ele>
        <time>2025-04-15T15:59:58.597Z</time>
      </trkpt>
      <trkpt lat="44.95174" lon="3.78995">
        <ele>1055.63</ele>
        <time>2025-04-15T16:00:03.119Z</time>
      </trkpt>
      <trkpt lat="44.95187" lon="3.78968">
        <ele>1054.74</ele>
        <time>2025-04-15T16:00:07.644Z</time>
      </trkpt>
      <trkpt lat="44.95199" lon="3.78941">
        <ele>1053.84</ele>
        <time>2025-04-15T16:00:12.173Z</time>
      </trkpt>
      <trkpt lat="44.9521" lon="3.78925">
        <ele>1052.93</ele>
        <time>2025-04-15T16:00:16.705Z</time>
      </trkpt>
      <trkpt lat="44.95225" lon="3.78916">
        <ele>1052.02</ele>
        <time>2025-04-15T16:00:21.239Z</time>
      </trkpt>
      <trkpt lat="44.95242" lon="3.78911">
        <ele>1051.11</ele>
        <time>2025-04-15T16:00:25.776Z</time>
      </trkpt>
      <trkpt lat="44.95258" lon="3.78915">
        <ele>1050.22</ele>
        <time>2025-04-15T16:00:30.316Z</time>
      </trkpt>
      <trkpt lat="44.95275" lon="3.78918">
        <ele>1049.33</ele>
        <time>2025-04-15T16:00:34.858Z</time>
      </trkpt>
      <trkpt lat="44.95286" lon="3.78912">
        <ele>1048.48</ele>
        <time>2025-04-15T16:00:39.402Z</time>
      </trkpt>
      <trkpt lat="44.95286" lon="3.78912">
        <ele>1047.68</ele>
        <time>2025-04-15T16:00:43.946Z</time>
      </trkpt>
      <trkpt lat="44.95309" lon="3.78886">
        <ele>1046.83</ele>
        <time>2025-04-15T16:00:48.495Z</time>
      </trkpt>
      <trkpt lat="44.95332" lon="3.78859">
        <ele>1046.06</ele>
        <time>2025-04-15T16:00:53.049Z</time>
      </trkpt>
      <trkpt lat="44.95356" lon="3.78833">
        <ele>1045.34</ele>
        <time>2025-04-15T16:00:57.608Z</time>
      </trkpt>
      <trkpt lat="44.95379" lon="3.78806">
        <ele>1044.59</ele>
        <time>2025-04-15T16:01:02.171Z</time>
      </trkpt>
      <trkpt lat="44.95392" lon="3.788">
        <ele>1043.85</ele>
        <time>2025-04-15T16:01:06.737Z</time>
      </trkpt>
      <trkpt lat="44.95405" lon="3.78796">
        <ele>1043.15</ele>
        <time>2025-04-15T16:01:11.305Z</time>
      </trkpt>
      <trkpt lat="44.9542" lon="3.78787">
        <ele>1042.46</ele>
        <time>2025-04-15T16:01:15.875Z</time>
      </trkpt>
      <trkpt lat="44.95437" lon="3.78771">
        <ele>1041.78</ele>
        <time>2025-04-15T16:01:20.449Z</time>
      </trkpt>
      <trkpt lat="44.95453" lon="3.78745">
        <ele>1041.19</ele>
        <time>2025-04-15T16:01:25.027Z</time>
      </trkpt>
      <trkpt lat="44.95463" lon="3.78724">
        <ele>1040.65</ele>
        <time>2025-04-15T16:01:29.607Z</time>
      </trkpt>
      <trkpt lat="44.95474" lon="3.78702">
        <ele>1040.14</ele>
        <time>2025-04-15T16:01:34.190Z</time>
      </trkpt>
      <trkpt lat="44.9549" lon="3.78672">
        <ele>1039.67</ele>
        <time>2025-04-15T16:01:38.778Z</time>
      </trkpt>
      <trkpt lat="44.9551" lon="3.78647">
        <ele>1039.2</ele>
        <time>2025-04-15T16:01:43.370Z</time>
      </trkpt>
      <trkpt lat="44.95534" lon="3.78628">
        <ele>1038.71</ele>
        <time>2025-04-15T16:01:47.966Z</time>
      </trkpt>
      <trkpt lat="44.95554" lon="3.78611">
        <ele>1038.29</ele>
        <time>2025-04-15T16:01:52.566Z</time>
      </trkpt>
      <trkpt lat="44.95574" lon="3.78591">
        <ele>1037.94</ele>
        <time>2025-04-15T16:01:57.170Z</time>
      </trkpt>
      <trkpt lat="44.95594" lon="3.78567">
        <ele>1037.6</ele>
        <time>2025-04-15T16:02:01.778Z</time>
      </trkpt>
      <trkpt lat="44.95614" lon="3.78544">
        <ele>1037.26</ele>
        <time>2025-04-15T16:02:06.390Z</time>
      </trkpt>
      <trkpt lat="44.95633" lon="3.78521">
        <ele>1036.89</ele>
        <time>2025-04-15T16:02:11.006Z</time>
      </trkpt>
      <trkpt lat="44.95653" lon="3.78502">
        <ele>1036.56</ele>
        <time>2025-04-15T16:02:15.626Z</time>
      </trkpt>
      <trkpt lat="44.95672" lon="3.78491">
        <ele>1036.27</ele>
        <time>2025-04-15T16:02:20.250Z</time>
      </trkpt>
      <trkpt lat="44.95691" lon="3.78481">
        <ele>1036.01</ele>
        <time>2025-04-15T16:02:24.877Z</time>
      </trkpt>
      <trkpt lat="44.95713" lon="3.78472">
        <ele>1035.82</ele>
        <time>2025-04-15T16:02:29.507Z</time>
      </trkpt>
      <trkpt lat="44.95731" lon="3.78459">
        <ele>1035.67</ele>
        <time>2025-04-15T16:02:34.141Z</time>
      </trkpt>
      <trkpt lat="44.95747" lon="3.78437">
        <ele>1035.51</ele>
        <time>2025-04-15T16:02:38.778Z</time>
      </trkpt>
      <trkpt lat="44.95763" lon="3.78415">
        <ele>1035.37</ele>
        <time>2025-04-15T16:02:43.419Z</time>
      </trkpt>
      <trkpt lat="44.95773" lon="3.78406">
        <ele>1035.23</ele>
        <time>2025-04-15T16:02:48.062Z</time>
      </trkpt>
      <trkpt lat="44.95791" lon="3.7839">
        <ele>1035.13</ele>
        <time>2025-04-15T16:02:52.708Z</time>
      </trkpt>
      <trkpt lat="44.95806" lon="3.78379">
        <ele>1035.03</ele>
        <time>2025-04-15T16:02:57.357Z</time>
      </trkpt>
      <trkpt lat="44.9582" lon="3.78369">
        <ele>1034.93</ele>
        <time>2025-04-15T16:03:02.008Z</time>
      </trkpt>
      <trkpt lat="44.9584" lon="3.78351">
        <ele>1034.87</ele>
        <time>2025-04-15T16:03:06.663Z</time>
      </trkpt>
      <trkpt lat="44.9586" lon="3.78333">
        <ele>1034.86</ele>
        <time>2025-04-15T16:03:11.322Z</time>
      </trkpt>
      <trkpt lat="44.9588" lon="3.78315">
        <ele>1034.92</ele>
        <time>2025-04-15T16:03:15.985Z</time>
      </trkpt>
      <trkpt lat="44.9591" lon="3.78303">
        <ele>1034.94</ele>
        <time>2025-04-15T16:03:20.653Z</time>
      </trkpt>
      <trkpt lat="44.95922" lon="3.78302">
        <ele>1035</ele>
        <time>2025-04-15T16:03:25.323Z</time>
      </trkpt>
      <trkpt lat="44.95937" lon="3.78303">
        <ele>1035.06</ele>
        <time>2025-04-15T16:03:29.995Z</time>
      </trkpt>
      <trkpt lat="44.95951" lon="3.78303">
        <ele>1035.15</ele>
        <time>2025-04-15T16:03:34.669Z</time>
      </trkpt>
      <trkpt lat="44.95956" lon="3.78303">
        <ele>1035.29</ele>
        <time>2025-04-15T16:03:39.344Z</time>
      </trkpt>
      <trkpt lat="44.95968" lon="3.78293">
        <ele>1035.47</ele>
        <time>2025-04-15T16:03:44.021Z</time>
      </trkpt>
      <trkpt lat="44.95989" lon="3.78268">
        <ele>1035.66</ele>
        <time>2025-04-15T16:03:48.703Z</time>
      </trkpt>
      <trkpt lat="44.96007" lon="3.78243">
        <ele>1035.9</ele>
        <time>2025-04-15T16:03:53.389Z</time>
      </trkpt>
      <trkpt lat="44.96025" lon="3.78218">
        <ele>1036.13</ele>
        <time>2025-04-15T16:03:58.079Z</time>
      </trkpt>
      <trkpt lat="44.96043" lon="3.78193">
        <ele>1036.42</ele>
        <time>2025-04-15T16:04:02.773Z</time>
      </trkpt>
      <trkpt lat="44.9606" lon="3.78171">
        <ele>1036.68</ele>
        <time>2025-04-15T16:04:07.471Z</time>
      </trkpt>
      <trkpt lat="44.96066" lon="3.78165">
        <ele>1036.96</ele>
        <time>2025-04-15T16:04:12.170Z</time>
      </trkpt>
      <trkpt lat="44.96075" lon="3.78156">
        <ele>1037.26</ele>
        <time>2025-04-15T16:04:16.871Z</time>
      </trkpt>
      <trkpt lat="44.96104" lon="3.78139">
        <ele>1037.57</ele>
        <time>2025-04-15T16:04:21.577Z</time>
      </trkpt>
      <trkpt lat="44.96122" lon="3.78127">
        <ele>1037.93</ele>
        <time>2025-04-15T16:04:26.286Z</time>
      </trkpt>
      <trkpt lat="44.96139" lon="3.78115">
        <ele>1038.26</ele>
        <time>2025-04-15T16:04:30.998Z</time>
      </trkpt>
      <trkpt lat="44.96147" lon="3.78108">
        <ele>1038.6</ele>
        <time>2025-04-15T16:04:35.711Z</time>
      </trkpt>
      <trkpt lat="44.96152" lon="3.781">
        <ele>1038.96</ele>
        <time>2025-04-15T16:04:40.425Z</time>
      </trkpt>
      <trkpt lat="44.96161" lon="3.7806">
        <ele>1039.38</ele>
        <time>2025-04-15T16:04:45.144Z</time>
      </trkpt>
      <trkpt lat="44.96174" lon="3.78044">
        <ele>1039.73</ele>
        <time>2025-04-15T16:04:49.866Z</time>
      </trkpt>
      <trkpt lat="44.96187" lon="3.78028">
        <ele>1040.1</ele>
        <time>2025-04-15T16:04:54.591Z</time>
      </trkpt>
      <trkpt lat="44.9621" lon="3.78012">
        <ele>1040.47</ele>
        <time>2025-04-15T16:04:59.320Z</time>
      </trkpt>
      <trkpt lat="44.96226" lon="3.77996">
        <ele>1040.82</ele>
        <time>2025-04-15T16:05:04.052Z</time>
      </trkpt>
      <trkpt lat="44.96239" lon="3.77978">
        <ele>1041.23</ele>
        <time>2025-04-15T16:05:08.787Z</time>
      </trkpt>
      <trkpt lat="44.96251" lon="3.7796">
        <ele>1041.66</ele>
        <time>2025-04-15T16:05:13.525Z</time>
      </trkpt>
      <trkpt lat="44.96267" lon="3.7793">
        <ele>1042.05</ele>
        <time>2025-04-15T16:05:18.267Z</time>
      </trkpt>
      <trkpt lat="44.96279" lon="3.77902">
        <ele>1042.44</ele>
        <time>2025-04-15T16:05:23.013Z</time>
      </trkpt>
      <trkpt lat="44.9629" lon="3.77874">
        <ele>1042.81</ele>
        <time>2025-04-15T16:05:27.762Z</time>
      </trkpt>
      <trkpt lat="44.96299" lon="3.77857">
        <ele>1043.18</ele>
        <time>2025-04-15T16:05:32.514Z</time>
      </trkpt>
      <trkpt lat="44.96308" lon="3.77848">
        <ele>1043.52</ele>
        <time>2025-04-15T16:05:37.268Z</time>
      </trkpt>
      <trkpt lat="44.96329" lon="3.77839">
        <ele>1043.85</ele>
        <time>2025-04-15T16:05:42.025Z</time>
      </trkpt>
      <trkpt lat="44.96349" lon="3.77829">
        <ele>1044.17</ele>
        <time>2025-04-15T16:05:46.785Z</time>
      </trkpt>
      <trkpt lat="44.96369" lon="3.77819">
        <ele>1044.47</ele>
        <time>2025-04-15T16:05:51.549Z</time>
      </trkpt>
      <trkpt lat="44.96386" lon="3.77812">
        <ele>1044.74</ele>
        <time>2025-04-15T16:05:56.316Z</time>
      </trkpt>
      <trkpt lat="44.96403" lon="3.77805">
        <ele>1044.98</ele>
        <time>2025-04-15T16:06:01.085Z</time>
      </trkpt>
      <trkpt lat="44.96412" lon="3.77799">
        <ele>1045.2</ele>
        <time>2025-04-15T16:06:05.856Z</time>
      </trkpt>
      <trkpt lat="44.96429" lon="3.77775">
        <ele>1045.46</ele>
        <time>2025-04-15T16:06:10.631Z</time>
      </trkpt>
      <trkpt lat="44.96447" lon="3.77755">
        <ele>1045.66</ele>
        <time>2025-04-15T16:06:15.410Z</time>
      </trkpt>
      <trkpt lat="44.96465" lon="3.77736">
        <ele>1045.86</ele>
        <time>2025-04-15T16:06:20.192Z</time>
      </trkpt>
      <trkpt lat="44.96486" lon="3.77714">
        <ele>1046.05</ele>
        <time>2025-04-15T16:06:24.978Z</time>
      </trkpt>
      <trkpt lat="44.96509" lon="3.77713">
        <ele>1046.16</ele>
        <time>2025-04-15T16:06:29.768Z</time>
      </trkpt>
      <trkpt lat="44.96523" lon="3.77706">
        <ele>1046.28</ele>
        <time>2025-04-15T16:06:34.560Z</time>
      </trkpt>
      <trkpt lat="44.96545" lon="3.77687">
        <ele>1046.41</ele>
        <time>2025-04-15T16:06:39.357Z</time>
      </trkpt>
      <trkpt lat="44.96568" lon="3.77679">
        <ele>1046.51</ele>
        <time>2025-04-15T16:06:44.157Z</time>
      </trkpt>
      <trkpt lat="44.9659" lon="3.77671">
        <ele>1046.59</ele>
        <time>2025-04-15T16:06:48.961Z</time>
      </trkpt>
      <trkpt lat="44.96612" lon="3.77663">
        <ele>1046.61</ele>
        <time>2025-04-15T16:06:53.769Z</time>
      </trkpt>
      <trkpt lat="44.96634" lon="3.77653">
        <ele>1046.64</ele>
        <time>2025-04-15T16:06:58.580Z</time>
      </trkpt>
      <trkpt lat="44.96656" lon="3.77643">
        <ele>1046.6</ele>
        <time>2025-04-15T16:07:03.395Z</time>
      </trkpt>
      <trkpt lat="44.96681" lon="3.77644">
        <ele>1046.52</ele>
        <time>2025-04-15T16:07:08.214Z</time>
      </trkpt>
      <trkpt lat="44.96706" lon="3.77644">
        <ele>1046.46</ele>
        <time>2025-04-15T16:07:13.037Z</time>
      </trkpt>
      <trkpt lat="44.96706" lon="3.77644">
        <ele>1046.41</ele>
        <time>2025-04-15T16:07:17.860Z</time>
      </trkpt>
      <trkpt lat="44.96715" lon="3.77643">
        <ele>1046.35</ele>
        <time>2025-04-15T16:07:22.684Z</time>
      </trkpt>
      <trkpt lat="44.96722" lon="3.77638">
        <ele>1046.29</ele>
        <time>2025-04-15T16:07:27.510Z</time>
      </trkpt>
      <trkpt lat="44.96732" lon="3.77627">
        <ele>1046.21</ele>
        <time>2025-04-15T16:07:32.338Z</time>
      </trkpt>
      <trkpt lat="44.96752" lon="3.77599">
        <ele>1046.13</ele>
        <time>2025-04-15T16:07:37.170Z</time>
      </trkpt>
      <trkpt lat="44.96764" lon="3.77579">
        <ele>1046.02</ele>
        <time>2025-04-15T16:07:42.005Z</time>
      </trkpt>
      <trkpt lat="44.96775" lon="3.77559">
        <ele>1045.92</ele>
        <time>2025-04-15T16:07:46.843Z</time>
      </trkpt>
      <trkpt lat="44.96796" lon="3.77536">
        <ele>1045.83</ele>
        <time>2025-04-15T16:07:51.685Z</time>
      </trkpt>
      <trkpt lat="44.96818" lon="3.77518">
        <ele>1045.71</ele>
        <time>2025-04-15T16:07:56.531Z</time>
      </trkpt>
      <trkpt lat="44.96841" lon="3.77504">
        <ele>1045.54</ele>
        <time>2025-04-15T16:08:01.382Z</time>
      </trkpt>
      <trkpt lat="44.96866" lon="3.77494">
        <ele>1045.33</ele>
        <time>2025-04-15T16:08:06.237Z</time>
      </trkpt>
      <trkpt lat="44.96891" lon="3.7748">
        <ele>1045.14</ele>
        <time>2025-04-15T16:08:11.096Z</time>
      </trkpt>
      <trkpt lat="44.96917" lon="3.77466">
        <ele>1044.99</ele>
        <time>2025-04-15T16:08:15.959Z</time>
      </trkpt>
      <trkpt lat="44.96936" lon="3.7745">
        <ele>1044.82</ele>
        <time>2025-04-15T16:08:20.826Z</time>
      </trkpt>
      <trkpt lat="44.96955" lon="3.77434">
        <ele>1044.66</ele>
        <time>2025-04-15T16:08:25.697Z</time>
      </trkpt>
      <trkpt lat="44.96975" lon="3.77418">
        <ele>1044.51</ele>
        <time>2025-04-15T16:08:30.571Z</time>
      </trkpt>
      <trkpt lat="44.9699" lon="3.77407">
        <ele>1044.36</ele>
        <time>2025-04-15T16:08:35.448Z</time>
      </trkpt>
      <trkpt lat="44.97005" lon="3.77395">
        <ele>1044.24</ele>
        <time>2025-04-15T16:08:40.328Z</time>
      </trkpt>
      <trkpt lat="44.97029" lon="3.77381">
        <ele>1044.1</ele>
        <time>2025-04-15T16:08:45.212Z</time>
      </trkpt>
      <trkpt lat="44.97054" lon="3.77368">
        <ele>1043.96</ele>
        <time>2025-04-15T16:08:50.100Z</time>
      </trkpt>
      <trkpt lat="44.97079" lon="3.77354">
        <ele>1043.85</ele>
        <time>2025-04-15T16:08:54.992Z</time>
      </trkpt>
      <trkpt lat="44.97089" lon="3.77345">
        <ele>1043.74</ele>
        <time>2025-04-15T16:08:59.886Z</time>
      </trkpt>
      <trkpt lat="44.97103" lon="3.7733">
        <ele>1043.61</ele>
        <time>2025-04-15T16:09:04.783Z</time>
      </trkpt>
      <trkpt lat="44.97114" lon="3.77306">
        <ele>1043.49</ele>
        <time>2025-04-15T16:09:09.683Z</time>
      </trkpt>
      <trkpt lat="44.97125" lon="3.77283">
        <ele>1043.36</ele>
        <time>2025-04-15T16:09:14.586Z</time>
      </trkpt>
      <trkpt lat="44.97143" lon="3.77253">
        <ele>1043.27</ele>
        <time>2025-04-15T16:09:19.494Z</time>
      </trkpt>
      <trkpt lat="44.97161" lon="3.77222">
        <ele>1043.16</ele>
        <time>2025-04-15T16:09:24.406Z</time>
      </trkpt>
      <trkpt lat="44.97178" lon="3.77192">
        <ele>1043.07</ele>
        <time>2025-04-15T16:09:29.323Z</time>
      </trkpt>
      <trkpt lat="44.97196" lon="3.77162">
        <ele>1042.99</ele>
        <time>2025-04-15T16:09:34.244Z</time>
      </trkpt>
      <trkpt lat="44.97214" lon="3.77132">
        <ele>1042.93</ele>
        <time>2025-04-15T16:09:39.170Z</time>
      </trkpt>
      <trkpt lat="44.97232" lon="3.77101">
        <ele>1042.89</ele>
        <time>2025-04-15T16:09:44.100Z</time>
      </trkpt>
      <trkpt lat="44.9724" lon="3.77085">
        <ele>1042.89</ele>
        <time>2025-04-15T16:09:49.032Z</time>
      </trkpt>
      <trkpt lat="44.97247" lon="3.7705">
        <ele>1042.92</ele>
        <time>2025-04-15T16:09:53.969Z</time>
      </trkpt>
      <trkpt lat="44.97255" lon="3.77016">
        <ele>1042.95</ele>
        <time>2025-04-15T16:09:58.910Z</time>
      </trkpt>
      <trkpt lat="44.97265" lon="3.76985">
        <ele>1042.99</ele>
        <time>2025-04-15T16:10:03.855Z</time>
      </trkpt>
      <trkpt lat="44.97279" lon="3.76961">
        <ele>1042.99</ele>
        <time>2025-04-15T16:10:08.803Z</time>
      </trkpt>
      <trkpt lat="44.97295" lon="3.76936">
        <ele>1042.99</ele>
        <time>2025-04-15T16:10:13.755Z</time>
      </trkpt>
      <trkpt lat="44.97311" lon="3.76912">
        <ele>1043.01</ele>
        <time>2025-04-15T16:10:18.711Z</time>
      </trkpt>
      <trkpt lat="44.9733" lon="3.76886">
        <ele>1043.11</ele>
        <time>2025-04-15T16:10:23.671Z</time>
      </trkpt>
      <trkpt lat="44.97341" lon="3.76872">
        <ele>1043.15</ele>
        <time>2025-04-15T16:10:28.633Z</time>
      </trkpt>
      <trkpt lat="44.97351" lon="3.76867">
        <ele>1043.15</ele>
        <time>2025-04-15T16:10:33.597Z</time>
      </trkpt>
      <trkpt lat="44.97366" lon="3.76864">
        <ele>1043.13</ele>
        <time>2025-04-15T16:10:38.563Z</time>
      </trkpt>
      <trkpt lat="44.9739" lon="3.76865">
        <ele>1043.09</ele>
        <time>2025-04-15T16:10:43.533Z</time>
      </trkpt>
      <trkpt lat="44.97414" lon="3.76865">
        <ele>1043.07</ele>
        <time>2025-04-15T16:10:48.507Z</time>
      </trkpt>
      <trkpt lat="44.97443" lon="3.76871">
        <ele>1043.01</ele>
        <time>2025-04-15T16:10:53.486Z</time>
      </trkpt>
      <trkpt lat="44.97454" lon="3.76875">
        <ele>1042.94</ele>
        <time>2025-04-15T16:10:58.467Z</time>
      </trkpt>
      <trkpt lat="44.97467" lon="3.76883">
        <ele>1042.86</ele>
        <time>2025-04-15T16:11:03.450Z</time>
      </trkpt>
      <trkpt lat="44.97486" lon="3.76897">
        <ele>1042.76</ele>
        <time>2025-04-15T16:11:08.436Z</time>
      </trkpt>
      <trkpt lat="44.97505" lon="3.76907">
        <ele>1042.68</ele>
        <time>2025-04-15T16:11:13.426Z</time>
      </trkpt>
      <trkpt lat="44.97524" lon="3.76917">
        <ele>1042.56</ele>
        <time>2025-04-15T16:11:18.419Z</time>
      </trkpt>
      <trkpt lat="44.9754" lon="3.76923">
        <ele>1042.42</ele>
        <time>2025-04-15T16:11:23.414Z</time>
      </trkpt>
      <trkpt lat="44.97551" lon="3.76926">
        <ele>1042.27</ele>
        <time>2025-04-15T16:11:28.411Z</time>
      </trkpt>
      <trkpt lat="44.97561" lon="3.76924">
        <ele>1042.12</ele>
        <time>2025-04-15T16:11:33.410Z</time>
      </trkpt>
      <trkpt lat="44.97574" lon="3.76918">
        <ele>1041.98</ele>
        <time>2025-04-15T16:11:38.411Z</time>
      </trkpt>
      <trkpt lat="44.97596" lon="3.76901">
        <ele>1041.87</ele>
        <time>2025-04-15T16:11:43.416Z</time>
      </trkpt>
      <trkpt lat="44.97617" lon="3.76883">
        <ele>1041.73</ele>
        <time>2025-04-15T16:11:48.425Z</time>
      </trkpt>
      <trkpt lat="44.97639" lon="3.76866">
        <ele>1041.54</ele>
        <time>2025-04-15T16:11:53.438Z</time>
      </trkpt>
      <trkpt lat="44.9766" lon="3.76848">
        <ele>1041.33</ele>
        <time>2025-04-15T16:11:58.455Z</time>
      </trkpt>
      <trkpt lat="44.97671" lon="3.7684">
        <ele>1041.09</ele>
        <time>2025-04-15T16:12:03.474Z</time>
      </trkpt>
      <trkpt lat="44.97691" lon="3.76816">
        <ele>1040.86</ele>
        <time>2025-04-15T16:12:08.497Z</time>
      </trkpt>
      <trkpt lat="44.97711" lon="3.76791">
        <ele>1040.62</ele>
        <time>2025-04-15T16:12:13.524Z</time>
      </trkpt>
      <trkpt lat="44.97721" lon="3.7678">
        <ele>1040.33</ele>
        <time>2025-04-15T16:12:18.554Z</time>
      </trkpt>
      <trkpt lat="44.97735" lon="3.76771">
        <ele>1040.01</ele>
        <time>2025-04-15T16:12:23.586Z</time>
      </trkpt>
      <trkpt lat="44.97759" lon="3.76761">
        <ele>1039.73</ele>
        <time>2025-04-15T16:12:28.622Z</time>
      </trkpt>
      <trkpt lat="44.97782" lon="3.7675">
        <ele>1039.41</ele>
        <time>2025-04-15T16:12:33.662Z</time>
      </trkpt>
      <trkpt lat="44.97805" lon="3.7674">
        <ele>1039.04</ele>
        <time>2025-04-15T16:12:38.706Z</time>
      </trkpt>
      <trkpt lat="44.97829" lon="3.76729">
        <ele>1038.68</ele>
        <time>2025-04-15T16:12:43.754Z</time>
      </trkpt>
      <trkpt lat="44.97845" lon="3.76725">
        <ele>1038.33</ele>
        <time>2025-04-15T16:12:48.804Z</time>
      </trkpt>
      <trkpt lat="44.97862" lon="3.76721">
        <ele>1037.96</ele>
        <time>2025-04-15T16:12:53.857Z</time>
      </trkpt>
      <trkpt lat="44.97885" lon="3.76711">
        <ele>1037.59</ele>
        <time>2025-04-15T16:12:58.914Z</time>
      </trkpt>
      <trkpt lat="44.97905" lon="3.76696">
        <ele>1037.26</ele>
        <time>2025-04-15T16:13:03.975Z</time>
      </trkpt>
      <trkpt lat="44.97921" lon="3.76676">
        <ele>1036.98</ele>
        <time>2025-04-15T16:13:09.039Z</time>
      </trkpt>
      <trkpt lat="44.97938" lon="3.76656">
        <ele>1036.7</ele>
        <time>2025-04-15T16:13:14.106Z</time>
      </trkpt>
      <trkpt lat="44.97954" lon="3.76636">
        <ele>1036.46</ele>
        <time>2025-04-15T16:13:19.177Z</time>
      </trkpt>
      <trkpt lat="44.97974" lon="3.76615">
        <ele>1036.24</ele>
        <time>2025-04-15T16:13:24.252Z</time>
      </trkpt>
      <trkpt lat="44.97994" lon="3.76594">
        <ele>1036</ele>
        <time>2025-04-15T16:13:29.331Z</time>
      </trkpt>
      <trkpt lat="44.98018" lon="3.7657">
        <ele>1035.77</ele>
        <time>2025-04-15T16:13:34.415Z</time>
      </trkpt>
      <trkpt lat="44.98038" lon="3.76558">
        <ele>1035.57</ele>
        <time>2025-04-15T16:13:39.502Z</time>
      </trkpt>
      <trkpt lat="44.98057" lon="3.76549">
        <ele>1035.42</ele>
        <time>2025-04-15T16:13:44.592Z</time>
      </trkpt>
      <trkpt lat="44.98084" lon="3.76544">
        <ele>1035.26</ele>
        <time>2025-04-15T16:13:49.687Z</time>
      </trkpt>
      <trkpt lat="44.98114" lon="3.76542">
        <ele>1035.09</ele>
        <time>2025-04-15T16:13:54.787Z</time>
      </trkpt>
      <trkpt lat="44.98145" lon="3.7654">
        <ele>1034.93</ele>
        <time>2025-04-15T16:13:59.891Z</time>
      </trkpt>
      <trkpt lat="44.98175" lon="3.76538">
        <ele>1034.9</ele>
        <time>2025-04-15T16:14:05.000Z</time>
      </trkpt>
      <trkpt lat="44.98197" lon="3.76535">
        <ele>1034.93</ele>
        <time>2025-04-15T16:14:10.113Z</time>
      </trkpt>
      <trkpt lat="44.98217" lon="3.76517">
        <ele>1035</ele>
        <time>2025-04-15T16:14:15.230Z</time>
      </trkpt>
      <trkpt lat="44.98237" lon="3.76499">
        <ele>1035.06</ele>
        <time>2025-04-15T16:14:20.350Z</time>
      </trkpt>
      <trkpt lat="44.98257" lon="3.7648">
        <ele>1035.11</ele>
        <time>2025-04-15T16:14:25.474Z</time>
      </trkpt>
      <trkpt lat="44.98277" lon="3.76462">
        <ele>1035.25</ele>
        <time>2025-04-15T16:14:30.602Z</time>
      </trkpt>
      <trkpt lat="44.98293" lon="3.76434">
        <ele>1035.43</ele>
        <time>2025-04-15T16:14:35.734Z</time>
      </trkpt>
      <trkpt lat="44.98303" lon="3.76402">
        <ele>1035.69</ele>
        <time>2025-04-15T16:14:40.870Z</time>
      </trkpt>
      <trkpt lat="44.98313" lon="3.76371">
        <ele>1035.95</ele>
        <time>2025-04-15T16:14:46.010Z</time>
      </trkpt>
      <trkpt lat="44.98319" lon="3.76356">
        <ele>1036.22</ele>
        <time>2025-04-15T16:14:51.152Z</time>
      </trkpt>
      <trkpt lat="44.98308" lon="3.76323">
        <ele>1036.54</ele>
        <time>2025-04-15T16:14:56.298Z</time>
      </trkpt>
      <trkpt lat="44.983" lon="3.76313">
        <ele>1036.87</ele>
        <time>2025-04-15T16:15:01.446Z</time>
      </trkpt>
      <trkpt lat="44.98275" lon="3.76304">
        <ele>1037.21</ele>
        <time>2025-04-15T16:15:06.598Z</time>
      </trkpt>
      <trkpt lat="44.98245" lon="3.76296">
        <ele>1037.58</ele>
        <time>2025-04-15T16:15:11.755Z</time>
      </trkpt>
      <trkpt lat="44.98215" lon="3.76287">
        <ele>1037.99</ele>
        <time>2025-04-15T16:15:16.917Z</time>
      </trkpt>
      <trkpt lat="44.98187" lon="3.76273">
        <ele>1038.44</ele>
        <time>2025-04-15T16:15:22.083Z</time>
      </trkpt>
      <trkpt lat="44.98177" lon="3.76249">
        <ele>1038.92</ele>
        <time>2025-04-15T16:15:27.253Z</time>
      </trkpt>
      <trkpt lat="44.98168" lon="3.76217">
        <ele>1039.44</ele>
        <time>2025-04-15T16:15:32.426Z</time>
      </trkpt>
      <trkpt lat="44.98164" lon="3.76182">
        <ele>1039.97</ele>
        <time>2025-04-15T16:15:37.604Z</time>
      </trkpt>
      <trkpt lat="44.98165" lon="3.76158">
        <ele>1040.51</ele>
        <time>2025-04-15T16:15:42.784Z</time>
      </trkpt>
      <trkpt lat="44.98166" lon="3.76134">
        <ele>1041.09</ele>
        <time>2025-04-15T16:15:47.967Z</time>
      </trkpt>
      <trkpt lat="44.98162" lon="3.76117">
        <ele>1041.68</ele>
        <time>2025-04-15T16:15:53.152Z</time>
      </trkpt>
      <trkpt lat="44.98153" lon="3.76103">
        <ele>1042.31</ele>
        <time>2025-04-15T16:15:58.339Z</time>
      </trkpt>
      <trkpt lat="44.98124" lon="3.76089">
        <ele>1043</ele>
        <time>2025-04-15T16:16:03.531Z</time>
      </trkpt>
      <trkpt lat="44.98115" lon="3.76072">
        <ele>1043.7</ele>
        <time>2025-04-15T16:16:08.726Z</time>
      </trkpt>
      <trkpt lat="44.9812" lon="3.7604">
        <ele>1044.39</ele>
        <time>2025-04-15T16:16:13.924Z</time>
      </trkpt>
      <trkpt lat="44.98128" lon="3.76012">
        <ele>1045.1</ele>
        <time>2025-04-15T16:16:19.126Z</time>
      </trkpt>
      <trkpt lat="44.98136" lon="3.75985">
        <ele>1045.83</ele>
        <time>2025-04-15T16:16:24.331Z</time>
      </trkpt>
      <trkpt lat="44.98148" lon="3.7595">
        <ele>1046.56</ele>
        <time>2025-04-15T16:16:29.540Z</time>
      </trkpt>
      <trkpt lat="44.9816" lon="3.75915">
        <ele>1047.29</ele>
        <time>2025-04-15T16:16:34.754Z</time>
      </trkpt>
      <trkpt lat="44.98171" lon="3.7588">
        <ele>1048.08</ele>
        <time>2025-04-15T16:16:39.972Z</time>
      </trkpt>
      <trkpt lat="44.98183" lon="3.75846">
        <ele>1048.89</ele>
        <time>2025-04-15T16:16:45.195Z</time>
      </trkpt>
      <trkpt lat="44.98195" lon="3.75811">
        <ele>1049.69</ele>
        <time>2025-04-15T16:16:50.422Z</time>
      </trkpt>
      <trkpt lat="44.98206" lon="3.75776">
        <ele>1050.49</ele>
        <time>2025-04-15T16:16:55.653Z</time>
      </trkpt>
      <trkpt lat="44.98218" lon="3.75742">
        <ele>1051.29</ele>
        <time>2025-04-15T16:17:00.889Z</time>
      </trkpt>
      <trkpt lat="44.9823" lon="3.75705">
        <ele>1052.12</ele>
        <time>2025-04-15T16:17:06.129Z</time>
      </trkpt>
      <trkpt lat="44.98241" lon="3.75667">
        <ele>1053.04</ele>
        <time>2025-04-15T16:17:11.374Z</time>
      </trkpt>
      <trkpt lat="44.98253" lon="3.75629">
        <ele>1053.91</ele>
        <time>2025-04-15T16:17:16.624Z</time>
      </trkpt>
      <trkpt lat="44.98265" lon="3.75592">
        <ele>1054.74</ele>
        <time>2025-04-15T16:17:21.878Z</time>
      </trkpt>
      <trkpt lat="44.98277" lon="3.75554">
        <ele>1055.6</ele>
        <time>2025-04-15T16:17:27.137Z</time>
      </trkpt>
      <trkpt lat="44.98288" lon="3.75516">
        <ele>1056.54</ele>
        <time>2025-04-15T16:17:32.401Z</time>
      </trkpt>
      <trkpt lat="44.983" lon="3.75479">
        <ele>1057.49</ele>
        <time>2025-04-15T16:17:37.669Z</time>
      </trkpt>
      <trkpt lat="44.98312" lon="3.75441">
        <ele>1058.42</ele>
        <time>2025-04-15T16:17:42.942Z</time>
      </trkpt>
      <trkpt lat="44.98323" lon="3.75404">
        <ele>1059.37</ele>
        <time>2025-04-15T16:17:48.219Z</time>
      </trkpt>
      <trkpt lat="44.9833" lon="3.75381">
        <ele>1060.26</ele>
        <time>2025-04-15T16:17:53.499Z</time>
      </trkpt>
      <trkpt lat="44.98337" lon="3.75358">
        <ele>1061.16</ele>
        <time>2025-04-15T16:17:58.782Z</time>
      </trkpt>
      <trkpt lat="44.98337" lon="3.75358">
        <ele>1062.01</ele>
        <time>2025-04-15T16:18:04.065Z</time>
      </trkpt>
      <trkpt lat="44.98337" lon="3.75358">
        <ele>1062.85</ele>
        <time>2025-04-15T16:18:09.348Z</time>
      </trkpt>
      <trkpt lat="44.98337" lon="3.75358">
        <ele>1063.7</ele>
        <time>2025-04-15T16:18:14.631Z</time>
      </trkpt>
      <trkpt lat="44.98337" lon="3.75358">
        <ele>1064.53</ele>
        <time>2025-04-15T16:18:19.914Z</time>
      </trkpt>
      <trkpt lat="44.98356" lon="3.75325">
        <ele>1065.43</ele>
        <time>2025-04-15T16:18:25.202Z</time>
      </trkpt>
      <trkpt lat="44.98376" lon="3.75293">
        <ele>1066.29</ele>
        <time>2025-04-15T16:18:30.495Z</time>
      </trkpt>
      <trkpt lat="44.98376" lon="3.75293">
        <ele>1067.11</ele>
        <time>2025-04-15T16:18:35.788Z</time>
      </trkpt>
      <trkpt lat="44.98393" lon="3.75258">
        <ele>1067.94</ele>
        <time>2025-04-15T16:18:41.086Z</time>
      </trkpt>
      <trkpt lat="44.9841" lon="3.75224">
        <ele>1068.74</ele>
        <time>2025-04-15T16:18:46.388Z</time>
      </trkpt>
      <trkpt lat="44.98427" lon="3.75189">
        <ele>1069.5</ele>
        <time>2025-04-15T16:18:51.695Z</time>
      </trkpt>
      <trkpt lat="44.98444" lon="3.75155">
        <ele>1070.32</ele>
        <time>2025-04-15T16:18:57.007Z</time>
      </trkpt>
      <trkpt lat="44.98462" lon="3.75121">
        <ele>1071.16</ele>
        <time>2025-04-15T16:19:02.324Z</time>
      </trkpt>
      <trkpt lat="44.98478" lon="3.75085">
        <ele>1071.98</ele>
        <time>2025-04-15T16:19:07.645Z</time>
      </trkpt>
      <trkpt lat="44.98494" lon="3.75049">
        <ele>1072.75</ele>
        <time>2025-04-15T16:19:12.971Z</time>
      </trkpt>
      <trkpt lat="44.9851" lon="3.75014">
        <ele>1073.54</ele>
        <time>2025-04-15T16:19:18.302Z</time>
      </trkpt>
      <trkpt lat="44.98521" lon="3.74986">
        <ele>1074.35</ele>
        <time>2025-04-15T16:19:23.637Z</time>
      </trkpt>
      <trkpt lat="44.98531" lon="3.74958">
        <ele>1075.11</ele>
        <time>2025-04-15T16:19:28.975Z</time>
      </trkpt>
      <trkpt lat="44.98542" lon="3.74931">
        <ele>1075.88</ele>
        <time>2025-04-15T16:19:34.317Z</time>
      </trkpt>
      <trkpt lat="44.98551" lon="3.74904">
        <ele>1076.63</ele>
        <time>2025-04-15T16:19:39.662Z</time>
      </trkpt>
      <trkpt lat="44.98555" lon="3.74875">
        <ele>1077.38</ele>
        <time>2025-04-15T16:19:45.011Z</time>
      </trkpt>
      <trkpt lat="44.98559" lon="3.74846">
        <ele>1078.13</ele>
        <time>2025-04-15T16:19:50.363Z</time>
      </trkpt>
      <trkpt lat="44.98571" lon="3.74811">
        <ele>1078.87</ele>
        <time>2025-04-15T16:19:55.719Z</time>
      </trkpt>
      <trkpt lat="44.98582" lon="3.74776">
        <ele>1079.68</ele>
        <time>2025-04-15T16:20:01.080Z</time>
      </trkpt>
      <trkpt lat="44.98594" lon="3.74741">
        <ele>1080.52</ele>
        <time>2025-04-15T16:20:06.445Z</time>
      </trkpt>
      <trkpt lat="44.98611" lon="3.74713">
        <ele>1081.27</ele>
        <time>2025-04-15T16:20:11.814Z</time>
      </trkpt>
      <trkpt lat="44.98629" lon="3.74685">
        <ele>1082.05</ele>
        <time>2025-04-15T16:20:17.188Z</time>
      </trkpt>
      <trkpt lat="44.98649" lon="3.74662">
        <ele>1082.78</ele>
        <time>2025-04-15T16:20:22.566Z</time>
      </trkpt>
      <trkpt lat="44.98669" lon="3.74638">
        <ele>1083.53</ele>
        <time>2025-04-15T16:20:27.948Z</time>
      </trkpt>
      <trkpt lat="44.98684" lon="3.74625">
        <ele>1084.22</ele>
        <time>2025-04-15T16:20:33.333Z</time>
      </trkpt>
      <trkpt lat="44.987" lon="3.74611">
        <ele>1084.88</ele>
        <time>2025-04-15T16:20:38.721Z</time>
      </trkpt>
      <trkpt lat="44.98722" lon="3.74608">
        <ele>1085.46</ele>
        <time>2025-04-15T16:20:44.112Z</time>
      </trkpt>
      <trkpt lat="44.98744" lon="3.74605">
        <ele>1086.05</ele>
        <time>2025-04-15T16:20:49.507Z</time>
      </trkpt>
      <trkpt lat="44.98752" lon="3.74594">
        <ele>1086.74</ele>
        <time>2025-04-15T16:20:54.904Z</time>
      </trkpt>
      <trkpt lat="44.98781" lon="3.74611">
        <ele>1087.3</ele>
        <time>2025-04-15T16:21:00.306Z</time>
      </trkpt>
      <trkpt lat="44.98791" lon="3.74613">
        <ele>1087.95</ele>
        <time>2025-04-15T16:21:05.709Z</time>
      </trkpt>
      <trkpt lat="44.98796" lon="3.74615">
        <ele>1088.64</ele>
        <time>2025-04-15T16:21:11.113Z</time>
      </trkpt>
      <trkpt lat="44.98811" lon="3.74627">
        <ele>1089.31</ele>
        <time>2025-04-15T16:21:16.520Z</time>
      </trkpt>
      <trkpt lat="44.98833" lon="3.74647">
        <ele>1090.01</ele>
        <time>2025-04-15T16:21:21.931Z</time>
      </trkpt>
      <trkpt lat="44.98855" lon="3.74666">
        <ele>1090.78</ele>
        <time>2025-04-15T16:21:27.346Z</time>
      </trkpt>
      <trkpt lat="44.98862" lon="3.74665">
        <ele>1091.56</ele>
        <time>2025-04-15T16:21:32.762Z</time>
      </trkpt>
      <trkpt lat="44.98865" lon="3.74665">
        <ele>1092.34</ele>
        <time>2025-04-15T16:21:38.179Z</time>
      </trkpt>
      <trkpt lat="44.9887" lon="3.74656">
        <ele>1093.16</ele>
        <time>2025-04-15T16:21:43.597Z</time>
      </trkpt>
      <trkpt lat="44.98879" lon="3.74625">
        <ele>1094.04</ele>
        <time>2025-04-15T16:21:49.019Z</time>
      </trkpt>
      <trkpt lat="44.98895" lon="3.74604">
        <ele>1094.91</ele>
        <time>2025-04-15T16:21:54.444Z</time>
      </trkpt>
      <trkpt lat="44.98911" lon="3.74583">
        <ele>1095.82</ele>
        <time>2025-04-15T16:21:59.873Z</time>
      </trkpt>
      <trkpt lat="44.98927" lon="3.74562">
        <ele>1096.76</ele>
        <time>2025-04-15T16:22:05.305Z</time>
      </trkpt>
      <trkpt lat="44.98943" lon="3.74539">
        <ele>1097.73</ele>
        <time>2025-04-15T16:22:10.741Z</time>
      </trkpt>
      <trkpt lat="44.98953" lon="3.74516">
        <ele>1098.68</ele>
        <time>2025-04-15T16:22:16.180Z</time>
      </trkpt>
      <trkpt lat="44.98964" lon="3.74493">
        <ele>1099.67</ele>
        <time>2025-04-15T16:22:21.622Z</time>
      </trkpt>
      <trkpt lat="44.98974" lon="3.74459">
        <ele>1100.66</ele>
        <time>2025-04-15T16:22:27.068Z</time>
      </trkpt>
      <trkpt lat="44.98985" lon="3.74425">
        <ele>1101.66</ele>
        <time>2025-04-15T16:22:32.519Z</time>
      </trkpt>
      <trkpt lat="44.99008" lon="3.74401">
        <ele>1102.78</ele>
        <time>2025-04-15T16:22:37.974Z</time>
      </trkpt>
      <trkpt lat="44.99031" lon="3.74377">
        <ele>1103.88</ele>
        <time>2025-04-15T16:22:43.434Z</time>
      </trkpt>
      <trkpt lat="44.99047" lon="3.74351">
        <ele>1104.91</ele>
        <time>2025-04-15T16:22:48.898Z</time>
      </trkpt>
      <trkpt lat="44.99063" lon="3.74324">
        <ele>1105.92</ele>
        <time>2025-04-15T16:22:54.366Z</time>
      </trkpt>
      <trkpt lat="44.9908" lon="3.74297">
        <ele>1106.93</ele>
        <time>2025-04-15T16:22:59.838Z</time>
      </trkpt>
      <trkpt lat="44.99096" lon="3.7427">
        <ele>1107.97</ele>
        <time>2025-04-15T16:23:05.314Z</time>
      </trkpt>
      <trkpt lat="44.99092" lon="3.74268">
        <ele>1108.95</ele>
        <time>2025-04-15T16:23:10.790Z</time>
      </trkpt>
      <trkpt lat="44.99092" lon="3.74268">
        <ele>1109.93</ele>
        <time>2025-04-15T16:23:16.266Z</time>
      </trkpt>
      <trkpt lat="44.99074" lon="3.74256">
        <ele>1110.92</ele>
        <time>2025-04-15T16:23:21.746Z</time>
      </trkpt>
      <trkpt lat="44.99055" lon="3.74244">
        <ele>1111.91</ele>
        <time>2025-04-15T16:23:27.229Z</time>
      </trkpt>
      <trkpt lat="44.99035" lon="3.74233">
        <ele>1112.89</ele>
        <time>2025-04-15T16:23:32.715Z</time>
      </trkpt>
      <trkpt lat="44.99015" lon="3.74221">
        <ele>1113.88</ele>
        <time>2025-04-15T16:23:38.205Z</time>
      </trkpt>
      <trkpt lat="44.98997" lon="3.74204">
        <ele>1114.9</ele>
        <time>2025-04-15T16:23:43.698Z</time>
      </trkpt>
      <trkpt lat="44.98979" lon="3.74186">
        <ele>1115.88</ele>
        <time>2025-04-15T16:23:49.195Z</time>
      </trkpt>
      <trkpt lat="44.98966" lon="3.74172">
        <ele>1116.82</ele>
        <time>2025-04-15T16:23:54.694Z</time>
      </trkpt>
      <trkpt lat="44.98954" lon="3.74159">
        <ele>1117.72</ele>
        <time>2025-04-15T16:24:00.196Z</time>
      </trkpt>
      <trkpt lat="44.98934" lon="3.74131">
        <ele>1118.6</ele>
        <time>2025-04-15T16:24:05.702Z</time>
      </trkpt>
      <trkpt lat="44.98929" lon="3.74125">
        <ele>1119.45</ele>
        <time>2025-04-15T16:24:11.209Z</time>
      </trkpt>
      <trkpt lat="44.98908" lon="3.741">
        <ele>1120.29</ele>
        <time>2025-04-15T16:24:16.721Z</time>
      </trkpt>
      <trkpt lat="44.98887" lon="3.74075">
        <ele>1121.1</ele>
        <time>2025-04-15T16:24:22.237Z</time>
      </trkpt>
      <trkpt lat="44.98866" lon="3.7405">
        <ele>1121.92</ele>
        <time>2025-04-15T16:24:27.758Z</time>
      </trkpt>
      <trkpt lat="44.98854" lon="3.74027">
        <ele>1122.73</ele>
        <time>2025-04-15T16:24:33.282Z</time>
      </trkpt>
      <trkpt lat="44.98841" lon="3.74003">
        <ele>1123.52</ele>
        <time>2025-04-15T16:24:38.809Z</time>
      </trkpt>
      <trkpt lat="44.98826" lon="3.73972">
        <ele>1124.23</ele>
        <time>2025-04-15T16:24:44.340Z</time>
      </trkpt>
      <trkpt lat="44.98811" lon="3.73941">
        <ele>1124.94</ele>
        <time>2025-04-15T16:24:49.876Z</time>
      </trkpt>
      <trkpt lat="44.98796" lon="3.7391">
        <ele>1125.65</ele>
        <time>2025-04-15T16:24:55.416Z</time>
      </trkpt>
      <trkpt lat="44.98781" lon="3.7388">
        <ele>1126.34</ele>
        <time>2025-04-15T16:25:00.960Z</time>
      </trkpt>
      <trkpt lat="44.98777" lon="3.73849">
        <ele>1127.04</ele>
        <time>2025-04-15T16:25:06.508Z</time>
      </trkpt>
      <trkpt lat="44.98773" lon="3.7382">
        <ele>1127.71</ele>
        <time>2025-04-15T16:25:12.059Z</time>
      </trkpt>
      <trkpt lat="44.98773" lon="3.73794">
        <ele>1128.34</ele>
        <time>2025-04-15T16:25:17.613Z</time>
      </trkpt>
      <trkpt lat="44.98774" lon="3.73769">
        <ele>1129</ele>
        <time>2025-04-15T16:25:23.170Z</time>
      </trkpt>
      <trkpt lat="44.98775" lon="3.73732">
        <ele>1129.58</ele>
        <time>2025-04-15T16:25:28.731Z</time>
      </trkpt>
      <trkpt lat="44.98776" lon="3.73695">
        <ele>1130.13</ele>
        <time>2025-04-15T16:25:34.296Z</time>
      </trkpt>
      <trkpt lat="44.98772" lon="3.73664">
        <ele>1130.66</ele>
        <time>2025-04-15T16:25:39.865Z</time>
      </trkpt>
      <trkpt lat="44.98767" lon="3.73634">
        <ele>1131.17</ele>
        <time>2025-04-15T16:25:45.437Z</time>
      </trkpt>
      <trkpt lat="44.9876" lon="3.73593">
        <ele>1131.68</ele>
        <time>2025-04-15T16:25:51.014Z</time>
      </trkpt>
      <trkpt lat="44.98753" lon="3.73551">
        <ele>1132.19</ele>
        <time>2025-04-15T16:25:56.596Z</time>
      </trkpt>
      <trkpt lat="44.98746" lon="3.7351">
        <ele>1132.62</ele>
        <time>2025-04-15T16:26:02.183Z</time>
      </trkpt>
      <trkpt lat="44.98739" lon="3.73468">
        <ele>1133.01</ele>
        <time>2025-04-15T16:26:07.775Z</time>
      </trkpt>
      <trkpt lat="44.98732" lon="3.73427">
        <ele>1133.44</ele>
        <time>2025-04-15T16:26:13.372Z</time>
      </trkpt>
      <trkpt lat="44.98725" lon="3.73385">
        <ele>1133.88</ele>
        <time>2025-04-15T16:26:18.973Z</time>
      </trkpt>
      <trkpt lat="44.98718" lon="3.73344">
        <ele>1134.28</ele>
        <time>2025-04-15T16:26:24.579Z</time>
      </trkpt>
      <trkpt lat="44.98712" lon="3.73303">
        <ele>1134.66</ele>
        <time>2025-04-15T16:26:30.190Z</time>
      </trkpt>
      <trkpt lat="44.98703" lon="3.73265">
        <ele>1135.02</ele>
        <time>2025-04-15T16:26:35.806Z</time>
      </trkpt>
      <trkpt lat="44.98695" lon="3.73226">
        <ele>1135.35</ele>
        <time>2025-04-15T16:26:41.426Z</time>
      </trkpt>
      <trkpt lat="44.98687" lon="3.73187">
        <ele>1135.58</ele>
        <time>2025-04-15T16:26:47.051Z</time>
      </trkpt>
      <trkpt lat="44.98679" lon="3.73148">
        <ele>1135.87</ele>
        <time>2025-04-15T16:26:52.680Z</time>
      </trkpt>
      <trkpt lat="44.98671" lon="3.73109">
        <ele>1136.15</ele>
        <time>2025-04-15T16:26:58.314Z</time>
      </trkpt>
      <trkpt lat="44.98663" lon="3.7307">
        <ele>1136.4</ele>
        <time>2025-04-15T16:27:03.953Z</time>
      </trkpt>
      <trkpt lat="44.98655" lon="3.73032">
        <ele>1136.66</ele>
        <time>2025-04-15T16:27:09.596Z</time>
      </trkpt>
      <trkpt lat="44.98647" lon="3.72993">
        <ele>1136.92</ele>
        <time>2025-04-15T16:27:15.244Z</time>
      </trkpt>
      <trkpt lat="44.98647" lon="3.72993">
        <ele>1137.2</ele>
        <time>2025-04-15T16:27:20.892Z</time>
      </trkpt>
      <trkpt lat="44.98639" lon="3.72954">
        <ele>1137.48</ele>
        <time>2025-04-15T16:27:26.544Z</time>
      </trkpt>
      <trkpt lat="44.98631" lon="3.72915">
        <ele>1137.76</ele>
        <time>2025-04-15T16:27:32.201Z</time>
      </trkpt>
      <trkpt lat="44.98624" lon="3.72875">
        <ele>1138.08</ele>
        <time>2025-04-15T16:27:37.863Z</time>
      </trkpt>
      <trkpt lat="44.98617" lon="3.72841">
        <ele>1138.41</ele>
        <time>2025-04-15T16:27:43.529Z</time>
      </trkpt>
      <trkpt lat="44.9861" lon="3.72807">
        <ele>1138.71</ele>
        <time>2025-04-15T16:27:49.199Z</time>
      </trkpt>
      <trkpt lat="44.98601" lon="3.72766">
        <ele>1138.97</ele>
        <time>2025-04-15T16:27:54.874Z</time>
      </trkpt>
      <trkpt lat="44.98593" lon="3.72725">
        <ele>1139.22</ele>
        <time>2025-04-15T16:28:00.553Z</time>
      </trkpt>
      <trkpt lat="44.98584" lon="3.72684">
        <ele>1139.47</ele>
        <time>2025-04-15T16:28:06.237Z</time>
      </trkpt>
      <trkpt lat="44.98576" lon="3.72643">
        <ele>1139.76</ele>
        <time>2025-04-15T16:28:11.926Z</time>
      </trkpt>
      <trkpt lat="44.98568" lon="3.72602">
        <ele>1140.1</ele>
        <time>2025-04-15T16:28:17.620Z</time>
      </trkpt>
      <trkpt lat="44.98559" lon="3.72562">
        <ele>1140.47</ele>
        <time>2025-04-15T16:28:23.319Z</time>
      </trkpt>
      <trkpt lat="44.98551" lon="3.72521">
        <ele>1140.81</ele>
        <time>2025-04-15T16:28:29.023Z</time>
      </trkpt>
      <trkpt lat="44.98543" lon="3.7248">
        <ele>1141.15</ele>
        <time>2025-04-15T16:28:34.731Z</time>
      </trkpt>
      <trkpt lat="44.98534" lon="3.72439">
        <ele>1141.48</ele>
        <time>2025-04-15T16:28:40.444Z</time>
      </trkpt>
      <trkpt lat="44.98526" lon="3.72398">
        <ele>1141.77</ele>
        <time>2025-04-15T16:28:46.162Z</time>
      </trkpt>
      <trkpt lat="44.98517" lon="3.72357">
        <ele>1142.11</ele>
        <time>2025-04-15T16:28:51.885Z</time>
      </trkpt>
      <trkpt lat="44.98509" lon="3.72316">
        <ele>1142.45</ele>
        <time>2025-04-15T16:28:57.613Z</time>
      </trkpt>
      <trkpt lat="44.98501" lon="3.72275">
        <ele>1142.81</ele>
        <time>2025-04-15T16:29:03.346Z</time>
      </trkpt>
      <trkpt lat="44.98492" lon="3.72235">
        <ele>1143.11</ele>
        <time>2025-04-15T16:29:09.083Z</time>
      </trkpt>
      <trkpt lat="44.98484" lon="3.72194">
        <ele>1143.45</ele>
        <time>2025-04-15T16:29:14.825Z</time>
      </trkpt>
      <trkpt lat="44.98476" lon="3.72153">
        <ele>1143.71</ele>
        <time>2025-04-15T16:29:20.572Z</time>
      </trkpt>
      <trkpt lat="44.98467" lon="3.72112">
        <ele>1143.95</ele>
        <time>2025-04-15T16:29:26.324Z</time>
      </trkpt>
      <trkpt lat="44.98459" lon="3.72071">
        <ele>1144.21</ele>
        <time>2025-04-15T16:29:32.081Z</time>
      </trkpt>
      <trkpt lat="44.98451" lon="3.72032">
        <ele>1144.49</ele>
        <time>2025-04-15T16:29:37.842Z</time>
      </trkpt>
      <trkpt lat="44.98451" lon="3.72032">
        <ele>1144.69</ele>
        <time>2025-04-15T16:29:43.603Z</time>
      </trkpt>
      <trkpt lat="44.98443" lon="3.71992">
        <ele>1144.95</ele>
        <time>2025-04-15T16:29:49.369Z</time>
      </trkpt>
      <trkpt lat="44.98434" lon="3.71952">
        <ele>1145.18</ele>
        <time>2025-04-15T16:29:55.140Z</time>
      </trkpt>
      <trkpt lat="44.98426" lon="3.71912">
        <ele>1145.27</ele>
        <time>2025-04-15T16:30:00.915Z</time>
      </trkpt>
      <trkpt lat="44.98418" lon="3.71872">
        <ele>1145.26</ele>
        <time>2025-04-15T16:30:06.695Z</time>
      </trkpt>
      <trkpt lat="44.9841" lon="3.71833">
        <ele>1145.2</ele>
        <time>2025-04-15T16:30:12.480Z</time>
      </trkpt>
      <trkpt lat="44.98404" lon="3.71793">
        <ele>1145.18</ele>
        <time>2025-04-15T16:30:18.270Z</time>
      </trkpt>
      <trkpt lat="44.98397" lon="3.71753">
        <ele>1145.17</ele>
        <time>2025-04-15T16:30:24.064Z</time>
      </trkpt>
      <trkpt lat="44.98398" lon="3.71718">
        <ele>1145.11</ele>
        <time>2025-04-15T16:30:29.862Z</time>
      </trkpt>
      <trkpt lat="44.98398" lon="3.71683">
        <ele>1144.94</ele>
        <time>2025-04-15T16:30:35.664Z</time>
      </trkpt>
      <trkpt lat="44.984" lon="3.71672">
        <ele>1144.68</ele>
        <time>2025-04-15T16:30:41.467Z</time>
      </trkpt>
      <trkpt lat="44.98406" lon="3.71634">
        <ele>1144.37</ele>
        <time>2025-04-15T16:30:47.275Z</time>
      </trkpt>
      <trkpt lat="44.98418" lon="3.71594">
        <ele>1143.96</ele>
        <time>2025-04-15T16:30:53.088Z</time>
      </trkpt>
      <trkpt lat="44.98429" lon="3.71558">
        <ele>1143.5</ele>
        <time>2025-04-15T16:30:58.905Z</time>
      </trkpt>
      <trkpt lat="44.9844" lon="3.71521">
        <ele>1142.98</ele>
        <time>2025-04-15T16:31:04.727Z</time>
      </trkpt>
      <trkpt lat="44.98451" lon="3.71484">
        <ele>1142.39</ele>
        <time>2025-04-15T16:31:10.553Z</time>
      </trkpt>
      <trkpt lat="44.98462" lon="3.71447">
        <ele>1141.71</ele>
        <time>2025-04-15T16:31:16.384Z</time>
      </trkpt>
      <trkpt lat="44.98467" lon="3.71416">
        <ele>1140.91</ele>
        <time>2025-04-15T16:31:22.218Z</time>
      </trkpt>
      <trkpt lat="44.98472" lon="3.71384">
        <ele>1140.05</ele>
        <time>2025-04-15T16:31:28.056Z</time>
      </trkpt>
      <trkpt lat="44.98476" lon="3.71343">
        <ele>1139.07</ele>
        <time>2025-04-15T16:31:33.899Z</time>
      </trkpt>
      <trkpt lat="44.98479" lon="3.71303">
        <ele>1138.04</ele>
        <time>2025-04-15T16:31:39.746Z</time>
      </trkpt>
      <trkpt lat="44.98483" lon="3.71262">
        <ele>1136.9</ele>
        <time>2025-04-15T16:31:45.598Z</time>
      </trkpt>
      <trkpt lat="44.98486" lon="3.71222">
        <ele>1135.71</ele>
        <time>2025-04-15T16:31:51.455Z</time>
      </trkpt>
      <trkpt lat="44.98494" lon="3.71187">
        <ele>1134.49</ele>
        <time>2025-04-15T16:31:57.316Z</time>
      </trkpt>
      <trkpt lat="44.98501" lon="3.71152">
        <ele>1133.18</ele>
        <time>2025-04-15T16:32:03.181Z</time>
      </trkpt>
      <trkpt lat="44.98501" lon="3.71152">
        <ele>1131.85</ele>
        <time>2025-04-15T16:32:09.046Z</time>
      </trkpt>
      <trkpt lat="44.98518" lon="3.71118">
        <ele>1130.36</ele>
        <time>2025-04-15T16:32:14.916Z</time>
      </trkpt>
      <trkpt lat="44.98536" lon="3.71085">
        <ele>1128.79</ele>
        <time>2025-04-15T16:32:20.790Z</time>
      </trkpt>
      <trkpt lat="44.9856" lon="3.71062">
        <ele>1127.15</ele>
        <time>2025-04-15T16:32:26.669Z</time>
      </trkpt>
      <trkpt lat="44.98585" lon="3.7104">
        <ele>1125.5</ele>
        <time>2025-04-15T16:32:32.553Z</time>
      </trkpt>
      <trkpt lat="44.98609" lon="3.7102">
        <ele>1123.84</ele>
        <time>2025-04-15T16:32:38.441Z</time>
      </trkpt>
      <trkpt lat="44.98634" lon="3.71001">
        <ele>1122.14</ele>
        <time>2025-04-15T16:32:44.334Z</time>
      </trkpt>
      <trkpt lat="44.98658" lon="3.70981">
        <ele>1120.37</ele>
        <time>2025-04-15T16:32:50.231Z</time>
      </trkpt>
      <trkpt lat="44.98683" lon="3.70961">
        <ele>1118.56</ele>
        <time>2025-04-15T16:32:56.133Z</time>
      </trkpt>
      <trkpt lat="44.98697" lon="3.70944">
        <ele>1116.77</ele>
        <time>2025-04-15T16:33:02.038Z</time>
      </trkpt>
      <trkpt lat="44.98712" lon="3.70926">
        <ele>1114.99</ele>
        <time>2025-04-15T16:33:07.946Z</time>
      </trkpt>
      <trkpt lat="44.98729" lon="3.70896">
        <ele>1113.12</ele>
        <time>2025-04-15T16:33:13.858Z</time>
      </trkpt>
      <trkpt lat="44.9874" lon="3.70865">
        <ele>1111.19</ele>
        <time>2025-04-15T16:33:19.774Z</time>
      </trkpt>
      <trkpt lat="44.98751" lon="3.7083">
        <ele>1109.28</ele>
        <time>2025-04-15T16:33:25.695Z</time>
      </trkpt>
      <trkpt lat="44.98754" lon="3.70806">
        <ele>1107.45</ele>
        <time>2025-04-15T16:33:31.618Z</time>
      </trkpt>
      <trkpt lat="44.98758" lon="3.70782">
        <ele>1105.64</ele>
        <time>2025-04-15T16:33:37.544Z</time>
      </trkpt>
      <trkpt lat="44.98755" lon="3.70749">
        <ele>1103.78</ele>
        <time>2025-04-15T16:33:43.474Z</time>
      </trkpt>
      <trkpt lat="44.98752" lon="3.70716">
        <ele>1101.95</ele>
        <time>2025-04-15T16:33:49.408Z</time>
      </trkpt>
      <trkpt lat="44.98745" lon="3.70681">
        <ele>1100.09</ele>
        <time>2025-04-15T16:33:55.346Z</time>
      </trkpt>
      <trkpt lat="44.98737" lon="3.70645">
        <ele>1098.32</ele>
        <time>2025-04-15T16:34:01.288Z</time>
      </trkpt>
      <trkpt lat="44.9873" lon="3.70611">
        <ele>1096.47</ele>
        <time>2025-04-15T16:34:07.234Z</time>
      </trkpt>
      <trkpt lat="44.98723" lon="3.70577">
        <ele>1094.59</ele>
        <time>2025-04-15T16:34:13.184Z</time>
      </trkpt>
      <trkpt lat="44.98716" lon="3.70544">
        <ele>1092.72</ele>
        <time>2025-04-15T16:34:19.138Z</time>
      </trkpt>
      <trkpt lat="44.9871" lon="3.70511">
        <ele>1090.87</ele>
        <time>2025-04-15T16:34:25.096Z</time>
      </trkpt>
      <trkpt lat="44.98703" lon="3.70477">
        <ele>1089.04</ele>
        <time>2025-04-15T16:34:31.058Z</time>
      </trkpt>
      <trkpt lat="44.98698" lon="3.70445">
        <ele>1087.18</ele>
        <time>2025-04-15T16:34:37.024Z</time>
      </trkpt>
      <trkpt lat="44.98693" lon="3.70412">
        <ele>1085.33</ele>
        <time>2025-04-15T16:34:42.994Z</time>
      </trkpt>
      <trkpt lat="44.98693" lon="3.70385">
        <ele>1083.55</ele>
        <time>2025-04-15T16:34:48.967Z</time>
      </trkpt>
      <trkpt lat="44.98692" lon="3.70358">
        <ele>1081.76</ele>
        <time>2025-04-15T16:34:54.943Z</time>
      </trkpt>
      <trkpt lat="44.98693" lon="3.70333">
        <ele>1080.03</ele>
        <time>2025-04-15T16:35:00.922Z</time>
      </trkpt>
      <trkpt lat="44.98694" lon="3.70307">
        <ele>1078.33</ele>
        <time>2025-04-15T16:35:06.903Z</time>
      </trkpt>
      <trkpt lat="44.98696" lon="3.70277">
        <ele>1076.62</ele>
        <time>2025-04-15T16:35:12.888Z</time>
      </trkpt>
      <trkpt lat="44.98698" lon="3.70248">
        <ele>1074.94</ele>
        <time>2025-04-15T16:35:18.876Z</time>
      </trkpt>
      <trkpt lat="44.98705" lon="3.70213">
        <ele>1073.33</ele>
        <time>2025-04-15T16:35:24.868Z</time>
      </trkpt>
      <trkpt lat="44.98712" lon="3.70178">
        <ele>1071.72</ele>
        <time>2025-04-15T16:35:30.865Z</time>
      </trkpt>
      <trkpt lat="44.9872" lon="3.70143">
        <ele>1070.05</ele>
        <time>2025-04-15T16:35:36.866Z</time>
      </trkpt>
      <trkpt lat="44.98727" lon="3.70108">
        <ele>1068.38</ele>
        <time>2025-04-15T16:35:42.871Z</time>
      </trkpt>
      <trkpt lat="44.98734" lon="3.70073">
        <ele>1066.71</ele>
        <time>2025-04-15T16:35:48.880Z</time>
      </trkpt>
      <trkpt lat="44.98742" lon="3.70035">
        <ele>1065.07</ele>
        <time>2025-04-15T16:35:54.893Z</time>
      </trkpt>
      <trkpt lat="44.98751" lon="3.69998">
        <ele>1063.51</ele>
        <time>2025-04-15T16:36:00.911Z</time>
      </trkpt>
      <trkpt lat="44.98759" lon="3.6996">
        <ele>1062</ele>
        <time>2025-04-15T16:36:06.933Z</time>
      </trkpt>
      <trkpt lat="44.98768" lon="3.69922">
        <ele>1060.53</ele>
        <time>2025-04-15T16:36:12.960Z</time>
      </trkpt>
      <trkpt lat="44.98776" lon="3.69885">
        <ele>1059</ele>
        <time>2025-04-15T16:36:18.991Z</time>
      </trkpt>
      <trkpt lat="44.98776" lon="3.69885">
        <ele>1057.55</ele>
        <time>2025-04-15T16:36:25.022Z</time>
      </trkpt>
      <trkpt lat="44.98783" lon="3.69855">
        <ele>1056.07</ele>
        <time>2025-04-15T16:36:31.057Z</time>
      </trkpt>
      <trkpt lat="44.98791" lon="3.69824">
        <ele>1054.56</ele>
        <time>2025-04-15T16:36:37.096Z</time>
      </trkpt>
      <trkpt lat="44.98801" lon="3.69795">
        <ele>1053.06</ele>
        <time>2025-04-15T16:36:43.138Z</time>
      </trkpt>
      <trkpt lat="44.98816" lon="3.69762">
        <ele>1051.6</ele>
        <time>2025-04-15T16:36:49.185Z</time>
      </trkpt>
      <trkpt lat="44.98826" lon="3.69745">
        <ele>1050.16</ele>
        <time>2025-04-15T16:36:55.234Z</time>
      </trkpt>
      <trkpt lat="44.98837" lon="3.69728">
        <ele>1048.71</ele>
        <time>2025-04-15T16:37:01.286Z</time>
      </trkpt>
      <trkpt lat="44.98861" lon="3.69702">
        <ele>1047.25</ele>
        <time>2025-04-15T16:37:07.343Z</time>
      </trkpt>
      <trkpt lat="44.98875" lon="3.69691">
        <ele>1045.82</ele>
        <time>2025-04-15T16:37:13.402Z</time>
      </trkpt>
      <trkpt lat="44.9889" lon="3.6968">
        <ele>1044.38</ele>
        <time>2025-04-15T16:37:19.464Z</time>
      </trkpt>
      <trkpt lat="44.98911" lon="3.69671">
        <ele>1042.93</ele>
        <time>2025-04-15T16:37:25.529Z</time>
      </trkpt>
      <trkpt lat="44.98932" lon="3.69662">
        <ele>1041.5</ele>
        <time>2025-04-15T16:37:31.598Z</time>
      </trkpt>
      <trkpt lat="44.98953" lon="3.69652">
        <ele>1040.03</ele>
        <time>2025-04-15T16:37:37.671Z</time>
      </trkpt>
      <trkpt lat="44.98977" lon="3.6964">
        <ele>1038.51</ele>
        <time>2025-04-15T16:37:43.748Z</time>
      </trkpt>
      <trkpt lat="44.99" lon="3.69628">
        <ele>1036.98</ele>
        <time>2025-04-15T16:37:49.829Z</time>
      </trkpt>
      <trkpt lat="44.99024" lon="3.69616">
        <ele>1035.48</ele>
        <time>2025-04-15T16:37:55.914Z</time>
      </trkpt>
      <trkpt lat="44.99039" lon="3.69605">
        <ele>1033.99</ele>
        <time>2025-04-15T16:38:02.001Z</time>
      </trkpt>
      <trkpt lat="44.99062" lon="3.69588">
        <ele>1032.42</ele>
        <time>2025-04-15T16:38:08.093Z</time>
      </trkpt>
      <trkpt lat="44.99086" lon="3.6957">
        <ele>1030.85</ele>
        <time>2025-04-15T16:38:14.189Z</time>
      </trkpt>
      <trkpt lat="44.99106" lon="3.69551">
        <ele>1029.31</ele>
        <time>2025-04-15T16:38:20.289Z</time>
      </trkpt>
      <trkpt lat="44.99127" lon="3.69533">
        <ele>1027.7</ele>
        <time>2025-04-15T16:38:26.393Z</time>
      </trkpt>
      <trkpt lat="44.99147" lon="3.69514">
        <ele>1026.14</ele>
        <time>2025-04-15T16:38:32.501Z</time>
      </trkpt>
      <trkpt lat="44.99164" lon="3.69491">
        <ele>1024.54</ele>
        <time>2025-04-15T16:38:38.612Z</time>
      </trkpt>
      <trkpt lat="44.99181" lon="3.69468">
        <ele>1022.95</ele>
        <time>2025-04-15T16:38:44.727Z</time>
      </trkpt>
      <trkpt lat="44.99199" lon="3.69445">
        <ele>1021.35</ele>
        <time>2025-04-15T16:38:50.846Z</time>
      </trkpt>
      <trkpt lat="44.99224" lon="3.69421">
        <ele>1019.72</ele>
        <time>2025-04-15T16:38:56.970Z</time>
      </trkpt>
      <trkpt lat="44.99249" lon="3.69397">
        <ele>1018.15</ele>
        <time>2025-04-15T16:39:03.099Z</time>
      </trkpt>
      <trkpt lat="44.99273" lon="3.69373">
        <ele>1016.5</ele>
        <time>2025-04-15T16:39:09.232Z</time>
      </trkpt>
      <trkpt lat="44.99298" lon="3.69349">
        <ele>1014.8</ele>
        <time>2025-04-15T16:39:15.370Z</time>
      </trkpt>
      <trkpt lat="44.99322" lon="3.69324">
        <ele>1013.14</ele>
        <time>2025-04-15T16:39:21.513Z</time>
      </trkpt>
      <trkpt lat="44.99346" lon="3.69299">
        <ele>1011.58</ele>
        <time>2025-04-15T16:39:27.661Z</time>
      </trkpt>
      <trkpt lat="44.99363" lon="3.69272">
        <ele>1009.88</ele>
        <time>2025-04-15T16:39:33.813Z</time>
      </trkpt>
      <trkpt lat="44.9938" lon="3.69244">
        <ele>1008.25</ele>
        <time>2025-04-15T16:39:39.969Z</time>
      </trkpt>
      <trkpt lat="44.99397" lon="3.69217">
        <ele>1006.66</ele>
        <time>2025-04-15T16:39:46.129Z</time>
      </trkpt>
      <trkpt lat="44.99414" lon="3.69189">
        <ele>1005.06</ele>
        <time>2025-04-15T16:39:52.293Z</time>
      </trkpt>
      <trkpt lat="44.99431" lon="3.69162">
        <ele>1003.45</ele>
        <time>2025-04-15T16:39:58.461Z</time>
      </trkpt>
      <trkpt lat="44.99448" lon="3.69142">
        <ele>1001.93</ele>
        <time>2025-04-15T16:40:04.633Z</time>
      </trkpt>
      <trkpt lat="44.99464" lon="3.69122">
        <ele>1000.44</ele>
        <time>2025-04-15T16:40:10.808Z</time>
      </trkpt>
      <trkpt lat="44.99481" lon="3.69102">
        <ele>998.9</ele>
        <time>2025-04-15T16:40:16.987Z</time>
      </trkpt>
      <trkpt lat="44.99502" lon="3.69081">
        <ele>997.32</ele>
        <time>2025-04-15T16:40:23.170Z</time>
      </trkpt>
      <trkpt lat="44.99523" lon="3.69059">
        <ele>995.79</ele>
        <time>2025-04-15T16:40:29.357Z</time>
      </trkpt>
      <trkpt lat="44.99546" lon="3.69048">
        <ele>994.42</ele>
        <time>2025-04-15T16:40:35.548Z</time>
      </trkpt>
      <trkpt lat="44.9957" lon="3.69037">
        <ele>993.07</ele>
        <time>2025-04-15T16:40:41.743Z</time>
      </trkpt>
      <trkpt lat="44.99593" lon="3.69031">
        <ele>991.65</ele>
        <time>2025-04-15T16:40:47.942Z</time>
      </trkpt>
      <trkpt lat="44.99617" lon="3.69025">
        <ele>990.24</ele>
        <time>2025-04-15T16:40:54.145Z</time>
      </trkpt>
      <trkpt lat="44.99636" lon="3.69024">
        <ele>988.92</ele>
        <time>2025-04-15T16:41:00.351Z</time>
      </trkpt>
      <trkpt lat="44.99655" lon="3.69024">
        <ele>987.64</ele>
        <time>2025-04-15T16:41:06.560Z</time>
      </trkpt>
      <trkpt lat="44.99675" lon="3.6903">
        <ele>986.34</ele>
        <time>2025-04-15T16:41:12.772Z</time>
      </trkpt>
      <trkpt lat="44.99695" lon="3.69037">
        <ele>985.05</ele>
        <time>2025-04-15T16:41:18.987Z</time>
      </trkpt>
      <trkpt lat="44.99724" lon="3.69051">
        <ele>983.76</ele>
        <time>2025-04-15T16:41:25.207Z</time>
      </trkpt>
      <trkpt lat="44.99744" lon="3.69067">
        <ele>982.58</ele>
        <time>2025-04-15T16:41:31.431Z</time>
      </trkpt>
      <trkpt lat="44.99763" lon="3.69084">
        <ele>981.43</ele>
        <time>2025-04-15T16:41:37.659Z</time>
      </trkpt>
      <trkpt lat="44.99772" lon="3.69091">
        <ele>980.3</ele>
        <time>2025-04-15T16:41:43.888Z</time>
      </trkpt>
      <trkpt lat="44.99791" lon="3.69111">
        <ele>979.17</ele>
        <time>2025-04-15T16:41:50.121Z</time>
      </trkpt>
      <trkpt lat="44.99811" lon="3.69131">
        <ele>978.02</ele>
        <time>2025-04-15T16:41:56.358Z</time>
      </trkpt>
      <trkpt lat="44.99836" lon="3.69142">
        <ele>976.92</ele>
        <time>2025-04-15T16:42:02.599Z</time>
      </trkpt>
      <trkpt lat="44.99862" lon="3.69154">
        <ele>975.9</ele>
        <time>2025-04-15T16:42:08.845Z</time>
      </trkpt>
      <trkpt lat="44.99887" lon="3.69156">
        <ele>974.91</ele>
        <time>2025-04-15T16:42:15.095Z</time>
      </trkpt>
      <trkpt lat="44.99912" lon="3.69158">
        <ele>973.93</ele>
        <time>2025-04-15T16:42:21.349Z</time>
      </trkpt>
      <trkpt lat="44.99937" lon="3.69147">
        <ele>972.99</ele>
        <time>2025-04-15T16:42:27.607Z</time>
      </trkpt>
      <trkpt lat="44.99962" lon="3.69136">
        <ele>972.07</ele>
        <time>2025-04-15T16:42:33.869Z</time>
      </trkpt>
      <trkpt lat="44.99976" lon="3.69124">
        <ele>971.15</ele>
        <time>2025-04-15T16:42:40.134Z</time>
      </trkpt>
      <trkpt lat="44.9999" lon="3.69112">
        <ele>970.24</ele>
        <time>2025-04-15T16:42:46.401Z</time>
      </trkpt>
      <trkpt lat="45.00002" lon="3.69096">
        <ele>969.39</ele>
        <time>2025-04-15T16:42:52.671Z</time>
      </trkpt>
      <trkpt lat="45.00002" lon="3.69096">
        <ele>968.57</ele>
        <time>2025-04-15T16:42:58.941Z</time>
      </trkpt>
      <trkpt lat="45.0002" lon="3.69072">
        <ele>967.64</ele>
        <time>2025-04-15T16:43:05.215Z</time>
      </trkpt>
      <trkpt lat="45.00037" lon="3.69048">
        <ele>966.76</ele>
        <time>2025-04-15T16:43:11.493Z</time>
      </trkpt>
      <trkpt lat="45.00055" lon="3.69024">
        <ele>965.94</ele>
        <time>2025-04-15T16:43:17.775Z</time>
      </trkpt>
      <trkpt lat="45.00072" lon="3.69">
        <ele>965.21</ele>
        <time>2025-04-15T16:43:24.060Z</time>
      </trkpt>
      <trkpt lat="45.00091" lon="3.68973">
        <ele>964.47</ele>
        <time>2025-04-15T16:43:30.350Z</time>
      </trkpt>
      <trkpt lat="45.00109" lon="3.68945">
        <ele>963.69</ele>
        <time>2025-04-15T16:43:36.644Z</time>
      </trkpt>
      <trkpt lat="45.00128" lon="3.68918">
        <ele>962.84</ele>
        <time>2025-04-15T16:43:42.942Z</time>
      </trkpt>
      <trkpt lat="45.00138" lon="3.68891">
        <ele>962.02</ele>
        <time>2025-04-15T16:43:49.244Z</time>
      </trkpt>
      <trkpt lat="45.00149" lon="3.68865">
        <ele>961.26</ele>
        <time>2025-04-15T16:43:55.549Z</time>
      </trkpt>
      <trkpt lat="45.00157" lon="3.68839">
        <ele>960.51</ele>
        <time>2025-04-15T16:44:01.858Z</time>
      </trkpt>
      <trkpt lat="45.00165" lon="3.68813">
        <ele>959.75</ele>
        <time>2025-04-15T16:44:08.170Z</time>
      </trkpt>
      <trkpt lat="45.00171" lon="3.68777">
        <ele>958.97</ele>
        <time>2025-04-15T16:44:14.486Z</time>
      </trkpt>
      <trkpt lat="45.00173" lon="3.68756">
        <ele>958.15</ele>
        <time>2025-04-15T16:44:20.804Z</time>
      </trkpt>
      <trkpt lat="45.00175" lon="3.68722">
        <ele>957.3</ele>
        <time>2025-04-15T16:44:27.126Z</time>
      </trkpt>
      <trkpt lat="45.00175" lon="3.68689">
        <ele>956.44</ele>
        <time>2025-04-15T16:44:33.452Z</time>
      </trkpt>
      <trkpt lat="45.00171" lon="3.68661">
        <ele>955.58</ele>
        <time>2025-04-15T16:44:39.781Z</time>
      </trkpt>
      <trkpt lat="45.00164" lon="3.68626">
        <ele>954.69</ele>
        <time>2025-04-15T16:44:46.114Z</time>
      </trkpt>
      <trkpt lat="45.00156" lon="3.68603">
        <ele>953.8</ele>
        <time>2025-04-15T16:44:52.450Z</time>
      </trkpt>
      <trkpt lat="45.00148" lon="3.6858">
        <ele>952.85</ele>
        <time>2025-04-15T16:44:58.789Z</time>
      </trkpt>
      <trkpt lat="45.00134" lon="3.68546">
        <ele>951.84</ele>
        <time>2025-04-15T16:45:05.133Z</time>
      </trkpt>
      <trkpt lat="45.0012" lon="3.68512">
        <ele>950.83</ele>
        <time>2025-04-15T16:45:11.481Z</time>
      </trkpt>
      <trkpt lat="45.00106" lon="3.68479">
        <ele>949.82</ele>
        <time>2025-04-15T16:45:17.833Z</time>
      </trkpt>
      <trkpt lat="45.00092" lon="3.68445">
        <ele>948.81</ele>
        <time>2025-04-15T16:45:24.190Z</time>
      </trkpt>
      <trkpt lat="45.00078" lon="3.68411">
        <ele>947.72</ele>
        <time>2025-04-15T16:45:30.551Z</time>
      </trkpt>
      <trkpt lat="45.00064" lon="3.68378">
        <ele>946.6</ele>
        <time>2025-04-15T16:45:36.917Z</time>
      </trkpt>
      <trkpt lat="45.0005" lon="3.68345">
        <ele>945.47</ele>
        <time>2025-04-15T16:45:43.287Z</time>
      </trkpt>
      <trkpt lat="45.00039" lon="3.68319">
        <ele>944.32</ele>
        <time>2025-04-15T16:45:49.661Z</time>
      </trkpt>
      <trkpt lat="45.00027" lon="3.68293">
        <ele>943.15</ele>
        <time>2025-04-15T16:45:56.038Z</time>
      </trkpt>
      <trkpt lat="45.00012" lon="3.68267">
        <ele>941.85</ele>
        <time>2025-04-15T16:46:02.419Z</time>
      </trkpt>
      <trkpt lat="44.99997" lon="3.68242">
        <ele>940.59</ele>
        <time>2025-04-15T16:46:08.804Z</time>
      </trkpt>
      <trkpt lat="44.99973" lon="3.68213">
        <ele>939.29</ele>
        <time>2025-04-15T16:46:15.194Z</time>
      </trkpt>
      <trkpt lat="44.99958" lon="3.68198">
        <ele>937.98</ele>
        <time>2025-04-15T16:46:21.587Z</time>
      </trkpt>
      <trkpt lat="44.99942" lon="3.68184">
        <ele>936.66</ele>
        <time>2025-04-15T16:46:27.983Z</time>
      </trkpt>
      <trkpt lat="44.99918" lon="3.68164">
        <ele>935.31</ele>
        <time>2025-04-15T16:46:34.383Z</time>
      </trkpt>
      <trkpt lat="44.99894" lon="3.68145">
        <ele>933.93</ele>
        <time>2025-04-15T16:46:40.787Z</time>
      </trkpt>
      <trkpt lat="44.99878" lon="3.68136">
        <ele>932.52</ele>
        <time>2025-04-15T16:46:47.194Z</time>
      </trkpt>
      <trkpt lat="44.99862" lon="3.68128">
        <ele>931.08</ele>
        <time>2025-04-15T16:46:53.604Z</time>
      </trkpt>
      <trkpt lat="44.99832" lon="3.68115">
        <ele>929.61</ele>
        <time>2025-04-15T16:47:00.019Z</time>
      </trkpt>
      <trkpt lat="44.99812" lon="3.6811">
        <ele>928.18</ele>
        <time>2025-04-15T16:47:06.437Z</time>
      </trkpt>
      <trkpt lat="44.99793" lon="3.68104">
        <ele>926.77</ele>
        <time>2025-04-15T16:47:12.858Z</time>
      </trkpt>
      <trkpt lat="44.99774" lon="3.68103">
        <ele>925.26</ele>
        <time>2025-04-15T16:47:19.282Z</time>
      </trkpt>
      <trkpt lat="44.99755" lon="3.68101">
        <ele>923.73</ele>
        <time>2025-04-15T16:47:25.709Z</time>
      </trkpt>
      <trkpt lat="44.99725" lon="3.68099">
        <ele>922.12</ele>
        <time>2025-04-15T16:47:32.141Z</time>
      </trkpt>
      <trkpt lat="44.99695" lon="3.68097">
        <ele>920.53</ele>
        <time>2025-04-15T16:47:38.578Z</time>
      </trkpt>
      <trkpt lat="44.99664" lon="3.68096">
        <ele>918.92</ele>
        <time>2025-04-15T16:47:45.020Z</time>
      </trkpt>
      <trkpt lat="44.99634" lon="3.68094">
        <ele>917.31</ele>
        <time>2025-04-15T16:47:51.467Z</time>
      </trkpt>
      <trkpt lat="44.99604" lon="3.68092">
        <ele>915.7</ele>
        <time>2025-04-15T16:47:57.919Z</time>
      </trkpt>
      <trkpt lat="44.99573" lon="3.6809">
        <ele>914.1</ele>
        <time>2025-04-15T16:48:04.376Z</time>
      </trkpt>
      <trkpt lat="44.99544" lon="3.68085">
        <ele>912.51</ele>
        <time>2025-04-15T16:48:10.837Z</time>
      </trkpt>
      <trkpt lat="44.99515" lon="3.68076">
        <ele>910.95</ele>
        <time>2025-04-15T16:48:17.303Z</time>
      </trkpt>
      <trkpt lat="44.99486" lon="3.68068">
        <ele>909.31</ele>
        <time>2025-04-15T16:48:23.774Z</time>
      </trkpt>
      <trkpt lat="44.99456" lon="3.68059">
        <ele>907.64</ele>
        <time>2025-04-15T16:48:30.250Z</time>
      </trkpt>
      <trkpt lat="44.99427" lon="3.68051">
        <ele>906.06</ele>
        <time>2025-04-15T16:48:36.730Z</time>
      </trkpt>
      <trkpt lat="44.99407" lon="3.68046">
        <ele>904.62</ele>
        <time>2025-04-15T16:48:43.214Z</time>
      </trkpt>
      <trkpt lat="44.99379" lon="3.68044">
        <ele>903.25</ele>
        <time>2025-04-15T16:48:49.702Z</time>
      </trkpt>
      <trkpt lat="44.99366" lon="3.68047">
        <ele>901.9</ele>
        <time>2025-04-15T16:48:56.192Z</time>
      </trkpt>
      <trkpt lat="44.99342" lon="3.68059">
        <ele>900.58</ele>
        <time>2025-04-15T16:49:02.686Z</time>
      </trkpt>
      <trkpt lat="44.99331" lon="3.68071">
        <ele>899.26</ele>
        <time>2025-04-15T16:49:09.183Z</time>
      </trkpt>
      <trkpt lat="44.99312" lon="3.68096">
        <ele>897.97</ele>
        <time>2025-04-15T16:49:15.684Z</time>
      </trkpt>
      <trkpt lat="44.99294" lon="3.6812">
        <ele>896.84</ele>
        <time>2025-04-15T16:49:22.189Z</time>
      </trkpt>
      <trkpt lat="44.99276" lon="3.68145">
        <ele>895.59</ele>
        <time>2025-04-15T16:49:28.698Z</time>
      </trkpt>
      <trkpt lat="44.99257" lon="3.68169">
        <ele>894.29</ele>
        <time>2025-04-15T16:49:35.211Z</time>
      </trkpt>
      <trkpt lat="44.99242" lon="3.68183">
        <ele>893.01</ele>
        <time>2025-04-15T16:49:41.727Z</time>
      </trkpt>
      <trkpt lat="44.99221" lon="3.68192">
        <ele>891.72</ele>
        <time>2025-04-15T16:49:48.246Z</time>
      </trkpt>
      <trkpt lat="44.99195" lon="3.68194">
        <ele>890.51</ele>
        <time>2025-04-15T16:49:54.769Z</time>
      </trkpt>
      <trkpt lat="44.99183" lon="3.68191">
        <ele>889.44</ele>
        <time>2025-04-15T16:50:01.294Z</time>
      </trkpt>
      <trkpt lat="44.99155" lon="3.68178">
        <ele>888.47</ele>
        <time>2025-04-15T16:50:07.824Z</time>
      </trkpt>
      <trkpt lat="44.99128" lon="3.68164">
        <ele>887.46</ele>
        <time>2025-04-15T16:50:14.359Z</time>
      </trkpt>
      <trkpt lat="44.99128" lon="3.68164">
        <ele>886.55</ele>
        <time>2025-04-15T16:50:20.894Z</time>
      </trkpt>
      <trkpt lat="44.99102" lon="3.6815">
        <ele>885.58</ele>
        <time>2025-04-15T16:50:27.433Z</time>
      </trkpt>
      <trkpt lat="44.99076" lon="3.68135">
        <ele>884.64</ele>
        <time>2025-04-15T16:50:33.976Z</time>
      </trkpt>
      <trkpt lat="44.99069" lon="3.68129">
        <ele>883.83</ele>
        <time>2025-04-15T16:50:40.521Z</time>
      </trkpt>
      <trkpt lat="44.99049" lon="3.68106">
        <ele>883.05</ele>
        <time>2025-04-15T16:50:47.070Z</time>
      </trkpt>
      <trkpt lat="44.9903" lon="3.68083">
        <ele>882.31</ele>
        <time>2025-04-15T16:50:53.623Z</time>
      </trkpt>
      <trkpt lat="44.99012" lon="3.68061">
        <ele>881.62</ele>
        <time>2025-04-15T16:51:00.180Z</time>
      </trkpt>
      <trkpt lat="44.98994" lon="3.68039">
        <ele>880.97</ele>
        <time>2025-04-15T16:51:06.741Z</time>
      </trkpt>
      <trkpt lat="44.98983" lon="3.68025">
        <ele>880.35</ele>
        <time>2025-04-15T16:51:13.304Z</time>
      </trkpt>
      <trkpt lat="44.98983" lon="3.68025">
        <ele>879.78</ele>
        <time>2025-04-15T16:51:19.867Z</time>
      </trkpt>
      <trkpt lat="44.98983" lon="3.68025">
        <ele>879.24</ele>
        <time>2025-04-15T16:51:26.430Z</time>
      </trkpt>
      <trkpt lat="44.98965" lon="3.67999">
        <ele>878.68</ele>
        <time>2025-04-15T16:51:32.997Z</time>
      </trkpt>
      <trkpt lat="44.98946" lon="3.67973">
        <ele>878.12</ele>
        <time>2025-04-15T16:51:39.568Z</time>
      </trkpt>
      <trkpt lat="44.9894" lon="3.67952">
        <ele>877.66</ele>
        <time>2025-04-15T16:51:46.142Z</time>
      </trkpt>
      <trkpt lat="44.98916" lon="3.67939">
        <ele>877.18</ele>
        <time>2025-04-15T16:51:52.720Z</time>
      </trkpt>
      <trkpt lat="44.98906" lon="3.67924">
        <ele>876.79</ele>
        <time>2025-04-15T16:51:59.300Z</time>
      </trkpt>
      <trkpt lat="44.98895" lon="3.67924">
        <ele>876.36</ele>
        <time>2025-04-15T16:52:05.882Z</time>
      </trkpt>
      <trkpt lat="44.98878" lon="3.67922">
        <ele>875.97</ele>
        <time>2025-04-15T16:52:12.467Z</time>
      </trkpt>
      <trkpt lat="44.98856" lon="3.67914">
        <ele>875.67</ele>
        <time>2025-04-15T16:52:19.055Z</time>
      </trkpt>
      <trkpt lat="44.98833" lon="3.67906">
        <ele>875.32</ele>
        <time>2025-04-15T16:52:25.647Z</time>
      </trkpt>
      <trkpt lat="44.98811" lon="3.67898">
        <ele>874.95</ele>
        <time>2025-04-15T16:52:32.243Z</time>
      </trkpt>
      <trkpt lat="44.98803" lon="3.67885">
        <ele>874.61</ele>
        <time>2025-04-15T16:52:38.841Z</time>
      </trkpt>
      <trkpt lat="44.98803" lon="3.67885">
        <ele>874.2</ele>
        <time>2025-04-15T16:52:45.439Z</time>
      </trkpt>
      <trkpt lat="44.98803" lon="3.67885">
        <ele>873.77</ele>
        <time>2025-04-15T16:52:52.037Z</time>
      </trkpt>
      <trkpt lat="44.98811" lon="3.67898">
        <ele>874.95</ele>
        <time>2025-04-15T16:52:58.637Z</time>
      </trkpt>
      <trkpt lat="44.98833" lon="3.67906">
        <ele>872.78</ele>
        <time>2025-04-15T16:53:05.240Z</time>
      </trkpt>
      <trkpt lat="44.98856" lon="3.67914">
        <ele>872.26</ele>
        <time>2025-04-15T16:53:11.847Z</time>
      </trkpt>
      <trkpt lat="44.98878" lon="3.67922">
        <ele>875.97</ele>
        <time>2025-04-15T16:53:18.458Z</time>
      </trkpt>
      <trkpt lat="44.98895" lon="3.67924">
        <ele>876.36</ele>
        <time>2025-04-15T16:53:25.072Z</time>
      </trkpt>
      <trkpt lat="44.98906" lon="3.67924">
        <ele>876.79</ele>
        <time>2025-04-15T16:53:31.687Z</time>
      </trkpt>
      <trkpt lat="44.98912" lon="3.67913">
        <ele>870.08</ele>
        <time>2025-04-15T16:53:38.304Z</time>
      </trkpt>
      <trkpt lat="44.98919" lon="3.67879">
        <ele>869.41</ele>
        <time>2025-04-15T16:53:44.925Z</time>
      </trkpt>
      <trkpt lat="44.9891" lon="3.67875">
        <ele>868.84</ele>
        <time>2025-04-15T16:53:51.547Z</time>
      </trkpt>
      <trkpt lat="44.98896" lon="3.67857">
        <ele>868.19</ele>
        <time>2025-04-15T16:53:58.172Z</time>
      </trkpt>
      <trkpt lat="44.98883" lon="3.6784">
        <ele>867.54</ele>
        <time>2025-04-15T16:54:04.800Z</time>
      </trkpt>
      <trkpt lat="44.98883" lon="3.6784">
        <ele>866.88</ele>
        <time>2025-04-15T16:54:11.428Z</time>
      </trkpt>
      <trkpt lat="44.98883" lon="3.67839">
        <ele>866.21</ele>
        <time>2025-04-15T16:54:18.056Z</time>
      </trkpt>
      <trkpt lat="44.98883" lon="3.67838">
        <ele>865.5</ele>
        <time>2025-04-15T16:54:24.684Z</time>
      </trkpt>
      <trkpt lat="44.98883" lon="3.67838">
        <ele>864.79</ele>
        <time>2025-04-15T16:54:31.312Z</time>
      </trkpt>
      <trkpt lat="44.98881" lon="3.67835">
        <ele>864.07</ele>
        <time>2025-04-15T16:54:37.941Z</time>
      </trkpt>
      <trkpt lat="44.9887" lon="3.67814">
        <ele>863.31</ele>
        <time>2025-04-15T16:54:44.573Z</time>
      </trkpt>
      <trkpt lat="44.98859" lon="3.67793">
        <ele>862.54</ele>
        <time>2025-04-15T16:54:51.208Z</time>
      </trkpt>
      <trkpt lat="44.98846" lon="3.67765">
        <ele>861.7</ele>
        <time>2025-04-15T16:54:57.847Z</time>
      </trkpt>
      <trkpt lat="44.98846" lon="3.67765">
        <ele>860.96</ele>
        <time>2025-04-15T16:55:04.486Z</time>
      </trkpt>
      <trkpt lat="44.98831" lon="3.67738">
        <ele>859.95</ele>
        <time>2025-04-15T16:55:11.129Z</time>
      </trkpt>
      <trkpt lat="44.98823" lon="3.67732">
        <ele>859.15</ele>
        <time>2025-04-15T16:55:17.773Z</time>
      </trkpt>
      <trkpt lat="44.98815" lon="3.67729">
        <ele>858.35</ele>
        <time>2025-04-15T16:55:24.418Z</time>
      </trkpt>
      <trkpt lat="44.98805" lon="3.67731">
        <ele>857.58</ele>
        <time>2025-04-15T16:55:31.065Z</time>
      </trkpt>
      <trkpt lat="44.98793" lon="3.67737">
        <ele>856.85</ele>
        <time>2025-04-15T16:55:37.714Z</time>
      </trkpt>
      <trkpt lat="44.98768" lon="3.67759">
        <ele>856.18</ele>
        <time>2025-04-15T16:55:44.368Z</time>
      </trkpt>
      <trkpt lat="44.98743" lon="3.67781">
        <ele>855.54</ele>
        <time>2025-04-15T16:55:51.027Z</time>
      </trkpt>
      <trkpt lat="44.9872" lon="3.67799">
        <ele>854.95</ele>
        <time>2025-04-15T16:55:57.690Z</time>
      </trkpt>
      <trkpt lat="44.98697" lon="3.67817">
        <ele>854.35</ele>
        <time>2025-04-15T16:56:04.357Z</time>
      </trkpt>
      <trkpt lat="44.98674" lon="3.67835">
        <ele>853.76</ele>
        <time>2025-04-15T16:56:11.028Z</time>
      </trkpt>
      <trkpt lat="44.98651" lon="3.67853">
        <ele>853.22</ele>
        <time>2025-04-15T16:56:17.703Z</time>
      </trkpt>
      <trkpt lat="44.98628" lon="3.67871">
        <ele>852.75</ele>
        <time>2025-04-15T16:56:24.383Z</time>
      </trkpt>
      <trkpt lat="44.98622" lon="3.6788">
        <ele>852.34</ele>
        <time>2025-04-15T16:56:31.064Z</time>
      </trkpt>
      <trkpt lat="44.9862" lon="3.6789">
        <ele>851.99</ele>
        <time>2025-04-15T16:56:37.746Z</time>
      </trkpt>
      <trkpt lat="44.9862" lon="3.67898">
        <ele>851.66</ele>
        <time>2025-04-15T16:56:44.429Z</time>
      </trkpt>
      <trkpt lat="44.98624" lon="3.67909">
        <ele>851.37</ele>
        <time>2025-04-15T16:56:51.113Z</time>
      </trkpt>
      <trkpt lat="44.98635" lon="3.67933">
        <ele>851.17</ele>
        <time>2025-04-15T16:56:57.801Z</time>
      </trkpt>
      <trkpt lat="44.98647" lon="3.67957">
        <ele>850.99</ele>
        <time>2025-04-15T16:57:04.492Z</time>
      </trkpt>
      <trkpt lat="44.98654" lon="3.67965">
        <ele>850.87</ele>
        <time>2025-04-15T16:57:11.184Z</time>
      </trkpt>
      <trkpt lat="44.98662" lon="3.67967">
        <ele>850.8</ele>
        <time>2025-04-15T16:57:17.878Z</time>
      </trkpt>
      <trkpt lat="44.98686" lon="3.67958">
        <ele>850.97</ele>
        <time>2025-04-15T16:57:24.576Z</time>
      </trkpt>
      <trkpt lat="44.987" lon="3.67959">
        <ele>850.98</ele>
        <time>2025-04-15T16:57:31.276Z</time>
      </trkpt>
      <trkpt lat="44.98707" lon="3.67963">
        <ele>850.96</ele>
        <time>2025-04-15T16:57:37.977Z</time>
      </trkpt>
      <trkpt lat="44.98722" lon="3.67974">
        <ele>850.87</ele>
        <time>2025-04-15T16:57:44.681Z</time>
      </trkpt>
      <trkpt lat="44.98737" lon="3.67985">
        <ele>850.82</ele>
        <time>2025-04-15T16:57:51.388Z</time>
      </trkpt>
      <trkpt lat="44.98748" lon="3.67992">
        <ele>850.84</ele>
        <time>2025-04-15T16:57:58.096Z</time>
      </trkpt>
      <trkpt lat="44.98759" lon="3.67993">
        <ele>850.93</ele>
        <time>2025-04-15T16:58:04.806Z</time>
      </trkpt>
      <trkpt lat="44.98782" lon="3.67993">
        <ele>851.09</ele>
        <time>2025-04-15T16:58:11.520Z</time>
      </trkpt>
      <trkpt lat="44.98805" lon="3.67993">
        <ele>851.27</ele>
        <time>2025-04-15T16:58:18.238Z</time>
      </trkpt>
      <trkpt lat="44.98828" lon="3.67993">
        <ele>851.39</ele>
        <time>2025-04-15T16:58:24.959Z</time>
      </trkpt>
      <trkpt lat="44.98836" lon="3.67996">
        <ele>851.49</ele>
        <time>2025-04-15T16:58:31.682Z</time>
      </trkpt>
      <trkpt lat="44.98839" lon="3.68002">
        <ele>851.57</ele>
        <time>2025-04-15T16:58:38.405Z</time>
      </trkpt>
      <trkpt lat="44.98841" lon="3.6801">
        <ele>851.66</ele>
        <time>2025-04-15T16:58:45.129Z</time>
      </trkpt>
      <trkpt lat="44.98843" lon="3.68032">
        <ele>851.7</ele>
        <time>2025-04-15T16:58:51.856Z</time>
      </trkpt>
      <trkpt lat="44.98845" lon="3.68055">
        <ele>851.87</ele>
        <time>2025-04-15T16:58:58.586Z</time>
      </trkpt>
      <trkpt lat="44.98843" lon="3.68062">
        <ele>852.01</ele>
        <time>2025-04-15T16:59:05.316Z</time>
      </trkpt>
      <trkpt lat="44.98839" lon="3.6807">
        <ele>852.16</ele>
        <time>2025-04-15T16:59:12.047Z</time>
      </trkpt>
      <trkpt lat="44.98831" lon="3.68079">
        <ele>852.26</ele>
        <time>2025-04-15T16:59:18.780Z</time>
      </trkpt>
      <trkpt lat="44.98808" lon="3.6809">
        <ele>852.21</ele>
        <time>2025-04-15T16:59:25.517Z</time>
      </trkpt>
      <trkpt lat="44.98784" lon="3.68102">
        <ele>852.35</ele>
        <time>2025-04-15T16:59:32.258Z</time>
      </trkpt>
      <trkpt lat="44.98771" lon="3.68117">
        <ele>852.58</ele>
        <time>2025-04-15T16:59:39.002Z</time>
      </trkpt>
      <trkpt lat="44.98759" lon="3.68124">
        <ele>852.71</ele>
        <time>2025-04-15T16:59:45.748Z</time>
      </trkpt>
      <trkpt lat="44.98734" lon="3.68127">
        <ele>852.74</ele>
        <time>2025-04-15T16:59:52.498Z</time>
      </trkpt>
      <trkpt lat="44.98709" lon="3.68131">
        <ele>852.93</ele>
        <time>2025-04-15T16:59:59.252Z</time>
      </trkpt>
      <trkpt lat="44.98699" lon="3.68131">
        <ele>852.98</ele>
        <time>2025-04-15T17:00:06.008Z</time>
      </trkpt>
      <trkpt lat="44.98679" lon="3.68127">
        <ele>852.97</ele>
        <time>2025-04-15T17:00:12.767Z</time>
      </trkpt>
      <trkpt lat="44.98653" lon="3.68126">
        <ele>853.01</ele>
        <time>2025-04-15T17:00:19.530Z</time>
      </trkpt>
      <trkpt lat="44.98628" lon="3.68123">
        <ele>852.99</ele>
        <time>2025-04-15T17:00:26.297Z</time>
      </trkpt>
      <trkpt lat="44.98603" lon="3.68119">
        <ele>852.78</ele>
        <time>2025-04-15T17:00:33.068Z</time>
      </trkpt>
      <trkpt lat="44.98582" lon="3.68106">
        <ele>852.37</ele>
        <time>2025-04-15T17:00:39.843Z</time>
      </trkpt>
      <trkpt lat="44.98572" lon="3.68104">
        <ele>852.13</ele>
        <time>2025-04-15T17:00:46.619Z</time>
      </trkpt>
      <trkpt lat="44.98563" lon="3.68106">
        <ele>851.93</ele>
        <time>2025-04-15T17:00:53.397Z</time>
      </trkpt>
      <trkpt lat="44.9855" lon="3.68119">
        <ele>851.89</ele>
        <time>2025-04-15T17:01:00.177Z</time>
      </trkpt>
      <trkpt lat="44.98532" lon="3.68128">
        <ele>851.83</ele>
        <time>2025-04-15T17:01:06.960Z</time>
      </trkpt>
      <trkpt lat="44.98514" lon="3.68129">
        <ele>851.5</ele>
        <time>2025-04-15T17:01:13.746Z</time>
      </trkpt>
      <trkpt lat="44.98495" lon="3.6813">
        <ele>851.12</ele>
        <time>2025-04-15T17:01:20.535Z</time>
      </trkpt>
      <trkpt lat="44.98478" lon="3.68135">
        <ele>850.73</ele>
        <time>2025-04-15T17:01:27.327Z</time>
      </trkpt>
      <trkpt lat="44.98469" lon="3.68136">
        <ele>850.26</ele>
        <time>2025-04-15T17:01:34.120Z</time>
      </trkpt>
      <trkpt lat="44.98444" lon="3.68129">
        <ele>849.42</ele>
        <time>2025-04-15T17:01:40.917Z</time>
      </trkpt>
      <trkpt lat="44.98436" lon="3.68131">
        <ele>848.82</ele>
        <time>2025-04-15T17:01:47.716Z</time>
      </trkpt>
      <trkpt lat="44.98414" lon="3.68143">
        <ele>848.21</ele>
        <time>2025-04-15T17:01:54.518Z</time>
      </trkpt>
      <trkpt lat="44.98409" lon="3.68148">
        <ele>847.74</ele>
        <time>2025-04-15T17:02:01.322Z</time>
      </trkpt>
      <trkpt lat="44.98405" lon="3.68158">
        <ele>847.27</ele>
        <time>2025-04-15T17:02:08.127Z</time>
      </trkpt>
      <trkpt lat="44.98403" lon="3.68177">
        <ele>846.91</ele>
        <time>2025-04-15T17:02:14.934Z</time>
      </trkpt>
      <trkpt lat="44.98397" lon="3.6819">
        <ele>846.51</ele>
        <time>2025-04-15T17:02:21.743Z</time>
      </trkpt>
      <trkpt lat="44.98391" lon="3.68199">
        <ele>846.01</ele>
        <time>2025-04-15T17:02:28.553Z</time>
      </trkpt>
      <trkpt lat="44.9838" lon="3.68205">
        <ele>845.46</ele>
        <time>2025-04-15T17:02:35.365Z</time>
      </trkpt>
      <trkpt lat="44.98367" lon="3.68208">
        <ele>844.79</ele>
        <time>2025-04-15T17:02:42.179Z</time>
      </trkpt>
      <trkpt lat="44.98336" lon="3.68209">
        <ele>843.79</ele>
        <time>2025-04-15T17:02:48.998Z</time>
      </trkpt>
      <trkpt lat="44.9833" lon="3.68213">
        <ele>843.23</ele>
        <time>2025-04-15T17:02:55.818Z</time>
      </trkpt>
      <trkpt lat="44.98326" lon="3.6822">
        <ele>842.79</ele>
        <time>2025-04-15T17:03:02.639Z</time>
      </trkpt>
      <trkpt lat="44.98322" lon="3.68254">
        <ele>842.53</ele>
        <time>2025-04-15T17:03:09.464Z</time>
      </trkpt>
      <trkpt lat="44.98317" lon="3.68288">
        <ele>842.32</ele>
        <time>2025-04-15T17:03:16.293Z</time>
      </trkpt>
      <trkpt lat="44.98309" lon="3.68316">
        <ele>841.96</ele>
        <time>2025-04-15T17:03:23.125Z</time>
      </trkpt>
      <trkpt lat="44.98306" lon="3.68345">
        <ele>841.64</ele>
        <time>2025-04-15T17:03:29.961Z</time>
      </trkpt>
      <trkpt lat="44.98295" lon="3.68376">
        <ele>841.22</ele>
        <time>2025-04-15T17:03:36.801Z</time>
      </trkpt>
      <trkpt lat="44.98293" lon="3.68389">
        <ele>840.99</ele>
        <time>2025-04-15T17:03:43.642Z</time>
      </trkpt>
      <trkpt lat="44.98292" lon="3.68401">
        <ele>840.81</ele>
        <time>2025-04-15T17:03:50.485Z</time>
      </trkpt>
      <trkpt lat="44.98293" lon="3.68431">
        <ele>840.83</ele>
        <time>2025-04-15T17:03:57.331Z</time>
      </trkpt>
      <trkpt lat="44.98291" lon="3.68441">
        <ele>840.66</ele>
        <time>2025-04-15T17:04:04.178Z</time>
      </trkpt>
      <trkpt lat="44.9828" lon="3.68453">
        <ele>840.38</ele>
        <time>2025-04-15T17:04:11.027Z</time>
      </trkpt>
      <trkpt lat="44.98251" lon="3.68469">
        <ele>839.82</ele>
        <time>2025-04-15T17:04:17.881Z</time>
      </trkpt>
      <trkpt lat="44.98244" lon="3.68475">
        <ele>839.64</ele>
        <time>2025-04-15T17:04:24.737Z</time>
      </trkpt>
      <trkpt lat="44.98238" lon="3.68485">
        <ele>839.53</ele>
        <time>2025-04-15T17:04:31.594Z</time>
      </trkpt>
      <trkpt lat="44.98236" lon="3.68495">
        <ele>839.46</ele>
        <time>2025-04-15T17:04:38.452Z</time>
      </trkpt>
      <trkpt lat="44.98235" lon="3.68504">
        <ele>839.45</ele>
        <time>2025-04-15T17:04:45.311Z</time>
      </trkpt>
      <trkpt lat="44.98237" lon="3.68518">
        <ele>839.56</ele>
        <time>2025-04-15T17:04:52.172Z</time>
      </trkpt>
      <trkpt lat="44.98242" lon="3.68544">
        <ele>839.81</ele>
        <time>2025-04-15T17:04:59.036Z</time>
      </trkpt>
      <trkpt lat="44.98247" lon="3.6857">
        <ele>840.06</ele>
        <time>2025-04-15T17:05:05.903Z</time>
      </trkpt>
      <trkpt lat="44.98248" lon="3.68582">
        <ele>840.2</ele>
        <time>2025-04-15T17:05:12.771Z</time>
      </trkpt>
      <trkpt lat="44.98245" lon="3.68591">
        <ele>840.29</ele>
        <time>2025-04-15T17:05:19.641Z</time>
      </trkpt>
      <trkpt lat="44.98239" lon="3.68602">
        <ele>840.4</ele>
        <time>2025-04-15T17:05:26.512Z</time>
      </trkpt>
      <trkpt lat="44.98215" lon="3.68619">
        <ele>840.44</ele>
        <time>2025-04-15T17:05:33.388Z</time>
      </trkpt>
      <trkpt lat="44.9819" lon="3.68636">
        <ele>840.53</ele>
        <time>2025-04-15T17:05:40.268Z</time>
      </trkpt>
      <trkpt lat="44.98165" lon="3.68653">
        <ele>840.71</ele>
        <time>2025-04-15T17:05:47.152Z</time>
      </trkpt>
      <trkpt lat="44.98141" lon="3.6867">
        <ele>840.9</ele>
        <time>2025-04-15T17:05:54.041Z</time>
      </trkpt>
      <trkpt lat="44.98116" lon="3.68687">
        <ele>840.96</ele>
        <time>2025-04-15T17:06:00.934Z</time>
      </trkpt>
      <trkpt lat="44.98086" lon="3.68694">
        <ele>841.08</ele>
        <time>2025-04-15T17:06:07.832Z</time>
      </trkpt>
      <trkpt lat="44.98056" lon="3.68702">
        <ele>841.22</ele>
        <time>2025-04-15T17:06:14.735Z</time>
      </trkpt>
      <trkpt lat="44.9805" lon="3.68707">
        <ele>841.45</ele>
        <time>2025-04-15T17:06:21.639Z</time>
      </trkpt>
      <trkpt lat="44.98044" lon="3.68717">
        <ele>841.66</ele>
        <time>2025-04-15T17:06:28.544Z</time>
      </trkpt>
      <trkpt lat="44.98042" lon="3.68727">
        <ele>841.9</ele>
        <time>2025-04-15T17:06:35.451Z</time>
      </trkpt>
      <trkpt lat="44.98042" lon="3.6874">
        <ele>842.16</ele>
        <time>2025-04-15T17:06:42.359Z</time>
      </trkpt>
      <trkpt lat="44.98045" lon="3.68752">
        <ele>842.46</ele>
        <time>2025-04-15T17:06:49.269Z</time>
      </trkpt>
      <trkpt lat="44.98052" lon="3.68762">
        <ele>842.78</ele>
        <time>2025-04-15T17:06:56.180Z</time>
      </trkpt>
      <trkpt lat="44.9806" lon="3.68768">
        <ele>843.14</ele>
        <time>2025-04-15T17:07:03.093Z</time>
      </trkpt>
      <trkpt lat="44.98088" lon="3.6877">
        <ele>843.63</ele>
        <time>2025-04-15T17:07:10.010Z</time>
      </trkpt>
      <trkpt lat="44.98117" lon="3.68771">
        <ele>844.04</ele>
        <time>2025-04-15T17:07:16.932Z</time>
      </trkpt>
      <trkpt lat="44.98145" lon="3.68773">
        <ele>844.48</ele>
        <time>2025-04-15T17:07:23.858Z</time>
      </trkpt>
      <trkpt lat="44.98168" lon="3.68774">
        <ele>844.95</ele>
        <time>2025-04-15T17:07:30.788Z</time>
      </trkpt>
      <trkpt lat="44.9819" lon="3.68776">
        <ele>845.4</ele>
        <time>2025-04-15T17:07:37.721Z</time>
      </trkpt>
      <trkpt lat="44.98213" lon="3.68778">
        <ele>845.83</ele>
        <time>2025-04-15T17:07:44.658Z</time>
      </trkpt>
      <trkpt lat="44.98222" lon="3.68781">
        <ele>846.2</ele>
        <time>2025-04-15T17:07:51.597Z</time>
      </trkpt>
      <trkpt lat="44.98231" lon="3.68787">
        <ele>846.56</ele>
        <time>2025-04-15T17:07:58.537Z</time>
      </trkpt>
      <trkpt lat="44.98242" lon="3.68797">
        <ele>846.93</ele>
        <time>2025-04-15T17:08:05.479Z</time>
      </trkpt>
      <trkpt lat="44.98249" lon="3.68808">
        <ele>847.29</ele>
        <time>2025-04-15T17:08:12.423Z</time>
      </trkpt>
      <trkpt lat="44.98251" lon="3.68819">
        <ele>847.59</ele>
        <time>2025-04-15T17:08:19.368Z</time>
      </trkpt>
      <trkpt lat="44.98251" lon="3.6883">
        <ele>847.86</ele>
        <time>2025-04-15T17:08:26.315Z</time>
      </trkpt>
      <trkpt lat="44.98248" lon="3.68838">
        <ele>848.08</ele>
        <time>2025-04-15T17:08:33.263Z</time>
      </trkpt>
      <trkpt lat="44.98244" lon="3.68846">
        <ele>848.31</ele>
        <time>2025-04-15T17:08:40.212Z</time>
      </trkpt>
      <trkpt lat="44.98222" lon="3.68856">
        <ele>848.31</ele>
        <time>2025-04-15T17:08:47.164Z</time>
      </trkpt>
      <trkpt lat="44.98215" lon="3.68863">
        <ele>848.48</ele>
        <time>2025-04-15T17:08:54.118Z</time>
      </trkpt>
      <trkpt lat="44.98212" lon="3.6887">
        <ele>848.7</ele>
        <time>2025-04-15T17:09:01.073Z</time>
      </trkpt>
      <trkpt lat="44.9821" lon="3.6888">
        <ele>848.93</ele>
        <time>2025-04-15T17:09:08.029Z</time>
      </trkpt>
      <trkpt lat="44.98212" lon="3.68887">
        <ele>849.17</ele>
        <time>2025-04-15T17:09:14.986Z</time>
      </trkpt>
      <trkpt lat="44.98218" lon="3.68895">
        <ele>849.45</ele>
        <time>2025-04-15T17:09:21.944Z</time>
      </trkpt>
      <trkpt lat="44.98235" lon="3.68906">
        <ele>849.82</ele>
        <time>2025-04-15T17:09:28.905Z</time>
      </trkpt>
      <trkpt lat="44.98252" lon="3.68918">
        <ele>850.16</ele>
        <time>2025-04-15T17:09:35.869Z</time>
      </trkpt>
      <trkpt lat="44.9826" lon="3.68927">
        <ele>850.36</ele>
        <time>2025-04-15T17:09:42.835Z</time>
      </trkpt>
      <trkpt lat="44.98266" lon="3.68941">
        <ele>850.49</ele>
        <time>2025-04-15T17:09:49.803Z</time>
      </trkpt>
      <trkpt lat="44.98279" lon="3.68977">
        <ele>850.67</ele>
        <time>2025-04-15T17:09:56.775Z</time>
      </trkpt>
      <trkpt lat="44.98291" lon="3.69012">
        <ele>850.91</ele>
        <time>2025-04-15T17:10:03.752Z</time>
      </trkpt>
      <trkpt lat="44.98292" lon="3.69023">
        <ele>850.96</ele>
        <time>2025-04-15T17:10:10.730Z</time>
      </trkpt>
      <trkpt lat="44.9829" lon="3.69032">
        <ele>850.93</ele>
        <time>2025-04-15T17:10:17.709Z</time>
      </trkpt>
      <trkpt lat="44.98282" lon="3.69045">
        <ele>850.94</ele>
        <time>2025-04-15T17:10:24.690Z</time>
      </trkpt>
      <trkpt lat="44.98277" lon="3.69052">
        <ele>850.89</ele>
        <time>2025-04-15T17:10:31.672Z</time>
      </trkpt>
      <trkpt lat="44.98268" lon="3.69053">
        <ele>850.74</ele>
        <time>2025-04-15T17:10:38.655Z</time>
      </trkpt>
      <trkpt lat="44.98262" lon="3.69049">
        <ele>850.51</ele>
        <time>2025-04-15T17:10:45.639Z</time>
      </trkpt>
      <trkpt lat="44.98244" lon="3.69038">
        <ele>850.19</ele>
        <time>2025-04-15T17:10:52.627Z</time>
      </trkpt>
      <trkpt lat="44.98221" lon="3.69028">
        <ele>849.81</ele>
        <time>2025-04-15T17:10:59.618Z</time>
      </trkpt>
      <trkpt lat="44.98203" lon="3.69029">
        <ele>849.51</ele>
        <time>2025-04-15T17:11:06.612Z</time>
      </trkpt>
      <trkpt lat="44.98185" lon="3.69029">
        <ele>849.22</ele>
        <time>2025-04-15T17:11:13.609Z</time>
      </trkpt>
      <trkpt lat="44.98176" lon="3.69028">
        <ele>848.86</ele>
        <time>2025-04-15T17:11:20.608Z</time>
      </trkpt>
      <trkpt lat="44.98166" lon="3.69024">
        <ele>848.44</ele>
        <time>2025-04-15T17:11:27.608Z</time>
      </trkpt>
      <trkpt lat="44.9815" lon="3.69008">
        <ele>847.8</ele>
        <time>2025-04-15T17:11:34.612Z</time>
      </trkpt>
      <trkpt lat="44.98133" lon="3.68992">
        <ele>847.13</ele>
        <time>2025-04-15T17:11:41.619Z</time>
      </trkpt>
      <trkpt lat="44.98126" lon="3.68987">
        <ele>846.61</ele>
        <time>2025-04-15T17:11:48.627Z</time>
      </trkpt>
      <trkpt lat="44.98119" lon="3.68987">
        <ele>846.11</ele>
        <time>2025-04-15T17:11:55.636Z</time>
      </trkpt>
      <trkpt lat="44.9811" lon="3.68989">
        <ele>845.59</ele>
        <time>2025-04-15T17:12:02.647Z</time>
      </trkpt>
      <trkpt lat="44.98099" lon="3.68997">
        <ele>845.18</ele>
        <time>2025-04-15T17:12:09.660Z</time>
      </trkpt>
      <trkpt lat="44.98086" lon="3.69012">
        <ele>844.88</ele>
        <time>2025-04-15T17:12:16.675Z</time>
      </trkpt>
      <trkpt lat="44.98073" lon="3.69028">
        <ele>844.64</ele>
        <time>2025-04-15T17:12:23.693Z</time>
      </trkpt>
      <trkpt lat="44.98065" lon="3.69033">
        <ele>844.23</ele>
        <time>2025-04-15T17:12:30.712Z</time>
      </trkpt>
      <trkpt lat="44.98054" lon="3.69037">
        <ele>843.76</ele>
        <time>2025-04-15T17:12:37.733Z</time>
      </trkpt>
      <trkpt lat="44.98025" lon="3.69032">
        <ele>843.09</ele>
        <time>2025-04-15T17:12:44.759Z</time>
      </trkpt>
      <trkpt lat="44.98008" lon="3.69027">
        <ele>842.48</ele>
        <time>2025-04-15T17:12:51.788Z</time>
      </trkpt>
      <trkpt lat="44.97991" lon="3.69023">
        <ele>841.88</ele>
        <time>2025-04-15T17:12:58.820Z</time>
      </trkpt>
      <trkpt lat="44.97969" lon="3.69024">
        <ele>841.34</ele>
        <time>2025-04-15T17:13:05.855Z</time>
      </trkpt>
      <trkpt lat="44.97959" lon="3.69027">
        <ele>840.85</ele>
        <time>2025-04-15T17:13:12.892Z</time>
      </trkpt>
      <trkpt lat="44.97949" lon="3.69033">
        <ele>840.37</ele>
        <time>2025-04-15T17:13:19.930Z</time>
      </trkpt>
      <trkpt lat="44.97929" lon="3.69051">
        <ele>839.89</ele>
        <time>2025-04-15T17:13:26.972Z</time>
      </trkpt>
      <trkpt lat="44.9791" lon="3.69069">
        <ele>839.45</ele>
        <time>2025-04-15T17:13:34.018Z</time>
      </trkpt>
      <trkpt lat="44.97891" lon="3.69087">
        <ele>839.02</ele>
        <time>2025-04-15T17:13:41.067Z</time>
      </trkpt>
      <trkpt lat="44.97883" lon="3.69096">
        <ele>838.67</ele>
        <time>2025-04-15T17:13:48.118Z</time>
      </trkpt>
      <trkpt lat="44.97876" lon="3.69112">
        <ele>838.38</ele>
        <time>2025-04-15T17:13:55.171Z</time>
      </trkpt>
      <trkpt lat="44.97869" lon="3.6912">
        <ele>838.17</ele>
        <time>2025-04-15T17:14:02.226Z</time>
      </trkpt>
      <trkpt lat="44.97853" lon="3.6913">
        <ele>838.14</ele>
        <time>2025-04-15T17:14:09.283Z</time>
      </trkpt>
      <trkpt lat="44.97844" lon="3.6913">
        <ele>837.95</ele>
        <time>2025-04-15T17:14:16.342Z</time>
      </trkpt>
      <trkpt lat="44.97837" lon="3.69126">
        <ele>837.69</ele>
        <time>2025-04-15T17:14:23.402Z</time>
      </trkpt>
      <trkpt lat="44.97832" lon="3.69117">
        <ele>837.4</ele>
        <time>2025-04-15T17:14:30.463Z</time>
      </trkpt>
      <trkpt lat="44.97827" lon="3.69105">
        <ele>837.09</ele>
        <time>2025-04-15T17:14:37.526Z</time>
      </trkpt>
      <trkpt lat="44.97823" lon="3.69079">
        <ele>836.64</ele>
        <time>2025-04-15T17:14:44.592Z</time>
      </trkpt>
      <trkpt lat="44.97818" lon="3.69053">
        <ele>836.22</ele>
        <time>2025-04-15T17:14:51.661Z</time>
      </trkpt>
      <trkpt lat="44.97815" lon="3.69044">
        <ele>836.02</ele>
        <time>2025-04-15T17:14:58.731Z</time>
      </trkpt>
      <trkpt lat="44.97803" lon="3.69037">
        <ele>835.84</ele>
        <time>2025-04-15T17:15:05.803Z</time>
      </trkpt>
      <trkpt lat="44.97795" lon="3.69036">
        <ele>835.79</ele>
        <time>2025-04-15T17:15:12.876Z</time>
      </trkpt>
      <trkpt lat="44.97789" lon="3.69039">
        <ele>835.82</ele>
        <time>2025-04-15T17:15:19.951Z</time>
      </trkpt>
      <trkpt lat="44.9778" lon="3.69046">
        <ele>835.91</ele>
        <time>2025-04-15T17:15:27.027Z</time>
      </trkpt>
      <trkpt lat="44.97764" lon="3.69071">
        <ele>836.1</ele>
        <time>2025-04-15T17:15:34.107Z</time>
      </trkpt>
      <trkpt lat="44.97747" lon="3.69096">
        <ele>836.34</ele>
        <time>2025-04-15T17:15:41.191Z</time>
      </trkpt>
      <trkpt lat="44.97733" lon="3.69111">
        <ele>836.6</ele>
        <time>2025-04-15T17:15:48.278Z</time>
      </trkpt>
      <trkpt lat="44.97713" lon="3.69125">
        <ele>836.9</ele>
        <time>2025-04-15T17:15:55.368Z</time>
      </trkpt>
      <trkpt lat="44.97693" lon="3.6914">
        <ele>837.2</ele>
        <time>2025-04-15T17:16:02.462Z</time>
      </trkpt>
      <trkpt lat="44.97673" lon="3.69155">
        <ele>837.49</ele>
        <time>2025-04-15T17:16:09.560Z</time>
      </trkpt>
      <trkpt lat="44.97664" lon="3.69165">
        <ele>837.89</ele>
        <time>2025-04-15T17:16:16.659Z</time>
      </trkpt>
      <trkpt lat="44.97659" lon="3.69175">
        <ele>838.35</ele>
        <time>2025-04-15T17:16:23.760Z</time>
      </trkpt>
      <trkpt lat="44.97655" lon="3.69193">
        <ele>838.9</ele>
        <time>2025-04-15T17:16:30.863Z</time>
      </trkpt>
      <trkpt lat="44.97652" lon="3.69217">
        <ele>839.54</ele>
        <time>2025-04-15T17:16:37.969Z</time>
      </trkpt>
      <trkpt lat="44.97649" lon="3.69242">
        <ele>840.17</ele>
        <time>2025-04-15T17:16:45.078Z</time>
      </trkpt>
      <trkpt lat="44.97641" lon="3.69275">
        <ele>840.82</ele>
        <time>2025-04-15T17:16:52.191Z</time>
      </trkpt>
      <trkpt lat="44.9763" lon="3.69304">
        <ele>841.55</ele>
        <time>2025-04-15T17:16:59.307Z</time>
      </trkpt>
      <trkpt lat="44.97619" lon="3.69334">
        <ele>842.32</ele>
        <time>2025-04-15T17:17:06.427Z</time>
      </trkpt>
      <trkpt lat="44.97609" lon="3.69363">
        <ele>843.15</ele>
        <time>2025-04-15T17:17:13.551Z</time>
      </trkpt>
      <trkpt lat="44.97598" lon="3.69386">
        <ele>843.88</ele>
        <time>2025-04-15T17:17:20.678Z</time>
      </trkpt>
      <trkpt lat="44.9759" lon="3.69398">
        <ele>844.6</ele>
        <time>2025-04-15T17:17:27.807Z</time>
      </trkpt>
      <trkpt lat="44.97584" lon="3.69404">
        <ele>845.31</ele>
        <time>2025-04-15T17:17:34.937Z</time>
      </trkpt>
      <trkpt lat="44.97576" lon="3.69405">
        <ele>845.97</ele>
        <time>2025-04-15T17:17:42.068Z</time>
      </trkpt>
      <trkpt lat="44.97569" lon="3.69402">
        <ele>846.58</ele>
        <time>2025-04-15T17:17:49.200Z</time>
      </trkpt>
      <trkpt lat="44.97562" lon="3.69397">
        <ele>847.24</ele>
        <time>2025-04-15T17:17:56.334Z</time>
      </trkpt>
      <trkpt lat="44.97557" lon="3.69382">
        <ele>847.81</ele>
        <time>2025-04-15T17:18:03.470Z</time>
      </trkpt>
      <trkpt lat="44.97551" lon="3.69355">
        <ele>848.32</ele>
        <time>2025-04-15T17:18:10.609Z</time>
      </trkpt>
      <trkpt lat="44.97544" lon="3.69328">
        <ele>848.8</ele>
        <time>2025-04-15T17:18:17.751Z</time>
      </trkpt>
      <trkpt lat="44.97534" lon="3.69293">
        <ele>849.24</ele>
        <time>2025-04-15T17:18:24.897Z</time>
      </trkpt>
      <trkpt lat="44.97524" lon="3.69259">
        <ele>849.59</ele>
        <time>2025-04-15T17:18:32.048Z</time>
      </trkpt>
      <trkpt lat="44.97513" lon="3.69239">
        <ele>850</ele>
        <time>2025-04-15T17:18:39.201Z</time>
      </trkpt>
      <trkpt lat="44.97502" lon="3.69219">
        <ele>850.24</ele>
        <time>2025-04-15T17:18:46.357Z</time>
      </trkpt>
      <trkpt lat="44.97494" lon="3.6919">
        <ele>850.36</ele>
        <time>2025-04-15T17:18:53.517Z</time>
      </trkpt>
      <trkpt lat="44.97486" lon="3.69151">
        <ele>850.41</ele>
        <time>2025-04-15T17:19:00.681Z</time>
      </trkpt>
      <trkpt lat="44.97479" lon="3.69113">
        <ele>850.43</ele>
        <time>2025-04-15T17:19:07.850Z</time>
      </trkpt>
      <trkpt lat="44.97467" lon="3.69085">
        <ele>850.43</ele>
        <time>2025-04-15T17:19:15.023Z</time>
      </trkpt>
      <trkpt lat="44.97458" lon="3.69071">
        <ele>850.38</ele>
        <time>2025-04-15T17:19:22.198Z</time>
      </trkpt>
      <trkpt lat="44.97448" lon="3.6906">
        <ele>850.3</ele>
        <time>2025-04-15T17:19:29.375Z</time>
      </trkpt>
      <trkpt lat="44.97428" lon="3.69047">
        <ele>850.17</ele>
        <time>2025-04-15T17:19:36.555Z</time>
      </trkpt>
      <trkpt lat="44.97407" lon="3.69044">
        <ele>849.95</ele>
        <time>2025-04-15T17:19:43.739Z</time>
      </trkpt>
      <trkpt lat="44.97385" lon="3.69041">
        <ele>849.65</ele>
        <time>2025-04-15T17:19:50.926Z</time>
      </trkpt>
      <trkpt lat="44.97369" lon="3.69039">
        <ele>849.3</ele>
        <time>2025-04-15T17:19:58.116Z</time>
      </trkpt>
      <trkpt lat="44.97352" lon="3.69038">
        <ele>848.89</ele>
        <time>2025-04-15T17:20:05.308Z</time>
      </trkpt>
      <trkpt lat="44.97325" lon="3.69039">
        <ele>848.45</ele>
        <time>2025-04-15T17:20:12.505Z</time>
      </trkpt>
      <trkpt lat="44.97299" lon="3.69041">
        <ele>847.9</ele>
        <time>2025-04-15T17:20:19.706Z</time>
      </trkpt>
      <trkpt lat="44.97272" lon="3.69042">
        <ele>847.25</ele>
        <time>2025-04-15T17:20:26.911Z</time>
      </trkpt>
      <trkpt lat="44.97245" lon="3.69044">
        <ele>846.54</ele>
        <time>2025-04-15T17:20:34.121Z</time>
      </trkpt>
      <trkpt lat="44.97218" lon="3.69045">
        <ele>845.79</ele>
        <time>2025-04-15T17:20:41.335Z</time>
      </trkpt>
      <trkpt lat="44.97192" lon="3.69053">
        <ele>844.93</ele>
        <time>2025-04-15T17:20:48.553Z</time>
      </trkpt>
      <trkpt lat="44.97185" lon="3.6906">
        <ele>844.08</ele>
        <time>2025-04-15T17:20:55.773Z</time>
      </trkpt>
      <trkpt lat="44.97173" lon="3.69077">
        <ele>843.16</ele>
        <time>2025-04-15T17:21:02.995Z</time>
      </trkpt>
      <trkpt lat="44.97168" lon="3.69092">
        <ele>842.19</ele>
        <time>2025-04-15T17:21:10.219Z</time>
      </trkpt>
      <trkpt lat="44.97164" lon="3.69106">
        <ele>841.2</ele>
        <time>2025-04-15T17:21:17.445Z</time>
      </trkpt>
      <trkpt lat="44.97164" lon="3.69119">
        <ele>840.17</ele>
        <time>2025-04-15T17:21:24.672Z</time>
      </trkpt>
      <trkpt lat="44.97165" lon="3.69136">
        <ele>839.12</ele>
        <time>2025-04-15T17:21:31.901Z</time>
      </trkpt>
      <trkpt lat="44.97171" lon="3.69164">
        <ele>838.1</ele>
        <time>2025-04-15T17:21:39.133Z</time>
      </trkpt>
      <trkpt lat="44.97176" lon="3.69191">
        <ele>837.05</ele>
        <time>2025-04-15T17:21:46.369Z</time>
      </trkpt>
      <trkpt lat="44.97177" lon="3.69214">
        <ele>835.88</ele>
        <time>2025-04-15T17:21:53.607Z</time>
      </trkpt>
      <trkpt lat="44.97173" lon="3.69251">
        <ele>834.58</ele>
        <time>2025-04-15T17:22:00.850Z</time>
      </trkpt>
      <trkpt lat="44.97169" lon="3.69289">
        <ele>833.38</ele>
        <time>2025-04-15T17:22:08.097Z</time>
      </trkpt>
      <trkpt lat="44.97164" lon="3.69326">
        <ele>832.23</ele>
        <time>2025-04-15T17:22:15.348Z</time>
      </trkpt>
      <trkpt lat="44.9716" lon="3.69358">
        <ele>831.03</ele>
        <time>2025-04-15T17:22:22.603Z</time>
      </trkpt>
      <trkpt lat="44.97155" lon="3.6939">
        <ele>829.88</ele>
        <time>2025-04-15T17:22:29.862Z</time>
      </trkpt>
      <trkpt lat="44.97147" lon="3.69414">
        <ele>828.68</ele>
        <time>2025-04-15T17:22:37.124Z</time>
      </trkpt>
      <trkpt lat="44.9714" lon="3.69436">
        <ele>827.49</ele>
        <time>2025-04-15T17:22:44.388Z</time>
      </trkpt>
      <trkpt lat="44.97124" lon="3.69473">
        <ele>826.16</ele>
        <time>2025-04-15T17:22:51.657Z</time>
      </trkpt>
      <trkpt lat="44.97108" lon="3.6951">
        <ele>825.09</ele>
        <time>2025-04-15T17:22:58.931Z</time>
      </trkpt>
      <trkpt lat="44.97102" lon="3.69527">
        <ele>824.04</ele>
        <time>2025-04-15T17:23:06.207Z</time>
      </trkpt>
      <trkpt lat="44.97101" lon="3.6954">
        <ele>823.04</ele>
        <time>2025-04-15T17:23:13.485Z</time>
      </trkpt>
      <trkpt lat="44.97102" lon="3.69552">
        <ele>822.05</ele>
        <time>2025-04-15T17:23:20.764Z</time>
      </trkpt>
      <trkpt lat="44.97105" lon="3.69562">
        <ele>821.13</ele>
        <time>2025-04-15T17:23:28.045Z</time>
      </trkpt>
      <trkpt lat="44.97124" lon="3.69589">
        <ele>820.35</ele>
        <time>2025-04-15T17:23:35.330Z</time>
      </trkpt>
      <trkpt lat="44.97142" lon="3.69616">
        <ele>819.5</ele>
        <time>2025-04-15T17:23:42.619Z</time>
      </trkpt>
      <trkpt lat="44.97148" lon="3.69631">
        <ele>818.64</ele>
        <time>2025-04-15T17:23:49.910Z</time>
      </trkpt>
      <trkpt lat="44.97152" lon="3.69646">
        <ele>817.8</ele>
        <time>2025-04-15T17:23:57.203Z</time>
      </trkpt>
      <trkpt lat="44.97154" lon="3.69665">
        <ele>816.97</ele>
        <time>2025-04-15T17:24:04.498Z</time>
      </trkpt>
      <trkpt lat="44.9715" lon="3.69689">
        <ele>816.19</ele>
        <time>2025-04-15T17:24:11.796Z</time>
      </trkpt>
      <trkpt lat="44.97145" lon="3.697">
        <ele>815.51</ele>
        <time>2025-04-15T17:24:19.095Z</time>
      </trkpt>
      <trkpt lat="44.97134" lon="3.6971">
        <ele>814.93</ele>
        <time>2025-04-15T17:24:26.396Z</time>
      </trkpt>
      <trkpt lat="44.9711" lon="3.69727">
        <ele>814.29</ele>
        <time>2025-04-15T17:24:33.702Z</time>
      </trkpt>
      <trkpt lat="44.97086" lon="3.69744">
        <ele>813.71</ele>
        <time>2025-04-15T17:24:41.012Z</time>
      </trkpt>
      <trkpt lat="44.97062" lon="3.69761">
        <ele>813.17</ele>
        <time>2025-04-15T17:24:48.326Z</time>
      </trkpt>
      <trkpt lat="44.97045" lon="3.69781">
        <ele>812.77</ele>
        <time>2025-04-15T17:24:55.644Z</time>
      </trkpt>
      <trkpt lat="44.97039" lon="3.69792">
        <ele>812.51</ele>
        <time>2025-04-15T17:25:02.963Z</time>
      </trkpt>
      <trkpt lat="44.97036" lon="3.69804">
        <ele>812.36</ele>
        <time>2025-04-15T17:25:10.284Z</time>
      </trkpt>
      <trkpt lat="44.97034" lon="3.69848">
        <ele>812.46</ele>
        <time>2025-04-15T17:25:17.610Z</time>
      </trkpt>
      <trkpt lat="44.97035" lon="3.69891">
        <ele>812.52</ele>
        <time>2025-04-15T17:25:24.941Z</time>
      </trkpt>
      <trkpt lat="44.97034" lon="3.69909">
        <ele>812.53</ele>
        <time>2025-04-15T17:25:32.274Z</time>
      </trkpt>
      <trkpt lat="44.97029" lon="3.69923">
        <ele>812.54</ele>
        <time>2025-04-15T17:25:39.608Z</time>
      </trkpt>
      <trkpt lat="44.97014" lon="3.69947">
        <ele>812.57</ele>
        <time>2025-04-15T17:25:46.946Z</time>
      </trkpt>
      <trkpt lat="44.97006" lon="3.69956">
        <ele>812.73</ele>
        <time>2025-04-15T17:25:54.286Z</time>
      </trkpt>
      <trkpt lat="44.96993" lon="3.69963">
        <ele>812.92</ele>
        <time>2025-04-15T17:26:01.628Z</time>
      </trkpt>
      <trkpt lat="44.96983" lon="3.69965">
        <ele>813.15</ele>
        <time>2025-04-15T17:26:08.972Z</time>
      </trkpt>
      <trkpt lat="44.9697" lon="3.69964">
        <ele>813.45</ele>
        <time>2025-04-15T17:26:16.318Z</time>
      </trkpt>
      <trkpt lat="44.96961" lon="3.69959">
        <ele>813.7</ele>
        <time>2025-04-15T17:26:23.665Z</time>
      </trkpt>
      <trkpt lat="44.96952" lon="3.6995">
        <ele>814</ele>
        <time>2025-04-15T17:26:31.014Z</time>
      </trkpt>
      <trkpt lat="44.96944" lon="3.69939">
        <ele>814.33</ele>
        <time>2025-04-15T17:26:38.365Z</time>
      </trkpt>
      <trkpt lat="44.96933" lon="3.69907">
        <ele>814.54</ele>
        <time>2025-04-15T17:26:45.720Z</time>
      </trkpt>
      <trkpt lat="44.96921" lon="3.69875">
        <ele>814.78</ele>
        <time>2025-04-15T17:26:53.079Z</time>
      </trkpt>
      <trkpt lat="44.96906" lon="3.69841">
        <ele>815.08</ele>
        <time>2025-04-15T17:27:00.442Z</time>
      </trkpt>
      <trkpt lat="44.96891" lon="3.69808">
        <ele>815.35</ele>
        <time>2025-04-15T17:27:07.810Z</time>
      </trkpt>
      <trkpt lat="44.96875" lon="3.69771">
        <ele>815.63</ele>
        <time>2025-04-15T17:27:15.183Z</time>
      </trkpt>
      <trkpt lat="44.96859" lon="3.69734">
        <ele>816.05</ele>
        <time>2025-04-15T17:27:22.561Z</time>
      </trkpt>
      <trkpt lat="44.9685" lon="3.69705">
        <ele>816.3</ele>
        <time>2025-04-15T17:27:29.942Z</time>
      </trkpt>
      <trkpt lat="44.96842" lon="3.69671">
        <ele>816.5</ele>
        <time>2025-04-15T17:27:37.327Z</time>
      </trkpt>
      <trkpt lat="44.96834" lon="3.69636">
        <ele>816.57</ele>
        <time>2025-04-15T17:27:44.717Z</time>
      </trkpt>
      <trkpt lat="44.96825" lon="3.69613">
        <ele>816.68</ele>
        <time>2025-04-15T17:27:52.110Z</time>
      </trkpt>
      <trkpt lat="44.96816" lon="3.69593">
        <ele>816.75</ele>
        <time>2025-04-15T17:27:59.505Z</time>
      </trkpt>
      <trkpt lat="44.96806" lon="3.69573">
        <ele>816.74</ele>
        <time>2025-04-15T17:28:06.903Z</time>
      </trkpt>
      <trkpt lat="44.96786" lon="3.69541">
        <ele>816.77</ele>
        <time>2025-04-15T17:28:14.306Z</time>
      </trkpt>
      <trkpt lat="44.96765" lon="3.69509">
        <ele>816.68</ele>
        <time>2025-04-15T17:28:21.714Z</time>
      </trkpt>
      <trkpt lat="44.96745" lon="3.69476">
        <ele>816.67</ele>
        <time>2025-04-15T17:28:29.127Z</time>
      </trkpt>
      <trkpt lat="44.96736" lon="3.6946">
        <ele>816.5</ele>
        <time>2025-04-15T17:28:36.542Z</time>
      </trkpt>
      <trkpt lat="44.96723" lon="3.69424">
        <ele>816.05</ele>
        <time>2025-04-15T17:28:43.962Z</time>
      </trkpt>
      <trkpt lat="44.96713" lon="3.69383">
        <ele>815.52</ele>
        <time>2025-04-15T17:28:51.387Z</time>
      </trkpt>
      <trkpt lat="44.96703" lon="3.69341">
        <ele>814.87</ele>
        <time>2025-04-15T17:28:58.817Z</time>
      </trkpt>
      <trkpt lat="44.96695" lon="3.69321">
        <ele>814.17</ele>
        <time>2025-04-15T17:29:06.249Z</time>
      </trkpt>
      <trkpt lat="44.96694" lon="3.69321">
        <ele>813.55</ele>
        <time>2025-04-15T17:29:13.681Z</time>
      </trkpt>
      <trkpt lat="44.96688" lon="3.69311">
        <ele>812.8</ele>
        <time>2025-04-15T17:29:21.115Z</time>
      </trkpt>
      <trkpt lat="44.9667" lon="3.69296">
        <ele>811.91</ele>
        <time>2025-04-15T17:29:28.552Z</time>
      </trkpt>
      <trkpt lat="44.96657" lon="3.69291">
        <ele>811.05</ele>
        <time>2025-04-15T17:29:35.991Z</time>
      </trkpt>
      <trkpt lat="44.9664" lon="3.69289">
        <ele>810.2</ele>
        <time>2025-04-15T17:29:43.433Z</time>
      </trkpt>
      <trkpt lat="44.96624" lon="3.69288">
        <ele>809.29</ele>
        <time>2025-04-15T17:29:50.878Z</time>
      </trkpt>
      <trkpt lat="44.96603" lon="3.69282">
        <ele>808.18</ele>
        <time>2025-04-15T17:29:58.326Z</time>
      </trkpt>
      <trkpt lat="44.96584" lon="3.69275">
        <ele>807.08</ele>
        <time>2025-04-15T17:30:05.777Z</time>
      </trkpt>
      <trkpt lat="44.96568" lon="3.69262">
        <ele>805.9</ele>
        <time>2025-04-15T17:30:13.231Z</time>
      </trkpt>
      <trkpt lat="44.96555" lon="3.69249">
        <ele>804.73</ele>
        <time>2025-04-15T17:30:20.688Z</time>
      </trkpt>
      <trkpt lat="44.96548" lon="3.69236">
        <ele>803.49</ele>
        <time>2025-04-15T17:30:28.147Z</time>
      </trkpt>
      <trkpt lat="44.96539" lon="3.69219">
        <ele>802.19</ele>
        <time>2025-04-15T17:30:35.608Z</time>
      </trkpt>
      <trkpt lat="44.96534" lon="3.69193">
        <ele>800.77</ele>
        <time>2025-04-15T17:30:43.072Z</time>
      </trkpt>
      <trkpt lat="44.96528" lon="3.69167">
        <ele>799.37</ele>
        <time>2025-04-15T17:30:50.539Z</time>
      </trkpt>
      <trkpt lat="44.96523" lon="3.69151">
        <ele>797.97</ele>
        <time>2025-04-15T17:30:58.008Z</time>
      </trkpt>
      <trkpt lat="44.96516" lon="3.69134">
        <ele>796.54</ele>
        <time>2025-04-15T17:31:05.479Z</time>
      </trkpt>
      <trkpt lat="44.96502" lon="3.69112">
        <ele>795.05</ele>
        <time>2025-04-15T17:31:12.954Z</time>
      </trkpt>
      <trkpt lat="44.96491" lon="3.691">
        <ele>793.57</ele>
        <time>2025-04-15T17:31:20.431Z</time>
      </trkpt>
      <trkpt lat="44.96469" lon="3.69087">
        <ele>792.02</ele>
        <time>2025-04-15T17:31:27.912Z</time>
      </trkpt>
      <trkpt lat="44.96448" lon="3.69073">
        <ele>790.46</ele>
        <time>2025-04-15T17:31:35.396Z</time>
      </trkpt>
      <trkpt lat="44.96426" lon="3.6906">
        <ele>788.9</ele>
        <time>2025-04-15T17:31:42.884Z</time>
      </trkpt>
      <trkpt lat="44.96401" lon="3.69048">
        <ele>787.27</ele>
        <time>2025-04-15T17:31:50.377Z</time>
      </trkpt>
      <trkpt lat="44.96375" lon="3.69036">
        <ele>785.6</ele>
        <time>2025-04-15T17:31:57.874Z</time>
      </trkpt>
      <trkpt lat="44.9635" lon="3.69032">
        <ele>783.91</ele>
        <time>2025-04-15T17:32:05.375Z</time>
      </trkpt>
      <trkpt lat="44.96339" lon="3.69036">
        <ele>782.31</ele>
        <time>2025-04-15T17:32:12.878Z</time>
      </trkpt>
      <trkpt lat="44.96331" lon="3.69041">
        <ele>780.72</ele>
        <time>2025-04-15T17:32:20.382Z</time>
      </trkpt>
      <trkpt lat="44.96324" lon="3.69045">
        <ele>779.13</ele>
        <time>2025-04-15T17:32:27.887Z</time>
      </trkpt>
      <trkpt lat="44.96316" lon="3.69057">
        <ele>777.53</ele>
        <time>2025-04-15T17:32:35.394Z</time>
      </trkpt>
      <trkpt lat="44.96306" lon="3.69076">
        <ele>775.94</ele>
        <time>2025-04-15T17:32:42.904Z</time>
      </trkpt>
      <trkpt lat="44.96295" lon="3.69096">
        <ele>774.33</ele>
        <time>2025-04-15T17:32:50.417Z</time>
      </trkpt>
      <trkpt lat="44.96285" lon="3.6912">
        <ele>772.69</ele>
        <time>2025-04-15T17:32:57.933Z</time>
      </trkpt>
      <trkpt lat="44.96274" lon="3.69144">
        <ele>771.13</ele>
        <time>2025-04-15T17:33:05.452Z</time>
      </trkpt>
      <trkpt lat="44.96257" lon="3.69166">
        <ele>769.53</ele>
        <time>2025-04-15T17:33:12.975Z</time>
      </trkpt>
      <trkpt lat="44.96237" lon="3.69187">
        <ele>767.83</ele>
        <time>2025-04-15T17:33:20.502Z</time>
      </trkpt>
      <trkpt lat="44.96218" lon="3.69208">
        <ele>766.13</ele>
        <time>2025-04-15T17:33:28.033Z</time>
      </trkpt>
      <trkpt lat="44.9621" lon="3.69221">
        <ele>764.48</ele>
        <time>2025-04-15T17:33:35.566Z</time>
      </trkpt>
      <trkpt lat="44.96203" lon="3.69233">
        <ele>762.86</ele>
        <time>2025-04-15T17:33:43.100Z</time>
      </trkpt>
      <trkpt lat="44.96197" lon="3.69253">
        <ele>761.29</ele>
        <time>2025-04-15T17:33:50.637Z</time>
      </trkpt>
      <trkpt lat="44.96191" lon="3.69283">
        <ele>759.7</ele>
        <time>2025-04-15T17:33:58.177Z</time>
      </trkpt>
      <trkpt lat="44.96186" lon="3.69312">
        <ele>758.01</ele>
        <time>2025-04-15T17:34:05.721Z</time>
      </trkpt>
      <trkpt lat="44.9618" lon="3.69353">
        <ele>756.26</ele>
        <time>2025-04-15T17:34:13.270Z</time>
      </trkpt>
      <trkpt lat="44.96174" lon="3.69394">
        <ele>754.5</ele>
        <time>2025-04-15T17:34:20.823Z</time>
      </trkpt>
      <trkpt lat="44.96169" lon="3.69433">
        <ele>752.69</ele>
        <time>2025-04-15T17:34:28.381Z</time>
      </trkpt>
      <trkpt lat="44.96164" lon="3.69473">
        <ele>751</ele>
        <time>2025-04-15T17:34:35.943Z</time>
      </trkpt>
      <trkpt lat="44.96159" lon="3.69512">
        <ele>749.25</ele>
        <time>2025-04-15T17:34:43.510Z</time>
      </trkpt>
      <trkpt lat="44.96157" lon="3.69542">
        <ele>747.53</ele>
        <time>2025-04-15T17:34:51.080Z</time>
      </trkpt>
      <trkpt lat="44.96157" lon="3.69568">
        <ele>745.83</ele>
        <time>2025-04-15T17:34:58.653Z</time>
      </trkpt>
      <trkpt lat="44.96157" lon="3.69595">
        <ele>744.09</ele>
        <time>2025-04-15T17:35:06.229Z</time>
      </trkpt>
      <trkpt lat="44.96152" lon="3.69627">
        <ele>742.22</ele>
        <time>2025-04-15T17:35:13.809Z</time>
      </trkpt>
      <trkpt lat="44.96147" lon="3.69659">
        <ele>740.41</ele>
        <time>2025-04-15T17:35:21.393Z</time>
      </trkpt>
      <trkpt lat="44.96139" lon="3.69687">
        <ele>738.58</ele>
        <time>2025-04-15T17:35:28.980Z</time>
      </trkpt>
      <trkpt lat="44.9613" lon="3.69716">
        <ele>736.76</ele>
        <time>2025-04-15T17:35:36.571Z</time>
      </trkpt>
      <trkpt lat="44.96128" lon="3.69734">
        <ele>735.01</ele>
        <time>2025-04-15T17:35:44.164Z</time>
      </trkpt>
      <trkpt lat="44.96129" lon="3.6975">
        <ele>733.27</ele>
        <time>2025-04-15T17:35:51.759Z</time>
      </trkpt>
      <trkpt lat="44.96138" lon="3.69781">
        <ele>731.65</ele>
        <time>2025-04-15T17:35:59.358Z</time>
      </trkpt>
      <trkpt lat="44.96142" lon="3.69807">
        <ele>729.98</ele>
        <time>2025-04-15T17:36:06.960Z</time>
      </trkpt>
      <trkpt lat="44.96143" lon="3.69822">
        <ele>728.27</ele>
        <time>2025-04-15T17:36:14.563Z</time>
      </trkpt>
      <trkpt lat="44.96141" lon="3.69831">
        <ele>726.51</ele>
        <time>2025-04-15T17:36:22.167Z</time>
      </trkpt>
      <trkpt lat="44.96137" lon="3.69838">
        <ele>724.75</ele>
        <time>2025-04-15T17:36:29.772Z</time>
      </trkpt>
      <trkpt lat="44.96128" lon="3.69844">
        <ele>722.98</ele>
        <time>2025-04-15T17:36:37.379Z</time>
      </trkpt>
      <trkpt lat="44.961" lon="3.69853">
        <ele>721.12</ele>
        <time>2025-04-15T17:36:44.991Z</time>
      </trkpt>
      <trkpt lat="44.96084" lon="3.69852">
        <ele>719.2</ele>
        <time>2025-04-15T17:36:52.605Z</time>
      </trkpt>
      <trkpt lat="44.96062" lon="3.69848">
        <ele>717.16</ele>
        <time>2025-04-15T17:37:00.223Z</time>
      </trkpt>
      <trkpt lat="44.96039" lon="3.69843">
        <ele>715.17</ele>
        <time>2025-04-15T17:37:07.844Z</time>
      </trkpt>
      <trkpt lat="44.96027" lon="3.69843">
        <ele>713.34</ele>
        <time>2025-04-15T17:37:15.467Z</time>
      </trkpt>
      <trkpt lat="44.96019" lon="3.69848">
        <ele>711.59</ele>
        <time>2025-04-15T17:37:23.092Z</time>
      </trkpt>
      <trkpt lat="44.96011" lon="3.69855">
        <ele>709.89</ele>
        <time>2025-04-15T17:37:30.718Z</time>
      </trkpt>
      <trkpt lat="44.96006" lon="3.69865">
        <ele>708.19</ele>
        <time>2025-04-15T17:37:38.346Z</time>
      </trkpt>
      <trkpt lat="44.95996" lon="3.69896">
        <ele>706.48</ele>
        <time>2025-04-15T17:37:45.977Z</time>
      </trkpt>
      <trkpt lat="44.95986" lon="3.69926">
        <ele>704.7</ele>
        <time>2025-04-15T17:37:53.612Z</time>
      </trkpt>
      <trkpt lat="44.95981" lon="3.69937">
        <ele>703.12</ele>
        <time>2025-04-15T17:38:01.249Z</time>
      </trkpt>
      <trkpt lat="44.95975" lon="3.69942">
        <ele>701.55</ele>
        <time>2025-04-15T17:38:08.887Z</time>
      </trkpt>
      <trkpt lat="44.95968" lon="3.69945">
        <ele>700.03</ele>
        <time>2025-04-15T17:38:16.526Z</time>
      </trkpt>
      <trkpt lat="44.95938" lon="3.69945">
        <ele>698.41</ele>
        <time>2025-04-15T17:38:24.170Z</time>
      </trkpt>
      <trkpt lat="44.95923" lon="3.69947">
        <ele>696.91</ele>
        <time>2025-04-15T17:38:31.816Z</time>
      </trkpt>
      <trkpt lat="44.95905" lon="3.69954">
        <ele>695.41</ele>
        <time>2025-04-15T17:38:39.465Z</time>
      </trkpt>
      <trkpt lat="44.95896" lon="3.6996">
        <ele>694.05</ele>
        <time>2025-04-15T17:38:47.116Z</time>
      </trkpt>
      <trkpt lat="44.95888" lon="3.69971">
        <ele>692.77</ele>
        <time>2025-04-15T17:38:54.769Z</time>
      </trkpt>
      <trkpt lat="44.95874" lon="3.70001">
        <ele>691.55</ele>
        <time>2025-04-15T17:39:02.426Z</time>
      </trkpt>
      <trkpt lat="44.95865" lon="3.70014">
        <ele>690.46</ele>
        <time>2025-04-15T17:39:10.085Z</time>
      </trkpt>
      <trkpt lat="44.95846" lon="3.70039">
        <ele>689.49</ele>
        <time>2025-04-15T17:39:17.748Z</time>
      </trkpt>
      <trkpt lat="44.95838" lon="3.70043">
        <ele>688.54</ele>
        <time>2025-04-15T17:39:25.412Z</time>
      </trkpt>
      <trkpt lat="44.95832" lon="3.70043">
        <ele>687.6</ele>
        <time>2025-04-15T17:39:33.077Z</time>
      </trkpt>
      <trkpt lat="44.95827" lon="3.70038">
        <ele>686.64</ele>
        <time>2025-04-15T17:39:40.743Z</time>
      </trkpt>
      <trkpt lat="44.95822" lon="3.70028">
        <ele>685.73</ele>
        <time>2025-04-15T17:39:48.411Z</time>
      </trkpt>
      <trkpt lat="44.95819" lon="3.70004">
        <ele>684.83</ele>
        <time>2025-04-15T17:39:56.081Z</time>
      </trkpt>
      <trkpt lat="44.95816" lon="3.69981">
        <ele>684.01</ele>
        <time>2025-04-15T17:40:03.754Z</time>
      </trkpt>
      <trkpt lat="44.95813" lon="3.69968">
        <ele>683.35</ele>
        <time>2025-04-15T17:40:11.429Z</time>
      </trkpt>
      <trkpt lat="44.95806" lon="3.69954">
        <ele>682.79</ele>
        <time>2025-04-15T17:40:19.105Z</time>
      </trkpt>
      <trkpt lat="44.95797" lon="3.69936">
        <ele>682.3</ele>
        <time>2025-04-15T17:40:26.784Z</time>
      </trkpt>
      <trkpt lat="44.95783" lon="3.69914">
        <ele>681.92</ele>
        <time>2025-04-15T17:40:34.466Z</time>
      </trkpt>
      <trkpt lat="44.95765" lon="3.69892">
        <ele>681.64</ele>
        <time>2025-04-15T17:40:42.152Z</time>
      </trkpt>
      <trkpt lat="44.9575" lon="3.69875">
        <ele>681.41</ele>
        <time>2025-04-15T17:40:49.841Z</time>
      </trkpt>
      <trkpt lat="44.95739" lon="3.69864">
        <ele>681.28</ele>
        <time>2025-04-15T17:40:57.532Z</time>
      </trkpt>
      <trkpt lat="44.95721" lon="3.69854">
        <ele>681.23</ele>
        <time>2025-04-15T17:41:05.226Z</time>
      </trkpt>
      <trkpt lat="44.95698" lon="3.69848">
        <ele>681.33</ele>
        <time>2025-04-15T17:41:12.924Z</time>
      </trkpt>
      <trkpt lat="44.95675" lon="3.69842">
        <ele>681.51</ele>
        <time>2025-04-15T17:41:20.626Z</time>
      </trkpt>
      <trkpt lat="44.95666" lon="3.69844">
        <ele>681.73</ele>
        <time>2025-04-15T17:41:28.329Z</time>
      </trkpt>
      <trkpt lat="44.95657" lon="3.69849">
        <ele>682.04</ele>
        <time>2025-04-15T17:41:36.034Z</time>
      </trkpt>
      <trkpt lat="44.95651" lon="3.69855">
        <ele>682.46</ele>
        <time>2025-04-15T17:41:43.740Z</time>
      </trkpt>
      <trkpt lat="44.95634" lon="3.69881">
        <ele>682.93</ele>
        <time>2025-04-15T17:41:51.450Z</time>
      </trkpt>
      <trkpt lat="44.95625" lon="3.69907">
        <ele>683.5</ele>
        <time>2025-04-15T17:41:59.163Z</time>
      </trkpt>
      <trkpt lat="44.95616" lon="3.69936">
        <ele>684.23</ele>
        <time>2025-04-15T17:42:06.880Z</time>
      </trkpt>
      <trkpt lat="44.95608" lon="3.69965">
        <ele>685.11</ele>
        <time>2025-04-15T17:42:14.601Z</time>
      </trkpt>
      <trkpt lat="44.95601" lon="3.69976">
        <ele>686</ele>
        <time>2025-04-15T17:42:22.323Z</time>
      </trkpt>
      <trkpt lat="44.95592" lon="3.69986">
        <ele>686.92</ele>
        <time>2025-04-15T17:42:30.047Z</time>
      </trkpt>
      <trkpt lat="44.95577" lon="3.69994">
        <ele>687.9</ele>
        <time>2025-04-15T17:42:37.774Z</time>
      </trkpt>
      <trkpt lat="44.95551" lon="3.70003">
        <ele>689.02</ele>
        <time>2025-04-15T17:42:45.505Z</time>
      </trkpt>
      <trkpt lat="44.95525" lon="3.70011">
        <ele>690.14</ele>
        <time>2025-04-15T17:42:53.240Z</time>
      </trkpt>
      <trkpt lat="44.95499" lon="3.7002">
        <ele>691.32</ele>
        <time>2025-04-15T17:43:00.979Z</time>
      </trkpt>
      <trkpt lat="44.95486" lon="3.70023">
        <ele>692.56</ele>
        <time>2025-04-15T17:43:08.720Z</time>
      </trkpt>
      <trkpt lat="44.95474" lon="3.70022">
        <ele>693.89</ele>
        <time>2025-04-15T17:43:16.464Z</time>
      </trkpt>
      <trkpt lat="44.95463" lon="3.70016">
        <ele>695.21</ele>
        <time>2025-04-15T17:43:24.209Z</time>
      </trkpt>
      <trkpt lat="44.95454" lon="3.70004">
        <ele>696.6</ele>
        <time>2025-04-15T17:43:31.956Z</time>
      </trkpt>
      <trkpt lat="44.95448" lon="3.6999">
        <ele>698.16</ele>
        <time>2025-04-15T17:43:39.705Z</time>
      </trkpt>
      <trkpt lat="44.95444" lon="3.69972">
        <ele>699.75</ele>
        <time>2025-04-15T17:43:47.456Z</time>
      </trkpt>
      <trkpt lat="44.9544" lon="3.69944">
        <ele>701.35</ele>
        <time>2025-04-15T17:43:55.211Z</time>
      </trkpt>
      <trkpt lat="44.95437" lon="3.69918">
        <ele>702.88</ele>
        <time>2025-04-15T17:44:02.969Z</time>
      </trkpt>
      <trkpt lat="44.95437" lon="3.69918">
        <ele>704.45</ele>
        <time>2025-04-15T17:44:10.727Z</time>
      </trkpt>
      <trkpt lat="44.95437" lon="3.69916">
        <ele>706.04</ele>
        <time>2025-04-15T17:44:18.485Z</time>
      </trkpt>
      <trkpt lat="44.95437" lon="3.69916">
        <ele>707.66</ele>
        <time>2025-04-15T17:44:26.243Z</time>
      </trkpt>
      <trkpt lat="44.95437" lon="3.69916">
        <ele>709.32</ele>
        <time>2025-04-15T17:44:34.001Z</time>
      </trkpt>
      <trkpt lat="44.95432" lon="3.69893">
        <ele>710.98</ele>
        <time>2025-04-15T17:44:41.762Z</time>
      </trkpt>
      <trkpt lat="44.95426" lon="3.6987">
        <ele>712.66</ele>
        <time>2025-04-15T17:44:49.525Z</time>
      </trkpt>
      <trkpt lat="44.95412" lon="3.69836">
        <ele>714.39</ele>
        <time>2025-04-15T17:44:57.293Z</time>
      </trkpt>
      <trkpt lat="44.95401" lon="3.69817">
        <ele>716.16</ele>
        <time>2025-04-15T17:45:05.064Z</time>
      </trkpt>
      <trkpt lat="44.95385" lon="3.69797">
        <ele>718.13</ele>
        <time>2025-04-15T17:45:12.838Z</time>
      </trkpt>
      <trkpt lat="44.95369" lon="3.69777">
        <ele>720.16</ele>
        <time>2025-04-15T17:45:20.615Z</time>
      </trkpt>
      <trkpt lat="44.95363" lon="3.69763">
        <ele>722.08</ele>
        <time>2025-04-15T17:45:28.394Z</time>
      </trkpt>
      <trkpt lat="44.9536" lon="3.69748">
        <ele>723.98</ele>
        <time>2025-04-15T17:45:36.175Z</time>
      </trkpt>
      <trkpt lat="44.9536" lon="3.69734">
        <ele>725.88</ele>
        <time>2025-04-15T17:45:43.958Z</time>
      </trkpt>
      <trkpt lat="44.95362" lon="3.6972">
        <ele>727.72</ele>
        <time>2025-04-15T17:45:51.742Z</time>
      </trkpt>
      <trkpt lat="44.95367" lon="3.69698">
        <ele>729.55</ele>
        <time>2025-04-15T17:45:59.529Z</time>
      </trkpt>
      <trkpt lat="44.95372" lon="3.69676">
        <ele>731.26</ele>
        <time>2025-04-15T17:46:07.319Z</time>
      </trkpt>
      <trkpt lat="44.95373" lon="3.69657">
        <ele>732.98</ele>
        <time>2025-04-15T17:46:15.111Z</time>
      </trkpt>
      <trkpt lat="44.95369" lon="3.69643">
        <ele>734.82</ele>
        <time>2025-04-15T17:46:22.904Z</time>
      </trkpt>
      <trkpt lat="44.95364" lon="3.69634">
        <ele>736.7</ele>
        <time>2025-04-15T17:46:30.699Z</time>
      </trkpt>
      <trkpt lat="44.95356" lon="3.69627">
        <ele>738.67</ele>
        <time>2025-04-15T17:46:38.495Z</time>
      </trkpt>
      <trkpt lat="44.95327" lon="3.69615">
        <ele>740.97</ele>
        <time>2025-04-15T17:46:46.296Z</time>
      </trkpt>
      <trkpt lat="44.95298" lon="3.69603">
        <ele>743</ele>
        <time>2025-04-15T17:46:54.102Z</time>
      </trkpt>
      <trkpt lat="44.95276" lon="3.69586">
        <ele>744.74</ele>
        <time>2025-04-15T17:47:01.912Z</time>
      </trkpt>
      <trkpt lat="44.95265" lon="3.69582">
        <ele>746.64</ele>
        <time>2025-04-15T17:47:09.724Z</time>
      </trkpt>
      <trkpt lat="44.95255" lon="3.69582">
        <ele>748.56</ele>
        <time>2025-04-15T17:47:17.537Z</time>
      </trkpt>
      <trkpt lat="44.95229" lon="3.69588">
        <ele>750.57</ele>
        <time>2025-04-15T17:47:25.355Z</time>
      </trkpt>
      <trkpt lat="44.95203" lon="3.69593">
        <ele>752.58</ele>
        <time>2025-04-15T17:47:33.177Z</time>
      </trkpt>
      <trkpt lat="44.95191" lon="3.69593">
        <ele>754.5</ele>
        <time>2025-04-15T17:47:41.001Z</time>
      </trkpt>
      <trkpt lat="44.95183" lon="3.69588">
        <ele>756.27</ele>
        <time>2025-04-15T17:47:48.826Z</time>
      </trkpt>
      <trkpt lat="44.95177" lon="3.69579">
        <ele>758.02</ele>
        <time>2025-04-15T17:47:56.652Z</time>
      </trkpt>
      <trkpt lat="44.95174" lon="3.69566">
        <ele>759.72</ele>
        <time>2025-04-15T17:48:04.480Z</time>
      </trkpt>
      <trkpt lat="44.95175" lon="3.69552">
        <ele>761.31</ele>
        <time>2025-04-15T17:48:12.310Z</time>
      </trkpt>
      <trkpt lat="44.9518" lon="3.69538">
        <ele>762.77</ele>
        <time>2025-04-15T17:48:20.141Z</time>
      </trkpt>
      <trkpt lat="44.95185" lon="3.69525">
        <ele>764.14</ele>
        <time>2025-04-15T17:48:27.974Z</time>
      </trkpt>
      <trkpt lat="44.95204" lon="3.69493">
        <ele>765.24</ele>
        <time>2025-04-15T17:48:35.812Z</time>
      </trkpt>
      <trkpt lat="44.95224" lon="3.6946">
        <ele>766.21</ele>
        <time>2025-04-15T17:48:43.655Z</time>
      </trkpt>
      <trkpt lat="44.95227" lon="3.69449">
        <ele>767.39</ele>
        <time>2025-04-15T17:48:51.499Z</time>
      </trkpt>
      <trkpt lat="44.95226" lon="3.69437">
        <ele>768.48</ele>
        <time>2025-04-15T17:48:59.344Z</time>
      </trkpt>
      <trkpt lat="44.95221" lon="3.69427">
        <ele>769.52</ele>
        <time>2025-04-15T17:49:07.191Z</time>
      </trkpt>
      <trkpt lat="44.95213" lon="3.6942">
        <ele>770.54</ele>
        <time>2025-04-15T17:49:15.039Z</time>
      </trkpt>
      <trkpt lat="44.95203" lon="3.69416">
        <ele>771.56</ele>
        <time>2025-04-15T17:49:22.889Z</time>
      </trkpt>
      <trkpt lat="44.95185" lon="3.69412">
        <ele>772.68</ele>
        <time>2025-04-15T17:49:30.742Z</time>
      </trkpt>
      <trkpt lat="44.95167" lon="3.69408">
        <ele>773.73</ele>
        <time>2025-04-15T17:49:38.598Z</time>
      </trkpt>
      <trkpt lat="44.95157" lon="3.69404">
        <ele>774.53</ele>
        <time>2025-04-15T17:49:46.456Z</time>
      </trkpt>
      <trkpt lat="44.9515" lon="3.69395">
        <ele>775.16</ele>
        <time>2025-04-15T17:49:54.315Z</time>
      </trkpt>
      <trkpt lat="44.95145" lon="3.69381">
        <ele>775.7</ele>
        <time>2025-04-15T17:50:02.176Z</time>
      </trkpt>
      <trkpt lat="44.95145" lon="3.69366">
        <ele>776</ele>
        <time>2025-04-15T17:50:10.038Z</time>
      </trkpt>
      <trkpt lat="44.95148" lon="3.69342">
        <ele>776.33</ele>
        <time>2025-04-15T17:50:17.903Z</time>
      </trkpt>
      <trkpt lat="44.95158" lon="3.69317">
        <ele>776.3</ele>
        <time>2025-04-15T17:50:25.772Z</time>
      </trkpt>
      <trkpt lat="44.95168" lon="3.69291">
        <ele>776.21</ele>
        <time>2025-04-15T17:50:33.644Z</time>
      </trkpt>
      <trkpt lat="44.95169" lon="3.69275">
        <ele>776.02</ele>
        <time>2025-04-15T17:50:41.518Z</time>
      </trkpt>
      <trkpt lat="44.95167" lon="3.69261">
        <ele>775.83</ele>
        <time>2025-04-15T17:50:49.393Z</time>
      </trkpt>
      <trkpt lat="44.95163" lon="3.69247">
        <ele>775.53</ele>
        <time>2025-04-15T17:50:57.270Z</time>
      </trkpt>
      <trkpt lat="44.9515" lon="3.69219">
        <ele>775.24</ele>
        <time>2025-04-15T17:51:05.151Z</time>
      </trkpt>
      <trkpt lat="44.95136" lon="3.69191">
        <ele>774.81</ele>
        <time>2025-04-15T17:51:13.036Z</time>
      </trkpt>
      <trkpt lat="44.9513" lon="3.69175">
        <ele>774.12</ele>
        <time>2025-04-15T17:51:20.923Z</time>
      </trkpt>
      <trkpt lat="44.95124" lon="3.69146">
        <ele>773.36</ele>
        <time>2025-04-15T17:51:28.813Z</time>
      </trkpt>
      <trkpt lat="44.95126" lon="3.69127">
        <ele>772.55</ele>
        <time>2025-04-15T17:51:36.705Z</time>
      </trkpt>
      <trkpt lat="44.95128" lon="3.69107">
        <ele>771.72</ele>
        <time>2025-04-15T17:51:44.600Z</time>
      </trkpt>
      <trkpt lat="44.95133" lon="3.69097">
        <ele>770.71</ele>
        <time>2025-04-15T17:51:52.496Z</time>
      </trkpt>
      <trkpt lat="44.9514" lon="3.69087">
        <ele>769.59</ele>
        <time>2025-04-15T17:52:00.394Z</time>
      </trkpt>
      <trkpt lat="44.95159" lon="3.69074">
        <ele>768.2</ele>
        <time>2025-04-15T17:52:08.295Z</time>
      </trkpt>
      <trkpt lat="44.95177" lon="3.6906">
        <ele>766.68</ele>
        <time>2025-04-15T17:52:16.199Z</time>
      </trkpt>
      <trkpt lat="44.95185" lon="3.69049">
        <ele>765.39</ele>
        <time>2025-04-15T17:52:24.105Z</time>
      </trkpt>
      <trkpt lat="44.95187" lon="3.69041">
        <ele>764.18</ele>
        <time>2025-04-15T17:52:32.012Z</time>
      </trkpt>
      <trkpt lat="44.95188" lon="3.6903">
        <ele>762.92</ele>
        <time>2025-04-15T17:52:39.920Z</time>
      </trkpt>
      <trkpt lat="44.95187" lon="3.69017">
        <ele>761.69</ele>
        <time>2025-04-15T17:52:47.830Z</time>
      </trkpt>
      <trkpt lat="44.95177" lon="3.68978">
        <ele>760.4</ele>
        <time>2025-04-15T17:52:55.745Z</time>
      </trkpt>
      <trkpt lat="44.95166" lon="3.68938">
        <ele>759.09</ele>
        <time>2025-04-15T17:53:03.664Z</time>
      </trkpt>
      <trkpt lat="44.95156" lon="3.68898">
        <ele>757.71</ele>
        <time>2025-04-15T17:53:11.588Z</time>
      </trkpt>
      <trkpt lat="44.95145" lon="3.68859">
        <ele>756.15</ele>
        <time>2025-04-15T17:53:19.517Z</time>
      </trkpt>
      <trkpt lat="44.9514" lon="3.68846">
        <ele>754.91</ele>
        <time>2025-04-15T17:53:27.448Z</time>
      </trkpt>
      <trkpt lat="44.95133" lon="3.68837">
        <ele>753.79</ele>
        <time>2025-04-15T17:53:35.380Z</time>
      </trkpt>
      <trkpt lat="44.95125" lon="3.6883">
        <ele>752.77</ele>
        <time>2025-04-15T17:53:43.314Z</time>
      </trkpt>
      <trkpt lat="44.95114" lon="3.68826">
        <ele>751.8</ele>
        <time>2025-04-15T17:53:51.250Z</time>
      </trkpt>
      <trkpt lat="44.95099" lon="3.68824">
        <ele>750.92</ele>
        <time>2025-04-15T17:53:59.188Z</time>
      </trkpt>
      <trkpt lat="44.95077" lon="3.68833">
        <ele>750.35</ele>
        <time>2025-04-15T17:54:07.130Z</time>
      </trkpt>
      <trkpt lat="44.95064" lon="3.68835">
        <ele>749.7</ele>
        <time>2025-04-15T17:54:15.074Z</time>
      </trkpt>
      <trkpt lat="44.95055" lon="3.68832">
        <ele>749.06</ele>
        <time>2025-04-15T17:54:23.019Z</time>
      </trkpt>
      <trkpt lat="44.95045" lon="3.68823">
        <ele>748.42</ele>
        <time>2025-04-15T17:54:30.966Z</time>
      </trkpt>
      <trkpt lat="44.95034" lon="3.688">
        <ele>747.69</ele>
        <time>2025-04-15T17:54:38.916Z</time>
      </trkpt>
      <trkpt lat="44.95023" lon="3.68777">
        <ele>747.04</ele>
        <time>2025-04-15T17:54:46.869Z</time>
      </trkpt>
      <trkpt lat="44.95015" lon="3.68743">
        <ele>746.22</ele>
        <time>2025-04-15T17:54:54.826Z</time>
      </trkpt>
      <trkpt lat="44.95011" lon="3.68735">
        <ele>745.8</ele>
        <time>2025-04-15T17:55:02.785Z</time>
      </trkpt>
      <trkpt lat="44.95003" lon="3.68728">
        <ele>745.54</ele>
        <time>2025-04-15T17:55:10.745Z</time>
      </trkpt>
      <trkpt lat="44.94982" lon="3.68713">
        <ele>745.51</ele>
        <time>2025-04-15T17:55:18.709Z</time>
      </trkpt>
      <trkpt lat="44.94961" lon="3.68699">
        <ele>745.7</ele>
        <time>2025-04-15T17:55:26.677Z</time>
      </trkpt>
      <trkpt lat="44.9495" lon="3.68688">
        <ele>745.76</ele>
        <time>2025-04-15T17:55:34.647Z</time>
      </trkpt>
      <trkpt lat="44.94936" lon="3.68662">
        <ele>745.77</ele>
        <time>2025-04-15T17:55:42.620Z</time>
      </trkpt>
      <trkpt lat="44.94922" lon="3.68636">
        <ele>745.84</ele>
        <time>2025-04-15T17:55:50.597Z</time>
      </trkpt>
      <trkpt lat="44.94914" lon="3.68625">
        <ele>746.06</ele>
        <time>2025-04-15T17:55:58.576Z</time>
      </trkpt>
      <trkpt lat="44.94888" lon="3.68601">
        <ele>746.41</ele>
        <time>2025-04-15T17:56:06.560Z</time>
      </trkpt>
      <trkpt lat="44.94877" lon="3.68587">
        <ele>746.75</ele>
        <time>2025-04-15T17:56:14.546Z</time>
      </trkpt>
      <trkpt lat="44.94863" lon="3.68554">
        <ele>746.93</ele>
        <time>2025-04-15T17:56:22.537Z</time>
      </trkpt>
      <trkpt lat="44.94856" lon="3.68544">
        <ele>747.45</ele>
        <time>2025-04-15T17:56:30.529Z</time>
      </trkpt>
      <trkpt lat="44.94849" lon="3.68539">
        <ele>748.08</ele>
        <time>2025-04-15T17:56:38.523Z</time>
      </trkpt>
      <trkpt lat="44.94839" lon="3.68538">
        <ele>748.82</ele>
        <time>2025-04-15T17:56:46.518Z</time>
      </trkpt>
      <trkpt lat="44.94812" lon="3.68546">
        <ele>749.76</ele>
        <time>2025-04-15T17:56:54.518Z</time>
      </trkpt>
      <trkpt lat="44.94784" lon="3.68544">
        <ele>750.63</ele>
        <time>2025-04-15T17:57:02.522Z</time>
      </trkpt>
      <trkpt lat="44.94765" lon="3.68548">
        <ele>751.61</ele>
        <time>2025-04-15T17:57:10.529Z</time>
      </trkpt>
      <trkpt lat="44.94747" lon="3.68552">
        <ele>752.67</ele>
        <time>2025-04-15T17:57:18.539Z</time>
      </trkpt>
      <trkpt lat="44.94735" lon="3.68556">
        <ele>753.76</ele>
        <time>2025-04-15T17:57:26.551Z</time>
      </trkpt>
      <trkpt lat="44.94715" lon="3.68572">
        <ele>754.97</ele>
        <time>2025-04-15T17:57:34.567Z</time>
      </trkpt>
      <trkpt lat="44.94695" lon="3.68588">
        <ele>756.16</ele>
        <time>2025-04-15T17:57:42.586Z</time>
      </trkpt>
      <trkpt lat="44.94685" lon="3.68598">
        <ele>757.49</ele>
        <time>2025-04-15T17:57:50.607Z</time>
      </trkpt>
      <trkpt lat="44.94662" lon="3.68627">
        <ele>759.21</ele>
        <time>2025-04-15T17:57:58.633Z</time>
      </trkpt>
      <trkpt lat="44.94656" lon="3.6863">
        <ele>760.58</ele>
        <time>2025-04-15T17:58:06.660Z</time>
      </trkpt>
      <trkpt lat="44.94651" lon="3.6863">
        <ele>761.96</ele>
        <time>2025-04-15T17:58:14.688Z</time>
      </trkpt>
      <trkpt lat="44.94637" lon="3.68617">
        <ele>763.52</ele>
        <time>2025-04-15T17:58:22.719Z</time>
      </trkpt>
      <trkpt lat="44.94636" lon="3.6861">
        <ele>764.89</ele>
        <time>2025-04-15T17:58:30.751Z</time>
      </trkpt>
      <trkpt lat="44.94639" lon="3.6859">
        <ele>766.2</ele>
        <time>2025-04-15T17:58:38.785Z</time>
      </trkpt>
      <trkpt lat="44.94647" lon="3.6857">
        <ele>767.53</ele>
        <time>2025-04-15T17:58:46.822Z</time>
      </trkpt>
      <trkpt lat="44.94655" lon="3.68551">
        <ele>768.86</ele>
        <time>2025-04-15T17:58:54.861Z</time>
      </trkpt>
      <trkpt lat="44.9466" lon="3.68522">
        <ele>770.41</ele>
        <time>2025-04-15T17:59:02.903Z</time>
      </trkpt>
      <trkpt lat="44.94665" lon="3.68494">
        <ele>771.96</ele>
        <time>2025-04-15T17:59:10.949Z</time>
      </trkpt>
      <trkpt lat="44.94672" lon="3.68467">
        <ele>773.33</ele>
        <time>2025-04-15T17:59:18.998Z</time>
      </trkpt>
      <trkpt lat="44.9468" lon="3.68441">
        <ele>774.7</ele>
        <time>2025-04-15T17:59:27.050Z</time>
      </trkpt>
      <trkpt lat="44.94691" lon="3.68409">
        <ele>775.97</ele>
        <time>2025-04-15T17:59:35.106Z</time>
      </trkpt>
      <trkpt lat="44.94704" lon="3.68382">
        <ele>777.21</ele>
        <time>2025-04-15T17:59:43.166Z</time>
      </trkpt>
      <trkpt lat="44.94717" lon="3.68367">
        <ele>778.42</ele>
        <time>2025-04-15T17:59:51.229Z</time>
      </trkpt>
      <trkpt lat="44.94735" lon="3.6835">
        <ele>779.5</ele>
        <time>2025-04-15T17:59:59.295Z</time>
      </trkpt>
      <trkpt lat="44.94753" lon="3.68334">
        <ele>780.54</ele>
        <time>2025-04-15T18:00:07.365Z</time>
      </trkpt>
      <trkpt lat="44.94757" lon="3.68325">
        <ele>781.68</ele>
        <time>2025-04-15T18:00:15.436Z</time>
      </trkpt>
      <trkpt lat="44.94758" lon="3.68315">
        <ele>782.84</ele>
        <time>2025-04-15T18:00:23.508Z</time>
      </trkpt>
      <trkpt lat="44.94756" lon="3.68301">
        <ele>784.03</ele>
        <time>2025-04-15T18:00:31.582Z</time>
      </trkpt>
      <trkpt lat="44.94745" lon="3.68265">
        <ele>785.36</ele>
        <time>2025-04-15T18:00:39.660Z</time>
      </trkpt>
      <trkpt lat="44.9474" lon="3.68242">
        <ele>786.47</ele>
        <time>2025-04-15T18:00:47.741Z</time>
      </trkpt>
      <trkpt lat="44.94735" lon="3.68218">
        <ele>787.52</ele>
        <time>2025-04-15T18:00:55.825Z</time>
      </trkpt>
      <trkpt lat="44.94734" lon="3.68174">
        <ele>788.44</ele>
        <time>2025-04-15T18:01:03.914Z</time>
      </trkpt>
      <trkpt lat="44.94732" lon="3.6813">
        <ele>789.46</ele>
        <time>2025-04-15T18:01:12.008Z</time>
      </trkpt>
      <trkpt lat="44.94735" lon="3.68109">
        <ele>790.35</ele>
        <time>2025-04-15T18:01:20.104Z</time>
      </trkpt>
      <trkpt lat="44.94748" lon="3.68084">
        <ele>791.1</ele>
        <time>2025-04-15T18:01:28.203Z</time>
      </trkpt>
      <trkpt lat="44.94764" lon="3.68071">
        <ele>791.64</ele>
        <time>2025-04-15T18:01:36.305Z</time>
      </trkpt>
      <trkpt lat="44.94775" lon="3.68048">
        <ele>792.24</ele>
        <time>2025-04-15T18:01:44.411Z</time>
      </trkpt>
      <trkpt lat="44.94775" lon="3.68021">
        <ele>792.85</ele>
        <time>2025-04-15T18:01:52.520Z</time>
      </trkpt>
      <trkpt lat="44.94768" lon="3.67997">
        <ele>793.48</ele>
        <time>2025-04-15T18:02:00.632Z</time>
      </trkpt>
      <trkpt lat="44.9475" lon="3.67974">
        <ele>794.26</ele>
        <time>2025-04-15T18:02:08.747Z</time>
      </trkpt>
      <trkpt lat="44.94745" lon="3.67957">
        <ele>794.81</ele>
        <time>2025-04-15T18:02:16.865Z</time>
      </trkpt>
      <trkpt lat="44.94745" lon="3.67941">
        <ele>795.12</ele>
        <time>2025-04-15T18:02:24.984Z</time>
      </trkpt>
      <trkpt lat="44.94745" lon="3.67941">
        <ele>795.29</ele>
        <time>2025-04-15T18:02:33.103Z</time>
      </trkpt>
      <trkpt lat="44.94745" lon="3.67932">
        <ele>795.39</ele>
        <time>2025-04-15T18:02:41.223Z</time>
      </trkpt>
      <trkpt lat="44.94758" lon="3.67919">
        <ele>795.17</ele>
        <time>2025-04-15T18:02:49.346Z</time>
      </trkpt>
      <trkpt lat="44.94772" lon="3.67906">
        <ele>794.91</ele>
        <time>2025-04-15T18:02:57.472Z</time>
      </trkpt>
      <trkpt lat="44.94783" lon="3.67878">
        <ele>794.68</ele>
        <time>2025-04-15T18:03:05.601Z</time>
      </trkpt>
      <trkpt lat="44.94784" lon="3.67854">
        <ele>794.47</ele>
        <time>2025-04-15T18:03:13.733Z</time>
      </trkpt>
      <trkpt lat="44.94786" lon="3.67831">
        <ele>794.14</ele>
        <time>2025-04-15T18:03:21.868Z</time>
      </trkpt>
      <trkpt lat="44.94794" lon="3.67809">
        <ele>793.57</ele>
        <time>2025-04-15T18:03:30.005Z</time>
      </trkpt>
      <trkpt lat="44.94798" lon="3.67783">
        <ele>792.88</ele>
        <time>2025-04-15T18:03:38.145Z</time>
      </trkpt>
      <trkpt lat="44.94791" lon="3.67767">
        <ele>792.27</ele>
        <time>2025-04-15T18:03:46.288Z</time>
      </trkpt>
      <trkpt lat="44.94773" lon="3.67749">
        <ele>791.72</ele>
        <time>2025-04-15T18:03:54.434Z</time>
      </trkpt>
      <trkpt lat="44.94761" lon="3.67731">
        <ele>790.89</ele>
        <time>2025-04-15T18:04:02.583Z</time>
      </trkpt>
      <trkpt lat="44.94749" lon="3.67714">
        <ele>790</ele>
        <time>2025-04-15T18:04:10.735Z</time>
      </trkpt>
      <trkpt lat="44.94726" lon="3.67697">
        <ele>789.24</ele>
        <time>2025-04-15T18:04:18.891Z</time>
      </trkpt>
      <trkpt lat="44.94704" lon="3.67681">
        <ele>788.51</ele>
        <time>2025-04-15T18:04:27.051Z</time>
      </trkpt>
      <trkpt lat="44.94681" lon="3.67664">
        <ele>787.72</ele>
        <time>2025-04-15T18:04:35.215Z</time>
      </trkpt>
      <trkpt lat="44.94667" lon="3.67639">
        <ele>786.63</ele>
        <time>2025-04-15T18:04:43.383Z</time>
      </trkpt>
      <trkpt lat="44.94654" lon="3.67613">
        <ele>785.49</ele>
        <time>2025-04-15T18:04:51.554Z</time>
      </trkpt>
      <trkpt lat="44.94641" lon="3.67594">
        <ele>784.25</ele>
        <time>2025-04-15T18:04:59.728Z</time>
      </trkpt>
      <trkpt lat="44.94625" lon="3.67583">
        <ele>783.08</ele>
        <time>2025-04-15T18:05:07.905Z</time>
      </trkpt>
      <trkpt lat="44.94597" lon="3.67585">
        <ele>781.97</ele>
        <time>2025-04-15T18:05:16.087Z</time>
      </trkpt>
      <trkpt lat="44.94577" lon="3.67581">
        <ele>780.68</ele>
        <time>2025-04-15T18:05:24.272Z</time>
      </trkpt>
      <trkpt lat="44.94556" lon="3.67577">
        <ele>779.36</ele>
        <time>2025-04-15T18:05:32.460Z</time>
      </trkpt>
      <trkpt lat="44.9454" lon="3.67582">
        <ele>778.06</ele>
        <time>2025-04-15T18:05:40.651Z</time>
      </trkpt>
      <trkpt lat="44.94517" lon="3.67597">
        <ele>777.01</ele>
        <time>2025-04-15T18:05:48.846Z</time>
      </trkpt>
      <trkpt lat="44.9449" lon="3.67617">
        <ele>775.97</ele>
        <time>2025-04-15T18:05:57.046Z</time>
      </trkpt>
      <trkpt lat="44.94469" lon="3.67613">
        <ele>774.48</ele>
        <time>2025-04-15T18:06:05.249Z</time>
      </trkpt>
      <trkpt lat="44.94456" lon="3.67613">
        <ele>773.12</ele>
        <time>2025-04-15T18:06:13.454Z</time>
      </trkpt>
      <trkpt lat="44.9443" lon="3.67628">
        <ele>771.83</ele>
        <time>2025-04-15T18:06:21.664Z</time>
      </trkpt>
      <trkpt lat="44.94404" lon="3.67643">
        <ele>770.7</ele>
        <time>2025-04-15T18:06:29.878Z</time>
      </trkpt>
      <trkpt lat="44.94378" lon="3.67658">
        <ele>769.6</ele>
        <time>2025-04-15T18:06:38.097Z</time>
      </trkpt>
      <trkpt lat="44.94362" lon="3.67661">
        <ele>768.29</ele>
        <time>2025-04-15T18:06:46.318Z</time>
      </trkpt>
      <trkpt lat="44.94346" lon="3.67663">
        <ele>766.95</ele>
        <time>2025-04-15T18:06:54.542Z</time>
      </trkpt>
      <trkpt lat="44.94318" lon="3.67679">
        <ele>765.59</ele>
        <time>2025-04-15T18:07:02.771Z</time>
      </trkpt>
      <trkpt lat="44.94305" lon="3.67692">
        <ele>764.41</ele>
        <time>2025-04-15T18:07:11.002Z</time>
      </trkpt>
      <trkpt lat="44.94289" lon="3.67726">
        <ele>763.51</ele>
        <time>2025-04-15T18:07:19.238Z</time>
      </trkpt>
      <trkpt lat="44.94281" lon="3.67737">
        <ele>762.46</ele>
        <time>2025-04-15T18:07:27.476Z</time>
      </trkpt>
      <trkpt lat="44.94263" lon="3.67744">
        <ele>761.25</ele>
        <time>2025-04-15T18:07:35.717Z</time>
      </trkpt>
      <trkpt lat="44.94237" lon="3.67738">
        <ele>759.79</ele>
        <time>2025-04-15T18:07:43.962Z</time>
      </trkpt>
      <trkpt lat="44.9422" lon="3.67746">
        <ele>758.65</ele>
        <time>2025-04-15T18:07:52.210Z</time>
      </trkpt>
      <trkpt lat="44.942" lon="3.67762">
        <ele>757.63</ele>
        <time>2025-04-15T18:08:00.461Z</time>
      </trkpt>
      <trkpt lat="44.9418" lon="3.67788">
        <ele>756.78</ele>
        <time>2025-04-15T18:08:08.717Z</time>
      </trkpt>
      <trkpt lat="44.94164" lon="3.67796">
        <ele>755.76</ele>
        <time>2025-04-15T18:08:16.975Z</time>
      </trkpt>
      <trkpt lat="44.94138" lon="3.67802">
        <ele>754.65</ele>
        <time>2025-04-15T18:08:25.238Z</time>
      </trkpt>
      <trkpt lat="44.94122" lon="3.67811">
        <ele>753.64</ele>
        <time>2025-04-15T18:08:33.503Z</time>
      </trkpt>
      <trkpt lat="44.94106" lon="3.67821">
        <ele>752.57</ele>
        <time>2025-04-15T18:08:41.771Z</time>
      </trkpt>
      <trkpt lat="44.9409" lon="3.67833">
        <ele>751.66</ele>
        <time>2025-04-15T18:08:50.042Z</time>
      </trkpt>
      <trkpt lat="44.94075" lon="3.67845">
        <ele>750.7</ele>
        <time>2025-04-15T18:08:58.316Z</time>
      </trkpt>
      <trkpt lat="44.94062" lon="3.67862">
        <ele>749.78</ele>
        <time>2025-04-15T18:09:06.593Z</time>
      </trkpt>
      <trkpt lat="44.94053" lon="3.67882">
        <ele>748.94</ele>
        <time>2025-04-15T18:09:14.872Z</time>
      </trkpt>
      <trkpt lat="44.94044" lon="3.67901">
        <ele>748.09</ele>
        <time>2025-04-15T18:09:23.154Z</time>
      </trkpt>
      <trkpt lat="44.94027" lon="3.67921">
        <ele>747.11</ele>
        <time>2025-04-15T18:09:31.440Z</time>
      </trkpt>
      <trkpt lat="44.94009" lon="3.67941">
        <ele>746.17</ele>
        <time>2025-04-15T18:09:39.729Z</time>
      </trkpt>
      <trkpt lat="44.94002" lon="3.67963">
        <ele>745.39</ele>
        <time>2025-04-15T18:09:48.021Z</time>
      </trkpt>
      <trkpt lat="44.93989" lon="3.67974">
        <ele>744.54</ele>
        <time>2025-04-15T18:09:56.315Z</time>
      </trkpt>
      <trkpt lat="44.93965" lon="3.67982">
        <ele>743.69</ele>
        <time>2025-04-15T18:10:04.613Z</time>
      </trkpt>
      <trkpt lat="44.93947" lon="3.68002">
        <ele>742.96</ele>
        <time>2025-04-15T18:10:12.915Z</time>
      </trkpt>
      <trkpt lat="44.9393" lon="3.68022">
        <ele>742.31</ele>
        <time>2025-04-15T18:10:21.221Z</time>
      </trkpt>
      <trkpt lat="44.93914" lon="3.68029">
        <ele>741.55</ele>
        <time>2025-04-15T18:10:29.529Z</time>
      </trkpt>
      <trkpt lat="44.93914" lon="3.68029">
        <ele>740.79</ele>
        <time>2025-04-15T18:10:37.837Z</time>
      </trkpt>
      <trkpt lat="44.93894" lon="3.68036">
        <ele>739.92</ele>
        <time>2025-04-15T18:10:46.148Z</time>
      </trkpt>
      <trkpt lat="44.93881" lon="3.68046">
        <ele>739.01</ele>
        <time>2025-04-15T18:10:54.462Z</time>
      </trkpt>
      <trkpt lat="44.93875" lon="3.6806">
        <ele>738.15</ele>
        <time>2025-04-15T18:11:02.778Z</time>
      </trkpt>
      <trkpt lat="44.93872" lon="3.68079">
        <ele>737.33</ele>
        <time>2025-04-15T18:11:11.096Z</time>
      </trkpt>
      <trkpt lat="44.93874" lon="3.68111">
        <ele>736.59</ele>
        <time>2025-04-15T18:11:19.418Z</time>
      </trkpt>
      <trkpt lat="44.93877" lon="3.68144">
        <ele>735.87</ele>
        <time>2025-04-15T18:11:27.743Z</time>
      </trkpt>
      <trkpt lat="44.93876" lon="3.68159">
        <ele>735.15</ele>
        <time>2025-04-15T18:11:36.070Z</time>
      </trkpt>
      <trkpt lat="44.93871" lon="3.68173">
        <ele>734.39</ele>
        <time>2025-04-15T18:11:44.399Z</time>
      </trkpt>
      <trkpt lat="44.93862" lon="3.68184">
        <ele>733.66</ele>
        <time>2025-04-15T18:11:52.730Z</time>
      </trkpt>
      <trkpt lat="44.9385" lon="3.68191">
        <ele>732.88</ele>
        <time>2025-04-15T18:12:01.063Z</time>
      </trkpt>
      <trkpt lat="44.9385" lon="3.68191">
        <ele>732.12</ele>
        <time>2025-04-15T18:12:09.396Z</time>
      </trkpt>
      <trkpt lat="44.93836" lon="3.68198">
        <ele>731.39</ele>
        <time>2025-04-15T18:12:17.731Z</time>
      </trkpt>
      <trkpt lat="44.93817" lon="3.68198">
        <ele>730.67</ele>
        <time>2025-04-15T18:12:26.069Z</time>
      </trkpt>
      <trkpt lat="44.93799" lon="3.6819">
        <ele>730.01</ele>
        <time>2025-04-15T18:12:34.410Z</time>
      </trkpt>
      <trkpt lat="44.93786" lon="3.68174">
        <ele>729.2</ele>
        <time>2025-04-15T18:12:42.754Z</time>
      </trkpt>
      <trkpt lat="44.93786" lon="3.68174">
        <ele>728.4</ele>
        <time>2025-04-15T18:12:51.098Z</time>
      </trkpt>
      <trkpt lat="44.93772" lon="3.68138">
        <ele>727.35</ele>
        <time>2025-04-15T18:12:59.447Z</time>
      </trkpt>
      <trkpt lat="44.93756" lon="3.68112">
        <ele>726.33</ele>
        <time>2025-04-15T18:13:07.800Z</time>
      </trkpt>
      <trkpt lat="44.93737" lon="3.68104">
        <ele>725.44</ele>
        <time>2025-04-15T18:13:16.156Z</time>
      </trkpt>
      <trkpt lat="44.93722" lon="3.68114">
        <ele>724.65</ele>
        <time>2025-04-15T18:13:24.514Z</time>
      </trkpt>
      <trkpt lat="44.93705" lon="3.68129">
        <ele>723.92</ele>
        <time>2025-04-15T18:13:32.876Z</time>
      </trkpt>
      <trkpt lat="44.93689" lon="3.68144">
        <ele>723.15</ele>
        <time>2025-04-15T18:13:41.241Z</time>
      </trkpt>
      <trkpt lat="44.93669" lon="3.68156">
        <ele>722.28</ele>
        <time>2025-04-15T18:13:49.609Z</time>
      </trkpt>
      <trkpt lat="44.93649" lon="3.68169">
        <ele>721.37</ele>
        <time>2025-04-15T18:13:57.981Z</time>
      </trkpt>
      <trkpt lat="44.93626" lon="3.68187">
        <ele>720.48</ele>
        <time>2025-04-15T18:14:06.357Z</time>
      </trkpt>
      <trkpt lat="44.93604" lon="3.68206">
        <ele>719.65</ele>
        <time>2025-04-15T18:14:14.737Z</time>
      </trkpt>
      <trkpt lat="44.93584" lon="3.68212">
        <ele>718.77</ele>
        <time>2025-04-15T18:14:23.120Z</time>
      </trkpt>
      <trkpt lat="44.93567" lon="3.6821">
        <ele>717.8</ele>
        <time>2025-04-15T18:14:31.506Z</time>
      </trkpt>
      <trkpt lat="44.93549" lon="3.68208">
        <ele>716.77</ele>
        <time>2025-04-15T18:14:39.895Z</time>
      </trkpt>
      <trkpt lat="44.93537" lon="3.68214">
        <ele>715.93</ele>
        <time>2025-04-15T18:14:48.286Z</time>
      </trkpt>
      <trkpt lat="44.93517" lon="3.68243">
        <ele>715.28</ele>
        <time>2025-04-15T18:14:56.682Z</time>
      </trkpt>
      <trkpt lat="44.93507" lon="3.68263">
        <ele>714.73</ele>
        <time>2025-04-15T18:15:05.080Z</time>
      </trkpt>
      <trkpt lat="44.93497" lon="3.68282">
        <ele>714.21</ele>
        <time>2025-04-15T18:15:13.481Z</time>
      </trkpt>
      <trkpt lat="44.93486" lon="3.68298">
        <ele>713.58</ele>
        <time>2025-04-15T18:15:21.885Z</time>
      </trkpt>
      <trkpt lat="44.93472" lon="3.68306">
        <ele>712.97</ele>
        <time>2025-04-15T18:15:30.291Z</time>
      </trkpt>
      <trkpt lat="44.93455" lon="3.683">
        <ele>712.34</ele>
        <time>2025-04-15T18:15:38.700Z</time>
      </trkpt>
      <trkpt lat="44.93432" lon="3.6828">
        <ele>711.51</ele>
        <time>2025-04-15T18:15:47.113Z</time>
      </trkpt>
      <trkpt lat="44.93416" lon="3.68279">
        <ele>710.87</ele>
        <time>2025-04-15T18:15:55.529Z</time>
      </trkpt>
      <trkpt lat="44.93403" lon="3.68287">
        <ele>710.46</ele>
        <time>2025-04-15T18:16:03.947Z</time>
      </trkpt>
      <trkpt lat="44.93391" lon="3.68302">
        <ele>710.12</ele>
        <time>2025-04-15T18:16:12.367Z</time>
      </trkpt>
      <trkpt lat="44.93376" lon="3.68308">
        <ele>709.67</ele>
        <time>2025-04-15T18:16:20.790Z</time>
      </trkpt>
      <trkpt lat="44.93346" lon="3.6831">
        <ele>709.26</ele>
        <time>2025-04-15T18:16:29.218Z</time>
      </trkpt>
      <trkpt lat="44.93332" lon="3.68318">
        <ele>709</ele>
        <time>2025-04-15T18:16:37.648Z</time>
      </trkpt>
      <trkpt lat="44.93317" lon="3.68321">
        <ele>708.68</ele>
        <time>2025-04-15T18:16:46.081Z</time>
      </trkpt>
      <trkpt lat="44.93302" lon="3.68316">
        <ele>708</ele>
        <time>2025-04-15T18:16:54.516Z</time>
      </trkpt>
      <trkpt lat="44.93283" lon="3.68327">
        <ele>707.67</ele>
        <time>2025-04-15T18:17:02.954Z</time>
      </trkpt>
      <trkpt lat="44.93258" lon="3.68331">
        <ele>707.14</ele>
        <time>2025-04-15T18:17:11.397Z</time>
      </trkpt>
      <trkpt lat="44.93232" lon="3.68335">
        <ele>706.8</ele>
        <time>2025-04-15T18:17:19.844Z</time>
      </trkpt>
      <trkpt lat="44.9322" lon="3.68344">
        <ele>706.58</ele>
        <time>2025-04-15T18:17:28.293Z</time>
      </trkpt>
      <trkpt lat="44.93202" lon="3.68368">
        <ele>706.71</ele>
        <time>2025-04-15T18:17:36.746Z</time>
      </trkpt>
      <trkpt lat="44.93188" lon="3.68376">
        <ele>706.59</ele>
        <time>2025-04-15T18:17:45.201Z</time>
      </trkpt>
      <trkpt lat="44.93178" lon="3.68371">
        <ele>706.25</ele>
        <time>2025-04-15T18:17:53.658Z</time>
      </trkpt>
      <trkpt lat="44.93158" lon="3.68346">
        <ele>705.82</ele>
        <time>2025-04-15T18:18:02.119Z</time>
      </trkpt>
      <trkpt lat="44.93141" lon="3.6833">
        <ele>705.33</ele>
        <time>2025-04-15T18:18:10.583Z</time>
      </trkpt>
      <trkpt lat="44.93124" lon="3.68324">
        <ele>704.9</ele>
        <time>2025-04-15T18:18:19.050Z</time>
      </trkpt>
      <trkpt lat="44.93107" lon="3.68318">
        <ele>704.56</ele>
        <time>2025-04-15T18:18:27.520Z</time>
      </trkpt>
      <trkpt lat="44.93082" lon="3.68316">
        <ele>704.28</ele>
        <time>2025-04-15T18:18:35.994Z</time>
      </trkpt>
      <trkpt lat="44.93052" lon="3.68318">
        <ele>704.12</ele>
        <time>2025-04-15T18:18:44.473Z</time>
      </trkpt>
      <trkpt lat="44.93021" lon="3.6832">
        <ele>703.78</ele>
        <time>2025-04-15T18:18:52.957Z</time>
      </trkpt>
      <trkpt lat="44.92993" lon="3.68315">
        <ele>703.24</ele>
        <time>2025-04-15T18:19:01.445Z</time>
      </trkpt>
      <trkpt lat="44.92971" lon="3.68319">
        <ele>703.02</ele>
        <time>2025-04-15T18:19:09.937Z</time>
      </trkpt>
      <trkpt lat="44.92949" lon="3.68324">
        <ele>702.85</ele>
        <time>2025-04-15T18:19:18.433Z</time>
      </trkpt>
      <trkpt lat="44.92924" lon="3.68323">
        <ele>702.6</ele>
        <time>2025-04-15T18:19:26.932Z</time>
      </trkpt>
      <trkpt lat="44.92893" lon="3.68327">
        <ele>702.29</ele>
        <time>2025-04-15T18:19:35.436Z</time>
      </trkpt>
      <trkpt lat="44.92864" lon="3.68335">
        <ele>702.06</ele>
        <time>2025-04-15T18:19:43.945Z</time>
      </trkpt>
      <trkpt lat="44.92846" lon="3.68337">
        <ele>701.92</ele>
        <time>2025-04-15T18:19:52.457Z</time>
      </trkpt>
      <trkpt lat="44.9282" lon="3.68334">
        <ele>701.44</ele>
        <time>2025-04-15T18:20:00.973Z</time>
      </trkpt>
      <trkpt lat="44.92814" lon="3.68336">
        <ele>701.23</ele>
        <time>2025-04-15T18:20:09.490Z</time>
      </trkpt>
      <trkpt lat="44.92806" lon="3.68344">
        <ele>701.12</ele>
        <time>2025-04-15T18:20:18.009Z</time>
      </trkpt>
      <trkpt lat="44.92791" lon="3.68382">
        <ele>701.36</ele>
        <time>2025-04-15T18:20:26.533Z</time>
      </trkpt>
      <trkpt lat="44.92775" lon="3.68395">
        <ele>701.41</ele>
        <time>2025-04-15T18:20:35.060Z</time>
      </trkpt>
      <trkpt lat="44.92766" lon="3.68392">
        <ele>701.2</ele>
        <time>2025-04-15T18:20:43.588Z</time>
      </trkpt>
      <trkpt lat="44.92758" lon="3.68384">
        <ele>700.88</ele>
        <time>2025-04-15T18:20:52.118Z</time>
      </trkpt>
      <trkpt lat="44.92749" lon="3.68363">
        <ele>700.36</ele>
        <time>2025-04-15T18:21:00.651Z</time>
      </trkpt>
      <trkpt lat="44.92741" lon="3.68341">
        <ele>699.82</ele>
        <time>2025-04-15T18:21:09.186Z</time>
      </trkpt>
      <trkpt lat="44.92731" lon="3.68333">
        <ele>699.43</ele>
        <time>2025-04-15T18:21:17.723Z</time>
      </trkpt>
      <trkpt lat="44.92716" lon="3.68333">
        <ele>699.05</ele>
        <time>2025-04-15T18:21:26.263Z</time>
      </trkpt>
      <trkpt lat="44.92701" lon="3.6834">
        <ele>698.71</ele>
        <time>2025-04-15T18:21:34.805Z</time>
      </trkpt>
      <trkpt lat="44.92685" lon="3.68347">
        <ele>698.38</ele>
        <time>2025-04-15T18:21:43.350Z</time>
      </trkpt>
      <trkpt lat="44.9266" lon="3.68324">
        <ele>697.76</ele>
        <time>2025-04-15T18:21:51.900Z</time>
      </trkpt>
      <trkpt lat="44.9263" lon="3.68315">
        <ele>697.39</ele>
        <time>2025-04-15T18:22:00.454Z</time>
      </trkpt>
      <trkpt lat="44.92611" lon="3.68295">
        <ele>696.82</ele>
        <time>2025-04-15T18:22:09.012Z</time>
      </trkpt>
      <trkpt lat="44.92591" lon="3.68276">
        <ele>696.18</ele>
        <time>2025-04-15T18:22:17.574Z</time>
      </trkpt>
      <trkpt lat="44.92573" lon="3.6826">
        <ele>695.51</ele>
        <time>2025-04-15T18:22:26.140Z</time>
      </trkpt>
      <trkpt lat="44.92555" lon="3.68244">
        <ele>694.83</ele>
        <time>2025-04-15T18:22:34.709Z</time>
      </trkpt>
      <trkpt lat="44.92537" lon="3.68229">
        <ele>694.14</ele>
        <time>2025-04-15T18:22:43.281Z</time>
      </trkpt>
      <trkpt lat="44.92511" lon="3.68219">
        <ele>693.62</ele>
        <time>2025-04-15T18:22:51.858Z</time>
      </trkpt>
      <trkpt lat="44.92486" lon="3.68209">
        <ele>693.11</ele>
        <time>2025-04-15T18:23:00.439Z</time>
      </trkpt>
      <trkpt lat="44.92471" lon="3.68194">
        <ele>692.33</ele>
        <time>2025-04-15T18:23:09.023Z</time>
      </trkpt>
      <trkpt lat="44.92456" lon="3.68179">
        <ele>691.54</ele>
        <time>2025-04-15T18:23:17.610Z</time>
      </trkpt>
      <trkpt lat="44.92439" lon="3.68157">
        <ele>690.62</ele>
        <time>2025-04-15T18:23:26.200Z</time>
      </trkpt>
      <trkpt lat="44.92423" lon="3.68134">
        <ele>689.72</ele>
        <time>2025-04-15T18:23:34.794Z</time>
      </trkpt>
      <trkpt lat="44.92407" lon="3.68112">
        <ele>688.9</ele>
        <time>2025-04-15T18:23:43.392Z</time>
      </trkpt>
      <trkpt lat="44.92392" lon="3.68076">
        <ele>688.06</ele>
        <time>2025-04-15T18:23:51.994Z</time>
      </trkpt>
      <trkpt lat="44.92376" lon="3.6804">
        <ele>687.19</ele>
        <time>2025-04-15T18:24:00.601Z</time>
      </trkpt>
      <trkpt lat="44.92361" lon="3.68005">
        <ele>686.4</ele>
        <time>2025-04-15T18:24:09.213Z</time>
      </trkpt>
      <trkpt lat="44.92345" lon="3.67969">
        <ele>685.6</ele>
        <time>2025-04-15T18:24:17.830Z</time>
      </trkpt>
      <trkpt lat="44.9233" lon="3.67934">
        <ele>684.76</ele>
        <time>2025-04-15T18:24:26.451Z</time>
      </trkpt>
      <trkpt lat="44.92313" lon="3.67905">
        <ele>683.87</ele>
        <time>2025-04-15T18:24:35.077Z</time>
      </trkpt>
      <trkpt lat="44.92295" lon="3.67877">
        <ele>682.94</ele>
        <time>2025-04-15T18:24:43.707Z</time>
      </trkpt>
      <trkpt lat="44.92278" lon="3.67848">
        <ele>682.06</ele>
        <time>2025-04-15T18:24:52.341Z</time>
      </trkpt>
      <trkpt lat="44.92261" lon="3.6782">
        <ele>681.23</ele>
        <time>2025-04-15T18:25:00.979Z</time>
      </trkpt>
      <trkpt lat="44.92243" lon="3.67791">
        <ele>680.4</ele>
        <time>2025-04-15T18:25:09.622Z</time>
      </trkpt>
      <trkpt lat="44.92226" lon="3.67763">
        <ele>679.6</ele>
        <time>2025-04-15T18:25:18.269Z</time>
      </trkpt>
      <trkpt lat="44.92226" lon="3.67763">
        <ele>678.82</ele>
        <time>2025-04-15T18:25:26.916Z</time>
      </trkpt>
      <trkpt lat="44.92215" lon="3.67746">
        <ele>678.06</ele>
        <time>2025-04-15T18:25:35.566Z</time>
      </trkpt>
      <trkpt lat="44.92204" lon="3.67729">
        <ele>677.31</ele>
        <time>2025-04-15T18:25:44.218Z</time>
      </trkpt>
      <trkpt lat="44.92204" lon="3.67729">
        <ele>676.59</ele>
        <time>2025-04-15T18:25:52.870Z</time>
      </trkpt>
      <trkpt lat="44.92189" lon="3.67704">
        <ele>675.88</ele>
        <time>2025-04-15T18:26:01.526Z</time>
      </trkpt>
      <trkpt lat="44.92174" lon="3.67679">
        <ele>675.15</ele>
        <time>2025-04-15T18:26:10.186Z</time>
      </trkpt>
      <trkpt lat="44.92159" lon="3.67655">
        <ele>674.34</ele>
        <time>2025-04-15T18:26:18.849Z</time>
      </trkpt>
      <trkpt lat="44.92139" lon="3.67626">
        <ele>673.55</ele>
        <time>2025-04-15T18:26:27.517Z</time>
      </trkpt>
      <trkpt lat="44.92132" lon="3.67618">
        <ele>672.91</ele>
        <time>2025-04-15T18:26:36.186Z</time>
      </trkpt>
      <trkpt lat="44.92122" lon="3.67618">
        <ele>672.33</ele>
        <time>2025-04-15T18:26:44.857Z</time>
      </trkpt>
      <trkpt lat="44.92111" lon="3.67625">
        <ele>671.78</ele>
        <time>2025-04-15T18:26:53.530Z</time>
      </trkpt>
      <trkpt lat="44.92097" lon="3.67641">
        <ele>671.27</ele>
        <time>2025-04-15T18:27:02.206Z</time>
      </trkpt>
      <trkpt lat="44.92091" lon="3.67658">
        <ele>670.81</ele>
        <time>2025-04-15T18:27:10.884Z</time>
      </trkpt>
      <trkpt lat="44.92089" lon="3.67682">
        <ele>670.4</ele>
        <time>2025-04-15T18:27:19.565Z</time>
      </trkpt>
      <trkpt lat="44.92083" lon="3.67713">
        <ele>670.03</ele>
        <time>2025-04-15T18:27:28.249Z</time>
      </trkpt>
      <trkpt lat="44.92073" lon="3.67732">
        <ele>669.67</ele>
        <time>2025-04-15T18:27:36.936Z</time>
      </trkpt>
      <trkpt lat="44.92054" lon="3.67734">
        <ele>669.37</ele>
        <time>2025-04-15T18:27:45.626Z</time>
      </trkpt>
      <trkpt lat="44.92044" lon="3.67731">
        <ele>669.07</ele>
        <time>2025-04-15T18:27:54.318Z</time>
      </trkpt>
      <trkpt lat="44.92033" lon="3.67718">
        <ele>668.87</ele>
        <time>2025-04-15T18:28:03.012Z</time>
      </trkpt>
      <trkpt lat="44.92026" lon="3.67676">
        <ele>668.64</ele>
        <time>2025-04-15T18:28:11.711Z</time>
      </trkpt>
      <trkpt lat="44.92024" lon="3.67654">
        <ele>668.36</ele>
        <time>2025-04-15T18:28:20.412Z</time>
      </trkpt>
      <trkpt lat="44.92021" lon="3.67631">
        <ele>668.12</ele>
        <time>2025-04-15T18:28:29.116Z</time>
      </trkpt>
      <trkpt lat="44.92022" lon="3.67599">
        <ele>667.86</ele>
        <time>2025-04-15T18:28:37.824Z</time>
      </trkpt>
      <trkpt lat="44.9203" lon="3.67562">
        <ele>667.51</ele>
        <time>2025-04-15T18:28:46.536Z</time>
      </trkpt>
      <trkpt lat="44.92033" lon="3.67536">
        <ele>667.2</ele>
        <time>2025-04-15T18:28:55.251Z</time>
      </trkpt>
      <trkpt lat="44.92029" lon="3.6751">
        <ele>666.92</ele>
        <time>2025-04-15T18:29:03.969Z</time>
      </trkpt>
      <trkpt lat="44.92024" lon="3.675">
        <ele>666.67</ele>
        <time>2025-04-15T18:29:12.688Z</time>
      </trkpt>
      <trkpt lat="44.9201" lon="3.67483">
        <ele>666.42</ele>
        <time>2025-04-15T18:29:21.410Z</time>
      </trkpt>
      <trkpt lat="44.92001" lon="3.67478">
        <ele>666.21</ele>
        <time>2025-04-15T18:29:30.134Z</time>
      </trkpt>
      <trkpt lat="44.91993" lon="3.67481">
        <ele>666.02</ele>
        <time>2025-04-15T18:29:38.859Z</time>
      </trkpt>
      <trkpt lat="44.9198" lon="3.67469">
        <ele>665.81</ele>
        <time>2025-04-15T18:29:47.587Z</time>
      </trkpt>
      <trkpt lat="44.91975" lon="3.67455">
        <ele>665.58</ele>
        <time>2025-04-15T18:29:56.317Z</time>
      </trkpt>
      <trkpt lat="44.91971" lon="3.67418">
        <ele>665.28</ele>
        <time>2025-04-15T18:30:05.051Z</time>
      </trkpt>
      <trkpt lat="44.91971" lon="3.67418">
        <ele>665.06</ele>
        <time>2025-04-15T18:30:13.785Z</time>
      </trkpt>
      <trkpt lat="44.91972" lon="3.67382">
        <ele>664.73</ele>
        <time>2025-04-15T18:30:22.523Z</time>
      </trkpt>
      <trkpt lat="44.91967" lon="3.67364">
        <ele>664.44</ele>
        <time>2025-04-15T18:30:31.263Z</time>
      </trkpt>
      <trkpt lat="44.91962" lon="3.67358">
        <ele>664.23</ele>
        <time>2025-04-15T18:30:40.004Z</time>
      </trkpt>
      <trkpt lat="44.91942" lon="3.67343">
        <ele>664.04</ele>
        <time>2025-04-15T18:30:48.749Z</time>
      </trkpt>
      <trkpt lat="44.91922" lon="3.67328">
        <ele>663.85</ele>
        <time>2025-04-15T18:30:57.497Z</time>
      </trkpt>
      <trkpt lat="44.91902" lon="3.67312">
        <ele>663.69</ele>
        <time>2025-04-15T18:31:06.249Z</time>
      </trkpt>
      <trkpt lat="44.91891" lon="3.67302">
        <ele>663.49</ele>
        <time>2025-04-15T18:31:15.003Z</time>
      </trkpt>
      <trkpt lat="44.91882" lon="3.67302">
        <ele>663.33</ele>
        <time>2025-04-15T18:31:23.759Z</time>
      </trkpt>
      <trkpt lat="44.91856" lon="3.67293">
        <ele>663.17</ele>
        <time>2025-04-15T18:31:32.519Z</time>
      </trkpt>
      <trkpt lat="44.91849" lon="3.6728">
        <ele>663</ele>
        <time>2025-04-15T18:31:41.281Z</time>
      </trkpt>
      <trkpt lat="44.91843" lon="3.67258">
        <ele>662.8</ele>
        <time>2025-04-15T18:31:50.046Z</time>
      </trkpt>
      <trkpt lat="44.91836" lon="3.67235">
        <ele>662.64</ele>
        <time>2025-04-15T18:31:58.813Z</time>
      </trkpt>
      <trkpt lat="44.91828" lon="3.67218">
        <ele>662.54</ele>
        <time>2025-04-15T18:32:07.583Z</time>
      </trkpt>
      <trkpt lat="44.91808" lon="3.67193">
        <ele>662.53</ele>
        <time>2025-04-15T18:32:16.357Z</time>
      </trkpt>
      <trkpt lat="44.91788" lon="3.67169">
        <ele>662.64</ele>
        <time>2025-04-15T18:32:25.135Z</time>
      </trkpt>
      <trkpt lat="44.91779" lon="3.67158">
        <ele>662.73</ele>
        <time>2025-04-15T18:32:33.915Z</time>
      </trkpt>
      <trkpt lat="44.91774" lon="3.67157">
        <ele>662.77</ele>
        <time>2025-04-15T18:32:42.696Z</time>
      </trkpt>
      <trkpt lat="44.9177" lon="3.67156">
        <ele>662.82</ele>
        <time>2025-04-15T18:32:51.477Z</time>
      </trkpt>
      <trkpt lat="44.91751" lon="3.67164">
        <ele>662.97</ele>
        <time>2025-04-15T18:33:00.262Z</time>
      </trkpt>
      <trkpt lat="44.91731" lon="3.67172">
        <ele>663.1</ele>
        <time>2025-04-15T18:33:09.050Z</time>
      </trkpt>
      <trkpt lat="44.9171" lon="3.67183">
        <ele>663.31</ele>
        <time>2025-04-15T18:33:17.842Z</time>
      </trkpt>
      <trkpt lat="44.91689" lon="3.67194">
        <ele>663.54</ele>
        <time>2025-04-15T18:33:26.637Z</time>
      </trkpt>
      <trkpt lat="44.91668" lon="3.67205">
        <ele>663.79</ele>
        <time>2025-04-15T18:33:35.436Z</time>
      </trkpt>
      <trkpt lat="44.91654" lon="3.67215">
        <ele>663.99</ele>
        <time>2025-04-15T18:33:44.237Z</time>
      </trkpt>
      <trkpt lat="44.91639" lon="3.67225">
        <ele>664.23</ele>
        <time>2025-04-15T18:33:53.041Z</time>
      </trkpt>
      <trkpt lat="44.91613" lon="3.67247">
        <ele>664.45</ele>
        <time>2025-04-15T18:34:01.850Z</time>
      </trkpt>
      <trkpt lat="44.91594" lon="3.67266">
        <ele>664.67</ele>
        <time>2025-04-15T18:34:10.662Z</time>
      </trkpt>
      <trkpt lat="44.91575" lon="3.67285">
        <ele>664.84</ele>
        <time>2025-04-15T18:34:19.478Z</time>
      </trkpt>
      <trkpt lat="44.91547" lon="3.67306">
        <ele>665</ele>
        <time>2025-04-15T18:34:28.299Z</time>
      </trkpt>
      <trkpt lat="44.9152" lon="3.67328">
        <ele>665.1</ele>
        <time>2025-04-15T18:34:37.125Z</time>
      </trkpt>
      <trkpt lat="44.9151" lon="3.67338">
        <ele>665.47</ele>
        <time>2025-04-15T18:34:45.953Z</time>
      </trkpt>
      <trkpt lat="44.91493" lon="3.67365">
        <ele>665.9</ele>
        <time>2025-04-15T18:34:54.785Z</time>
      </trkpt>
      <trkpt lat="44.91489" lon="3.67378">
        <ele>666.5</ele>
        <time>2025-04-15T18:35:03.619Z</time>
      </trkpt>
      <trkpt lat="44.91485" lon="3.67398">
        <ele>667.21</ele>
        <time>2025-04-15T18:35:12.455Z</time>
      </trkpt>
      <trkpt lat="44.91486" lon="3.67423">
        <ele>668</ele>
        <time>2025-04-15T18:35:21.294Z</time>
      </trkpt>
      <trkpt lat="44.91483" lon="3.67433">
        <ele>668.87</ele>
        <time>2025-04-15T18:35:30.134Z</time>
      </trkpt>
      <trkpt lat="44.91478" lon="3.67442">
        <ele>669.81</ele>
        <time>2025-04-15T18:35:38.976Z</time>
      </trkpt>
      <trkpt lat="44.91457" lon="3.67459">
        <ele>670.81</ele>
        <time>2025-04-15T18:35:47.822Z</time>
      </trkpt>
      <trkpt lat="44.91435" lon="3.67476">
        <ele>671.91</ele>
        <time>2025-04-15T18:35:56.672Z</time>
      </trkpt>
      <trkpt lat="44.9141" lon="3.67496">
        <ele>673.12</ele>
        <time>2025-04-15T18:36:05.526Z</time>
      </trkpt>
      <trkpt lat="44.91385" lon="3.67516">
        <ele>674.47</ele>
        <time>2025-04-15T18:36:14.385Z</time>
      </trkpt>
      <trkpt lat="44.9136" lon="3.67537">
        <ele>675.89</ele>
        <time>2025-04-15T18:36:23.248Z</time>
      </trkpt>
      <trkpt lat="44.9136" lon="3.67537">
        <ele>677.37</ele>
        <time>2025-04-15T18:36:32.111Z</time>
      </trkpt>
      <trkpt lat="44.91342" lon="3.67564">
        <ele>679.1</ele>
        <time>2025-04-15T18:36:40.979Z</time>
      </trkpt>
      <trkpt lat="44.91328" lon="3.67596">
        <ele>681</ele>
        <time>2025-04-15T18:36:49.851Z</time>
      </trkpt>
      <trkpt lat="44.91314" lon="3.67628">
        <ele>683.03</ele>
        <time>2025-04-15T18:36:58.727Z</time>
      </trkpt>
      <trkpt lat="44.91301" lon="3.67659">
        <ele>685.05</ele>
        <time>2025-04-15T18:37:07.607Z</time>
      </trkpt>
      <trkpt lat="44.91301" lon="3.67659">
        <ele>686.94</ele>
        <time>2025-04-15T18:37:16.487Z</time>
      </trkpt>
      <trkpt lat="44.913" lon="3.6766">
        <ele>688.9</ele>
        <time>2025-04-15T18:37:25.367Z</time>
      </trkpt>
      <trkpt lat="44.913" lon="3.67659">
        <ele>690.93</ele>
        <time>2025-04-15T18:37:34.248Z</time>
      </trkpt>
      <trkpt lat="44.91284" lon="3.67697">
        <ele>693.15</ele>
        <time>2025-04-15T18:37:43.134Z</time>
      </trkpt>
      <trkpt lat="44.91268" lon="3.67728">
        <ele>695.46</ele>
        <time>2025-04-15T18:37:52.024Z</time>
      </trkpt>
      <trkpt lat="44.91252" lon="3.6776">
        <ele>697.65</ele>
        <time>2025-04-15T18:38:00.918Z</time>
      </trkpt>
      <trkpt lat="44.91236" lon="3.67792">
        <ele>699.96</ele>
        <time>2025-04-15T18:38:09.817Z</time>
      </trkpt>
      <trkpt lat="44.9122" lon="3.67823">
        <ele>702.38</ele>
        <time>2025-04-15T18:38:18.720Z</time>
      </trkpt>
      <trkpt lat="44.91215" lon="3.67857">
        <ele>704.72</ele>
        <time>2025-04-15T18:38:27.627Z</time>
      </trkpt>
      <trkpt lat="44.91211" lon="3.67891">
        <ele>707.16</ele>
        <time>2025-04-15T18:38:36.538Z</time>
      </trkpt>
      <trkpt lat="44.91207" lon="3.67924">
        <ele>709.58</ele>
        <time>2025-04-15T18:38:45.453Z</time>
      </trkpt>
      <trkpt lat="44.91196" lon="3.6795">
        <ele>712.01</ele>
        <time>2025-04-15T18:38:54.371Z</time>
      </trkpt>
      <trkpt lat="44.91185" lon="3.67976">
        <ele>714.52</ele>
        <time>2025-04-15T18:39:03.293Z</time>
      </trkpt>
      <trkpt lat="44.91166" lon="3.67993">
        <ele>717.1</ele>
        <time>2025-04-15T18:39:12.218Z</time>
      </trkpt>
      <trkpt lat="44.91147" lon="3.6801">
        <ele>719.62</ele>
        <time>2025-04-15T18:39:21.147Z</time>
      </trkpt>
      <trkpt lat="44.91128" lon="3.68035">
        <ele>722.01</ele>
        <time>2025-04-15T18:39:30.080Z</time>
      </trkpt>
      <trkpt lat="44.91109" lon="3.6806">
        <ele>724.43</ele>
        <time>2025-04-15T18:39:39.017Z</time>
      </trkpt>
      <trkpt lat="44.9109" lon="3.68085">
        <ele>726.86</ele>
        <time>2025-04-15T18:39:47.958Z</time>
      </trkpt>
      <trkpt lat="44.91071" lon="3.68109">
        <ele>729.23</ele>
        <time>2025-04-15T18:39:56.904Z</time>
      </trkpt>
      <trkpt lat="44.91052" lon="3.68134">
        <ele>731.58</ele>
        <time>2025-04-15T18:40:05.854Z</time>
      </trkpt>
      <trkpt lat="44.91034" lon="3.68153">
        <ele>733.95</ele>
        <time>2025-04-15T18:40:14.807Z</time>
      </trkpt>
      <trkpt lat="44.91016" lon="3.68171">
        <ele>736.32</ele>
        <time>2025-04-15T18:40:23.764Z</time>
      </trkpt>
      <trkpt lat="44.91007" lon="3.68179">
        <ele>738.6</ele>
        <time>2025-04-15T18:40:32.723Z</time>
      </trkpt>
      <trkpt lat="44.9099" lon="3.68207">
        <ele>740.84</ele>
        <time>2025-04-15T18:40:41.686Z</time>
      </trkpt>
      <trkpt lat="44.90974" lon="3.68235">
        <ele>743.13</ele>
        <time>2025-04-15T18:40:50.653Z</time>
      </trkpt>
      <trkpt lat="44.90957" lon="3.68263">
        <ele>745.42</ele>
        <time>2025-04-15T18:40:59.624Z</time>
      </trkpt>
      <trkpt lat="44.90941" lon="3.68291">
        <ele>747.68</ele>
        <time>2025-04-15T18:41:08.599Z</time>
      </trkpt>
      <trkpt lat="44.90925" lon="3.68319">
        <ele>749.84</ele>
        <time>2025-04-15T18:41:17.578Z</time>
      </trkpt>
      <trkpt lat="44.90908" lon="3.68347">
        <ele>751.9</ele>
        <time>2025-04-15T18:41:26.561Z</time>
      </trkpt>
      <trkpt lat="44.90885" lon="3.68357">
        <ele>753.99</ele>
        <time>2025-04-15T18:41:35.548Z</time>
      </trkpt>
      <trkpt lat="44.90861" lon="3.68368">
        <ele>756.08</ele>
        <time>2025-04-15T18:41:44.539Z</time>
      </trkpt>
      <trkpt lat="44.90843" lon="3.68368">
        <ele>758.17</ele>
        <time>2025-04-15T18:41:53.533Z</time>
      </trkpt>
      <trkpt lat="44.90825" lon="3.68368">
        <ele>760.17</ele>
        <time>2025-04-15T18:42:02.530Z</time>
      </trkpt>
      <trkpt lat="44.90799" lon="3.6839">
        <ele>762.07</ele>
        <time>2025-04-15T18:42:11.532Z</time>
      </trkpt>
      <trkpt lat="44.90784" lon="3.68404">
        <ele>763.92</ele>
        <time>2025-04-15T18:42:20.537Z</time>
      </trkpt>
      <trkpt lat="44.90769" lon="3.68418">
        <ele>765.74</ele>
        <time>2025-04-15T18:42:29.545Z</time>
      </trkpt>
      <trkpt lat="44.90745" lon="3.6842">
        <ele>767.51</ele>
        <time>2025-04-15T18:42:38.556Z</time>
      </trkpt>
      <trkpt lat="44.90722" lon="3.68422">
        <ele>769.21</ele>
        <time>2025-04-15T18:42:47.571Z</time>
      </trkpt>
      <trkpt lat="44.90698" lon="3.68424">
        <ele>770.86</ele>
        <time>2025-04-15T18:42:56.590Z</time>
      </trkpt>
      <trkpt lat="44.90673" lon="3.68426">
        <ele>772.47</ele>
        <time>2025-04-15T18:43:05.613Z</time>
      </trkpt>
      <trkpt lat="44.90648" lon="3.68428">
        <ele>774.05</ele>
        <time>2025-04-15T18:43:14.640Z</time>
      </trkpt>
      <trkpt lat="44.90622" lon="3.6843">
        <ele>775.59</ele>
        <time>2025-04-15T18:43:23.671Z</time>
      </trkpt>
      <trkpt lat="44.90597" lon="3.68433">
        <ele>776.97</ele>
        <time>2025-04-15T18:43:32.706Z</time>
      </trkpt>
      <trkpt lat="44.90572" lon="3.68435">
        <ele>778.28</ele>
        <time>2025-04-15T18:43:41.745Z</time>
      </trkpt>
      <trkpt lat="44.90559" lon="3.68433">
        <ele>779.54</ele>
        <time>2025-04-15T18:43:50.786Z</time>
      </trkpt>
      <trkpt lat="44.90539" lon="3.68411">
        <ele>780.76</ele>
        <time>2025-04-15T18:43:59.831Z</time>
      </trkpt>
      <trkpt lat="44.9052" lon="3.6839">
        <ele>781.95</ele>
        <time>2025-04-15T18:44:08.880Z</time>
      </trkpt>
      <trkpt lat="44.90502" lon="3.68404">
        <ele>783.01</ele>
        <time>2025-04-15T18:44:17.933Z</time>
      </trkpt>
      <trkpt lat="44.90484" lon="3.68418">
        <ele>784.02</ele>
        <time>2025-04-15T18:44:26.989Z</time>
      </trkpt>
      <trkpt lat="44.90473" lon="3.68453">
        <ele>784.95</ele>
        <time>2025-04-15T18:44:36.049Z</time>
      </trkpt>
      <trkpt lat="44.90463" lon="3.68488">
        <ele>785.86</ele>
        <time>2025-04-15T18:44:45.114Z</time>
      </trkpt>
      <trkpt lat="44.90453" lon="3.68523">
        <ele>786.7</ele>
        <time>2025-04-15T18:44:54.183Z</time>
      </trkpt>
      <trkpt lat="44.90442" lon="3.68559">
        <ele>787.52</ele>
        <time>2025-04-15T18:45:03.256Z</time>
      </trkpt>
      <trkpt lat="44.90432" lon="3.68594">
        <ele>788.29</ele>
        <time>2025-04-15T18:45:12.334Z</time>
      </trkpt>
      <trkpt lat="44.90421" lon="3.68623">
        <ele>789.02</ele>
        <time>2025-04-15T18:45:21.415Z</time>
      </trkpt>
      <trkpt lat="44.90411" lon="3.68651">
        <ele>789.73</ele>
        <time>2025-04-15T18:45:30.500Z</time>
      </trkpt>
      <trkpt lat="44.90396" lon="3.68662">
        <ele>790.39</ele>
        <time>2025-04-15T18:45:39.588Z</time>
      </trkpt>
      <trkpt lat="44.90367" lon="3.68647">
        <ele>790.9</ele>
        <time>2025-04-15T18:45:48.681Z</time>
      </trkpt>
      <trkpt lat="44.90338" lon="3.68632">
        <ele>791.36</ele>
        <time>2025-04-15T18:45:57.778Z</time>
      </trkpt>
      <trkpt lat="44.9031" lon="3.68617">
        <ele>791.8</ele>
        <time>2025-04-15T18:46:06.880Z</time>
      </trkpt>
      <trkpt lat="44.90287" lon="3.68601">
        <ele>792.13</ele>
        <time>2025-04-15T18:46:15.986Z</time>
      </trkpt>
      <trkpt lat="44.90264" lon="3.68586">
        <ele>792.42</ele>
        <time>2025-04-15T18:46:25.096Z</time>
      </trkpt>
      <trkpt lat="44.90241" lon="3.6857">
        <ele>792.76</ele>
        <time>2025-04-15T18:46:34.211Z</time>
      </trkpt>
      <trkpt lat="44.9022" lon="3.6855">
        <ele>793.02</ele>
        <time>2025-04-15T18:46:43.330Z</time>
      </trkpt>
      <trkpt lat="44.90198" lon="3.6853">
        <ele>793.23</ele>
        <time>2025-04-15T18:46:52.453Z</time>
      </trkpt>
      <trkpt lat="44.90177" lon="3.6851">
        <ele>793.44</ele>
        <time>2025-04-15T18:47:01.580Z</time>
      </trkpt>
      <trkpt lat="44.9016" lon="3.68485">
        <ele>793.67</ele>
        <time>2025-04-15T18:47:10.711Z</time>
      </trkpt>
      <trkpt lat="44.90142" lon="3.68461">
        <ele>793.85</ele>
        <time>2025-04-15T18:47:19.846Z</time>
      </trkpt>
      <trkpt lat="44.90125" lon="3.68437">
        <ele>793.94</ele>
        <time>2025-04-15T18:47:28.985Z</time>
      </trkpt>
      <trkpt lat="44.90115" lon="3.68433">
        <ele>794.03</ele>
        <time>2025-04-15T18:47:38.125Z</time>
      </trkpt>
      <trkpt lat="44.90097" lon="3.68437">
        <ele>794.07</ele>
        <time>2025-04-15T18:47:47.268Z</time>
      </trkpt>
      <trkpt lat="44.90087" lon="3.684">
        <ele>794.09</ele>
        <time>2025-04-15T18:47:56.416Z</time>
      </trkpt>
      <trkpt lat="44.90076" lon="3.68364">
        <ele>794.3</ele>
        <time>2025-04-15T18:48:05.568Z</time>
      </trkpt>
      <trkpt lat="44.90059" lon="3.68327">
        <ele>794.61</ele>
        <time>2025-04-15T18:48:14.725Z</time>
      </trkpt>
      <trkpt lat="44.90048" lon="3.68291">
        <ele>794.85</ele>
        <time>2025-04-15T18:48:23.887Z</time>
      </trkpt>
      <trkpt lat="44.90037" lon="3.68254">
        <ele>795.08</ele>
        <time>2025-04-15T18:48:33.053Z</time>
      </trkpt>
      <trkpt lat="44.90027" lon="3.68218">
        <ele>795.34</ele>
        <time>2025-04-15T18:48:42.224Z</time>
      </trkpt>
      <trkpt lat="44.90009" lon="3.68197">
        <ele>795.58</ele>
        <time>2025-04-15T18:48:51.398Z</time>
      </trkpt>
      <trkpt lat="44.90008" lon="3.68195">
        <ele>795.93</ele>
        <time>2025-04-15T18:49:00.573Z</time>
      </trkpt>
      <trkpt lat="44.90008" lon="3.68195">
        <ele>796.35</ele>
        <time>2025-04-15T18:49:09.748Z</time>
      </trkpt>
      <trkpt lat="44.90007" lon="3.68193">
        <ele>796.82</ele>
        <time>2025-04-15T18:49:18.923Z</time>
      </trkpt>
      <trkpt lat="44.90009" lon="3.68197">
        <ele>795.58</ele>
        <time>2025-04-15T18:49:28.098Z</time>
      </trkpt>
      <trkpt lat="44.90027" lon="3.68218">
        <ele>795.34</ele>
        <time>2025-04-15T18:49:37.277Z</time>
      </trkpt>
      <trkpt lat="44.90037" lon="3.68255">
        <ele>798.76</ele>
        <time>2025-04-15T18:49:46.460Z</time>
      </trkpt>
      <trkpt lat="44.90048" lon="3.68291">
        <ele>799.53</ele>
        <time>2025-04-15T18:49:55.648Z</time>
      </trkpt>
      <trkpt lat="44.90059" lon="3.68327">
        <ele>794.61</ele>
        <time>2025-04-15T18:50:04.840Z</time>
      </trkpt>
      <trkpt lat="44.90076" lon="3.68364">
        <ele>794.3</ele>
        <time>2025-04-15T18:50:14.037Z</time>
      </trkpt>
      <trkpt lat="44.90087" lon="3.684">
        <ele>802.05</ele>
        <time>2025-04-15T18:50:23.239Z</time>
      </trkpt>
      <trkpt lat="44.90097" lon="3.68437">
        <ele>803.24</ele>
        <time>2025-04-15T18:50:32.445Z</time>
      </trkpt>
      <trkpt lat="44.90089" lon="3.68456">
        <ele>804.27</ele>
        <time>2025-04-15T18:50:41.654Z</time>
      </trkpt>
      <trkpt lat="44.90091" lon="3.68465">
        <ele>805.54</ele>
        <time>2025-04-15T18:50:50.864Z</time>
      </trkpt>
      <trkpt lat="44.90107" lon="3.68493">
        <ele>807.03</ele>
        <time>2025-04-15T18:51:00.078Z</time>
      </trkpt>
      <trkpt lat="44.90122" lon="3.68522">
        <ele>808.62</ele>
        <time>2025-04-15T18:51:09.296Z</time>
      </trkpt>
      <trkpt lat="44.90138" lon="3.68551">
        <ele>810.17</ele>
        <time>2025-04-15T18:51:18.518Z</time>
      </trkpt>
      <trkpt lat="44.90149" lon="3.68589">
        <ele>811.95</ele>
        <time>2025-04-15T18:51:27.745Z</time>
      </trkpt>
      <trkpt lat="44.90161" lon="3.68627">
        <ele>813.75</ele>
        <time>2025-04-15T18:51:36.977Z</time>
      </trkpt>
      <trkpt lat="44.90172" lon="3.68665">
        <ele>815.54</ele>
        <time>2025-04-15T18:51:46.213Z</time>
      </trkpt>
      <trkpt lat="44.90183" lon="3.68703">
        <ele>817.32</ele>
        <time>2025-04-15T18:51:55.454Z</time>
      </trkpt>
      <trkpt lat="44.90183" lon="3.68703">
        <ele>819.1</ele>
        <time>2025-04-15T18:52:04.695Z</time>
      </trkpt>
      <trkpt lat="44.90194" lon="3.6872">
        <ele>820.94</ele>
        <time>2025-04-15T18:52:13.939Z</time>
      </trkpt>
      <trkpt lat="44.90205" lon="3.68737">
        <ele>822.88</ele>
        <time>2025-04-15T18:52:23.185Z</time>
      </trkpt>
      <trkpt lat="44.90228" lon="3.68765">
        <ele>824.97</ele>
        <time>2025-04-15T18:52:32.436Z</time>
      </trkpt>
      <trkpt lat="44.90252" lon="3.68793">
        <ele>826.94</ele>
        <time>2025-04-15T18:52:41.692Z</time>
      </trkpt>
      <trkpt lat="44.90275" lon="3.68821">
        <ele>828.86</ele>
        <time>2025-04-15T18:52:50.953Z</time>
      </trkpt>
      <trkpt lat="44.90288" lon="3.68845">
        <ele>830.88</ele>
        <time>2025-04-15T18:53:00.217Z</time>
      </trkpt>
      <trkpt lat="44.90301" lon="3.68868">
        <ele>832.95</ele>
        <time>2025-04-15T18:53:09.485Z</time>
      </trkpt>
      <trkpt lat="44.90307" lon="3.68901">
        <ele>835.16</ele>
        <time>2025-04-15T18:53:18.757Z</time>
      </trkpt>
      <trkpt lat="44.90313" lon="3.68934">
        <ele>837.35</ele>
        <time>2025-04-15T18:53:28.033Z</time>
      </trkpt>
      <trkpt lat="44.90318" lon="3.68967">
        <ele>839.47</ele>
        <time>2025-04-15T18:53:37.312Z</time>
      </trkpt>
      <trkpt lat="44.90315" lon="3.69006">
        <ele>841.59</ele>
        <time>2025-04-15T18:53:46.596Z</time>
      </trkpt>
      <trkpt lat="44.90311" lon="3.69044">
        <ele>843.56</ele>
        <time>2025-04-15T18:53:55.884Z</time>
      </trkpt>
      <trkpt lat="44.90308" lon="3.69083">
        <ele>845.48</ele>
        <time>2025-04-15T18:54:05.177Z</time>
      </trkpt>
      <trkpt lat="44.90298" lon="3.69106">
        <ele>847.49</ele>
        <time>2025-04-15T18:54:14.473Z</time>
      </trkpt>
      <trkpt lat="44.90288" lon="3.6913">
        <ele>849.5</ele>
        <time>2025-04-15T18:54:23.772Z</time>
      </trkpt>
      <trkpt lat="44.90281" lon="3.6917">
        <ele>851.54</ele>
        <time>2025-04-15T18:54:33.076Z</time>
      </trkpt>
      <trkpt lat="44.90273" lon="3.69209">
        <ele>853.55</ele>
        <time>2025-04-15T18:54:42.384Z</time>
      </trkpt>
      <trkpt lat="44.90264" lon="3.69242">
        <ele>855.49</ele>
        <time>2025-04-15T18:54:51.696Z</time>
      </trkpt>
      <trkpt lat="44.90255" lon="3.69274">
        <ele>857.38</ele>
        <time>2025-04-15T18:55:01.012Z</time>
      </trkpt>
      <trkpt lat="44.90246" lon="3.69306">
        <ele>859.24</ele>
        <time>2025-04-15T18:55:10.332Z</time>
      </trkpt>
      <trkpt lat="44.90237" lon="3.69338">
        <ele>861</ele>
        <time>2025-04-15T18:55:19.656Z</time>
      </trkpt>
      <trkpt lat="44.90233" lon="3.69371">
        <ele>862.61</ele>
        <time>2025-04-15T18:55:28.984Z</time>
      </trkpt>
      <trkpt lat="44.90228" lon="3.69405">
        <ele>864.24</ele>
        <time>2025-04-15T18:55:38.316Z</time>
      </trkpt>
      <trkpt lat="44.90234" lon="3.69441">
        <ele>865.81</ele>
        <time>2025-04-15T18:55:47.652Z</time>
      </trkpt>
      <trkpt lat="44.90239" lon="3.69478">
        <ele>867.46</ele>
        <time>2025-04-15T18:55:56.992Z</time>
      </trkpt>
      <trkpt lat="44.9023" lon="3.69501">
        <ele>869.21</ele>
        <time>2025-04-15T18:56:06.335Z</time>
      </trkpt>
      <trkpt lat="44.90211" lon="3.69501">
        <ele>870.89</ele>
        <time>2025-04-15T18:56:15.681Z</time>
      </trkpt>
      <trkpt lat="44.90202" lon="3.69465">
        <ele>872.3</ele>
        <time>2025-04-15T18:56:25.032Z</time>
      </trkpt>
      <trkpt lat="44.90192" lon="3.69428">
        <ele>873.7</ele>
        <time>2025-04-15T18:56:34.387Z</time>
      </trkpt>
      <trkpt lat="44.90183" lon="3.69392">
        <ele>875.2</ele>
        <time>2025-04-15T18:56:43.746Z</time>
      </trkpt>
      <trkpt lat="44.90181" lon="3.69362">
        <ele>876.64</ele>
        <time>2025-04-15T18:56:53.109Z</time>
      </trkpt>
      <trkpt lat="44.90183" lon="3.6932">
        <ele>877.89</ele>
        <time>2025-04-15T18:57:02.477Z</time>
      </trkpt>
      <trkpt lat="44.90185" lon="3.69279">
        <ele>879.14</ele>
        <time>2025-04-15T18:57:11.849Z</time>
      </trkpt>
      <trkpt lat="44.90187" lon="3.69238">
        <ele>880.31</ele>
        <time>2025-04-15T18:57:21.226Z</time>
      </trkpt>
      <trkpt lat="44.9019" lon="3.69196">
        <ele>881.47</ele>
        <time>2025-04-15T18:57:30.608Z</time>
      </trkpt>
      <trkpt lat="44.90192" lon="3.69156">
        <ele>882.54</ele>
        <time>2025-04-15T18:57:39.994Z</time>
      </trkpt>
      <trkpt lat="44.9019" lon="3.69141">
        <ele>883.67</ele>
        <time>2025-04-15T18:57:49.382Z</time>
      </trkpt>
      <trkpt lat="44.9019" lon="3.69141">
        <ele>884.81</ele>
        <time>2025-04-15T18:57:58.770Z</time>
      </trkpt>
      <trkpt lat="44.90177" lon="3.6913">
        <ele>885.91</ele>
        <time>2025-04-15T18:58:08.161Z</time>
      </trkpt>
      <trkpt lat="44.9016" lon="3.69128">
        <ele>886.99</ele>
        <time>2025-04-15T18:58:17.554Z</time>
      </trkpt>
      <trkpt lat="44.90142" lon="3.69141">
        <ele>888.15</ele>
        <time>2025-04-15T18:58:26.950Z</time>
      </trkpt>
      <trkpt lat="44.90122" lon="3.69171">
        <ele>889.38</ele>
        <time>2025-04-15T18:58:36.351Z</time>
      </trkpt>
      <trkpt lat="44.90102" lon="3.69201">
        <ele>890.71</ele>
        <time>2025-04-15T18:58:45.757Z</time>
      </trkpt>
      <trkpt lat="44.90093" lon="3.69222">
        <ele>891.96</ele>
        <time>2025-04-15T18:58:55.166Z</time>
      </trkpt>
      <trkpt lat="44.90087" lon="3.69259">
        <ele>893.26</ele>
        <time>2025-04-15T18:59:04.579Z</time>
      </trkpt>
      <trkpt lat="44.9008" lon="3.69295">
        <ele>894.55</ele>
        <time>2025-04-15T18:59:13.996Z</time>
      </trkpt>
      <trkpt lat="44.90069" lon="3.69325">
        <ele>895.83</ele>
        <time>2025-04-15T18:59:23.417Z</time>
      </trkpt>
      <trkpt lat="44.90054" lon="3.69347">
        <ele>897.02</ele>
        <time>2025-04-15T18:59:32.841Z</time>
      </trkpt>
      <trkpt lat="44.90039" lon="3.69368">
        <ele>898.32</ele>
        <time>2025-04-15T18:59:42.269Z</time>
      </trkpt>
      <trkpt lat="44.90024" lon="3.6939">
        <ele>899.59</ele>
        <time>2025-04-15T18:59:51.700Z</time>
      </trkpt>
      <trkpt lat="44.90009" lon="3.69422">
        <ele>900.84</ele>
        <time>2025-04-15T19:00:01.136Z</time>
      </trkpt>
      <trkpt lat="44.90002" lon="3.6945">
        <ele>902.12</ele>
        <time>2025-04-15T19:00:10.575Z</time>
      </trkpt>
      <trkpt lat="44.89994" lon="3.69478">
        <ele>903.48</ele>
        <time>2025-04-15T19:00:20.017Z</time>
      </trkpt>
      <trkpt lat="44.89989" lon="3.69507">
        <ele>904.88</ele>
        <time>2025-04-15T19:00:29.463Z</time>
      </trkpt>
      <trkpt lat="44.89984" lon="3.69535">
        <ele>906.29</ele>
        <time>2025-04-15T19:00:38.912Z</time>
      </trkpt>
      <trkpt lat="44.89986" lon="3.69575">
        <ele>907.75</ele>
        <time>2025-04-15T19:00:48.366Z</time>
      </trkpt>
      <trkpt lat="44.89988" lon="3.69615">
        <ele>909.24</ele>
        <time>2025-04-15T19:00:57.824Z</time>
      </trkpt>
      <trkpt lat="44.89983" lon="3.69654">
        <ele>910.74</ele>
        <time>2025-04-15T19:01:07.287Z</time>
      </trkpt>
      <trkpt lat="44.89978" lon="3.69693">
        <ele>912.29</ele>
        <time>2025-04-15T19:01:16.754Z</time>
      </trkpt>
      <trkpt lat="44.89973" lon="3.69733">
        <ele>913.98</ele>
        <time>2025-04-15T19:01:26.226Z</time>
      </trkpt>
      <trkpt lat="44.89969" lon="3.69772">
        <ele>915.62</ele>
        <time>2025-04-15T19:01:35.702Z</time>
      </trkpt>
      <trkpt lat="44.89971" lon="3.69809">
        <ele>917.28</ele>
        <time>2025-04-15T19:01:45.183Z</time>
      </trkpt>
      <trkpt lat="44.89974" lon="3.69847">
        <ele>919.02</ele>
        <time>2025-04-15T19:01:54.668Z</time>
      </trkpt>
      <trkpt lat="44.89976" lon="3.69885">
        <ele>920.74</ele>
        <time>2025-04-15T19:02:04.157Z</time>
      </trkpt>
      <trkpt lat="44.89979" lon="3.69923">
        <ele>922.48</ele>
        <time>2025-04-15T19:02:13.651Z</time>
      </trkpt>
      <trkpt lat="44.89981" lon="3.6996">
        <ele>924.34</ele>
        <time>2025-04-15T19:02:23.149Z</time>
      </trkpt>
      <trkpt lat="44.89976" lon="3.69986">
        <ele>926.09</ele>
        <time>2025-04-15T19:02:32.650Z</time>
      </trkpt>
      <trkpt lat="44.89971" lon="3.70012">
        <ele>927.92</ele>
        <time>2025-04-15T19:02:42.154Z</time>
      </trkpt>
      <trkpt lat="44.8996" lon="3.70031">
        <ele>929.77</ele>
        <time>2025-04-15T19:02:51.661Z</time>
      </trkpt>
      <trkpt lat="44.89949" lon="3.7005">
        <ele>931.71</ele>
        <time>2025-04-15T19:03:01.171Z</time>
      </trkpt>
      <trkpt lat="44.89934" lon="3.70061">
        <ele>933.57</ele>
        <time>2025-04-15T19:03:10.683Z</time>
      </trkpt>
      <trkpt lat="44.89919" lon="3.70072">
        <ele>935.47</ele>
        <time>2025-04-15T19:03:20.198Z</time>
      </trkpt>
      <trkpt lat="44.89896" lon="3.70083">
        <ele>937.3</ele>
        <time>2025-04-15T19:03:29.717Z</time>
      </trkpt>
      <trkpt lat="44.89878" lon="3.701">
        <ele>939.24</ele>
        <time>2025-04-15T19:03:39.239Z</time>
      </trkpt>
      <trkpt lat="44.89871" lon="3.70125">
        <ele>941.18</ele>
        <time>2025-04-15T19:03:48.764Z</time>
      </trkpt>
      <trkpt lat="44.89863" lon="3.70149">
        <ele>943.09</ele>
        <time>2025-04-15T19:03:58.293Z</time>
      </trkpt>
      <trkpt lat="44.89868" lon="3.70184">
        <ele>945.17</ele>
        <time>2025-04-15T19:04:07.825Z</time>
      </trkpt>
      <trkpt lat="44.89881" lon="3.70216">
        <ele>947.42</ele>
        <time>2025-04-15T19:04:17.362Z</time>
      </trkpt>
      <trkpt lat="44.89883" lon="3.70241">
        <ele>949.55</ele>
        <time>2025-04-15T19:04:26.902Z</time>
      </trkpt>
      <trkpt lat="44.89868" lon="3.70267">
        <ele>951.57</ele>
        <time>2025-04-15T19:04:36.445Z</time>
      </trkpt>
      <trkpt lat="44.89848" lon="3.70292">
        <ele>953.65</ele>
        <time>2025-04-15T19:04:45.993Z</time>
      </trkpt>
      <trkpt lat="44.89829" lon="3.70317">
        <ele>955.72</ele>
        <time>2025-04-15T19:04:55.545Z</time>
      </trkpt>
      <trkpt lat="44.89814" lon="3.70349">
        <ele>957.84</ele>
        <time>2025-04-15T19:05:05.101Z</time>
      </trkpt>
      <trkpt lat="44.89799" lon="3.70381">
        <ele>959.89</ele>
        <time>2025-04-15T19:05:14.662Z</time>
      </trkpt>
      <trkpt lat="44.89795" lon="3.70422">
        <ele>961.97</ele>
        <time>2025-04-15T19:05:24.227Z</time>
      </trkpt>
      <trkpt lat="44.89796" lon="3.70465">
        <ele>964.04</ele>
        <time>2025-04-15T19:05:33.797Z</time>
      </trkpt>
      <trkpt lat="44.89797" lon="3.70508">
        <ele>966.03</ele>
        <time>2025-04-15T19:05:43.372Z</time>
      </trkpt>
      <trkpt lat="44.8979" lon="3.70548">
        <ele>968.03</ele>
        <time>2025-04-15T19:05:52.952Z</time>
      </trkpt>
      <trkpt lat="44.89778" lon="3.70587">
        <ele>969.95</ele>
        <time>2025-04-15T19:06:02.537Z</time>
      </trkpt>
      <trkpt lat="44.89765" lon="3.70626">
        <ele>971.86</ele>
        <time>2025-04-15T19:06:12.126Z</time>
      </trkpt>
      <trkpt lat="44.89764" lon="3.7065">
        <ele>973.78</ele>
        <time>2025-04-15T19:06:21.718Z</time>
      </trkpt>
      <trkpt lat="44.89763" lon="3.70675">
        <ele>975.66</ele>
        <time>2025-04-15T19:06:31.313Z</time>
      </trkpt>
      <trkpt lat="44.89773" lon="3.70715">
        <ele>977.64</ele>
        <time>2025-04-15T19:06:40.913Z</time>
      </trkpt>
      <trkpt lat="44.89784" lon="3.70754">
        <ele>979.52</ele>
        <time>2025-04-15T19:06:50.518Z</time>
      </trkpt>
      <trkpt lat="44.89798" lon="3.70794">
        <ele>981.23</ele>
        <time>2025-04-15T19:07:00.128Z</time>
      </trkpt>
      <trkpt lat="44.89812" lon="3.70834">
        <ele>982.89</ele>
        <time>2025-04-15T19:07:09.743Z</time>
      </trkpt>
      <trkpt lat="44.89818" lon="3.70862">
        <ele>984.49</ele>
        <time>2025-04-15T19:07:19.361Z</time>
      </trkpt>
      <trkpt lat="44.89818" lon="3.70887">
        <ele>986.01</ele>
        <time>2025-04-15T19:07:28.982Z</time>
      </trkpt>
      <trkpt lat="44.89818" lon="3.70913">
        <ele>987.47</ele>
        <time>2025-04-15T19:07:38.606Z</time>
      </trkpt>
      <trkpt lat="44.89818" lon="3.70913">
        <ele>988.88</ele>
        <time>2025-04-15T19:07:48.230Z</time>
      </trkpt>
      <trkpt lat="44.89806" lon="3.70926">
        <ele>990.21</ele>
        <time>2025-04-15T19:07:57.857Z</time>
      </trkpt>
      <trkpt lat="44.8979" lon="3.70932">
        <ele>991.49</ele>
        <time>2025-04-15T19:08:07.486Z</time>
      </trkpt>
      <trkpt lat="44.89774" lon="3.70923">
        <ele>992.75</ele>
        <time>2025-04-15T19:08:17.118Z</time>
      </trkpt>
      <trkpt lat="44.89758" lon="3.70913">
        <ele>993.92</ele>
        <time>2025-04-15T19:08:26.753Z</time>
      </trkpt>
      <trkpt lat="44.89741" lon="3.70913">
        <ele>995.09</ele>
        <time>2025-04-15T19:08:36.390Z</time>
      </trkpt>
      <trkpt lat="44.89724" lon="3.70913">
        <ele>996.19</ele>
        <time>2025-04-15T19:08:46.030Z</time>
      </trkpt>
      <trkpt lat="44.89705" lon="3.70904">
        <ele>997.17</ele>
        <time>2025-04-15T19:08:55.673Z</time>
      </trkpt>
      <trkpt lat="44.89689" lon="3.70888">
        <ele>997.99</ele>
        <time>2025-04-15T19:09:05.320Z</time>
      </trkpt>
      <trkpt lat="44.89672" lon="3.70872">
        <ele>998.75</ele>
        <time>2025-04-15T19:09:14.970Z</time>
      </trkpt>
      <trkpt lat="44.89653" lon="3.70874">
        <ele>999.48</ele>
        <time>2025-04-15T19:09:24.623Z</time>
      </trkpt>
      <trkpt lat="44.89627" lon="3.7089">
        <ele>1000.29</ele>
        <time>2025-04-15T19:09:34.280Z</time>
      </trkpt>
      <trkpt lat="44.896" lon="3.70905">
        <ele>1000.94</ele>
        <time>2025-04-15T19:09:43.942Z</time>
      </trkpt>
      <trkpt lat="44.89574" lon="3.70921">
        <ele>1001.5</ele>
        <time>2025-04-15T19:09:53.609Z</time>
      </trkpt>
      <trkpt lat="44.89547" lon="3.70936">
        <ele>1001.95</ele>
        <time>2025-04-15T19:10:03.280Z</time>
      </trkpt>
      <trkpt lat="44.89521" lon="3.70952">
        <ele>1002.32</ele>
        <time>2025-04-15T19:10:12.956Z</time>
      </trkpt>
      <trkpt lat="44.89494" lon="3.70967">
        <ele>1002.59</ele>
        <time>2025-04-15T19:10:22.636Z</time>
      </trkpt>
      <trkpt lat="44.89468" lon="3.70983">
        <ele>1002.77</ele>
        <time>2025-04-15T19:10:32.321Z</time>
      </trkpt>
      <trkpt lat="44.89442" lon="3.70998">
        <ele>1002.92</ele>
        <time>2025-04-15T19:10:42.010Z</time>
      </trkpt>
      <trkpt lat="44.89415" lon="3.71014">
        <ele>1003</ele>
        <time>2025-04-15T19:10:51.704Z</time>
      </trkpt>
      <trkpt lat="44.89393" lon="3.71027">
        <ele>1002.98</ele>
        <time>2025-04-15T19:11:01.402Z</time>
      </trkpt>
      <trkpt lat="44.89371" lon="3.71041">
        <ele>1002.81</ele>
        <time>2025-04-15T19:11:11.104Z</time>
      </trkpt>
      <trkpt lat="44.89349" lon="3.71054">
        <ele>1002.56</ele>
        <time>2025-04-15T19:11:20.810Z</time>
      </trkpt>
      <trkpt lat="44.89327" lon="3.71068">
        <ele>1002.29</ele>
        <time>2025-04-15T19:11:30.519Z</time>
      </trkpt>
      <trkpt lat="44.89308" lon="3.71068">
        <ele>1001.97</ele>
        <time>2025-04-15T19:11:40.231Z</time>
      </trkpt>
      <trkpt lat="44.89288" lon="3.71068">
        <ele>1001.61</ele>
        <time>2025-04-15T19:11:49.947Z</time>
      </trkpt>
      <trkpt lat="44.89267" lon="3.71053">
        <ele>1001.12</ele>
        <time>2025-04-15T19:11:59.666Z</time>
      </trkpt>
      <trkpt lat="44.89245" lon="3.71038">
        <ele>1000.5</ele>
        <time>2025-04-15T19:12:09.389Z</time>
      </trkpt>
      <trkpt lat="44.89218" lon="3.71023">
        <ele>999.86</ele>
        <time>2025-04-15T19:12:19.117Z</time>
      </trkpt>
      <trkpt lat="44.8919" lon="3.71007">
        <ele>999.09</ele>
        <time>2025-04-15T19:12:28.850Z</time>
      </trkpt>
      <trkpt lat="44.8917" lon="3.71005">
        <ele>998.29</ele>
        <time>2025-04-15T19:12:38.586Z</time>
      </trkpt>
      <trkpt lat="44.89151" lon="3.71003">
        <ele>997.42</ele>
        <time>2025-04-15T19:12:48.325Z</time>
      </trkpt>
      <trkpt lat="44.89131" lon="3.71014">
        <ele>996.59</ele>
        <time>2025-04-15T19:12:58.067Z</time>
      </trkpt>
      <trkpt lat="44.8911" lon="3.71025">
        <ele>995.66</ele>
        <time>2025-04-15T19:13:07.813Z</time>
      </trkpt>
      <trkpt lat="44.89092" lon="3.71043">
        <ele>994.71</ele>
        <time>2025-04-15T19:13:17.563Z</time>
      </trkpt>
      <trkpt lat="44.89074" lon="3.71061">
        <ele>993.69</ele>
        <time>2025-04-15T19:13:27.316Z</time>
      </trkpt>
      <trkpt lat="44.89061" lon="3.71083">
        <ele>992.63</ele>
        <time>2025-04-15T19:13:37.072Z</time>
      </trkpt>
      <trkpt lat="44.89048" lon="3.71104">
        <ele>991.51</ele>
        <time>2025-04-15T19:13:46.832Z</time>
      </trkpt>
      <trkpt lat="44.89037" lon="3.71137">
        <ele>990.32</ele>
        <time>2025-04-15T19:13:56.596Z</time>
      </trkpt>
      <trkpt lat="44.89025" lon="3.71171">
        <ele>989.13</ele>
        <time>2025-04-15T19:14:06.364Z</time>
      </trkpt>
      <trkpt lat="44.89014" lon="3.71204">
        <ele>987.92</ele>
        <time>2025-04-15T19:14:16.136Z</time>
      </trkpt>
      <trkpt lat="44.89003" lon="3.71237">
        <ele>986.75</ele>
        <time>2025-04-15T19:14:25.912Z</time>
      </trkpt>
      <trkpt lat="44.88992" lon="3.71262">
        <ele>985.54</ele>
        <time>2025-04-15T19:14:35.692Z</time>
      </trkpt>
      <trkpt lat="44.8898" lon="3.71287">
        <ele>984.28</ele>
        <time>2025-04-15T19:14:45.475Z</time>
      </trkpt>
      <trkpt lat="44.88969" lon="3.71312">
        <ele>983.12</ele>
        <time>2025-04-15T19:14:55.261Z</time>
      </trkpt>
      <trkpt lat="44.88964" lon="3.71344">
        <ele>981.98</ele>
        <time>2025-04-15T19:15:05.051Z</time>
      </trkpt>
      <trkpt lat="44.88959" lon="3.71375">
        <ele>980.83</ele>
        <time>2025-04-15T19:15:14.845Z</time>
      </trkpt>
      <trkpt lat="44.88954" lon="3.71407">
        <ele>979.67</ele>
        <time>2025-04-15T19:15:24.642Z</time>
      </trkpt>
      <trkpt lat="44.88956" lon="3.71439">
        <ele>978.6</ele>
        <time>2025-04-15T19:15:34.443Z</time>
      </trkpt>
      <trkpt lat="44.88958" lon="3.71471">
        <ele>977.46</ele>
        <time>2025-04-15T19:15:44.248Z</time>
      </trkpt>
      <trkpt lat="44.88967" lon="3.71512">
        <ele>976.4</ele>
        <time>2025-04-15T19:15:54.058Z</time>
      </trkpt>
      <trkpt lat="44.88968" lon="3.71539">
        <ele>975.35</ele>
        <time>2025-04-15T19:16:03.871Z</time>
      </trkpt>
      <trkpt lat="44.88969" lon="3.71565">
        <ele>974.3</ele>
        <time>2025-04-15T19:16:13.687Z</time>
      </trkpt>
      <trkpt lat="44.88977" lon="3.71586">
        <ele>973.41</ele>
        <time>2025-04-15T19:16:23.505Z</time>
      </trkpt>
      <trkpt lat="44.88986" lon="3.71606">
        <ele>972.56</ele>
        <time>2025-04-15T19:16:33.326Z</time>
      </trkpt>
      <trkpt lat="44.88988" lon="3.71623">
        <ele>971.67</ele>
        <time>2025-04-15T19:16:43.149Z</time>
      </trkpt>
      <trkpt lat="44.88985" lon="3.71657">
        <ele>970.81</ele>
        <time>2025-04-15T19:16:52.976Z</time>
      </trkpt>
      <trkpt lat="44.88982" lon="3.71691">
        <ele>970.01</ele>
        <time>2025-04-15T19:17:02.807Z</time>
      </trkpt>
      <trkpt lat="44.88978" lon="3.71725">
        <ele>969.26</ele>
        <time>2025-04-15T19:17:12.642Z</time>
      </trkpt>
      <trkpt lat="44.88975" lon="3.71759">
        <ele>968.61</ele>
        <time>2025-04-15T19:17:22.481Z</time>
      </trkpt>
      <trkpt lat="44.88984" lon="3.71785">
        <ele>968.04</ele>
        <time>2025-04-15T19:17:32.323Z</time>
      </trkpt>
      <trkpt lat="44.88992" lon="3.71812">
        <ele>967.42</ele>
        <time>2025-04-15T19:17:42.168Z</time>
      </trkpt>
      <trkpt lat="44.89003" lon="3.71829">
        <ele>966.87</ele>
        <time>2025-04-15T19:17:52.016Z</time>
      </trkpt>
      <trkpt lat="44.89014" lon="3.71846">
        <ele>966.34</ele>
        <time>2025-04-15T19:18:01.867Z</time>
      </trkpt>
      <trkpt lat="44.89029" lon="3.71853">
        <ele>965.9</ele>
        <time>2025-04-15T19:18:11.720Z</time>
      </trkpt>
      <trkpt lat="44.89048" lon="3.71853">
        <ele>965.56</ele>
        <time>2025-04-15T19:18:21.576Z</time>
      </trkpt>
      <trkpt lat="44.89067" lon="3.71853">
        <ele>965.3</ele>
        <time>2025-04-15T19:18:31.435Z</time>
      </trkpt>
      <trkpt lat="44.89085" lon="3.71859">
        <ele>965.02</ele>
        <time>2025-04-15T19:18:41.297Z</time>
      </trkpt>
      <trkpt lat="44.89102" lon="3.71866">
        <ele>964.77</ele>
        <time>2025-04-15T19:18:51.162Z</time>
      </trkpt>
      <trkpt lat="44.89117" lon="3.71894">
        <ele>964.52</ele>
        <time>2025-04-15T19:19:01.031Z</time>
      </trkpt>
      <trkpt lat="44.89119" lon="3.71911">
        <ele>964.36</ele>
        <time>2025-04-15T19:19:10.902Z</time>
      </trkpt>
      <trkpt lat="44.89115" lon="3.71926">
        <ele>964.21</ele>
        <time>2025-04-15T19:19:20.775Z</time>
      </trkpt>
      <trkpt lat="44.89104" lon="3.71955">
        <ele>964.1</ele>
        <time>2025-04-15T19:19:30.651Z</time>
      </trkpt>
      <trkpt lat="44.89093" lon="3.71985">
        <ele>964.05</ele>
        <time>2025-04-15T19:19:40.531Z</time>
      </trkpt>
      <trkpt lat="44.89082" lon="3.72014">
        <ele>964.18</ele>
        <time>2025-04-15T19:19:50.415Z</time>
      </trkpt>
      <trkpt lat="44.89059" lon="3.72042">
        <ele>964.34</ele>
        <time>2025-04-15T19:20:00.304Z</time>
      </trkpt>
      <trkpt lat="44.89029" lon="3.7205">
        <ele>964.32</ele>
        <time>2025-04-15T19:20:10.198Z</time>
      </trkpt>
      <trkpt lat="44.88999" lon="3.72057">
        <ele>964.34</ele>
        <time>2025-04-15T19:20:20.097Z</time>
      </trkpt>
      <trkpt lat="44.88969" lon="3.72065">
        <ele>964.39</ele>
        <time>2025-04-15T19:20:30.001Z</time>
      </trkpt>
      <trkpt lat="44.88944" lon="3.72082">
        <ele>964.57</ele>
        <time>2025-04-15T19:20:39.909Z</time>
      </trkpt>
      <trkpt lat="44.88919" lon="3.72099">
        <ele>964.83</ele>
        <time>2025-04-15T19:20:49.821Z</time>
      </trkpt>
      <trkpt lat="44.88894" lon="3.72116">
        <ele>965.09</ele>
        <time>2025-04-15T19:20:59.738Z</time>
      </trkpt>
      <trkpt lat="44.88869" lon="3.72132">
        <ele>965.39</ele>
        <time>2025-04-15T19:21:09.659Z</time>
      </trkpt>
      <trkpt lat="44.88844" lon="3.72149">
        <ele>965.67</ele>
        <time>2025-04-15T19:21:19.585Z</time>
      </trkpt>
      <trkpt lat="44.88827" lon="3.72175">
        <ele>965.87</ele>
        <time>2025-04-15T19:21:29.515Z</time>
      </trkpt>
      <trkpt lat="44.88825" lon="3.72203">
        <ele>966.22</ele>
        <time>2025-04-15T19:21:39.448Z</time>
      </trkpt>
      <trkpt lat="44.88836" lon="3.72233">
        <ele>966.69</ele>
        <time>2025-04-15T19:21:49.385Z</time>
      </trkpt>
      <trkpt lat="44.88846" lon="3.72263">
        <ele>967.16</ele>
        <time>2025-04-15T19:21:59.326Z</time>
      </trkpt>
      <trkpt lat="44.88851" lon="3.72299">
        <ele>967.6</ele>
        <time>2025-04-15T19:22:09.271Z</time>
      </trkpt>
      <trkpt lat="44.88842" lon="3.72327">
        <ele>968.02</ele>
        <time>2025-04-15T19:22:19.219Z</time>
      </trkpt>
      <trkpt lat="44.88827" lon="3.72344">
        <ele>968.51</ele>
        <time>2025-04-15T19:22:29.170Z</time>
      </trkpt>
      <trkpt lat="44.88808" lon="3.72343">
        <ele>969.04</ele>
        <time>2025-04-15T19:22:39.124Z</time>
      </trkpt>
      <trkpt lat="44.88788" lon="3.72342">
        <ele>969.7</ele>
        <time>2025-04-15T19:22:49.081Z</time>
      </trkpt>
      <trkpt lat="44.88769" lon="3.7233">
        <ele>970.21</ele>
        <time>2025-04-15T19:22:59.042Z</time>
      </trkpt>
      <trkpt lat="44.8875" lon="3.72318">
        <ele>970.74</ele>
        <time>2025-04-15T19:23:09.006Z</time>
      </trkpt>
      <trkpt lat="44.8873" lon="3.72306">
        <ele>971.29</ele>
        <time>2025-04-15T19:23:18.974Z</time>
      </trkpt>
      <trkpt lat="44.88712" lon="3.72301">
        <ele>971.86</ele>
        <time>2025-04-15T19:23:28.945Z</time>
      </trkpt>
      <trkpt lat="44.88694" lon="3.72297">
        <ele>972.44</ele>
        <time>2025-04-15T19:23:38.919Z</time>
      </trkpt>
      <trkpt lat="44.88675" lon="3.72306">
        <ele>973.11</ele>
        <time>2025-04-15T19:23:48.896Z</time>
      </trkpt>
      <trkpt lat="44.88655" lon="3.72314">
        <ele>973.71</ele>
        <time>2025-04-15T19:23:58.876Z</time>
      </trkpt>
      <trkpt lat="44.88639" lon="3.72331">
        <ele>974.28</ele>
        <time>2025-04-15T19:24:08.859Z</time>
      </trkpt>
      <trkpt lat="44.88623" lon="3.72349">
        <ele>974.79</ele>
        <time>2025-04-15T19:24:18.845Z</time>
      </trkpt>
      <trkpt lat="44.88619" lon="3.72379">
        <ele>975.34</ele>
        <time>2025-04-15T19:24:28.835Z</time>
      </trkpt>
      <trkpt lat="44.88631" lon="3.72412">
        <ele>976.15</ele>
        <time>2025-04-15T19:24:38.829Z</time>
      </trkpt>
      <trkpt lat="44.88643" lon="3.72445">
        <ele>977.02</ele>
        <time>2025-04-15T19:24:48.827Z</time>
      </trkpt>
      <trkpt lat="44.88638" lon="3.72488">
        <ele>977.71</ele>
        <time>2025-04-15T19:24:58.830Z</time>
      </trkpt>
      <trkpt lat="44.88627" lon="3.72506">
        <ele>978.26</ele>
        <time>2025-04-15T19:25:08.836Z</time>
      </trkpt>
      <trkpt lat="44.88617" lon="3.72525">
        <ele>978.8</ele>
        <time>2025-04-15T19:25:18.845Z</time>
      </trkpt>
      <trkpt lat="44.8861" lon="3.72552">
        <ele>979.47</ele>
        <time>2025-04-15T19:25:28.857Z</time>
      </trkpt>
      <trkpt lat="44.88612" lon="3.72591">
        <ele>980.3</ele>
        <time>2025-04-15T19:25:38.873Z</time>
      </trkpt>
      <trkpt lat="44.88613" lon="3.7263">
        <ele>980.97</ele>
        <time>2025-04-15T19:25:48.894Z</time>
      </trkpt>
      <trkpt lat="44.88615" lon="3.72668">
        <ele>981.64</ele>
        <time>2025-04-15T19:25:58.919Z</time>
      </trkpt>
      <trkpt lat="44.88609" lon="3.72705">
        <ele>982.29</ele>
        <time>2025-04-15T19:26:08.949Z</time>
      </trkpt>
      <trkpt lat="44.88604" lon="3.72741">
        <ele>982.98</ele>
        <time>2025-04-15T19:26:18.983Z</time>
      </trkpt>
      <trkpt lat="44.88598" lon="3.72778">
        <ele>983.67</ele>
        <time>2025-04-15T19:26:29.021Z</time>
      </trkpt>
      <trkpt lat="44.88593" lon="3.72814">
        <ele>984.39</ele>
        <time>2025-04-15T19:26:39.063Z</time>
      </trkpt>
      <trkpt lat="44.88574" lon="3.72847">
        <ele>985.05</ele>
        <time>2025-04-15T19:26:49.110Z</time>
      </trkpt>
      <trkpt lat="44.88554" lon="3.7288">
        <ele>985.65</ele>
        <time>2025-04-15T19:26:59.162Z</time>
      </trkpt>
      <trkpt lat="44.88535" lon="3.72913">
        <ele>986.14</ele>
        <time>2025-04-15T19:27:09.219Z</time>
      </trkpt>
      <trkpt lat="44.88516" lon="3.72947">
        <ele>986.7</ele>
        <time>2025-04-15T19:27:19.281Z</time>
      </trkpt>
      <trkpt lat="44.88497" lon="3.72979">
        <ele>987.37</ele>
        <time>2025-04-15T19:27:29.348Z</time>
      </trkpt>
      <trkpt lat="44.88477" lon="3.72992">
        <ele>987.83</ele>
        <time>2025-04-15T19:27:39.418Z</time>
      </trkpt>
      <trkpt lat="44.88458" lon="3.73005">
        <ele>988.24</ele>
        <time>2025-04-15T19:27:49.491Z</time>
      </trkpt>
      <trkpt lat="44.88434" lon="3.73008">
        <ele>988.71</ele>
        <time>2025-04-15T19:27:59.568Z</time>
      </trkpt>
      <trkpt lat="44.88411" lon="3.73011">
        <ele>989.19</ele>
        <time>2025-04-15T19:28:09.649Z</time>
      </trkpt>
      <trkpt lat="44.88387" lon="3.73014">
        <ele>989.59</ele>
        <time>2025-04-15T19:28:19.734Z</time>
      </trkpt>
      <trkpt lat="44.8836" lon="3.73011">
        <ele>989.8</ele>
        <time>2025-04-15T19:28:29.823Z</time>
      </trkpt>
      <trkpt lat="44.88333" lon="3.73008">
        <ele>990.01</ele>
        <time>2025-04-15T19:28:39.916Z</time>
      </trkpt>
      <trkpt lat="44.88306" lon="3.73005">
        <ele>990.11</ele>
        <time>2025-04-15T19:28:50.014Z</time>
      </trkpt>
      <trkpt lat="44.88278" lon="3.73007">
        <ele>990.14</ele>
        <time>2025-04-15T19:29:00.116Z</time>
      </trkpt>
      <trkpt lat="44.8825" lon="3.73009">
        <ele>990.04</ele>
        <time>2025-04-15T19:29:10.223Z</time>
      </trkpt>
      <trkpt lat="44.88233" lon="3.73027">
        <ele>989.98</ele>
        <time>2025-04-15T19:29:20.333Z</time>
      </trkpt>
      <trkpt lat="44.88226" lon="3.73049">
        <ele>990</ele>
        <time>2025-04-15T19:29:30.446Z</time>
      </trkpt>
      <trkpt lat="44.8822" lon="3.73072">
        <ele>989.98</ele>
        <time>2025-04-15T19:29:40.562Z</time>
      </trkpt>
      <trkpt lat="44.88205" lon="3.73104">
        <ele>989.85</ele>
        <time>2025-04-15T19:29:50.682Z</time>
      </trkpt>
      <trkpt lat="44.8819" lon="3.73136">
        <ele>989.86</ele>
        <time>2025-04-15T19:30:00.806Z</time>
      </trkpt>
      <trkpt lat="44.88175" lon="3.73168">
        <ele>989.73</ele>
        <time>2025-04-15T19:30:10.935Z</time>
      </trkpt>
      <trkpt lat="44.8816" lon="3.73201">
        <ele>989.43</ele>
        <time>2025-04-15T19:30:21.068Z</time>
      </trkpt>
      <trkpt lat="44.88145" lon="3.73233">
        <ele>989.24</ele>
        <time>2025-04-15T19:30:31.206Z</time>
      </trkpt>
      <trkpt lat="44.8814" lon="3.73268">
        <ele>989.13</ele>
        <time>2025-04-15T19:30:41.348Z</time>
      </trkpt>
      <trkpt lat="44.88136" lon="3.73303">
        <ele>988.98</ele>
        <time>2025-04-15T19:30:51.494Z</time>
      </trkpt>
      <trkpt lat="44.88117" lon="3.73327">
        <ele>988.82</ele>
        <time>2025-04-15T19:31:01.644Z</time>
      </trkpt>
      <trkpt lat="44.88093" lon="3.73325">
        <ele>988.58</ele>
        <time>2025-04-15T19:31:11.798Z</time>
      </trkpt>
      <trkpt lat="44.8808" lon="3.73309">
        <ele>988.1</ele>
        <time>2025-04-15T19:31:21.954Z</time>
      </trkpt>
      <trkpt lat="44.88067" lon="3.73293">
        <ele>987.58</ele>
        <time>2025-04-15T19:31:32.113Z</time>
      </trkpt>
      <trkpt lat="44.8805" lon="3.73265">
        <ele>987.05</ele>
        <time>2025-04-15T19:31:42.276Z</time>
      </trkpt>
      <trkpt lat="44.88033" lon="3.73237">
        <ele>986.5</ele>
        <time>2025-04-15T19:31:52.444Z</time>
      </trkpt>
      <trkpt lat="44.88016" lon="3.73209">
        <ele>985.86</ele>
        <time>2025-04-15T19:32:02.616Z</time>
      </trkpt>
      <trkpt lat="44.87997" lon="3.73207">
        <ele>985.34</ele>
        <time>2025-04-15T19:32:12.791Z</time>
      </trkpt>
      <trkpt lat="44.87973" lon="3.73218">
        <ele>984.85</ele>
        <time>2025-04-15T19:32:22.970Z</time>
      </trkpt>
      <trkpt lat="44.87949" lon="3.73224">
        <ele>984.24</ele>
        <time>2025-04-15T19:32:33.153Z</time>
      </trkpt>
      <trkpt lat="44.87919" lon="3.73223">
        <ele>983.63</ele>
        <time>2025-04-15T19:32:43.340Z</time>
      </trkpt>
      <trkpt lat="44.87889" lon="3.73222">
        <ele>983.02</ele>
        <time>2025-04-15T19:32:53.532Z</time>
      </trkpt>
      <trkpt lat="44.87879" lon="3.73226">
        <ele>982.44</ele>
        <time>2025-04-15T19:33:03.726Z</time>
      </trkpt>
      <trkpt lat="44.87872" lon="3.73231">
        <ele>981.88</ele>
        <time>2025-04-15T19:33:13.921Z</time>
      </trkpt>
      <trkpt lat="44.87868" lon="3.73246">
        <ele>981.33</ele>
        <time>2025-04-15T19:33:24.118Z</time>
      </trkpt>
      <trkpt lat="44.87868" lon="3.73263">
        <ele>980.83</ele>
        <time>2025-04-15T19:33:34.317Z</time>
      </trkpt>
      <trkpt lat="44.87873" lon="3.73288">
        <ele>980.35</ele>
        <time>2025-04-15T19:33:44.519Z</time>
      </trkpt>
      <trkpt lat="44.87879" lon="3.73314">
        <ele>979.87</ele>
        <time>2025-04-15T19:33:54.724Z</time>
      </trkpt>
      <trkpt lat="44.87886" lon="3.73335">
        <ele>979.36</ele>
        <time>2025-04-15T19:34:04.932Z</time>
      </trkpt>
      <trkpt lat="44.87894" lon="3.73355">
        <ele>978.92</ele>
        <time>2025-04-15T19:34:15.142Z</time>
      </trkpt>
      <trkpt lat="44.87896" lon="3.73395">
        <ele>978.46</ele>
        <time>2025-04-15T19:34:25.357Z</time>
      </trkpt>
      <trkpt lat="44.87898" lon="3.73434">
        <ele>978.08</ele>
        <time>2025-04-15T19:34:35.576Z</time>
      </trkpt>
      <trkpt lat="44.87891" lon="3.73458">
        <ele>977.7</ele>
        <time>2025-04-15T19:34:45.798Z</time>
      </trkpt>
      <trkpt lat="44.87885" lon="3.73482">
        <ele>977.39</ele>
        <time>2025-04-15T19:34:56.023Z</time>
      </trkpt>
      <trkpt lat="44.87868" lon="3.73502">
        <ele>976.98</ele>
        <time>2025-04-15T19:35:06.252Z</time>
      </trkpt>
      <trkpt lat="44.87851" lon="3.73522">
        <ele>976.54</ele>
        <time>2025-04-15T19:35:16.484Z</time>
      </trkpt>
      <trkpt lat="44.87842" lon="3.73547">
        <ele>976.28</ele>
        <time>2025-04-15T19:35:26.719Z</time>
      </trkpt>
      <trkpt lat="44.87834" lon="3.73572">
        <ele>976.11</ele>
        <time>2025-04-15T19:35:36.958Z</time>
      </trkpt>
      <trkpt lat="44.87826" lon="3.73604">
        <ele>976.13</ele>
        <time>2025-04-15T19:35:47.200Z</time>
      </trkpt>
      <trkpt lat="44.87819" lon="3.73636">
        <ele>976.12</ele>
        <time>2025-04-15T19:35:57.446Z</time>
      </trkpt>
      <trkpt lat="44.8781" lon="3.73659">
        <ele>975.99</ele>
        <time>2025-04-15T19:36:07.695Z</time>
      </trkpt>
      <trkpt lat="44.87801" lon="3.73681">
        <ele>975.89</ele>
        <time>2025-04-15T19:36:17.947Z</time>
      </trkpt>
      <trkpt lat="44.878" lon="3.73714">
        <ele>975.99</ele>
        <time>2025-04-15T19:36:28.203Z</time>
      </trkpt>
      <trkpt lat="44.87799" lon="3.73748">
        <ele>976.06</ele>
        <time>2025-04-15T19:36:38.463Z</time>
      </trkpt>
      <trkpt lat="44.87812" lon="3.73773">
        <ele>976.37</ele>
        <time>2025-04-15T19:36:48.726Z</time>
      </trkpt>
      <trkpt lat="44.87831" lon="3.73801">
        <ele>976.7</ele>
        <time>2025-04-15T19:36:58.994Z</time>
      </trkpt>
      <trkpt lat="44.87851" lon="3.73828">
        <ele>977.02</ele>
        <time>2025-04-15T19:37:09.266Z</time>
      </trkpt>
      <trkpt lat="44.8787" lon="3.73855">
        <ele>977.33</ele>
        <time>2025-04-15T19:37:19.542Z</time>
      </trkpt>
      <trkpt lat="44.87874" lon="3.73885">
        <ele>977.46</ele>
        <time>2025-04-15T19:37:29.822Z</time>
      </trkpt>
      <trkpt lat="44.87866" lon="3.73911">
        <ele>977.67</ele>
        <time>2025-04-15T19:37:40.105Z</time>
      </trkpt>
      <trkpt lat="44.87842" lon="3.73917">
        <ele>977.97</ele>
        <time>2025-04-15T19:37:50.392Z</time>
      </trkpt>
      <trkpt lat="44.87815" lon="3.73907">
        <ele>978.31</ele>
        <time>2025-04-15T19:38:00.683Z</time>
      </trkpt>
      <trkpt lat="44.87789" lon="3.73897">
        <ele>978.62</ele>
        <time>2025-04-15T19:38:10.979Z</time>
      </trkpt>
      <trkpt lat="44.87762" lon="3.73887">
        <ele>978.99</ele>
        <time>2025-04-15T19:38:21.279Z</time>
      </trkpt>
      <trkpt lat="44.87735" lon="3.73876">
        <ele>979.44</ele>
        <time>2025-04-15T19:38:31.584Z</time>
      </trkpt>
      <trkpt lat="44.87707" lon="3.7387">
        <ele>980.07</ele>
        <time>2025-04-15T19:38:41.893Z</time>
      </trkpt>
      <trkpt lat="44.87679" lon="3.73864">
        <ele>980.74</ele>
        <time>2025-04-15T19:38:52.207Z</time>
      </trkpt>
      <trkpt lat="44.87661" lon="3.73841">
        <ele>981.3</ele>
        <time>2025-04-15T19:39:02.525Z</time>
      </trkpt>
      <trkpt lat="44.87643" lon="3.73818">
        <ele>981.93</ele>
        <time>2025-04-15T19:39:12.847Z</time>
      </trkpt>
      <trkpt lat="44.87625" lon="3.73795">
        <ele>982.47</ele>
        <time>2025-04-15T19:39:23.172Z</time>
      </trkpt>
      <trkpt lat="44.87603" lon="3.73777">
        <ele>983.05</ele>
        <time>2025-04-15T19:39:33.501Z</time>
      </trkpt>
      <trkpt lat="44.87581" lon="3.73759">
        <ele>983.65</ele>
        <time>2025-04-15T19:39:43.835Z</time>
      </trkpt>
      <trkpt lat="44.87559" lon="3.73741">
        <ele>984.33</ele>
        <time>2025-04-15T19:39:54.173Z</time>
      </trkpt>
      <trkpt lat="44.87539" lon="3.73717">
        <ele>985</ele>
        <time>2025-04-15T19:40:04.515Z</time>
      </trkpt>
      <trkpt lat="44.87519" lon="3.73693">
        <ele>985.7</ele>
        <time>2025-04-15T19:40:14.861Z</time>
      </trkpt>
      <trkpt lat="44.87499" lon="3.73668">
        <ele>986.37</ele>
        <time>2025-04-15T19:40:25.211Z</time>
      </trkpt>
      <trkpt lat="44.87478" lon="3.73637">
        <ele>987.13</ele>
        <time>2025-04-15T19:40:35.566Z</time>
      </trkpt>
      <trkpt lat="44.87457" lon="3.73605">
        <ele>987.96</ele>
        <time>2025-04-15T19:40:45.926Z</time>
      </trkpt>
      <trkpt lat="44.87436" lon="3.73573">
        <ele>988.73</ele>
        <time>2025-04-15T19:40:56.291Z</time>
      </trkpt>
      <trkpt lat="44.87415" lon="3.73542">
        <ele>989.56</ele>
        <time>2025-04-15T19:41:06.661Z</time>
      </trkpt>
      <trkpt lat="44.87389" lon="3.73524">
        <ele>990.49</ele>
        <time>2025-04-15T19:41:17.036Z</time>
      </trkpt>
      <trkpt lat="44.87373" lon="3.73521">
        <ele>991.41</ele>
        <time>2025-04-15T19:41:27.413Z</time>
      </trkpt>
      <trkpt lat="44.87357" lon="3.73518">
        <ele>992.36</ele>
        <time>2025-04-15T19:41:37.793Z</time>
      </trkpt>
      <trkpt lat="44.87344" lon="3.73527">
        <ele>993.37</ele>
        <time>2025-04-15T19:41:48.175Z</time>
      </trkpt>
      <trkpt lat="44.87338" lon="3.73533">
        <ele>994.43</ele>
        <time>2025-04-15T19:41:58.558Z</time>
      </trkpt>
      <trkpt lat="44.87316" lon="3.73565">
        <ele>995.55</ele>
        <time>2025-04-15T19:42:08.946Z</time>
      </trkpt>
      <trkpt lat="44.87312" lon="3.73602">
        <ele>996.78</ele>
        <time>2025-04-15T19:42:19.339Z</time>
      </trkpt>
      <trkpt lat="44.87318" lon="3.73634">
        <ele>998.05</ele>
        <time>2025-04-15T19:42:29.735Z</time>
      </trkpt>
      <trkpt lat="44.87324" lon="3.73666">
        <ele>999.32</ele>
        <time>2025-04-15T19:42:40.135Z</time>
      </trkpt>
      <trkpt lat="44.8733" lon="3.73699">
        <ele>1000.64</ele>
        <time>2025-04-15T19:42:50.539Z</time>
      </trkpt>
      <trkpt lat="44.87336" lon="3.7373">
        <ele>1002.06</ele>
        <time>2025-04-15T19:43:00.947Z</time>
      </trkpt>
      <trkpt lat="44.87335" lon="3.73761">
        <ele>1003.53</ele>
        <time>2025-04-15T19:43:11.358Z</time>
      </trkpt>
      <trkpt lat="44.87334" lon="3.73791">
        <ele>1005.09</ele>
        <time>2025-04-15T19:43:21.773Z</time>
      </trkpt>
      <trkpt lat="44.87332" lon="3.73829">
        <ele>1006.62</ele>
        <time>2025-04-15T19:43:32.192Z</time>
      </trkpt>
      <trkpt lat="44.87331" lon="3.73868">
        <ele>1008.2</ele>
        <time>2025-04-15T19:43:42.615Z</time>
      </trkpt>
      <trkpt lat="44.87329" lon="3.73906">
        <ele>1009.79</ele>
        <time>2025-04-15T19:43:53.043Z</time>
      </trkpt>
      <trkpt lat="44.87329" lon="3.73936">
        <ele>1011.39</ele>
        <time>2025-04-15T19:44:03.474Z</time>
      </trkpt>
      <trkpt lat="44.87336" lon="3.73964">
        <ele>1013.04</ele>
        <time>2025-04-15T19:44:13.909Z</time>
      </trkpt>
      <trkpt lat="44.87346" lon="3.73982">
        <ele>1014.76</ele>
        <time>2025-04-15T19:44:24.346Z</time>
      </trkpt>
      <trkpt lat="44.87357" lon="3.73999">
        <ele>1016.59</ele>
        <time>2025-04-15T19:44:34.786Z</time>
      </trkpt>
      <trkpt lat="44.87364" lon="3.74022">
        <ele>1018.39</ele>
        <time>2025-04-15T19:44:45.229Z</time>
      </trkpt>
      <trkpt lat="44.87365" lon="3.74046">
        <ele>1020.19</ele>
        <time>2025-04-15T19:44:55.674Z</time>
      </trkpt>
      <trkpt lat="44.87366" lon="3.7407">
        <ele>1022</ele>
        <time>2025-04-15T19:45:06.122Z</time>
      </trkpt>
      <trkpt lat="44.87372" lon="3.741">
        <ele>1023.86</ele>
        <time>2025-04-15T19:45:16.574Z</time>
      </trkpt>
      <trkpt lat="44.87384" lon="3.7413">
        <ele>1025.78</ele>
        <time>2025-04-15T19:45:27.029Z</time>
      </trkpt>
      <trkpt lat="44.87396" lon="3.7416">
        <ele>1027.77</ele>
        <time>2025-04-15T19:45:37.488Z</time>
      </trkpt>
      <trkpt lat="44.87394" lon="3.7419">
        <ele>1029.75</ele>
        <time>2025-04-15T19:45:47.951Z</time>
      </trkpt>
      <trkpt lat="44.87383" lon="3.74213">
        <ele>1031.69</ele>
        <time>2025-04-15T19:45:58.417Z</time>
      </trkpt>
      <trkpt lat="44.87367" lon="3.7423">
        <ele>1033.68</ele>
        <time>2025-04-15T19:46:08.886Z</time>
      </trkpt>
      <trkpt lat="44.87351" lon="3.74248">
        <ele>1035.71</ele>
        <time>2025-04-15T19:46:19.358Z</time>
      </trkpt>
      <trkpt lat="44.87331" lon="3.74252">
        <ele>1037.71</ele>
        <time>2025-04-15T19:46:29.834Z</time>
      </trkpt>
      <trkpt lat="44.8731" lon="3.7424">
        <ele>1039.63</ele>
        <time>2025-04-15T19:46:40.313Z</time>
      </trkpt>
      <trkpt lat="44.87289" lon="3.74229">
        <ele>1041.57</ele>
        <time>2025-04-15T19:46:50.796Z</time>
      </trkpt>
      <trkpt lat="44.87267" lon="3.74218">
        <ele>1043.51</ele>
        <time>2025-04-15T19:47:01.283Z</time>
      </trkpt>
      <trkpt lat="44.87236" lon="3.74218">
        <ele>1045.59</ele>
        <time>2025-04-15T19:47:11.775Z</time>
      </trkpt>
      <trkpt lat="44.87206" lon="3.74218">
        <ele>1047.68</ele>
        <time>2025-04-15T19:47:22.271Z</time>
      </trkpt>
      <trkpt lat="44.87175" lon="3.74218">
        <ele>1049.78</ele>
        <time>2025-04-15T19:47:32.772Z</time>
      </trkpt>
      <trkpt lat="44.87157" lon="3.74208">
        <ele>1051.71</ele>
        <time>2025-04-15T19:47:43.276Z</time>
      </trkpt>
      <trkpt lat="44.87138" lon="3.74198">
        <ele>1053.59</ele>
        <time>2025-04-15T19:47:53.784Z</time>
      </trkpt>
      <trkpt lat="44.87119" lon="3.74209">
        <ele>1055.5</ele>
        <time>2025-04-15T19:48:04.295Z</time>
      </trkpt>
      <trkpt lat="44.87117" lon="3.74239">
        <ele>1057.4</ele>
        <time>2025-04-15T19:48:14.809Z</time>
      </trkpt>
      <trkpt lat="44.87137" lon="3.7427">
        <ele>1059.26</ele>
        <time>2025-04-15T19:48:25.328Z</time>
      </trkpt>
      <trkpt lat="44.87157" lon="3.74301">
        <ele>1061.05</ele>
        <time>2025-04-15T19:48:35.852Z</time>
      </trkpt>
      <trkpt lat="44.87177" lon="3.74331">
        <ele>1062.76</ele>
        <time>2025-04-15T19:48:46.381Z</time>
      </trkpt>
      <trkpt lat="44.87191" lon="3.74365">
        <ele>1064.43</ele>
        <time>2025-04-15T19:48:56.914Z</time>
      </trkpt>
      <trkpt lat="44.87204" lon="3.74398">
        <ele>1066.16</ele>
        <time>2025-04-15T19:49:07.451Z</time>
      </trkpt>
      <trkpt lat="44.87218" lon="3.74432">
        <ele>1067.78</ele>
        <time>2025-04-15T19:49:17.993Z</time>
      </trkpt>
      <trkpt lat="44.87232" lon="3.74465">
        <ele>1069.41</ele>
        <time>2025-04-15T19:49:28.539Z</time>
      </trkpt>
      <trkpt lat="44.87246" lon="3.74499">
        <ele>1070.97</ele>
        <time>2025-04-15T19:49:39.090Z</time>
      </trkpt>
      <trkpt lat="44.87267" lon="3.74518">
        <ele>1072.39</ele>
        <time>2025-04-15T19:49:49.645Z</time>
      </trkpt>
      <trkpt lat="44.87289" lon="3.74537">
        <ele>1073.81</ele>
        <time>2025-04-15T19:50:00.204Z</time>
      </trkpt>
      <trkpt lat="44.8731" lon="3.74557">
        <ele>1075.17</ele>
        <time>2025-04-15T19:50:10.767Z</time>
      </trkpt>
      <trkpt lat="44.87331" lon="3.74576">
        <ele>1076.56</ele>
        <time>2025-04-15T19:50:21.334Z</time>
      </trkpt>
      <trkpt lat="44.87348" lon="3.74584">
        <ele>1077.87</ele>
        <time>2025-04-15T19:50:31.904Z</time>
      </trkpt>
      <trkpt lat="44.87364" lon="3.74593">
        <ele>1079.15</ele>
        <time>2025-04-15T19:50:42.476Z</time>
      </trkpt>
      <trkpt lat="44.87372" lon="3.74617">
        <ele>1080.44</ele>
        <time>2025-04-15T19:50:53.051Z</time>
      </trkpt>
      <trkpt lat="44.87368" lon="3.74636">
        <ele>1081.68</ele>
        <time>2025-04-15T19:51:03.629Z</time>
      </trkpt>
      <trkpt lat="44.87355" lon="3.74653">
        <ele>1082.86</ele>
        <time>2025-04-15T19:51:14.210Z</time>
      </trkpt>
      <trkpt lat="44.87328" lon="3.74661">
        <ele>1083.95</ele>
        <time>2025-04-15T19:51:24.795Z</time>
      </trkpt>
      <trkpt lat="44.87301" lon="3.7467">
        <ele>1085.07</ele>
        <time>2025-04-15T19:51:35.384Z</time>
      </trkpt>
      <trkpt lat="44.87274" lon="3.74678">
        <ele>1086.16</ele>
        <time>2025-04-15T19:51:45.978Z</time>
      </trkpt>
      <trkpt lat="44.87247" lon="3.74686">
        <ele>1087.2</ele>
        <time>2025-04-15T19:51:56.576Z</time>
      </trkpt>
      <trkpt lat="44.8722" lon="3.74694">
        <ele>1088.22</ele>
        <time>2025-04-15T19:52:07.179Z</time>
      </trkpt>
      <trkpt lat="44.87193" lon="3.74703">
        <ele>1089.25</ele>
        <time>2025-04-15T19:52:17.786Z</time>
      </trkpt>
      <trkpt lat="44.87166" lon="3.74711">
        <ele>1090.2</ele>
        <time>2025-04-15T19:52:28.397Z</time>
      </trkpt>
      <trkpt lat="44.87147" lon="3.74732">
        <ele>1091.07</ele>
        <time>2025-04-15T19:52:39.012Z</time>
      </trkpt>
      <trkpt lat="44.87128" lon="3.74753">
        <ele>1091.89</ele>
        <time>2025-04-15T19:52:49.631Z</time>
      </trkpt>
      <trkpt lat="44.87108" lon="3.74773">
        <ele>1092.62</ele>
        <time>2025-04-15T19:53:00.254Z</time>
      </trkpt>
      <trkpt lat="44.87095" lon="3.748">
        <ele>1093.33</ele>
        <time>2025-04-15T19:53:10.881Z</time>
      </trkpt>
      <trkpt lat="44.87083" lon="3.74827">
        <ele>1093.97</ele>
        <time>2025-04-15T19:53:21.512Z</time>
      </trkpt>
      <trkpt lat="44.87074" lon="3.74855">
        <ele>1094.66</ele>
        <time>2025-04-15T19:53:32.146Z</time>
      </trkpt>
      <trkpt lat="44.87065" lon="3.74883">
        <ele>1095.31</ele>
        <time>2025-04-15T19:53:42.783Z</time>
      </trkpt>
      <trkpt lat="44.8706" lon="3.74916">
        <ele>1095.86</ele>
        <time>2025-04-15T19:53:53.424Z</time>
      </trkpt>
      <trkpt lat="44.87054" lon="3.7495">
        <ele>1096.38</ele>
        <time>2025-04-15T19:54:04.069Z</time>
      </trkpt>
      <trkpt lat="44.87048" lon="3.74984">
        <ele>1097.01</ele>
        <time>2025-04-15T19:54:14.718Z</time>
      </trkpt>
      <trkpt lat="44.87047" lon="3.75014">
        <ele>1097.66</ele>
        <time>2025-04-15T19:54:25.371Z</time>
      </trkpt>
      <trkpt lat="44.87045" lon="3.75045">
        <ele>1098.29</ele>
        <time>2025-04-15T19:54:36.027Z</time>
      </trkpt>
      <trkpt lat="44.87044" lon="3.75076">
        <ele>1098.91</ele>
        <time>2025-04-15T19:54:46.687Z</time>
      </trkpt>
      <trkpt lat="44.8704" lon="3.75109">
        <ele>1099.52</ele>
        <time>2025-04-15T19:54:57.351Z</time>
      </trkpt>
      <trkpt lat="44.87035" lon="3.75141">
        <ele>1100.17</ele>
        <time>2025-04-15T19:55:08.018Z</time>
      </trkpt>
      <trkpt lat="44.87031" lon="3.75174">
        <ele>1100.78</ele>
        <time>2025-04-15T19:55:18.689Z</time>
      </trkpt>
      <trkpt lat="44.87027" lon="3.75207">
        <ele>1101.37</ele>
        <time>2025-04-15T19:55:29.364Z</time>
      </trkpt>
      <trkpt lat="44.87025" lon="3.75233">
        <ele>1101.97</ele>
        <time>2025-04-15T19:55:40.042Z</time>
      </trkpt>
      <trkpt lat="44.87022" lon="3.75258">
        <ele>1102.54</ele>
        <time>2025-04-15T19:55:50.723Z</time>
      </trkpt>
      <trkpt lat="44.87018" lon="3.75275">
        <ele>1103.1</ele>
        <time>2025-04-15T19:56:01.406Z</time>
      </trkpt>
      <trkpt lat="44.86999" lon="3.75299">
        <ele>1103.64</ele>
        <time>2025-04-15T19:56:12.093Z</time>
      </trkpt>
      <trkpt lat="44.86977" lon="3.75316">
        <ele>1104.3</ele>
        <time>2025-04-15T19:56:22.784Z</time>
      </trkpt>
      <trkpt lat="44.86969" lon="3.75318">
        <ele>1104.95</ele>
        <time>2025-04-15T19:56:33.476Z</time>
      </trkpt>
      <trkpt lat="44.86954" lon="3.7531">
        <ele>1105.58</ele>
        <time>2025-04-15T19:56:44.171Z</time>
      </trkpt>
      <trkpt lat="44.8694" lon="3.7529">
        <ele>1106.2</ele>
        <time>2025-04-15T19:56:54.869Z</time>
      </trkpt>
      <trkpt lat="44.86926" lon="3.75271">
        <ele>1106.83</ele>
        <time>2025-04-15T19:57:05.570Z</time>
      </trkpt>
      <trkpt lat="44.86906" lon="3.75254">
        <ele>1107.54</ele>
        <time>2025-04-15T19:57:16.275Z</time>
      </trkpt>
      <trkpt lat="44.86886" lon="3.75237">
        <ele>1108.19</ele>
        <time>2025-04-15T19:57:26.984Z</time>
      </trkpt>
      <trkpt lat="44.86866" lon="3.7522">
        <ele>1108.79</ele>
        <time>2025-04-15T19:57:37.696Z</time>
      </trkpt>
      <trkpt lat="44.86849" lon="3.75217">
        <ele>1109.38</ele>
        <time>2025-04-15T19:57:48.411Z</time>
      </trkpt>
      <trkpt lat="44.86834" lon="3.75222">
        <ele>1109.9</ele>
        <time>2025-04-15T19:57:59.129Z</time>
      </trkpt>
      <trkpt lat="44.86829" lon="3.75222">
        <ele>1110.38</ele>
        <time>2025-04-15T19:58:09.847Z</time>
      </trkpt>
      <trkpt lat="44.86807" lon="3.75249">
        <ele>1110.85</ele>
        <time>2025-04-15T19:58:20.570Z</time>
      </trkpt>
      <trkpt lat="44.86784" lon="3.75275">
        <ele>1111.23</ele>
        <time>2025-04-15T19:58:31.298Z</time>
      </trkpt>
      <trkpt lat="44.86761" lon="3.75303">
        <ele>1111.6</ele>
        <time>2025-04-15T19:58:42.031Z</time>
      </trkpt>
      <trkpt lat="44.86738" lon="3.75331">
        <ele>1111.93</ele>
        <time>2025-04-15T19:58:52.768Z</time>
      </trkpt>
      <trkpt lat="44.86716" lon="3.75359">
        <ele>1112.22</ele>
        <time>2025-04-15T19:59:03.510Z</time>
      </trkpt>
      <trkpt lat="44.86693" lon="3.75387">
        <ele>1112.4</ele>
        <time>2025-04-15T19:59:14.257Z</time>
      </trkpt>
      <trkpt lat="44.8667" lon="3.75415">
        <ele>1112.51</ele>
        <time>2025-04-15T19:59:25.009Z</time>
      </trkpt>
      <trkpt lat="44.86647" lon="3.75443">
        <ele>1112.63</ele>
        <time>2025-04-15T19:59:35.766Z</time>
      </trkpt>
      <trkpt lat="44.86627" lon="3.75467">
        <ele>1112.7</ele>
        <time>2025-04-15T19:59:46.527Z</time>
      </trkpt>
      <trkpt lat="44.86606" lon="3.75492">
        <ele>1112.62</ele>
        <time>2025-04-15T19:59:57.292Z</time>
      </trkpt>
      <trkpt lat="44.86587" lon="3.75511">
        <ele>1112.39</ele>
        <time>2025-04-15T20:00:08.061Z</time>
      </trkpt>
      <trkpt lat="44.86568" lon="3.75531">
        <ele>1112.12</ele>
        <time>2025-04-15T20:00:18.834Z</time>
      </trkpt>
      <trkpt lat="44.86542" lon="3.75553">
        <ele>1111.77</ele>
        <time>2025-04-15T20:00:29.612Z</time>
      </trkpt>
      <trkpt lat="44.86516" lon="3.75575">
        <ele>1111.32</ele>
        <time>2025-04-15T20:00:40.395Z</time>
      </trkpt>
      <trkpt lat="44.8649" lon="3.75597">
        <ele>1110.72</ele>
        <time>2025-04-15T20:00:51.183Z</time>
      </trkpt>
      <trkpt lat="44.86465" lon="3.75619">
        <ele>1109.98</ele>
        <time>2025-04-15T20:01:01.975Z</time>
      </trkpt>
      <trkpt lat="44.86439" lon="3.75641">
        <ele>1109.17</ele>
        <time>2025-04-15T20:01:12.772Z</time>
      </trkpt>
      <trkpt lat="44.86413" lon="3.75663">
        <ele>1108.32</ele>
        <time>2025-04-15T20:01:23.574Z</time>
      </trkpt>
      <trkpt lat="44.86387" lon="3.75685">
        <ele>1107.38</ele>
        <time>2025-04-15T20:01:34.381Z</time>
      </trkpt>
      <trkpt lat="44.86366" lon="3.75698">
        <ele>1106.37</ele>
        <time>2025-04-15T20:01:45.192Z</time>
      </trkpt>
      <trkpt lat="44.86337" lon="3.75695">
        <ele>1105.22</ele>
        <time>2025-04-15T20:01:56.007Z</time>
      </trkpt>
      <trkpt lat="44.86308" lon="3.75692">
        <ele>1103.92</ele>
        <time>2025-04-15T20:02:06.827Z</time>
      </trkpt>
      <trkpt lat="44.86295" lon="3.75694">
        <ele>1102.57</ele>
        <time>2025-04-15T20:02:17.649Z</time>
      </trkpt>
      <trkpt lat="44.86267" lon="3.7571">
        <ele>1101.11</ele>
        <time>2025-04-15T20:02:28.476Z</time>
      </trkpt>
      <trkpt lat="44.86239" lon="3.75725">
        <ele>1099.52</ele>
        <time>2025-04-15T20:02:39.308Z</time>
      </trkpt>
      <trkpt lat="44.86211" lon="3.75741">
        <ele>1097.84</ele>
        <time>2025-04-15T20:02:50.144Z</time>
      </trkpt>
      <trkpt lat="44.86198" lon="3.75754">
        <ele>1096.12</ele>
        <time>2025-04-15T20:03:00.983Z</time>
      </trkpt>
      <trkpt lat="44.86172" lon="3.7576">
        <ele>1094.26</ele>
        <time>2025-04-15T20:03:11.826Z</time>
      </trkpt>
      <trkpt lat="44.86146" lon="3.75765">
        <ele>1092.33</ele>
        <time>2025-04-15T20:03:22.673Z</time>
      </trkpt>
      <trkpt lat="44.86119" lon="3.75771">
        <ele>1090.3</ele>
        <time>2025-04-15T20:03:33.525Z</time>
      </trkpt>
      <trkpt lat="44.8609" lon="3.75773">
        <ele>1088.25</ele>
        <time>2025-04-15T20:03:44.381Z</time>
      </trkpt>
      <trkpt lat="44.8606" lon="3.75775">
        <ele>1086.11</ele>
        <time>2025-04-15T20:03:55.242Z</time>
      </trkpt>
      <trkpt lat="44.8603" lon="3.75777">
        <ele>1083.89</ele>
        <time>2025-04-15T20:04:06.108Z</time>
      </trkpt>
      <trkpt lat="44.86001" lon="3.75779">
        <ele>1081.62</ele>
        <time>2025-04-15T20:04:16.979Z</time>
      </trkpt>
      <trkpt lat="44.85971" lon="3.75781">
        <ele>1079.32</ele>
        <time>2025-04-15T20:04:27.854Z</time>
      </trkpt>
      <trkpt lat="44.85942" lon="3.75783">
        <ele>1076.96</ele>
        <time>2025-04-15T20:04:38.734Z</time>
      </trkpt>
      <trkpt lat="44.85912" lon="3.75784">
        <ele>1074.57</ele>
        <time>2025-04-15T20:04:49.619Z</time>
      </trkpt>
      <trkpt lat="44.85883" lon="3.75786">
        <ele>1072.16</ele>
        <time>2025-04-15T20:05:00.509Z</time>
      </trkpt>
      <trkpt lat="44.85853" lon="3.75788">
        <ele>1069.76</ele>
        <time>2025-04-15T20:05:11.403Z</time>
      </trkpt>
      <trkpt lat="44.85836" lon="3.75785">
        <ele>1067.34</ele>
        <time>2025-04-15T20:05:22.300Z</time>
      </trkpt>
      <trkpt lat="44.85819" lon="3.75782">
        <ele>1064.91</ele>
        <time>2025-04-15T20:05:33.200Z</time>
      </trkpt>
      <trkpt lat="44.85797" lon="3.7577">
        <ele>1062.45</ele>
        <time>2025-04-15T20:05:44.104Z</time>
      </trkpt>
      <trkpt lat="44.85776" lon="3.75759">
        <ele>1059.95</ele>
        <time>2025-04-15T20:05:55.011Z</time>
      </trkpt>
      <trkpt lat="44.85754" lon="3.75747">
        <ele>1057.41</ele>
        <time>2025-04-15T20:06:05.922Z</time>
      </trkpt>
      <trkpt lat="44.85724" lon="3.75737">
        <ele>1054.94</ele>
        <time>2025-04-15T20:06:16.838Z</time>
      </trkpt>
      <trkpt lat="44.85694" lon="3.75726">
        <ele>1052.51</ele>
        <time>2025-04-15T20:06:27.759Z</time>
      </trkpt>
      <trkpt lat="44.85664" lon="3.75715">
        <ele>1050.05</ele>
        <time>2025-04-15T20:06:38.685Z</time>
      </trkpt>
      <trkpt lat="44.85634" lon="3.75704">
        <ele>1047.55</ele>
        <time>2025-04-15T20:06:49.616Z</time>
      </trkpt>
      <trkpt lat="44.85604" lon="3.75693">
        <ele>1045.02</ele>
        <time>2025-04-15T20:07:00.552Z</time>
      </trkpt>
      <trkpt lat="44.85574" lon="3.75682">
        <ele>1042.6</ele>
        <time>2025-04-15T20:07:11.493Z</time>
      </trkpt>
      <trkpt lat="44.85544" lon="3.75672">
        <ele>1040.24</ele>
        <time>2025-04-15T20:07:22.439Z</time>
      </trkpt>
      <trkpt lat="44.85514" lon="3.75661">
        <ele>1037.88</ele>
        <time>2025-04-15T20:07:33.390Z</time>
      </trkpt>
      <trkpt lat="44.85484" lon="3.7565">
        <ele>1035.54</ele>
        <time>2025-04-15T20:07:44.346Z</time>
      </trkpt>
      <trkpt lat="44.85454" lon="3.75639">
        <ele>1033.22</ele>
        <time>2025-04-15T20:07:55.307Z</time>
      </trkpt>
      <trkpt lat="44.85424" lon="3.75628">
        <ele>1030.93</ele>
        <time>2025-04-15T20:08:06.272Z</time>
      </trkpt>
      <trkpt lat="44.85394" lon="3.75617">
        <ele>1028.73</ele>
        <time>2025-04-15T20:08:17.242Z</time>
      </trkpt>
      <trkpt lat="44.85364" lon="3.75606">
        <ele>1026.59</ele>
        <time>2025-04-15T20:08:28.217Z</time>
      </trkpt>
      <trkpt lat="44.85334" lon="3.75596">
        <ele>1024.44</ele>
        <time>2025-04-15T20:08:39.197Z</time>
      </trkpt>
      <trkpt lat="44.85304" lon="3.75585">
        <ele>1022.34</ele>
        <time>2025-04-15T20:08:50.182Z</time>
      </trkpt>
      <trkpt lat="44.85274" lon="3.75574">
        <ele>1020.37</ele>
        <time>2025-04-15T20:09:01.172Z</time>
      </trkpt>
      <trkpt lat="44.85244" lon="3.75563">
        <ele>1018.47</ele>
        <time>2025-04-15T20:09:12.167Z</time>
      </trkpt>
      <trkpt lat="44.85223" lon="3.75559">
        <ele>1016.63</ele>
        <time>2025-04-15T20:09:23.166Z</time>
      </trkpt>
      <trkpt lat="44.85203" lon="3.75554">
        <ele>1014.82</ele>
        <time>2025-04-15T20:09:34.168Z</time>
      </trkpt>
      <trkpt lat="44.85186" lon="3.75555">
        <ele>1013.13</ele>
        <time>2025-04-15T20:09:45.173Z</time>
      </trkpt>
      <trkpt lat="44.85169" lon="3.75557">
        <ele>1011.49</ele>
        <time>2025-04-15T20:09:56.180Z</time>
      </trkpt>
      <trkpt lat="44.85138" lon="3.75569">
        <ele>1009.86</ele>
        <time>2025-04-15T20:10:07.192Z</time>
      </trkpt>
      <trkpt lat="44.85112" lon="3.75591">
        <ele>1008.29</ele>
        <time>2025-04-15T20:10:18.209Z</time>
      </trkpt>
      <trkpt lat="44.85085" lon="3.75613">
        <ele>1006.81</ele>
        <time>2025-04-15T20:10:29.231Z</time>
      </trkpt>
      <trkpt lat="44.85058" lon="3.75635">
        <ele>1005.46</ele>
        <time>2025-04-15T20:10:40.258Z</time>
      </trkpt>
      <trkpt lat="44.85031" lon="3.75657">
        <ele>1004.19</ele>
        <time>2025-04-15T20:10:51.290Z</time>
      </trkpt>
      <trkpt lat="44.85004" lon="3.75678">
        <ele>1002.93</ele>
        <time>2025-04-15T20:11:02.327Z</time>
      </trkpt>
      <trkpt lat="44.84978" lon="3.757">
        <ele>1001.72</ele>
        <time>2025-04-15T20:11:13.369Z</time>
      </trkpt>
      <trkpt lat="44.8496" lon="3.7572">
        <ele>1000.54</ele>
        <time>2025-04-15T20:11:24.415Z</time>
      </trkpt>
      <trkpt lat="44.84956" lon="3.75728">
        <ele>999.41</ele>
        <time>2025-04-15T20:11:35.462Z</time>
      </trkpt>
      <trkpt lat="44.84945" lon="3.75747">
        <ele>998.28</ele>
        <time>2025-04-15T20:11:46.512Z</time>
      </trkpt>
      <trkpt lat="44.84939" lon="3.7578">
        <ele>997.17</ele>
        <time>2025-04-15T20:11:57.565Z</time>
      </trkpt>
      <trkpt lat="44.84939" lon="3.7582">
        <ele>996.17</ele>
        <time>2025-04-15T20:12:08.623Z</time>
      </trkpt>
      <trkpt lat="44.84941" lon="3.7586">
        <ele>995.2</ele>
        <time>2025-04-15T20:12:19.686Z</time>
      </trkpt>
      <trkpt lat="44.84942" lon="3.759">
        <ele>994.18</ele>
        <time>2025-04-15T20:12:30.753Z</time>
      </trkpt>
      <trkpt lat="44.84944" lon="3.7594">
        <ele>993.15</ele>
        <time>2025-04-15T20:12:41.825Z</time>
      </trkpt>
      <trkpt lat="44.84945" lon="3.75979">
        <ele>992.14</ele>
        <time>2025-04-15T20:12:52.901Z</time>
      </trkpt>
      <trkpt lat="44.8495" lon="3.76016">
        <ele>991.22</ele>
        <time>2025-04-15T20:13:03.981Z</time>
      </trkpt>
      <trkpt lat="44.84941" lon="3.76035">
        <ele>990.32</ele>
        <time>2025-04-15T20:13:15.064Z</time>
      </trkpt>
      <trkpt lat="44.84917" lon="3.76044">
        <ele>989.46</ele>
        <time>2025-04-15T20:13:26.151Z</time>
      </trkpt>
      <trkpt lat="44.84902" lon="3.76041">
        <ele>988.56</ele>
        <time>2025-04-15T20:13:37.240Z</time>
      </trkpt>
      <trkpt lat="44.84887" lon="3.76035">
        <ele>987.7</ele>
        <time>2025-04-15T20:13:48.332Z</time>
      </trkpt>
      <trkpt lat="44.84876" lon="3.7602">
        <ele>986.79</ele>
        <time>2025-04-15T20:13:59.426Z</time>
      </trkpt>
      <trkpt lat="44.84864" lon="3.76005">
        <ele>985.89</ele>
        <time>2025-04-15T20:14:10.523Z</time>
      </trkpt>
      <trkpt lat="44.8485" lon="3.75974">
        <ele>984.9</ele>
        <time>2025-04-15T20:14:21.624Z</time>
      </trkpt>
      <trkpt lat="44.84836" lon="3.75943">
        <ele>983.83</ele>
        <time>2025-04-15T20:14:32.729Z</time>
      </trkpt>
      <trkpt lat="44.84825" lon="3.75905">
        <ele>982.64</ele>
        <time>2025-04-15T20:14:43.839Z</time>
      </trkpt>
      <trkpt lat="44.84814" lon="3.75868">
        <ele>981.46</ele>
        <time>2025-04-15T20:14:54.954Z</time>
      </trkpt>
      <trkpt lat="44.84802" lon="3.75835">
        <ele>980.42</ele>
        <time>2025-04-15T20:15:06.073Z</time>
      </trkpt>
      <trkpt lat="44.8479" lon="3.75803">
        <ele>979.39</ele>
        <time>2025-04-15T20:15:17.196Z</time>
      </trkpt>
      <trkpt lat="44.84778" lon="3.75771">
        <ele>978.28</ele>
        <time>2025-04-15T20:15:28.323Z</time>
      </trkpt>
      <trkpt lat="44.84766" lon="3.75739">
        <ele>977</ele>
        <time>2025-04-15T20:15:39.454Z</time>
      </trkpt>
      <trkpt lat="44.84754" lon="3.75707">
        <ele>975.68</ele>
        <time>2025-04-15T20:15:50.589Z</time>
      </trkpt>
      <trkpt lat="44.84749" lon="3.75684">
        <ele>974.38</ele>
        <time>2025-04-15T20:16:01.727Z</time>
      </trkpt>
      <trkpt lat="44.84744" lon="3.75662">
        <ele>973.06</ele>
        <time>2025-04-15T20:16:12.868Z</time>
      </trkpt>
      <trkpt lat="44.84747" lon="3.75626">
        <ele>971.58</ele>
        <time>2025-04-15T20:16:24.013Z</time>
      </trkpt>
      <trkpt lat="44.8475" lon="3.75591">
        <ele>970.15</ele>
        <time>2025-04-15T20:16:35.162Z</time>
      </trkpt>
      <trkpt lat="44.84755" lon="3.75564">
        <ele>968.67</ele>
        <time>2025-04-15T20:16:46.314Z</time>
      </trkpt>
      <trkpt lat="44.84761" lon="3.75537">
        <ele>967.13</ele>
        <time>2025-04-15T20:16:57.469Z</time>
      </trkpt>
      <trkpt lat="44.84763" lon="3.75511">
        <ele>965.52</ele>
        <time>2025-04-15T20:17:08.627Z</time>
      </trkpt>
      <trkpt lat="44.84754" lon="3.7549">
        <ele>963.9</ele>
        <time>2025-04-15T20:17:19.788Z</time>
      </trkpt>
      <trkpt lat="44.84731" lon="3.75475">
        <ele>962.32</ele>
        <time>2025-04-15T20:17:30.953Z</time>
      </trkpt>
      <trkpt lat="44.84707" lon="3.75477">
        <ele>960.68</ele>
        <time>2025-04-15T20:17:42.122Z</time>
      </trkpt>
      <trkpt lat="44.84684" lon="3.75479">
        <ele>959.05</ele>
        <time>2025-04-15T20:17:53.295Z</time>
      </trkpt>
      <trkpt lat="44.84654" lon="3.75491">
        <ele>957.54</ele>
        <time>2025-04-15T20:18:04.473Z</time>
      </trkpt>
      <trkpt lat="44.84624" lon="3.75504">
        <ele>955.93</ele>
        <time>2025-04-15T20:18:15.656Z</time>
      </trkpt>
      <trkpt lat="44.84593" lon="3.75516">
        <ele>954.31</ele>
        <time>2025-04-15T20:18:26.844Z</time>
      </trkpt>
      <trkpt lat="44.84578" lon="3.7552">
        <ele>952.73</ele>
        <time>2025-04-15T20:18:38.034Z</time>
      </trkpt>
      <trkpt lat="44.84559" lon="3.75518">
        <ele>951.13</ele>
        <time>2025-04-15T20:18:49.227Z</time>
      </trkpt>
      <trkpt lat="44.84532" lon="3.75504">
        <ele>949.49</ele>
        <time>2025-04-15T20:19:00.425Z</time>
      </trkpt>
      <trkpt lat="44.84505" lon="3.7549">
        <ele>947.8</ele>
        <time>2025-04-15T20:19:11.627Z</time>
      </trkpt>
      <trkpt lat="44.84488" lon="3.75494">
        <ele>946.26</ele>
        <time>2025-04-15T20:19:22.832Z</time>
      </trkpt>
      <trkpt lat="44.84471" lon="3.75499">
        <ele>944.75</ele>
        <time>2025-04-15T20:19:34.040Z</time>
      </trkpt>
      <trkpt lat="44.84456" lon="3.75494">
        <ele>943.22</ele>
        <time>2025-04-15T20:19:45.250Z</time>
      </trkpt>
      <trkpt lat="44.84439" lon="3.75484">
        <ele>941.64</ele>
        <time>2025-04-15T20:19:56.463Z</time>
      </trkpt>
      <trkpt lat="44.84422" lon="3.75473">
        <ele>940.11</ele>
        <time>2025-04-15T20:20:07.679Z</time>
      </trkpt>
      <trkpt lat="44.84396" lon="3.75469">
        <ele>938.6</ele>
        <time>2025-04-15T20:20:18.899Z</time>
      </trkpt>
      <trkpt lat="44.8437" lon="3.75464">
        <ele>937.12</ele>
        <time>2025-04-15T20:20:30.124Z</time>
      </trkpt>
      <trkpt lat="44.84347" lon="3.75447">
        <ele>935.54</ele>
        <time>2025-04-15T20:20:41.353Z</time>
      </trkpt>
      <trkpt lat="44.84325" lon="3.7543">
        <ele>933.97</ele>
        <time>2025-04-15T20:20:52.586Z</time>
      </trkpt>
      <trkpt lat="44.84302" lon="3.75413">
        <ele>932.4</ele>
        <time>2025-04-15T20:21:03.823Z</time>
      </trkpt>
      <trkpt lat="44.84284" lon="3.75389">
        <ele>930.89</ele>
        <time>2025-04-15T20:21:15.064Z</time>
      </trkpt>
      <trkpt lat="44.84274" lon="3.75374">
        <ele>929.44</ele>
        <time>2025-04-15T20:21:26.307Z</time>
      </trkpt>
      <trkpt lat="44.84244" lon="3.75366">
        <ele>927.96</ele>
        <time>2025-04-15T20:21:37.555Z</time>
      </trkpt>
      <trkpt lat="44.84244" lon="3.75366">
        <ele>926.49</ele>
        <time>2025-04-15T20:21:48.803Z</time>
      </trkpt>
      <trkpt lat="44.84222" lon="3.75366">
        <ele>925.02</ele>
        <time>2025-04-15T20:22:00.055Z</time>
      </trkpt>
      <trkpt lat="44.84199" lon="3.75367">
        <ele>923.58</ele>
        <time>2025-04-15T20:22:11.310Z</time>
      </trkpt>
      <trkpt lat="44.84177" lon="3.75368">
        <ele>922.03</ele>
        <time>2025-04-15T20:22:22.569Z</time>
      </trkpt>
      <trkpt lat="44.84152" lon="3.75379">
        <ele>920.39</ele>
        <time>2025-04-15T20:22:33.832Z</time>
      </trkpt>
      <trkpt lat="44.84128" lon="3.75391">
        <ele>918.81</ele>
        <time>2025-04-15T20:22:45.099Z</time>
      </trkpt>
      <trkpt lat="44.84102" lon="3.75393">
        <ele>917.22</ele>
        <time>2025-04-15T20:22:56.370Z</time>
      </trkpt>
      <trkpt lat="44.84087" lon="3.75387">
        <ele>915.7</ele>
        <time>2025-04-15T20:23:07.644Z</time>
      </trkpt>
      <trkpt lat="44.84064" lon="3.75363">
        <ele>914.23</ele>
        <time>2025-04-15T20:23:18.922Z</time>
      </trkpt>
      <trkpt lat="44.84041" lon="3.7534">
        <ele>912.67</ele>
        <time>2025-04-15T20:23:30.205Z</time>
      </trkpt>
      <trkpt lat="44.84018" lon="3.75316">
        <ele>911.06</ele>
        <time>2025-04-15T20:23:41.493Z</time>
      </trkpt>
      <trkpt lat="44.8399" lon="3.75308">
        <ele>909.27</ele>
        <time>2025-04-15T20:23:52.785Z</time>
      </trkpt>
      <trkpt lat="44.83963" lon="3.75299">
        <ele>907.48</ele>
        <time>2025-04-15T20:24:04.082Z</time>
      </trkpt>
      <trkpt lat="44.83935" lon="3.75284">
        <ele>905.71</ele>
        <time>2025-04-15T20:24:15.383Z</time>
      </trkpt>
      <trkpt lat="44.83911" lon="3.7526">
        <ele>904.02</ele>
        <time>2025-04-15T20:24:26.689Z</time>
      </trkpt>
      <trkpt lat="44.83886" lon="3.75244">
        <ele>902.26</ele>
        <time>2025-04-15T20:24:38.000Z</time>
      </trkpt>
      <trkpt lat="44.83861" lon="3.75228">
        <ele>900.52</ele>
        <time>2025-04-15T20:24:49.315Z</time>
      </trkpt>
      <trkpt lat="44.83836" lon="3.75211">
        <ele>898.72</ele>
        <time>2025-04-15T20:25:00.634Z</time>
      </trkpt>
      <trkpt lat="44.83809" lon="3.75199">
        <ele>896.82</ele>
        <time>2025-04-15T20:25:11.958Z</time>
      </trkpt>
      <trkpt lat="44.83782" lon="3.75187">
        <ele>894.87</ele>
        <time>2025-04-15T20:25:23.286Z</time>
      </trkpt>
      <trkpt lat="44.83759" lon="3.75172">
        <ele>892.99</ele>
        <time>2025-04-15T20:25:34.619Z</time>
      </trkpt>
      <trkpt lat="44.83735" lon="3.75157">
        <ele>891.09</ele>
        <time>2025-04-15T20:25:45.956Z</time>
      </trkpt>
      <trkpt lat="44.83718" lon="3.75145">
        <ele>889.15</ele>
        <time>2025-04-15T20:25:57.296Z</time>
      </trkpt>
      <trkpt lat="44.83694" lon="3.75119">
        <ele>887.2</ele>
        <time>2025-04-15T20:26:08.641Z</time>
      </trkpt>
      <trkpt lat="44.83671" lon="3.75093">
        <ele>885.25</ele>
        <time>2025-04-15T20:26:19.990Z</time>
      </trkpt>
      <trkpt lat="44.83651" lon="3.75067">
        <ele>883.31</ele>
        <time>2025-04-15T20:26:31.344Z</time>
      </trkpt>
      <trkpt lat="44.83639" lon="3.75057">
        <ele>881.33</ele>
        <time>2025-04-15T20:26:42.700Z</time>
      </trkpt>
      <trkpt lat="44.83617" lon="3.7505">
        <ele>879.23</ele>
        <time>2025-04-15T20:26:54.059Z</time>
      </trkpt>
      <trkpt lat="44.83596" lon="3.75044">
        <ele>877.09</ele>
        <time>2025-04-15T20:27:05.422Z</time>
      </trkpt>
      <trkpt lat="44.83587" lon="3.75033">
        <ele>875.01</ele>
        <time>2025-04-15T20:27:16.787Z</time>
      </trkpt>
      <trkpt lat="44.83585" lon="3.75016">
        <ele>872.97</ele>
        <time>2025-04-15T20:27:28.154Z</time>
      </trkpt>
      <trkpt lat="44.83589" lon="3.74985">
        <ele>870.92</ele>
        <time>2025-04-15T20:27:39.524Z</time>
      </trkpt>
      <trkpt lat="44.83594" lon="3.74954">
        <ele>868.79</ele>
        <time>2025-04-15T20:27:50.898Z</time>
      </trkpt>
      <trkpt lat="44.83598" lon="3.74924">
        <ele>866.68</ele>
        <time>2025-04-15T20:28:02.276Z</time>
      </trkpt>
      <trkpt lat="44.83604" lon="3.74902">
        <ele>864.7</ele>
        <time>2025-04-15T20:28:13.656Z</time>
      </trkpt>
      <trkpt lat="44.8362" lon="3.74871">
        <ele>862.91</ele>
        <time>2025-04-15T20:28:25.040Z</time>
      </trkpt>
      <trkpt lat="44.83635" lon="3.74841">
        <ele>860.89</ele>
        <time>2025-04-15T20:28:36.429Z</time>
      </trkpt>
      <trkpt lat="44.83651" lon="3.7481">
        <ele>858.75</ele>
        <time>2025-04-15T20:28:47.822Z</time>
      </trkpt>
      <trkpt lat="44.83666" lon="3.7478">
        <ele>856.57</ele>
        <time>2025-04-15T20:28:59.219Z</time>
      </trkpt>
      <trkpt lat="44.83679" lon="3.74767">
        <ele>854.5</ele>
        <time>2025-04-15T20:29:10.619Z</time>
      </trkpt>
      <trkpt lat="44.83694" lon="3.74756">
        <ele>852.43</ele>
        <time>2025-04-15T20:29:22.022Z</time>
      </trkpt>
      <trkpt lat="44.83718" lon="3.74752">
        <ele>850.38</ele>
        <time>2025-04-15T20:29:33.428Z</time>
      </trkpt>
      <trkpt lat="44.83742" lon="3.74748">
        <ele>848.16</ele>
        <time>2025-04-15T20:29:44.838Z</time>
      </trkpt>
      <trkpt lat="44.83765" lon="3.74743">
        <ele>845.97</ele>
        <time>2025-04-15T20:29:56.252Z</time>
      </trkpt>
      <trkpt lat="44.83792" lon="3.74745">
        <ele>843.89</ele>
        <time>2025-04-15T20:30:07.670Z</time>
      </trkpt>
      <trkpt lat="44.83819" lon="3.74748">
        <ele>841.89</ele>
        <time>2025-04-15T20:30:19.093Z</time>
      </trkpt>
      <trkpt lat="44.83849" lon="3.74743">
        <ele>839.72</ele>
        <time>2025-04-15T20:30:30.520Z</time>
      </trkpt>
      <trkpt lat="44.83876" lon="3.7473">
        <ele>837.48</ele>
        <time>2025-04-15T20:30:41.952Z</time>
      </trkpt>
      <trkpt lat="44.83903" lon="3.74718">
        <ele>835.31</ele>
        <time>2025-04-15T20:30:53.388Z</time>
      </trkpt>
      <trkpt lat="44.83922" lon="3.74698">
        <ele>833.03</ele>
        <time>2025-04-15T20:31:04.828Z</time>
      </trkpt>
      <trkpt lat="44.83939" lon="3.74672">
        <ele>830.75</ele>
        <time>2025-04-15T20:31:16.272Z</time>
      </trkpt>
      <trkpt lat="44.83952" lon="3.74647">
        <ele>828.55</ele>
        <time>2025-04-15T20:31:27.720Z</time>
      </trkpt>
      <trkpt lat="44.83962" lon="3.74618">
        <ele>826.31</ele>
        <time>2025-04-15T20:31:39.171Z</time>
      </trkpt>
      <trkpt lat="44.83971" lon="3.74589">
        <ele>824.13</ele>
        <time>2025-04-15T20:31:50.626Z</time>
      </trkpt>
      <trkpt lat="44.83971" lon="3.74561">
        <ele>821.91</ele>
        <time>2025-04-15T20:32:02.084Z</time>
      </trkpt>
      <trkpt lat="44.83971" lon="3.74533">
        <ele>819.67</ele>
        <time>2025-04-15T20:32:13.545Z</time>
      </trkpt>
      <trkpt lat="44.83975" lon="3.74518">
        <ele>817.52</ele>
        <time>2025-04-15T20:32:25.008Z</time>
      </trkpt>
      <trkpt lat="44.83986" lon="3.74501">
        <ele>815.4</ele>
        <time>2025-04-15T20:32:36.474Z</time>
      </trkpt>
      <trkpt lat="44.8399" lon="3.74486">
        <ele>813.26</ele>
        <time>2025-04-15T20:32:47.942Z</time>
      </trkpt>
      <trkpt lat="44.83992" lon="3.74457">
        <ele>811.04</ele>
        <time>2025-04-15T20:32:59.413Z</time>
      </trkpt>
      <trkpt lat="44.83993" lon="3.74428">
        <ele>808.89</ele>
        <time>2025-04-15T20:33:10.887Z</time>
      </trkpt>
      <trkpt lat="44.83999" lon="3.74406">
        <ele>806.85</ele>
        <time>2025-04-15T20:33:22.364Z</time>
      </trkpt>
      <trkpt lat="44.84009" lon="3.74386">
        <ele>804.87</ele>
        <time>2025-04-15T20:33:33.844Z</time>
      </trkpt>
      <trkpt lat="44.84018" lon="3.74366">
        <ele>802.9</ele>
        <time>2025-04-15T20:33:45.327Z</time>
      </trkpt>
      <trkpt lat="44.84038" lon="3.74333">
        <ele>801.04</ele>
        <time>2025-04-15T20:33:56.814Z</time>
      </trkpt>
      <trkpt lat="44.84057" lon="3.743">
        <ele>798.9</ele>
        <time>2025-04-15T20:34:08.306Z</time>
      </trkpt>
      <trkpt lat="44.84076" lon="3.74267">
        <ele>796.82</ele>
        <time>2025-04-15T20:34:19.803Z</time>
      </trkpt>
      <trkpt lat="44.84083" lon="3.7425">
        <ele>794.86</ele>
        <time>2025-04-15T20:34:31.302Z</time>
      </trkpt>
      <trkpt lat="44.84087" lon="3.74235">
        <ele>792.98</ele>
        <time>2025-04-15T20:34:42.803Z</time>
      </trkpt>
      <trkpt lat="44.84086" lon="3.74206">
        <ele>791.01</ele>
        <time>2025-04-15T20:34:54.308Z</time>
      </trkpt>
      <trkpt lat="44.84085" lon="3.74177">
        <ele>789.05</ele>
        <time>2025-04-15T20:35:05.816Z</time>
      </trkpt>
      <trkpt lat="44.84088" lon="3.74145">
        <ele>787.2</ele>
        <time>2025-04-15T20:35:17.328Z</time>
      </trkpt>
      <trkpt lat="44.84092" lon="3.74112">
        <ele>785.4</ele>
        <time>2025-04-15T20:35:28.843Z</time>
      </trkpt>
      <trkpt lat="44.84096" lon="3.7408">
        <ele>783.57</ele>
        <time>2025-04-15T20:35:40.362Z</time>
      </trkpt>
      <trkpt lat="44.84091" lon="3.74061">
        <ele>781.74</ele>
        <time>2025-04-15T20:35:51.883Z</time>
      </trkpt>
      <trkpt lat="44.84091" lon="3.74061">
        <ele>780.13</ele>
        <time>2025-04-15T20:36:03.404Z</time>
      </trkpt>
      <trkpt lat="44.84085" lon="3.74027">
        <ele>778.38</ele>
        <time>2025-04-15T20:36:14.929Z</time>
      </trkpt>
      <trkpt lat="44.84078" lon="3.73992">
        <ele>776.72</ele>
        <time>2025-04-15T20:36:26.458Z</time>
      </trkpt>
      <trkpt lat="44.84078" lon="3.73979">
        <ele>775.23</ele>
        <time>2025-04-15T20:36:37.989Z</time>
      </trkpt>
      <trkpt lat="44.84087" lon="3.73975">
        <ele>773.93</ele>
        <time>2025-04-15T20:36:49.521Z</time>
      </trkpt>
      <trkpt lat="44.84096" lon="3.73979">
        <ele>772.62</ele>
        <time>2025-04-15T20:37:01.055Z</time>
      </trkpt>
      <trkpt lat="44.84115" lon="3.74014">
        <ele>771.4</ele>
        <time>2025-04-15T20:37:12.594Z</time>
      </trkpt>
      <trkpt lat="44.8413" lon="3.74029">
        <ele>770.1</ele>
        <time>2025-04-15T20:37:24.136Z</time>
      </trkpt>
      <trkpt lat="44.84145" lon="3.74044">
        <ele>768.79</ele>
        <time>2025-04-15T20:37:35.681Z</time>
      </trkpt>
      <trkpt lat="44.84167" lon="3.74056">
        <ele>767.45</ele>
        <time>2025-04-15T20:37:47.229Z</time>
      </trkpt>
      <trkpt lat="44.8419" lon="3.74067">
        <ele>766.14</ele>
        <time>2025-04-15T20:37:58.781Z</time>
      </trkpt>
      <trkpt lat="44.84213" lon="3.74079">
        <ele>764.88</ele>
        <time>2025-04-15T20:38:10.337Z</time>
      </trkpt>
      <trkpt lat="44.84235" lon="3.74091">
        <ele>763.59</ele>
        <time>2025-04-15T20:38:21.897Z</time>
      </trkpt>
      <trkpt lat="44.84246" lon="3.74108">
        <ele>762.32</ele>
        <time>2025-04-15T20:38:33.460Z</time>
      </trkpt>
      <trkpt lat="44.84252" lon="3.74112">
        <ele>761.02</ele>
        <time>2025-04-15T20:38:45.024Z</time>
      </trkpt>
      <trkpt lat="44.84259" lon="3.74112">
        <ele>759.72</ele>
        <time>2025-04-15T20:38:56.589Z</time>
      </trkpt>
      <trkpt lat="44.84263" lon="3.74104">
        <ele>758.45</ele>
        <time>2025-04-15T20:39:08.155Z</time>
      </trkpt>
      <trkpt lat="44.84265" lon="3.74093">
        <ele>757.18</ele>
        <time>2025-04-15T20:39:19.722Z</time>
      </trkpt>
      <trkpt lat="44.84261" lon="3.74085">
        <ele>755.96</ele>
        <time>2025-04-15T20:39:31.290Z</time>
      </trkpt>
      <trkpt lat="44.84244" lon="3.74074">
        <ele>754.86</ele>
        <time>2025-04-15T20:39:42.861Z</time>
      </trkpt>
      <trkpt lat="44.84224" lon="3.74054">
        <ele>753.61</ele>
        <time>2025-04-15T20:39:54.436Z</time>
      </trkpt>
      <trkpt lat="44.84204" lon="3.74034">
        <ele>752.21</ele>
        <time>2025-04-15T20:40:06.015Z</time>
      </trkpt>
      <trkpt lat="44.84184" lon="3.74014">
        <ele>751.06</ele>
        <time>2025-04-15T20:40:17.598Z</time>
      </trkpt>
      <trkpt lat="44.84166" lon="3.73984">
        <ele>749.88</ele>
        <time>2025-04-15T20:40:29.186Z</time>
      </trkpt>
      <trkpt lat="44.84155" lon="3.7395">
        <ele>748.73</ele>
        <time>2025-04-15T20:40:40.778Z</time>
      </trkpt>
      <trkpt lat="44.84143" lon="3.73917">
        <ele>747.6</ele>
        <time>2025-04-15T20:40:52.374Z</time>
      </trkpt>
      <trkpt lat="44.84132" lon="3.73878">
        <ele>746.47</ele>
        <time>2025-04-15T20:41:03.975Z</time>
      </trkpt>
      <trkpt lat="44.84121" lon="3.7384">
        <ele>745.32</ele>
        <time>2025-04-15T20:41:15.581Z</time>
      </trkpt>
      <trkpt lat="44.84111" lon="3.73822">
        <ele>744.34</ele>
        <time>2025-04-15T20:41:27.189Z</time>
      </trkpt>
      <trkpt lat="44.841" lon="3.73803">
        <ele>743.4</ele>
        <time>2025-04-15T20:41:38.800Z</time>
      </trkpt>
      <trkpt lat="44.84093" lon="3.73801">
        <ele>742.54</ele>
        <time>2025-04-15T20:41:50.412Z</time>
      </trkpt>
      <trkpt lat="44.84093" lon="3.73801">
        <ele>741.73</ele>
        <time>2025-04-15T20:42:02.024Z</time>
      </trkpt>
      <trkpt lat="44.84081" lon="3.73808">
        <ele>740.94</ele>
        <time>2025-04-15T20:42:13.638Z</time>
      </trkpt>
      <trkpt lat="44.84081" lon="3.73808">
        <ele>740.22</ele>
        <time>2025-04-15T20:42:25.252Z</time>
      </trkpt>
      <trkpt lat="44.84056" lon="3.73833">
        <ele>739.55</ele>
        <time>2025-04-15T20:42:36.871Z</time>
      </trkpt>
      <trkpt lat="44.84031" lon="3.73859">
        <ele>738.87</ele>
        <time>2025-04-15T20:42:48.495Z</time>
      </trkpt>
      <trkpt lat="44.84021" lon="3.73876">
        <ele>738.34</ele>
        <time>2025-04-15T20:43:00.122Z</time>
      </trkpt>
      <trkpt lat="44.8401" lon="3.73908">
        <ele>737.86</ele>
        <time>2025-04-15T20:43:11.753Z</time>
      </trkpt>
      <trkpt lat="44.83999" lon="3.73939">
        <ele>737.3</ele>
        <time>2025-04-15T20:43:23.387Z</time>
      </trkpt>
      <trkpt lat="44.83993" lon="3.73934">
        <ele>736.88</ele>
        <time>2025-04-15T20:43:35.023Z</time>
      </trkpt>
      <trkpt lat="44.83993" lon="3.73934">
        <ele>736.54</ele>
        <time>2025-04-15T20:43:46.659Z</time>
      </trkpt>
      <trkpt lat="44.83966" lon="3.73918">
        <ele>736.16</ele>
        <time>2025-04-15T20:43:58.299Z</time>
      </trkpt>
      <trkpt lat="44.83939" lon="3.73902">
        <ele>735.85</ele>
        <time>2025-04-15T20:44:09.944Z</time>
      </trkpt>
      <trkpt lat="44.83912" lon="3.73886">
        <ele>735.6</ele>
        <time>2025-04-15T20:44:21.594Z</time>
      </trkpt>
      <trkpt lat="44.83885" lon="3.7387">
        <ele>735.46</ele>
        <time>2025-04-15T20:44:33.248Z</time>
      </trkpt>
      <trkpt lat="44.83876" lon="3.73864">
        <ele>735.44</ele>
        <time>2025-04-15T20:44:44.904Z</time>
      </trkpt>
      <trkpt lat="44.83876" lon="3.73864">
        <ele>735.45</ele>
        <time>2025-04-15T20:44:56.560Z</time>
      </trkpt>
      <trkpt lat="44.83875" lon="3.73863">
        <ele>735.52</ele>
        <time>2025-04-15T20:45:08.216Z</time>
      </trkpt>
      <trkpt lat="44.83847" lon="3.73846">
        <ele>735.83</ele>
        <time>2025-04-15T20:45:19.877Z</time>
      </trkpt>
      <trkpt lat="44.83832" lon="3.73838">
        <ele>736.13</ele>
        <time>2025-04-15T20:45:31.541Z</time>
      </trkpt>
      <trkpt lat="44.83817" lon="3.73829">
        <ele>736.46</ele>
        <time>2025-04-15T20:45:43.207Z</time>
      </trkpt>
      <trkpt lat="44.83828" lon="3.73808">
        <ele>736.64</ele>
        <time>2025-04-15T20:45:54.876Z</time>
      </trkpt>
      <trkpt lat="44.8384" lon="3.73786">
        <ele>736.83</ele>
        <time>2025-04-15T20:46:06.548Z</time>
      </trkpt>
      <trkpt lat="44.8385" lon="3.73775">
        <ele>737.14</ele>
        <time>2025-04-15T20:46:18.222Z</time>
      </trkpt>
      <trkpt lat="44.8385" lon="3.73775">
        <ele>737.56</ele>
        <time>2025-04-15T20:46:29.896Z</time>
      </trkpt>
      <trkpt lat="44.83851" lon="3.73774">
        <ele>738.02</ele>
        <time>2025-04-15T20:46:41.571Z</time>
      </trkpt>
      <trkpt lat="44.8384" lon="3.73786">
        <ele>736.83</ele>
        <time>2025-04-15T20:46:53.248Z</time>
      </trkpt>
      <trkpt lat="44.83828" lon="3.73808">
        <ele>739.28</ele>
        <time>2025-04-15T20:47:04.928Z</time>
      </trkpt>
      <trkpt lat="44.83817" lon="3.73829">
        <ele>736.46</ele>
        <time>2025-04-15T20:47:16.611Z</time>
      </trkpt>
      <trkpt lat="44.83791" lon="3.73814">
        <ele>740.7</ele>
        <time>2025-04-15T20:47:28.298Z</time>
      </trkpt>
      <trkpt lat="44.83773" lon="3.73804">
        <ele>741.39</ele>
        <time>2025-04-15T20:47:39.989Z</time>
      </trkpt>
      <trkpt lat="44.83773" lon="3.73804">
        <ele>742.06</ele>
        <time>2025-04-15T20:47:51.680Z</time>
      </trkpt>
      <trkpt lat="44.83772" lon="3.73803">
        <ele>742.75</ele>
        <time>2025-04-15T20:48:03.371Z</time>
      </trkpt>
      <trkpt lat="44.83772" lon="3.73803">
        <ele>743.46</ele>
        <time>2025-04-15T20:48:15.062Z</time>
      </trkpt>
      <trkpt lat="44.83772" lon="3.73803">
        <ele>742.75</ele>
        <time>2025-04-15T20:48:26.753Z</time>
      </trkpt>
      <trkpt lat="44.83758" lon="3.73787">
        <ele>744.89</ele>
        <time>2025-04-15T20:48:38.447Z</time>
      </trkpt>
      <trkpt lat="44.83744" lon="3.73771">
        <ele>745.62</ele>
        <time>2025-04-15T20:48:50.144Z</time>
      </trkpt>
      <trkpt lat="44.83733" lon="3.73763">
        <ele>746.41</ele>
        <time>2025-04-15T20:49:01.843Z</time>
      </trkpt>
      <trkpt lat="44.83733" lon="3.73763">
        <ele>747.2</ele>
        <time>2025-04-15T20:49:13.542Z</time>
      </trkpt>
      <trkpt lat="44.8371" lon="3.73753">
        <ele>748.04</ele>
        <time>2025-04-15T20:49:25.244Z</time>
      </trkpt>
      <trkpt lat="44.83688" lon="3.73743">
        <ele>748.85</ele>
        <time>2025-04-15T20:49:36.950Z</time>
      </trkpt>
      <trkpt lat="44.83661" lon="3.73741">
        <ele>749.78</ele>
        <time>2025-04-15T20:49:48.660Z</time>
      </trkpt>
      <trkpt lat="44.83634" lon="3.73739">
        <ele>750.64</ele>
        <time>2025-04-15T20:50:00.375Z</time>
      </trkpt>
      <trkpt lat="44.83606" lon="3.73737">
        <ele>751.41</ele>
        <time>2025-04-15T20:50:12.094Z</time>
      </trkpt>
      <trkpt lat="44.83579" lon="3.73735">
        <ele>752.24</ele>
        <time>2025-04-15T20:50:23.817Z</time>
      </trkpt>
      <trkpt lat="44.83552" lon="3.73733">
        <ele>753.19</ele>
        <time>2025-04-15T20:50:35.545Z</time>
      </trkpt>
      <trkpt lat="44.83525" lon="3.7373">
        <ele>754.14</ele>
        <time>2025-04-15T20:50:47.277Z</time>
      </trkpt>
      <trkpt lat="44.835" lon="3.73726">
        <ele>754.98</ele>
        <time>2025-04-15T20:50:59.013Z</time>
      </trkpt>
      <trkpt lat="44.83475" lon="3.73722">
        <ele>755.89</ele>
        <time>2025-04-15T20:51:10.753Z</time>
      </trkpt>
      <trkpt lat="44.8345" lon="3.73711">
        <ele>756.75</ele>
        <time>2025-04-15T20:51:22.497Z</time>
      </trkpt>
      <trkpt lat="44.83424" lon="3.737">
        <ele>757.69</ele>
        <time>2025-04-15T20:51:34.246Z</time>
      </trkpt>
      <trkpt lat="44.83409" lon="3.73685">
        <ele>758.38</ele>
        <time>2025-04-15T20:51:45.998Z</time>
      </trkpt>
      <trkpt lat="44.83394" lon="3.7367">
        <ele>759.08</ele>
        <time>2025-04-15T20:51:57.753Z</time>
      </trkpt>
      <trkpt lat="44.83379" lon="3.73663">
        <ele>759.96</ele>
        <time>2025-04-15T20:52:09.510Z</time>
      </trkpt>
      <trkpt lat="44.83364" lon="3.73655">
        <ele>760.85</ele>
        <time>2025-04-15T20:52:21.270Z</time>
      </trkpt>
      <trkpt lat="44.83348" lon="3.7363">
        <ele>761.46</ele>
        <time>2025-04-15T20:52:33.034Z</time>
      </trkpt>
      <trkpt lat="44.83332" lon="3.73604">
        <ele>762.11</ele>
        <time>2025-04-15T20:52:44.802Z</time>
      </trkpt>
      <trkpt lat="44.83306" lon="3.73581">
        <ele>762.92</ele>
        <time>2025-04-15T20:52:56.574Z</time>
      </trkpt>
      <trkpt lat="44.8328" lon="3.73559">
        <ele>763.69</ele>
        <time>2025-04-15T20:53:08.351Z</time>
      </trkpt>
      <trkpt lat="44.8326" lon="3.7355">
        <ele>764.52</ele>
        <time>2025-04-15T20:53:20.132Z</time>
      </trkpt>
      <trkpt lat="44.8324" lon="3.7354">
        <ele>765.34</ele>
        <time>2025-04-15T20:53:31.916Z</time>
      </trkpt>
      <trkpt lat="44.8322" lon="3.73531">
        <ele>766.14</ele>
        <time>2025-04-15T20:53:43.703Z</time>
      </trkpt>
      <trkpt lat="44.83198" lon="3.73512">
        <ele>766.79</ele>
        <time>2025-04-15T20:53:55.495Z</time>
      </trkpt>
      <trkpt lat="44.83175" lon="3.73492">
        <ele>767.37</ele>
        <time>2025-04-15T20:54:07.291Z</time>
      </trkpt>
      <trkpt lat="44.83158" lon="3.73494">
        <ele>768.12</ele>
        <time>2025-04-15T20:54:19.090Z</time>
      </trkpt>
      <trkpt lat="44.83131" lon="3.73505">
        <ele>768.89</ele>
        <time>2025-04-15T20:54:30.893Z</time>
      </trkpt>
      <trkpt lat="44.83104" lon="3.73516">
        <ele>769.61</ele>
        <time>2025-04-15T20:54:42.701Z</time>
      </trkpt>
      <trkpt lat="44.83081" lon="3.73528">
        <ele>770.2</ele>
        <time>2025-04-15T20:54:54.513Z</time>
      </trkpt>
      <trkpt lat="44.83057" lon="3.73539">
        <ele>770.84</ele>
        <time>2025-04-15T20:55:06.329Z</time>
      </trkpt>
      <trkpt lat="44.83039" lon="3.73562">
        <ele>771.75</ele>
        <time>2025-04-15T20:55:18.148Z</time>
      </trkpt>
      <trkpt lat="44.83021" lon="3.73585">
        <ele>772.75</ele>
        <time>2025-04-15T20:55:29.971Z</time>
      </trkpt>
      <trkpt lat="44.83003" lon="3.73602">
        <ele>773.47</ele>
        <time>2025-04-15T20:55:41.798Z</time>
      </trkpt>
      <trkpt lat="44.82986" lon="3.73619">
        <ele>774</ele>
        <time>2025-04-15T20:55:53.628Z</time>
      </trkpt>
      <trkpt lat="44.82956" lon="3.73632">
        <ele>774.4</ele>
        <time>2025-04-15T20:56:05.463Z</time>
      </trkpt>
      <trkpt lat="44.82933" lon="3.73658">
        <ele>775.34</ele>
        <time>2025-04-15T20:56:17.303Z</time>
      </trkpt>
      <trkpt lat="44.8291" lon="3.73663">
        <ele>775.99</ele>
        <time>2025-04-15T20:56:29.147Z</time>
      </trkpt>
      <trkpt lat="44.82887" lon="3.73669">
        <ele>776.73</ele>
        <time>2025-04-15T20:56:40.994Z</time>
      </trkpt>
      <trkpt lat="44.82864" lon="3.73675">
        <ele>777.54</ele>
        <time>2025-04-15T20:56:52.845Z</time>
      </trkpt>
      <trkpt lat="44.82851" lon="3.73675">
        <ele>778.17</ele>
        <time>2025-04-15T20:57:04.698Z</time>
      </trkpt>
      <trkpt lat="44.82845" lon="3.73668">
        <ele>778.64</ele>
        <time>2025-04-15T20:57:16.552Z</time>
      </trkpt>
      <trkpt lat="44.82825" lon="3.73638">
        <ele>778.99</ele>
        <time>2025-04-15T20:57:28.411Z</time>
      </trkpt>
      <trkpt lat="44.82809" lon="3.73626">
        <ele>779.63</ele>
        <time>2025-04-15T20:57:40.273Z</time>
      </trkpt>
      <trkpt lat="44.82793" lon="3.73615">
        <ele>780.34</ele>
        <time>2025-04-15T20:57:52.138Z</time>
      </trkpt>
      <trkpt lat="44.82776" lon="3.73597">
        <ele>780.85</ele>
        <time>2025-04-15T20:58:04.006Z</time>
      </trkpt>
      <trkpt lat="44.82766" lon="3.73578">
        <ele>781.24</ele>
        <time>2025-04-15T20:58:15.877Z</time>
      </trkpt>
      <trkpt lat="44.82757" lon="3.73559">
        <ele>781.66</ele>
        <time>2025-04-15T20:58:27.751Z</time>
      </trkpt>
      <trkpt lat="44.8275" lon="3.73533">
        <ele>781.91</ele>
        <time>2025-04-15T20:58:39.628Z</time>
      </trkpt>
      <trkpt lat="44.82744" lon="3.73507">
        <ele>782.11</ele>
        <time>2025-04-15T20:58:51.508Z</time>
      </trkpt>
      <trkpt lat="44.82737" lon="3.73499">
        <ele>782.47</ele>
        <time>2025-04-15T20:59:03.389Z</time>
      </trkpt>
      <trkpt lat="44.8272" lon="3.73492">
        <ele>782.87</ele>
        <time>2025-04-15T20:59:15.273Z</time>
      </trkpt>
      <trkpt lat="44.82705" lon="3.73499">
        <ele>783.21</ele>
        <time>2025-04-15T20:59:27.160Z</time>
      </trkpt>
      <trkpt lat="44.82694" lon="3.73516">
        <ele>783.66</ele>
        <time>2025-04-15T20:59:39.049Z</time>
      </trkpt>
      <trkpt lat="44.82679" lon="3.73537">
        <ele>784.04</ele>
        <time>2025-04-15T20:59:50.942Z</time>
      </trkpt>
      <trkpt lat="44.8267" lon="3.73561">
        <ele>784.51</ele>
        <time>2025-04-15T21:00:02.838Z</time>
      </trkpt>
      <trkpt lat="44.8266" lon="3.73585">
        <ele>785.04</ele>
        <time>2025-04-15T21:00:14.737Z</time>
      </trkpt>
      <trkpt lat="44.82643" lon="3.73608">
        <ele>785.41</ele>
        <time>2025-04-15T21:00:26.640Z</time>
      </trkpt>
      <trkpt lat="44.82632" lon="3.7363">
        <ele>785.8</ele>
        <time>2025-04-15T21:00:38.546Z</time>
      </trkpt>
      <trkpt lat="44.82621" lon="3.73651">
        <ele>786.19</ele>
        <time>2025-04-15T21:00:50.455Z</time>
      </trkpt>
      <trkpt lat="44.82606" lon="3.7367">
        <ele>786.59</ele>
        <time>2025-04-15T21:01:02.367Z</time>
      </trkpt>
      <trkpt lat="44.82591" lon="3.7369">
        <ele>787.08</ele>
        <time>2025-04-15T21:01:14.282Z</time>
      </trkpt>
      <trkpt lat="44.82583" lon="3.73694">
        <ele>787.49</ele>
        <time>2025-04-15T21:01:26.199Z</time>
      </trkpt>
      <trkpt lat="44.82553" lon="3.7369">
        <ele>787.62</ele>
        <time>2025-04-15T21:01:38.120Z</time>
      </trkpt>
      <trkpt lat="44.82525" lon="3.737">
        <ele>787.79</ele>
        <time>2025-04-15T21:01:50.046Z</time>
      </trkpt>
      <trkpt lat="44.82508" lon="3.73713">
        <ele>788.18</ele>
        <time>2025-04-15T21:02:01.975Z</time>
      </trkpt>
      <trkpt lat="44.82491" lon="3.73726">
        <ele>788.53</ele>
        <time>2025-04-15T21:02:13.907Z</time>
      </trkpt>
      <trkpt lat="44.82466" lon="3.73736">
        <ele>788.91</ele>
        <time>2025-04-15T21:02:25.843Z</time>
      </trkpt>
      <trkpt lat="44.82441" lon="3.73745">
        <ele>789.28</ele>
        <time>2025-04-15T21:02:37.783Z</time>
      </trkpt>
      <trkpt lat="44.82411" lon="3.73747">
        <ele>789.68</ele>
        <time>2025-04-15T21:02:49.728Z</time>
      </trkpt>
      <trkpt lat="44.82381" lon="3.73748">
        <ele>790</ele>
        <time>2025-04-15T21:03:01.678Z</time>
      </trkpt>
      <trkpt lat="44.82356" lon="3.7374">
        <ele>790.24</ele>
        <time>2025-04-15T21:03:13.632Z</time>
      </trkpt>
      <trkpt lat="44.82332" lon="3.73733">
        <ele>790.44</ele>
        <time>2025-04-15T21:03:25.590Z</time>
      </trkpt>
      <trkpt lat="44.82312" lon="3.73737">
        <ele>790.73</ele>
        <time>2025-04-15T21:03:37.551Z</time>
      </trkpt>
      <trkpt lat="44.82293" lon="3.73741">
        <ele>791.04</ele>
        <time>2025-04-15T21:03:49.515Z</time>
      </trkpt>
      <trkpt lat="44.82278" lon="3.73739">
        <ele>791.29</ele>
        <time>2025-04-15T21:04:01.482Z</time>
      </trkpt>
      <trkpt lat="44.82259" lon="3.73741">
        <ele>791.61</ele>
        <time>2025-04-15T21:04:13.452Z</time>
      </trkpt>
      <trkpt lat="44.82244" lon="3.73758">
        <ele>792.11</ele>
        <time>2025-04-15T21:04:25.425Z</time>
      </trkpt>
      <trkpt lat="44.82229" lon="3.73776">
        <ele>792.58</ele>
        <time>2025-04-15T21:04:37.401Z</time>
      </trkpt>
      <trkpt lat="44.82205" lon="3.73786">
        <ele>792.96</ele>
        <time>2025-04-15T21:04:49.381Z</time>
      </trkpt>
      <trkpt lat="44.82179" lon="3.73788">
        <ele>793.3</ele>
        <time>2025-04-15T21:05:01.365Z</time>
      </trkpt>
      <trkpt lat="44.82153" lon="3.73789">
        <ele>793.65</ele>
        <time>2025-04-15T21:05:13.353Z</time>
      </trkpt>
      <trkpt lat="44.82127" lon="3.7379">
        <ele>794.03</ele>
        <time>2025-04-15T21:05:25.346Z</time>
      </trkpt>
      <trkpt lat="44.82101" lon="3.73791">
        <ele>794.47</ele>
        <time>2025-04-15T21:05:37.343Z</time>
      </trkpt>
      <trkpt lat="44.82074" lon="3.73793">
        <ele>794.88</ele>
        <time>2025-04-15T21:05:49.344Z</time>
      </trkpt>
      <trkpt lat="44.82057" lon="3.73788">
        <ele>795.25</ele>
        <time>2025-04-15T21:06:01.348Z</time>
      </trkpt>
      <trkpt lat="44.8204" lon="3.73784">
        <ele>795.6</ele>
        <time>2025-04-15T21:06:13.355Z</time>
      </trkpt>
      <trkpt lat="44.82014" lon="3.73782">
        <ele>796.03</ele>
        <time>2025-04-15T21:06:25.366Z</time>
      </trkpt>
      <trkpt lat="44.82013" lon="3.73782">
        <ele>796.49</ele>
        <time>2025-04-15T21:06:37.377Z</time>
      </trkpt>
      <trkpt lat="44.82013" lon="3.73782">
        <ele>796.96</ele>
        <time>2025-04-15T21:06:49.388Z</time>
      </trkpt>
      <trkpt lat="44.82013" lon="3.73782">
        <ele>797.45</ele>
        <time>2025-04-15T21:07:01.399Z</time>
      </trkpt>
      <trkpt lat="44.81997" lon="3.73786">
        <ele>797.98</ele>
        <time>2025-04-15T21:07:13.413Z</time>
      </trkpt>
      <trkpt lat="44.8198" lon="3.73791">
        <ele>798.51</ele>
        <time>2025-04-15T21:07:25.429Z</time>
      </trkpt>
      <trkpt lat="44.81964" lon="3.73802">
        <ele>799.15</ele>
        <time>2025-04-15T21:07:37.448Z</time>
      </trkpt>
      <trkpt lat="44.81948" lon="3.73814">
        <ele>799.79</ele>
        <time>2025-04-15T21:07:49.470Z</time>
      </trkpt>
      <trkpt lat="44.81927" lon="3.73816">
        <ele>800.34</ele>
        <time>2025-04-15T21:08:01.495Z</time>
      </trkpt>
      <trkpt lat="44.81907" lon="3.73818">
        <ele>800.89</ele>
        <time>2025-04-15T21:08:13.524Z</time>
      </trkpt>
      <trkpt lat="44.81877" lon="3.73815">
        <ele>801.52</ele>
        <time>2025-04-15T21:08:25.557Z</time>
      </trkpt>
      <trkpt lat="44.81847" lon="3.73812">
        <ele>802.23</ele>
        <time>2025-04-15T21:08:37.595Z</time>
      </trkpt>
      <trkpt lat="44.81831" lon="3.73803">
        <ele>802.73</ele>
        <time>2025-04-15T21:08:49.636Z</time>
      </trkpt>
      <trkpt lat="44.81815" lon="3.73795">
        <ele>803.23</ele>
        <time>2025-04-15T21:09:01.680Z</time>
      </trkpt>
      <trkpt lat="44.81793" lon="3.73778">
        <ele>803.78</ele>
        <time>2025-04-15T21:09:13.728Z</time>
      </trkpt>
      <trkpt lat="44.81772" lon="3.73761">
        <ele>804.4</ele>
        <time>2025-04-15T21:09:25.780Z</time>
      </trkpt>
      <trkpt lat="44.8175" lon="3.73743">
        <ele>805.01</ele>
        <time>2025-04-15T21:09:37.836Z</time>
      </trkpt>
      <trkpt lat="44.8175" lon="3.73743">
        <ele>805.55</ele>
        <time>2025-04-15T21:09:49.892Z</time>
      </trkpt>
      <trkpt lat="44.81734" lon="3.73729">
        <ele>806.04</ele>
        <time>2025-04-15T21:10:01.951Z</time>
      </trkpt>
      <trkpt lat="44.81718" lon="3.73715">
        <ele>806.49</ele>
        <time>2025-04-15T21:10:14.013Z</time>
      </trkpt>
      <trkpt lat="44.81701" lon="3.73709">
        <ele>806.99</ele>
        <time>2025-04-15T21:10:26.078Z</time>
      </trkpt>
      <trkpt lat="44.81684" lon="3.73703">
        <ele>807.62</ele>
        <time>2025-04-15T21:10:38.145Z</time>
      </trkpt>
      <trkpt lat="44.81669" lon="3.73685">
        <ele>808.29</ele>
        <time>2025-04-15T21:10:50.216Z</time>
      </trkpt>
      <trkpt lat="44.81664" lon="3.73666">
        <ele>808.84</ele>
        <time>2025-04-15T21:11:02.289Z</time>
      </trkpt>
      <trkpt lat="44.81662" lon="3.73642">
        <ele>809.28</ele>
        <time>2025-04-15T21:11:14.365Z</time>
      </trkpt>
      <trkpt lat="44.8166" lon="3.73619">
        <ele>809.74</ele>
        <time>2025-04-15T21:11:26.443Z</time>
      </trkpt>
      <trkpt lat="44.81663" lon="3.73576">
        <ele>809.99</ele>
        <time>2025-04-15T21:11:38.526Z</time>
      </trkpt>
      <trkpt lat="44.81667" lon="3.73533">
        <ele>810.45</ele>
        <time>2025-04-15T21:11:50.614Z</time>
      </trkpt>
      <trkpt lat="44.81671" lon="3.73506">
        <ele>810.84</ele>
        <time>2025-04-15T21:12:02.705Z</time>
      </trkpt>
      <trkpt lat="44.81675" lon="3.73479">
        <ele>811.08</ele>
        <time>2025-04-15T21:12:14.799Z</time>
      </trkpt>
      <trkpt lat="44.81684" lon="3.73459">
        <ele>811.33</ele>
        <time>2025-04-15T21:12:26.896Z</time>
      </trkpt>
      <trkpt lat="44.81692" lon="3.73439">
        <ele>811.64</ele>
        <time>2025-04-15T21:12:38.996Z</time>
      </trkpt>
      <trkpt lat="44.81711" lon="3.73417">
        <ele>811.89</ele>
        <time>2025-04-15T21:12:51.100Z</time>
      </trkpt>
      <trkpt lat="44.81729" lon="3.73396">
        <ele>812.02</ele>
        <time>2025-04-15T21:13:03.207Z</time>
      </trkpt>
      <trkpt lat="44.81751" lon="3.73382">
        <ele>812.17</ele>
        <time>2025-04-15T21:13:15.318Z</time>
      </trkpt>
      <trkpt lat="44.81774" lon="3.73369">
        <ele>812.37</ele>
        <time>2025-04-15T21:13:27.433Z</time>
      </trkpt>
      <trkpt lat="44.81796" lon="3.73356">
        <ele>812.61</ele>
        <time>2025-04-15T21:13:39.552Z</time>
      </trkpt>
      <trkpt lat="44.81819" lon="3.73342">
        <ele>812.84</ele>
        <time>2025-04-15T21:13:51.675Z</time>
      </trkpt>
      <trkpt lat="44.81835" lon="3.73337">
        <ele>812.96</ele>
        <time>2025-04-15T21:14:03.801Z</time>
      </trkpt>
      <trkpt lat="44.81851" lon="3.73331">
        <ele>813.05</ele>
        <time>2025-04-15T21:14:15.929Z</time>
      </trkpt>
      <trkpt lat="44.81865" lon="3.73316">
        <ele>813.16</ele>
        <time>2025-04-15T21:14:28.060Z</time>
      </trkpt>
      <trkpt lat="44.81879" lon="3.73301">
        <ele>813.22</ele>
        <time>2025-04-15T21:14:40.194Z</time>
      </trkpt>
      <trkpt lat="44.8189" lon="3.73284">
        <ele>813.22</ele>
        <time>2025-04-15T21:14:52.331Z</time>
      </trkpt>
      <trkpt lat="44.81892" lon="3.73261">
        <ele>813.34</ele>
        <time>2025-04-15T21:15:04.470Z</time>
      </trkpt>
      <trkpt lat="44.81888" lon="3.73234">
        <ele>813.49</ele>
        <time>2025-04-15T21:15:16.612Z</time>
      </trkpt>
      <trkpt lat="44.81883" lon="3.73207">
        <ele>813.58</ele>
        <time>2025-04-15T21:15:28.757Z</time>
      </trkpt>
      <trkpt lat="44.81881" lon="3.73176">
        <ele>813.54</ele>
        <time>2025-04-15T21:15:40.906Z</time>
      </trkpt>
      <trkpt lat="44.81879" lon="3.73145">
        <ele>813.48</ele>
        <time>2025-04-15T21:15:53.059Z</time>
      </trkpt>
      <trkpt lat="44.81868" lon="3.73104">
        <ele>813.34</ele>
        <time>2025-04-15T21:16:05.217Z</time>
      </trkpt>
      <trkpt lat="44.81849" lon="3.73078">
        <ele>813.32</ele>
        <time>2025-04-15T21:16:17.379Z</time>
      </trkpt>
      <trkpt lat="44.8183" lon="3.73051">
        <ele>813.22</ele>
        <time>2025-04-15T21:16:29.545Z</time>
      </trkpt>
      <trkpt lat="44.8181" lon="3.73025">
        <ele>813.09</ele>
        <time>2025-04-15T21:16:41.715Z</time>
      </trkpt>
      <trkpt lat="44.81791" lon="3.72999">
        <ele>812.97</ele>
        <time>2025-04-15T21:16:53.890Z</time>
      </trkpt>
      <trkpt lat="44.81773" lon="3.72986">
        <ele>812.92</ele>
        <time>2025-04-15T21:17:06.068Z</time>
      </trkpt>
      <trkpt lat="44.81755" lon="3.72973">
        <ele>812.83</ele>
        <time>2025-04-15T21:17:18.249Z</time>
      </trkpt>
      <trkpt lat="44.81725" lon="3.72966">
        <ele>812.77</ele>
        <time>2025-04-15T21:17:30.435Z</time>
      </trkpt>
      <trkpt lat="44.81695" lon="3.72959">
        <ele>812.69</ele>
        <time>2025-04-15T21:17:42.626Z</time>
      </trkpt>
      <trkpt lat="44.81665" lon="3.72952">
        <ele>812.53</ele>
        <time>2025-04-15T21:17:54.822Z</time>
      </trkpt>
      <trkpt lat="44.81635" lon="3.72946">
        <ele>812.33</ele>
        <time>2025-04-15T21:18:07.023Z</time>
      </trkpt>
      <trkpt lat="44.81604" lon="3.72939">
        <ele>812.25</ele>
        <time>2025-04-15T21:18:19.229Z</time>
      </trkpt>
      <trkpt lat="44.81587" lon="3.72928">
        <ele>812.09</ele>
        <time>2025-04-15T21:18:31.438Z</time>
      </trkpt>
      <trkpt lat="44.8157" lon="3.72917">
        <ele>811.94</ele>
        <time>2025-04-15T21:18:43.650Z</time>
      </trkpt>
      <trkpt lat="44.81551" lon="3.72909">
        <ele>811.87</ele>
        <time>2025-04-15T21:18:55.865Z</time>
      </trkpt>
      <trkpt lat="44.81531" lon="3.729">
        <ele>811.81</ele>
        <time>2025-04-15T21:19:08.083Z</time>
      </trkpt>
      <trkpt lat="44.81514" lon="3.72887">
        <ele>811.74</ele>
        <time>2025-04-15T21:19:20.304Z</time>
      </trkpt>
      <trkpt lat="44.81506" lon="3.7287">
        <ele>811.64</ele>
        <time>2025-04-15T21:19:32.528Z</time>
      </trkpt>
      <trkpt lat="44.81506" lon="3.72846">
        <ele>811.5</ele>
        <time>2025-04-15T21:19:44.754Z</time>
      </trkpt>
      <trkpt lat="44.8151" lon="3.72827">
        <ele>811.4</ele>
        <time>2025-04-15T21:19:56.983Z</time>
      </trkpt>
      <trkpt lat="44.81525" lon="3.7281">
        <ele>811.3</ele>
        <time>2025-04-15T21:20:09.215Z</time>
      </trkpt>
      <trkpt lat="44.81544" lon="3.72793">
        <ele>811.32</ele>
        <time>2025-04-15T21:20:21.450Z</time>
      </trkpt>
      <trkpt lat="44.81564" lon="3.72776">
        <ele>811.49</ele>
        <time>2025-04-15T21:20:33.689Z</time>
      </trkpt>
      <trkpt lat="44.81564" lon="3.72776">
        <ele>811.59</ele>
        <time>2025-04-15T21:20:45.928Z</time>
      </trkpt>
      <trkpt lat="44.81572" lon="3.72761">
        <ele>811.87</ele>
        <time>2025-04-15T21:20:58.169Z</time>
      </trkpt>
      <trkpt lat="44.81572" lon="3.72746">
        <ele>812.1</ele>
        <time>2025-04-15T21:21:10.412Z</time>
      </trkpt>
      <trkpt lat="44.81559" lon="3.7272">
        <ele>812.29</ele>
        <time>2025-04-15T21:21:22.659Z</time>
      </trkpt>
      <trkpt lat="44.81545" lon="3.72702">
        <ele>812.49</ele>
        <time>2025-04-15T21:21:34.909Z</time>
      </trkpt>
      <trkpt lat="44.81531" lon="3.72683">
        <ele>812.75</ele>
        <time>2025-04-15T21:21:47.162Z</time>
      </trkpt>
      <trkpt lat="44.81512" lon="3.72653">
        <ele>813.04</ele>
        <time>2025-04-15T21:21:59.419Z</time>
      </trkpt>
      <trkpt lat="44.81492" lon="3.72624">
        <ele>813.45</ele>
        <time>2025-04-15T21:22:11.681Z</time>
      </trkpt>
      <trkpt lat="44.81473" lon="3.72594">
        <ele>813.83</ele>
        <time>2025-04-15T21:22:23.948Z</time>
      </trkpt>
      <trkpt lat="44.81453" lon="3.72564">
        <ele>814.12</ele>
        <time>2025-04-15T21:22:36.219Z</time>
      </trkpt>
      <trkpt lat="44.81434" lon="3.72534">
        <ele>814.51</ele>
        <time>2025-04-15T21:22:48.495Z</time>
      </trkpt>
      <trkpt lat="44.81414" lon="3.72504">
        <ele>814.87</ele>
        <time>2025-04-15T21:23:00.775Z</time>
      </trkpt>
      <trkpt lat="44.81394" lon="3.72475">
        <ele>815.24</ele>
        <time>2025-04-15T21:23:13.060Z</time>
      </trkpt>
      <trkpt lat="44.81375" lon="3.72445">
        <ele>815.73</ele>
        <time>2025-04-15T21:23:25.350Z</time>
      </trkpt>
      <trkpt lat="44.81355" lon="3.72415">
        <ele>816.16</ele>
        <time>2025-04-15T21:23:37.644Z</time>
      </trkpt>
      <trkpt lat="44.81335" lon="3.72391">
        <ele>816.54</ele>
        <time>2025-04-15T21:23:49.942Z</time>
      </trkpt>
      <trkpt lat="44.81315" lon="3.72367">
        <ele>816.95</ele>
        <time>2025-04-15T21:24:02.245Z</time>
      </trkpt>
      <trkpt lat="44.81294" lon="3.72343">
        <ele>817.37</ele>
        <time>2025-04-15T21:24:14.552Z</time>
      </trkpt>
      <trkpt lat="44.81274" lon="3.72319">
        <ele>817.8</ele>
        <time>2025-04-15T21:24:26.863Z</time>
      </trkpt>
      <trkpt lat="44.81254" lon="3.72292">
        <ele>818.19</ele>
        <time>2025-04-15T21:24:39.179Z</time>
      </trkpt>
      <trkpt lat="44.81233" lon="3.72266">
        <ele>818.52</ele>
        <time>2025-04-15T21:24:51.499Z</time>
      </trkpt>
      <trkpt lat="44.81213" lon="3.7224">
        <ele>818.94</ele>
        <time>2025-04-15T21:25:03.824Z</time>
      </trkpt>
      <trkpt lat="44.81192" lon="3.72214">
        <ele>819.38</ele>
        <time>2025-04-15T21:25:16.153Z</time>
      </trkpt>
      <trkpt lat="44.81172" lon="3.72188">
        <ele>819.78</ele>
        <time>2025-04-15T21:25:28.486Z</time>
      </trkpt>
      <trkpt lat="44.81152" lon="3.72162">
        <ele>820.11</ele>
        <time>2025-04-15T21:25:40.824Z</time>
      </trkpt>
      <trkpt lat="44.81132" lon="3.7213">
        <ele>820.42</ele>
        <time>2025-04-15T21:25:53.167Z</time>
      </trkpt>
      <trkpt lat="44.81126" lon="3.72095">
        <ele>820.76</ele>
        <time>2025-04-15T21:26:05.514Z</time>
      </trkpt>
      <trkpt lat="44.81124" lon="3.72078">
        <ele>821.04</ele>
        <time>2025-04-15T21:26:17.863Z</time>
      </trkpt>
      <trkpt lat="44.8113" lon="3.72057">
        <ele>821.34</ele>
        <time>2025-04-15T21:26:30.214Z</time>
      </trkpt>
      <trkpt lat="44.81147" lon="3.72037">
        <ele>821.65</ele>
        <time>2025-04-15T21:26:42.569Z</time>
      </trkpt>
      <trkpt lat="44.81171" lon="3.72027">
        <ele>822.03</ele>
        <time>2025-04-15T21:26:54.928Z</time>
      </trkpt>
      <trkpt lat="44.81198" lon="3.72028">
        <ele>822.49</ele>
        <time>2025-04-15T21:27:07.291Z</time>
      </trkpt>
      <trkpt lat="44.81225" lon="3.7203">
        <ele>822.88</ele>
        <time>2025-04-15T21:27:19.658Z</time>
      </trkpt>
      <trkpt lat="44.81252" lon="3.72031">
        <ele>823.19</ele>
        <time>2025-04-15T21:27:32.030Z</time>
      </trkpt>
      <trkpt lat="44.81276" lon="3.72037">
        <ele>823.48</ele>
        <time>2025-04-15T21:27:44.406Z</time>
      </trkpt>
      <trkpt lat="44.81301" lon="3.7205">
        <ele>823.78</ele>
        <time>2025-04-15T21:27:56.786Z</time>
      </trkpt>
      <trkpt lat="44.81327" lon="3.72062">
        <ele>824.1</ele>
        <time>2025-04-15T21:28:09.170Z</time>
      </trkpt>
      <trkpt lat="44.81352" lon="3.72075">
        <ele>824.5</ele>
        <time>2025-04-15T21:28:21.558Z</time>
      </trkpt>
      <trkpt lat="44.81377" lon="3.72087">
        <ele>824.82</ele>
        <time>2025-04-15T21:28:33.951Z</time>
      </trkpt>
      <trkpt lat="44.81403" lon="3.721">
        <ele>825.08</ele>
        <time>2025-04-15T21:28:46.348Z</time>
      </trkpt>
      <trkpt lat="44.81426" lon="3.72104">
        <ele>825.37</ele>
        <time>2025-04-15T21:28:58.749Z</time>
      </trkpt>
      <trkpt lat="44.81442" lon="3.72103">
        <ele>825.6</ele>
        <time>2025-04-15T21:29:11.152Z</time>
      </trkpt>
      <trkpt lat="44.81458" lon="3.72102">
        <ele>825.8</ele>
        <time>2025-04-15T21:29:23.558Z</time>
      </trkpt>
      <trkpt lat="44.81478" lon="3.7209">
        <ele>825.83</ele>
        <time>2025-04-15T21:29:35.968Z</time>
      </trkpt>
      <trkpt lat="44.81499" lon="3.72078">
        <ele>825.89</ele>
        <time>2025-04-15T21:29:48.381Z</time>
      </trkpt>
      <trkpt lat="44.81519" lon="3.72065">
        <ele>826.07</ele>
        <time>2025-04-15T21:30:00.798Z</time>
      </trkpt>
      <trkpt lat="44.81531" lon="3.72055">
        <ele>826.29</ele>
        <time>2025-04-15T21:30:13.217Z</time>
      </trkpt>
      <trkpt lat="44.8154" lon="3.72044">
        <ele>826.51</ele>
        <time>2025-04-15T21:30:25.638Z</time>
      </trkpt>
      <trkpt lat="44.81546" lon="3.72016">
        <ele>826.77</ele>
        <time>2025-04-15T21:30:38.062Z</time>
      </trkpt>
      <trkpt lat="44.81545" lon="3.71976">
        <ele>826.95</ele>
        <time>2025-04-15T21:30:50.491Z</time>
      </trkpt>
      <trkpt lat="44.81544" lon="3.71937">
        <ele>827.2</ele>
        <time>2025-04-15T21:31:02.924Z</time>
      </trkpt>
      <trkpt lat="44.81544" lon="3.71937">
        <ele>827.44</ele>
        <time>2025-04-15T21:31:15.357Z</time>
      </trkpt>
      <trkpt lat="44.81544" lon="3.71909">
        <ele>827.71</ele>
        <time>2025-04-15T21:31:27.793Z</time>
      </trkpt>
      <trkpt lat="44.81544" lon="3.71881">
        <ele>828</ele>
        <time>2025-04-15T21:31:40.233Z</time>
      </trkpt>
      <trkpt lat="44.81544" lon="3.71881">
        <ele>828.26</ele>
        <time>2025-04-15T21:31:52.673Z</time>
      </trkpt>
      <trkpt lat="44.81544" lon="3.71839">
        <ele>828.58</ele>
        <time>2025-04-15T21:32:05.117Z</time>
      </trkpt>
      <trkpt lat="44.81543" lon="3.71798">
        <ele>828.93</ele>
        <time>2025-04-15T21:32:17.566Z</time>
      </trkpt>
      <trkpt lat="44.81542" lon="3.71756">
        <ele>829.22</ele>
        <time>2025-04-15T21:32:30.020Z</time>
      </trkpt>
      <trkpt lat="44.81542" lon="3.71756">
        <ele>829.5</ele>
        <time>2025-04-15T21:32:42.474Z</time>
      </trkpt>
      <trkpt lat="44.81542" lon="3.71725">
        <ele>829.81</ele>
        <time>2025-04-15T21:32:54.931Z</time>
      </trkpt>
      <trkpt lat="44.81542" lon="3.71694">
        <ele>830.1</ele>
        <time>2025-04-15T21:33:07.392Z</time>
      </trkpt>
      <trkpt lat="44.81549" lon="3.71662">
        <ele>830.45</ele>
        <time>2025-04-15T21:33:19.857Z</time>
      </trkpt>
      <trkpt lat="44.81549" lon="3.71662">
        <ele>830.76</ele>
        <time>2025-04-15T21:33:32.322Z</time>
      </trkpt>
      <trkpt lat="44.81566" lon="3.71625">
        <ele>831.13</ele>
        <time>2025-04-15T21:33:44.792Z</time>
      </trkpt>
      <trkpt lat="44.81581" lon="3.71612">
        <ele>831.47</ele>
        <time>2025-04-15T21:33:57.264Z</time>
      </trkpt>
      <trkpt lat="44.81596" lon="3.71598">
        <ele>831.77</ele>
        <time>2025-04-15T21:34:09.739Z</time>
      </trkpt>
      <trkpt lat="44.81622" lon="3.71591">
        <ele>832.15</ele>
        <time>2025-04-15T21:34:22.219Z</time>
      </trkpt>
      <trkpt lat="44.81641" lon="3.71589">
        <ele>832.49</ele>
        <time>2025-04-15T21:34:34.702Z</time>
      </trkpt>
      <trkpt lat="44.8166" lon="3.71587">
        <ele>832.83</ele>
        <time>2025-04-15T21:34:47.188Z</time>
      </trkpt>
      <trkpt lat="44.8169" lon="3.71588">
        <ele>833.22</ele>
        <time>2025-04-15T21:34:59.679Z</time>
      </trkpt>
      <trkpt lat="44.8172" lon="3.71589">
        <ele>833.53</ele>
        <time>2025-04-15T21:35:12.174Z</time>
      </trkpt>
      <trkpt lat="44.81737" lon="3.71585">
        <ele>833.86</ele>
        <time>2025-04-15T21:35:24.672Z</time>
      </trkpt>
      <trkpt lat="44.81765" lon="3.71565">
        <ele>834.19</ele>
        <time>2025-04-15T21:35:37.175Z</time>
      </trkpt>
      <trkpt lat="44.81793" lon="3.71546">
        <ele>834.71</ele>
        <time>2025-04-15T21:35:49.683Z</time>
      </trkpt>
      <trkpt lat="44.81808" lon="3.71525">
        <ele>835.08</ele>
        <time>2025-04-15T21:36:02.194Z</time>
      </trkpt>
      <trkpt lat="44.81824" lon="3.71487">
        <ele>835.33</ele>
        <time>2025-04-15T21:36:14.711Z</time>
      </trkpt>
      <trkpt lat="44.8184" lon="3.71449">
        <ele>835.61</ele>
        <time>2025-04-15T21:36:27.233Z</time>
      </trkpt>
      <trkpt lat="44.81855" lon="3.71411">
        <ele>836.24</ele>
        <time>2025-04-15T21:36:39.759Z</time>
      </trkpt>
      <trkpt lat="44.81855" lon="3.71411">
        <ele>836.63</ele>
        <time>2025-04-15T21:36:52.285Z</time>
      </trkpt>
      <trkpt lat="44.81858" lon="3.71383">
        <ele>837.07</ele>
        <time>2025-04-15T21:37:04.815Z</time>
      </trkpt>
      <trkpt lat="44.81852" lon="3.71342">
        <ele>837.38</ele>
        <time>2025-04-15T21:37:17.349Z</time>
      </trkpt>
      <trkpt lat="44.81846" lon="3.71301">
        <ele>837.76</ele>
        <time>2025-04-15T21:37:29.888Z</time>
      </trkpt>
      <trkpt lat="44.8184" lon="3.71261">
        <ele>838.19</ele>
        <time>2025-04-15T21:37:42.432Z</time>
      </trkpt>
      <trkpt lat="44.81828" lon="3.71233">
        <ele>838.57</ele>
        <time>2025-04-15T21:37:54.980Z</time>
      </trkpt>
      <trkpt lat="44.81813" lon="3.71224">
        <ele>838.94</ele>
        <time>2025-04-15T21:38:07.530Z</time>
      </trkpt>
      <trkpt lat="44.81798" lon="3.71216">
        <ele>839.44</ele>
        <time>2025-04-15T21:38:20.083Z</time>
      </trkpt>
      <trkpt lat="44.81798" lon="3.71216">
        <ele>839.89</ele>
        <time>2025-04-15T21:38:32.636Z</time>
      </trkpt>
      <trkpt lat="44.81767" lon="3.71203">
        <ele>840.72</ele>
        <time>2025-04-15T21:38:45.194Z</time>
      </trkpt>
      <trkpt lat="44.81767" lon="3.71203">
        <ele>841.18</ele>
        <time>2025-04-15T21:38:57.752Z</time>
      </trkpt>
      <trkpt lat="44.81757" lon="3.71201">
        <ele>841.84</ele>
        <time>2025-04-15T21:39:10.312Z</time>
      </trkpt>
      <trkpt lat="44.81757" lon="3.71201">
        <ele>842.3</ele>
        <time>2025-04-15T21:39:22.872Z</time>
      </trkpt>
      <trkpt lat="44.81752" lon="3.71188">
        <ele>842.84</ele>
        <time>2025-04-15T21:39:35.433Z</time>
      </trkpt>
      <trkpt lat="44.81754" lon="3.71148">
        <ele>843.15</ele>
        <time>2025-04-15T21:39:47.999Z</time>
      </trkpt>
      <trkpt lat="44.81755" lon="3.71108">
        <ele>843.58</ele>
        <time>2025-04-15T21:40:00.569Z</time>
      </trkpt>
      <trkpt lat="44.81756" lon="3.71068">
        <ele>844.07</ele>
        <time>2025-04-15T21:40:13.144Z</time>
      </trkpt>
      <trkpt lat="44.81757" lon="3.71029">
        <ele>844.43</ele>
        <time>2025-04-15T21:40:25.723Z</time>
      </trkpt>
      <trkpt lat="44.8175" lon="3.71009">
        <ele>844.88</ele>
        <time>2025-04-15T21:40:38.305Z</time>
      </trkpt>
      <trkpt lat="44.81744" lon="3.70988">
        <ele>845.4</ele>
        <time>2025-04-15T21:40:50.889Z</time>
      </trkpt>
      <trkpt lat="44.81749" lon="3.70949">
        <ele>845.81</ele>
        <time>2025-04-15T21:41:03.478Z</time>
      </trkpt>
      <trkpt lat="44.81754" lon="3.70911">
        <ele>846.32</ele>
        <time>2025-04-15T21:41:16.071Z</time>
      </trkpt>
      <trkpt lat="44.81759" lon="3.70872">
        <ele>846.71</ele>
        <time>2025-04-15T21:41:28.669Z</time>
      </trkpt>
      <trkpt lat="44.81759" lon="3.70836">
        <ele>847.11</ele>
        <time>2025-04-15T21:41:41.271Z</time>
      </trkpt>
      <trkpt lat="44.81751" lon="3.70814">
        <ele>847.59</ele>
        <time>2025-04-15T21:41:53.876Z</time>
      </trkpt>
      <trkpt lat="44.81744" lon="3.70793">
        <ele>848.02</ele>
        <time>2025-04-15T21:42:06.483Z</time>
      </trkpt>
      <trkpt lat="44.8172" lon="3.70773">
        <ele>848.59</ele>
        <time>2025-04-15T21:42:19.095Z</time>
      </trkpt>
      <trkpt lat="44.81697" lon="3.70753">
        <ele>849.09</ele>
        <time>2025-04-15T21:42:31.711Z</time>
      </trkpt>
      <trkpt lat="44.81673" lon="3.70733">
        <ele>849.62</ele>
        <time>2025-04-15T21:42:44.332Z</time>
      </trkpt>
      <trkpt lat="44.81649" lon="3.70714">
        <ele>850.15</ele>
        <time>2025-04-15T21:42:56.957Z</time>
      </trkpt>
      <trkpt lat="44.81635" lon="3.707">
        <ele>850.67</ele>
        <time>2025-04-15T21:43:09.585Z</time>
      </trkpt>
      <trkpt lat="44.81622" lon="3.70686">
        <ele>851.18</ele>
        <time>2025-04-15T21:43:22.216Z</time>
      </trkpt>
      <trkpt lat="44.81607" lon="3.70677">
        <ele>851.71</ele>
        <time>2025-04-15T21:43:34.849Z</time>
      </trkpt>
      <trkpt lat="44.81592" lon="3.70668">
        <ele>852.23</ele>
        <time>2025-04-15T21:43:47.485Z</time>
      </trkpt>
      <trkpt lat="44.81568" lon="3.70664">
        <ele>853.02</ele>
        <time>2025-04-15T21:44:00.125Z</time>
      </trkpt>
      <trkpt lat="44.81549" lon="3.70641">
        <ele>853.4</ele>
        <time>2025-04-15T21:44:12.769Z</time>
      </trkpt>
      <trkpt lat="44.81537" lon="3.70619">
        <ele>853.75</ele>
        <time>2025-04-15T21:44:25.416Z</time>
      </trkpt>
      <trkpt lat="44.81525" lon="3.70598">
        <ele>854.18</ele>
        <time>2025-04-15T21:44:38.066Z</time>
      </trkpt>
      <trkpt lat="44.81512" lon="3.7057">
        <ele>854.6</ele>
        <time>2025-04-15T21:44:50.720Z</time>
      </trkpt>
      <trkpt lat="44.81499" lon="3.70542">
        <ele>854.98</ele>
        <time>2025-04-15T21:45:03.377Z</time>
      </trkpt>
      <trkpt lat="44.81486" lon="3.70527">
        <ele>855.42</ele>
        <time>2025-04-15T21:45:16.037Z</time>
      </trkpt>
      <trkpt lat="44.81476" lon="3.70527">
        <ele>855.89</ele>
        <time>2025-04-15T21:45:28.699Z</time>
      </trkpt>
      <trkpt lat="44.8145" lon="3.70542">
        <ele>856.34</ele>
        <time>2025-04-15T21:45:41.365Z</time>
      </trkpt>
      <trkpt lat="44.81428" lon="3.7057">
        <ele>856.84</ele>
        <time>2025-04-15T21:45:54.036Z</time>
      </trkpt>
      <trkpt lat="44.81406" lon="3.70599">
        <ele>857.25</ele>
        <time>2025-04-15T21:46:06.712Z</time>
      </trkpt>
      <trkpt lat="44.81383" lon="3.70628">
        <ele>857.59</ele>
        <time>2025-04-15T21:46:19.393Z</time>
      </trkpt>
      <trkpt lat="44.81375" lon="3.70653">
        <ele>858.15</ele>
        <time>2025-04-15T21:46:32.077Z</time>
      </trkpt>
      <trkpt lat="44.8137" lon="3.70681">
        <ele>858.83</ele>
        <time>2025-04-15T21:46:44.764Z</time>
      </trkpt>
      <trkpt lat="44.81355" lon="3.70714">
        <ele>859.61</ele>
        <time>2025-04-15T21:46:57.456Z</time>
      </trkpt>
      <trkpt lat="44.81332" lon="3.70724">
        <ele>860.1</ele>
        <time>2025-04-15T21:47:10.152Z</time>
      </trkpt>
      <trkpt lat="44.81309" lon="3.70722">
        <ele>860.44</ele>
        <time>2025-04-15T21:47:22.851Z</time>
      </trkpt>
      <trkpt lat="44.81286" lon="3.7072">
        <ele>860.85</ele>
        <time>2025-04-15T21:47:35.554Z</time>
      </trkpt>
      <trkpt lat="44.81263" lon="3.70718">
        <ele>861.43</ele>
        <time>2025-04-15T21:47:48.261Z</time>
      </trkpt>
      <trkpt lat="44.81245" lon="3.707">
        <ele>861.88</ele>
        <time>2025-04-15T21:48:00.971Z</time>
      </trkpt>
      <trkpt lat="44.81227" lon="3.70681">
        <ele>862.34</ele>
        <time>2025-04-15T21:48:13.685Z</time>
      </trkpt>
      <trkpt lat="44.8121" lon="3.7066">
        <ele>862.66</ele>
        <time>2025-04-15T21:48:26.402Z</time>
      </trkpt>
      <trkpt lat="44.81192" lon="3.70638">
        <ele>862.94</ele>
        <time>2025-04-15T21:48:39.123Z</time>
      </trkpt>
      <trkpt lat="44.81171" lon="3.70621">
        <ele>863.32</ele>
        <time>2025-04-15T21:48:51.848Z</time>
      </trkpt>
      <trkpt lat="44.81149" lon="3.70604">
        <ele>863.69</ele>
        <time>2025-04-15T21:49:04.577Z</time>
      </trkpt>
      <trkpt lat="44.81128" lon="3.70587">
        <ele>864.06</ele>
        <time>2025-04-15T21:49:17.310Z</time>
      </trkpt>
      <trkpt lat="44.8111" lon="3.70557">
        <ele>864.37</ele>
        <time>2025-04-15T21:49:30.047Z</time>
      </trkpt>
      <trkpt lat="44.81092" lon="3.70528">
        <ele>864.76</ele>
        <time>2025-04-15T21:49:42.789Z</time>
      </trkpt>
      <trkpt lat="44.81073" lon="3.70498">
        <ele>865.17</ele>
        <time>2025-04-15T21:49:55.535Z</time>
      </trkpt>
      <trkpt lat="44.81055" lon="3.70469">
        <ele>865.6</ele>
        <time>2025-04-15T21:50:08.286Z</time>
      </trkpt>
      <trkpt lat="44.81039" lon="3.70438">
        <ele>866.01</ele>
        <time>2025-04-15T21:50:21.041Z</time>
      </trkpt>
      <trkpt lat="44.81023" lon="3.70407">
        <ele>866.37</ele>
        <time>2025-04-15T21:50:33.800Z</time>
      </trkpt>
      <trkpt lat="44.81027" lon="3.70377">
        <ele>866.68</ele>
        <time>2025-04-15T21:50:46.563Z</time>
      </trkpt>
      <trkpt lat="44.81049" lon="3.70344">
        <ele>866.93</ele>
        <time>2025-04-15T21:50:59.331Z</time>
      </trkpt>
      <trkpt lat="44.8107" lon="3.70312">
        <ele>867.2</ele>
        <time>2025-04-15T21:51:12.104Z</time>
      </trkpt>
      <trkpt lat="44.81092" lon="3.7028">
        <ele>867.46</ele>
        <time>2025-04-15T21:51:24.882Z</time>
      </trkpt>
      <trkpt lat="44.81092" lon="3.7028">
        <ele>867.72</ele>
        <time>2025-04-15T21:51:37.660Z</time>
      </trkpt>
      <trkpt lat="44.81102" lon="3.70259">
        <ele>867.93</ele>
        <time>2025-04-15T21:51:50.441Z</time>
      </trkpt>
      <trkpt lat="44.81102" lon="3.70241">
        <ele>868.16</ele>
        <time>2025-04-15T21:52:03.224Z</time>
      </trkpt>
      <trkpt lat="44.81102" lon="3.70241">
        <ele>868.39</ele>
        <time>2025-04-15T21:52:16.007Z</time>
      </trkpt>
      <trkpt lat="44.81096" lon="3.70222">
        <ele>868.6</ele>
        <time>2025-04-15T21:52:28.792Z</time>
      </trkpt>
      <trkpt lat="44.81071" lon="3.70201">
        <ele>868.81</ele>
        <time>2025-04-15T21:52:41.582Z</time>
      </trkpt>
      <trkpt lat="44.81046" lon="3.70179">
        <ele>869.04</ele>
        <time>2025-04-15T21:52:54.377Z</time>
      </trkpt>
      <trkpt lat="44.81021" lon="3.70158">
        <ele>869.27</ele>
        <time>2025-04-15T21:53:07.177Z</time>
      </trkpt>
      <trkpt lat="44.80996" lon="3.70151">
        <ele>869.54</ele>
        <time>2025-04-15T21:53:19.981Z</time>
      </trkpt>
      <trkpt lat="44.80971" lon="3.70145">
        <ele>869.79</ele>
        <time>2025-04-15T21:53:32.789Z</time>
      </trkpt>
      <trkpt lat="44.8095" lon="3.7013">
        <ele>870.01</ele>
        <time>2025-04-15T21:53:45.600Z</time>
      </trkpt>
      <trkpt lat="44.80934" lon="3.70109">
        <ele>870.22</ele>
        <time>2025-04-15T21:53:58.415Z</time>
      </trkpt>
      <trkpt lat="44.80918" lon="3.70089">
        <ele>870.39</ele>
        <time>2025-04-15T21:54:11.233Z</time>
      </trkpt>
      <trkpt lat="44.80895" lon="3.70067">
        <ele>870.59</ele>
        <time>2025-04-15T21:54:24.056Z</time>
      </trkpt>
      <trkpt lat="44.80873" lon="3.70044">
        <ele>870.87</ele>
        <time>2025-04-15T21:54:36.883Z</time>
      </trkpt>
      <trkpt lat="44.80859" lon="3.70021">
        <ele>871.06</ele>
        <time>2025-04-15T21:54:49.714Z</time>
      </trkpt>
      <trkpt lat="44.80845" lon="3.69999">
        <ele>871.23</ele>
        <time>2025-04-15T21:55:02.548Z</time>
      </trkpt>
      <trkpt lat="44.80832" lon="3.69963">
        <ele>871.28</ele>
        <time>2025-04-15T21:55:15.387Z</time>
      </trkpt>
      <trkpt lat="44.8082" lon="3.69927">
        <ele>871.4</ele>
        <time>2025-04-15T21:55:28.230Z</time>
      </trkpt>
      <trkpt lat="44.80808" lon="3.69891">
        <ele>871.68</ele>
        <time>2025-04-15T21:55:41.078Z</time>
      </trkpt>
      <trkpt lat="44.80795" lon="3.69855">
        <ele>871.8</ele>
        <time>2025-04-15T21:55:53.930Z</time>
      </trkpt>
      <trkpt lat="44.80789" lon="3.6983">
        <ele>871.87</ele>
        <time>2025-04-15T21:56:06.785Z</time>
      </trkpt>
      <trkpt lat="44.80783" lon="3.69806">
        <ele>871.91</ele>
        <time>2025-04-15T21:56:19.643Z</time>
      </trkpt>
      <trkpt lat="44.8078" lon="3.69762">
        <ele>871.71</ele>
        <time>2025-04-15T21:56:32.506Z</time>
      </trkpt>
      <trkpt lat="44.80778" lon="3.69718">
        <ele>871.76</ele>
        <time>2025-04-15T21:56:45.374Z</time>
      </trkpt>
      <trkpt lat="44.80779" lon="3.69681">
        <ele>871.76</ele>
        <time>2025-04-15T21:56:58.246Z</time>
      </trkpt>
      <trkpt lat="44.8078" lon="3.69645">
        <ele>871.72</ele>
        <time>2025-04-15T21:57:11.122Z</time>
      </trkpt>
      <trkpt lat="44.80785" lon="3.69611">
        <ele>871.78</ele>
        <time>2025-04-15T21:57:24.002Z</time>
      </trkpt>
      <trkpt lat="44.80774" lon="3.69613">
        <ele>871.94</ele>
        <time>2025-04-15T21:57:36.884Z</time>
      </trkpt>
      <trkpt lat="44.80748" lon="3.69613">
        <ele>872.13</ele>
        <time>2025-04-15T21:57:49.770Z</time>
      </trkpt>
      <trkpt lat="44.80722" lon="3.69618">
        <ele>872.34</ele>
        <time>2025-04-15T21:58:02.660Z</time>
      </trkpt>
      <trkpt lat="44.80697" lon="3.69623">
        <ele>872.54</ele>
        <time>2025-04-15T21:58:15.555Z</time>
      </trkpt>
      <trkpt lat="44.80671" lon="3.69628">
        <ele>872.74</ele>
        <time>2025-04-15T21:58:28.454Z</time>
      </trkpt>
      <trkpt lat="44.80652" lon="3.69641">
        <ele>872.99</ele>
        <time>2025-04-15T21:58:41.356Z</time>
      </trkpt>
      <trkpt lat="44.80632" lon="3.69654">
        <ele>873.21</ele>
        <time>2025-04-15T21:58:54.262Z</time>
      </trkpt>
      <trkpt lat="44.80613" lon="3.69671">
        <ele>873.44</ele>
        <time>2025-04-15T21:59:07.171Z</time>
      </trkpt>
      <trkpt lat="44.80594" lon="3.69688">
        <ele>873.63</ele>
        <time>2025-04-15T21:59:20.084Z</time>
      </trkpt>
      <trkpt lat="44.80574" lon="3.69718">
        <ele>873.94</ele>
        <time>2025-04-15T21:59:33.002Z</time>
      </trkpt>
      <trkpt lat="44.80555" lon="3.69748">
        <ele>874.33</ele>
        <time>2025-04-15T21:59:45.924Z</time>
      </trkpt>
      <trkpt lat="44.80534" lon="3.69767">
        <ele>874.68</ele>
        <time>2025-04-15T21:59:58.850Z</time>
      </trkpt>
      <trkpt lat="44.80511" lon="3.69784">
        <ele>875.12</ele>
        <time>2025-04-15T22:00:11.780Z</time>
      </trkpt>
      <trkpt lat="44.80489" lon="3.69802">
        <ele>875.46</ele>
        <time>2025-04-15T22:00:24.714Z</time>
      </trkpt>
      <trkpt lat="44.80476" lon="3.69808">
        <ele>875.77</ele>
        <time>2025-04-15T22:00:37.651Z</time>
      </trkpt>
      <trkpt lat="44.80461" lon="3.69812">
        <ele>876.09</ele>
        <time>2025-04-15T22:00:50.590Z</time>
      </trkpt>
      <trkpt lat="44.80436" lon="3.69811">
        <ele>876.45</ele>
        <time>2025-04-15T22:01:03.533Z</time>
      </trkpt>
      <trkpt lat="44.80412" lon="3.69809">
        <ele>876.83</ele>
        <time>2025-04-15T22:01:16.480Z</time>
      </trkpt>
      <trkpt lat="44.80388" lon="3.69808">
        <ele>877.18</ele>
        <time>2025-04-15T22:01:29.431Z</time>
      </trkpt>
      <trkpt lat="44.80359" lon="3.69802">
        <ele>877.54</ele>
        <time>2025-04-15T22:01:42.386Z</time>
      </trkpt>
      <trkpt lat="44.8033" lon="3.69795">
        <ele>877.95</ele>
        <time>2025-04-15T22:01:55.346Z</time>
      </trkpt>
      <trkpt lat="44.80313" lon="3.69799">
        <ele>878.35</ele>
        <time>2025-04-15T22:02:08.309Z</time>
      </trkpt>
      <trkpt lat="44.80313" lon="3.69799">
        <ele>878.65</ele>
        <time>2025-04-15T22:02:21.272Z</time>
      </trkpt>
      <trkpt lat="44.80306" lon="3.69804">
        <ele>878.96</ele>
        <time>2025-04-15T22:02:34.236Z</time>
      </trkpt>
      <trkpt lat="44.80291" lon="3.69818">
        <ele>879.29</ele>
        <time>2025-04-15T22:02:47.203Z</time>
      </trkpt>
      <trkpt lat="44.80276" lon="3.69832">
        <ele>879.54</ele>
        <time>2025-04-15T22:03:00.173Z</time>
      </trkpt>
      <trkpt lat="44.80258" lon="3.69854">
        <ele>879.74</ele>
        <time>2025-04-15T22:03:13.147Z</time>
      </trkpt>
      <trkpt lat="44.8024" lon="3.69877">
        <ele>879.88</ele>
        <time>2025-04-15T22:03:26.125Z</time>
      </trkpt>
      <trkpt lat="44.80226" lon="3.69905">
        <ele>880.08</ele>
        <time>2025-04-15T22:03:39.107Z</time>
      </trkpt>
      <trkpt lat="44.80212" lon="3.69933">
        <ele>880.25</ele>
        <time>2025-04-15T22:03:52.092Z</time>
      </trkpt>
      <trkpt lat="44.80198" lon="3.6996">
        <ele>880.42</ele>
        <time>2025-04-15T22:04:05.081Z</time>
      </trkpt>
      <trkpt lat="44.80184" lon="3.69988">
        <ele>880.58</ele>
        <time>2025-04-15T22:04:18.074Z</time>
      </trkpt>
      <trkpt lat="44.80184" lon="3.69988">
        <ele>880.78</ele>
        <time>2025-04-15T22:04:31.067Z</time>
      </trkpt>
      <trkpt lat="44.80165" lon="3.70022">
        <ele>880.98</ele>
        <time>2025-04-15T22:04:44.065Z</time>
      </trkpt>
      <trkpt lat="44.80145" lon="3.70055">
        <ele>881.37</ele>
        <time>2025-04-15T22:04:57.068Z</time>
      </trkpt>
      <trkpt lat="44.80129" lon="3.70072">
        <ele>881.46</ele>
        <time>2025-04-15T22:05:10.074Z</time>
      </trkpt>
      <trkpt lat="44.80113" lon="3.70089">
        <ele>881.69</ele>
        <time>2025-04-15T22:05:23.083Z</time>
      </trkpt>
      <trkpt lat="44.80087" lon="3.70111">
        <ele>881.88</ele>
        <time>2025-04-15T22:05:36.097Z</time>
      </trkpt>
      <trkpt lat="44.80062" lon="3.70132">
        <ele>882.15</ele>
        <time>2025-04-15T22:05:49.116Z</time>
      </trkpt>
      <trkpt lat="44.80034" lon="3.70144">
        <ele>882.38</ele>
        <time>2025-04-15T22:06:02.140Z</time>
      </trkpt>
      <trkpt lat="44.80006" lon="3.70156">
        <ele>882.46</ele>
        <time>2025-04-15T22:06:15.168Z</time>
      </trkpt>
      <trkpt lat="44.79978" lon="3.70168">
        <ele>882.54</ele>
        <time>2025-04-15T22:06:28.201Z</time>
      </trkpt>
      <trkpt lat="44.7995" lon="3.7018">
        <ele>882.68</ele>
        <time>2025-04-15T22:06:41.239Z</time>
      </trkpt>
      <trkpt lat="44.79922" lon="3.70192">
        <ele>882.72</ele>
        <time>2025-04-15T22:06:54.281Z</time>
      </trkpt>
      <trkpt lat="44.79898" lon="3.70204">
        <ele>882.78</ele>
        <time>2025-04-15T22:07:07.327Z</time>
      </trkpt>
      <trkpt lat="44.79873" lon="3.70216">
        <ele>882.92</ele>
        <time>2025-04-15T22:07:20.378Z</time>
      </trkpt>
      <trkpt lat="44.79849" lon="3.70229">
        <ele>883.02</ele>
        <time>2025-04-15T22:07:33.433Z</time>
      </trkpt>
      <trkpt lat="44.79825" lon="3.70248">
        <ele>883.17</ele>
        <time>2025-04-15T22:07:46.492Z</time>
      </trkpt>
      <trkpt lat="44.79801" lon="3.70268">
        <ele>883.22</ele>
        <time>2025-04-15T22:07:59.556Z</time>
      </trkpt>
      <trkpt lat="44.79777" lon="3.70288">
        <ele>883.35</ele>
        <time>2025-04-15T22:08:12.624Z</time>
      </trkpt>
      <trkpt lat="44.79753" lon="3.70308">
        <ele>883.51</ele>
        <time>2025-04-15T22:08:25.697Z</time>
      </trkpt>
      <trkpt lat="44.79729" lon="3.70327">
        <ele>883.61</ele>
        <time>2025-04-15T22:08:38.774Z</time>
      </trkpt>
      <trkpt lat="44.79716" lon="3.70342">
        <ele>883.71</ele>
        <time>2025-04-15T22:08:51.854Z</time>
      </trkpt>
      <trkpt lat="44.79703" lon="3.70364">
        <ele>883.73</ele>
        <time>2025-04-15T22:09:04.937Z</time>
      </trkpt>
      <trkpt lat="44.79695" lon="3.70388">
        <ele>883.84</ele>
        <time>2025-04-15T22:09:18.023Z</time>
      </trkpt>
      <trkpt lat="44.79686" lon="3.70413">
        <ele>884</ele>
        <time>2025-04-15T22:09:31.112Z</time>
      </trkpt>
      <trkpt lat="44.79678" lon="3.70454">
        <ele>884.2</ele>
        <time>2025-04-15T22:09:44.206Z</time>
      </trkpt>
      <trkpt lat="44.7967" lon="3.70495">
        <ele>884.45</ele>
        <time>2025-04-15T22:09:57.305Z</time>
      </trkpt>
      <trkpt lat="44.79662" lon="3.70536">
        <ele>884.68</ele>
        <time>2025-04-15T22:10:10.409Z</time>
      </trkpt>
      <trkpt lat="44.79654" lon="3.70577">
        <ele>884.84</ele>
        <time>2025-04-15T22:10:23.517Z</time>
      </trkpt>
      <trkpt lat="44.79646" lon="3.70617">
        <ele>885.07</ele>
        <time>2025-04-15T22:10:36.630Z</time>
      </trkpt>
      <trkpt lat="44.79638" lon="3.70658">
        <ele>885.31</ele>
        <time>2025-04-15T22:10:49.748Z</time>
      </trkpt>
      <trkpt lat="44.7963" lon="3.70699">
        <ele>885.48</ele>
        <time>2025-04-15T22:11:02.871Z</time>
      </trkpt>
      <trkpt lat="44.79622" lon="3.70739">
        <ele>885.64</ele>
        <time>2025-04-15T22:11:15.999Z</time>
      </trkpt>
      <trkpt lat="44.79613" lon="3.70765">
        <ele>885.97</ele>
        <time>2025-04-15T22:11:29.130Z</time>
      </trkpt>
      <trkpt lat="44.79602" lon="3.70789">
        <ele>886.28</ele>
        <time>2025-04-15T22:11:42.264Z</time>
      </trkpt>
      <trkpt lat="44.7958" lon="3.70814">
        <ele>886.48</ele>
        <time>2025-04-15T22:11:55.403Z</time>
      </trkpt>
      <trkpt lat="44.79557" lon="3.7084">
        <ele>886.71</ele>
        <time>2025-04-15T22:12:08.546Z</time>
      </trkpt>
      <trkpt lat="44.79544" lon="3.70868">
        <ele>887.13</ele>
        <time>2025-04-15T22:12:21.693Z</time>
      </trkpt>
      <trkpt lat="44.7953" lon="3.70896">
        <ele>887.56</ele>
        <time>2025-04-15T22:12:34.844Z</time>
      </trkpt>
      <trkpt lat="44.79517" lon="3.70924">
        <ele>888</ele>
        <time>2025-04-15T22:12:47.999Z</time>
      </trkpt>
      <trkpt lat="44.79503" lon="3.7094">
        <ele>888.36</ele>
        <time>2025-04-15T22:13:01.157Z</time>
      </trkpt>
      <trkpt lat="44.79489" lon="3.70956">
        <ele>888.8</ele>
        <time>2025-04-15T22:13:14.318Z</time>
      </trkpt>
      <trkpt lat="44.79465" lon="3.70967">
        <ele>889.17</ele>
        <time>2025-04-15T22:13:27.483Z</time>
      </trkpt>
      <trkpt lat="44.79439" lon="3.70977">
        <ele>889.48</ele>
        <time>2025-04-15T22:13:40.652Z</time>
      </trkpt>
      <trkpt lat="44.79414" lon="3.70988">
        <ele>889.89</ele>
        <time>2025-04-15T22:13:53.825Z</time>
      </trkpt>
      <trkpt lat="44.79392" lon="3.70992">
        <ele>890.24</ele>
        <time>2025-04-15T22:14:07.002Z</time>
      </trkpt>
      <trkpt lat="44.79375" lon="3.7099">
        <ele>890.65</ele>
        <time>2025-04-15T22:14:20.182Z</time>
      </trkpt>
      <trkpt lat="44.79358" lon="3.70982">
        <ele>891.05</ele>
        <time>2025-04-15T22:14:33.364Z</time>
      </trkpt>
      <trkpt lat="44.79335" lon="3.70957">
        <ele>891.42</ele>
        <time>2025-04-15T22:14:46.551Z</time>
      </trkpt>
      <trkpt lat="44.79312" lon="3.70932">
        <ele>891.87</ele>
        <time>2025-04-15T22:14:59.743Z</time>
      </trkpt>
      <trkpt lat="44.79289" lon="3.70908">
        <ele>892.46</ele>
        <time>2025-04-15T22:15:12.939Z</time>
      </trkpt>
      <trkpt lat="44.79266" lon="3.70883">
        <ele>892.88</ele>
        <time>2025-04-15T22:15:26.140Z</time>
      </trkpt>
      <trkpt lat="44.79245" lon="3.70867">
        <ele>893.37</ele>
        <time>2025-04-15T22:15:39.345Z</time>
      </trkpt>
      <trkpt lat="44.79224" lon="3.70852">
        <ele>893.78</ele>
        <time>2025-04-15T22:15:52.554Z</time>
      </trkpt>
      <trkpt lat="44.79203" lon="3.70836">
        <ele>894.08</ele>
        <time>2025-04-15T22:16:05.766Z</time>
      </trkpt>
      <trkpt lat="44.79179" lon="3.70811">
        <ele>894.39</ele>
        <time>2025-04-15T22:16:18.983Z</time>
      </trkpt>
      <trkpt lat="44.79154" lon="3.70786">
        <ele>894.84</ele>
        <time>2025-04-15T22:16:32.205Z</time>
      </trkpt>
      <trkpt lat="44.79141" lon="3.7078">
        <ele>895.25</ele>
        <time>2025-04-15T22:16:45.429Z</time>
      </trkpt>
      <trkpt lat="44.79124" lon="3.70775">
        <ele>895.59</ele>
        <time>2025-04-15T22:16:58.656Z</time>
      </trkpt>
      <trkpt lat="44.79107" lon="3.70769">
        <ele>895.89</ele>
        <time>2025-04-15T22:17:11.886Z</time>
      </trkpt>
      <trkpt lat="44.79091" lon="3.7077">
        <ele>896.17</ele>
        <time>2025-04-15T22:17:25.118Z</time>
      </trkpt>
      <trkpt lat="44.79075" lon="3.70771">
        <ele>896.48</ele>
        <time>2025-04-15T22:17:38.353Z</time>
      </trkpt>
      <trkpt lat="44.7906" lon="3.70776">
        <ele>896.77</ele>
        <time>2025-04-15T22:17:51.590Z</time>
      </trkpt>
      <trkpt lat="44.79049" lon="3.70782">
        <ele>897.12</ele>
        <time>2025-04-15T22:18:04.829Z</time>
      </trkpt>
      <trkpt lat="44.79029" lon="3.70812">
        <ele>897.56</ele>
        <time>2025-04-15T22:18:18.073Z</time>
      </trkpt>
      <trkpt lat="44.79021" lon="3.70834">
        <ele>897.88</ele>
        <time>2025-04-15T22:18:31.320Z</time>
      </trkpt>
      <trkpt lat="44.79017" lon="3.70857">
        <ele>898.25</ele>
        <time>2025-04-15T22:18:44.570Z</time>
      </trkpt>
      <trkpt lat="44.79017" lon="3.70877">
        <ele>898.65</ele>
        <time>2025-04-15T22:18:57.822Z</time>
      </trkpt>
      <trkpt lat="44.7902" lon="3.70905">
        <ele>899.09</ele>
        <time>2025-04-15T22:19:11.077Z</time>
      </trkpt>
      <trkpt lat="44.79023" lon="3.70932">
        <ele>899.51</ele>
        <time>2025-04-15T22:19:24.335Z</time>
      </trkpt>
      <trkpt lat="44.79021" lon="3.70956">
        <ele>899.84</ele>
        <time>2025-04-15T22:19:37.596Z</time>
      </trkpt>
      <trkpt lat="44.79017" lon="3.70977">
        <ele>900.08</ele>
        <time>2025-04-15T22:19:50.859Z</time>
      </trkpt>
      <trkpt lat="44.79" lon="3.71011">
        <ele>900.28</ele>
        <time>2025-04-15T22:20:04.127Z</time>
      </trkpt>
      <trkpt lat="44.78984" lon="3.71044">
        <ele>900.59</ele>
        <time>2025-04-15T22:20:17.400Z</time>
      </trkpt>
      <trkpt lat="44.78969" lon="3.71061">
        <ele>900.89</ele>
        <time>2025-04-15T22:20:30.676Z</time>
      </trkpt>
      <trkpt lat="44.78954" lon="3.71072">
        <ele>901.22</ele>
        <time>2025-04-15T22:20:43.954Z</time>
      </trkpt>
      <trkpt lat="44.78931" lon="3.71082">
        <ele>901.69</ele>
        <time>2025-04-15T22:20:57.236Z</time>
      </trkpt>
      <trkpt lat="44.78907" lon="3.71091">
        <ele>902.11</ele>
        <time>2025-04-15T22:21:10.522Z</time>
      </trkpt>
      <trkpt lat="44.7889" lon="3.71087">
        <ele>902.36</ele>
        <time>2025-04-15T22:21:23.811Z</time>
      </trkpt>
      <trkpt lat="44.78864" lon="3.71074">
        <ele>902.59</ele>
        <time>2025-04-15T22:21:37.104Z</time>
      </trkpt>
      <trkpt lat="44.78848" lon="3.71053">
        <ele>902.64</ele>
        <time>2025-04-15T22:21:50.401Z</time>
      </trkpt>
      <trkpt lat="44.78833" lon="3.71031">
        <ele>902.75</ele>
        <time>2025-04-15T22:22:03.701Z</time>
      </trkpt>
      <trkpt lat="44.78817" lon="3.7101">
        <ele>902.97</ele>
        <time>2025-04-15T22:22:17.005Z</time>
      </trkpt>
      <trkpt lat="44.78805" lon="3.70989">
        <ele>903.19</ele>
        <time>2025-04-15T22:22:30.312Z</time>
      </trkpt>
      <trkpt lat="44.78793" lon="3.70969">
        <ele>903.39</ele>
        <time>2025-04-15T22:22:43.622Z</time>
      </trkpt>
      <trkpt lat="44.78778" lon="3.70937">
        <ele>903.54</ele>
        <time>2025-04-15T22:22:56.936Z</time>
      </trkpt>
      <trkpt lat="44.78763" lon="3.70904">
        <ele>903.74</ele>
        <time>2025-04-15T22:23:10.255Z</time>
      </trkpt>
      <trkpt lat="44.78748" lon="3.70875">
        <ele>903.9</ele>
        <time>2025-04-15T22:23:23.578Z</time>
      </trkpt>
      <trkpt lat="44.78732" lon="3.70846">
        <ele>903.99</ele>
        <time>2025-04-15T22:23:36.905Z</time>
      </trkpt>
      <trkpt lat="44.78716" lon="3.70817">
        <ele>904.13</ele>
        <time>2025-04-15T22:23:50.236Z</time>
      </trkpt>
      <trkpt lat="44.78712" lon="3.70797">
        <ele>904.2</ele>
        <time>2025-04-15T22:24:03.570Z</time>
      </trkpt>
      <trkpt lat="44.78709" lon="3.70774">
        <ele>904.25</ele>
        <time>2025-04-15T22:24:16.906Z</time>
      </trkpt>
      <trkpt lat="44.78705" lon="3.7075">
        <ele>904.31</ele>
        <time>2025-04-15T22:24:30.245Z</time>
      </trkpt>
      <trkpt lat="44.78693" lon="3.70726">
        <ele>904.41</ele>
        <time>2025-04-15T22:24:43.587Z</time>
      </trkpt>
      <trkpt lat="44.78684" lon="3.70718">
        <ele>904.51</ele>
        <time>2025-04-15T22:24:56.931Z</time>
      </trkpt>
      <trkpt lat="44.78665" lon="3.70716">
        <ele>904.63</ele>
        <time>2025-04-15T22:25:10.278Z</time>
      </trkpt>
      <trkpt lat="44.78643" lon="3.70729">
        <ele>904.84</ele>
        <time>2025-04-15T22:25:23.629Z</time>
      </trkpt>
      <trkpt lat="44.7862" lon="3.70741">
        <ele>905.03</ele>
        <time>2025-04-15T22:25:36.984Z</time>
      </trkpt>
      <trkpt lat="44.78598" lon="3.70754">
        <ele>905.22</ele>
        <time>2025-04-15T22:25:50.343Z</time>
      </trkpt>
      <trkpt lat="44.78598" lon="3.70754">
        <ele>905.37</ele>
        <time>2025-04-15T22:26:03.702Z</time>
      </trkpt>
      <trkpt lat="44.78575" lon="3.70768">
        <ele>905.6</ele>
        <time>2025-04-15T22:26:17.065Z</time>
      </trkpt>
      <trkpt lat="44.78551" lon="3.70781">
        <ele>905.77</ele>
        <time>2025-04-15T22:26:30.432Z</time>
      </trkpt>
      <trkpt lat="44.78527" lon="3.70795">
        <ele>905.83</ele>
        <time>2025-04-15T22:26:43.803Z</time>
      </trkpt>
      <trkpt lat="44.78519" lon="3.70789">
        <ele>905.93</ele>
        <time>2025-04-15T22:26:57.176Z</time>
      </trkpt>
      <trkpt lat="44.78512" lon="3.70793">
        <ele>906.12</ele>
        <time>2025-04-15T22:27:10.550Z</time>
      </trkpt>
      <trkpt lat="44.78508" lon="3.70804">
        <ele>906.34</ele>
        <time>2025-04-15T22:27:23.925Z</time>
      </trkpt>
      <trkpt lat="44.78484" lon="3.7083">
        <ele>906.63</ele>
        <time>2025-04-15T22:27:37.305Z</time>
      </trkpt>
      <trkpt lat="44.78461" lon="3.70857">
        <ele>906.99</ele>
        <time>2025-04-15T22:27:50.690Z</time>
      </trkpt>
      <trkpt lat="44.78448" lon="3.70879">
        <ele>907.35</ele>
        <time>2025-04-15T22:28:04.078Z</time>
      </trkpt>
      <trkpt lat="44.78435" lon="3.709">
        <ele>907.71</ele>
        <time>2025-04-15T22:28:17.469Z</time>
      </trkpt>
      <trkpt lat="44.78423" lon="3.70935">
        <ele>908.1</ele>
        <time>2025-04-15T22:28:30.865Z</time>
      </trkpt>
      <trkpt lat="44.7841" lon="3.70969">
        <ele>908.51</ele>
        <time>2025-04-15T22:28:44.265Z</time>
      </trkpt>
      <trkpt lat="44.78398" lon="3.71003">
        <ele>908.86</ele>
        <time>2025-04-15T22:28:57.669Z</time>
      </trkpt>
      <trkpt lat="44.78385" lon="3.71038">
        <ele>909.3</ele>
        <time>2025-04-15T22:29:11.078Z</time>
      </trkpt>
      <trkpt lat="44.78373" lon="3.71072">
        <ele>909.76</ele>
        <time>2025-04-15T22:29:24.491Z</time>
      </trkpt>
      <trkpt lat="44.78364" lon="3.71104">
        <ele>910.25</ele>
        <time>2025-04-15T22:29:37.908Z</time>
      </trkpt>
      <trkpt lat="44.78354" lon="3.71136">
        <ele>910.87</ele>
        <time>2025-04-15T22:29:51.329Z</time>
      </trkpt>
      <trkpt lat="44.78345" lon="3.71168">
        <ele>911.6</ele>
        <time>2025-04-15T22:30:04.754Z</time>
      </trkpt>
      <trkpt lat="44.78326" lon="3.71203">
        <ele>912.32</ele>
        <time>2025-04-15T22:30:18.184Z</time>
      </trkpt>
      <trkpt lat="44.78301" lon="3.71227">
        <ele>912.85</ele>
        <time>2025-04-15T22:30:31.619Z</time>
      </trkpt>
      <trkpt lat="44.78276" lon="3.71252">
        <ele>913.46</ele>
        <time>2025-04-15T22:30:45.059Z</time>
      </trkpt>
      <trkpt lat="44.78255" lon="3.71277">
        <ele>914.2</ele>
        <time>2025-04-15T22:30:58.503Z</time>
      </trkpt>
      <trkpt lat="44.78233" lon="3.71301">
        <ele>914.96</ele>
        <time>2025-04-15T22:31:11.952Z</time>
      </trkpt>
      <trkpt lat="44.78214" lon="3.71316">
        <ele>915.73</ele>
        <time>2025-04-15T22:31:25.404Z</time>
      </trkpt>
      <trkpt lat="44.78201" lon="3.71321">
        <ele>916.49</ele>
        <time>2025-04-15T22:31:38.858Z</time>
      </trkpt>
      <trkpt lat="44.78184" lon="3.71321">
        <ele>917.29</ele>
        <time>2025-04-15T22:31:52.315Z</time>
      </trkpt>
      <trkpt lat="44.78163" lon="3.7131">
        <ele>918.09</ele>
        <time>2025-04-15T22:32:05.776Z</time>
      </trkpt>
      <trkpt lat="44.78148" lon="3.71293">
        <ele>918.81</ele>
        <time>2025-04-15T22:32:19.240Z</time>
      </trkpt>
      <trkpt lat="44.78133" lon="3.71276">
        <ele>919.63</ele>
        <time>2025-04-15T22:32:32.707Z</time>
      </trkpt>
      <trkpt lat="44.78113" lon="3.71263">
        <ele>920.59</ele>
        <time>2025-04-15T22:32:46.177Z</time>
      </trkpt>
      <trkpt lat="44.78096" lon="3.71245">
        <ele>921.45</ele>
        <time>2025-04-15T22:32:59.651Z</time>
      </trkpt>
      <trkpt lat="44.78079" lon="3.71226">
        <ele>922.29</ele>
        <time>2025-04-15T22:33:13.128Z</time>
      </trkpt>
      <trkpt lat="44.78061" lon="3.71197">
        <ele>922.98</ele>
        <time>2025-04-15T22:33:26.610Z</time>
      </trkpt>
      <trkpt lat="44.78042" lon="3.71168">
        <ele>923.63</ele>
        <time>2025-04-15T22:33:40.096Z</time>
      </trkpt>
      <trkpt lat="44.78019" lon="3.71156">
        <ele>924.39</ele>
        <time>2025-04-15T22:33:53.586Z</time>
      </trkpt>
      <trkpt lat="44.77995" lon="3.71143">
        <ele>925.09</ele>
        <time>2025-04-15T22:34:07.080Z</time>
      </trkpt>
      <trkpt lat="44.7798" lon="3.71141">
        <ele>925.85</ele>
        <time>2025-04-15T22:34:20.576Z</time>
      </trkpt>
      <trkpt lat="44.77963" lon="3.71156">
        <ele>926.58</ele>
        <time>2025-04-15T22:34:34.076Z</time>
      </trkpt>
      <trkpt lat="44.77964" lon="3.71181">
        <ele>927.4</ele>
        <time>2025-04-15T22:34:47.579Z</time>
      </trkpt>
      <trkpt lat="44.77965" lon="3.71207">
        <ele>928.26</ele>
        <time>2025-04-15T22:35:01.085Z</time>
      </trkpt>
      <trkpt lat="44.77963" lon="3.71231">
        <ele>929.1</ele>
        <time>2025-04-15T22:35:14.593Z</time>
      </trkpt>
      <trkpt lat="44.77952" lon="3.71256">
        <ele>929.86</ele>
        <time>2025-04-15T22:35:28.105Z</time>
      </trkpt>
      <trkpt lat="44.77937" lon="3.71277">
        <ele>930.58</ele>
        <time>2025-04-15T22:35:41.620Z</time>
      </trkpt>
      <trkpt lat="44.77922" lon="3.71297">
        <ele>931.32</ele>
        <time>2025-04-15T22:35:55.138Z</time>
      </trkpt>
      <trkpt lat="44.77905" lon="3.7131">
        <ele>932.05</ele>
        <time>2025-04-15T22:36:08.659Z</time>
      </trkpt>
      <trkpt lat="44.77885" lon="3.71316">
        <ele>932.79</ele>
        <time>2025-04-15T22:36:22.184Z</time>
      </trkpt>
      <trkpt lat="44.77864" lon="3.71323">
        <ele>933.56</ele>
        <time>2025-04-15T22:36:35.712Z</time>
      </trkpt>
      <trkpt lat="44.77842" lon="3.71324">
        <ele>934.04</ele>
        <time>2025-04-15T22:36:49.244Z</time>
      </trkpt>
      <trkpt lat="44.7782" lon="3.71324">
        <ele>934.77</ele>
        <time>2025-04-15T22:37:02.779Z</time>
      </trkpt>
      <trkpt lat="44.77798" lon="3.71325">
        <ele>935.4</ele>
        <time>2025-04-15T22:37:16.318Z</time>
      </trkpt>
      <trkpt lat="44.77772" lon="3.71321">
        <ele>935.88</ele>
        <time>2025-04-15T22:37:29.861Z</time>
      </trkpt>
      <trkpt lat="44.77746" lon="3.71316">
        <ele>936.4</ele>
        <time>2025-04-15T22:37:43.408Z</time>
      </trkpt>
      <trkpt lat="44.77721" lon="3.71312">
        <ele>937.06</ele>
        <time>2025-04-15T22:37:56.959Z</time>
      </trkpt>
      <trkpt lat="44.77695" lon="3.71308">
        <ele>937.77</ele>
        <time>2025-04-15T22:38:10.514Z</time>
      </trkpt>
      <trkpt lat="44.7768" lon="3.71297">
        <ele>938.29</ele>
        <time>2025-04-15T22:38:24.072Z</time>
      </trkpt>
      <trkpt lat="44.77668" lon="3.71279">
        <ele>938.67</ele>
        <time>2025-04-15T22:38:37.633Z</time>
      </trkpt>
      <trkpt lat="44.77656" lon="3.71261">
        <ele>939.12</ele>
        <time>2025-04-15T22:38:51.197Z</time>
      </trkpt>
      <trkpt lat="44.77645" lon="3.71241">
        <ele>939.48</ele>
        <time>2025-04-15T22:39:04.764Z</time>
      </trkpt>
      <trkpt lat="44.77635" lon="3.71222">
        <ele>939.68</ele>
        <time>2025-04-15T22:39:18.333Z</time>
      </trkpt>
      <trkpt lat="44.77622" lon="3.7119">
        <ele>939.75</ele>
        <time>2025-04-15T22:39:31.907Z</time>
      </trkpt>
      <trkpt lat="44.77607" lon="3.71171">
        <ele>939.9</ele>
        <time>2025-04-15T22:39:45.484Z</time>
      </trkpt>
      <trkpt lat="44.77594" lon="3.71166">
        <ele>940.19</ele>
        <time>2025-04-15T22:39:59.063Z</time>
      </trkpt>
      <trkpt lat="44.77575" lon="3.71183">
        <ele>940.54</ele>
        <time>2025-04-15T22:40:12.646Z</time>
      </trkpt>
      <trkpt lat="44.77553" lon="3.71213">
        <ele>940.9</ele>
        <time>2025-04-15T22:40:26.233Z</time>
      </trkpt>
      <trkpt lat="44.77528" lon="3.71238">
        <ele>941.23</ele>
        <time>2025-04-15T22:40:39.825Z</time>
      </trkpt>
      <trkpt lat="44.77504" lon="3.71263">
        <ele>941.54</ele>
        <time>2025-04-15T22:40:53.422Z</time>
      </trkpt>
      <trkpt lat="44.77478" lon="3.71281">
        <ele>941.83</ele>
        <time>2025-04-15T22:41:07.024Z</time>
      </trkpt>
      <trkpt lat="44.77452" lon="3.71299">
        <ele>942.19</ele>
        <time>2025-04-15T22:41:20.630Z</time>
      </trkpt>
      <trkpt lat="44.77431" lon="3.71309">
        <ele>942.51</ele>
        <time>2025-04-15T22:41:34.240Z</time>
      </trkpt>
      <trkpt lat="44.77409" lon="3.71319">
        <ele>942.76</ele>
        <time>2025-04-15T22:41:47.854Z</time>
      </trkpt>
      <trkpt lat="44.77387" lon="3.71333">
        <ele>943</ele>
        <time>2025-04-15T22:42:01.471Z</time>
      </trkpt>
      <trkpt lat="44.77365" lon="3.71347">
        <ele>943.37</ele>
        <time>2025-04-15T22:42:15.092Z</time>
      </trkpt>
      <trkpt lat="44.77343" lon="3.71362">
        <ele>943.89</ele>
        <time>2025-04-15T22:42:28.717Z</time>
      </trkpt>
      <trkpt lat="44.77328" lon="3.71357">
        <ele>944.12</ele>
        <time>2025-04-15T22:42:42.345Z</time>
      </trkpt>
      <trkpt lat="44.77317" lon="3.7134">
        <ele>944.16</ele>
        <time>2025-04-15T22:42:55.975Z</time>
      </trkpt>
      <trkpt lat="44.77296" lon="3.71323">
        <ele>944.16</ele>
        <time>2025-04-15T22:43:09.609Z</time>
      </trkpt>
      <trkpt lat="44.77272" lon="3.71322">
        <ele>944.39</ele>
        <time>2025-04-15T22:43:23.247Z</time>
      </trkpt>
      <trkpt lat="44.77248" lon="3.71321">
        <ele>944.63</ele>
        <time>2025-04-15T22:43:36.889Z</time>
      </trkpt>
      <trkpt lat="44.77223" lon="3.71325">
        <ele>944.88</ele>
        <time>2025-04-15T22:43:50.535Z</time>
      </trkpt>
      <trkpt lat="44.77223" lon="3.71325">
        <ele>945.12</ele>
        <time>2025-04-15T22:44:04.181Z</time>
      </trkpt>
      <trkpt lat="44.77205" lon="3.71329">
        <ele>945.38</ele>
        <time>2025-04-15T22:44:17.830Z</time>
      </trkpt>
      <trkpt lat="44.77186" lon="3.71334">
        <ele>945.56</ele>
        <time>2025-04-15T22:44:31.482Z</time>
      </trkpt>
      <trkpt lat="44.77167" lon="3.71344">
        <ele>945.74</ele>
        <time>2025-04-15T22:44:45.137Z</time>
      </trkpt>
      <trkpt lat="44.77152" lon="3.71362">
        <ele>945.92</ele>
        <time>2025-04-15T22:44:58.795Z</time>
      </trkpt>
      <trkpt lat="44.77143" lon="3.71374">
        <ele>946.19</ele>
        <time>2025-04-15T22:45:12.455Z</time>
      </trkpt>
      <trkpt lat="44.77134" lon="3.71409">
        <ele>946.64</ele>
        <time>2025-04-15T22:45:26.120Z</time>
      </trkpt>
      <trkpt lat="44.77124" lon="3.71443">
        <ele>947</ele>
        <time>2025-04-15T22:45:39.789Z</time>
      </trkpt>
      <trkpt lat="44.77109" lon="3.71467">
        <ele>947.32</ele>
        <time>2025-04-15T22:45:53.461Z</time>
      </trkpt>
      <trkpt lat="44.77094" lon="3.7148">
        <ele>947.72</ele>
        <time>2025-04-15T22:46:07.136Z</time>
      </trkpt>
      <trkpt lat="44.77068" lon="3.7149">
        <ele>948.09</ele>
        <time>2025-04-15T22:46:20.815Z</time>
      </trkpt>
      <trkpt lat="44.77042" lon="3.71501">
        <ele>948.54</ele>
        <time>2025-04-15T22:46:34.499Z</time>
      </trkpt>
      <trkpt lat="44.77025" lon="3.71514">
        <ele>949.01</ele>
        <time>2025-04-15T22:46:48.186Z</time>
      </trkpt>
      <trkpt lat="44.77008" lon="3.71527">
        <ele>949.47</ele>
        <time>2025-04-15T22:47:01.876Z</time>
      </trkpt>
      <trkpt lat="44.76992" lon="3.71532">
        <ele>949.82</ele>
        <time>2025-04-15T22:47:15.569Z</time>
      </trkpt>
      <trkpt lat="44.76976" lon="3.71537">
        <ele>950.2</ele>
        <time>2025-04-15T22:47:29.264Z</time>
      </trkpt>
      <trkpt lat="44.76952" lon="3.71542">
        <ele>950.63</ele>
        <time>2025-04-15T22:47:42.963Z</time>
      </trkpt>
      <trkpt lat="44.76923" lon="3.71542">
        <ele>951.15</ele>
        <time>2025-04-15T22:47:56.667Z</time>
      </trkpt>
      <trkpt lat="44.76894" lon="3.71542">
        <ele>951.76</ele>
        <time>2025-04-15T22:48:10.375Z</time>
      </trkpt>
      <trkpt lat="44.76869" lon="3.71537">
        <ele>952.19</ele>
        <time>2025-04-15T22:48:24.088Z</time>
      </trkpt>
      <trkpt lat="44.76843" lon="3.71533">
        <ele>952.64</ele>
        <time>2025-04-15T22:48:37.805Z</time>
      </trkpt>
      <trkpt lat="44.76825" lon="3.71526">
        <ele>952.99</ele>
        <time>2025-04-15T22:48:51.525Z</time>
      </trkpt>
      <trkpt lat="44.76806" lon="3.71518">
        <ele>953.31</ele>
        <time>2025-04-15T22:49:05.248Z</time>
      </trkpt>
      <trkpt lat="44.76781" lon="3.71529">
        <ele>953.78</ele>
        <time>2025-04-15T22:49:18.975Z</time>
      </trkpt>
      <trkpt lat="44.76761" lon="3.71545">
        <ele>954.26</ele>
        <time>2025-04-15T22:49:32.706Z</time>
      </trkpt>
      <trkpt lat="44.76742" lon="3.7156">
        <ele>954.75</ele>
        <time>2025-04-15T22:49:46.440Z</time>
      </trkpt>
      <trkpt lat="44.76723" lon="3.71576">
        <ele>955.33</ele>
        <time>2025-04-15T22:50:00.178Z</time>
      </trkpt>
      <trkpt lat="44.76706" lon="3.71583">
        <ele>955.9</ele>
        <time>2025-04-15T22:50:13.919Z</time>
      </trkpt>
      <trkpt lat="44.76678" lon="3.71583">
        <ele>956.44</ele>
        <time>2025-04-15T22:50:27.664Z</time>
      </trkpt>
      <trkpt lat="44.76654" lon="3.71574">
        <ele>956.92</ele>
        <time>2025-04-15T22:50:41.413Z</time>
      </trkpt>
      <trkpt lat="44.76628" lon="3.7155">
        <ele>957.21</ele>
        <time>2025-04-15T22:50:55.167Z</time>
      </trkpt>
      <trkpt lat="44.76609" lon="3.71535">
        <ele>957.55</ele>
        <time>2025-04-15T22:51:08.924Z</time>
      </trkpt>
      <trkpt lat="44.76585" lon="3.71533">
        <ele>958.02</ele>
        <time>2025-04-15T22:51:22.685Z</time>
      </trkpt>
      <trkpt lat="44.76562" lon="3.7154">
        <ele>958.48</ele>
        <time>2025-04-15T22:51:36.450Z</time>
      </trkpt>
      <trkpt lat="44.76545" lon="3.71559">
        <ele>959.1</ele>
        <time>2025-04-15T22:51:50.219Z</time>
      </trkpt>
      <trkpt lat="44.7653" lon="3.7159">
        <ele>959.76</ele>
        <time>2025-04-15T22:52:03.992Z</time>
      </trkpt>
      <trkpt lat="44.76515" lon="3.71621">
        <ele>960.44</ele>
        <time>2025-04-15T22:52:17.769Z</time>
      </trkpt>
      <trkpt lat="44.76502" lon="3.71642">
        <ele>961.04</ele>
        <time>2025-04-15T22:52:31.549Z</time>
      </trkpt>
      <trkpt lat="44.76489" lon="3.71662">
        <ele>961.59</ele>
        <time>2025-04-15T22:52:45.332Z</time>
      </trkpt>
      <trkpt lat="44.76465" lon="3.71681">
        <ele>962.06</ele>
        <time>2025-04-15T22:52:59.120Z</time>
      </trkpt>
      <trkpt lat="44.76446" lon="3.71688">
        <ele>962.48</ele>
        <time>2025-04-15T22:53:12.911Z</time>
      </trkpt>
      <trkpt lat="44.76427" lon="3.71694">
        <ele>962.91</ele>
        <time>2025-04-15T22:53:26.705Z</time>
      </trkpt>
      <trkpt lat="44.76402" lon="3.71721">
        <ele>963.46</ele>
        <time>2025-04-15T22:53:40.504Z</time>
      </trkpt>
      <trkpt lat="44.76378" lon="3.71749">
        <ele>963.96</ele>
        <time>2025-04-15T22:53:54.308Z</time>
      </trkpt>
      <trkpt lat="44.76354" lon="3.71776">
        <ele>964.52</ele>
        <time>2025-04-15T22:54:08.117Z</time>
      </trkpt>
      <trkpt lat="44.76337" lon="3.71799">
        <ele>964.99</ele>
        <time>2025-04-15T22:54:21.930Z</time>
      </trkpt>
      <trkpt lat="44.76321" lon="3.71821">
        <ele>965.58</ele>
        <time>2025-04-15T22:54:35.746Z</time>
      </trkpt>
      <trkpt lat="44.76304" lon="3.71844">
        <ele>966.08</ele>
        <time>2025-04-15T22:54:49.566Z</time>
      </trkpt>
      <trkpt lat="44.76293" lon="3.71874">
        <ele>966.75</ele>
        <time>2025-04-15T22:55:03.390Z</time>
      </trkpt>
      <trkpt lat="44.76281" lon="3.71904">
        <ele>967.33</ele>
        <time>2025-04-15T22:55:17.218Z</time>
      </trkpt>
      <trkpt lat="44.76268" lon="3.71924">
        <ele>967.81</ele>
        <time>2025-04-15T22:55:31.049Z</time>
      </trkpt>
      <trkpt lat="44.76253" lon="3.71932">
        <ele>968.22</ele>
        <time>2025-04-15T22:55:44.883Z</time>
      </trkpt>
      <trkpt lat="44.7623" lon="3.71938">
        <ele>968.63</ele>
        <time>2025-04-15T22:55:58.720Z</time>
      </trkpt>
      <trkpt lat="44.76208" lon="3.71943">
        <ele>969.14</ele>
        <time>2025-04-15T22:56:12.561Z</time>
      </trkpt>
      <trkpt lat="44.76191" lon="3.71941">
        <ele>969.63</ele>
        <time>2025-04-15T22:56:26.405Z</time>
      </trkpt>
      <trkpt lat="44.76173" lon="3.71939">
        <ele>970.15</ele>
        <time>2025-04-15T22:56:40.251Z</time>
      </trkpt>
      <trkpt lat="44.76152" lon="3.71945">
        <ele>970.76</ele>
        <time>2025-04-15T22:56:54.101Z</time>
      </trkpt>
      <trkpt lat="44.76131" lon="3.71952">
        <ele>971.32</ele>
        <time>2025-04-15T22:57:07.954Z</time>
      </trkpt>
      <trkpt lat="44.76101" lon="3.71962">
        <ele>971.88</ele>
        <time>2025-04-15T22:57:21.812Z</time>
      </trkpt>
      <trkpt lat="44.7607" lon="3.71973">
        <ele>972.4</ele>
        <time>2025-04-15T22:57:35.675Z</time>
      </trkpt>
      <trkpt lat="44.7604" lon="3.71984">
        <ele>972.84</ele>
        <time>2025-04-15T22:57:49.543Z</time>
      </trkpt>
      <trkpt lat="44.7601" lon="3.71995">
        <ele>973.41</ele>
        <time>2025-04-15T22:58:03.416Z</time>
      </trkpt>
      <trkpt lat="44.75985" lon="3.72">
        <ele>973.8</ele>
        <time>2025-04-15T22:58:17.293Z</time>
      </trkpt>
      <trkpt lat="44.75959" lon="3.72005">
        <ele>974.18</ele>
        <time>2025-04-15T22:58:31.175Z</time>
      </trkpt>
      <trkpt lat="44.75933" lon="3.7201">
        <ele>974.64</ele>
        <time>2025-04-15T22:58:45.061Z</time>
      </trkpt>
      <trkpt lat="44.75918" lon="3.7201">
        <ele>975.07</ele>
        <time>2025-04-15T22:58:58.949Z</time>
      </trkpt>
      <trkpt lat="44.75895" lon="3.72006">
        <ele>975.48</ele>
        <time>2025-04-15T22:59:12.841Z</time>
      </trkpt>
      <trkpt lat="44.75871" lon="3.72002">
        <ele>975.9</ele>
        <time>2025-04-15T22:59:26.737Z</time>
      </trkpt>
      <trkpt lat="44.75847" lon="3.71999">
        <ele>976.29</ele>
        <time>2025-04-15T22:59:40.637Z</time>
      </trkpt>
      <trkpt lat="44.7583" lon="3.71992">
        <ele>976.58</ele>
        <time>2025-04-15T22:59:54.539Z</time>
      </trkpt>
      <trkpt lat="44.75809" lon="3.7198">
        <ele>976.8</ele>
        <time>2025-04-15T23:00:08.445Z</time>
      </trkpt>
      <trkpt lat="44.75789" lon="3.71967">
        <ele>977.04</ele>
        <time>2025-04-15T23:00:22.355Z</time>
      </trkpt>
      <trkpt lat="44.75768" lon="3.71954">
        <ele>977.33</ele>
        <time>2025-04-15T23:00:36.268Z</time>
      </trkpt>
      <trkpt lat="44.75746" lon="3.71944">
        <ele>977.57</ele>
        <time>2025-04-15T23:00:50.185Z</time>
      </trkpt>
      <trkpt lat="44.75725" lon="3.71934">
        <ele>977.68</ele>
        <time>2025-04-15T23:01:04.105Z</time>
      </trkpt>
      <trkpt lat="44.75704" lon="3.71933">
        <ele>977.8</ele>
        <time>2025-04-15T23:01:18.029Z</time>
      </trkpt>
      <trkpt lat="44.75682" lon="3.71932">
        <ele>978.01</ele>
        <time>2025-04-15T23:01:31.956Z</time>
      </trkpt>
      <trkpt lat="44.75661" lon="3.7193">
        <ele>978.24</ele>
        <time>2025-04-15T23:01:45.887Z</time>
      </trkpt>
      <trkpt lat="44.7564" lon="3.71934">
        <ele>978.55</ele>
        <time>2025-04-15T23:01:59.821Z</time>
      </trkpt>
      <trkpt lat="44.7562" lon="3.71939">
        <ele>978.82</ele>
        <time>2025-04-15T23:02:13.758Z</time>
      </trkpt>
      <trkpt lat="44.75598" lon="3.71954">
        <ele>979.05</ele>
        <time>2025-04-15T23:02:27.699Z</time>
      </trkpt>
      <trkpt lat="44.75586" lon="3.71977">
        <ele>979.2</ele>
        <time>2025-04-15T23:02:41.644Z</time>
      </trkpt>
      <trkpt lat="44.75579" lon="3.72014">
        <ele>979.33</ele>
        <time>2025-04-15T23:02:55.593Z</time>
      </trkpt>
      <trkpt lat="44.75573" lon="3.72051">
        <ele>979.5</ele>
        <time>2025-04-15T23:03:09.546Z</time>
      </trkpt>
      <trkpt lat="44.75566" lon="3.72087">
        <ele>979.67</ele>
        <time>2025-04-15T23:03:23.504Z</time>
      </trkpt>
      <trkpt lat="44.7556" lon="3.72123">
        <ele>979.77</ele>
        <time>2025-04-15T23:03:37.466Z</time>
      </trkpt>
      <trkpt lat="44.7556" lon="3.72149">
        <ele>979.87</ele>
        <time>2025-04-15T23:03:51.431Z</time>
      </trkpt>
      <trkpt lat="44.75564" lon="3.72168">
        <ele>979.99</ele>
        <time>2025-04-15T23:04:05.398Z</time>
      </trkpt>
      <trkpt lat="44.75577" lon="3.72205">
        <ele>980.18</ele>
        <time>2025-04-15T23:04:19.370Z</time>
      </trkpt>
      <trkpt lat="44.7559" lon="3.72241">
        <ele>980.36</ele>
        <time>2025-04-15T23:04:33.346Z</time>
      </trkpt>
      <trkpt lat="44.75603" lon="3.72278">
        <ele>980.52</ele>
        <time>2025-04-15T23:04:47.327Z</time>
      </trkpt>
      <trkpt lat="44.75609" lon="3.72299">
        <ele>980.61</ele>
        <time>2025-04-15T23:05:01.311Z</time>
      </trkpt>
      <trkpt lat="44.75607" lon="3.72329">
        <ele>980.64</ele>
        <time>2025-04-15T23:05:15.298Z</time>
      </trkpt>
      <trkpt lat="44.75601" lon="3.72346">
        <ele>980.76</ele>
        <time>2025-04-15T23:05:29.287Z</time>
      </trkpt>
      <trkpt lat="44.75579" lon="3.7237">
        <ele>980.81</ele>
        <time>2025-04-15T23:05:43.281Z</time>
      </trkpt>
      <trkpt lat="44.75558" lon="3.72394">
        <ele>980.84</ele>
        <time>2025-04-15T23:05:57.279Z</time>
      </trkpt>
      <trkpt lat="44.75536" lon="3.72417">
        <ele>980.85</ele>
        <time>2025-04-15T23:06:11.281Z</time>
      </trkpt>
      <trkpt lat="44.7552" lon="3.72428">
        <ele>980.99</ele>
        <time>2025-04-15T23:06:25.286Z</time>
      </trkpt>
      <trkpt lat="44.75504" lon="3.72439">
        <ele>981.16</ele>
        <time>2025-04-15T23:06:39.294Z</time>
      </trkpt>
      <trkpt lat="44.75487" lon="3.72445">
        <ele>981.36</ele>
        <time>2025-04-15T23:06:53.305Z</time>
      </trkpt>
      <trkpt lat="44.7547" lon="3.72443">
        <ele>981.58</ele>
        <time>2025-04-15T23:07:07.319Z</time>
      </trkpt>
      <trkpt lat="44.7547" lon="3.72443">
        <ele>981.78</ele>
        <time>2025-04-15T23:07:21.333Z</time>
      </trkpt>
      <trkpt lat="44.75446" lon="3.72437">
        <ele>982.07</ele>
        <time>2025-04-15T23:07:35.350Z</time>
      </trkpt>
      <trkpt lat="44.75428" lon="3.72432">
        <ele>982.37</ele>
        <time>2025-04-15T23:07:49.370Z</time>
      </trkpt>
      <trkpt lat="44.7541" lon="3.72428">
        <ele>982.63</ele>
        <time>2025-04-15T23:08:03.393Z</time>
      </trkpt>
      <trkpt lat="44.75384" lon="3.72426">
        <ele>982.87</ele>
        <time>2025-04-15T23:08:17.421Z</time>
      </trkpt>
      <trkpt lat="44.75358" lon="3.72432">
        <ele>983.11</ele>
        <time>2025-04-15T23:08:31.453Z</time>
      </trkpt>
      <trkpt lat="44.75338" lon="3.72443">
        <ele>983.38</ele>
        <time>2025-04-15T23:08:45.488Z</time>
      </trkpt>
      <trkpt lat="44.75317" lon="3.72454">
        <ele>983.7</ele>
        <time>2025-04-15T23:08:59.527Z</time>
      </trkpt>
      <trkpt lat="44.75297" lon="3.72464">
        <ele>984.12</ele>
        <time>2025-04-15T23:09:13.569Z</time>
      </trkpt>
      <trkpt lat="44.75277" lon="3.72475">
        <ele>984.58</ele>
        <time>2025-04-15T23:09:27.615Z</time>
      </trkpt>
      <trkpt lat="44.75264" lon="3.72488">
        <ele>985.02</ele>
        <time>2025-04-15T23:09:41.663Z</time>
      </trkpt>
      <trkpt lat="44.75255" lon="3.72503">
        <ele>985.52</ele>
        <time>2025-04-15T23:09:55.713Z</time>
      </trkpt>
      <trkpt lat="44.75253" lon="3.72527">
        <ele>985.99</ele>
        <time>2025-04-15T23:10:09.766Z</time>
      </trkpt>
      <trkpt lat="44.75257" lon="3.72546">
        <ele>986.47</ele>
        <time>2025-04-15T23:10:23.821Z</time>
      </trkpt>
      <trkpt lat="44.75268" lon="3.72571">
        <ele>986.99</ele>
        <time>2025-04-15T23:10:37.880Z</time>
      </trkpt>
      <trkpt lat="44.75279" lon="3.72595">
        <ele>987.54</ele>
        <time>2025-04-15T23:10:51.942Z</time>
      </trkpt>
      <trkpt lat="44.75285" lon="3.7263">
        <ele>988.09</ele>
        <time>2025-04-15T23:11:06.008Z</time>
      </trkpt>
      <trkpt lat="44.75279" lon="3.72664">
        <ele>988.56</ele>
        <time>2025-04-15T23:11:20.078Z</time>
      </trkpt>
      <trkpt lat="44.75268" lon="3.72701">
        <ele>989.09</ele>
        <time>2025-04-15T23:11:34.153Z</time>
      </trkpt>
      <trkpt lat="44.75257" lon="3.72722">
        <ele>989.58</ele>
        <time>2025-04-15T23:11:48.231Z</time>
      </trkpt>
      <trkpt lat="44.75246" lon="3.72743">
        <ele>990.14</ele>
        <time>2025-04-15T23:12:02.312Z</time>
      </trkpt>
      <trkpt lat="44.7524" lon="3.72754">
        <ele>990.68</ele>
        <time>2025-04-15T23:12:16.394Z</time>
      </trkpt>
      <trkpt lat="44.75227" lon="3.7278">
        <ele>991.32</ele>
        <time>2025-04-15T23:12:30.480Z</time>
      </trkpt>
      <trkpt lat="44.75227" lon="3.7278">
        <ele>991.89</ele>
        <time>2025-04-15T23:12:44.566Z</time>
      </trkpt>
      <trkpt lat="44.7521" lon="3.72803">
        <ele>992.55</ele>
        <time>2025-04-15T23:12:58.656Z</time>
      </trkpt>
      <trkpt lat="44.75187" lon="3.72827">
        <ele>993.16</ele>
        <time>2025-04-15T23:13:12.750Z</time>
      </trkpt>
      <trkpt lat="44.75165" lon="3.72851">
        <ele>993.73</ele>
        <time>2025-04-15T23:13:26.849Z</time>
      </trkpt>
      <trkpt lat="44.75149" lon="3.7287">
        <ele>994.33</ele>
        <time>2025-04-15T23:13:40.951Z</time>
      </trkpt>
      <trkpt lat="44.75133" lon="3.72889">
        <ele>994.98</ele>
        <time>2025-04-15T23:13:55.056Z</time>
      </trkpt>
      <trkpt lat="44.75118" lon="3.729">
        <ele>995.59</ele>
        <time>2025-04-15T23:14:09.164Z</time>
      </trkpt>
      <trkpt lat="44.75093" lon="3.72908">
        <ele>996.14</ele>
        <time>2025-04-15T23:14:23.276Z</time>
      </trkpt>
      <trkpt lat="44.75068" lon="3.72915">
        <ele>996.71</ele>
        <time>2025-04-15T23:14:37.392Z</time>
      </trkpt>
      <trkpt lat="44.75037" lon="3.72918">
        <ele>997.35</ele>
        <time>2025-04-15T23:14:51.513Z</time>
      </trkpt>
      <trkpt lat="44.75006" lon="3.72922">
        <ele>998.12</ele>
        <time>2025-04-15T23:15:05.639Z</time>
      </trkpt>
      <trkpt lat="44.74978" lon="3.72913">
        <ele>998.81</ele>
        <time>2025-04-15T23:15:19.770Z</time>
      </trkpt>
      <trkpt lat="44.7495" lon="3.72904">
        <ele>999.4</ele>
        <time>2025-04-15T23:15:33.905Z</time>
      </trkpt>
      <trkpt lat="44.74927" lon="3.72889">
        <ele>999.83</ele>
        <time>2025-04-15T23:15:48.044Z</time>
      </trkpt>
      <trkpt lat="44.74911" lon="3.72875">
        <ele>1000.34</ele>
        <time>2025-04-15T23:16:02.186Z</time>
      </trkpt>
      <trkpt lat="44.74895" lon="3.72861">
        <ele>1000.86</ele>
        <time>2025-04-15T23:16:16.331Z</time>
      </trkpt>
      <trkpt lat="44.74876" lon="3.72859">
        <ele>1001.5</ele>
        <time>2025-04-15T23:16:30.479Z</time>
      </trkpt>
      <trkpt lat="44.74858" lon="3.72857">
        <ele>1002.14</ele>
        <time>2025-04-15T23:16:44.630Z</time>
      </trkpt>
      <trkpt lat="44.74834" lon="3.72849">
        <ele>1002.76</ele>
        <time>2025-04-15T23:16:58.785Z</time>
      </trkpt>
      <trkpt lat="44.74813" lon="3.72829">
        <ele>1003.12</ele>
        <time>2025-04-15T23:17:12.944Z</time>
      </trkpt>
      <trkpt lat="44.74789" lon="3.72817">
        <ele>1003.51</ele>
        <time>2025-04-15T23:17:27.107Z</time>
      </trkpt>
      <trkpt lat="44.74766" lon="3.72806">
        <ele>1003.92</ele>
        <time>2025-04-15T23:17:41.274Z</time>
      </trkpt>
      <trkpt lat="44.74739" lon="3.7279">
        <ele>1004.36</ele>
        <time>2025-04-15T23:17:55.446Z</time>
      </trkpt>
      <trkpt lat="44.74712" lon="3.72773">
        <ele>1004.77</ele>
        <time>2025-04-15T23:18:09.623Z</time>
      </trkpt>
      <trkpt lat="44.74694" lon="3.72767">
        <ele>1005.15</ele>
        <time>2025-04-15T23:18:23.803Z</time>
      </trkpt>
      <trkpt lat="44.74676" lon="3.72761">
        <ele>1005.51</ele>
        <time>2025-04-15T23:18:37.986Z</time>
      </trkpt>
      <trkpt lat="44.74656" lon="3.72765">
        <ele>1005.89</ele>
        <time>2025-04-15T23:18:52.172Z</time>
      </trkpt>
      <trkpt lat="44.74641" lon="3.7278">
        <ele>1006.25</ele>
        <time>2025-04-15T23:19:06.361Z</time>
      </trkpt>
      <trkpt lat="44.74626" lon="3.72811">
        <ele>1006.5</ele>
        <time>2025-04-15T23:19:20.554Z</time>
      </trkpt>
      <trkpt lat="44.74611" lon="3.72841">
        <ele>1006.81</ele>
        <time>2025-04-15T23:19:34.751Z</time>
      </trkpt>
      <trkpt lat="44.74596" lon="3.72872">
        <ele>1007.15</ele>
        <time>2025-04-15T23:19:48.952Z</time>
      </trkpt>
      <trkpt lat="44.74581" lon="3.72902">
        <ele>1007.45</ele>
        <time>2025-04-15T23:20:03.158Z</time>
      </trkpt>
      <trkpt lat="44.74563" lon="3.72931">
        <ele>1007.72</ele>
        <time>2025-04-15T23:20:17.368Z</time>
      </trkpt>
      <trkpt lat="44.74545" lon="3.7296">
        <ele>1008</ele>
        <time>2025-04-15T23:20:31.583Z</time>
      </trkpt>
      <trkpt lat="44.74538" lon="3.72965">
        <ele>1008.26</ele>
        <time>2025-04-15T23:20:45.799Z</time>
      </trkpt>
      <trkpt lat="44.74538" lon="3.72966">
        <ele>1008.51</ele>
        <time>2025-04-15T23:21:00.015Z</time>
      </trkpt>
      <trkpt lat="44.74538" lon="3.72966">
        <ele>1008.75</ele>
        <time>2025-04-15T23:21:14.231Z</time>
      </trkpt>
      <trkpt lat="44.74526" lon="3.72975">
        <ele>1008.98</ele>
        <time>2025-04-15T23:21:28.449Z</time>
      </trkpt>
      <trkpt lat="44.74503" lon="3.72987">
        <ele>1009.17</ele>
        <time>2025-04-15T23:21:42.671Z</time>
      </trkpt>
      <trkpt lat="44.7448" lon="3.72998">
        <ele>1009.49</ele>
        <time>2025-04-15T23:21:56.897Z</time>
      </trkpt>
      <trkpt lat="44.74457" lon="3.73009">
        <ele>1009.72</ele>
        <time>2025-04-15T23:22:11.127Z</time>
      </trkpt>
      <trkpt lat="44.74435" lon="3.73022">
        <ele>1010.02</ele>
        <time>2025-04-15T23:22:25.360Z</time>
      </trkpt>
      <trkpt lat="44.74414" lon="3.73035">
        <ele>1010.31</ele>
        <time>2025-04-15T23:22:39.597Z</time>
      </trkpt>
      <trkpt lat="44.74392" lon="3.73048">
        <ele>1010.62</ele>
        <time>2025-04-15T23:22:53.838Z</time>
      </trkpt>
      <trkpt lat="44.74364" lon="3.7306">
        <ele>1010.73</ele>
        <time>2025-04-15T23:23:08.084Z</time>
      </trkpt>
      <trkpt lat="44.74335" lon="3.73072">
        <ele>1010.95</ele>
        <time>2025-04-15T23:23:22.334Z</time>
      </trkpt>
      <trkpt lat="44.74307" lon="3.73085">
        <ele>1011.14</ele>
        <time>2025-04-15T23:23:36.589Z</time>
      </trkpt>
      <trkpt lat="44.74307" lon="3.73085">
        <ele>1011.36</ele>
        <time>2025-04-15T23:23:50.844Z</time>
      </trkpt>
      <trkpt lat="44.74289" lon="3.73091">
        <ele>1011.55</ele>
        <time>2025-04-15T23:24:05.102Z</time>
      </trkpt>
      <trkpt lat="44.74262" lon="3.73087">
        <ele>1011.77</ele>
        <time>2025-04-15T23:24:19.365Z</time>
      </trkpt>
      <trkpt lat="44.74232" lon="3.73074">
        <ele>1011.98</ele>
        <time>2025-04-15T23:24:33.633Z</time>
      </trkpt>
      <trkpt lat="44.74202" lon="3.73062">
        <ele>1012.3</ele>
        <time>2025-04-15T23:24:47.905Z</time>
      </trkpt>
      <trkpt lat="44.74173" lon="3.73049">
        <ele>1012.54</ele>
        <time>2025-04-15T23:25:02.182Z</time>
      </trkpt>
      <trkpt lat="44.74143" lon="3.73037">
        <ele>1012.76</ele>
        <time>2025-04-15T23:25:16.464Z</time>
      </trkpt>
      <trkpt lat="44.74114" lon="3.73025">
        <ele>1013.04</ele>
        <time>2025-04-15T23:25:30.751Z</time>
      </trkpt>
      <trkpt lat="44.74097" lon="3.73023">
        <ele>1013.29</ele>
        <time>2025-04-15T23:25:45.041Z</time>
      </trkpt>
      <trkpt lat="44.74081" lon="3.73022">
        <ele>1013.54</ele>
        <time>2025-04-15T23:25:59.334Z</time>
      </trkpt>
      <trkpt lat="44.74068" lon="3.73027">
        <ele>1013.78</ele>
        <time>2025-04-15T23:26:13.629Z</time>
      </trkpt>
      <trkpt lat="44.74058" lon="3.73037">
        <ele>1014.04</ele>
        <time>2025-04-15T23:26:27.926Z</time>
      </trkpt>
      <trkpt lat="44.74053" lon="3.73055">
        <ele>1014.38</ele>
        <time>2025-04-15T23:26:42.225Z</time>
      </trkpt>
      <trkpt lat="44.74051" lon="3.73076">
        <ele>1014.71</ele>
        <time>2025-04-15T23:26:56.526Z</time>
      </trkpt>
      <trkpt lat="44.74051" lon="3.73097">
        <ele>1015.06</ele>
        <time>2025-04-15T23:27:10.830Z</time>
      </trkpt>
      <trkpt lat="44.74058" lon="3.73126">
        <ele>1015.45</ele>
        <time>2025-04-15T23:27:25.137Z</time>
      </trkpt>
      <trkpt lat="44.74064" lon="3.73155">
        <ele>1015.86</ele>
        <time>2025-04-15T23:27:39.448Z</time>
      </trkpt>
      <trkpt lat="44.74071" lon="3.73195">
        <ele>1016.26</ele>
        <time>2025-04-15T23:27:53.763Z</time>
      </trkpt>
      <trkpt lat="44.74077" lon="3.73235">
        <ele>1016.73</ele>
        <time>2025-04-15T23:28:08.083Z</time>
      </trkpt>
      <trkpt lat="44.74086" lon="3.73266">
        <ele>1017.15</ele>
        <time>2025-04-15T23:28:22.407Z</time>
      </trkpt>
      <trkpt lat="44.74096" lon="3.73296">
        <ele>1017.54</ele>
        <time>2025-04-15T23:28:36.735Z</time>
      </trkpt>
      <trkpt lat="44.74105" lon="3.73327">
        <ele>1017.96</ele>
        <time>2025-04-15T23:28:51.066Z</time>
      </trkpt>
      <trkpt lat="44.74111" lon="3.73359">
        <ele>1018.33</ele>
        <time>2025-04-15T23:29:05.401Z</time>
      </trkpt>
      <trkpt lat="44.74118" lon="3.7339">
        <ele>1018.75</ele>
        <time>2025-04-15T23:29:19.740Z</time>
      </trkpt>
      <trkpt lat="44.74124" lon="3.73421">
        <ele>1019.19</ele>
        <time>2025-04-15T23:29:34.083Z</time>
      </trkpt>
      <trkpt lat="44.74118" lon="3.73452">
        <ele>1019.57</ele>
        <time>2025-04-15T23:29:48.429Z</time>
      </trkpt>
      <trkpt lat="44.74103" lon="3.73486">
        <ele>1019.93</ele>
        <time>2025-04-15T23:30:02.780Z</time>
      </trkpt>
      <trkpt lat="44.74083" lon="3.73503">
        <ele>1020.33</ele>
        <time>2025-04-15T23:30:17.134Z</time>
      </trkpt>
      <trkpt lat="44.74058" lon="3.73511">
        <ele>1020.74</ele>
        <time>2025-04-15T23:30:31.493Z</time>
      </trkpt>
      <trkpt lat="44.74033" lon="3.73518">
        <ele>1021.18</ele>
        <time>2025-04-15T23:30:45.856Z</time>
      </trkpt>
      <trkpt lat="44.74008" lon="3.73526">
        <ele>1021.65</ele>
        <time>2025-04-15T23:31:00.223Z</time>
      </trkpt>
      <trkpt lat="44.73982" lon="3.73534">
        <ele>1022.04</ele>
        <time>2025-04-15T23:31:14.594Z</time>
      </trkpt>
      <trkpt lat="44.73957" lon="3.73542">
        <ele>1022.49</ele>
        <time>2025-04-15T23:31:28.969Z</time>
      </trkpt>
      <trkpt lat="44.73934" lon="3.73546">
        <ele>1022.88</ele>
        <time>2025-04-15T23:31:43.348Z</time>
      </trkpt>
      <trkpt lat="44.73911" lon="3.7355">
        <ele>1023.27</ele>
        <time>2025-04-15T23:31:57.731Z</time>
      </trkpt>
      <trkpt lat="44.73888" lon="3.73555">
        <ele>1023.59</ele>
        <time>2025-04-15T23:32:12.117Z</time>
      </trkpt>
      <trkpt lat="44.73861" lon="3.73565">
        <ele>1024.01</ele>
        <time>2025-04-15T23:32:26.508Z</time>
      </trkpt>
      <trkpt lat="44.73834" lon="3.73576">
        <ele>1024.41</ele>
        <time>2025-04-15T23:32:40.903Z</time>
      </trkpt>
      <trkpt lat="44.73807" lon="3.73587">
        <ele>1024.93</ele>
        <time>2025-04-15T23:32:55.303Z</time>
      </trkpt>
      <trkpt lat="44.73787" lon="3.73589">
        <ele>1025.5</ele>
        <time>2025-04-15T23:33:09.706Z</time>
      </trkpt>
      <trkpt lat="44.73764" lon="3.73587">
        <ele>1026.01</ele>
        <time>2025-04-15T23:33:24.113Z</time>
      </trkpt>
      <trkpt lat="44.73747" lon="3.73578">
        <ele>1026.37</ele>
        <time>2025-04-15T23:33:38.523Z</time>
      </trkpt>
      <trkpt lat="44.73729" lon="3.7357">
        <ele>1026.69</ele>
        <time>2025-04-15T23:33:52.935Z</time>
      </trkpt>
      <trkpt lat="44.73708" lon="3.73565">
        <ele>1027.05</ele>
        <time>2025-04-15T23:34:07.351Z</time>
      </trkpt>
      <trkpt lat="44.73687" lon="3.73561">
        <ele>1027.39</ele>
        <time>2025-04-15T23:34:21.770Z</time>
      </trkpt>
      <trkpt lat="44.73664" lon="3.7357">
        <ele>1027.84</ele>
        <time>2025-04-15T23:34:36.193Z</time>
      </trkpt>
      <trkpt lat="44.73642" lon="3.73578">
        <ele>1028.2</ele>
        <time>2025-04-15T23:34:50.620Z</time>
      </trkpt>
      <trkpt lat="44.7362" lon="3.73587">
        <ele>1028.61</ele>
        <time>2025-04-15T23:35:05.050Z</time>
      </trkpt>
      <trkpt lat="44.73599" lon="3.73601">
        <ele>1029.04</ele>
        <time>2025-04-15T23:35:19.484Z</time>
      </trkpt>
      <trkpt lat="44.73577" lon="3.73615">
        <ele>1029.37</ele>
        <time>2025-04-15T23:35:33.922Z</time>
      </trkpt>
      <trkpt lat="44.73556" lon="3.73632">
        <ele>1029.75</ele>
        <time>2025-04-15T23:35:48.364Z</time>
      </trkpt>
      <trkpt lat="44.73535" lon="3.73658">
        <ele>1030.18</ele>
        <time>2025-04-15T23:36:02.810Z</time>
      </trkpt>
      <trkpt lat="44.73514" lon="3.73685">
        <ele>1030.72</ele>
        <time>2025-04-15T23:36:17.261Z</time>
      </trkpt>
      <trkpt lat="44.73493" lon="3.73711">
        <ele>1031.24</ele>
        <time>2025-04-15T23:36:31.716Z</time>
      </trkpt>
      <trkpt lat="44.73472" lon="3.73722">
        <ele>1031.63</ele>
        <time>2025-04-15T23:36:46.175Z</time>
      </trkpt>
      <trkpt lat="44.7345" lon="3.73733">
        <ele>1032.06</ele>
        <time>2025-04-15T23:37:00.638Z</time>
      </trkpt>
      <trkpt lat="44.73422" lon="3.7374">
        <ele>1032.48</ele>
        <time>2025-04-15T23:37:15.105Z</time>
      </trkpt>
      <trkpt lat="44.73393" lon="3.73748">
        <ele>1032.86</ele>
        <time>2025-04-15T23:37:29.577Z</time>
      </trkpt>
      <trkpt lat="44.73361" lon="3.73749">
        <ele>1033.17</ele>
        <time>2025-04-15T23:37:44.054Z</time>
      </trkpt>
      <trkpt lat="44.7333" lon="3.7375">
        <ele>1033.52</ele>
        <time>2025-04-15T23:37:58.536Z</time>
      </trkpt>
      <trkpt lat="44.73299" lon="3.73751">
        <ele>1033.9</ele>
        <time>2025-04-15T23:38:13.023Z</time>
      </trkpt>
      <trkpt lat="44.73268" lon="3.73752">
        <ele>1034.25</ele>
        <time>2025-04-15T23:38:27.515Z</time>
      </trkpt>
      <trkpt lat="44.73242" lon="3.73758">
        <ele>1034.57</ele>
        <time>2025-04-15T23:38:42.011Z</time>
      </trkpt>
      <trkpt lat="44.73229" lon="3.73773">
        <ele>1034.94</ele>
        <time>2025-04-15T23:38:56.510Z</time>
      </trkpt>
      <trkpt lat="44.73221" lon="3.73799">
        <ele>1035.38</ele>
        <time>2025-04-15T23:39:11.012Z</time>
      </trkpt>
      <trkpt lat="44.73224" lon="3.73829">
        <ele>1035.91</ele>
        <time>2025-04-15T23:39:25.518Z</time>
      </trkpt>
      <trkpt lat="44.73228" lon="3.73859">
        <ele>1036.43</ele>
        <time>2025-04-15T23:39:40.027Z</time>
      </trkpt>
      <trkpt lat="44.73232" lon="3.73889">
        <ele>1036.91</ele>
        <time>2025-04-15T23:39:54.540Z</time>
      </trkpt>
      <trkpt lat="44.7323" lon="3.73932">
        <ele>1037.35</ele>
        <time>2025-04-15T23:40:09.057Z</time>
      </trkpt>
      <trkpt lat="44.73229" lon="3.73974">
        <ele>1037.82</ele>
        <time>2025-04-15T23:40:23.579Z</time>
      </trkpt>
      <trkpt lat="44.73227" lon="3.74016">
        <ele>1038.24</ele>
        <time>2025-04-15T23:40:38.106Z</time>
      </trkpt>
      <trkpt lat="44.73225" lon="3.74055">
        <ele>1038.69</ele>
        <time>2025-04-15T23:40:52.638Z</time>
      </trkpt>
      <trkpt lat="44.73223" lon="3.74095">
        <ele>1039.15</ele>
        <time>2025-04-15T23:41:07.174Z</time>
      </trkpt>
      <trkpt lat="44.73221" lon="3.74134">
        <ele>1039.49</ele>
        <time>2025-04-15T23:41:21.715Z</time>
      </trkpt>
      <trkpt lat="44.73223" lon="3.7416">
        <ele>1039.85</ele>
        <time>2025-04-15T23:41:36.259Z</time>
      </trkpt>
      <trkpt lat="44.73234" lon="3.74194">
        <ele>1040.28</ele>
        <time>2025-04-15T23:41:50.807Z</time>
      </trkpt>
      <trkpt lat="44.73249" lon="3.7422">
        <ele>1040.78</ele>
        <time>2025-04-15T23:42:05.359Z</time>
      </trkpt>
      <trkpt lat="44.73264" lon="3.74245">
        <ele>1041.27</ele>
        <time>2025-04-15T23:42:19.914Z</time>
      </trkpt>
      <trkpt lat="44.7328" lon="3.74264">
        <ele>1041.77</ele>
        <time>2025-04-15T23:42:34.473Z</time>
      </trkpt>
      <trkpt lat="44.73296" lon="3.74282">
        <ele>1042.26</ele>
        <time>2025-04-15T23:42:49.035Z</time>
      </trkpt>
      <trkpt lat="44.73309" lon="3.74318">
        <ele>1042.69</ele>
        <time>2025-04-15T23:43:03.602Z</time>
      </trkpt>
      <trkpt lat="44.73311" lon="3.74336">
        <ele>1043.12</ele>
        <time>2025-04-15T23:43:18.171Z</time>
      </trkpt>
      <trkpt lat="44.73309" lon="3.74359">
        <ele>1043.5</ele>
        <time>2025-04-15T23:43:32.742Z</time>
      </trkpt>
      <trkpt lat="44.73307" lon="3.74383">
        <ele>1043.9</ele>
        <time>2025-04-15T23:43:47.316Z</time>
      </trkpt>
      <trkpt lat="44.73292" lon="3.74417">
        <ele>1044.27</ele>
        <time>2025-04-15T23:44:01.895Z</time>
      </trkpt>
      <trkpt lat="44.73279" lon="3.74432">
        <ele>1044.71</ele>
        <time>2025-04-15T23:44:16.476Z</time>
      </trkpt>
      <trkpt lat="44.73253" lon="3.74456">
        <ele>1045.12</ele>
        <time>2025-04-15T23:44:31.062Z</time>
      </trkpt>
      <trkpt lat="44.73225" lon="3.74466">
        <ele>1045.63</ele>
        <time>2025-04-15T23:44:45.653Z</time>
      </trkpt>
      <trkpt lat="44.73202" lon="3.74465">
        <ele>1046.1</ele>
        <time>2025-04-15T23:45:00.248Z</time>
      </trkpt>
      <trkpt lat="44.73178" lon="3.74464">
        <ele>1046.61</ele>
        <time>2025-04-15T23:45:14.846Z</time>
      </trkpt>
      <trkpt lat="44.73151" lon="3.74449">
        <ele>1047.07</ele>
        <time>2025-04-15T23:45:29.449Z</time>
      </trkpt>
      <trkpt lat="44.73123" lon="3.74434">
        <ele>1047.61</ele>
        <time>2025-04-15T23:45:44.057Z</time>
      </trkpt>
      <trkpt lat="44.73096" lon="3.74419">
        <ele>1048.04</ele>
        <time>2025-04-15T23:45:58.670Z</time>
      </trkpt>
      <trkpt lat="44.73068" lon="3.74404">
        <ele>1048.47</ele>
        <time>2025-04-15T23:46:13.287Z</time>
      </trkpt>
      <trkpt lat="44.73041" lon="3.74389">
        <ele>1048.96</ele>
        <time>2025-04-15T23:46:27.909Z</time>
      </trkpt>
      <trkpt lat="44.73014" lon="3.74374">
        <ele>1049.4</ele>
        <time>2025-04-15T23:46:42.536Z</time>
      </trkpt>
      <trkpt lat="44.72986" lon="3.74359">
        <ele>1049.78</ele>
        <time>2025-04-15T23:46:57.167Z</time>
      </trkpt>
      <trkpt lat="44.72959" lon="3.74344">
        <ele>1050.07</ele>
        <time>2025-04-15T23:47:11.803Z</time>
      </trkpt>
      <trkpt lat="44.72931" lon="3.74329">
        <ele>1050.42</ele>
        <time>2025-04-15T23:47:26.444Z</time>
      </trkpt>
      <trkpt lat="44.7292" lon="3.74329">
        <ele>1050.84</ele>
        <time>2025-04-15T23:47:41.087Z</time>
      </trkpt>
      <trkpt lat="44.7291" lon="3.74333">
        <ele>1051.22</ele>
        <time>2025-04-15T23:47:55.731Z</time>
      </trkpt>
      <trkpt lat="44.72901" lon="3.74344">
        <ele>1051.59</ele>
        <time>2025-04-15T23:48:10.377Z</time>
      </trkpt>
      <trkpt lat="44.72897" lon="3.74359">
        <ele>1051.94</ele>
        <time>2025-04-15T23:48:25.025Z</time>
      </trkpt>
      <trkpt lat="44.72898" lon="3.744">
        <ele>1052.34</ele>
        <time>2025-04-15T23:48:39.678Z</time>
      </trkpt>
      <trkpt lat="44.72899" lon="3.74441">
        <ele>1052.72</ele>
        <time>2025-04-15T23:48:54.335Z</time>
      </trkpt>
      <trkpt lat="44.72902" lon="3.74471">
        <ele>1053.09</ele>
        <time>2025-04-15T23:49:08.996Z</time>
      </trkpt>
      <trkpt lat="44.72905" lon="3.74501">
        <ele>1053.47</ele>
        <time>2025-04-15T23:49:23.660Z</time>
      </trkpt>
      <trkpt lat="44.72908" lon="3.74531">
        <ele>1053.92</ele>
        <time>2025-04-15T23:49:38.328Z</time>
      </trkpt>
      <trkpt lat="44.72905" lon="3.74561">
        <ele>1054.32</ele>
        <time>2025-04-15T23:49:52.999Z</time>
      </trkpt>
      <trkpt lat="44.72895" lon="3.74589">
        <ele>1054.62</ele>
        <time>2025-04-15T23:50:07.674Z</time>
      </trkpt>
      <trkpt lat="44.72885" lon="3.74617">
        <ele>1055.05</ele>
        <time>2025-04-15T23:50:22.352Z</time>
      </trkpt>
      <trkpt lat="44.72875" lon="3.74645">
        <ele>1055.48</ele>
        <time>2025-04-15T23:50:37.034Z</time>
      </trkpt>
      <trkpt lat="44.72863" lon="3.74666">
        <ele>1055.84</ele>
        <time>2025-04-15T23:50:51.719Z</time>
      </trkpt>
      <trkpt lat="44.7285" lon="3.74687">
        <ele>1056.21</ele>
        <time>2025-04-15T23:51:06.407Z</time>
      </trkpt>
      <trkpt lat="44.72822" lon="3.74707">
        <ele>1056.55</ele>
        <time>2025-04-15T23:51:21.100Z</time>
      </trkpt>
      <trkpt lat="44.72794" lon="3.74728">
        <ele>1056.87</ele>
        <time>2025-04-15T23:51:35.798Z</time>
      </trkpt>
      <trkpt lat="44.72766" lon="3.74748">
        <ele>1057.18</ele>
        <time>2025-04-15T23:51:50.501Z</time>
      </trkpt>
      <trkpt lat="44.72742" lon="3.74757">
        <ele>1057.42</ele>
        <time>2025-04-15T23:52:05.208Z</time>
      </trkpt>
      <trkpt lat="44.72719" lon="3.74767">
        <ele>1057.73</ele>
        <time>2025-04-15T23:52:19.919Z</time>
      </trkpt>
      <trkpt lat="44.7269" lon="3.74772">
        <ele>1058.04</ele>
        <time>2025-04-15T23:52:34.635Z</time>
      </trkpt>
      <trkpt lat="44.72661" lon="3.74778">
        <ele>1058.38</ele>
        <time>2025-04-15T23:52:49.356Z</time>
      </trkpt>
      <trkpt lat="44.72637" lon="3.74777">
        <ele>1058.61</ele>
        <time>2025-04-15T23:53:04.080Z</time>
      </trkpt>
      <trkpt lat="44.72613" lon="3.74776">
        <ele>1058.8</ele>
        <time>2025-04-15T23:53:18.808Z</time>
      </trkpt>
      <trkpt lat="44.72612" lon="3.74776">
        <ele>1059.02</ele>
        <time>2025-04-15T23:53:33.536Z</time>
      </trkpt>
      <trkpt lat="44.72612" lon="3.74776">
        <ele>1059.23</ele>
        <time>2025-04-15T23:53:48.264Z</time>
      </trkpt>
      <trkpt lat="44.72592" lon="3.74776">
        <ele>1059.39</ele>
        <time>2025-04-15T23:54:02.996Z</time>
      </trkpt>
      <trkpt lat="44.72571" lon="3.74775">
        <ele>1059.57</ele>
        <time>2025-04-15T23:54:17.731Z</time>
      </trkpt>
      <trkpt lat="44.72558" lon="3.74767">
        <ele>1059.66</ele>
        <time>2025-04-15T23:54:32.468Z</time>
      </trkpt>
      <trkpt lat="44.72541" lon="3.7475">
        <ele>1059.69</ele>
        <time>2025-04-15T23:54:47.209Z</time>
      </trkpt>
      <trkpt lat="44.72539" lon="3.74735">
        <ele>1059.78</ele>
        <time>2025-04-15T23:55:01.951Z</time>
      </trkpt>
      <trkpt lat="44.72534" lon="3.74698">
        <ele>1059.93</ele>
        <time>2025-04-15T23:55:16.698Z</time>
      </trkpt>
      <trkpt lat="44.7253" lon="3.74662">
        <ele>1060.35</ele>
        <time>2025-04-15T23:55:31.449Z</time>
      </trkpt>
      <trkpt lat="44.72519" lon="3.74645">
        <ele>1060.64</ele>
        <time>2025-04-15T23:55:46.202Z</time>
      </trkpt>
      <trkpt lat="44.72502" lon="3.74637">
        <ele>1060.79</ele>
        <time>2025-04-15T23:56:00.958Z</time>
      </trkpt>
      <trkpt lat="44.72485" lon="3.7463">
        <ele>1060.93</ele>
        <time>2025-04-15T23:56:15.717Z</time>
      </trkpt>
      <trkpt lat="44.72485" lon="3.7463">
        <ele>1061.06</ele>
        <time>2025-04-15T23:56:30.476Z</time>
      </trkpt>
      <trkpt lat="44.72467" lon="3.74622">
        <ele>1061.16</ele>
        <time>2025-04-15T23:56:45.238Z</time>
      </trkpt>
      <trkpt lat="44.7245" lon="3.74614">
        <ele>1061.24</ele>
        <time>2025-04-15T23:57:00.003Z</time>
      </trkpt>
      <trkpt lat="44.7245" lon="3.74613">
        <ele>1061.34</ele>
        <time>2025-04-15T23:57:14.768Z</time>
      </trkpt>
      <trkpt lat="44.7245" lon="3.74613">
        <ele>1061.44</ele>
        <time>2025-04-15T23:57:29.533Z</time>
      </trkpt>
      <trkpt lat="44.72444" lon="3.74612">
        <ele>1061.53</ele>
        <time>2025-04-15T23:57:44.299Z</time>
      </trkpt>
      <trkpt lat="44.72416" lon="3.74599">
        <ele>1061.66</ele>
        <time>2025-04-15T23:57:59.070Z</time>
      </trkpt>
      <trkpt lat="44.72388" lon="3.74586">
        <ele>1061.72</ele>
        <time>2025-04-15T23:58:13.845Z</time>
      </trkpt>
      <trkpt lat="44.72359" lon="3.74573">
        <ele>1061.76</ele>
        <time>2025-04-15T23:58:28.625Z</time>
      </trkpt>
      <trkpt lat="44.72351" lon="3.74563">
        <ele>1061.85</ele>
        <time>2025-04-15T23:58:43.407Z</time>
      </trkpt>
      <trkpt lat="44.72336" lon="3.74539">
        <ele>1061.93</ele>
        <time>2025-04-15T23:58:58.193Z</time>
      </trkpt>
      <trkpt lat="44.72322" lon="3.74516">
        <ele>1062.01</ele>
        <time>2025-04-15T23:59:12.982Z</time>
      </trkpt>
      <trkpt lat="44.72308" lon="3.74502">
        <ele>1062.06</ele>
        <time>2025-04-15T23:59:27.774Z</time>
      </trkpt>
      <trkpt lat="44.72284" lon="3.74494">
        <ele>1062.08</ele>
        <time>2025-04-15T23:59:42.570Z</time>
      </trkpt>
      <trkpt lat="44.72275" lon="3.74492">
        <ele>1062.15</ele>
        <time>2025-04-15T23:59:57.367Z</time>
      </trkpt>
      <trkpt lat="44.72275" lon="3.74492">
        <ele>1062.2</ele>
        <time>2025-04-16T00:00:12.164Z</time>
      </trkpt>
      <trkpt lat="44.72245" lon="3.74489">
        <ele>1062.27</ele>
        <time>2025-04-16T00:00:26.966Z</time>
      </trkpt>
      <trkpt lat="44.72231" lon="3.74485">
        <ele>1062.32</ele>
        <time>2025-04-16T00:00:41.770Z</time>
      </trkpt>
      <trkpt lat="44.72227" lon="3.74483">
        <ele>1062.37</ele>
        <time>2025-04-16T00:00:56.575Z</time>
      </trkpt>
      <trkpt lat="44.72208" lon="3.74466">
        <ele>1062.39</ele>
        <time>2025-04-16T00:01:11.384Z</time>
      </trkpt>
      <trkpt lat="44.72197" lon="3.7445">
        <ele>1062.44</ele>
        <time>2025-04-16T00:01:26.195Z</time>
      </trkpt>
      <trkpt lat="44.72188" lon="3.7443">
        <ele>1062.48</ele>
        <time>2025-04-16T00:01:41.009Z</time>
      </trkpt>
      <trkpt lat="44.72184" lon="3.74415">
        <ele>1062.54</ele>
        <time>2025-04-16T00:01:55.825Z</time>
      </trkpt>
      <trkpt lat="44.72182" lon="3.74399">
        <ele>1062.61</ele>
        <time>2025-04-16T00:02:10.643Z</time>
      </trkpt>
      <trkpt lat="44.72184" lon="3.74364">
        <ele>1062.64</ele>
        <time>2025-04-16T00:02:25.465Z</time>
      </trkpt>
      <trkpt lat="44.72187" lon="3.7433">
        <ele>1062.68</ele>
        <time>2025-04-16T00:02:40.290Z</time>
      </trkpt>
      <trkpt lat="44.72189" lon="3.74295">
        <ele>1062.73</ele>
        <time>2025-04-16T00:02:55.119Z</time>
      </trkpt>
      <trkpt lat="44.72191" lon="3.7426">
        <ele>1062.83</ele>
        <time>2025-04-16T00:03:09.952Z</time>
      </trkpt>
      <trkpt lat="44.72192" lon="3.74229">
        <ele>1062.98</ele>
        <time>2025-04-16T00:03:24.789Z</time>
      </trkpt>
      <trkpt lat="44.72193" lon="3.74197">
        <ele>1063.11</ele>
        <time>2025-04-16T00:03:39.630Z</time>
      </trkpt>
      <trkpt lat="44.72191" lon="3.74165">
        <ele>1063.24</ele>
        <time>2025-04-16T00:03:54.474Z</time>
      </trkpt>
      <trkpt lat="44.72184" lon="3.7414">
        <ele>1063.31</ele>
        <time>2025-04-16T00:04:09.321Z</time>
      </trkpt>
      <trkpt lat="44.72172" lon="3.74117">
        <ele>1063.37</ele>
        <time>2025-04-16T00:04:24.172Z</time>
      </trkpt>
      <trkpt lat="44.72152" lon="3.74095">
        <ele>1063.43</ele>
        <time>2025-04-16T00:04:39.027Z</time>
      </trkpt>
      <trkpt lat="44.72135" lon="3.74085">
        <ele>1063.53</ele>
        <time>2025-04-16T00:04:53.885Z</time>
      </trkpt>
      <trkpt lat="44.72117" lon="3.74074">
        <ele>1063.67</ele>
        <time>2025-04-16T00:05:08.746Z</time>
      </trkpt>
      <trkpt lat="44.72087" lon="3.74067">
        <ele>1063.75</ele>
        <time>2025-04-16T00:05:23.612Z</time>
      </trkpt>
      <trkpt lat="44.72071" lon="3.74065">
        <ele>1063.85</ele>
        <time>2025-04-16T00:05:38.480Z</time>
      </trkpt>
      <trkpt lat="44.72055" lon="3.74063">
        <ele>1063.98</ele>
        <time>2025-04-16T00:05:53.351Z</time>
      </trkpt>
      <trkpt lat="44.72036" lon="3.74064">
        <ele>1064.14</ele>
        <time>2025-04-16T00:06:08.225Z</time>
      </trkpt>
      <trkpt lat="44.72016" lon="3.7407">
        <ele>1064.24</ele>
        <time>2025-04-16T00:06:23.102Z</time>
      </trkpt>
      <trkpt lat="44.7199" lon="3.74078">
        <ele>1064.33</ele>
        <time>2025-04-16T00:06:37.983Z</time>
      </trkpt>
      <trkpt lat="44.71967" lon="3.74087">
        <ele>1064.41</ele>
        <time>2025-04-16T00:06:52.868Z</time>
      </trkpt>
      <trkpt lat="44.71945" lon="3.74097">
        <ele>1064.53</ele>
        <time>2025-04-16T00:07:07.757Z</time>
      </trkpt>
      <trkpt lat="44.71922" lon="3.74106">
        <ele>1064.65</ele>
        <time>2025-04-16T00:07:22.650Z</time>
      </trkpt>
      <trkpt lat="44.71908" lon="3.7411">
        <ele>1064.79</ele>
        <time>2025-04-16T00:07:37.545Z</time>
      </trkpt>
      <trkpt lat="44.71895" lon="3.74107">
        <ele>1064.96</ele>
        <time>2025-04-16T00:07:52.442Z</time>
      </trkpt>
      <trkpt lat="44.71886" lon="3.74102">
        <ele>1065.14</ele>
        <time>2025-04-16T00:08:07.341Z</time>
      </trkpt>
      <trkpt lat="44.71881" lon="3.74094">
        <ele>1065.33</ele>
        <time>2025-04-16T00:08:22.241Z</time>
      </trkpt>
      <trkpt lat="44.71866" lon="3.74064">
        <ele>1065.56</ele>
        <time>2025-04-16T00:08:37.145Z</time>
      </trkpt>
      <trkpt lat="44.71851" lon="3.74034">
        <ele>1065.82</ele>
        <time>2025-04-16T00:08:52.053Z</time>
      </trkpt>
      <trkpt lat="44.71845" lon="3.74027">
        <ele>1066.05</ele>
        <time>2025-04-16T00:09:06.962Z</time>
      </trkpt>
      <trkpt lat="44.71839" lon="3.74024">
        <ele>1066.27</ele>
        <time>2025-04-16T00:09:21.872Z</time>
      </trkpt>
      <trkpt lat="44.71825" lon="3.74027">
        <ele>1066.52</ele>
        <time>2025-04-16T00:09:36.785Z</time>
      </trkpt>
      <trkpt lat="44.71798" lon="3.74038">
        <ele>1066.72</ele>
        <time>2025-04-16T00:09:51.702Z</time>
      </trkpt>
      <trkpt lat="44.71774" lon="3.74051">
        <ele>1066.94</ele>
        <time>2025-04-16T00:10:06.623Z</time>
      </trkpt>
      <trkpt lat="44.71749" lon="3.74063">
        <ele>1067.2</ele>
        <time>2025-04-16T00:10:21.549Z</time>
      </trkpt>
      <trkpt lat="44.71724" lon="3.74076">
        <ele>1067.48</ele>
        <time>2025-04-16T00:10:36.479Z</time>
      </trkpt>
      <trkpt lat="44.71703" lon="3.7409">
        <ele>1067.69</ele>
        <time>2025-04-16T00:10:51.413Z</time>
      </trkpt>
      <trkpt lat="44.71679" lon="3.74119">
        <ele>1067.85</ele>
        <time>2025-04-16T00:11:06.352Z</time>
      </trkpt>
      <trkpt lat="44.71668" lon="3.74136">
        <ele>1068.05</ele>
        <time>2025-04-16T00:11:21.293Z</time>
      </trkpt>
      <trkpt lat="44.71657" lon="3.74162">
        <ele>1068.28</ele>
        <time>2025-04-16T00:11:36.238Z</time>
      </trkpt>
      <trkpt lat="44.71645" lon="3.74188">
        <ele>1068.51</ele>
        <time>2025-04-16T00:11:51.186Z</time>
      </trkpt>
      <trkpt lat="44.71634" lon="3.74214">
        <ele>1068.72</ele>
        <time>2025-04-16T00:12:06.138Z</time>
      </trkpt>
      <trkpt lat="44.71624" lon="3.74234">
        <ele>1068.94</ele>
        <time>2025-04-16T00:12:21.092Z</time>
      </trkpt>
      <trkpt lat="44.71615" lon="3.74253">
        <ele>1069.1</ele>
        <time>2025-04-16T00:12:36.049Z</time>
      </trkpt>
      <trkpt lat="44.71601" lon="3.74274">
        <ele>1069.3</ele>
        <time>2025-04-16T00:12:51.009Z</time>
      </trkpt>
      <trkpt lat="44.71588" lon="3.74296">
        <ele>1069.42</ele>
        <time>2025-04-16T00:13:05.973Z</time>
      </trkpt>
      <trkpt lat="44.7157" lon="3.74321">
        <ele>1069.62</ele>
        <time>2025-04-16T00:13:20.941Z</time>
      </trkpt>
      <trkpt lat="44.71555" lon="3.74336">
        <ele>1069.82</ele>
        <time>2025-04-16T00:13:35.912Z</time>
      </trkpt>
      <trkpt lat="44.71534" lon="3.74351">
        <ele>1070.08</ele>
        <time>2025-04-16T00:13:50.886Z</time>
      </trkpt>
      <trkpt lat="44.7153" lon="3.74354">
        <ele>1070.22</ele>
        <time>2025-04-16T00:14:05.861Z</time>
      </trkpt>
      <trkpt lat="44.71502" lon="3.74373">
        <ele>1070.23</ele>
        <time>2025-04-16T00:14:20.841Z</time>
      </trkpt>
      <trkpt lat="44.71492" lon="3.74378">
        <ele>1070.27</ele>
        <time>2025-04-16T00:14:35.823Z</time>
      </trkpt>
      <trkpt lat="44.71483" lon="3.74378">
        <ele>1070.36</ele>
        <time>2025-04-16T00:14:50.806Z</time>
      </trkpt>
      <trkpt lat="44.7147" lon="3.74372">
        <ele>1070.48</ele>
        <time>2025-04-16T00:15:05.791Z</time>
      </trkpt>
      <trkpt lat="44.71461" lon="3.7436">
        <ele>1070.62</ele>
        <time>2025-04-16T00:15:20.778Z</time>
      </trkpt>
      <trkpt lat="44.71452" lon="3.74341">
        <ele>1070.81</ele>
        <time>2025-04-16T00:15:35.768Z</time>
      </trkpt>
      <trkpt lat="44.71446" lon="3.7433">
        <ele>1070.95</ele>
        <time>2025-04-16T00:15:50.760Z</time>
      </trkpt>
      <trkpt lat="44.71441" lon="3.74319">
        <ele>1071.09</ele>
        <time>2025-04-16T00:16:05.753Z</time>
      </trkpt>
      <trkpt lat="44.71424" lon="3.74301">
        <ele>1071.17</ele>
        <time>2025-04-16T00:16:20.750Z</time>
      </trkpt>
      <trkpt lat="44.71398" lon="3.7428">
        <ele>1071.21</ele>
        <time>2025-04-16T00:16:35.751Z</time>
      </trkpt>
      <trkpt lat="44.71371" lon="3.74259">
        <ele>1071.25</ele>
        <time>2025-04-16T00:16:50.757Z</time>
      </trkpt>
      <trkpt lat="44.71356" lon="3.74243">
        <ele>1071.29</ele>
        <time>2025-04-16T00:17:05.766Z</time>
      </trkpt>
      <trkpt lat="44.71349" lon="3.74233">
        <ele>1071.34</ele>
        <time>2025-04-16T00:17:20.777Z</time>
      </trkpt>
      <trkpt lat="44.71344" lon="3.74216">
        <ele>1071.42</ele>
        <time>2025-04-16T00:17:35.790Z</time>
      </trkpt>
      <trkpt lat="44.71342" lon="3.7418">
        <ele>1071.56</ele>
        <time>2025-04-16T00:17:50.807Z</time>
      </trkpt>
      <trkpt lat="44.71339" lon="3.74145">
        <ele>1071.68</ele>
        <time>2025-04-16T00:18:05.828Z</time>
      </trkpt>
      <trkpt lat="44.71335" lon="3.74119">
        <ele>1071.76</ele>
        <time>2025-04-16T00:18:20.852Z</time>
      </trkpt>
      <trkpt lat="44.71327" lon="3.74095">
        <ele>1071.77</ele>
        <time>2025-04-16T00:18:35.879Z</time>
      </trkpt>
      <trkpt lat="44.71315" lon="3.74073">
        <ele>1071.74</ele>
        <time>2025-04-16T00:18:50.909Z</time>
      </trkpt>
      <trkpt lat="44.71296" lon="3.7404">
        <ele>1071.73</ele>
        <time>2025-04-16T00:19:05.944Z</time>
      </trkpt>
      <trkpt lat="44.71276" lon="3.74008">
        <ele>1071.76</ele>
        <time>2025-04-16T00:19:20.984Z</time>
      </trkpt>
      <trkpt lat="44.71261" lon="3.73983">
        <ele>1071.75</ele>
        <time>2025-04-16T00:19:36.028Z</time>
      </trkpt>
      <trkpt lat="44.71247" lon="3.73957">
        <ele>1071.77</ele>
        <time>2025-04-16T00:19:51.075Z</time>
      </trkpt>
      <trkpt lat="44.71233" lon="3.73931">
        <ele>1071.84</ele>
        <time>2025-04-16T00:20:06.126Z</time>
      </trkpt>
      <trkpt lat="44.71222" lon="3.73921">
        <ele>1071.89</ele>
        <time>2025-04-16T00:20:21.179Z</time>
      </trkpt>
      <trkpt lat="44.71211" lon="3.73917">
        <ele>1071.93</ele>
        <time>2025-04-16T00:20:36.234Z</time>
      </trkpt>
      <trkpt lat="44.71181" lon="3.73917">
        <ele>1071.93</ele>
        <time>2025-04-16T00:20:51.294Z</time>
      </trkpt>
      <trkpt lat="44.71151" lon="3.73916">
        <ele>1071.9</ele>
        <time>2025-04-16T00:21:06.359Z</time>
      </trkpt>
      <trkpt lat="44.7112" lon="3.73916">
        <ele>1071.84</ele>
        <time>2025-04-16T00:21:21.429Z</time>
      </trkpt>
      <trkpt lat="44.71107" lon="3.73912">
        <ele>1071.83</ele>
        <time>2025-04-16T00:21:36.501Z</time>
      </trkpt>
      <trkpt lat="44.71092" lon="3.73904">
        <ele>1071.85</ele>
        <time>2025-04-16T00:21:51.575Z</time>
      </trkpt>
      <trkpt lat="44.71076" lon="3.73896">
        <ele>1071.9</ele>
        <time>2025-04-16T00:22:06.652Z</time>
      </trkpt>
      <trkpt lat="44.71067" lon="3.73895">
        <ele>1071.95</ele>
        <time>2025-04-16T00:22:21.731Z</time>
      </trkpt>
      <trkpt lat="44.71043" lon="3.73903">
        <ele>1072.05</ele>
        <time>2025-04-16T00:22:36.813Z</time>
      </trkpt>
      <trkpt lat="44.71031" lon="3.73912">
        <ele>1072.12</ele>
        <time>2025-04-16T00:22:51.898Z</time>
      </trkpt>
      <trkpt lat="44.71018" lon="3.73925">
        <ele>1072.19</ele>
        <time>2025-04-16T00:23:06.985Z</time>
      </trkpt>
      <trkpt lat="44.70996" lon="3.73955">
        <ele>1072.22</ele>
        <time>2025-04-16T00:23:22.077Z</time>
      </trkpt>
      <trkpt lat="44.70975" lon="3.73985">
        <ele>1072.25</ele>
        <time>2025-04-16T00:23:37.174Z</time>
      </trkpt>
      <trkpt lat="44.70954" lon="3.74016">
        <ele>1072.29</ele>
        <time>2025-04-16T00:23:52.276Z</time>
      </trkpt>
      <trkpt lat="44.70943" lon="3.74038">
        <ele>1072.33</ele>
        <time>2025-04-16T00:24:07.381Z</time>
      </trkpt>
      <trkpt lat="44.70937" lon="3.74066">
        <ele>1072.37</ele>
        <time>2025-04-16T00:24:22.489Z</time>
      </trkpt>
      <trkpt lat="44.7093" lon="3.741">
        <ele>1072.46</ele>
        <time>2025-04-16T00:24:37.601Z</time>
      </trkpt>
      <trkpt lat="44.70923" lon="3.74134">
        <ele>1072.58</ele>
        <time>2025-04-16T00:24:52.717Z</time>
      </trkpt>
      <trkpt lat="44.70918" lon="3.74144">
        <ele>1072.67</ele>
        <time>2025-04-16T00:25:07.835Z</time>
      </trkpt>
      <trkpt lat="44.70906" lon="3.74169">
        <ele>1072.77</ele>
        <time>2025-04-16T00:25:22.956Z</time>
      </trkpt>
      <trkpt lat="44.70882" lon="3.74195">
        <ele>1072.85</ele>
        <time>2025-04-16T00:25:38.082Z</time>
      </trkpt>
      <trkpt lat="44.70869" lon="3.74201">
        <ele>1072.95</ele>
        <time>2025-04-16T00:25:53.210Z</time>
      </trkpt>
      <trkpt lat="44.70853" lon="3.74201">
        <ele>1073.12</ele>
        <time>2025-04-16T00:26:08.341Z</time>
      </trkpt>
      <trkpt lat="44.70837" lon="3.74199">
        <ele>1073.3</ele>
        <time>2025-04-16T00:26:23.474Z</time>
      </trkpt>
      <trkpt lat="44.70837" lon="3.74199">
        <ele>1073.48</ele>
        <time>2025-04-16T00:26:38.607Z</time>
      </trkpt>
      <trkpt lat="44.70817" lon="3.74192">
        <ele>1073.65</ele>
        <time>2025-04-16T00:26:53.744Z</time>
      </trkpt>
      <trkpt lat="44.708" lon="3.74181">
        <ele>1073.86</ele>
        <time>2025-04-16T00:27:08.883Z</time>
      </trkpt>
      <trkpt lat="44.70784" lon="3.74165">
        <ele>1074.1</ele>
        <time>2025-04-16T00:27:24.026Z</time>
      </trkpt>
      <trkpt lat="44.70763" lon="3.7414">
        <ele>1074.39</ele>
        <time>2025-04-16T00:27:39.173Z</time>
      </trkpt>
      <trkpt lat="44.70742" lon="3.74115">
        <ele>1074.67</ele>
        <time>2025-04-16T00:27:54.325Z</time>
      </trkpt>
      <trkpt lat="44.70721" lon="3.74089">
        <ele>1074.97</ele>
        <time>2025-04-16T00:28:09.481Z</time>
      </trkpt>
      <trkpt lat="44.707" lon="3.74064">
        <ele>1075.34</ele>
        <time>2025-04-16T00:28:24.641Z</time>
      </trkpt>
      <trkpt lat="44.70679" lon="3.74039">
        <ele>1075.7</ele>
        <time>2025-04-16T00:28:39.806Z</time>
      </trkpt>
      <trkpt lat="44.70658" lon="3.74014">
        <ele>1076.04</ele>
        <time>2025-04-16T00:28:54.975Z</time>
      </trkpt>
      <trkpt lat="44.70637" lon="3.73988">
        <ele>1076.34</ele>
        <time>2025-04-16T00:29:10.149Z</time>
      </trkpt>
      <trkpt lat="44.70616" lon="3.73963">
        <ele>1076.61</ele>
        <time>2025-04-16T00:29:25.327Z</time>
      </trkpt>
      <trkpt lat="44.70598" lon="3.73942">
        <ele>1076.96</ele>
        <time>2025-04-16T00:29:40.509Z</time>
      </trkpt>
      <trkpt lat="44.70579" lon="3.73921">
        <ele>1077.34</ele>
        <time>2025-04-16T00:29:55.695Z</time>
      </trkpt>
      <trkpt lat="44.70561" lon="3.739">
        <ele>1077.71</ele>
        <time>2025-04-16T00:30:10.884Z</time>
      </trkpt>
      <trkpt lat="44.70543" lon="3.73879">
        <ele>1078.07</ele>
        <time>2025-04-16T00:30:26.077Z</time>
      </trkpt>
      <trkpt lat="44.70526" lon="3.73866">
        <ele>1078.44</ele>
        <time>2025-04-16T00:30:41.273Z</time>
      </trkpt>
      <trkpt lat="44.70513" lon="3.7386">
        <ele>1078.82</ele>
        <time>2025-04-16T00:30:56.472Z</time>
      </trkpt>
      <trkpt lat="44.70502" lon="3.73861">
        <ele>1079.23</ele>
        <time>2025-04-16T00:31:11.672Z</time>
      </trkpt>
      <trkpt lat="44.70476" lon="3.73873">
        <ele>1079.71</ele>
        <time>2025-04-16T00:31:26.877Z</time>
      </trkpt>
      <trkpt lat="44.7045" lon="3.73884">
        <ele>1080.29</ele>
        <time>2025-04-16T00:31:42.086Z</time>
      </trkpt>
      <trkpt lat="44.70424" lon="3.73895">
        <ele>1080.9</ele>
        <time>2025-04-16T00:31:57.299Z</time>
      </trkpt>
      <trkpt lat="44.70398" lon="3.73907">
        <ele>1081.46</ele>
        <time>2025-04-16T00:32:12.517Z</time>
      </trkpt>
      <trkpt lat="44.70371" lon="3.73918">
        <ele>1081.91</ele>
        <time>2025-04-16T00:32:27.739Z</time>
      </trkpt>
      <trkpt lat="44.70349" lon="3.73929">
        <ele>1082.3</ele>
        <time>2025-04-16T00:32:42.965Z</time>
      </trkpt>
      <trkpt lat="44.70326" lon="3.7394">
        <ele>1082.78</ele>
        <time>2025-04-16T00:32:58.195Z</time>
      </trkpt>
      <trkpt lat="44.70303" lon="3.73957">
        <ele>1083.27</ele>
        <time>2025-04-16T00:33:13.429Z</time>
      </trkpt>
      <trkpt lat="44.70281" lon="3.73977">
        <ele>1083.78</ele>
        <time>2025-04-16T00:33:28.667Z</time>
      </trkpt>
      <trkpt lat="44.70258" lon="3.73996">
        <ele>1084.25</ele>
        <time>2025-04-16T00:33:43.909Z</time>
      </trkpt>
      <trkpt lat="44.70236" lon="3.74016">
        <ele>1084.69</ele>
        <time>2025-04-16T00:33:59.156Z</time>
      </trkpt>
      <trkpt lat="44.70214" lon="3.74036">
        <ele>1085.06</ele>
        <time>2025-04-16T00:34:14.407Z</time>
      </trkpt>
      <trkpt lat="44.70192" lon="3.74056">
        <ele>1085.43</ele>
        <time>2025-04-16T00:34:29.662Z</time>
      </trkpt>
      <trkpt lat="44.70186" lon="3.7405">
        <ele>1085.91</ele>
        <time>2025-04-16T00:34:44.918Z</time>
      </trkpt>
      <trkpt lat="44.70159" lon="3.74052">
        <ele>1086.48</ele>
        <time>2025-04-16T00:35:00.179Z</time>
      </trkpt>
      <trkpt lat="44.7014" lon="3.74061">
        <ele>1087.01</ele>
        <time>2025-04-16T00:35:15.443Z</time>
      </trkpt>
      <trkpt lat="44.70115" lon="3.74069">
        <ele>1087.56</ele>
        <time>2025-04-16T00:35:30.711Z</time>
      </trkpt>
      <trkpt lat="44.7009" lon="3.74078">
        <ele>1087.97</ele>
        <time>2025-04-16T00:35:45.983Z</time>
      </trkpt>
      <trkpt lat="44.70067" lon="3.7409">
        <ele>1088.27</ele>
        <time>2025-04-16T00:36:01.259Z</time>
      </trkpt>
      <trkpt lat="44.70041" lon="3.74104">
        <ele>1088.54</ele>
        <time>2025-04-16T00:36:16.539Z</time>
      </trkpt>
      <trkpt lat="44.70016" lon="3.74119">
        <ele>1088.78</ele>
        <time>2025-04-16T00:36:31.824Z</time>
      </trkpt>
      <trkpt lat="44.69997" lon="3.74132">
        <ele>1088.88</ele>
        <time>2025-04-16T00:36:47.112Z</time>
      </trkpt>
      <trkpt lat="44.69978" lon="3.74146">
        <ele>1088.96</ele>
        <time>2025-04-16T00:37:02.404Z</time>
      </trkpt>
      <trkpt lat="44.69979" lon="3.7415">
        <ele>1089.09</ele>
        <time>2025-04-16T00:37:17.696Z</time>
      </trkpt>
      <trkpt lat="44.69974" lon="3.74155">
        <ele>1089.17</ele>
        <time>2025-04-16T00:37:32.989Z</time>
      </trkpt>
      <trkpt lat="44.69957" lon="3.74166">
        <ele>1089.2</ele>
        <time>2025-04-16T00:37:48.285Z</time>
      </trkpt>
      <trkpt lat="44.69939" lon="3.74176">
        <ele>1089.21</ele>
        <time>2025-04-16T00:38:03.584Z</time>
      </trkpt>
      <trkpt lat="44.69937" lon="3.74174">
        <ele>1089.27</ele>
        <time>2025-04-16T00:38:18.884Z</time>
      </trkpt>
      <trkpt lat="44.69935" lon="3.74149">
        <ele>1089.31</ele>
        <time>2025-04-16T00:38:34.186Z</time>
      </trkpt>
      <trkpt lat="44.6993" lon="3.74136">
        <ele>1089.33</ele>
        <time>2025-04-16T00:38:49.490Z</time>
      </trkpt>
      <trkpt lat="44.69927" lon="3.74127">
        <ele>1089.33</ele>
        <time>2025-04-16T00:39:04.795Z</time>
      </trkpt>
      <trkpt lat="44.69912" lon="3.74107">
        <ele>1089.23</ele>
        <time>2025-04-16T00:39:20.103Z</time>
      </trkpt>
      <trkpt lat="44.69911" lon="3.74104">
        <ele>1089.22</ele>
        <time>2025-04-16T00:39:35.412Z</time>
      </trkpt>
      <trkpt lat="44.69908" lon="3.74089">
        <ele>1089.19</ele>
        <time>2025-04-16T00:39:50.723Z</time>
      </trkpt>
      <trkpt lat="44.699" lon="3.7407">
        <ele>1089.15</ele>
        <time>2025-04-16T00:40:06.036Z</time>
      </trkpt>
      <trkpt lat="44.69897" lon="3.74046">
        <ele>1089.15</ele>
        <time>2025-04-16T00:40:21.352Z</time>
      </trkpt>
      <trkpt lat="44.69893" lon="3.7403">
        <ele>1089.12</ele>
        <time>2025-04-16T00:40:36.670Z</time>
      </trkpt>
      <trkpt lat="44.69886" lon="3.74015">
        <ele>1089.08</ele>
        <time>2025-04-16T00:40:51.990Z</time>
      </trkpt>
      <trkpt lat="44.69875" lon="3.73999">
        <ele>1089.01</ele>
        <time>2025-04-16T00:41:07.312Z</time>
      </trkpt>
      <trkpt lat="44.69854" lon="3.73977">
        <ele>1088.96</ele>
        <time>2025-04-16T00:41:22.639Z</time>
      </trkpt>
      <trkpt lat="44.69833" lon="3.73956">
        <ele>1088.95</ele>
        <time>2025-04-16T00:41:37.970Z</time>
      </trkpt>
      <trkpt lat="44.69807" lon="3.73935">
        <ele>1088.96</ele>
        <time>2025-04-16T00:41:53.305Z</time>
      </trkpt>
      <trkpt lat="44.69789" lon="3.73928">
        <ele>1088.93</ele>
        <time>2025-04-16T00:42:08.644Z</time>
      </trkpt>
      <trkpt lat="44.6977" lon="3.7392">
        <ele>1088.89</ele>
        <time>2025-04-16T00:42:23.986Z</time>
      </trkpt>
      <trkpt lat="44.69745" lon="3.73917">
        <ele>1088.82</ele>
        <time>2025-04-16T00:42:39.332Z</time>
      </trkpt>
      <trkpt lat="44.69723" lon="3.7392">
        <ele>1088.76</ele>
        <time>2025-04-16T00:42:54.681Z</time>
      </trkpt>
      <trkpt lat="44.69704" lon="3.73929">
        <ele>1088.72</ele>
        <time>2025-04-16T00:43:10.033Z</time>
      </trkpt>
      <trkpt lat="44.69677" lon="3.73947">
        <ele>1088.74</ele>
        <time>2025-04-16T00:43:25.390Z</time>
      </trkpt>
      <trkpt lat="44.69653" lon="3.73966">
        <ele>1088.67</ele>
        <time>2025-04-16T00:43:40.752Z</time>
      </trkpt>
      <trkpt lat="44.69629" lon="3.73986">
        <ele>1088.63</ele>
        <time>2025-04-16T00:43:56.118Z</time>
      </trkpt>
      <trkpt lat="44.69608" lon="3.74001">
        <ele>1088.63</ele>
        <time>2025-04-16T00:44:11.488Z</time>
      </trkpt>
      <trkpt lat="44.69586" lon="3.74016">
        <ele>1088.52</ele>
        <time>2025-04-16T00:44:26.862Z</time>
      </trkpt>
      <trkpt lat="44.69586" lon="3.74015">
        <ele>1088.45</ele>
        <time>2025-04-16T00:44:42.236Z</time>
      </trkpt>
      <trkpt lat="44.69586" lon="3.74015">
        <ele>1088.36</ele>
        <time>2025-04-16T00:44:57.610Z</time>
      </trkpt>
      <trkpt lat="44.69586" lon="3.74015">
        <ele>1088.27</ele>
        <time>2025-04-16T00:45:12.984Z</time>
      </trkpt>
      <trkpt lat="44.69586" lon="3.74015">
        <ele>1088.17</ele>
        <time>2025-04-16T00:45:28.358Z</time>
      </trkpt>
      <trkpt lat="44.69586" lon="3.74015">
        <ele>1088.07</ele>
        <time>2025-04-16T00:45:43.732Z</time>
      </trkpt>
      <trkpt lat="44.69586" lon="3.74016">
        <ele>1088.52</ele>
        <time>2025-04-16T00:45:59.106Z</time>
      </trkpt>
      <trkpt lat="44.69562" lon="3.74033">
        <ele>1087.73</ele>
        <time>2025-04-16T00:46:14.484Z</time>
      </trkpt>
      <trkpt lat="44.69546" lon="3.74041">
        <ele>1087.58</ele>
        <time>2025-04-16T00:46:29.865Z</time>
      </trkpt>
      <trkpt lat="44.6953" lon="3.74043">
        <ele>1087.46</ele>
        <time>2025-04-16T00:46:45.249Z</time>
      </trkpt>
      <trkpt lat="44.69511" lon="3.74039">
        <ele>1087.32</ele>
        <time>2025-04-16T00:47:00.636Z</time>
      </trkpt>
      <trkpt lat="44.69498" lon="3.74035">
        <ele>1087.21</ele>
        <time>2025-04-16T00:47:16.025Z</time>
      </trkpt>
      <trkpt lat="44.69485" lon="3.74027">
        <ele>1087.09</ele>
        <time>2025-04-16T00:47:31.416Z</time>
      </trkpt>
      <trkpt lat="44.69475" lon="3.74014">
        <ele>1087.01</ele>
        <time>2025-04-16T00:47:46.809Z</time>
      </trkpt>
      <trkpt lat="44.69458" lon="3.73987">
        <ele>1086.93</ele>
        <time>2025-04-16T00:48:02.206Z</time>
      </trkpt>
      <trkpt lat="44.69441" lon="3.73961">
        <ele>1086.85</ele>
        <time>2025-04-16T00:48:17.607Z</time>
      </trkpt>
      <trkpt lat="44.69424" lon="3.73939">
        <ele>1086.75</ele>
        <time>2025-04-16T00:48:33.012Z</time>
      </trkpt>
      <trkpt lat="44.69407" lon="3.73917">
        <ele>1086.64</ele>
        <time>2025-04-16T00:48:48.421Z</time>
      </trkpt>
      <trkpt lat="44.69391" lon="3.73896">
        <ele>1086.53</ele>
        <time>2025-04-16T00:49:03.833Z</time>
      </trkpt>
      <trkpt lat="44.69373" lon="3.73878">
        <ele>1086.46</ele>
        <time>2025-04-16T00:49:19.249Z</time>
      </trkpt>
      <trkpt lat="44.69355" lon="3.7386">
        <ele>1086.39</ele>
        <time>2025-04-16T00:49:34.668Z</time>
      </trkpt>
      <trkpt lat="44.69332" lon="3.73844">
        <ele>1086.29</ele>
        <time>2025-04-16T00:49:50.091Z</time>
      </trkpt>
      <trkpt lat="44.6933" lon="3.73842">
        <ele>1086.2</ele>
        <time>2025-04-16T00:50:05.515Z</time>
      </trkpt>
      <trkpt lat="44.69309" lon="3.73831">
        <ele>1086.12</ele>
        <time>2025-04-16T00:50:20.942Z</time>
      </trkpt>
      <trkpt lat="44.69289" lon="3.73828">
        <ele>1086.03</ele>
        <time>2025-04-16T00:50:36.373Z</time>
      </trkpt>
      <trkpt lat="44.69269" lon="3.73824">
        <ele>1085.92</ele>
        <time>2025-04-16T00:50:51.807Z</time>
      </trkpt>
      <trkpt lat="44.69245" lon="3.73816">
        <ele>1085.77</ele>
        <time>2025-04-16T00:51:07.245Z</time>
      </trkpt>
      <trkpt lat="44.69235" lon="3.73808">
        <ele>1085.69</ele>
        <time>2025-04-16T00:51:22.685Z</time>
      </trkpt>
      <trkpt lat="44.69225" lon="3.73796">
        <ele>1085.63</ele>
        <time>2025-04-16T00:51:38.127Z</time>
      </trkpt>
      <trkpt lat="44.69214" lon="3.73769">
        <ele>1085.64</ele>
        <time>2025-04-16T00:51:53.572Z</time>
      </trkpt>
      <trkpt lat="44.69202" lon="3.73741">
        <ele>1085.62</ele>
        <time>2025-04-16T00:52:09.021Z</time>
      </trkpt>
      <trkpt lat="44.6919" lon="3.73714">
        <ele>1085.62</ele>
        <time>2025-04-16T00:52:24.474Z</time>
      </trkpt>
      <trkpt lat="44.69178" lon="3.73696">
        <ele>1085.6</ele>
        <time>2025-04-16T00:52:39.929Z</time>
      </trkpt>
      <trkpt lat="44.69165" lon="3.73678">
        <ele>1085.57</ele>
        <time>2025-04-16T00:52:55.387Z</time>
      </trkpt>
      <trkpt lat="44.6915" lon="3.73668">
        <ele>1085.49</ele>
        <time>2025-04-16T00:53:10.848Z</time>
      </trkpt>
      <trkpt lat="44.69135" lon="3.73658">
        <ele>1085.43</ele>
        <time>2025-04-16T00:53:26.312Z</time>
      </trkpt>
      <trkpt lat="44.69121" lon="3.73646">
        <ele>1085.38</ele>
        <time>2025-04-16T00:53:41.778Z</time>
      </trkpt>
      <trkpt lat="44.69113" lon="3.73635">
        <ele>1085.36</ele>
        <time>2025-04-16T00:53:57.246Z</time>
      </trkpt>
      <trkpt lat="44.69103" lon="3.7362">
        <ele>1085.36</ele>
        <time>2025-04-16T00:54:12.716Z</time>
      </trkpt>
      <trkpt lat="44.69091" lon="3.73589">
        <ele>1085.4</ele>
        <time>2025-04-16T00:54:28.190Z</time>
      </trkpt>
      <trkpt lat="44.6908" lon="3.73559">
        <ele>1085.45</ele>
        <time>2025-04-16T00:54:43.668Z</time>
      </trkpt>
      <trkpt lat="44.69073" lon="3.73534">
        <ele>1085.54</ele>
        <time>2025-04-16T00:54:59.149Z</time>
      </trkpt>
      <trkpt lat="44.69066" lon="3.73509">
        <ele>1085.54</ele>
        <time>2025-04-16T00:55:14.633Z</time>
      </trkpt>
      <trkpt lat="44.69065" lon="3.73501">
        <ele>1085.6</ele>
        <time>2025-04-16T00:55:30.118Z</time>
      </trkpt>
      <trkpt lat="44.6906" lon="3.73473">
        <ele>1085.64</ele>
        <time>2025-04-16T00:55:45.607Z</time>
      </trkpt>
      <trkpt lat="44.69055" lon="3.73445">
        <ele>1085.68</ele>
        <time>2025-04-16T00:56:01.099Z</time>
      </trkpt>
      <trkpt lat="44.69052" lon="3.73415">
        <ele>1085.75</ele>
        <time>2025-04-16T00:56:16.595Z</time>
      </trkpt>
      <trkpt lat="44.69048" lon="3.73384">
        <ele>1085.85</ele>
        <time>2025-04-16T00:56:32.094Z</time>
      </trkpt>
      <trkpt lat="44.69045" lon="3.73354">
        <ele>1085.97</ele>
        <time>2025-04-16T00:56:47.597Z</time>
      </trkpt>
      <trkpt lat="44.69044" lon="3.73328">
        <ele>1086.07</ele>
        <time>2025-04-16T00:57:03.103Z</time>
      </trkpt>
      <trkpt lat="44.69043" lon="3.73301">
        <ele>1086.16</ele>
        <time>2025-04-16T00:57:18.612Z</time>
      </trkpt>
      <trkpt lat="44.69044" lon="3.73272">
        <ele>1086.23</ele>
        <time>2025-04-16T00:57:34.124Z</time>
      </trkpt>
      <trkpt lat="44.69044" lon="3.73265">
        <ele>1086.3</ele>
        <time>2025-04-16T00:57:49.637Z</time>
      </trkpt>
      <trkpt lat="44.69048" lon="3.73224">
        <ele>1086.38</ele>
        <time>2025-04-16T00:58:05.154Z</time>
      </trkpt>
      <trkpt lat="44.69052" lon="3.73183">
        <ele>1086.43</ele>
        <time>2025-04-16T00:58:20.676Z</time>
      </trkpt>
      <trkpt lat="44.69057" lon="3.73158">
        <ele>1086.48</ele>
        <time>2025-04-16T00:58:36.201Z</time>
      </trkpt>
      <trkpt lat="44.69064" lon="3.73132">
        <ele>1086.55</ele>
        <time>2025-04-16T00:58:51.729Z</time>
      </trkpt>
      <trkpt lat="44.69071" lon="3.73106">
        <ele>1086.61</ele>
        <time>2025-04-16T00:59:07.260Z</time>
      </trkpt>
      <trkpt lat="44.69084" lon="3.73068">
        <ele>1086.69</ele>
        <time>2025-04-16T00:59:22.796Z</time>
      </trkpt>
      <trkpt lat="44.69097" lon="3.73031">
        <ele>1086.76</ele>
        <time>2025-04-16T00:59:38.337Z</time>
      </trkpt>
      <trkpt lat="44.69111" lon="3.72993">
        <ele>1086.84</ele>
        <time>2025-04-16T00:59:53.883Z</time>
      </trkpt>
      <trkpt lat="44.6912" lon="3.72977">
        <ele>1086.89</ele>
        <time>2025-04-16T01:00:09.431Z</time>
      </trkpt>
      <trkpt lat="44.69134" lon="3.72958">
        <ele>1086.93</ele>
        <time>2025-04-16T01:00:24.982Z</time>
      </trkpt>
      <trkpt lat="44.69155" lon="3.72933">
        <ele>1087.03</ele>
        <time>2025-04-16T01:00:40.538Z</time>
      </trkpt>
      <trkpt lat="44.69166" lon="3.72923">
        <ele>1087.12</ele>
        <time>2025-04-16T01:00:56.096Z</time>
      </trkpt>
      <trkpt lat="44.69166" lon="3.72923">
        <ele>1087.16</ele>
        <time>2025-04-16T01:01:11.654Z</time>
      </trkpt>
      <trkpt lat="44.69192" lon="3.72905">
        <ele>1087.26</ele>
        <time>2025-04-16T01:01:27.216Z</time>
      </trkpt>
      <trkpt lat="44.69218" lon="3.72888">
        <ele>1087.27</ele>
        <time>2025-04-16T01:01:42.783Z</time>
      </trkpt>
      <trkpt lat="44.69241" lon="3.72865">
        <ele>1087.26</ele>
        <time>2025-04-16T01:01:58.355Z</time>
      </trkpt>
      <trkpt lat="44.69264" lon="3.72841">
        <ele>1087.26</ele>
        <time>2025-04-16T01:02:13.931Z</time>
      </trkpt>
      <trkpt lat="44.69264" lon="3.72841">
        <ele>1087.29</ele>
        <time>2025-04-16T01:02:29.507Z</time>
      </trkpt>
      <trkpt lat="44.69287" lon="3.72812">
        <ele>1087.32</ele>
        <time>2025-04-16T01:02:45.088Z</time>
      </trkpt>
      <trkpt lat="44.6931" lon="3.72784">
        <ele>1087.38</ele>
        <time>2025-04-16T01:03:00.674Z</time>
      </trkpt>
      <trkpt lat="44.69333" lon="3.72755">
        <ele>1087.41</ele>
        <time>2025-04-16T01:03:16.265Z</time>
      </trkpt>
      <trkpt lat="44.69356" lon="3.72727">
        <ele>1087.37</ele>
        <time>2025-04-16T01:03:31.861Z</time>
      </trkpt>
      <trkpt lat="44.69379" lon="3.72698">
        <ele>1087.38</ele>
        <time>2025-04-16T01:03:47.462Z</time>
      </trkpt>
      <trkpt lat="44.69402" lon="3.72669">
        <ele>1087.36</ele>
        <time>2025-04-16T01:04:03.068Z</time>
      </trkpt>
      <trkpt lat="44.69428" lon="3.72645">
        <ele>1087.34</ele>
        <time>2025-04-16T01:04:18.679Z</time>
      </trkpt>
      <trkpt lat="44.69453" lon="3.72621">
        <ele>1087.34</ele>
        <time>2025-04-16T01:04:34.294Z</time>
      </trkpt>
      <trkpt lat="44.69478" lon="3.72596">
        <ele>1087.37</ele>
        <time>2025-04-16T01:04:49.914Z</time>
      </trkpt>
      <trkpt lat="44.69496" lon="3.72565">
        <ele>1087.36</ele>
        <time>2025-04-16T01:05:05.539Z</time>
      </trkpt>
      <trkpt lat="44.69515" lon="3.72534">
        <ele>1087.41</ele>
        <time>2025-04-16T01:05:21.169Z</time>
      </trkpt>
      <trkpt lat="44.69526" lon="3.72505">
        <ele>1087.47</ele>
        <time>2025-04-16T01:05:36.802Z</time>
      </trkpt>
      <trkpt lat="44.69538" lon="3.72476">
        <ele>1087.55</ele>
        <time>2025-04-16T01:05:52.439Z</time>
      </trkpt>
      <trkpt lat="44.69543" lon="3.72436">
        <ele>1087.66</ele>
        <time>2025-04-16T01:06:08.081Z</time>
      </trkpt>
      <trkpt lat="44.69542" lon="3.72396">
        <ele>1087.74</ele>
        <time>2025-04-16T01:06:23.727Z</time>
      </trkpt>
      <trkpt lat="44.6954" lon="3.72363">
        <ele>1087.77</ele>
        <time>2025-04-16T01:06:39.377Z</time>
      </trkpt>
      <trkpt lat="44.69538" lon="3.7233">
        <ele>1087.83</ele>
        <time>2025-04-16T01:06:55.031Z</time>
      </trkpt>
      <trkpt lat="44.69537" lon="3.72297">
        <ele>1087.92</ele>
        <time>2025-04-16T01:07:10.689Z</time>
      </trkpt>
      <trkpt lat="44.69532" lon="3.72269">
        <ele>1088</ele>
        <time>2025-04-16T01:07:26.350Z</time>
      </trkpt>
      <trkpt lat="44.69527" lon="3.72242">
        <ele>1088.1</ele>
        <time>2025-04-16T01:07:42.014Z</time>
      </trkpt>
      <trkpt lat="44.69518" lon="3.72213">
        <ele>1088.2</ele>
        <time>2025-04-16T01:07:57.682Z</time>
      </trkpt>
      <trkpt lat="44.69501" lon="3.72179">
        <ele>1088.31</ele>
        <time>2025-04-16T01:08:13.355Z</time>
      </trkpt>
      <trkpt lat="44.69493" lon="3.72151">
        <ele>1088.46</ele>
        <time>2025-04-16T01:08:29.031Z</time>
      </trkpt>
      <trkpt lat="44.6949" lon="3.72131">
        <ele>1088.58</ele>
        <time>2025-04-16T01:08:44.709Z</time>
      </trkpt>
      <trkpt lat="44.69489" lon="3.72109">
        <ele>1088.73</ele>
        <time>2025-04-16T01:09:00.390Z</time>
      </trkpt>
      <trkpt lat="44.6949" lon="3.7207">
        <ele>1088.87</ele>
        <time>2025-04-16T01:09:16.075Z</time>
      </trkpt>
      <trkpt lat="44.69494" lon="3.72039">
        <ele>1089.02</ele>
        <time>2025-04-16T01:09:31.764Z</time>
      </trkpt>
      <trkpt lat="44.69497" lon="3.72008">
        <ele>1089.19</ele>
        <time>2025-04-16T01:09:47.456Z</time>
      </trkpt>
      <trkpt lat="44.69497" lon="3.72008">
        <ele>1089.35</ele>
        <time>2025-04-16T01:10:03.148Z</time>
      </trkpt>
      <trkpt lat="44.69497" lon="3.71984">
        <ele>1089.53</ele>
        <time>2025-04-16T01:10:18.843Z</time>
      </trkpt>
      <trkpt lat="44.69498" lon="3.7196">
        <ele>1089.72</ele>
        <time>2025-04-16T01:10:34.541Z</time>
      </trkpt>
      <trkpt lat="44.69496" lon="3.71929">
        <ele>1089.94</ele>
        <time>2025-04-16T01:10:50.242Z</time>
      </trkpt>
      <trkpt lat="44.69494" lon="3.71898">
        <ele>1090.18</ele>
        <time>2025-04-16T01:11:05.947Z</time>
      </trkpt>
      <trkpt lat="44.69488" lon="3.71877">
        <ele>1090.38</ele>
        <time>2025-04-16T01:11:21.655Z</time>
      </trkpt>
      <trkpt lat="44.69483" lon="3.71856">
        <ele>1090.57</ele>
        <time>2025-04-16T01:11:37.365Z</time>
      </trkpt>
      <trkpt lat="44.69469" lon="3.7182">
        <ele>1090.75</ele>
        <time>2025-04-16T01:11:53.080Z</time>
      </trkpt>
      <trkpt lat="44.69456" lon="3.71794">
        <ele>1090.95</ele>
        <time>2025-04-16T01:12:08.799Z</time>
      </trkpt>
      <trkpt lat="44.69442" lon="3.71768">
        <ele>1091.15</ele>
        <time>2025-04-16T01:12:24.521Z</time>
      </trkpt>
      <trkpt lat="44.69431" lon="3.71752">
        <ele>1091.36</ele>
        <time>2025-04-16T01:12:40.246Z</time>
      </trkpt>
      <trkpt lat="44.69413" lon="3.7173">
        <ele>1091.58</ele>
        <time>2025-04-16T01:12:55.975Z</time>
      </trkpt>
      <trkpt lat="44.69394" lon="3.71707">
        <ele>1091.87</ele>
        <time>2025-04-16T01:13:11.708Z</time>
      </trkpt>
      <trkpt lat="44.69375" lon="3.71688">
        <ele>1092.14</ele>
        <time>2025-04-16T01:13:27.444Z</time>
      </trkpt>
      <trkpt lat="44.69351" lon="3.71672">
        <ele>1092.42</ele>
        <time>2025-04-16T01:13:43.185Z</time>
      </trkpt>
      <trkpt lat="44.69341" lon="3.71663">
        <ele>1092.7</ele>
        <time>2025-04-16T01:13:58.927Z</time>
      </trkpt>
      <trkpt lat="44.69321" lon="3.71653">
        <ele>1092.98</ele>
        <time>2025-04-16T01:14:14.673Z</time>
      </trkpt>
      <trkpt lat="44.69321" lon="3.71653">
        <ele>1093.24</ele>
        <time>2025-04-16T01:14:30.419Z</time>
      </trkpt>
      <trkpt lat="44.69294" lon="3.71649">
        <ele>1093.53</ele>
        <time>2025-04-16T01:14:46.169Z</time>
      </trkpt>
      <trkpt lat="44.69271" lon="3.71652">
        <ele>1093.77</ele>
        <time>2025-04-16T01:15:01.923Z</time>
      </trkpt>
      <trkpt lat="44.69246" lon="3.7165">
        <ele>1093.99</ele>
        <time>2025-04-16T01:15:17.681Z</time>
      </trkpt>
      <trkpt lat="44.6923" lon="3.71646">
        <ele>1094.22</ele>
        <time>2025-04-16T01:15:33.442Z</time>
      </trkpt>
      <trkpt lat="44.69206" lon="3.71634">
        <ele>1094.48</ele>
        <time>2025-04-16T01:15:49.207Z</time>
      </trkpt>
      <trkpt lat="44.69194" lon="3.71618">
        <ele>1094.78</ele>
        <time>2025-04-16T01:16:04.974Z</time>
      </trkpt>
      <trkpt lat="44.69176" lon="3.71585">
        <ele>1095.08</ele>
        <time>2025-04-16T01:16:20.746Z</time>
      </trkpt>
      <trkpt lat="44.69166" lon="3.71561">
        <ele>1095.41</ele>
        <time>2025-04-16T01:16:36.521Z</time>
      </trkpt>
      <trkpt lat="44.69157" lon="3.71537">
        <ele>1095.71</ele>
        <time>2025-04-16T01:16:52.299Z</time>
      </trkpt>
      <trkpt lat="44.69145" lon="3.71501">
        <ele>1096</ele>
        <time>2025-04-16T01:17:08.082Z</time>
      </trkpt>
      <trkpt lat="44.69142" lon="3.71476">
        <ele>1096.29</ele>
        <time>2025-04-16T01:17:23.868Z</time>
      </trkpt>
      <trkpt lat="44.69139" lon="3.71452">
        <ele>1096.57</ele>
        <time>2025-04-16T01:17:39.656Z</time>
      </trkpt>
      <trkpt lat="44.69137" lon="3.7141">
        <ele>1096.89</ele>
        <time>2025-04-16T01:17:55.449Z</time>
      </trkpt>
      <trkpt lat="44.69135" lon="3.71368">
        <ele>1097.18</ele>
        <time>2025-04-16T01:18:11.247Z</time>
      </trkpt>
      <trkpt lat="44.69133" lon="3.71327">
        <ele>1097.49</ele>
        <time>2025-04-16T01:18:27.050Z</time>
      </trkpt>
      <trkpt lat="44.69132" lon="3.71285">
        <ele>1097.77</ele>
        <time>2025-04-16T01:18:42.858Z</time>
      </trkpt>
      <trkpt lat="44.6913" lon="3.71243">
        <ele>1098.01</ele>
        <time>2025-04-16T01:18:58.670Z</time>
      </trkpt>
      <trkpt lat="44.69128" lon="3.71202">
        <ele>1098.2</ele>
        <time>2025-04-16T01:19:14.487Z</time>
      </trkpt>
      <trkpt lat="44.69127" lon="3.71161">
        <ele>1098.46</ele>
        <time>2025-04-16T01:19:30.309Z</time>
      </trkpt>
      <trkpt lat="44.69123" lon="3.71138">
        <ele>1098.73</ele>
        <time>2025-04-16T01:19:46.133Z</time>
      </trkpt>
      <trkpt lat="44.69119" lon="3.71115">
        <ele>1098.99</ele>
        <time>2025-04-16T01:20:01.960Z</time>
      </trkpt>
      <trkpt lat="44.69113" lon="3.71087">
        <ele>1099.24</ele>
        <time>2025-04-16T01:20:17.790Z</time>
      </trkpt>
      <trkpt lat="44.69107" lon="3.7106">
        <ele>1099.42</ele>
        <time>2025-04-16T01:20:33.624Z</time>
      </trkpt>
      <trkpt lat="44.69098" lon="3.71024">
        <ele>1099.61</ele>
        <time>2025-04-16T01:20:49.462Z</time>
      </trkpt>
      <trkpt lat="44.69089" lon="3.70988">
        <ele>1099.77</ele>
        <time>2025-04-16T01:21:05.304Z</time>
      </trkpt>
      <trkpt lat="44.69074" lon="3.70957">
        <ele>1099.93</ele>
        <time>2025-04-16T01:21:21.151Z</time>
      </trkpt>
      <trkpt lat="44.69059" lon="3.70926">
        <ele>1100.14</ele>
        <time>2025-04-16T01:21:37.002Z</time>
      </trkpt>
      <trkpt lat="44.69039" lon="3.70896">
        <ele>1100.35</ele>
        <time>2025-04-16T01:21:52.858Z</time>
      </trkpt>
      <trkpt lat="44.69019" lon="3.70866">
        <ele>1100.55</ele>
        <time>2025-04-16T01:22:08.718Z</time>
      </trkpt>
      <trkpt lat="44.69002" lon="3.70843">
        <ele>1100.69</ele>
        <time>2025-04-16T01:22:24.582Z</time>
      </trkpt>
      <trkpt lat="44.68985" lon="3.70819">
        <ele>1100.79</ele>
        <time>2025-04-16T01:22:40.450Z</time>
      </trkpt>
      <trkpt lat="44.68968" lon="3.70796">
        <ele>1100.86</ele>
        <time>2025-04-16T01:22:56.322Z</time>
      </trkpt>
      <trkpt lat="44.68959" lon="3.70775">
        <ele>1100.95</ele>
        <time>2025-04-16T01:23:12.197Z</time>
      </trkpt>
      <trkpt lat="44.68954" lon="3.70752">
        <ele>1101.02</ele>
        <time>2025-04-16T01:23:28.074Z</time>
      </trkpt>
      <trkpt lat="44.68954" lon="3.70718">
        <ele>1101.15</ele>
        <time>2025-04-16T01:23:43.955Z</time>
      </trkpt>
      <trkpt lat="44.68955" lon="3.70685">
        <ele>1101.25</ele>
        <time>2025-04-16T01:23:59.840Z</time>
      </trkpt>
      <trkpt lat="44.68955" lon="3.70651">
        <ele>1101.33</ele>
        <time>2025-04-16T01:24:15.729Z</time>
      </trkpt>
      <trkpt lat="44.68953" lon="3.70626">
        <ele>1101.38</ele>
        <time>2025-04-16T01:24:31.621Z</time>
      </trkpt>
      <trkpt lat="44.6895" lon="3.70613">
        <ele>1101.45</ele>
        <time>2025-04-16T01:24:47.514Z</time>
      </trkpt>
      <trkpt lat="44.68943" lon="3.706">
        <ele>1101.56</ele>
        <time>2025-04-16T01:25:03.409Z</time>
      </trkpt>
      <trkpt lat="44.68933" lon="3.70589">
        <ele>1101.65</ele>
        <time>2025-04-16T01:25:19.306Z</time>
      </trkpt>
      <trkpt lat="44.68913" lon="3.70577">
        <ele>1101.77</ele>
        <time>2025-04-16T01:25:35.207Z</time>
      </trkpt>
      <trkpt lat="44.68894" lon="3.70564">
        <ele>1101.89</ele>
        <time>2025-04-16T01:25:51.111Z</time>
      </trkpt>
      <trkpt lat="44.68894" lon="3.70564">
        <ele>1101.95</ele>
        <time>2025-04-16T01:26:07.015Z</time>
      </trkpt>
      <trkpt lat="44.68866" lon="3.70552">
        <ele>1102.11</ele>
        <time>2025-04-16T01:26:22.924Z</time>
      </trkpt>
      <trkpt lat="44.68838" lon="3.7054">
        <ele>1102.17</ele>
        <time>2025-04-16T01:26:38.837Z</time>
      </trkpt>
      <trkpt lat="44.6881" lon="3.70528">
        <ele>1102.14</ele>
        <time>2025-04-16T01:26:54.755Z</time>
      </trkpt>
      <trkpt lat="44.68782" lon="3.70516">
        <ele>1102.16</ele>
        <time>2025-04-16T01:27:10.678Z</time>
      </trkpt>
      <trkpt lat="44.68754" lon="3.70504">
        <ele>1102.15</ele>
        <time>2025-04-16T01:27:26.605Z</time>
      </trkpt>
      <trkpt lat="44.68729" lon="3.70494">
        <ele>1102.14</ele>
        <time>2025-04-16T01:27:42.537Z</time>
      </trkpt>
      <trkpt lat="44.68704" lon="3.70483">
        <ele>1102.15</ele>
        <time>2025-04-16T01:27:58.473Z</time>
      </trkpt>
      <trkpt lat="44.68685" lon="3.70483">
        <ele>1102.16</ele>
        <time>2025-04-16T01:28:14.412Z</time>
      </trkpt>
      <trkpt lat="44.68666" lon="3.7049">
        <ele>1102.13</ele>
        <time>2025-04-16T01:28:30.354Z</time>
      </trkpt>
      <trkpt lat="44.68644" lon="3.70506">
        <ele>1102.09</ele>
        <time>2025-04-16T01:28:46.300Z</time>
      </trkpt>
      <trkpt lat="44.68623" lon="3.70524">
        <ele>1102.09</ele>
        <time>2025-04-16T01:29:02.250Z</time>
      </trkpt>
      <trkpt lat="44.68602" lon="3.70542">
        <ele>1102.15</ele>
        <time>2025-04-16T01:29:18.204Z</time>
      </trkpt>
      <trkpt lat="44.6858" lon="3.7056">
        <ele>1102.18</ele>
        <time>2025-04-16T01:29:34.162Z</time>
      </trkpt>
      <trkpt lat="44.68559" lon="3.70577">
        <ele>1102.17</ele>
        <time>2025-04-16T01:29:50.124Z</time>
      </trkpt>
      <trkpt lat="44.68537" lon="3.70594">
        <ele>1102.14</ele>
        <time>2025-04-16T01:30:06.090Z</time>
      </trkpt>
      <trkpt lat="44.68515" lon="3.70612">
        <ele>1102.1</ele>
        <time>2025-04-16T01:30:22.060Z</time>
      </trkpt>
      <trkpt lat="44.68493" lon="3.70629">
        <ele>1102.06</ele>
        <time>2025-04-16T01:30:38.034Z</time>
      </trkpt>
      <trkpt lat="44.68481" lon="3.70634">
        <ele>1102.03</ele>
        <time>2025-04-16T01:30:54.010Z</time>
      </trkpt>
      <trkpt lat="44.68466" lon="3.70637">
        <ele>1101.97</ele>
        <time>2025-04-16T01:31:09.988Z</time>
      </trkpt>
      <trkpt lat="44.68449" lon="3.70638">
        <ele>1101.9</ele>
        <time>2025-04-16T01:31:25.969Z</time>
      </trkpt>
      <trkpt lat="44.68433" lon="3.70638">
        <ele>1101.83</ele>
        <time>2025-04-16T01:31:41.953Z</time>
      </trkpt>
      <trkpt lat="44.68415" lon="3.70637">
        <ele>1101.75</ele>
        <time>2025-04-16T01:31:57.939Z</time>
      </trkpt>
      <trkpt lat="44.68397" lon="3.70635">
        <ele>1101.65</ele>
        <time>2025-04-16T01:32:13.928Z</time>
      </trkpt>
      <trkpt lat="44.68389" lon="3.70631">
        <ele>1101.59</ele>
        <time>2025-04-16T01:32:29.919Z</time>
      </trkpt>
      <trkpt lat="44.6838" lon="3.70622">
        <ele>1101.56</ele>
        <time>2025-04-16T01:32:45.911Z</time>
      </trkpt>
      <trkpt lat="44.68374" lon="3.70613">
        <ele>1101.54</ele>
        <time>2025-04-16T01:33:01.905Z</time>
      </trkpt>
      <trkpt lat="44.68365" lon="3.70581">
        <ele>1101.57</ele>
        <time>2025-04-16T01:33:17.903Z</time>
      </trkpt>
      <trkpt lat="44.68356" lon="3.7055">
        <ele>1101.61</ele>
        <time>2025-04-16T01:33:33.905Z</time>
      </trkpt>
      <trkpt lat="44.68349" lon="3.70531">
        <ele>1101.64</ele>
        <time>2025-04-16T01:33:49.909Z</time>
      </trkpt>
      <trkpt lat="44.68339" lon="3.70513">
        <ele>1101.62</ele>
        <time>2025-04-16T01:34:05.916Z</time>
      </trkpt>
      <trkpt lat="44.68329" lon="3.70496">
        <ele>1101.6</ele>
        <time>2025-04-16T01:34:21.925Z</time>
      </trkpt>
      <trkpt lat="44.68329" lon="3.70496">
        <ele>1101.58</ele>
        <time>2025-04-16T01:34:37.934Z</time>
      </trkpt>
      <trkpt lat="44.68318" lon="3.70481">
        <ele>1101.55</ele>
        <time>2025-04-16T01:34:53.946Z</time>
      </trkpt>
      <trkpt lat="44.68302" lon="3.70467">
        <ele>1101.53</ele>
        <time>2025-04-16T01:35:09.961Z</time>
      </trkpt>
      <trkpt lat="44.68287" lon="3.70453">
        <ele>1101.56</ele>
        <time>2025-04-16T01:35:25.979Z</time>
      </trkpt>
      <trkpt lat="44.68271" lon="3.70441">
        <ele>1101.56</ele>
        <time>2025-04-16T01:35:41.999Z</time>
      </trkpt>
      <trkpt lat="44.68256" lon="3.70429">
        <ele>1101.57</ele>
        <time>2025-04-16T01:35:58.022Z</time>
      </trkpt>
      <trkpt lat="44.68238" lon="3.7042">
        <ele>1101.58</ele>
        <time>2025-04-16T01:36:14.048Z</time>
      </trkpt>
      <trkpt lat="44.68218" lon="3.7041">
        <ele>1101.62</ele>
        <time>2025-04-16T01:36:30.078Z</time>
      </trkpt>
      <trkpt lat="44.68191" lon="3.704">
        <ele>1101.66</ele>
        <time>2025-04-16T01:36:46.112Z</time>
      </trkpt>
      <trkpt lat="44.68164" lon="3.7039">
        <ele>1101.65</ele>
        <time>2025-04-16T01:37:02.151Z</time>
      </trkpt>
      <trkpt lat="44.68136" lon="3.7038">
        <ele>1101.71</ele>
        <time>2025-04-16T01:37:18.194Z</time>
      </trkpt>
      <trkpt lat="44.68111" lon="3.70377">
        <ele>1101.71</ele>
        <time>2025-04-16T01:37:34.241Z</time>
      </trkpt>
      <trkpt lat="44.68084" lon="3.70379">
        <ele>1101.73</ele>
        <time>2025-04-16T01:37:50.293Z</time>
      </trkpt>
      <trkpt lat="44.68067" lon="3.70383">
        <ele>1101.77</ele>
        <time>2025-04-16T01:38:06.347Z</time>
      </trkpt>
      <trkpt lat="44.6805" lon="3.70386">
        <ele>1101.87</ele>
        <time>2025-04-16T01:38:22.404Z</time>
      </trkpt>
      <trkpt lat="44.68026" lon="3.70396">
        <ele>1102.05</ele>
        <time>2025-04-16T01:38:38.465Z</time>
      </trkpt>
      <trkpt lat="44.68" lon="3.7041">
        <ele>1102.25</ele>
        <time>2025-04-16T01:38:54.531Z</time>
      </trkpt>
      <trkpt lat="44.67974" lon="3.70425">
        <ele>1102.45</ele>
        <time>2025-04-16T01:39:10.601Z</time>
      </trkpt>
      <trkpt lat="44.6795" lon="3.70435">
        <ele>1102.7</ele>
        <time>2025-04-16T01:39:26.675Z</time>
      </trkpt>
      <trkpt lat="44.67925" lon="3.70445">
        <ele>1102.88</ele>
        <time>2025-04-16T01:39:42.753Z</time>
      </trkpt>
      <trkpt lat="44.679" lon="3.70455">
        <ele>1103.1</ele>
        <time>2025-04-16T01:39:58.835Z</time>
      </trkpt>
      <trkpt lat="44.67876" lon="3.70465">
        <ele>1103.3</ele>
        <time>2025-04-16T01:40:14.921Z</time>
      </trkpt>
      <trkpt lat="44.67851" lon="3.70475">
        <ele>1103.52</ele>
        <time>2025-04-16T01:40:31.012Z</time>
      </trkpt>
      <trkpt lat="44.67826" lon="3.70484">
        <ele>1103.75</ele>
        <time>2025-04-16T01:40:47.107Z</time>
      </trkpt>
      <trkpt lat="44.67802" lon="3.70492">
        <ele>1103.94</ele>
        <time>2025-04-16T01:41:03.206Z</time>
      </trkpt>
      <trkpt lat="44.67777" lon="3.70501">
        <ele>1104.09</ele>
        <time>2025-04-16T01:41:19.309Z</time>
      </trkpt>
      <trkpt lat="44.67765" lon="3.70502">
        <ele>1104.39</ele>
        <time>2025-04-16T01:41:35.414Z</time>
      </trkpt>
      <trkpt lat="44.67744" lon="3.70505">
        <ele>1104.66</ele>
        <time>2025-04-16T01:41:51.522Z</time>
      </trkpt>
      <trkpt lat="44.67732" lon="3.70506">
        <ele>1104.95</ele>
        <time>2025-04-16T01:42:07.632Z</time>
      </trkpt>
      <trkpt lat="44.67715" lon="3.70501">
        <ele>1105.25</ele>
        <time>2025-04-16T01:42:23.745Z</time>
      </trkpt>
      <trkpt lat="44.67706" lon="3.70493">
        <ele>1105.6</ele>
        <time>2025-04-16T01:42:39.859Z</time>
      </trkpt>
      <trkpt lat="44.67701" lon="3.70484">
        <ele>1106</ele>
        <time>2025-04-16T01:42:55.975Z</time>
      </trkpt>
      <trkpt lat="44.67698" lon="3.70474">
        <ele>1106.42</ele>
        <time>2025-04-16T01:43:12.092Z</time>
      </trkpt>
      <trkpt lat="44.67697" lon="3.7046">
        <ele>1106.91</ele>
        <time>2025-04-16T01:43:28.211Z</time>
      </trkpt>
      <trkpt lat="44.67698" lon="3.70441">
        <ele>1107.43</ele>
        <time>2025-04-16T01:43:44.332Z</time>
      </trkpt>
      <trkpt lat="44.67707" lon="3.70406">
        <ele>1108.04</ele>
        <time>2025-04-16T01:44:00.457Z</time>
      </trkpt>
      <trkpt lat="44.67709" lon="3.70385">
        <ele>1108.62</ele>
        <time>2025-04-16T01:44:16.585Z</time>
      </trkpt>
      <trkpt lat="44.67708" lon="3.70364">
        <ele>1109.19</ele>
        <time>2025-04-16T01:44:32.715Z</time>
      </trkpt>
      <trkpt lat="44.67702" lon="3.70346">
        <ele>1109.79</ele>
        <time>2025-04-16T01:44:48.847Z</time>
      </trkpt>
      <trkpt lat="44.6769" lon="3.70331">
        <ele>1110.44</ele>
        <time>2025-04-16T01:45:04.982Z</time>
      </trkpt>
      <trkpt lat="44.67679" lon="3.70321">
        <ele>1111.1</ele>
        <time>2025-04-16T01:45:21.119Z</time>
      </trkpt>
      <trkpt lat="44.67668" lon="3.70318">
        <ele>1111.73</ele>
        <time>2025-04-16T01:45:37.258Z</time>
      </trkpt>
      <trkpt lat="44.67647" lon="3.7032">
        <ele>1112.31</ele>
        <time>2025-04-16T01:45:53.400Z</time>
      </trkpt>
      <trkpt lat="44.67627" lon="3.70322">
        <ele>1112.9</ele>
        <time>2025-04-16T01:46:09.545Z</time>
      </trkpt>
      <trkpt lat="44.67611" lon="3.7032">
        <ele>1113.54</ele>
        <time>2025-04-16T01:46:25.693Z</time>
      </trkpt>
      <trkpt lat="44.67598" lon="3.70314">
        <ele>1114.19</ele>
        <time>2025-04-16T01:46:41.843Z</time>
      </trkpt>
      <trkpt lat="44.67591" lon="3.70308">
        <ele>1114.87</ele>
        <time>2025-04-16T01:46:57.994Z</time>
      </trkpt>
      <trkpt lat="44.67573" lon="3.70276">
        <ele>1115.64</ele>
        <time>2025-04-16T01:47:14.150Z</time>
      </trkpt>
      <trkpt lat="44.67566" lon="3.70245">
        <ele>1116.41</ele>
        <time>2025-04-16T01:47:30.310Z</time>
      </trkpt>
      <trkpt lat="44.67558" lon="3.70212">
        <ele>1117.08</ele>
        <time>2025-04-16T01:47:46.474Z</time>
      </trkpt>
      <trkpt lat="44.6755" lon="3.7018">
        <ele>1117.73</ele>
        <time>2025-04-16T01:48:02.642Z</time>
      </trkpt>
      <trkpt lat="44.67542" lon="3.70147">
        <ele>1118.46</ele>
        <time>2025-04-16T01:48:18.814Z</time>
      </trkpt>
      <trkpt lat="44.67535" lon="3.70115">
        <ele>1119.2</ele>
        <time>2025-04-16T01:48:34.989Z</time>
      </trkpt>
      <trkpt lat="44.67523" lon="3.70079">
        <ele>1119.92</ele>
        <time>2025-04-16T01:48:51.169Z</time>
      </trkpt>
      <trkpt lat="44.67509" lon="3.70049">
        <ele>1120.61</ele>
        <time>2025-04-16T01:49:07.353Z</time>
      </trkpt>
      <trkpt lat="44.67495" lon="3.70026">
        <ele>1121.29</ele>
        <time>2025-04-16T01:49:23.540Z</time>
      </trkpt>
      <trkpt lat="44.6748" lon="3.70003">
        <ele>1122</ele>
        <time>2025-04-16T01:49:39.731Z</time>
      </trkpt>
      <trkpt lat="44.67466" lon="3.6998">
        <ele>1122.85</ele>
        <time>2025-04-16T01:49:55.925Z</time>
      </trkpt>
      <trkpt lat="44.67449" lon="3.69967">
        <ele>1123.57</ele>
        <time>2025-04-16T01:50:12.123Z</time>
      </trkpt>
      <trkpt lat="44.67433" lon="3.69959">
        <ele>1124.21</ele>
        <time>2025-04-16T01:50:28.323Z</time>
      </trkpt>
      <trkpt lat="44.67418" lon="3.69952">
        <ele>1124.82</ele>
        <time>2025-04-16T01:50:44.526Z</time>
      </trkpt>
      <trkpt lat="44.67403" lon="3.69949">
        <ele>1125.34</ele>
        <time>2025-04-16T01:51:00.731Z</time>
      </trkpt>
      <trkpt lat="44.67375" lon="3.6995">
        <ele>1125.77</ele>
        <time>2025-04-16T01:51:16.941Z</time>
      </trkpt>
      <trkpt lat="44.67347" lon="3.69951">
        <ele>1126.19</ele>
        <time>2025-04-16T01:51:33.155Z</time>
      </trkpt>
      <trkpt lat="44.67319" lon="3.69952">
        <ele>1126.6</ele>
        <time>2025-04-16T01:51:49.374Z</time>
      </trkpt>
      <trkpt lat="44.67307" lon="3.69945">
        <ele>1127.07</ele>
        <time>2025-04-16T01:52:05.595Z</time>
      </trkpt>
      <trkpt lat="44.67297" lon="3.69932">
        <ele>1127.52</ele>
        <time>2025-04-16T01:52:21.818Z</time>
      </trkpt>
      <trkpt lat="44.67284" lon="3.69895">
        <ele>1128.03</ele>
        <time>2025-04-16T01:52:38.046Z</time>
      </trkpt>
      <trkpt lat="44.67271" lon="3.69858">
        <ele>1128.5</ele>
        <time>2025-04-16T01:52:54.278Z</time>
      </trkpt>
      <trkpt lat="44.6726" lon="3.6982">
        <ele>1128.9</ele>
        <time>2025-04-16T01:53:10.515Z</time>
      </trkpt>
      <trkpt lat="44.6725" lon="3.69781">
        <ele>1129.21</ele>
        <time>2025-04-16T01:53:26.757Z</time>
      </trkpt>
      <trkpt lat="44.6724" lon="3.69751">
        <ele>1129.51</ele>
        <time>2025-04-16T01:53:43.003Z</time>
      </trkpt>
      <trkpt lat="44.67225" lon="3.69728">
        <ele>1129.83</ele>
        <time>2025-04-16T01:53:59.252Z</time>
      </trkpt>
      <trkpt lat="44.67206" lon="3.6971">
        <ele>1130.25</ele>
        <time>2025-04-16T01:54:15.505Z</time>
      </trkpt>
      <trkpt lat="44.67191" lon="3.69704">
        <ele>1130.63</ele>
        <time>2025-04-16T01:54:31.760Z</time>
      </trkpt>
      <trkpt lat="44.67174" lon="3.69701">
        <ele>1130.99</ele>
        <time>2025-04-16T01:54:48.018Z</time>
      </trkpt>
      <trkpt lat="44.67144" lon="3.69704">
        <ele>1131.32</ele>
        <time>2025-04-16T01:55:04.281Z</time>
      </trkpt>
      <trkpt lat="44.67115" lon="3.69704">
        <ele>1131.61</ele>
        <time>2025-04-16T01:55:20.548Z</time>
      </trkpt>
      <trkpt lat="44.67086" lon="3.69704">
        <ele>1131.76</ele>
        <time>2025-04-16T01:55:36.820Z</time>
      </trkpt>
      <trkpt lat="44.67068" lon="3.69696">
        <ele>1131.96</ele>
        <time>2025-04-16T01:55:53.095Z</time>
      </trkpt>
      <trkpt lat="44.67052" lon="3.69682">
        <ele>1132.18</ele>
        <time>2025-04-16T01:56:09.373Z</time>
      </trkpt>
      <trkpt lat="44.67035" lon="3.69663">
        <ele>1132.37</ele>
        <time>2025-04-16T01:56:25.655Z</time>
      </trkpt>
      <trkpt lat="44.67017" lon="3.69643">
        <ele>1132.56</ele>
        <time>2025-04-16T01:56:41.940Z</time>
      </trkpt>
      <trkpt lat="44.67" lon="3.69623">
        <ele>1132.72</ele>
        <time>2025-04-16T01:56:58.229Z</time>
      </trkpt>
      <trkpt lat="44.66978" lon="3.69598">
        <ele>1132.91</ele>
        <time>2025-04-16T01:57:14.522Z</time>
      </trkpt>
      <trkpt lat="44.66963" lon="3.69588">
        <ele>1133.11</ele>
        <time>2025-04-16T01:57:30.818Z</time>
      </trkpt>
      <trkpt lat="44.66947" lon="3.69581">
        <ele>1133.31</ele>
        <time>2025-04-16T01:57:47.117Z</time>
      </trkpt>
      <trkpt lat="44.66925" lon="3.69576">
        <ele>1133.53</ele>
        <time>2025-04-16T01:58:03.419Z</time>
      </trkpt>
      <trkpt lat="44.66909" lon="3.69574">
        <ele>1133.72</ele>
        <time>2025-04-16T01:58:19.724Z</time>
      </trkpt>
      <trkpt lat="44.66885" lon="3.69576">
        <ele>1133.92</ele>
        <time>2025-04-16T01:58:36.033Z</time>
      </trkpt>
      <trkpt lat="44.66861" lon="3.69578">
        <ele>1134.07</ele>
        <time>2025-04-16T01:58:52.346Z</time>
      </trkpt>
      <trkpt lat="44.66845" lon="3.69584">
        <ele>1134.19</ele>
        <time>2025-04-16T01:59:08.661Z</time>
      </trkpt>
      <trkpt lat="44.6683" lon="3.69589">
        <ele>1134.35</ele>
        <time>2025-04-16T01:59:24.979Z</time>
      </trkpt>
      <trkpt lat="44.66811" lon="3.69603">
        <ele>1134.53</ele>
        <time>2025-04-16T01:59:41.300Z</time>
      </trkpt>
      <trkpt lat="44.66793" lon="3.69626">
        <ele>1134.76</ele>
        <time>2025-04-16T01:59:57.625Z</time>
      </trkpt>
      <trkpt lat="44.66775" lon="3.69648">
        <ele>1134.92</ele>
        <time>2025-04-16T02:00:13.954Z</time>
      </trkpt>
      <trkpt lat="44.66757" lon="3.69671">
        <ele>1135.04</ele>
        <time>2025-04-16T02:00:30.287Z</time>
      </trkpt>
      <trkpt lat="44.66742" lon="3.69687">
        <ele>1135.15</ele>
        <time>2025-04-16T02:00:46.623Z</time>
      </trkpt>
      <trkpt lat="44.66729" lon="3.69692">
        <ele>1135.33</ele>
        <time>2025-04-16T02:01:02.961Z</time>
      </trkpt>
      <trkpt lat="44.66713" lon="3.69694">
        <ele>1135.51</ele>
        <time>2025-04-16T02:01:19.301Z</time>
      </trkpt>
      <trkpt lat="44.66682" lon="3.69688">
        <ele>1135.68</ele>
        <time>2025-04-16T02:01:35.646Z</time>
      </trkpt>
      <trkpt lat="44.66652" lon="3.69681">
        <ele>1135.77</ele>
        <time>2025-04-16T02:01:51.996Z</time>
      </trkpt>
      <trkpt lat="44.66622" lon="3.69675">
        <ele>1135.94</ele>
        <time>2025-04-16T02:02:08.351Z</time>
      </trkpt>
      <trkpt lat="44.66591" lon="3.69669">
        <ele>1136.18</ele>
        <time>2025-04-16T02:02:24.711Z</time>
      </trkpt>
      <trkpt lat="44.66561" lon="3.69662">
        <ele>1136.37</ele>
        <time>2025-04-16T02:02:41.076Z</time>
      </trkpt>
      <trkpt lat="44.66531" lon="3.69656">
        <ele>1136.51</ele>
        <time>2025-04-16T02:02:57.446Z</time>
      </trkpt>
      <trkpt lat="44.665" lon="3.69649">
        <ele>1136.68</ele>
        <time>2025-04-16T02:03:13.821Z</time>
      </trkpt>
      <trkpt lat="44.66478" lon="3.6965">
        <ele>1136.82</ele>
        <time>2025-04-16T02:03:30.199Z</time>
      </trkpt>
      <trkpt lat="44.66463" lon="3.69657">
        <ele>1137.03</ele>
        <time>2025-04-16T02:03:46.580Z</time>
      </trkpt>
      <trkpt lat="44.66442" lon="3.69673">
        <ele>1137.12</ele>
        <time>2025-04-16T02:04:02.965Z</time>
      </trkpt>
      <trkpt lat="44.66422" lon="3.69689">
        <ele>1137.24</ele>
        <time>2025-04-16T02:04:19.353Z</time>
      </trkpt>
      <trkpt lat="44.66404" lon="3.69699">
        <ele>1137.33</ele>
        <time>2025-04-16T02:04:35.745Z</time>
      </trkpt>
      <trkpt lat="44.66386" lon="3.69708">
        <ele>1137.44</ele>
        <time>2025-04-16T02:04:52.140Z</time>
      </trkpt>
      <trkpt lat="44.66359" lon="3.69717">
        <ele>1137.61</ele>
        <time>2025-04-16T02:05:08.539Z</time>
      </trkpt>
      <trkpt lat="44.66333" lon="3.69726">
        <ele>1137.73</ele>
        <time>2025-04-16T02:05:24.942Z</time>
      </trkpt>
      <trkpt lat="44.66307" lon="3.69735">
        <ele>1137.85</ele>
        <time>2025-04-16T02:05:41.350Z</time>
      </trkpt>
      <trkpt lat="44.6628" lon="3.69744">
        <ele>1137.97</ele>
        <time>2025-04-16T02:05:57.762Z</time>
      </trkpt>
      <trkpt lat="44.66255" lon="3.69748">
        <ele>1138.05</ele>
        <time>2025-04-16T02:06:14.178Z</time>
      </trkpt>
      <trkpt lat="44.66229" lon="3.69747">
        <ele>1138.22</ele>
        <time>2025-04-16T02:06:30.598Z</time>
      </trkpt>
      <trkpt lat="44.66212" lon="3.6974">
        <ele>1138.41</ele>
        <time>2025-04-16T02:06:47.021Z</time>
      </trkpt>
      <trkpt lat="44.66196" lon="3.6973">
        <ele>1138.61</ele>
        <time>2025-04-16T02:07:03.447Z</time>
      </trkpt>
      <trkpt lat="44.66173" lon="3.69709">
        <ele>1138.81</ele>
        <time>2025-04-16T02:07:19.877Z</time>
      </trkpt>
      <trkpt lat="44.6615" lon="3.69688">
        <ele>1139</ele>
        <time>2025-04-16T02:07:36.312Z</time>
      </trkpt>
      <trkpt lat="44.66127" lon="3.69667">
        <ele>1139.13</ele>
        <time>2025-04-16T02:07:52.751Z</time>
      </trkpt>
      <trkpt lat="44.66127" lon="3.69667">
        <ele>1139.28</ele>
        <time>2025-04-16T02:08:09.190Z</time>
      </trkpt>
      <trkpt lat="44.66101" lon="3.69644">
        <ele>1139.38</ele>
        <time>2025-04-16T02:08:25.634Z</time>
      </trkpt>
      <trkpt lat="44.66074" lon="3.6962">
        <ele>1139.47</ele>
        <time>2025-04-16T02:08:42.083Z</time>
      </trkpt>
      <trkpt lat="44.66066" lon="3.69603">
        <ele>1139.64</ele>
        <time>2025-04-16T02:08:58.534Z</time>
      </trkpt>
      <trkpt lat="44.66058" lon="3.69582">
        <ele>1139.81</ele>
        <time>2025-04-16T02:09:14.988Z</time>
      </trkpt>
      <trkpt lat="44.6605" lon="3.69554">
        <ele>1140</ele>
        <time>2025-04-16T02:09:31.446Z</time>
      </trkpt>
      <trkpt lat="44.66037" lon="3.6953">
        <ele>1140.22</ele>
        <time>2025-04-16T02:09:47.907Z</time>
      </trkpt>
      <trkpt lat="44.66016" lon="3.69504">
        <ele>1140.4</ele>
        <time>2025-04-16T02:10:04.373Z</time>
      </trkpt>
      <trkpt lat="44.65995" lon="3.69479">
        <ele>1140.57</ele>
        <time>2025-04-16T02:10:20.843Z</time>
      </trkpt>
      <trkpt lat="44.65974" lon="3.69453">
        <ele>1140.75</ele>
        <time>2025-04-16T02:10:37.317Z</time>
      </trkpt>
      <trkpt lat="44.65959" lon="3.69437">
        <ele>1140.9</ele>
        <time>2025-04-16T02:10:53.794Z</time>
      </trkpt>
      <trkpt lat="44.65944" lon="3.69422">
        <ele>1141.07</ele>
        <time>2025-04-16T02:11:10.274Z</time>
      </trkpt>
      <trkpt lat="44.65917" lon="3.69407">
        <ele>1141.16</ele>
        <time>2025-04-16T02:11:26.759Z</time>
      </trkpt>
      <trkpt lat="44.6589" lon="3.69392">
        <ele>1141.31</ele>
        <time>2025-04-16T02:11:43.249Z</time>
      </trkpt>
      <trkpt lat="44.65863" lon="3.69377">
        <ele>1141.44</ele>
        <time>2025-04-16T02:11:59.743Z</time>
      </trkpt>
      <trkpt lat="44.65836" lon="3.69362">
        <ele>1141.5</ele>
        <time>2025-04-16T02:12:16.242Z</time>
      </trkpt>
      <trkpt lat="44.65815" lon="3.69341">
        <ele>1141.61</ele>
        <time>2025-04-16T02:12:32.745Z</time>
      </trkpt>
      <trkpt lat="44.65793" lon="3.69321">
        <ele>1141.71</ele>
        <time>2025-04-16T02:12:49.252Z</time>
      </trkpt>
      <trkpt lat="44.65775" lon="3.69288">
        <ele>1141.8</ele>
        <time>2025-04-16T02:13:05.764Z</time>
      </trkpt>
      <trkpt lat="44.65764" lon="3.69264">
        <ele>1141.87</ele>
        <time>2025-04-16T02:13:22.279Z</time>
      </trkpt>
      <trkpt lat="44.65754" lon="3.6924">
        <ele>1141.95</ele>
        <time>2025-04-16T02:13:38.797Z</time>
      </trkpt>
      <trkpt lat="44.65742" lon="3.69213">
        <ele>1142.04</ele>
        <time>2025-04-16T02:13:55.319Z</time>
      </trkpt>
      <trkpt lat="44.65731" lon="3.69185">
        <ele>1142.12</ele>
        <time>2025-04-16T02:14:11.845Z</time>
      </trkpt>
      <trkpt lat="44.6572" lon="3.69157">
        <ele>1142.2</ele>
        <time>2025-04-16T02:14:28.374Z</time>
      </trkpt>
      <trkpt lat="44.65705" lon="3.69131">
        <ele>1142.27</ele>
        <time>2025-04-16T02:14:44.907Z</time>
      </trkpt>
      <trkpt lat="44.65686" lon="3.69105">
        <ele>1142.36</ele>
        <time>2025-04-16T02:15:01.444Z</time>
      </trkpt>
      <trkpt lat="44.65669" lon="3.69086">
        <ele>1142.46</ele>
        <time>2025-04-16T02:15:17.985Z</time>
      </trkpt>
      <trkpt lat="44.65651" lon="3.69072">
        <ele>1142.58</ele>
        <time>2025-04-16T02:15:34.529Z</time>
      </trkpt>
      <trkpt lat="44.65627" lon="3.69058">
        <ele>1142.69</ele>
        <time>2025-04-16T02:15:51.077Z</time>
      </trkpt>
      <trkpt lat="44.65597" lon="3.69046">
        <ele>1142.78</ele>
        <time>2025-04-16T02:16:07.630Z</time>
      </trkpt>
      <trkpt lat="44.65574" lon="3.69041">
        <ele>1142.84</ele>
        <time>2025-04-16T02:16:24.187Z</time>
      </trkpt>
      <trkpt lat="44.65551" lon="3.69036">
        <ele>1142.85</ele>
        <time>2025-04-16T02:16:40.748Z</time>
      </trkpt>
      <trkpt lat="44.65527" lon="3.6903">
        <ele>1142.82</ele>
        <time>2025-04-16T02:16:57.313Z</time>
      </trkpt>
      <trkpt lat="44.65507" lon="3.69024">
        <ele>1142.86</ele>
        <time>2025-04-16T02:17:13.881Z</time>
      </trkpt>
      <trkpt lat="44.65486" lon="3.69018">
        <ele>1142.98</ele>
        <time>2025-04-16T02:17:30.452Z</time>
      </trkpt>
      <trkpt lat="44.65471" lon="3.69007">
        <ele>1143.08</ele>
        <time>2025-04-16T02:17:47.026Z</time>
      </trkpt>
      <trkpt lat="44.65465" lon="3.68994">
        <ele>1143.15</ele>
        <time>2025-04-16T02:18:03.602Z</time>
      </trkpt>
      <trkpt lat="44.6546" lon="3.68969">
        <ele>1143.16</ele>
        <time>2025-04-16T02:18:20.181Z</time>
      </trkpt>
      <trkpt lat="44.6546" lon="3.68927">
        <ele>1143.1</ele>
        <time>2025-04-16T02:18:36.765Z</time>
      </trkpt>
      <trkpt lat="44.6546" lon="3.68885">
        <ele>1143</ele>
        <time>2025-04-16T02:18:53.353Z</time>
      </trkpt>
      <trkpt lat="44.65454" lon="3.68862">
        <ele>1142.93</ele>
        <time>2025-04-16T02:19:09.944Z</time>
      </trkpt>
      <trkpt lat="44.65449" lon="3.68839">
        <ele>1142.81</ele>
        <time>2025-04-16T02:19:26.538Z</time>
      </trkpt>
      <trkpt lat="44.65435" lon="3.68803">
        <ele>1142.71</ele>
        <time>2025-04-16T02:19:43.137Z</time>
      </trkpt>
      <trkpt lat="44.65417" lon="3.68779">
        <ele>1142.63</ele>
        <time>2025-04-16T02:19:59.740Z</time>
      </trkpt>
      <trkpt lat="44.654" lon="3.68754">
        <ele>1142.48</ele>
        <time>2025-04-16T02:20:16.347Z</time>
      </trkpt>
      <trkpt lat="44.65376" lon="3.6874">
        <ele>1142.36</ele>
        <time>2025-04-16T02:20:32.958Z</time>
      </trkpt>
      <trkpt lat="44.65353" lon="3.68726">
        <ele>1142.26</ele>
        <time>2025-04-16T02:20:49.573Z</time>
      </trkpt>
      <trkpt lat="44.6533" lon="3.68712">
        <ele>1142.18</ele>
        <time>2025-04-16T02:21:06.192Z</time>
      </trkpt>
      <trkpt lat="44.65305" lon="3.68699">
        <ele>1142.08</ele>
        <time>2025-04-16T02:21:22.815Z</time>
      </trkpt>
      <trkpt lat="44.6528" lon="3.68687">
        <ele>1141.88</ele>
        <time>2025-04-16T02:21:39.442Z</time>
      </trkpt>
      <trkpt lat="44.65255" lon="3.68674">
        <ele>1141.66</ele>
        <time>2025-04-16T02:21:56.074Z</time>
      </trkpt>
      <trkpt lat="44.65229" lon="3.68662">
        <ele>1141.41</ele>
        <time>2025-04-16T02:22:12.710Z</time>
      </trkpt>
      <trkpt lat="44.65204" lon="3.68649">
        <ele>1141.22</ele>
        <time>2025-04-16T02:22:29.350Z</time>
      </trkpt>
      <trkpt lat="44.65195" lon="3.68642">
        <ele>1140.99</ele>
        <time>2025-04-16T02:22:45.992Z</time>
      </trkpt>
      <trkpt lat="44.65195" lon="3.68642">
        <ele>1140.74</ele>
        <time>2025-04-16T02:23:02.634Z</time>
      </trkpt>
      <trkpt lat="44.65175" lon="3.68627">
        <ele>1140.53</ele>
        <time>2025-04-16T02:23:19.279Z</time>
      </trkpt>
      <trkpt lat="44.65155" lon="3.68612">
        <ele>1140.23</ele>
        <time>2025-04-16T02:23:35.928Z</time>
      </trkpt>
      <trkpt lat="44.65135" lon="3.68597">
        <ele>1139.9</ele>
        <time>2025-04-16T02:23:52.581Z</time>
      </trkpt>
      <trkpt lat="44.65115" lon="3.68579">
        <ele>1139.58</ele>
        <time>2025-04-16T02:24:09.237Z</time>
      </trkpt>
      <trkpt lat="44.65095" lon="3.68562">
        <ele>1139.34</ele>
        <time>2025-04-16T02:24:25.897Z</time>
      </trkpt>
      <trkpt lat="44.65076" lon="3.68544">
        <ele>1139.06</ele>
        <time>2025-04-16T02:24:42.561Z</time>
      </trkpt>
      <trkpt lat="44.65056" lon="3.68517">
        <ele>1138.73</ele>
        <time>2025-04-16T02:24:59.229Z</time>
      </trkpt>
      <trkpt lat="44.65037" lon="3.68491">
        <ele>1138.4</ele>
        <time>2025-04-16T02:25:15.902Z</time>
      </trkpt>
      <trkpt lat="44.65021" lon="3.68457">
        <ele>1138.13</ele>
        <time>2025-04-16T02:25:32.579Z</time>
      </trkpt>
      <trkpt lat="44.65005" lon="3.68424">
        <ele>1137.9</ele>
        <time>2025-04-16T02:25:49.261Z</time>
      </trkpt>
      <trkpt lat="44.64997" lon="3.68386">
        <ele>1137.71</ele>
        <time>2025-04-16T02:26:05.947Z</time>
      </trkpt>
      <trkpt lat="44.64989" lon="3.68348">
        <ele>1137.52</ele>
        <time>2025-04-16T02:26:22.638Z</time>
      </trkpt>
      <trkpt lat="44.64981" lon="3.6831">
        <ele>1137.33</ele>
        <time>2025-04-16T02:26:39.333Z</time>
      </trkpt>
      <trkpt lat="44.64973" lon="3.68272">
        <ele>1137.16</ele>
        <time>2025-04-16T02:26:56.033Z</time>
      </trkpt>
      <trkpt lat="44.64965" lon="3.68234">
        <ele>1137.04</ele>
        <time>2025-04-16T02:27:12.737Z</time>
      </trkpt>
      <trkpt lat="44.64957" lon="3.68196">
        <ele>1136.93</ele>
        <time>2025-04-16T02:27:29.446Z</time>
      </trkpt>
      <trkpt lat="44.64949" lon="3.68158">
        <ele>1136.84</ele>
        <time>2025-04-16T02:27:46.160Z</time>
      </trkpt>
      <trkpt lat="44.64941" lon="3.6812">
        <ele>1136.8</ele>
        <time>2025-04-16T02:28:02.878Z</time>
      </trkpt>
      <trkpt lat="44.64933" lon="3.68081">
        <ele>1136.75</ele>
        <time>2025-04-16T02:28:19.601Z</time>
      </trkpt>
      <trkpt lat="44.64925" lon="3.68041">
        <ele>1136.77</ele>
        <time>2025-04-16T02:28:36.328Z</time>
      </trkpt>
      <trkpt lat="44.64917" lon="3.68002">
        <ele>1136.88</ele>
        <time>2025-04-16T02:28:53.060Z</time>
      </trkpt>
      <trkpt lat="44.64909" lon="3.67963">
        <ele>1137.05</ele>
        <time>2025-04-16T02:29:09.797Z</time>
      </trkpt>
      <trkpt lat="44.64903" lon="3.67924">
        <ele>1137.27</ele>
        <time>2025-04-16T02:29:26.538Z</time>
      </trkpt>
      <trkpt lat="44.64896" lon="3.67886">
        <ele>1137.54</ele>
        <time>2025-04-16T02:29:43.284Z</time>
      </trkpt>
      <trkpt lat="44.64895" lon="3.67856">
        <ele>1137.94</ele>
        <time>2025-04-16T02:30:00.033Z</time>
      </trkpt>
      <trkpt lat="44.64897" lon="3.67832">
        <ele>1138.42</ele>
        <time>2025-04-16T02:30:16.785Z</time>
      </trkpt>
      <trkpt lat="44.649" lon="3.67807">
        <ele>1138.97</ele>
        <time>2025-04-16T02:30:33.540Z</time>
      </trkpt>
      <trkpt lat="44.64907" lon="3.67779">
        <ele>1139.54</ele>
        <time>2025-04-16T02:30:50.298Z</time>
      </trkpt>
      <trkpt lat="44.64909" lon="3.67767">
        <ele>1140.21</ele>
        <time>2025-04-16T02:31:07.058Z</time>
      </trkpt>
      <trkpt lat="44.6491" lon="3.67767">
        <ele>1140.95</ele>
        <time>2025-04-16T02:31:23.818Z</time>
      </trkpt>
      <trkpt lat="44.6491" lon="3.67767">
        <ele>1141.78</ele>
        <time>2025-04-16T02:31:40.578Z</time>
      </trkpt>
      <trkpt lat="44.64912" lon="3.67752">
        <ele>1142.72</ele>
        <time>2025-04-16T02:31:57.339Z</time>
      </trkpt>
      <trkpt lat="44.6492" lon="3.67727">
        <ele>1143.75</ele>
        <time>2025-04-16T02:32:14.104Z</time>
      </trkpt>
      <trkpt lat="44.64927" lon="3.67701">
        <ele>1144.91</ele>
        <time>2025-04-16T02:32:30.872Z</time>
      </trkpt>
      <trkpt lat="44.6493" lon="3.67694">
        <ele>1146.11</ele>
        <time>2025-04-16T02:32:47.640Z</time>
      </trkpt>
      <trkpt lat="44.64927" lon="3.67673">
        <ele>1147.44</ele>
        <time>2025-04-16T02:33:04.411Z</time>
      </trkpt>
      <trkpt lat="44.64926" lon="3.67637">
        <ele>1148.84</ele>
        <time>2025-04-16T02:33:21.186Z</time>
      </trkpt>
      <trkpt lat="44.64925" lon="3.67602">
        <ele>1150.29</ele>
        <time>2025-04-16T02:33:37.965Z</time>
      </trkpt>
      <trkpt lat="44.64924" lon="3.67566">
        <ele>1151.85</ele>
        <time>2025-04-16T02:33:54.748Z</time>
      </trkpt>
      <trkpt lat="44.64923" lon="3.67531">
        <ele>1153.55</ele>
        <time>2025-04-16T02:34:11.535Z</time>
      </trkpt>
      <trkpt lat="44.64924" lon="3.67498">
        <ele>1155.28</ele>
        <time>2025-04-16T02:34:28.326Z</time>
      </trkpt>
      <trkpt lat="44.64925" lon="3.67464">
        <ele>1157.1</ele>
        <time>2025-04-16T02:34:45.121Z</time>
      </trkpt>
      <trkpt lat="44.64925" lon="3.6743">
        <ele>1159.03</ele>
        <time>2025-04-16T02:35:01.920Z</time>
      </trkpt>
      <trkpt lat="44.64935" lon="3.67403">
        <ele>1161.06</ele>
        <time>2025-04-16T02:35:18.722Z</time>
      </trkpt>
      <trkpt lat="44.64945" lon="3.67375">
        <ele>1163.13</ele>
        <time>2025-04-16T02:35:35.528Z</time>
      </trkpt>
      <trkpt lat="44.64959" lon="3.67342">
        <ele>1165.24</ele>
        <time>2025-04-16T02:35:52.338Z</time>
      </trkpt>
      <trkpt lat="44.64973" lon="3.67309">
        <ele>1167.32</ele>
        <time>2025-04-16T02:36:09.153Z</time>
      </trkpt>
      <trkpt lat="44.64988" lon="3.67276">
        <ele>1169.33</ele>
        <time>2025-04-16T02:36:25.972Z</time>
      </trkpt>
      <trkpt lat="44.64991" lon="3.6725">
        <ele>1171.41</ele>
        <time>2025-04-16T02:36:42.794Z</time>
      </trkpt>
      <trkpt lat="44.64994" lon="3.67225">
        <ele>1173.47</ele>
        <time>2025-04-16T02:36:59.619Z</time>
      </trkpt>
      <trkpt lat="44.64994" lon="3.67194">
        <ele>1175.59</ele>
        <time>2025-04-16T02:37:16.447Z</time>
      </trkpt>
      <trkpt lat="44.64989" lon="3.67167">
        <ele>1177.79</ele>
        <time>2025-04-16T02:37:33.279Z</time>
      </trkpt>
      <trkpt lat="44.64983" lon="3.67139">
        <ele>1179.88</ele>
        <time>2025-04-16T02:37:50.114Z</time>
      </trkpt>
      <trkpt lat="44.64968" lon="3.67104">
        <ele>1181.94</ele>
        <time>2025-04-16T02:38:06.954Z</time>
      </trkpt>
      <trkpt lat="44.64953" lon="3.67079">
        <ele>1183.98</ele>
        <time>2025-04-16T02:38:23.797Z</time>
      </trkpt>
      <trkpt lat="44.64933" lon="3.67055">
        <ele>1186.01</ele>
        <time>2025-04-16T02:38:40.645Z</time>
      </trkpt>
      <trkpt lat="44.64912" lon="3.67031">
        <ele>1188.02</ele>
        <time>2025-04-16T02:38:57.497Z</time>
      </trkpt>
      <trkpt lat="44.64893" lon="3.67021">
        <ele>1190.11</ele>
        <time>2025-04-16T02:39:14.352Z</time>
      </trkpt>
      <trkpt lat="44.64865" lon="3.67012">
        <ele>1192.22</ele>
        <time>2025-04-16T02:39:31.212Z</time>
      </trkpt>
      <trkpt lat="44.6484" lon="3.67019">
        <ele>1194.31</ele>
        <time>2025-04-16T02:39:48.076Z</time>
      </trkpt>
      <trkpt lat="44.64817" lon="3.67042">
        <ele>1196.34</ele>
        <time>2025-04-16T02:40:04.944Z</time>
      </trkpt>
      <trkpt lat="44.64795" lon="3.67066">
        <ele>1198.37</ele>
        <time>2025-04-16T02:40:21.817Z</time>
      </trkpt>
      <trkpt lat="44.64773" lon="3.67089">
        <ele>1200.42</ele>
        <time>2025-04-16T02:40:38.694Z</time>
      </trkpt>
      <trkpt lat="44.64753" lon="3.67102">
        <ele>1202.36</ele>
        <time>2025-04-16T02:40:55.575Z</time>
      </trkpt>
      <trkpt lat="44.64732" lon="3.67115">
        <ele>1204.34</ele>
        <time>2025-04-16T02:41:12.459Z</time>
      </trkpt>
      <trkpt lat="44.64712" lon="3.6714">
        <ele>1206.48</ele>
        <time>2025-04-16T02:41:29.348Z</time>
      </trkpt>
      <trkpt lat="44.64691" lon="3.67164">
        <ele>1208.64</ele>
        <time>2025-04-16T02:41:46.241Z</time>
      </trkpt>
      <trkpt lat="44.64668" lon="3.67178">
        <ele>1210.6</ele>
        <time>2025-04-16T02:42:03.138Z</time>
      </trkpt>
      <trkpt lat="44.64644" lon="3.67192">
        <ele>1212.63</ele>
        <time>2025-04-16T02:42:20.039Z</time>
      </trkpt>
      <trkpt lat="44.64628" lon="3.67212">
        <ele>1214.8</ele>
        <time>2025-04-16T02:42:36.944Z</time>
      </trkpt>
      <trkpt lat="44.64612" lon="3.67231">
        <ele>1216.98</ele>
        <time>2025-04-16T02:42:53.852Z</time>
      </trkpt>
      <trkpt lat="44.64593" lon="3.67246">
        <ele>1219.16</ele>
        <time>2025-04-16T02:43:10.764Z</time>
      </trkpt>
      <trkpt lat="44.64572" lon="3.67252">
        <ele>1221.3</ele>
        <time>2025-04-16T02:43:27.679Z</time>
      </trkpt>
      <trkpt lat="44.64552" lon="3.67259">
        <ele>1223.48</ele>
        <time>2025-04-16T02:43:44.597Z</time>
      </trkpt>
      <trkpt lat="44.64524" lon="3.67263">
        <ele>1225.64</ele>
        <time>2025-04-16T02:44:01.520Z</time>
      </trkpt>
      <trkpt lat="44.64496" lon="3.67267">
        <ele>1227.66</ele>
        <time>2025-04-16T02:44:18.447Z</time>
      </trkpt>
      <trkpt lat="44.64467" lon="3.67262">
        <ele>1229.7</ele>
        <time>2025-04-16T02:44:35.379Z</time>
      </trkpt>
      <trkpt lat="44.64438" lon="3.67256">
        <ele>1231.83</ele>
        <time>2025-04-16T02:44:52.316Z</time>
      </trkpt>
      <trkpt lat="44.64408" lon="3.6725">
        <ele>1233.87</ele>
        <time>2025-04-16T02:45:09.257Z</time>
      </trkpt>
      <trkpt lat="44.64393" lon="3.67252">
        <ele>1235.85</ele>
        <time>2025-04-16T02:45:26.201Z</time>
      </trkpt>
      <trkpt lat="44.64372" lon="3.6726">
        <ele>1237.98</ele>
        <time>2025-04-16T02:45:43.148Z</time>
      </trkpt>
      <trkpt lat="44.6435" lon="3.67267">
        <ele>1240.08</ele>
        <time>2025-04-16T02:46:00.099Z</time>
      </trkpt>
      <trkpt lat="44.64346" lon="3.67276">
        <ele>1242.21</ele>
        <time>2025-04-16T02:46:17.051Z</time>
      </trkpt>
      <trkpt lat="44.6435" lon="3.67287">
        <ele>1244.37</ele>
        <time>2025-04-16T02:46:34.005Z</time>
      </trkpt>
      <trkpt lat="44.64373" lon="3.67299">
        <ele>1246.49</ele>
        <time>2025-04-16T02:46:50.962Z</time>
      </trkpt>
      <trkpt lat="44.64395" lon="3.6731">
        <ele>1248.56</ele>
        <time>2025-04-16T02:47:07.923Z</time>
      </trkpt>
      <trkpt lat="44.64406" lon="3.67321">
        <ele>1250.67</ele>
        <time>2025-04-16T02:47:24.886Z</time>
      </trkpt>
      <trkpt lat="44.64423" lon="3.67351">
        <ele>1252.86</ele>
        <time>2025-04-16T02:47:41.854Z</time>
      </trkpt>
      <trkpt lat="44.6444" lon="3.67381">
        <ele>1255.04</ele>
        <time>2025-04-16T02:47:58.826Z</time>
      </trkpt>
      <trkpt lat="44.64447" lon="3.67403">
        <ele>1257.11</ele>
        <time>2025-04-16T02:48:15.801Z</time>
      </trkpt>
      <trkpt lat="44.64445" lon="3.67413">
        <ele>1259.08</ele>
        <time>2025-04-16T02:48:32.777Z</time>
      </trkpt>
      <trkpt lat="44.64438" lon="3.67433">
        <ele>1261.02</ele>
        <time>2025-04-16T02:48:49.756Z</time>
      </trkpt>
      <trkpt lat="44.64426" lon="3.67452">
        <ele>1262.99</ele>
        <time>2025-04-16T02:49:06.737Z</time>
      </trkpt>
      <trkpt lat="44.64415" lon="3.67471">
        <ele>1264.9</ele>
        <time>2025-04-16T02:49:23.721Z</time>
      </trkpt>
      <trkpt lat="44.64406" lon="3.67473">
        <ele>1266.94</ele>
        <time>2025-04-16T02:49:40.707Z</time>
      </trkpt>
      <trkpt lat="44.64389" lon="3.67471">
        <ele>1269.01</ele>
        <time>2025-04-16T02:49:57.695Z</time>
      </trkpt>
      <trkpt lat="44.64372" lon="3.67469">
        <ele>1271.1</ele>
        <time>2025-04-16T02:50:14.686Z</time>
      </trkpt>
      <trkpt lat="44.64361" lon="3.67463">
        <ele>1273.13</ele>
        <time>2025-04-16T02:50:31.679Z</time>
      </trkpt>
      <trkpt lat="44.64344" lon="3.67473">
        <ele>1275.17</ele>
        <time>2025-04-16T02:50:48.675Z</time>
      </trkpt>
      <trkpt lat="44.64323" lon="3.67473">
        <ele>1277.1</ele>
        <time>2025-04-16T02:51:05.674Z</time>
      </trkpt>
      <trkpt lat="44.64303" lon="3.67473">
        <ele>1278.91</ele>
        <time>2025-04-16T02:51:22.677Z</time>
      </trkpt>
      <trkpt lat="44.64297" lon="3.6748">
        <ele>1280.47</ele>
        <time>2025-04-16T02:51:39.681Z</time>
      </trkpt>
      <trkpt lat="44.64296" lon="3.6748">
        <ele>1281.95</ele>
        <time>2025-04-16T02:51:56.685Z</time>
      </trkpt>
      <trkpt lat="44.64296" lon="3.6748">
        <ele>1283.38</ele>
        <time>2025-04-16T02:52:13.689Z</time>
      </trkpt>
      <trkpt lat="44.64288" lon="3.67488">
        <ele>1284.74</ele>
        <time>2025-04-16T02:52:30.695Z</time>
      </trkpt>
      <trkpt lat="44.64271" lon="3.6751">
        <ele>1285.97</ele>
        <time>2025-04-16T02:52:47.704Z</time>
      </trkpt>
      <trkpt lat="44.64243" lon="3.67529">
        <ele>1287.16</ele>
        <time>2025-04-16T02:53:04.718Z</time>
      </trkpt>
      <trkpt lat="44.64217" lon="3.67538">
        <ele>1288.36</ele>
        <time>2025-04-16T02:53:21.736Z</time>
      </trkpt>
      <trkpt lat="44.64191" lon="3.67542">
        <ele>1289.46</ele>
        <time>2025-04-16T02:53:38.759Z</time>
      </trkpt>
      <trkpt lat="44.64164" lon="3.67546">
        <ele>1290.39</ele>
        <time>2025-04-16T02:53:55.786Z</time>
      </trkpt>
      <trkpt lat="44.64138" lon="3.67551">
        <ele>1291.09</ele>
        <time>2025-04-16T02:54:12.817Z</time>
      </trkpt>
      <trkpt lat="44.64119" lon="3.67553">
        <ele>1291.57</ele>
        <time>2025-04-16T02:54:29.851Z</time>
      </trkpt>
      <trkpt lat="44.64116" lon="3.67516">
        <ele>1291.83</ele>
        <time>2025-04-16T02:54:46.890Z</time>
      </trkpt>
      <trkpt lat="44.64106" lon="3.67503">
        <ele>1291.88</ele>
        <time>2025-04-16T02:55:03.931Z</time>
      </trkpt>
      <trkpt lat="44.64087" lon="3.67518">
        <ele>1291.73</ele>
        <time>2025-04-16T02:55:20.975Z</time>
      </trkpt>
      <trkpt lat="44.64069" lon="3.67533">
        <ele>1291.35</ele>
        <time>2025-04-16T02:55:38.023Z</time>
      </trkpt>
      <trkpt lat="44.64056" lon="3.67538">
        <ele>1290.73</ele>
        <time>2025-04-16T02:55:55.073Z</time>
      </trkpt>
      <trkpt lat="44.64052" lon="3.67529">
        <ele>1289.84</ele>
        <time>2025-04-16T02:56:12.124Z</time>
      </trkpt>
      <trkpt lat="44.64024" lon="3.67521">
        <ele>1288.65</ele>
        <time>2025-04-16T02:56:29.179Z</time>
      </trkpt>
      <trkpt lat="44.64003" lon="3.67521">
        <ele>1287.23</ele>
        <time>2025-04-16T02:56:46.238Z</time>
      </trkpt>
      <trkpt lat="44.63986" lon="3.67527">
        <ele>1285.61</ele>
        <time>2025-04-16T02:57:03.300Z</time>
      </trkpt>
      <trkpt lat="44.63968" lon="3.67533">
        <ele>1283.72</ele>
        <time>2025-04-16T02:57:20.365Z</time>
      </trkpt>
      <trkpt lat="44.63977" lon="3.67516">
        <ele>1281.68</ele>
        <time>2025-04-16T02:57:37.432Z</time>
      </trkpt>
      <trkpt lat="44.63979" lon="3.67495">
        <ele>1279.26</ele>
        <time>2025-04-16T02:57:54.501Z</time>
      </trkpt>
      <trkpt lat="44.63968" lon="3.67512">
        <ele>1276.59</ele>
        <time>2025-04-16T02:58:11.573Z</time>
      </trkpt>
      <trkpt lat="44.63945" lon="3.67524">
        <ele>1273.51</ele>
        <time>2025-04-16T02:58:28.649Z</time>
      </trkpt>
      <trkpt lat="44.63921" lon="3.67536">
        <ele>1270.28</ele>
        <time>2025-04-16T02:58:45.729Z</time>
      </trkpt>
      <trkpt lat="44.63898" lon="3.67549">
        <ele>1266.84</ele>
        <time>2025-04-16T02:59:02.813Z</time>
      </trkpt>
      <trkpt lat="44.63882" lon="3.67564">
        <ele>1263.41</ele>
        <time>2025-04-16T02:59:19.900Z</time>
      </trkpt>
      <trkpt lat="44.63857" lon="3.67573">
        <ele>1259.62</ele>
        <time>2025-04-16T02:59:36.991Z</time>
      </trkpt>
      <trkpt lat="44.63832" lon="3.67582">
        <ele>1255.7</ele>
        <time>2025-04-16T02:59:54.086Z</time>
      </trkpt>
      <trkpt lat="44.63807" lon="3.67591">
        <ele>1251.7</ele>
        <time>2025-04-16T03:00:11.186Z</time>
      </trkpt>
      <trkpt lat="44.6378" lon="3.67582">
        <ele>1247.47</ele>
        <time>2025-04-16T03:00:28.290Z</time>
      </trkpt>
      <trkpt lat="44.63752" lon="3.67573">
        <ele>1243.19</ele>
        <time>2025-04-16T03:00:45.399Z</time>
      </trkpt>
      <trkpt lat="44.63724" lon="3.67564">
        <ele>1238.97</ele>
        <time>2025-04-16T03:01:02.512Z</time>
      </trkpt>
      <trkpt lat="44.63704" lon="3.6756">
        <ele>1234.78</ele>
        <time>2025-04-16T03:01:19.628Z</time>
      </trkpt>
      <trkpt lat="44.63685" lon="3.67557">
        <ele>1230.45</ele>
        <time>2025-04-16T03:01:36.748Z</time>
      </trkpt>
      <trkpt lat="44.6366" lon="3.67558">
        <ele>1226.08</ele>
        <time>2025-04-16T03:01:53.872Z</time>
      </trkpt>
      <trkpt lat="44.63635" lon="3.67559">
        <ele>1221.79</ele>
        <time>2025-04-16T03:02:11.000Z</time>
      </trkpt>
      <trkpt lat="44.6361" lon="3.67559">
        <ele>1217.63</ele>
        <time>2025-04-16T03:02:28.132Z</time>
      </trkpt>
      <trkpt lat="44.63591" lon="3.67566">
        <ele>1213.63</ele>
        <time>2025-04-16T03:02:45.267Z</time>
      </trkpt>
      <trkpt lat="44.63571" lon="3.67572">
        <ele>1209.74</ele>
        <time>2025-04-16T03:03:02.405Z</time>
      </trkpt>
      <trkpt lat="44.63543" lon="3.67576">
        <ele>1205.82</ele>
        <time>2025-04-16T03:03:19.548Z</time>
      </trkpt>
      <trkpt lat="44.63514" lon="3.6758">
        <ele>1202.05</ele>
        <time>2025-04-16T03:03:36.695Z</time>
      </trkpt>
      <trkpt lat="44.63485" lon="3.67584">
        <ele>1198.59</ele>
        <time>2025-04-16T03:03:53.847Z</time>
      </trkpt>
      <trkpt lat="44.63456" lon="3.67588">
        <ele>1195.5</ele>
        <time>2025-04-16T03:04:11.003Z</time>
      </trkpt>
      <trkpt lat="44.63428" lon="3.67591">
        <ele>1192.66</ele>
        <time>2025-04-16T03:04:28.164Z</time>
      </trkpt>
      <trkpt lat="44.63417" lon="3.67598">
        <ele>1190.06</ele>
        <time>2025-04-16T03:04:45.327Z</time>
      </trkpt>
      <trkpt lat="44.63408" lon="3.67611">
        <ele>1187.65</ele>
        <time>2025-04-16T03:05:02.492Z</time>
      </trkpt>
      <trkpt lat="44.634" lon="3.67606">
        <ele>1185.38</ele>
        <time>2025-04-16T03:05:19.658Z</time>
      </trkpt>
      <trkpt lat="44.63394" lon="3.67606">
        <ele>1183.27</ele>
        <time>2025-04-16T03:05:36.825Z</time>
      </trkpt>
    </trkseg>
  </trk>
</gpx>